<?xml version='1.0' encoding='UTF-8'?><gpx version="1.1" creator="JPX - https://github.com/jenetics/jpx" xmlns="http://www.topografix.com/GPX/1/1"><trk><trkseg><trkpt lat="45.50690279148161" lon="8.207582179213313"><ele>209.00000000000003</ele><time>2026-04-03T12:47:01.89Z</time></trkpt><trkpt lat="45.50682418120547" lon="8.207649775814204"><ele>209.0</ele><time>2026-04-03T12:47:04.74Z</time></trkpt><trkpt lat="45.50675101687404" lon="8.20767032178362"><ele>209.0</ele><time>2026-04-03T12:47:05.729Z</time></trkpt><trkpt lat="45.506681276449896" lon="8.207683078816231"><ele>209.0</ele><time>2026-04-03T12:47:06.729Z</time></trkpt><trkpt lat="45.50659298282306" lon="8.207695164149706"><ele>209.00000000000003</ele><time>2026-04-03T12:47:07.729Z</time></trkpt><trkpt lat="45.50667448583584" lon="8.207649641990471"><ele>209.0</ele><time>2026-04-03T12:47:09.729Z</time></trkpt><trkpt lat="45.50651029907917" lon="8.207706486047812"><ele>209.0</ele><time>2026-04-03T12:47:13.729Z</time></trkpt><trkpt lat="45.506728769471884" lon="8.20755819774283"><ele>209.0</ele><time>2026-04-03T12:47:15.729Z</time></trkpt><trkpt lat="45.505694365107416" lon="8.208195306348031"><ele>208.25</ele><time>2026-04-03T12:47:18.729Z</time></trkpt><trkpt lat="45.50571818957585" lon="8.208395197819884"><ele>207.5</ele><time>2026-04-03T12:47:20.729Z</time></trkpt><trkpt lat="45.50572735359761" lon="8.208553650879297"><ele>206.75</ele><time>2026-04-03T12:47:21.729Z</time></trkpt><trkpt lat="45.505741007026394" lon="8.208749244619232"><ele>206.0</ele><time>2026-04-03T12:47:22.729Z</time></trkpt><trkpt lat="45.50574878008698" lon="8.208929343101993"><ele>205.0</ele><time>2026-04-03T12:47:23.729Z</time></trkpt><trkpt lat="45.50575440039539" lon="8.209098921617695"><ele>204.0</ele><time>2026-04-03T12:47:24.729Z</time></trkpt><trkpt lat="45.505758180740635" lon="8.209265743770954"><ele>203.0</ele><time>2026-04-03T12:47:25.729Z</time></trkpt><trkpt lat="45.505764172717775" lon="8.209425280515509"><ele>202.0</ele><time>2026-04-03T12:47:26.729Z</time></trkpt><trkpt lat="45.50577225888068" lon="8.209581631201813"><ele>202.0</ele><time>2026-04-03T12:47:27.729Z</time></trkpt><trkpt lat="45.50578386545751" lon="8.209740173395412"><ele>202.0</ele><time>2026-04-03T12:47:28.729Z</time></trkpt><trkpt lat="45.50580343808567" lon="8.209902819207112"><ele>202.0</ele><time>2026-04-03T12:47:29.729Z</time></trkpt><trkpt lat="45.5058423785565" lon="8.210041801427012"><ele>202.0</ele><time>2026-04-03T12:47:30.729Z</time></trkpt><trkpt lat="45.505900407442795" lon="8.210181552117911"><ele>202.0</ele><time>2026-04-03T12:47:31.729Z</time></trkpt><trkpt lat="45.505974043726795" lon="8.210325798666322"><ele>202.0</ele><time>2026-04-03T12:47:32.729Z</time></trkpt><trkpt lat="45.50604417414978" lon="8.2104755665172"><ele>202.0</ele><time>2026-04-03T12:47:33.729Z</time></trkpt><trkpt lat="45.506116559095574" lon="8.210627774210502"><ele>202.0</ele><time>2026-04-03T12:47:34.729Z</time></trkpt><trkpt lat="45.50619414991149" lon="8.21078550417703"><ele>202.0</ele><time>2026-04-03T12:47:35.729Z</time></trkpt><trkpt lat="45.506272736414864" lon="8.210952030649542"><ele>201.25</ele><time>2026-04-03T12:47:36.729Z</time></trkpt><trkpt lat="45.50634904388524" lon="8.211117126226354"><ele>200.5</ele><time>2026-04-03T12:47:37.729Z</time></trkpt><trkpt lat="45.506426992664686" lon="8.211287698427602"><ele>199.75</ele><time>2026-04-03T12:47:38.729Z</time></trkpt><trkpt lat="45.506523890337036" lon="8.21145568400201"><ele>199.0</ele><time>2026-04-03T12:47:39.729Z</time></trkpt><trkpt lat="45.506602177968446" lon="8.211621959938885"><ele>199.0</ele><time>2026-04-03T12:47:40.729Z</time></trkpt><trkpt lat="45.506671708443164" lon="8.211774641930113"><ele>199.0</ele><time>2026-04-03T12:47:41.729Z</time></trkpt><trkpt lat="45.50673186997635" lon="8.211906737976435"><ele>199.0</ele><time>2026-04-03T12:47:42.729Z</time></trkpt><trkpt lat="45.50678413549269" lon="8.212014883218467"><ele>199.0</ele><time>2026-04-03T12:47:43.729Z</time></trkpt><trkpt lat="45.50682555231773" lon="8.212102504479168"><ele>199.0</ele><time>2026-04-03T12:47:44.729Z</time></trkpt><trkpt lat="45.50684788659835" lon="8.21221973748556"><ele>199.0</ele><time>2026-04-03T12:47:46.729Z</time></trkpt><trkpt lat="45.50675045115318" lon="8.212326335614762"><ele>199.0</ele><time>2026-04-03T12:47:49.729Z</time></trkpt><trkpt lat="45.506669086041555" lon="8.212343105509808"><ele>199.0</ele><time>2026-04-03T12:47:50.729Z</time></trkpt><trkpt lat="45.506579591467506" lon="8.212369891790644"><ele>199.0</ele><time>2026-04-03T12:47:51.728Z</time></trkpt><trkpt lat="45.50648662783031" lon="8.212400188124258"><ele>199.0</ele><time>2026-04-03T12:47:52.728Z</time></trkpt><trkpt lat="45.50639434739266" lon="8.212436346461988"><ele>199.0</ele><time>2026-04-03T12:47:53.728Z</time></trkpt><trkpt lat="45.50628765867423" lon="8.212471629754116"><ele>199.0</ele><time>2026-04-03T12:47:54.728Z</time></trkpt><trkpt lat="45.506163046125714" lon="8.212515228241271"><ele>199.0</ele><time>2026-04-03T12:47:55.728Z</time></trkpt><trkpt lat="45.50602935856635" lon="8.212565604677522"><ele>199.0</ele><time>2026-04-03T12:47:56.728Z</time></trkpt><trkpt lat="45.50589848428225" lon="8.212612605298949"><ele>199.0</ele><time>2026-04-03T12:47:57.728Z</time></trkpt><trkpt lat="45.50577972204959" lon="8.212648073664166"><ele>199.0</ele><time>2026-04-03T12:47:58.728Z</time></trkpt><trkpt lat="45.505661780134915" lon="8.212645613065785"><ele>199.0</ele><time>2026-04-03T12:47:59.728Z</time></trkpt><trkpt lat="45.50555037794122" lon="8.212596607467631"><ele>199.0</ele><time>2026-04-03T12:48:00.728Z</time></trkpt><trkpt lat="45.50546254347534" lon="8.212485037828799"><ele>199.0</ele><time>2026-04-03T12:48:01.728Z</time></trkpt><trkpt lat="45.50537767311974" lon="8.21238467343364"><ele>199.0</ele><time>2026-04-03T12:48:02.728Z</time></trkpt><trkpt lat="45.50529651226396" lon="8.212317408467"><ele>199.0</ele><time>2026-04-03T12:48:03.728Z</time></trkpt><trkpt lat="45.50522434924285" lon="8.21226839469819"><ele>199.0</ele><time>2026-04-03T12:48:04.728Z</time></trkpt><trkpt lat="45.50514077827134" lon="8.212270176347637"><ele>199.0</ele><time>2026-04-03T12:48:05.728Z</time></trkpt><trkpt lat="45.505069516317576" lon="8.212375149146299"><ele>198.66666666666666</ele><time>2026-04-03T12:48:06.728Z</time></trkpt><trkpt lat="45.50498370581086" lon="8.212412549766707"><ele>198.33333333333331</ele><time>2026-04-03T12:48:07.728Z</time></trkpt><trkpt lat="45.50491653127742" lon="8.212494078310936"><ele>198.0</ele><time>2026-04-03T12:48:08.728Z</time></trkpt><trkpt lat="45.5048416985369" lon="8.212553642870887"><ele>197.66666666666669</ele><time>2026-04-03T12:48:09.728Z</time></trkpt><trkpt lat="45.50477779547581" lon="8.212606061110604"><ele>197.33333333333334</ele><time>2026-04-03T12:48:10.728Z</time></trkpt><trkpt lat="45.50467903213779" lon="8.212600427990187"><ele>197.0</ele><time>2026-04-03T12:48:11.728Z</time></trkpt><trkpt lat="45.5045879798353" lon="8.212650556542096"><ele>196.8</ele><time>2026-04-03T12:48:12.728Z</time></trkpt><trkpt lat="45.50450667080261" lon="8.212735780419875"><ele>196.6</ele><time>2026-04-03T12:48:13.728Z</time></trkpt><trkpt lat="45.50444583731832" lon="8.212858309509366"><ele>196.4</ele><time>2026-04-03T12:48:14.728Z</time></trkpt><trkpt lat="45.50441546204392" lon="8.21300054516152"><ele>196.20000000000002</ele><time>2026-04-03T12:48:15.728Z</time></trkpt><trkpt lat="45.50441012530012" lon="8.21315137458365"><ele>196.0</ele><time>2026-04-03T12:48:16.728Z</time></trkpt><trkpt lat="45.50443064651827" lon="8.213291387412319"><ele>196.0</ele><time>2026-04-03T12:48:17.728Z</time></trkpt><trkpt lat="45.50448142144603" lon="8.213419070834517"><ele>196.0</ele><time>2026-04-03T12:48:18.728Z</time></trkpt><trkpt lat="45.50456497274581" lon="8.213532141841542"><ele>196.0</ele><time>2026-04-03T12:48:19.728Z</time></trkpt><trkpt lat="45.50467295225211" lon="8.21360197130879"><ele>196.0</ele><time>2026-04-03T12:48:20.728Z</time></trkpt><trkpt lat="45.50480591297995" lon="8.213619947146006"><ele>196.0</ele><time>2026-04-03T12:48:21.728Z</time></trkpt><trkpt lat="45.50493555682798" lon="8.213593850663207"><ele>196.0</ele><time>2026-04-03T12:48:22.728Z</time></trkpt><trkpt lat="45.50506291277067" lon="8.213638848887193"><ele>196.0</ele><time>2026-04-03T12:48:23.728Z</time></trkpt><trkpt lat="45.505176071560086" lon="8.21368314178609"><ele>196.0</ele><time>2026-04-03T12:48:24.728Z</time></trkpt><trkpt lat="45.505272403496484" lon="8.213711369004269"><ele>196.0</ele><time>2026-04-03T12:48:25.728Z</time></trkpt><trkpt lat="45.50536716958245" lon="8.213688842785858"><ele>196.0</ele><time>2026-04-03T12:48:26.728Z</time></trkpt><trkpt lat="45.5054578641747" lon="8.21362347795518"><ele>196.0</ele><time>2026-04-03T12:48:27.728Z</time></trkpt><trkpt lat="45.50553522814772" lon="8.213504607080907"><ele>196.0</ele><time>2026-04-03T12:48:28.728Z</time></trkpt><trkpt lat="45.505617616608276" lon="8.213358291660047"><ele>196.0</ele><time>2026-04-03T12:48:29.728Z</time></trkpt><trkpt lat="45.50571889949253" lon="8.213228140563768"><ele>197.0</ele><time>2026-04-03T12:48:30.728Z</time></trkpt><trkpt lat="45.50585327143954" lon="8.213147386041456"><ele>198.0</ele><time>2026-04-03T12:48:31.728Z</time></trkpt><trkpt lat="45.506008024917946" lon="8.213112894875247"><ele>199.0</ele><time>2026-04-03T12:48:32.728Z</time></trkpt><trkpt lat="45.50617645978874" lon="8.213094784682927"><ele>199.0</ele><time>2026-04-03T12:48:33.727Z</time></trkpt><trkpt lat="45.506348948697536" lon="8.213062384282043"><ele>199.0</ele><time>2026-04-03T12:48:34.727Z</time></trkpt><trkpt lat="45.50652548019805" lon="8.213028041255036"><ele>199.0</ele><time>2026-04-03T12:48:35.727Z</time></trkpt><trkpt lat="45.50668354744304" lon="8.212994263605014"><ele>199.0</ele><time>2026-04-03T12:48:36.727Z</time></trkpt><trkpt lat="45.50682764408239" lon="8.212971796948366"><ele>199.0</ele><time>2026-04-03T12:48:37.727Z</time></trkpt><trkpt lat="45.50695957121428" lon="8.212976844127606"><ele>199.0</ele><time>2026-04-03T12:48:38.727Z</time></trkpt><trkpt lat="45.50708134707009" lon="8.213011425718271"><ele>199.0</ele><time>2026-04-03T12:48:39.727Z</time></trkpt><trkpt lat="45.507189671071544" lon="8.213067640676552"><ele>198.75</ele><time>2026-04-03T12:48:40.727Z</time></trkpt><trkpt lat="45.50728106547698" lon="8.213149141082882"><ele>198.5</ele><time>2026-04-03T12:48:41.727Z</time></trkpt><trkpt lat="45.50734203995113" lon="8.213279078802856"><ele>198.25</ele><time>2026-04-03T12:48:42.727Z</time></trkpt><trkpt lat="45.5074081475956" lon="8.21341180199731"><ele>198.0</ele><time>2026-04-03T12:48:43.727Z</time></trkpt><trkpt lat="45.507497460616804" lon="8.213549064839256"><ele>198.0</ele><time>2026-04-03T12:48:44.727Z</time></trkpt><trkpt lat="45.507573816275524" lon="8.2137269986146"><ele>198.0</ele><time>2026-04-03T12:48:45.727Z</time></trkpt><trkpt lat="45.50765878711504" lon="8.213915804607907"><ele>198.0</ele><time>2026-04-03T12:48:46.727Z</time></trkpt><trkpt lat="45.507748539901314" lon="8.214111338348873"><ele>197.66666666666669</ele><time>2026-04-03T12:48:47.727Z</time></trkpt><trkpt lat="45.507846362837626" lon="8.214321296542623"><ele>197.33333333333334</ele><time>2026-04-03T12:48:48.727Z</time></trkpt><trkpt lat="45.50794841736128" lon="8.214541806067652"><ele>197.0</ele><time>2026-04-03T12:48:49.727Z</time></trkpt><trkpt lat="45.50805541389819" lon="8.214771052666892"><ele>196.66666666666669</ele><time>2026-04-03T12:48:50.727Z</time></trkpt><trkpt lat="45.50816886772793" lon="8.215010474088682"><ele>196.33333333333331</ele><time>2026-04-03T12:48:51.727Z</time></trkpt><trkpt lat="45.50827505443496" lon="8.21524287623585"><ele>196.0</ele><time>2026-04-03T12:48:52.727Z</time></trkpt><trkpt lat="45.508374586905845" lon="8.215456575531173"><ele>195.66666666666666</ele><time>2026-04-03T12:48:53.727Z</time></trkpt><trkpt lat="45.50847365383538" lon="8.215665017650075"><ele>195.33333333333331</ele><time>2026-04-03T12:48:54.727Z</time></trkpt><trkpt lat="45.50856873381652" lon="8.215866577380659"><ele>195.0</ele><time>2026-04-03T12:48:55.727Z</time></trkpt><trkpt lat="45.50866313246129" lon="8.216069659359352"><ele>195.0</ele><time>2026-04-03T12:48:56.727Z</time></trkpt><trkpt lat="45.508756222293876" lon="8.21627090509236"><ele>195.0</ele><time>2026-04-03T12:48:57.727Z</time></trkpt><trkpt lat="45.50884662425469" lon="8.216472023405007"><ele>195.0</ele><time>2026-04-03T12:48:58.727Z</time></trkpt><trkpt lat="45.50893984886784" lon="8.216675688518357"><ele>195.0</ele><time>2026-04-03T12:48:59.727Z</time></trkpt><trkpt lat="45.509032144360745" lon="8.216879072084428"><ele>195.0</ele><time>2026-04-03T12:49:00.727Z</time></trkpt><trkpt lat="45.50912689151753" lon="8.217084296394825"><ele>195.0</ele><time>2026-04-03T12:49:01.727Z</time></trkpt><trkpt lat="45.50922489537911" lon="8.217291381677049"><ele>194.66666666666669</ele><time>2026-04-03T12:49:02.727Z</time></trkpt><trkpt lat="45.50932260274796" lon="8.217507707066394"><ele>194.33333333333334</ele><time>2026-04-03T12:49:03.727Z</time></trkpt><trkpt lat="45.50941980816519" lon="8.217728571775652"><ele>194.0</ele><time>2026-04-03T12:49:04.727Z</time></trkpt><trkpt lat="45.509519124724974" lon="8.217952305201136"><ele>194.33333333333334</ele><time>2026-04-03T12:49:05.727Z</time></trkpt><trkpt lat="45.50962041020342" lon="8.218176259638014"><ele>194.66666666666669</ele><time>2026-04-03T12:49:06.727Z</time></trkpt><trkpt lat="45.50972313810373" lon="8.218400894009735"><ele>195.0</ele><time>2026-04-03T12:49:07.727Z</time></trkpt><trkpt lat="45.50981272250357" lon="8.21862364538262"><ele>195.0</ele><time>2026-04-03T12:49:08.727Z</time></trkpt><trkpt lat="45.509859393956326" lon="8.218849966401338"><ele>195.0</ele><time>2026-04-03T12:49:09.727Z</time></trkpt><trkpt lat="45.50990360800223" lon="8.219064444127476"><ele>195.0</ele><time>2026-04-03T12:49:10.727Z</time></trkpt><trkpt lat="45.50993714883209" lon="8.21927482308438"><ele>194.66666666666669</ele><time>2026-04-03T12:49:11.727Z</time></trkpt><trkpt lat="45.50996988400272" lon="8.219484927770084"><ele>194.33333333333334</ele><time>2026-04-03T12:49:12.727Z</time></trkpt><trkpt lat="45.51000363649154" lon="8.2197074547412"><ele>194.0</ele><time>2026-04-03T12:49:13.727Z</time></trkpt><trkpt lat="45.51004358186676" lon="8.219954686303033"><ele>193.66666666666669</ele><time>2026-04-03T12:49:14.727Z</time></trkpt><trkpt lat="45.51009172734861" lon="8.220210896550011"><ele>193.33333333333331</ele><time>2026-04-03T12:49:15.727Z</time></trkpt><trkpt lat="45.510160719519114" lon="8.220478067331406"><ele>193.0</ele><time>2026-04-03T12:49:16.727Z</time></trkpt><trkpt lat="45.51024847791887" lon="8.220747869075515"><ele>193.0</ele><time>2026-04-03T12:49:17.727Z</time></trkpt><trkpt lat="45.51034136142668" lon="8.221017614679916"><ele>193.0</ele><time>2026-04-03T12:49:18.727Z</time></trkpt><trkpt lat="45.51043615739011" lon="8.221302331428488"><ele>193.0</ele><time>2026-04-03T12:49:19.727Z</time></trkpt><trkpt lat="45.510533062808804" lon="8.221596129970465"><ele>192.5</ele><time>2026-04-03T12:49:20.727Z</time></trkpt><trkpt lat="45.51064195964643" lon="8.221892078677199"><ele>192.0</ele><time>2026-04-03T12:49:21.727Z</time></trkpt><trkpt lat="45.51074151707528" lon="8.222203320171213"><ele>191.5</ele><time>2026-04-03T12:49:22.727Z</time></trkpt><trkpt lat="45.51084432873918" lon="8.22250836480153"><ele>191.0</ele><time>2026-04-03T12:49:23.726Z</time></trkpt><trkpt lat="45.51093978100341" lon="8.222791381136458"><ele>191.0</ele><time>2026-04-03T12:49:24.726Z</time></trkpt><trkpt lat="45.51102493820514" lon="8.223059749219367"><ele>191.0</ele><time>2026-04-03T12:49:25.726Z</time></trkpt><trkpt lat="45.511109336039674" lon="8.223320145336281"><ele>191.0</ele><time>2026-04-03T12:49:26.726Z</time></trkpt><trkpt lat="45.51119843552205" lon="8.223578087910564"><ele>191.33333333333331</ele><time>2026-04-03T12:49:27.726Z</time></trkpt><trkpt lat="45.51129858981199" lon="8.223831772735071"><ele>191.66666666666666</ele><time>2026-04-03T12:49:28.726Z</time></trkpt><trkpt lat="45.51140575749341" lon="8.224076579867729"><ele>192.0</ele><time>2026-04-03T12:49:29.726Z</time></trkpt><trkpt lat="45.51152980863306" lon="8.22430023191094"><ele>191.33333333333334</ele><time>2026-04-03T12:49:30.726Z</time></trkpt><trkpt lat="45.51167677714074" lon="8.224500393552075"><ele>190.66666666666669</ele><time>2026-04-03T12:49:31.726Z</time></trkpt><trkpt lat="45.51184292020107" lon="8.224680255939361"><ele>190.0</ele><time>2026-04-03T12:49:32.726Z</time></trkpt><trkpt lat="45.51201647674166" lon="8.224852765115175"><ele>189.66666666666669</ele><time>2026-04-03T12:49:33.726Z</time></trkpt><trkpt lat="45.51219782800853" lon="8.225005616795086"><ele>189.33333333333334</ele><time>2026-04-03T12:49:34.726Z</time></trkpt><trkpt lat="45.51238406545549" lon="8.225156946561377"><ele>189.0</ele><time>2026-04-03T12:49:35.726Z</time></trkpt><trkpt lat="45.51255954351607" lon="8.2253069895453"><ele>189.0</ele><time>2026-04-03T12:49:36.726Z</time></trkpt><trkpt lat="45.51272375966174" lon="8.225444965819271"><ele>189.0</ele><time>2026-04-03T12:49:37.726Z</time></trkpt><trkpt lat="45.51287774340807" lon="8.225568465221711"><ele>189.0</ele><time>2026-04-03T12:49:38.726Z</time></trkpt><trkpt lat="45.5130212685554" lon="8.225681198817039"><ele>189.0</ele><time>2026-04-03T12:49:39.726Z</time></trkpt><trkpt lat="45.51316273749285" lon="8.225799139668231"><ele>189.0</ele><time>2026-04-03T12:49:40.726Z</time></trkpt><trkpt lat="45.51330143044179" lon="8.22591802617753"><ele>189.0</ele><time>2026-04-03T12:49:41.726Z</time></trkpt><trkpt lat="45.51344416020076" lon="8.226048629484566"><ele>189.0</ele><time>2026-04-03T12:49:42.726Z</time></trkpt><trkpt lat="45.51358293114644" lon="8.226178757882447"><ele>189.0</ele><time>2026-04-03T12:49:43.726Z</time></trkpt><trkpt lat="45.51371827143246" lon="8.226307166034927"><ele>189.0</ele><time>2026-04-03T12:49:44.726Z</time></trkpt><trkpt lat="45.513851100817206" lon="8.226422687918005"><ele>190.0</ele><time>2026-04-03T12:49:45.726Z</time></trkpt><trkpt lat="45.513984317273824" lon="8.226512738528886"><ele>191.0</ele><time>2026-04-03T12:49:46.726Z</time></trkpt><trkpt lat="45.514119075517726" lon="8.226573939499733"><ele>192.0</ele><time>2026-04-03T12:49:47.726Z</time></trkpt><trkpt lat="45.51426527187716" lon="8.226598902119234"><ele>193.0</ele><time>2026-04-03T12:49:48.726Z</time></trkpt><trkpt lat="45.514404269496254" lon="8.226627588667725"><ele>193.0</ele><time>2026-04-03T12:49:49.726Z</time></trkpt><trkpt lat="45.51450453299134" lon="8.22669531512494"><ele>193.0</ele><time>2026-04-03T12:49:50.726Z</time></trkpt><trkpt lat="45.51457765719394" lon="8.226768197641071"><ele>193.0</ele><time>2026-04-03T12:49:51.726Z</time></trkpt><trkpt lat="45.51461107424534" lon="8.226849946134188"><ele>193.0</ele><time>2026-04-03T12:49:52.726Z</time></trkpt><trkpt lat="45.51460010288006" lon="8.227029010264992"><ele>193.0</ele><time>2026-04-03T12:49:54.726Z</time></trkpt><trkpt lat="45.51456416349938" lon="8.227153908092703"><ele>193.0</ele><time>2026-04-03T12:49:55.726Z</time></trkpt><trkpt lat="45.51453443092996" lon="8.227301864483877"><ele>193.0</ele><time>2026-04-03T12:49:56.726Z</time></trkpt><trkpt lat="45.51451787318105" lon="8.227487842042965"><ele>193.0</ele><time>2026-04-03T12:49:57.726Z</time></trkpt><trkpt lat="45.51450568740208" lon="8.227712378050068"><ele>193.0</ele><time>2026-04-03T12:49:58.726Z</time></trkpt><trkpt lat="45.51449102213192" lon="8.227962979517665"><ele>193.66666666666666</ele><time>2026-04-03T12:49:59.726Z</time></trkpt><trkpt lat="45.514468239370515" lon="8.22823129183376"><ele>194.33333333333331</ele><time>2026-04-03T12:50:00.726Z</time></trkpt><trkpt lat="45.51445673733228" lon="8.228486659788302"><ele>195.0</ele><time>2026-04-03T12:50:01.726Z</time></trkpt><trkpt lat="45.514446264546066" lon="8.22875894178787"><ele>195.0</ele><time>2026-04-03T12:50:02.726Z</time></trkpt><trkpt lat="45.514439511310364" lon="8.22905445060828"><ele>195.0</ele><time>2026-04-03T12:50:03.726Z</time></trkpt><trkpt lat="45.514418929833234" lon="8.229326652208146"><ele>195.0</ele><time>2026-04-03T12:50:04.726Z</time></trkpt><trkpt lat="45.514414295351685" lon="8.229591577159695"><ele>195.0</ele><time>2026-04-03T12:50:05.725Z</time></trkpt><trkpt lat="45.514409520520005" lon="8.229863468450331"><ele>195.0</ele><time>2026-04-03T12:50:06.725Z</time></trkpt><trkpt lat="45.5144050321938" lon="8.23014180588481"><ele>195.0</ele><time>2026-04-03T12:50:07.725Z</time></trkpt><trkpt lat="45.514418304711775" lon="8.230421939538765"><ele>194.66666666666669</ele><time>2026-04-03T12:50:08.725Z</time></trkpt><trkpt lat="45.514408361500884" lon="8.230701934179104"><ele>194.33333333333334</ele><time>2026-04-03T12:50:09.725Z</time></trkpt><trkpt lat="45.514362461443106" lon="8.2309768402374"><ele>194.0</ele><time>2026-04-03T12:50:10.725Z</time></trkpt><trkpt lat="45.514292642540596" lon="8.231241305880367"><ele>193.0</ele><time>2026-04-03T12:50:11.725Z</time></trkpt><trkpt lat="45.514193306038415" lon="8.231514135212102"><ele>192.0</ele><time>2026-04-03T12:50:12.725Z</time></trkpt><trkpt lat="45.5140904251606" lon="8.231792754092192"><ele>191.0</ele><time>2026-04-03T12:50:13.725Z</time></trkpt><trkpt lat="45.51398410832217" lon="8.232081885743199"><ele>191.5</ele><time>2026-04-03T12:50:14.725Z</time></trkpt><trkpt lat="45.5138774505275" lon="8.23237381469307"><ele>192.0</ele><time>2026-04-03T12:50:15.725Z</time></trkpt><trkpt lat="45.513786047800075" lon="8.232672203780469"><ele>192.33333333333331</ele><time>2026-04-03T12:50:16.725Z</time></trkpt><trkpt lat="45.51368087066167" lon="8.232950569055905"><ele>192.66666666666666</ele><time>2026-04-03T12:50:17.725Z</time></trkpt><trkpt lat="45.513560306778224" lon="8.233211721017698"><ele>193.0</ele><time>2026-04-03T12:50:18.725Z</time></trkpt><trkpt lat="45.513410789568034" lon="8.233435983776378"><ele>193.0</ele><time>2026-04-03T12:50:19.725Z</time></trkpt><trkpt lat="45.51322035992708" lon="8.23358589158802"><ele>193.0</ele><time>2026-04-03T12:50:20.725Z</time></trkpt><trkpt lat="45.51301894045924" lon="8.233737495513255"><ele>193.0</ele><time>2026-04-03T12:50:21.725Z</time></trkpt><trkpt lat="45.512810088548164" lon="8.23389101307789"><ele>193.0</ele><time>2026-04-03T12:50:22.725Z</time></trkpt><trkpt lat="45.51259988636143" lon="8.234046285542467"><ele>193.0</ele><time>2026-04-03T12:50:23.725Z</time></trkpt><trkpt lat="45.512399051488764" lon="8.23422495465148"><ele>193.0</ele><time>2026-04-03T12:50:24.725Z</time></trkpt><trkpt lat="45.51219507602407" lon="8.234369277544099"><ele>193.0</ele><time>2026-04-03T12:50:25.725Z</time></trkpt><trkpt lat="45.512023445134076" lon="8.234581624784441"><ele>192.33333333333331</ele><time>2026-04-03T12:50:26.725Z</time></trkpt><trkpt lat="45.5118586217822" lon="8.234782937843312"><ele>191.66666666666666</ele><time>2026-04-03T12:50:27.725Z</time></trkpt><trkpt lat="45.51169731190729" lon="8.234985481758017"><ele>191.0</ele><time>2026-04-03T12:50:28.725Z</time></trkpt><trkpt lat="45.511536815564256" lon="8.235192949135799"><ele>191.0</ele><time>2026-04-03T12:50:29.725Z</time></trkpt><trkpt lat="45.5113780185543" lon="8.23539316357362"><ele>191.0</ele><time>2026-04-03T12:50:30.725Z</time></trkpt><trkpt lat="45.51122270611675" lon="8.235587957962693"><ele>191.0</ele><time>2026-04-03T12:50:31.725Z</time></trkpt><trkpt lat="45.51107645434886" lon="8.235770205451356"><ele>190.33333333333331</ele><time>2026-04-03T12:50:32.725Z</time></trkpt><trkpt lat="45.51094090978509" lon="8.235939522120892"><ele>189.66666666666666</ele><time>2026-04-03T12:50:33.725Z</time></trkpt><trkpt lat="45.51081342094053" lon="8.236097867699252"><ele>189.0</ele><time>2026-04-03T12:50:34.725Z</time></trkpt><trkpt lat="45.51069860577082" lon="8.236246442121274"><ele>189.0</ele><time>2026-04-03T12:50:35.725Z</time></trkpt><trkpt lat="45.51059006577312" lon="8.236358852404774"><ele>189.0</ele><time>2026-04-03T12:50:36.725Z</time></trkpt><trkpt lat="45.5105174202436" lon="8.236495382282323"><ele>189.0</ele><time>2026-04-03T12:50:37.725Z</time></trkpt><trkpt lat="45.510455677474226" lon="8.236599454940233"><ele>189.0</ele><time>2026-04-03T12:50:38.725Z</time></trkpt><trkpt lat="45.510403318753234" lon="8.236685216414527"><ele>189.0</ele><time>2026-04-03T12:50:39.725Z</time></trkpt><trkpt lat="45.510341666644294" lon="8.236752987076407"><ele>189.0</ele><time>2026-04-03T12:50:40.725Z</time></trkpt><trkpt lat="45.510312088601005" lon="8.236838374879772"><ele>189.0</ele><time>2026-04-03T12:50:41.725Z</time></trkpt><trkpt lat="45.51028058253058" lon="8.236951022976253"><ele>189.0</ele><time>2026-04-03T12:50:43.725Z</time></trkpt><trkpt lat="45.510527911755325" lon="8.237005274183506"><ele>189.0</ele><time>2026-04-03T12:50:46.725Z</time></trkpt><trkpt lat="45.510641866879574" lon="8.236934359097843"><ele>188.33333333333334</ele><time>2026-04-03T12:50:47.724Z</time></trkpt><trkpt lat="45.51079490150138" lon="8.236916669491967"><ele>187.66666666666669</ele><time>2026-04-03T12:50:48.724Z</time></trkpt><trkpt lat="45.51097046018667" lon="8.236961058278808"><ele>187.0</ele><time>2026-04-03T12:50:49.724Z</time></trkpt><trkpt lat="45.51113526823049" lon="8.23703199761441"><ele>187.66666666666669</ele><time>2026-04-03T12:50:50.724Z</time></trkpt><trkpt lat="45.51128952477858" lon="8.237097563947895"><ele>188.33333333333334</ele><time>2026-04-03T12:50:51.724Z</time></trkpt><trkpt lat="45.51145733310674" lon="8.237164566995276"><ele>189.0</ele><time>2026-04-03T12:50:52.724Z</time></trkpt><trkpt lat="45.51163521053335" lon="8.237235410522828"><ele>189.0</ele><time>2026-04-03T12:50:53.724Z</time></trkpt><trkpt lat="45.51181735748662" lon="8.237308341760707"><ele>189.0</ele><time>2026-04-03T12:50:54.724Z</time></trkpt><trkpt lat="45.51199350346281" lon="8.237381073739792"><ele>189.0</ele><time>2026-04-03T12:50:55.724Z</time></trkpt><trkpt lat="45.512167344828875" lon="8.237452007775211"><ele>190.0</ele><time>2026-04-03T12:50:56.724Z</time></trkpt><trkpt lat="45.51234496105578" lon="8.237517175747401"><ele>191.0</ele><time>2026-04-03T12:50:57.724Z</time></trkpt><trkpt lat="45.51252357375547" lon="8.23758854246362"><ele>192.0</ele><time>2026-04-03T12:50:58.724Z</time></trkpt><trkpt lat="45.512702352020995" lon="8.237656212493981"><ele>192.0</ele><time>2026-04-03T12:50:59.724Z</time></trkpt><trkpt lat="45.51288171100231" lon="8.237728479131782"><ele>192.0</ele><time>2026-04-03T12:51:00.724Z</time></trkpt><trkpt lat="45.513063427592556" lon="8.237803486672806"><ele>192.0</ele><time>2026-04-03T12:51:01.724Z</time></trkpt><trkpt lat="45.51324940569883" lon="8.237882474846764"><ele>192.66666666666669</ele><time>2026-04-03T12:51:02.724Z</time></trkpt><trkpt lat="45.513439425142884" lon="8.237959709705608"><ele>193.33333333333334</ele><time>2026-04-03T12:51:03.724Z</time></trkpt><trkpt lat="45.513631366118716" lon="8.238034370296104"><ele>194.0</ele><time>2026-04-03T12:51:04.724Z</time></trkpt><trkpt lat="45.5138257666505" lon="8.2381153476985"><ele>197.66666666666669</ele><time>2026-04-03T12:51:05.724Z</time></trkpt><trkpt lat="45.51402656798313" lon="8.23819724267055"><ele>201.33333333333331</ele><time>2026-04-03T12:51:06.724Z</time></trkpt><trkpt lat="45.51422840843342" lon="8.238275998034478"><ele>205.0</ele><time>2026-04-03T12:51:07.724Z</time></trkpt><trkpt lat="45.51443470023466" lon="8.23835559973269"><ele>207.0</ele><time>2026-04-03T12:51:08.724Z</time></trkpt><trkpt lat="45.514649221511085" lon="8.238442017797423"><ele>209.0</ele><time>2026-04-03T12:51:09.724Z</time></trkpt><trkpt lat="45.51486958795617" lon="8.238537540674818"><ele>209.0</ele><time>2026-04-03T12:51:10.724Z</time></trkpt><trkpt lat="45.51509044776115" lon="8.238641418667997"><ele>209.0</ele><time>2026-04-03T12:51:11.724Z</time></trkpt><trkpt lat="45.51531366017939" lon="8.238743281987192"><ele>210.33333333333334</ele><time>2026-04-03T12:51:12.724Z</time></trkpt><trkpt lat="45.5155192132968" lon="8.238844431854607"><ele>211.66666666666669</ele><time>2026-04-03T12:51:13.724Z</time></trkpt><trkpt lat="45.51572140220624" lon="8.238950007672665"><ele>213.0</ele><time>2026-04-03T12:51:14.724Z</time></trkpt><trkpt lat="45.5159279546297" lon="8.239045627211235"><ele>213.0</ele><time>2026-04-03T12:51:15.724Z</time></trkpt><trkpt lat="45.51613608580117" lon="8.239120940604924"><ele>213.0</ele><time>2026-04-03T12:51:16.724Z</time></trkpt><trkpt lat="45.516332211167324" lon="8.239209304374686"><ele>213.0</ele><time>2026-04-03T12:51:17.724Z</time></trkpt><trkpt lat="45.51651378131842" lon="8.23928856221003"><ele>213.0</ele><time>2026-04-03T12:51:18.724Z</time></trkpt><trkpt lat="45.51668037850332" lon="8.239369834555452"><ele>213.0</ele><time>2026-04-03T12:51:19.724Z</time></trkpt><trkpt lat="45.51683200901652" lon="8.239449451155439"><ele>213.0</ele><time>2026-04-03T12:51:20.723Z</time></trkpt><trkpt lat="45.516977458287364" lon="8.239520616196435"><ele>213.5</ele><time>2026-04-03T12:51:21.724Z</time></trkpt><trkpt lat="45.51711533013711" lon="8.239591871396842"><ele>214.0</ele><time>2026-04-03T12:51:22.723Z</time></trkpt><trkpt lat="45.517243063999196" lon="8.23965713379456"><ele>214.5</ele><time>2026-04-03T12:51:23.723Z</time></trkpt><trkpt lat="45.517362718590036" lon="8.239716972323114"><ele>215.0</ele><time>2026-04-03T12:51:24.723Z</time></trkpt><trkpt lat="45.51747302381762" lon="8.239769767028381"><ele>214.6</ele><time>2026-04-03T12:51:25.723Z</time></trkpt><trkpt lat="45.51757137963959" lon="8.239819872756602"><ele>214.2</ele><time>2026-04-03T12:51:26.723Z</time></trkpt><trkpt lat="45.517658593584585" lon="8.23986184567401"><ele>213.8</ele><time>2026-04-03T12:51:27.724Z</time></trkpt><trkpt lat="45.517725863225074" lon="8.239892331723707"><ele>213.4</ele><time>2026-04-03T12:51:28.723Z</time></trkpt><trkpt lat="45.5178158059963" lon="8.2399413660072"><ele>213.0</ele><time>2026-04-03T12:51:30.723Z</time></trkpt><trkpt lat="45.51790265111259" lon="8.239971351382287"><ele>212.8</ele><time>2026-04-03T12:51:39.723Z</time></trkpt><trkpt lat="45.518026596733726" lon="8.240021865415953"><ele>212.60000000000002</ele><time>2026-04-03T12:51:41.723Z</time></trkpt><trkpt lat="45.51812189564486" lon="8.24005667355562"><ele>212.39999999999998</ele><time>2026-04-03T12:51:42.723Z</time></trkpt><trkpt lat="45.5182243332696" lon="8.240087416866528"><ele>212.2</ele><time>2026-04-03T12:51:43.723Z</time></trkpt><trkpt lat="45.51833532524489" lon="8.240122646119264"><ele>212.0</ele><time>2026-04-03T12:51:44.723Z</time></trkpt><trkpt lat="45.51846391865887" lon="8.240165198053623"><ele>212.0</ele><time>2026-04-03T12:51:45.723Z</time></trkpt><trkpt lat="45.5186084569768" lon="8.24021139213692"><ele>212.0</ele><time>2026-04-03T12:51:46.723Z</time></trkpt><trkpt lat="45.51877000250733" lon="8.24026198659732"><ele>212.0</ele><time>2026-04-03T12:51:47.723Z</time></trkpt><trkpt lat="45.51894150098232" lon="8.240311532889141"><ele>212.66666666666669</ele><time>2026-04-03T12:51:48.723Z</time></trkpt><trkpt lat="45.519105508474134" lon="8.240358322738436"><ele>213.33333333333331</ele><time>2026-04-03T12:51:49.723Z</time></trkpt><trkpt lat="45.519283375469904" lon="8.24040534066158"><ele>214.0</ele><time>2026-04-03T12:51:50.723Z</time></trkpt><trkpt lat="45.51947620154885" lon="8.240450230952414"><ele>215.0</ele><time>2026-04-03T12:51:51.723Z</time></trkpt><trkpt lat="45.51966955252594" lon="8.240481531969312"><ele>216.0</ele><time>2026-04-03T12:51:52.723Z</time></trkpt><trkpt lat="45.519851814938896" lon="8.240528234370169"><ele>217.0</ele><time>2026-04-03T12:51:53.723Z</time></trkpt><trkpt lat="45.52004477131335" lon="8.240534706283213"><ele>217.0</ele><time>2026-04-03T12:51:54.723Z</time></trkpt><trkpt lat="45.520232538037355" lon="8.240565117377242"><ele>217.0</ele><time>2026-04-03T12:51:55.723Z</time></trkpt><trkpt lat="45.52042779432157" lon="8.240581369844042"><ele>217.0</ele><time>2026-04-03T12:51:56.723Z</time></trkpt><trkpt lat="45.520626112148314" lon="8.240595945521148"><ele>217.66666666666666</ele><time>2026-04-03T12:51:57.723Z</time></trkpt><trkpt lat="45.52083015712704" lon="8.240616310404931"><ele>218.33333333333331</ele><time>2026-04-03T12:51:58.723Z</time></trkpt><trkpt lat="45.52103771626242" lon="8.240637733769812"><ele>219.0</ele><time>2026-04-03T12:51:59.723Z</time></trkpt><trkpt lat="45.52124751956574" lon="8.240654854804118"><ele>219.0</ele><time>2026-04-03T12:52:00.723Z</time></trkpt><trkpt lat="45.521463807146176" lon="8.240673996127596"><ele>219.0</ele><time>2026-04-03T12:52:01.723Z</time></trkpt><trkpt lat="45.52168179952672" lon="8.240693060756549"><ele>219.0</ele><time>2026-04-03T12:52:02.723Z</time></trkpt><trkpt lat="45.52189026085527" lon="8.240716434793587"><ele>218.66666666666669</ele><time>2026-04-03T12:52:03.722Z</time></trkpt><trkpt lat="45.52209607058653" lon="8.2407384416677"><ele>218.33333333333334</ele><time>2026-04-03T12:52:04.722Z</time></trkpt><trkpt lat="45.522302708694596" lon="8.240759268676973"><ele>218.0</ele><time>2026-04-03T12:52:05.722Z</time></trkpt><trkpt lat="45.52250932364447" lon="8.240777870653979"><ele>218.0</ele><time>2026-04-03T12:52:06.722Z</time></trkpt><trkpt lat="45.522717188923615" lon="8.240801293191288"><ele>218.0</ele><time>2026-04-03T12:52:07.722Z</time></trkpt><trkpt lat="45.52292227410459" lon="8.240821919206672"><ele>218.0</ele><time>2026-04-03T12:52:08.722Z</time></trkpt><trkpt lat="45.52312668445504" lon="8.240839198552775"><ele>218.0</ele><time>2026-04-03T12:52:09.722Z</time></trkpt><trkpt lat="45.52334020074116" lon="8.240861402222105"><ele>218.0</ele><time>2026-04-03T12:52:10.722Z</time></trkpt><trkpt lat="45.523556127858484" lon="8.240883048454265"><ele>218.0</ele><time>2026-04-03T12:52:11.722Z</time></trkpt><trkpt lat="45.52377584675547" lon="8.240902055714853"><ele>217.66666666666669</ele><time>2026-04-03T12:52:12.722Z</time></trkpt><trkpt lat="45.52399216940695" lon="8.240916851192846"><ele>217.33333333333331</ele><time>2026-04-03T12:52:13.722Z</time></trkpt><trkpt lat="45.52421321233922" lon="8.240933991559347"><ele>217.0</ele><time>2026-04-03T12:52:14.722Z</time></trkpt><trkpt lat="45.52443503268022" lon="8.240952529554896"><ele>218.33333333333331</ele><time>2026-04-03T12:52:15.722Z</time></trkpt><trkpt lat="45.52465776744668" lon="8.240973384446967"><ele>219.66666666666669</ele><time>2026-04-03T12:52:16.722Z</time></trkpt><trkpt lat="45.52488125804571" lon="8.240992269602478"><ele>221.0</ele><time>2026-04-03T12:52:17.722Z</time></trkpt><trkpt lat="45.52510462563776" lon="8.24100798027077"><ele>221.0</ele><time>2026-04-03T12:52:18.722Z</time></trkpt><trkpt lat="45.525330753699755" lon="8.241029132268103"><ele>221.0</ele><time>2026-04-03T12:52:19.722Z</time></trkpt><trkpt lat="45.525559535625895" lon="8.241048287321707"><ele>220.5</ele><time>2026-04-03T12:52:20.722Z</time></trkpt><trkpt lat="45.525791048949706" lon="8.24106410803175"><ele>220.0</ele><time>2026-04-03T12:52:21.722Z</time></trkpt><trkpt lat="45.52602213322248" lon="8.241086113893516"><ele>221.0</ele><time>2026-04-03T12:52:22.722Z</time></trkpt><trkpt lat="45.52625536403872" lon="8.241109461171584"><ele>222.0</ele><time>2026-04-03T12:52:23.722Z</time></trkpt><trkpt lat="45.52648803159268" lon="8.241129312051623"><ele>222.0</ele><time>2026-04-03T12:52:24.722Z</time></trkpt><trkpt lat="45.526722421943255" lon="8.241148600046639"><ele>222.0</ele><time>2026-04-03T12:52:25.722Z</time></trkpt><trkpt lat="45.5269558646659" lon="8.241171137444528"><ele>221.5</ele><time>2026-04-03T12:52:26.722Z</time></trkpt><trkpt lat="45.527187609137265" lon="8.24119263389368"><ele>221.0</ele><time>2026-04-03T12:52:27.722Z</time></trkpt><trkpt lat="45.527417305300595" lon="8.241208236379109"><ele>221.0</ele><time>2026-04-03T12:52:28.722Z</time></trkpt><trkpt lat="45.52764200147962" lon="8.24122831214444"><ele>221.0</ele><time>2026-04-03T12:52:29.722Z</time></trkpt><trkpt lat="45.52786947581043" lon="8.241246659636323"><ele>222.0</ele><time>2026-04-03T12:52:30.722Z</time></trkpt><trkpt lat="45.528099845599804" lon="8.241265030470698"><ele>223.0</ele><time>2026-04-03T12:52:31.722Z</time></trkpt><trkpt lat="45.528333389695554" lon="8.241284605369259"><ele>223.0</ele><time>2026-04-03T12:52:32.722Z</time></trkpt><trkpt lat="45.528570462375754" lon="8.241303431130346"><ele>223.0</ele><time>2026-04-03T12:52:33.722Z</time></trkpt><trkpt lat="45.52880875209211" lon="8.241320541821251"><ele>222.5</ele><time>2026-04-03T12:52:34.722Z</time></trkpt><trkpt lat="45.529047994036496" lon="8.241342757211234"><ele>222.0</ele><time>2026-04-03T12:52:35.722Z</time></trkpt><trkpt lat="45.529289930883564" lon="8.241366440616867"><ele>222.0</ele><time>2026-04-03T12:52:36.722Z</time></trkpt><trkpt lat="45.529533825974106" lon="8.241389988100886"><ele>222.0</ele><time>2026-04-03T12:52:37.722Z</time></trkpt><trkpt lat="45.52977799756015" lon="8.241412307049979"><ele>223.0</ele><time>2026-04-03T12:52:38.722Z</time></trkpt><trkpt lat="45.530021176427276" lon="8.241433879523738"><ele>224.0</ele><time>2026-04-03T12:52:39.722Z</time></trkpt><trkpt lat="45.53026146656289" lon="8.241454894672263"><ele>223.5</ele><time>2026-04-03T12:52:40.722Z</time></trkpt><trkpt lat="45.53050039275208" lon="8.241476331821842"><ele>223.0</ele><time>2026-04-03T12:52:41.722Z</time></trkpt><trkpt lat="45.530737687800844" lon="8.241498104778582"><ele>223.0</ele><time>2026-04-03T12:52:42.722Z</time></trkpt><trkpt lat="45.53097532828416" lon="8.241521672359841"><ele>223.0</ele><time>2026-04-03T12:52:43.722Z</time></trkpt><trkpt lat="45.53121286053669" lon="8.2415468278137"><ele>222.5</ele><time>2026-04-03T12:52:44.722Z</time></trkpt><trkpt lat="45.53145151517521" lon="8.241571012391047"><ele>222.0</ele><time>2026-04-03T12:52:45.721Z</time></trkpt><trkpt lat="45.53169187987434" lon="8.241590235286372"><ele>222.0</ele><time>2026-04-03T12:52:46.721Z</time></trkpt><trkpt lat="45.53193424737549" lon="8.241611585515162"><ele>222.0</ele><time>2026-04-03T12:52:47.721Z</time></trkpt><trkpt lat="45.5321759885508" lon="8.241633986124663"><ele>223.0</ele><time>2026-04-03T12:52:48.721Z</time></trkpt><trkpt lat="45.53241819183226" lon="8.241658368341191"><ele>224.0</ele><time>2026-04-03T12:52:49.721Z</time></trkpt><trkpt lat="45.532658405047854" lon="8.241679344328668"><ele>223.5</ele><time>2026-04-03T12:52:50.721Z</time></trkpt><trkpt lat="45.53289653897167" lon="8.241699912443066"><ele>223.0</ele><time>2026-04-03T12:52:51.721Z</time></trkpt><trkpt lat="45.53313211911841" lon="8.24171972176813"><ele>223.0</ele><time>2026-04-03T12:52:52.721Z</time></trkpt><trkpt lat="45.53336699702892" lon="8.241740033462634"><ele>223.0</ele><time>2026-04-03T12:52:53.721Z</time></trkpt><trkpt lat="45.53360497546057" lon="8.24175817236725"><ele>224.5</ele><time>2026-04-03T12:52:54.721Z</time></trkpt><trkpt lat="45.53384557024819" lon="8.241780552032848"><ele>226.0</ele><time>2026-04-03T12:52:55.721Z</time></trkpt><trkpt lat="45.534089351955046" lon="8.24180223736088"><ele>226.0</ele><time>2026-04-03T12:52:56.721Z</time></trkpt><trkpt lat="45.53433485096597" lon="8.24182418953169"><ele>226.0</ele><time>2026-04-03T12:52:57.721Z</time></trkpt><trkpt lat="45.53458150790846" lon="8.241845287016792"><ele>226.0</ele><time>2026-04-03T12:52:58.721Z</time></trkpt><trkpt lat="45.5348293154339" lon="8.24186751018514"><ele>226.0</ele><time>2026-04-03T12:52:59.721Z</time></trkpt><trkpt lat="45.5350827407141" lon="8.241885855402467"><ele>226.0</ele><time>2026-04-03T12:53:00.721Z</time></trkpt><trkpt lat="45.53533079640334" lon="8.241902450614804"><ele>226.0</ele><time>2026-04-03T12:53:01.721Z</time></trkpt><trkpt lat="45.53557417878178" lon="8.241923888031653"><ele>226.0</ele><time>2026-04-03T12:53:02.721Z</time></trkpt><trkpt lat="45.5358131921508" lon="8.2419430082328"><ele>226.0</ele><time>2026-04-03T12:53:03.721Z</time></trkpt><trkpt lat="45.536052437157565" lon="8.241963545438209"><ele>225.5</ele><time>2026-04-03T12:53:04.721Z</time></trkpt><trkpt lat="45.536290115584855" lon="8.241986306906618"><ele>225.0</ele><time>2026-04-03T12:53:05.721Z</time></trkpt><trkpt lat="45.536529564605985" lon="8.242011528678253"><ele>225.0</ele><time>2026-04-03T12:53:06.721Z</time></trkpt><trkpt lat="45.53676635875513" lon="8.242031610513072"><ele>225.0</ele><time>2026-04-03T12:53:07.721Z</time></trkpt><trkpt lat="45.537004423817734" lon="8.242052776396783"><ele>225.0</ele><time>2026-04-03T12:53:08.721Z</time></trkpt><trkpt lat="45.5372423596596" lon="8.242073672107045"><ele>225.0</ele><time>2026-04-03T12:53:09.721Z</time></trkpt><trkpt lat="45.53748315376922" lon="8.242093892443293"><ele>225.0</ele><time>2026-04-03T12:53:10.721Z</time></trkpt><trkpt lat="45.53772298403697" lon="8.242114327157099"><ele>225.0</ele><time>2026-04-03T12:53:11.721Z</time></trkpt><trkpt lat="45.53796158637694" lon="8.242135619463271"><ele>226.0</ele><time>2026-04-03T12:53:12.721Z</time></trkpt><trkpt lat="45.5382036543436" lon="8.242157625484879"><ele>227.0</ele><time>2026-04-03T12:53:13.721Z</time></trkpt><trkpt lat="45.53844610957066" lon="8.242177432354648"><ele>227.0</ele><time>2026-04-03T12:53:14.721Z</time></trkpt><trkpt lat="45.53868624321485" lon="8.242195634824231"><ele>227.0</ele><time>2026-04-03T12:53:15.721Z</time></trkpt><trkpt lat="45.53892735127194" lon="8.242214492832991"><ele>227.5</ele><time>2026-04-03T12:53:16.721Z</time></trkpt><trkpt lat="45.53916714228666" lon="8.242235606149483"><ele>228.0</ele><time>2026-04-03T12:53:17.721Z</time></trkpt><trkpt lat="45.53940763597465" lon="8.24225884209688"><ele>229.0</ele><time>2026-04-03T12:53:18.721Z</time></trkpt><trkpt lat="45.53964733497713" lon="8.242280622898019"><ele>230.0</ele><time>2026-04-03T12:53:19.721Z</time></trkpt><trkpt lat="45.53988875304357" lon="8.242304110341378"><ele>230.5</ele><time>2026-04-03T12:53:20.721Z</time></trkpt><trkpt lat="45.540128489505314" lon="8.242326171253842"><ele>231.0</ele><time>2026-04-03T12:53:21.721Z</time></trkpt><trkpt lat="45.540369356650444" lon="8.242346646064279"><ele>230.0</ele><time>2026-04-03T12:53:22.722Z</time></trkpt><trkpt lat="45.540607939299335" lon="8.242365016003719"><ele>229.0</ele><time>2026-04-03T12:53:23.722Z</time></trkpt><trkpt lat="45.54084767004767" lon="8.242385629642317"><ele>229.0</ele><time>2026-04-03T12:53:24.722Z</time></trkpt><trkpt lat="45.541084685633095" lon="8.242403778859384"><ele>229.0</ele><time>2026-04-03T12:53:25.721Z</time></trkpt><trkpt lat="45.54132154042261" lon="8.242423103966406"><ele>229.0</ele><time>2026-04-03T12:53:26.721Z</time></trkpt><trkpt lat="45.541559636524454" lon="8.24244099359465"><ele>229.0</ele><time>2026-04-03T12:53:27.721Z</time></trkpt><trkpt lat="45.54179943758983" lon="8.242461039130545"><ele>229.0</ele><time>2026-04-03T12:53:28.722Z</time></trkpt><trkpt lat="45.542040402942746" lon="8.242483196625521"><ele>229.0</ele><time>2026-04-03T12:53:29.722Z</time></trkpt><trkpt lat="45.54228275824733" lon="8.242506292265157"><ele>230.0</ele><time>2026-04-03T12:53:30.722Z</time></trkpt><trkpt lat="45.542526122911084" lon="8.242527807543578"><ele>231.0</ele><time>2026-04-03T12:53:31.721Z</time></trkpt><trkpt lat="45.54276979515249" lon="8.242549523346067"><ele>231.0</ele><time>2026-04-03T12:53:32.721Z</time></trkpt><trkpt lat="45.543013278656844" lon="8.24257232227667"><ele>231.0</ele><time>2026-04-03T12:53:33.721Z</time></trkpt><trkpt lat="45.54325481435392" lon="8.242596319287156"><ele>231.0</ele><time>2026-04-03T12:53:34.721Z</time></trkpt><trkpt lat="45.54349268997403" lon="8.242616850901879"><ele>231.0</ele><time>2026-04-03T12:53:35.721Z</time></trkpt><trkpt lat="45.54372572100756" lon="8.242634784264665"><ele>232.0</ele><time>2026-04-03T12:53:36.721Z</time></trkpt><trkpt lat="45.543956834283705" lon="8.242652254600316"><ele>233.0</ele><time>2026-04-03T12:53:37.721Z</time></trkpt><trkpt lat="45.544188510212415" lon="8.242672125558084"><ele>233.0</ele><time>2026-04-03T12:53:38.721Z</time></trkpt><trkpt lat="45.54441680969358" lon="8.242690238680696"><ele>233.0</ele><time>2026-04-03T12:53:39.721Z</time></trkpt><trkpt lat="45.54464456955233" lon="8.242711646175895"><ele>232.5</ele><time>2026-04-03T12:53:40.721Z</time></trkpt><trkpt lat="45.54487237526875" lon="8.242730775558716"><ele>232.0</ele><time>2026-04-03T12:53:41.721Z</time></trkpt><trkpt lat="45.5450996274954" lon="8.24275129435301"><ele>232.0</ele><time>2026-04-03T12:53:42.721Z</time></trkpt><trkpt lat="45.54532785115645" lon="8.242773440186491"><ele>232.0</ele><time>2026-04-03T12:53:43.721Z</time></trkpt><trkpt lat="45.54555648106249" lon="8.242791937784292"><ele>232.0</ele><time>2026-04-03T12:53:44.721Z</time></trkpt><trkpt lat="45.54578874158867" lon="8.242809755142304"><ele>232.0</ele><time>2026-04-03T12:53:45.721Z</time></trkpt><trkpt lat="45.54602309725358" lon="8.242830975642134"><ele>232.5</ele><time>2026-04-03T12:53:46.721Z</time></trkpt><trkpt lat="45.546259870191" lon="8.242850660603866"><ele>233.0</ele><time>2026-04-03T12:53:47.721Z</time></trkpt><trkpt lat="45.546499636406345" lon="8.242872620683551"><ele>233.0</ele><time>2026-04-03T12:53:48.72Z</time></trkpt><trkpt lat="45.54674114780183" lon="8.242894476192642"><ele>233.0</ele><time>2026-04-03T12:53:49.72Z</time></trkpt><trkpt lat="45.546983420115815" lon="8.242918096701125"><ele>233.5</ele><time>2026-04-03T12:53:50.72Z</time></trkpt><trkpt lat="45.54722733997323" lon="8.242940430956587"><ele>234.0</ele><time>2026-04-03T12:53:51.72Z</time></trkpt><trkpt lat="45.54746969731366" lon="8.242962964518831"><ele>234.0</ele><time>2026-04-03T12:53:52.72Z</time></trkpt><trkpt lat="45.54771123274478" lon="8.24298216100295"><ele>234.0</ele><time>2026-04-03T12:53:53.72Z</time></trkpt><trkpt lat="45.547947960413126" lon="8.243002091155583"><ele>234.5</ele><time>2026-04-03T12:53:54.72Z</time></trkpt><trkpt lat="45.548182703872186" lon="8.243012100127139"><ele>235.0</ele><time>2026-04-03T12:53:55.72Z</time></trkpt><trkpt lat="45.54841468182003" lon="8.243009316438357"><ele>235.0</ele><time>2026-04-03T12:53:56.72Z</time></trkpt><trkpt lat="45.548643269686515" lon="8.242984434216671"><ele>235.0</ele><time>2026-04-03T12:53:57.72Z</time></trkpt><trkpt lat="45.54887293225685" lon="8.242947666874878"><ele>235.0</ele><time>2026-04-03T12:53:58.72Z</time></trkpt><trkpt lat="45.549104614693455" lon="8.242911905257563"><ele>235.0</ele><time>2026-04-03T12:53:59.72Z</time></trkpt><trkpt lat="45.549334857671134" lon="8.242877746723003"><ele>234.5</ele><time>2026-04-03T12:54:00.72Z</time></trkpt><trkpt lat="45.549566626831044" lon="8.242841211197177"><ele>234.0</ele><time>2026-04-03T12:54:01.72Z</time></trkpt><trkpt lat="45.549797973750344" lon="8.242806024511298"><ele>234.0</ele><time>2026-04-03T12:54:02.72Z</time></trkpt><trkpt lat="45.5500268583223" lon="8.242768848322472"><ele>234.0</ele><time>2026-04-03T12:54:03.72Z</time></trkpt><trkpt lat="45.55025685251514" lon="8.242731771680608"><ele>235.5</ele><time>2026-04-03T12:54:04.72Z</time></trkpt><trkpt lat="45.55048277782302" lon="8.24269715616749"><ele>237.0</ele><time>2026-04-03T12:54:05.72Z</time></trkpt><trkpt lat="45.550703833289575" lon="8.24266304656688"><ele>237.0</ele><time>2026-04-03T12:54:06.72Z</time></trkpt><trkpt lat="45.550923326528604" lon="8.242629876256473"><ele>237.0</ele><time>2026-04-03T12:54:07.72Z</time></trkpt><trkpt lat="45.55113720116022" lon="8.242594478586177"><ele>237.0</ele><time>2026-04-03T12:54:08.72Z</time></trkpt><trkpt lat="45.55134279367777" lon="8.242559797183256"><ele>236.33333333333331</ele><time>2026-04-03T12:54:09.72Z</time></trkpt><trkpt lat="45.55153456060832" lon="8.242527406558892"><ele>235.66666666666666</ele><time>2026-04-03T12:54:10.72Z</time></trkpt><trkpt lat="45.55171341289275" lon="8.242496639202656"><ele>235.0</ele><time>2026-04-03T12:54:11.72Z</time></trkpt><trkpt lat="45.55188068111667" lon="8.242460898547614"><ele>235.0</ele><time>2026-04-03T12:54:12.72Z</time></trkpt><trkpt lat="45.55203671084543" lon="8.242420187467747"><ele>235.0</ele><time>2026-04-03T12:54:13.72Z</time></trkpt><trkpt lat="45.55217058610746" lon="8.242359101263315"><ele>235.0</ele><time>2026-04-03T12:54:14.72Z</time></trkpt><trkpt lat="45.552282677949215" lon="8.242271149867085"><ele>235.0</ele><time>2026-04-03T12:54:15.72Z</time></trkpt><trkpt lat="45.55237965210646" lon="8.242193974497399"><ele>235.25</ele><time>2026-04-03T12:54:16.72Z</time></trkpt><trkpt lat="45.55245244803454" lon="8.242138313797025"><ele>235.5</ele><time>2026-04-03T12:54:17.72Z</time></trkpt><trkpt lat="45.55258406764328" lon="8.242180855394707"><ele>235.75</ele><time>2026-04-03T12:54:18.72Z</time></trkpt><trkpt lat="45.55271745678559" lon="8.242170370686594"><ele>236.0</ele><time>2026-04-03T12:54:19.72Z</time></trkpt><trkpt lat="45.55286587724219" lon="8.242122335704707"><ele>236.33333333333334</ele><time>2026-04-03T12:54:20.72Z</time></trkpt><trkpt lat="45.5530049056908" lon="8.242108508299676"><ele>236.66666666666669</ele><time>2026-04-03T12:54:21.72Z</time></trkpt><trkpt lat="45.55315153308945" lon="8.242152867928514"><ele>237.0</ele><time>2026-04-03T12:54:22.72Z</time></trkpt><trkpt lat="45.553313782805404" lon="8.242194702248156"><ele>237.0</ele><time>2026-04-03T12:54:23.72Z</time></trkpt><trkpt lat="45.55348921676993" lon="8.242200116055566"><ele>237.0</ele><time>2026-04-03T12:54:24.72Z</time></trkpt><trkpt lat="45.553665261821074" lon="8.24218297384198"><ele>237.0</ele><time>2026-04-03T12:54:25.72Z</time></trkpt><trkpt lat="45.55383718530437" lon="8.242160667942267"><ele>238.66666666666669</ele><time>2026-04-03T12:54:26.72Z</time></trkpt><trkpt lat="45.554013344859044" lon="8.242138296040613"><ele>240.33333333333334</ele><time>2026-04-03T12:54:27.72Z</time></trkpt><trkpt lat="45.55419156481664" lon="8.242114945607403"><ele>242.0</ele><time>2026-04-03T12:54:28.72Z</time></trkpt><trkpt lat="45.55436974274076" lon="8.242089497027628"><ele>241.33333333333334</ele><time>2026-04-03T12:54:29.72Z</time></trkpt><trkpt lat="45.55454671883388" lon="8.242061703934496"><ele>240.66666666666669</ele><time>2026-04-03T12:54:30.719Z</time></trkpt><trkpt lat="45.554721531771925" lon="8.242035309394847"><ele>240.0</ele><time>2026-04-03T12:54:31.719Z</time></trkpt><trkpt lat="45.55489394027473" lon="8.242007323727254"><ele>240.0</ele><time>2026-04-03T12:54:32.719Z</time></trkpt><trkpt lat="45.55506440051906" lon="8.241979341573728"><ele>240.0</ele><time>2026-04-03T12:54:33.719Z</time></trkpt><trkpt lat="45.55522781279629" lon="8.241952794537958"><ele>240.0</ele><time>2026-04-03T12:54:34.719Z</time></trkpt><trkpt lat="45.555393298070406" lon="8.241923965019025"><ele>240.66666666666669</ele><time>2026-04-03T12:54:35.719Z</time></trkpt><trkpt lat="45.55556628127953" lon="8.24189477871535"><ele>241.33333333333334</ele><time>2026-04-03T12:54:36.719Z</time></trkpt><trkpt lat="45.55574460352013" lon="8.24186211415296"><ele>242.0</ele><time>2026-04-03T12:54:37.719Z</time></trkpt><trkpt lat="45.55592614582442" lon="8.241834289276717"><ele>242.0</ele><time>2026-04-03T12:54:38.719Z</time></trkpt><trkpt lat="45.556104958095986" lon="8.24181280635835"><ele>242.0</ele><time>2026-04-03T12:54:39.719Z</time></trkpt><trkpt lat="45.5562820088205" lon="8.241791355993865"><ele>242.0</ele><time>2026-04-03T12:54:40.719Z</time></trkpt><trkpt lat="45.55645446692191" lon="8.241761800253958"><ele>242.0</ele><time>2026-04-03T12:54:41.719Z</time></trkpt><trkpt lat="45.556625857238565" lon="8.241729465115068"><ele>242.0</ele><time>2026-04-03T12:54:42.719Z</time></trkpt><trkpt lat="45.55680468236324" lon="8.24170002996392"><ele>242.0</ele><time>2026-04-03T12:54:43.719Z</time></trkpt><trkpt lat="45.556989189392034" lon="8.241668822259747"><ele>241.0</ele><time>2026-04-03T12:54:44.719Z</time></trkpt><trkpt lat="45.557175909675756" lon="8.241633656230254"><ele>240.0</ele><time>2026-04-03T12:54:45.719Z</time></trkpt><trkpt lat="45.55735638089115" lon="8.241599399399082"><ele>239.0</ele><time>2026-04-03T12:54:46.719Z</time></trkpt><trkpt lat="45.55753054847773" lon="8.241565875900303"><ele>239.0</ele><time>2026-04-03T12:54:47.719Z</time></trkpt><trkpt lat="45.557699938844266" lon="8.241561296495677"><ele>239.0</ele><time>2026-04-03T12:54:48.719Z</time></trkpt><trkpt lat="45.55786361562622" lon="8.241534905136742"><ele>239.0</ele><time>2026-04-03T12:54:49.719Z</time></trkpt><trkpt lat="45.55802429698901" lon="8.241508830395505"><ele>239.0</ele><time>2026-04-03T12:54:50.719Z</time></trkpt><trkpt lat="45.55818139631423" lon="8.241483190705754"><ele>239.0</ele><time>2026-04-03T12:54:51.719Z</time></trkpt><trkpt lat="45.558333344078534" lon="8.241436316093472"><ele>239.0</ele><time>2026-04-03T12:54:52.719Z</time></trkpt><trkpt lat="45.55847587096525" lon="8.241414617660519"><ele>239.2</ele><time>2026-04-03T12:54:53.719Z</time></trkpt><trkpt lat="45.558604126825315" lon="8.241395816458898"><ele>239.39999999999998</ele><time>2026-04-03T12:54:54.719Z</time></trkpt><trkpt lat="45.558716356620714" lon="8.241378432135427"><ele>239.6</ele><time>2026-04-03T12:54:55.719Z</time></trkpt><trkpt lat="45.558804719704064" lon="8.241382212241938"><ele>239.8</ele><time>2026-04-03T12:54:56.719Z</time></trkpt><trkpt lat="45.55887733141254" lon="8.241316724856938"><ele>240.0</ele><time>2026-04-03T12:54:57.719Z</time></trkpt><trkpt lat="45.55893062975959" lon="8.241252670705029"><ele>240.0</ele><time>2026-04-03T12:54:58.719Z</time></trkpt><trkpt lat="45.55899937867588" lon="8.24112782818431"><ele>240.0</ele><time>2026-04-03T12:55:00.719Z</time></trkpt><trkpt lat="45.55904341799548" lon="8.241343841600758"><ele>240.0</ele><time>2026-04-03T12:55:01.719Z</time></trkpt><trkpt lat="45.55904085887905" lon="8.241055546238455"><ele>240.0</ele><time>2026-04-03T12:55:02.719Z</time></trkpt><trkpt lat="45.55910687253854" lon="8.241022599346717"><ele>240.0</ele><time>2026-04-03T12:55:06.719Z</time></trkpt><trkpt lat="45.559181229609294" lon="8.2409904662872"><ele>240.0</ele><time>2026-04-03T12:55:12.718Z</time></trkpt><trkpt lat="45.55928291742258" lon="8.24090794044607"><ele>240.0</ele><time>2026-04-03T12:55:41.719Z</time></trkpt><trkpt lat="45.55926700488193" lon="8.241001733969243"><ele>240.0</ele><time>2026-04-03T12:56:03.719Z</time></trkpt><trkpt lat="45.55916068922954" lon="8.241196593348825"><ele>240.0</ele><time>2026-04-03T13:00:04.716Z</time></trkpt><trkpt lat="45.559107304779296" lon="8.241133255177354"><ele>240.0</ele><time>2026-04-03T13:00:13.716Z</time></trkpt><trkpt lat="45.5590383448033" lon="8.241166628442265"><ele>240.0</ele><time>2026-04-03T13:00:16.716Z</time></trkpt><trkpt lat="45.55899462607276" lon="8.241246517990604"><ele>240.0</ele><time>2026-04-03T13:00:18.716Z</time></trkpt><trkpt lat="45.55902454081652" lon="8.241374902270067"><ele>240.0</ele><time>2026-04-03T13:00:28.716Z</time></trkpt><trkpt lat="45.55915264537947" lon="8.241372888124767"><ele>240.0</ele><time>2026-04-03T13:00:30.716Z</time></trkpt><trkpt lat="45.55923219492686" lon="8.241348539825218"><ele>240.0</ele><time>2026-04-03T13:00:31.716Z</time></trkpt><trkpt lat="45.55932788487487" lon="8.241324730769582"><ele>240.0</ele><time>2026-04-03T13:00:32.716Z</time></trkpt><trkpt lat="45.559439809283504" lon="8.24129345290354"><ele>240.0</ele><time>2026-04-03T13:00:33.716Z</time></trkpt><trkpt lat="45.559569126992024" lon="8.241264624912299"><ele>240.0</ele><time>2026-04-03T13:00:34.716Z</time></trkpt><trkpt lat="45.559706478791924" lon="8.241244132917597"><ele>240.5</ele><time>2026-04-03T13:00:35.716Z</time></trkpt><trkpt lat="45.5598337604429" lon="8.241226096116803"><ele>241.0</ele><time>2026-04-03T13:00:36.716Z</time></trkpt><trkpt lat="45.559953781705666" lon="8.241209615288486"><ele>241.5</ele><time>2026-04-03T13:00:37.716Z</time></trkpt><trkpt lat="45.560064464426944" lon="8.241195258176033"><ele>242.0</ele><time>2026-04-03T13:00:38.716Z</time></trkpt><trkpt lat="45.56016800558525" lon="8.241187251974598"><ele>242.0</ele><time>2026-04-03T13:00:39.716Z</time></trkpt><trkpt lat="45.56027632183759" lon="8.241205822723112"><ele>242.0</ele><time>2026-04-03T13:00:40.716Z</time></trkpt><trkpt lat="45.560393333343235" lon="8.24124958483153"><ele>242.0</ele><time>2026-04-03T13:00:41.716Z</time></trkpt><trkpt lat="45.56051784106703" lon="8.241322824203376"><ele>242.0</ele><time>2026-04-03T13:00:42.716Z</time></trkpt><trkpt lat="45.560649084456706" lon="8.241415809885691"><ele>242.0</ele><time>2026-04-03T13:00:43.715Z</time></trkpt><trkpt lat="45.56078278105967" lon="8.241524022405569"><ele>242.0</ele><time>2026-04-03T13:00:44.715Z</time></trkpt><trkpt lat="45.5609089091401" lon="8.241622198416831"><ele>242.0</ele><time>2026-04-03T13:00:45.715Z</time></trkpt><trkpt lat="45.56103293823707" lon="8.241720357670442"><ele>242.0</ele><time>2026-04-03T13:00:46.715Z</time></trkpt><trkpt lat="45.561153555458965" lon="8.24181716720703"><ele>242.25</ele><time>2026-04-03T13:00:47.715Z</time></trkpt><trkpt lat="45.561273509457614" lon="8.241914536150563"><ele>242.5</ele><time>2026-04-03T13:00:48.715Z</time></trkpt><trkpt lat="45.56139340874346" lon="8.242012835546738"><ele>242.75</ele><time>2026-04-03T13:00:49.715Z</time></trkpt><trkpt lat="45.56151742317848" lon="8.242112078264414"><ele>243.0</ele><time>2026-04-03T13:00:50.715Z</time></trkpt><trkpt lat="45.56164679373823" lon="8.242214086753103"><ele>243.66666666666669</ele><time>2026-04-03T13:00:51.715Z</time></trkpt><trkpt lat="45.561782724841756" lon="8.242319544899239"><ele>244.33333333333334</ele><time>2026-04-03T13:00:52.715Z</time></trkpt><trkpt lat="45.56192079824103" lon="8.242426429146988"><ele>245.0</ele><time>2026-04-03T13:00:53.715Z</time></trkpt><trkpt lat="45.562063356889084" lon="8.24253740796382"><ele>245.66666666666669</ele><time>2026-04-03T13:00:54.715Z</time></trkpt><trkpt lat="45.562203444855456" lon="8.24264863620957"><ele>246.33333333333331</ele><time>2026-04-03T13:00:55.715Z</time></trkpt><trkpt lat="45.56234015218125" lon="8.242752856398548"><ele>247.0</ele><time>2026-04-03T13:00:56.715Z</time></trkpt><trkpt lat="45.56247048608466" lon="8.242849293089334"><ele>247.0</ele><time>2026-04-03T13:00:57.715Z</time></trkpt><trkpt lat="45.56258918711855" lon="8.242939859761059"><ele>247.0</ele><time>2026-04-03T13:00:58.715Z</time></trkpt><trkpt lat="45.562695520095076" lon="8.243022322635552"><ele>247.0</ele><time>2026-04-03T13:00:59.715Z</time></trkpt><trkpt lat="45.56278952549405" lon="8.243101465513815"><ele>247.0</ele><time>2026-04-03T13:01:00.715Z</time></trkpt><trkpt lat="45.56288004413685" lon="8.243174293412237"><ele>246.49999999999997</ele><time>2026-04-03T13:01:01.715Z</time></trkpt><trkpt lat="45.56296266357091" lon="8.243235735109678"><ele>246.0</ele><time>2026-04-03T13:01:02.715Z</time></trkpt><trkpt lat="45.56303629835003" lon="8.243290357777301"><ele>245.5</ele><time>2026-04-03T13:01:03.715Z</time></trkpt><trkpt lat="45.56310967563427" lon="8.24334284563664"><ele>245.0</ele><time>2026-04-03T13:01:04.715Z</time></trkpt><trkpt lat="45.56318602736488" lon="8.243408039799062"><ele>244.49999999999997</ele><time>2026-04-03T13:01:05.715Z</time></trkpt><trkpt lat="45.563277452876484" lon="8.243471023572646"><ele>244.0</ele><time>2026-04-03T13:01:06.715Z</time></trkpt><trkpt lat="45.56338268487303" lon="8.2435302498494"><ele>244.0</ele><time>2026-04-03T13:01:07.715Z</time></trkpt><trkpt lat="45.56349170590444" lon="8.243589873432079"><ele>244.0</ele><time>2026-04-03T13:01:08.715Z</time></trkpt><trkpt lat="45.56360735912398" lon="8.243690745472248"><ele>244.0</ele><time>2026-04-03T13:01:09.715Z</time></trkpt><trkpt lat="45.56372010000631" lon="8.243800067827092"><ele>244.0</ele><time>2026-04-03T13:01:10.715Z</time></trkpt><trkpt lat="45.56383750603409" lon="8.243910953375048"><ele>244.66666666666666</ele><time>2026-04-03T13:01:11.715Z</time></trkpt><trkpt lat="45.56395869034874" lon="8.244030340185494"><ele>245.33333333333331</ele><time>2026-04-03T13:01:12.715Z</time></trkpt><trkpt lat="45.564094150444376" lon="8.244140907746166"><ele>246.0</ele><time>2026-04-03T13:01:13.715Z</time></trkpt><trkpt lat="45.56423191198687" lon="8.244256582641075"><ele>246.0</ele><time>2026-04-03T13:01:14.715Z</time></trkpt><trkpt lat="45.564369871290964" lon="8.244361750734546"><ele>246.0</ele><time>2026-04-03T13:01:15.715Z</time></trkpt><trkpt lat="45.5645050948795" lon="8.244463056702982"><ele>246.0</ele><time>2026-04-03T13:01:16.715Z</time></trkpt><trkpt lat="45.56464717442163" lon="8.244571529067567"><ele>246.66666666666669</ele><time>2026-04-03T13:01:17.715Z</time></trkpt><trkpt lat="45.56479529076798" lon="8.244683788712836"><ele>247.33333333333334</ele><time>2026-04-03T13:01:18.715Z</time></trkpt><trkpt lat="45.56494419041707" lon="8.244798275702653"><ele>248.0</ele><time>2026-04-03T13:01:19.715Z</time></trkpt><trkpt lat="45.56509652938645" lon="8.24491928549279"><ele>248.33333333333334</ele><time>2026-04-03T13:01:20.715Z</time></trkpt><trkpt lat="45.565253036856696" lon="8.245046268455626"><ele>248.66666666666669</ele><time>2026-04-03T13:01:21.715Z</time></trkpt><trkpt lat="45.56541600454499" lon="8.245171635520153"><ele>249.0</ele><time>2026-04-03T13:01:22.715Z</time></trkpt><trkpt lat="45.56558128165202" lon="8.245299803558138"><ele>249.0</ele><time>2026-04-03T13:01:23.715Z</time></trkpt><trkpt lat="45.56573378425769" lon="8.245421852639796"><ele>249.0</ele><time>2026-04-03T13:01:24.715Z</time></trkpt><trkpt lat="45.56588448349935" lon="8.245538758939324"><ele>249.0</ele><time>2026-04-03T13:01:25.715Z</time></trkpt><trkpt lat="45.56604161778577" lon="8.245662112798101"><ele>250.0</ele><time>2026-04-03T13:01:26.714Z</time></trkpt><trkpt lat="45.56620386815773" lon="8.245787826797294"><ele>251.0</ele><time>2026-04-03T13:01:27.714Z</time></trkpt><trkpt lat="45.56636737167435" lon="8.245918275731263"><ele>252.0</ele><time>2026-04-03T13:01:28.714Z</time></trkpt><trkpt lat="45.56653408785485" lon="8.246049197532905"><ele>252.0</ele><time>2026-04-03T13:01:29.714Z</time></trkpt><trkpt lat="45.56670271423937" lon="8.24618443297562"><ele>252.0</ele><time>2026-04-03T13:01:30.714Z</time></trkpt><trkpt lat="45.56687708815496" lon="8.246321168025057"><ele>252.0</ele><time>2026-04-03T13:01:31.714Z</time></trkpt><trkpt lat="45.56705221332672" lon="8.246458375038355"><ele>252.0</ele><time>2026-04-03T13:01:32.714Z</time></trkpt><trkpt lat="45.56722474960414" lon="8.246592847045394"><ele>252.0</ele><time>2026-04-03T13:01:33.714Z</time></trkpt><trkpt lat="45.56738634414266" lon="8.246721809714227"><ele>252.0</ele><time>2026-04-03T13:01:34.714Z</time></trkpt><trkpt lat="45.56754989789781" lon="8.246854726200782"><ele>252.0</ele><time>2026-04-03T13:01:35.714Z</time></trkpt><trkpt lat="45.567719381452456" lon="8.246990205298893"><ele>252.0</ele><time>2026-04-03T13:01:36.714Z</time></trkpt><trkpt lat="45.56789283199429" lon="8.247130495647626"><ele>252.0</ele><time>2026-04-03T13:01:37.714Z</time></trkpt><trkpt lat="45.56807315097879" lon="8.247272353728558"><ele>252.0</ele><time>2026-04-03T13:01:38.714Z</time></trkpt><trkpt lat="45.56825465269091" lon="8.247415862520706"><ele>252.0</ele><time>2026-04-03T13:01:39.714Z</time></trkpt><trkpt lat="45.56844087467453" lon="8.247560422582794"><ele>252.0</ele><time>2026-04-03T13:01:40.714Z</time></trkpt><trkpt lat="45.56862478454901" lon="8.247704913448684"><ele>252.0</ele><time>2026-04-03T13:01:41.714Z</time></trkpt><trkpt lat="45.56880449928403" lon="8.247850337644415"><ele>252.0</ele><time>2026-04-03T13:01:42.714Z</time></trkpt><trkpt lat="45.568983142660265" lon="8.24799266844532"><ele>252.0</ele><time>2026-04-03T13:01:43.714Z</time></trkpt><trkpt lat="45.569162558585575" lon="8.248135819101584"><ele>252.0</ele><time>2026-04-03T13:01:44.714Z</time></trkpt><trkpt lat="45.56934476431338" lon="8.248278429389838"><ele>252.0</ele><time>2026-04-03T13:01:45.715Z</time></trkpt><trkpt lat="45.56952716052614" lon="8.248422206508984"><ele>252.0</ele><time>2026-04-03T13:01:46.715Z</time></trkpt><trkpt lat="45.56971176000728" lon="8.248568827847436"><ele>252.33333333333331</ele><time>2026-04-03T13:01:47.715Z</time></trkpt><trkpt lat="45.56989415205768" lon="8.248715295713925"><ele>252.66666666666666</ele><time>2026-04-03T13:01:48.715Z</time></trkpt><trkpt lat="45.57007827151364" lon="8.24886135050548"><ele>253.0</ele><time>2026-04-03T13:01:49.716Z</time></trkpt><trkpt lat="45.57026180299948" lon="8.249004178694754"><ele>253.0</ele><time>2026-04-03T13:01:50.716Z</time></trkpt><trkpt lat="45.570444363674945" lon="8.249147301034377"><ele>253.0</ele><time>2026-04-03T13:01:51.716Z</time></trkpt><trkpt lat="45.57062596085318" lon="8.249287984155115"><ele>253.0</ele><time>2026-04-03T13:01:52.715Z</time></trkpt><trkpt lat="45.57080457061183" lon="8.249426591867344"><ele>253.0</ele><time>2026-04-03T13:01:53.715Z</time></trkpt><trkpt lat="45.570982137852276" lon="8.249564359257286"><ele>253.0</ele><time>2026-04-03T13:01:54.715Z</time></trkpt><trkpt lat="45.57115547483802" lon="8.249706861674694"><ele>253.0</ele><time>2026-04-03T13:01:55.715Z</time></trkpt><trkpt lat="45.571329788451656" lon="8.24984871239398"><ele>253.66666666666666</ele><time>2026-04-03T13:01:56.715Z</time></trkpt><trkpt lat="45.57150689539696" lon="8.249993897245858"><ele>254.33333333333331</ele><time>2026-04-03T13:01:57.715Z</time></trkpt><trkpt lat="45.57168571463521" lon="8.25013818508826"><ele>255.0</ele><time>2026-04-03T13:01:58.716Z</time></trkpt><trkpt lat="45.571862375553394" lon="8.250284547341394"><ele>255.0</ele><time>2026-04-03T13:01:59.716Z</time></trkpt><trkpt lat="45.57204260073767" lon="8.25042970606267"><ele>255.0</ele><time>2026-04-03T13:02:00.715Z</time></trkpt><trkpt lat="45.57222427559331" lon="8.250569348254713"><ele>255.0</ele><time>2026-04-03T13:02:01.715Z</time></trkpt><trkpt lat="45.572408633335144" lon="8.25070884191799"><ele>255.0</ele><time>2026-04-03T13:02:02.715Z</time></trkpt><trkpt lat="45.572591724307856" lon="8.250853506527218"><ele>255.0</ele><time>2026-04-03T13:02:03.715Z</time></trkpt><trkpt lat="45.57277901422201" lon="8.251001759749451"><ele>255.0</ele><time>2026-04-03T13:02:04.715Z</time></trkpt><trkpt lat="45.57297090674145" lon="8.251148721237636"><ele>255.33333333333331</ele><time>2026-04-03T13:02:05.715Z</time></trkpt><trkpt lat="45.57316322247896" lon="8.25130069218976"><ele>255.66666666666666</ele><time>2026-04-03T13:02:06.715Z</time></trkpt><trkpt lat="45.573355266350305" lon="8.25145639565737"><ele>256.0</ele><time>2026-04-03T13:02:07.715Z</time></trkpt><trkpt lat="45.57354798843312" lon="8.251610510988433"><ele>257.3333333333333</ele><time>2026-04-03T13:02:08.715Z</time></trkpt><trkpt lat="45.57373510300149" lon="8.251764148074045"><ele>258.6666666666667</ele><time>2026-04-03T13:02:09.715Z</time></trkpt><trkpt lat="45.57392093541018" lon="8.251913443129157"><ele>260.0</ele><time>2026-04-03T13:02:10.715Z</time></trkpt><trkpt lat="45.574103207848694" lon="8.252061914499306"><ele>260.0</ele><time>2026-04-03T13:02:11.715Z</time></trkpt><trkpt lat="45.574285970311315" lon="8.2522071874394"><ele>260.0</ele><time>2026-04-03T13:02:12.715Z</time></trkpt><trkpt lat="45.57447127526808" lon="8.252347855670322"><ele>260.0</ele><time>2026-04-03T13:02:13.715Z</time></trkpt><trkpt lat="45.574651772094995" lon="8.252489379905214"><ele>259.6666666666667</ele><time>2026-04-03T13:02:14.715Z</time></trkpt><trkpt lat="45.574833428581925" lon="8.252634077575218"><ele>259.3333333333333</ele><time>2026-04-03T13:02:15.715Z</time></trkpt><trkpt lat="45.575013506179864" lon="8.252777828682508"><ele>259.0</ele><time>2026-04-03T13:02:16.715Z</time></trkpt><trkpt lat="45.57519697476202" lon="8.25291820759293"><ele>258.66666666666663</ele><time>2026-04-03T13:02:17.715Z</time></trkpt><trkpt lat="45.575376054947114" lon="8.2530601676336"><ele>258.3333333333333</ele><time>2026-04-03T13:02:18.715Z</time></trkpt><trkpt lat="45.575556208419165" lon="8.253203500748514"><ele>258.0</ele><time>2026-04-03T13:02:19.715Z</time></trkpt><trkpt lat="45.57573326623281" lon="8.253345084978047"><ele>258.0</ele><time>2026-04-03T13:02:20.715Z</time></trkpt><trkpt lat="45.57590569122117" lon="8.253481784194275"><ele>258.0</ele><time>2026-04-03T13:02:21.715Z</time></trkpt><trkpt lat="45.57606788432682" lon="8.253610249246684"><ele>258.0</ele><time>2026-04-03T13:02:22.715Z</time></trkpt><trkpt lat="45.57621579850002" lon="8.253737089404158"><ele>258.3333333333333</ele><time>2026-04-03T13:02:23.715Z</time></trkpt><trkpt lat="45.57635183371181" lon="8.253868362611593"><ele>258.66666666666663</ele><time>2026-04-03T13:02:24.715Z</time></trkpt><trkpt lat="45.57647811743653" lon="8.254005948857086"><ele>259.0</ele><time>2026-04-03T13:02:25.715Z</time></trkpt><trkpt lat="45.576589252261144" lon="8.254138612753893"><ele>259.0</ele><time>2026-04-03T13:02:26.715Z</time></trkpt><trkpt lat="45.57668681181369" lon="8.254266181778322"><ele>259.0</ele><time>2026-04-03T13:02:27.715Z</time></trkpt><trkpt lat="45.57676786273424" lon="8.254386855336614"><ele>259.0</ele><time>2026-04-03T13:02:28.715Z</time></trkpt><trkpt lat="45.576833319246454" lon="8.25450499167959"><ele>259.0</ele><time>2026-04-03T13:02:29.715Z</time></trkpt><trkpt lat="45.57689062295596" lon="8.254610563333705"><ele>259.0</ele><time>2026-04-03T13:02:30.715Z</time></trkpt><trkpt lat="45.57695362997594" lon="8.25468298608027"><ele>259.4</ele><time>2026-04-03T13:02:31.715Z</time></trkpt><trkpt lat="45.5770213661328" lon="8.25469750572431"><ele>259.79999999999995</ele><time>2026-04-03T13:02:32.715Z</time></trkpt><trkpt lat="45.57711353371209" lon="8.254661968844648"><ele>260.20000000000005</ele><time>2026-04-03T13:02:33.715Z</time></trkpt><trkpt lat="45.577227965453176" lon="8.254628294743204"><ele>260.6</ele><time>2026-04-03T13:02:34.715Z</time></trkpt><trkpt lat="45.57736775632878" lon="8.254608825010692"><ele>261.0</ele><time>2026-04-03T13:02:35.715Z</time></trkpt><trkpt lat="45.57751368284118" lon="8.254549989808803"><ele>261.0</ele><time>2026-04-03T13:02:36.715Z</time></trkpt><trkpt lat="45.57766186148133" lon="8.254466073886071"><ele>261.0</ele><time>2026-04-03T13:02:37.715Z</time></trkpt><trkpt lat="45.577802712436466" lon="8.254393974108508"><ele>261.0</ele><time>2026-04-03T13:02:38.715Z</time></trkpt><trkpt lat="45.57794598543129" lon="8.254320772897493"><ele>261.6666666666667</ele><time>2026-04-03T13:02:39.715Z</time></trkpt><trkpt lat="45.578094325388165" lon="8.254243082722345"><ele>262.33333333333337</ele><time>2026-04-03T13:02:40.715Z</time></trkpt><trkpt lat="45.57825080050311" lon="8.25416470820921"><ele>263.0</ele><time>2026-04-03T13:02:41.715Z</time></trkpt><trkpt lat="45.57841347892705" lon="8.254082741019078"><ele>263.0</ele><time>2026-04-03T13:02:42.714Z</time></trkpt><trkpt lat="45.578579366601225" lon="8.253999202073793"><ele>263.0</ele><time>2026-04-03T13:02:43.714Z</time></trkpt><trkpt lat="45.57874641389218" lon="8.253912895619841"><ele>263.0</ele><time>2026-04-03T13:02:44.714Z</time></trkpt><trkpt lat="45.57891686389969" lon="8.253826771672498"><ele>263.6666666666667</ele><time>2026-04-03T13:02:45.714Z</time></trkpt><trkpt lat="45.579081542804104" lon="8.253744494151857"><ele>264.3333333333333</ele><time>2026-04-03T13:02:46.714Z</time></trkpt><trkpt lat="45.579237193013405" lon="8.253664444309562"><ele>265.0</ele><time>2026-04-03T13:02:47.714Z</time></trkpt><trkpt lat="45.57939631001893" lon="8.253584054115409"><ele>265.0</ele><time>2026-04-03T13:02:48.714Z</time></trkpt><trkpt lat="45.57955923674809" lon="8.25350356127761"><ele>265.0</ele><time>2026-04-03T13:02:49.714Z</time></trkpt><trkpt lat="45.57971675668726" lon="8.253422122368304"><ele>265.0</ele><time>2026-04-03T13:02:50.714Z</time></trkpt><trkpt lat="45.57987395203513" lon="8.253344021745749"><ele>265.0</ele><time>2026-04-03T13:02:51.714Z</time></trkpt><trkpt lat="45.580031260290866" lon="8.253266517681347"><ele>265.0</ele><time>2026-04-03T13:02:52.714Z</time></trkpt><trkpt lat="45.580193447419255" lon="8.253184266324418"><ele>265.0</ele><time>2026-04-03T13:02:53.715Z</time></trkpt><trkpt lat="45.58035866225058" lon="8.253102221157478"><ele>265.3333333333333</ele><time>2026-04-03T13:02:54.715Z</time></trkpt><trkpt lat="45.58052559369038" lon="8.253019500511042"><ele>265.6666666666667</ele><time>2026-04-03T13:02:55.715Z</time></trkpt><trkpt lat="45.580694629187" lon="8.252935444483915"><ele>266.0</ele><time>2026-04-03T13:02:56.715Z</time></trkpt><trkpt lat="45.58086426528079" lon="8.25284974081354"><ele>266.0</ele><time>2026-04-03T13:02:57.715Z</time></trkpt><trkpt lat="45.58103696894095" lon="8.25276492985272"><ele>266.0</ele><time>2026-04-03T13:02:58.716Z</time></trkpt><trkpt lat="45.581210777825945" lon="8.252677618214724"><ele>266.0</ele><time>2026-04-03T13:02:59.716Z</time></trkpt><trkpt lat="45.5813841922323" lon="8.252589086439635"><ele>266.6666666666667</ele><time>2026-04-03T13:03:00.716Z</time></trkpt><trkpt lat="45.581557774190976" lon="8.252503426651552"><ele>267.3333333333333</ele><time>2026-04-03T13:03:01.716Z</time></trkpt><trkpt lat="45.58172999557246" lon="8.252415118775343"><ele>268.0</ele><time>2026-04-03T13:03:02.716Z</time></trkpt><trkpt lat="45.58190217145208" lon="8.252328782640019"><ele>268.0</ele><time>2026-04-03T13:03:03.716Z</time></trkpt><trkpt lat="45.582076491477935" lon="8.252244760245386"><ele>268.0</ele><time>2026-04-03T13:03:04.716Z</time></trkpt><trkpt lat="45.58225273564148" lon="8.252172192989525"><ele>268.0</ele><time>2026-04-03T13:03:05.717Z</time></trkpt><trkpt lat="45.58243032574162" lon="8.252121226140675"><ele>268.0</ele><time>2026-04-03T13:03:06.717Z</time></trkpt><trkpt lat="45.582607311181604" lon="8.252083313050466"><ele>268.0</ele><time>2026-04-03T13:03:07.717Z</time></trkpt><trkpt lat="45.5827832110013" lon="8.252047325788753"><ele>268.0</ele><time>2026-04-03T13:03:08.717Z</time></trkpt><trkpt lat="45.58295556083014" lon="8.252005170077899"><ele>268.66666666666663</ele><time>2026-04-03T13:03:09.717Z</time></trkpt><trkpt lat="45.58312421937837" lon="8.251955829504523"><ele>269.3333333333333</ele><time>2026-04-03T13:03:10.717Z</time></trkpt><trkpt lat="45.58329388651546" lon="8.25190168894709"><ele>270.0</ele><time>2026-04-03T13:03:11.717Z</time></trkpt><trkpt lat="45.58346225033907" lon="8.251846737431435"><ele>270.0</ele><time>2026-04-03T13:03:12.717Z</time></trkpt><trkpt lat="45.583628954508534" lon="8.25178990745043"><ele>270.0</ele><time>2026-04-03T13:03:13.717Z</time></trkpt><trkpt lat="45.58378734543319" lon="8.25173057252259"><ele>270.0</ele><time>2026-04-03T13:03:14.717Z</time></trkpt><trkpt lat="45.583941271161706" lon="8.251673682727802"><ele>269.3333333333333</ele><time>2026-04-03T13:03:15.717Z</time></trkpt><trkpt lat="45.58408969303587" lon="8.251609178108053"><ele>268.66666666666663</ele><time>2026-04-03T13:03:16.717Z</time></trkpt><trkpt lat="45.58423132254183" lon="8.251516818290114"><ele>268.0</ele><time>2026-04-03T13:03:17.717Z</time></trkpt><trkpt lat="45.58436463224897" lon="8.251388227554752"><ele>268.0</ele><time>2026-04-03T13:03:18.717Z</time></trkpt><trkpt lat="45.58449508259384" lon="8.251232387209596"><ele>268.0</ele><time>2026-04-03T13:03:19.717Z</time></trkpt><trkpt lat="45.584628227487805" lon="8.25106539169183"><ele>268.0</ele><time>2026-04-03T13:03:20.717Z</time></trkpt><trkpt lat="45.584766250902106" lon="8.250902310517121"><ele>268.66666666666663</ele><time>2026-04-03T13:03:21.717Z</time></trkpt><trkpt lat="45.584897688437444" lon="8.250741472955312"><ele>269.3333333333333</ele><time>2026-04-03T13:03:22.717Z</time></trkpt><trkpt lat="45.58502517821261" lon="8.250587601886858"><ele>270.0</ele><time>2026-04-03T13:03:23.717Z</time></trkpt><trkpt lat="45.585157191793705" lon="8.250456905728552"><ele>270.3333333333333</ele><time>2026-04-03T13:03:24.717Z</time></trkpt><trkpt lat="45.585298865019766" lon="8.25035464913966"><ele>270.66666666666663</ele><time>2026-04-03T13:03:25.717Z</time></trkpt><trkpt lat="45.58544840226829" lon="8.250277455228137"><ele>271.0</ele><time>2026-04-03T13:03:26.717Z</time></trkpt><trkpt lat="45.58561516970225" lon="8.250219788972636"><ele>271.0</ele><time>2026-04-03T13:03:27.717Z</time></trkpt><trkpt lat="45.585791369284614" lon="8.250182152743582"><ele>271.0</ele><time>2026-04-03T13:03:28.717Z</time></trkpt><trkpt lat="45.585975907980114" lon="8.25015587239314"><ele>271.0</ele><time>2026-04-03T13:03:29.717Z</time></trkpt><trkpt lat="45.586162681603234" lon="8.25012195940295"><ele>271.0</ele><time>2026-04-03T13:03:30.717Z</time></trkpt><trkpt lat="45.58634942721921" lon="8.250087969666293"><ele>271.0</ele><time>2026-04-03T13:03:31.717Z</time></trkpt><trkpt lat="45.58653969684543" lon="8.250059324278384"><ele>271.0</ele><time>2026-04-03T13:03:32.717Z</time></trkpt><trkpt lat="45.58672725880986" lon="8.250029501911285"><ele>271.0</ele><time>2026-04-03T13:03:33.717Z</time></trkpt><trkpt lat="45.586914807559715" lon="8.250001748556064"><ele>271.0</ele><time>2026-04-03T13:03:34.717Z</time></trkpt><trkpt lat="45.58710221453367" lon="8.249971548193939"><ele>271.0</ele><time>2026-04-03T13:03:35.717Z</time></trkpt><trkpt lat="45.587290007812484" lon="8.24994140156256"><ele>271.66666666666663</ele><time>2026-04-03T13:03:36.717Z</time></trkpt><trkpt lat="45.58747677665849" lon="8.249911528268964"><ele>272.3333333333333</ele><time>2026-04-03T13:03:37.717Z</time></trkpt><trkpt lat="45.58766223453457" lon="8.249883145448946"><ele>273.0</ele><time>2026-04-03T13:03:38.717Z</time></trkpt><trkpt lat="45.587847296732434" lon="8.24985599518827"><ele>273.0</ele><time>2026-04-03T13:03:39.717Z</time></trkpt><trkpt lat="45.58803293453958" lon="8.249827101860582"><ele>273.0</ele><time>2026-04-03T13:03:40.717Z</time></trkpt><trkpt lat="45.58822077223583" lon="8.24980823088399"><ele>273.0</ele><time>2026-04-03T13:03:41.717Z</time></trkpt><trkpt lat="45.58840383310486" lon="8.249792618952052"><ele>273.3333333333333</ele><time>2026-04-03T13:03:42.717Z</time></trkpt><trkpt lat="45.588582823336544" lon="8.249784829178566"><ele>273.66666666666663</ele><time>2026-04-03T13:03:43.717Z</time></trkpt><trkpt lat="45.58875635446895" lon="8.2497802697676"><ele>274.0</ele><time>2026-04-03T13:03:44.717Z</time></trkpt><trkpt lat="45.588929338080355" lon="8.249776980114058"><ele>274.66666666666663</ele><time>2026-04-03T13:03:45.717Z</time></trkpt><trkpt lat="45.589095604488286" lon="8.249776373852496"><ele>275.3333333333333</ele><time>2026-04-03T13:03:46.717Z</time></trkpt><trkpt lat="45.58925531972565" lon="8.249775436873735"><ele>276.0</ele><time>2026-04-03T13:03:47.717Z</time></trkpt><trkpt lat="45.58941092473557" lon="8.249776520376448"><ele>275.75</ele><time>2026-04-03T13:03:48.717Z</time></trkpt><trkpt lat="45.58955960574161" lon="8.249778442246583"><ele>275.5</ele><time>2026-04-03T13:03:49.717Z</time></trkpt><trkpt lat="45.58969706925329" lon="8.249776304525831"><ele>275.25</ele><time>2026-04-03T13:03:50.717Z</time></trkpt><trkpt lat="45.58981903890132" lon="8.249771220488135"><ele>275.0</ele><time>2026-04-03T13:03:51.718Z</time></trkpt><trkpt lat="45.58992019897575" lon="8.249768641707231"><ele>275.0</ele><time>2026-04-03T13:03:52.719Z</time></trkpt><trkpt lat="45.59000410341059" lon="8.24976827918401"><ele>275.0</ele><time>2026-04-03T13:03:53.719Z</time></trkpt><trkpt lat="45.59010931192568" lon="8.249773858430316"><ele>275.0</ele><time>2026-04-03T13:03:55.718Z</time></trkpt><trkpt lat="45.59020792474022" lon="8.24977273193203"><ele>275.0</ele><time>2026-04-03T13:03:57.719Z</time></trkpt><trkpt lat="45.59029199492532" lon="8.249776221515598"><ele>275.0</ele><time>2026-04-03T13:03:58.718Z</time></trkpt><trkpt lat="45.590403853184185" lon="8.249781684343311"><ele>276.25</ele><time>2026-04-03T13:03:59.718Z</time></trkpt><trkpt lat="45.59052936132189" lon="8.249794628919185"><ele>277.5</ele><time>2026-04-03T13:04:00.718Z</time></trkpt><trkpt lat="45.590645228235054" lon="8.249812876406372"><ele>278.75</ele><time>2026-04-03T13:04:01.718Z</time></trkpt><trkpt lat="45.590778455007076" lon="8.24984245876504"><ele>280.0</ele><time>2026-04-03T13:04:02.718Z</time></trkpt><trkpt lat="45.590921268972984" lon="8.24987829580056"><ele>280.0</ele><time>2026-04-03T13:04:03.718Z</time></trkpt><trkpt lat="45.591071576927845" lon="8.24991805140011"><ele>280.0</ele><time>2026-04-03T13:04:04.718Z</time></trkpt><trkpt lat="45.591214661806404" lon="8.24995520325086"><ele>280.0</ele><time>2026-04-03T13:04:05.718Z</time></trkpt><trkpt lat="45.59135063333024" lon="8.24998626222211"><ele>280.0</ele><time>2026-04-03T13:04:06.718Z</time></trkpt><trkpt lat="45.59147747367515" lon="8.250030823470654"><ele>280.0</ele><time>2026-04-03T13:04:07.718Z</time></trkpt><trkpt lat="45.591589640301066" lon="8.250083831321149"><ele>280.0</ele><time>2026-04-03T13:04:08.718Z</time></trkpt><trkpt lat="45.591674322323186" lon="8.250144665981155"><ele>280.0</ele><time>2026-04-03T13:04:09.718Z</time></trkpt><trkpt lat="45.59174958180284" lon="8.250211820268662"><ele>280.0</ele><time>2026-04-03T13:04:10.718Z</time></trkpt><trkpt lat="45.59182109349655" lon="8.250275581616838"><ele>280.0</ele><time>2026-04-03T13:04:11.718Z</time></trkpt><trkpt lat="45.59189807407265" lon="8.250336706964005"><ele>280.0</ele><time>2026-04-03T13:04:12.718Z</time></trkpt><trkpt lat="45.59198878816635" lon="8.250394162064337"><ele>280.0</ele><time>2026-04-03T13:04:13.718Z</time></trkpt><trkpt lat="45.592092628040156" lon="8.250445714426103"><ele>280.0</ele><time>2026-04-03T13:04:14.718Z</time></trkpt><trkpt lat="45.59220853835315" lon="8.25047136024825"><ele>280.0</ele><time>2026-04-03T13:04:15.718Z</time></trkpt><trkpt lat="45.592331420847835" lon="8.250466569720576"><ele>280.0</ele><time>2026-04-03T13:04:16.718Z</time></trkpt><trkpt lat="45.59246452438035" lon="8.25044234204635"><ele>280.3333333333333</ele><time>2026-04-03T13:04:17.718Z</time></trkpt><trkpt lat="45.59260675691099" lon="8.250415089016402"><ele>280.6666666666667</ele><time>2026-04-03T13:04:18.718Z</time></trkpt><trkpt lat="45.592756472862575" lon="8.250387238356954"><ele>281.0</ele><time>2026-04-03T13:04:19.718Z</time></trkpt><trkpt lat="45.59291200277865" lon="8.250357458948468"><ele>282.0</ele><time>2026-04-03T13:04:20.718Z</time></trkpt><trkpt lat="45.59307027944093" lon="8.250326007117257"><ele>283.0</ele><time>2026-04-03T13:04:21.718Z</time></trkpt><trkpt lat="45.59323008271126" lon="8.250294435009884"><ele>284.0</ele><time>2026-04-03T13:04:22.718Z</time></trkpt><trkpt lat="45.593390435505306" lon="8.250263834086097"><ele>284.0</ele><time>2026-04-03T13:04:23.718Z</time></trkpt><trkpt lat="45.59355145930466" lon="8.250228913777882"><ele>284.0</ele><time>2026-04-03T13:04:24.718Z</time></trkpt><trkpt lat="45.5937124770418" lon="8.250189360419668"><ele>284.0</ele><time>2026-04-03T13:04:25.718Z</time></trkpt><trkpt lat="45.593867222352685" lon="8.250154138001085"><ele>284.0</ele><time>2026-04-03T13:04:26.718Z</time></trkpt><trkpt lat="45.59400672019052" lon="8.250119112042968"><ele>284.0</ele><time>2026-04-03T13:04:27.718Z</time></trkpt><trkpt lat="45.59413211133845" lon="8.25007820970813"><ele>284.0</ele><time>2026-04-03T13:04:28.718Z</time></trkpt><trkpt lat="45.59423613451802" lon="8.250053305912333"><ele>284.0</ele><time>2026-04-03T13:04:29.718Z</time></trkpt><trkpt lat="45.594322673250105" lon="8.250042474688211"><ele>284.0</ele><time>2026-04-03T13:04:30.718Z</time></trkpt><trkpt lat="45.59440396006047" lon="8.250047011451768"><ele>284.0</ele><time>2026-04-03T13:04:31.718Z</time></trkpt><trkpt lat="45.59447383489376" lon="8.250009007020962"><ele>284.0</ele><time>2026-04-03T13:04:32.718Z</time></trkpt><trkpt lat="45.59454492232959" lon="8.250050410931296"><ele>284.0</ele><time>2026-04-03T13:04:33.717Z</time></trkpt><trkpt lat="45.59460409957417" lon="8.249951269340341"><ele>284.0</ele><time>2026-04-03T13:04:34.717Z</time></trkpt><trkpt lat="45.59463323100706" lon="8.249819820343502"><ele>284.0</ele><time>2026-04-03T13:04:35.717Z</time></trkpt><trkpt lat="45.59470385953119" lon="8.249716912774419"><ele>283.75</ele><time>2026-04-03T13:04:36.717Z</time></trkpt><trkpt lat="45.5947957811215" lon="8.249622877987074"><ele>283.5</ele><time>2026-04-03T13:04:37.717Z</time></trkpt><trkpt lat="45.59489673121517" lon="8.249533809550424"><ele>283.25</ele><time>2026-04-03T13:04:38.717Z</time></trkpt><trkpt lat="45.59500316242824" lon="8.249458872088393"><ele>283.0</ele><time>2026-04-03T13:04:39.717Z</time></trkpt><trkpt lat="45.59511503245884" lon="8.249380809251063"><ele>283.0</ele><time>2026-04-03T13:04:40.717Z</time></trkpt><trkpt lat="45.59524010130672" lon="8.249296787791756"><ele>283.0</ele><time>2026-04-03T13:04:41.717Z</time></trkpt><trkpt lat="45.59536875122008" lon="8.249210103484403"><ele>283.0</ele><time>2026-04-03T13:04:42.717Z</time></trkpt><trkpt lat="45.595495160717704" lon="8.249149608565938"><ele>283.0</ele><time>2026-04-03T13:04:43.717Z</time></trkpt><trkpt lat="45.59561596720075" lon="8.249077284753252"><ele>283.75</ele><time>2026-04-03T13:04:44.717Z</time></trkpt><trkpt lat="45.59574384352684" lon="8.248998568554429"><ele>284.5</ele><time>2026-04-03T13:04:45.717Z</time></trkpt><trkpt lat="45.59587112133304" lon="8.248901212587919"><ele>285.25</ele><time>2026-04-03T13:04:46.717Z</time></trkpt><trkpt lat="45.596002015253966" lon="8.2488423131326"><ele>286.0</ele><time>2026-04-03T13:04:47.717Z</time></trkpt><trkpt lat="45.59612469746379" lon="8.248783984981348"><ele>286.75</ele><time>2026-04-03T13:04:48.717Z</time></trkpt><trkpt lat="45.596249407673724" lon="8.248761255217"><ele>287.5</ele><time>2026-04-03T13:04:49.717Z</time></trkpt><trkpt lat="45.59637972061789" lon="8.24877958485518"><ele>288.25</ele><time>2026-04-03T13:04:50.717Z</time></trkpt><trkpt lat="45.596512906007234" lon="8.248821723305278"><ele>289.0</ele><time>2026-04-03T13:04:51.717Z</time></trkpt><trkpt lat="45.596637193788425" lon="8.248864958923951"><ele>289.0</ele><time>2026-04-03T13:04:52.717Z</time></trkpt><trkpt lat="45.596749141355346" lon="8.248908456282082"><ele>289.0</ele><time>2026-04-03T13:04:53.717Z</time></trkpt><trkpt lat="45.596836599388936" lon="8.248931494659704"><ele>289.0</ele><time>2026-04-03T13:04:54.717Z</time></trkpt><trkpt lat="45.59690409011395" lon="8.248954502791609"><ele>289.0</ele><time>2026-04-03T13:04:55.717Z</time></trkpt><trkpt lat="45.596985731868756" lon="8.248907842375022"><ele>289.0</ele><time>2026-04-03T13:04:56.717Z</time></trkpt><trkpt lat="45.597028158384184" lon="8.248791582589275"><ele>289.5</ele><time>2026-04-03T13:04:57.717Z</time></trkpt><trkpt lat="45.59700855076096" lon="8.248645428517618"><ele>290.0</ele><time>2026-04-03T13:04:58.717Z</time></trkpt><trkpt lat="45.59701288640911" lon="8.248475668915125"><ele>290.5</ele><time>2026-04-03T13:04:59.717Z</time></trkpt><trkpt lat="45.59705267725843" lon="8.248289402663525"><ele>291.0</ele><time>2026-04-03T13:05:00.717Z</time></trkpt><trkpt lat="45.597128316795406" lon="8.248129956765595"><ele>290.3333333333333</ele><time>2026-04-03T13:05:01.717Z</time></trkpt><trkpt lat="45.5972338785035" lon="8.248012138515888"><ele>289.66666666666663</ele><time>2026-04-03T13:05:02.717Z</time></trkpt><trkpt lat="45.597380830417954" lon="8.247939678576726"><ele>289.0</ele><time>2026-04-03T13:05:03.717Z</time></trkpt><trkpt lat="45.5975717535941" lon="8.247898092958744"><ele>289.0</ele><time>2026-04-03T13:05:04.717Z</time></trkpt><trkpt lat="45.59774735414666" lon="8.247860916054044"><ele>289.0</ele><time>2026-04-03T13:05:05.717Z</time></trkpt><trkpt lat="45.59790758006242" lon="8.247824086431695"><ele>289.0</ele><time>2026-04-03T13:05:06.717Z</time></trkpt><trkpt lat="45.59804989233686" lon="8.247757839059796"><ele>289.5</ele><time>2026-04-03T13:05:07.717Z</time></trkpt><trkpt lat="45.598165992846084" lon="8.24765779840071"><ele>290.0</ele><time>2026-04-03T13:05:08.717Z</time></trkpt><trkpt lat="45.59828259824015" lon="8.247612951943438"><ele>290.5</ele><time>2026-04-03T13:05:09.717Z</time></trkpt><trkpt lat="45.598335367700486" lon="8.247351923764468"><ele>291.0</ele><time>2026-04-03T13:05:10.717Z</time></trkpt><trkpt lat="45.598422505025034" lon="8.247175138872958"><ele>291.0</ele><time>2026-04-03T13:05:11.717Z</time></trkpt><trkpt lat="45.598517874227454" lon="8.247002567995612"><ele>291.0</ele><time>2026-04-03T13:05:12.717Z</time></trkpt><trkpt lat="45.59860631443246" lon="8.246843190613315"><ele>291.0</ele><time>2026-04-03T13:05:13.717Z</time></trkpt><trkpt lat="45.59869322616856" lon="8.246702982123033"><ele>291.0</ele><time>2026-04-03T13:05:14.717Z</time></trkpt><trkpt lat="45.59878715753915" lon="8.246597283410583"><ele>291.0</ele><time>2026-04-03T13:05:15.717Z</time></trkpt><trkpt lat="45.59888314487699" lon="8.246531886341568"><ele>291.0</ele><time>2026-04-03T13:05:16.717Z</time></trkpt><trkpt lat="45.598979542425546" lon="8.24648572122883"><ele>291.0</ele><time>2026-04-03T13:05:17.717Z</time></trkpt><trkpt lat="45.59905495661917" lon="8.246419870398912"><ele>291.0</ele><time>2026-04-03T13:05:18.717Z</time></trkpt><trkpt lat="45.599100043364295" lon="8.24632264813097"><ele>291.0</ele><time>2026-04-03T13:05:19.717Z</time></trkpt><trkpt lat="45.599130575819046" lon="8.246193774156106"><ele>291.0</ele><time>2026-04-03T13:05:20.717Z</time></trkpt><trkpt lat="45.59918785970996" lon="8.246069224701511"><ele>291.0</ele><time>2026-04-03T13:05:21.717Z</time></trkpt><trkpt lat="45.59928761282208" lon="8.245972566193556"><ele>291.0</ele><time>2026-04-03T13:05:22.716Z</time></trkpt><trkpt lat="45.599418287090764" lon="8.245866960440702"><ele>291.0</ele><time>2026-04-03T13:05:23.716Z</time></trkpt><trkpt lat="45.59957117950994" lon="8.245751755885326"><ele>290.3333333333333</ele><time>2026-04-03T13:05:24.716Z</time></trkpt><trkpt lat="45.59974190987656" lon="8.245630340088761"><ele>289.66666666666663</ele><time>2026-04-03T13:05:25.716Z</time></trkpt><trkpt lat="45.59990365836912" lon="8.245520120122908"><ele>289.0</ele><time>2026-04-03T13:05:26.716Z</time></trkpt><trkpt lat="45.60006617210629" lon="8.245407390669412"><ele>289.0</ele><time>2026-04-03T13:05:27.716Z</time></trkpt><trkpt lat="45.60023597666759" lon="8.245286641105036"><ele>289.0</ele><time>2026-04-03T13:05:28.716Z</time></trkpt><trkpt lat="45.600411639092236" lon="8.245165140488037"><ele>289.0</ele><time>2026-04-03T13:05:29.716Z</time></trkpt><trkpt lat="45.60059051866846" lon="8.24503899529685"><ele>290.0</ele><time>2026-04-03T13:05:30.716Z</time></trkpt><trkpt lat="45.60076792747268" lon="8.244903840089128"><ele>291.0</ele><time>2026-04-03T13:05:31.716Z</time></trkpt><trkpt lat="45.60093040369161" lon="8.244763870895126"><ele>292.0</ele><time>2026-04-03T13:05:32.716Z</time></trkpt><trkpt lat="45.601089123681255" lon="8.244617136652206"><ele>294.3333333333333</ele><time>2026-04-03T13:05:33.716Z</time></trkpt><trkpt lat="45.60124945375798" lon="8.244478161824173"><ele>296.6666666666667</ele><time>2026-04-03T13:05:34.716Z</time></trkpt><trkpt lat="45.60141259164908" lon="8.244344225583209"><ele>299.0</ele><time>2026-04-03T13:05:35.716Z</time></trkpt><trkpt lat="45.601573666521745" lon="8.244217253940919"><ele>299.0</ele><time>2026-04-03T13:05:36.716Z</time></trkpt><trkpt lat="45.60173596948625" lon="8.244089775165072"><ele>299.0</ele><time>2026-04-03T13:05:37.716Z</time></trkpt><trkpt lat="45.60190307161253" lon="8.24396757539031"><ele>299.0</ele><time>2026-04-03T13:05:38.716Z</time></trkpt><trkpt lat="45.602074014776875" lon="8.24385075226365"><ele>300.0</ele><time>2026-04-03T13:05:39.716Z</time></trkpt><trkpt lat="45.60224786888407" lon="8.243733113445149"><ele>301.0</ele><time>2026-04-03T13:05:40.716Z</time></trkpt><trkpt lat="45.602424269170484" lon="8.243612069480415"><ele>302.0</ele><time>2026-04-03T13:05:41.716Z</time></trkpt><trkpt lat="45.602601379526575" lon="8.243490713407438"><ele>302.0</ele><time>2026-04-03T13:05:42.716Z</time></trkpt><trkpt lat="45.60277850070552" lon="8.243368418584259"><ele>302.0</ele><time>2026-04-03T13:05:43.716Z</time></trkpt><trkpt lat="45.60295467260359" lon="8.243257791201843"><ele>302.0</ele><time>2026-04-03T13:05:44.716Z</time></trkpt><trkpt lat="45.60312472734349" lon="8.243165092541723"><ele>301.33333333333337</ele><time>2026-04-03T13:05:45.716Z</time></trkpt><trkpt lat="45.603284648900946" lon="8.24307767081649"><ele>300.6666666666667</ele><time>2026-04-03T13:05:46.716Z</time></trkpt><trkpt lat="45.603439863171765" lon="8.242993062940887"><ele>300.0</ele><time>2026-04-03T13:05:47.716Z</time></trkpt><trkpt lat="45.60359333017992" lon="8.242919678896468"><ele>300.0</ele><time>2026-04-03T13:05:48.716Z</time></trkpt><trkpt lat="45.60373858434407" lon="8.242861994021766"><ele>300.0</ele><time>2026-04-03T13:05:49.716Z</time></trkpt><trkpt lat="45.60386813939422" lon="8.242799493904345"><ele>300.0</ele><time>2026-04-03T13:05:50.716Z</time></trkpt><trkpt lat="45.60398480804355" lon="8.242726719144084"><ele>300.0</ele><time>2026-04-03T13:05:51.716Z</time></trkpt><trkpt lat="45.604089241078285" lon="8.242603410751647"><ele>300.0</ele><time>2026-04-03T13:05:52.716Z</time></trkpt><trkpt lat="45.604198493778085" lon="8.242430403231888"><ele>300.0</ele><time>2026-04-03T13:05:53.716Z</time></trkpt><trkpt lat="45.60431745082847" lon="8.24223901821662"><ele>300.0</ele><time>2026-04-03T13:05:54.716Z</time></trkpt><trkpt lat="45.60444049231709" lon="8.242044303303846"><ele>299.6666666666667</ele><time>2026-04-03T13:05:55.716Z</time></trkpt><trkpt lat="45.604555527023386" lon="8.24186860059357"><ele>299.33333333333337</ele><time>2026-04-03T13:05:56.716Z</time></trkpt><trkpt lat="45.604662283301884" lon="8.241706229200656"><ele>299.0</ele><time>2026-04-03T13:05:57.718Z</time></trkpt><trkpt lat="45.60477115371503" lon="8.241571427613318"><ele>302.0</ele><time>2026-04-03T13:05:58.718Z</time></trkpt><trkpt lat="45.60484445748922" lon="8.241434048560867"><ele>305.0</ele><time>2026-04-03T13:05:59.718Z</time></trkpt><trkpt lat="45.60501420028203" lon="8.241436738585113"><ele>308.0</ele><time>2026-04-03T13:06:00.717Z</time></trkpt><trkpt lat="45.605180014522894" lon="8.241426477408838"><ele>307.6666666666667</ele><time>2026-04-03T13:06:01.718Z</time></trkpt><trkpt lat="45.60534769407227" lon="8.241418904605567"><ele>307.3333333333333</ele><time>2026-04-03T13:06:02.718Z</time></trkpt><trkpt lat="45.60550251085329" lon="8.241434739639379"><ele>307.0</ele><time>2026-04-03T13:06:03.718Z</time></trkpt><trkpt lat="45.60564713975507" lon="8.241519757603589"><ele>307.0</ele><time>2026-04-03T13:06:04.717Z</time></trkpt><trkpt lat="45.605799662335876" lon="8.241629268699885"><ele>307.0</ele><time>2026-04-03T13:06:05.717Z</time></trkpt><trkpt lat="45.60595169362229" lon="8.24173323902891"><ele>307.0</ele><time>2026-04-03T13:06:06.718Z</time></trkpt><trkpt lat="45.60608787295457" lon="8.241833677784077"><ele>309.0</ele><time>2026-04-03T13:06:07.718Z</time></trkpt><trkpt lat="45.606222084766586" lon="8.241895474426295"><ele>311.0</ele><time>2026-04-03T13:06:08.718Z</time></trkpt><trkpt lat="45.606371690810356" lon="8.241897920251004"><ele>313.0</ele><time>2026-04-03T13:06:09.717Z</time></trkpt><trkpt lat="45.60653729612064" lon="8.241857223089243"><ele>313.0</ele><time>2026-04-03T13:06:10.718Z</time></trkpt><trkpt lat="45.60671954575582" lon="8.241805730472318"><ele>313.0</ele><time>2026-04-03T13:06:11.718Z</time></trkpt><trkpt lat="45.60691204111224" lon="8.241788478707363"><ele>313.0</ele><time>2026-04-03T13:06:12.718Z</time></trkpt><trkpt lat="45.607098033355065" lon="8.241821269924865"><ele>315.3333333333333</ele><time>2026-04-03T13:06:13.718Z</time></trkpt><trkpt lat="45.60728175477615" lon="8.241892716939994"><ele>317.6666666666667</ele><time>2026-04-03T13:06:14.718Z</time></trkpt><trkpt lat="45.607469163230654" lon="8.241993847105494"><ele>320.0</ele><time>2026-04-03T13:06:15.718Z</time></trkpt><trkpt lat="45.6076666207216" lon="8.242103625193767"><ele>323.33333333333337</ele><time>2026-04-03T13:06:16.717Z</time></trkpt><trkpt lat="45.60785778443127" lon="8.242189005112694"><ele>326.6666666666667</ele><time>2026-04-03T13:06:17.717Z</time></trkpt><trkpt lat="45.60804235063225" lon="8.242239557843888"><ele>330.0</ele><time>2026-04-03T13:06:18.717Z</time></trkpt><trkpt lat="45.608208922419784" lon="8.242284761482274"><ele>322.6666666666667</ele><time>2026-04-03T13:06:19.717Z</time></trkpt><trkpt lat="45.60836858625615" lon="8.242370281687462"><ele>315.33333333333337</ele><time>2026-04-03T13:06:20.717Z</time></trkpt><trkpt lat="45.60853431458052" lon="8.242503624052292"><ele>308.0</ele><time>2026-04-03T13:06:21.717Z</time></trkpt><trkpt lat="45.60869616577643" lon="8.242671984397077"><ele>308.0</ele><time>2026-04-03T13:06:22.717Z</time></trkpt><trkpt lat="45.60886739548538" lon="8.24283061956314"><ele>308.0</ele><time>2026-04-03T13:06:23.717Z</time></trkpt><trkpt lat="45.60905689897373" lon="8.242951607030438"><ele>308.0</ele><time>2026-04-03T13:06:24.717Z</time></trkpt><trkpt lat="45.60924012724459" lon="8.243046330290122"><ele>308.0</ele><time>2026-04-03T13:06:25.717Z</time></trkpt><trkpt lat="45.609415939637" lon="8.24312400690362"><ele>308.0</ele><time>2026-04-03T13:06:26.717Z</time></trkpt><trkpt lat="45.60958837016904" lon="8.243190652465263"><ele>308.0</ele><time>2026-04-03T13:06:27.717Z</time></trkpt><trkpt lat="45.609760774099506" lon="8.243230608986513"><ele>308.0</ele><time>2026-04-03T13:06:28.717Z</time></trkpt><trkpt lat="45.60992602523305" lon="8.243235028934498"><ele>308.0</ele><time>2026-04-03T13:06:29.717Z</time></trkpt><trkpt lat="45.610081828839974" lon="8.243241881684888"><ele>308.0</ele><time>2026-04-03T13:06:30.717Z</time></trkpt><trkpt lat="45.61023674321321" lon="8.243266962992285"><ele>308.25</ele><time>2026-04-03T13:06:31.717Z</time></trkpt><trkpt lat="45.61037760175928" lon="8.243293447928359"><ele>308.5</ele><time>2026-04-03T13:06:32.717Z</time></trkpt><trkpt lat="45.61050887717389" lon="8.24332980713449"><ele>308.75</ele><time>2026-04-03T13:06:33.717Z</time></trkpt><trkpt lat="45.61064534723081" lon="8.243390979860271"><ele>309.0</ele><time>2026-04-03T13:06:34.717Z</time></trkpt><trkpt lat="45.61078359760718" lon="8.24349065014194"><ele>309.0</ele><time>2026-04-03T13:06:35.717Z</time></trkpt><trkpt lat="45.610935374194455" lon="8.243591523455112"><ele>309.0</ele><time>2026-04-03T13:06:36.717Z</time></trkpt><trkpt lat="45.611103341177554" lon="8.243652787326617"><ele>309.0</ele><time>2026-04-03T13:06:37.717Z</time></trkpt><trkpt lat="45.61128074370252" lon="8.243702958635206"><ele>309.6666666666667</ele><time>2026-04-03T13:06:38.717Z</time></trkpt><trkpt lat="45.611468682414284" lon="8.243761925115448"><ele>310.33333333333337</ele><time>2026-04-03T13:06:39.717Z</time></trkpt><trkpt lat="45.61165761471726" lon="8.243820404787222"><ele>311.0</ele><time>2026-04-03T13:06:40.717Z</time></trkpt><trkpt lat="45.61183887909754" lon="8.243867752923137"><ele>313.33333333333337</ele><time>2026-04-03T13:06:41.717Z</time></trkpt><trkpt lat="45.61200729570413" lon="8.243906694395116"><ele>315.6666666666667</ele><time>2026-04-03T13:06:42.717Z</time></trkpt><trkpt lat="45.61216717237832" lon="8.243950306108959"><ele>318.0</ele><time>2026-04-03T13:06:43.717Z</time></trkpt><trkpt lat="45.6124784406665" lon="8.244074424206351"><ele>318.0</ele><time>2026-04-03T13:06:45.717Z</time></trkpt><trkpt lat="45.61262699309333" lon="8.244169836415566"><ele>318.0</ele><time>2026-04-03T13:06:46.717Z</time></trkpt><trkpt lat="45.61277276300928" lon="8.244284677770441"><ele>318.0</ele><time>2026-04-03T13:06:47.717Z</time></trkpt><trkpt lat="45.61291863681279" lon="8.244402034181146"><ele>322.6666666666667</ele><time>2026-04-03T13:06:48.717Z</time></trkpt><trkpt lat="45.6130719767467" lon="8.244515333995711"><ele>327.33333333333337</ele><time>2026-04-03T13:06:49.717Z</time></trkpt><trkpt lat="45.613231129977976" lon="8.244621340917682"><ele>332.0</ele><time>2026-04-03T13:06:50.717Z</time></trkpt><trkpt lat="45.61338446837248" lon="8.244735637542298"><ele>332.0</ele><time>2026-04-03T13:06:51.717Z</time></trkpt><trkpt lat="45.613536454825095" lon="8.244846621203946"><ele>332.0</ele><time>2026-04-03T13:06:52.717Z</time></trkpt><trkpt lat="45.61369499222168" lon="8.244945264513056"><ele>332.0</ele><time>2026-04-03T13:06:53.717Z</time></trkpt><trkpt lat="45.61385763512475" lon="8.24502496961866"><ele>332.0</ele><time>2026-04-03T13:06:54.717Z</time></trkpt><trkpt lat="45.61402690085472" lon="8.245097303452663"><ele>332.0</ele><time>2026-04-03T13:06:55.717Z</time></trkpt><trkpt lat="45.614194074762636" lon="8.245191098158678"><ele>332.0</ele><time>2026-04-03T13:06:56.717Z</time></trkpt><trkpt lat="45.61434728973844" lon="8.245327144316956"><ele>330.6666666666667</ele><time>2026-04-03T13:06:57.717Z</time></trkpt><trkpt lat="45.61448892675801" lon="8.245484802398352"><ele>329.3333333333333</ele><time>2026-04-03T13:06:58.717Z</time></trkpt><trkpt lat="45.61461423272675" lon="8.245626731669986"><ele>328.0</ele><time>2026-04-03T13:06:59.717Z</time></trkpt><trkpt lat="45.61473133217749" lon="8.245750539626904"><ele>328.0</ele><time>2026-04-03T13:07:00.717Z</time></trkpt><trkpt lat="45.61485723097915" lon="8.245857071859295"><ele>328.0</ele><time>2026-04-03T13:07:01.717Z</time></trkpt><trkpt lat="45.614995725748315" lon="8.245943738491137"><ele>328.0</ele><time>2026-04-03T13:07:02.717Z</time></trkpt><trkpt lat="45.61514035888372" lon="8.246001252434377"><ele>328.0</ele><time>2026-04-03T13:07:03.717Z</time></trkpt><trkpt lat="45.61529428513926" lon="8.246026422593852"><ele>328.0</ele><time>2026-04-03T13:07:04.717Z</time></trkpt><trkpt lat="45.61545870109758" lon="8.246030712895447"><ele>328.0</ele><time>2026-04-03T13:07:05.716Z</time></trkpt><trkpt lat="45.61562991205773" lon="8.246019055228917"><ele>328.0</ele><time>2026-04-03T13:07:06.716Z</time></trkpt><trkpt lat="45.61580129015771" lon="8.24598398885919"><ele>328.0</ele><time>2026-04-03T13:07:07.716Z</time></trkpt><trkpt lat="45.61596590176089" lon="8.245919959162407"><ele>328.0</ele><time>2026-04-03T13:07:08.716Z</time></trkpt><trkpt lat="45.61611456170768" lon="8.245844570662966"><ele>328.0</ele><time>2026-04-03T13:07:09.716Z</time></trkpt><trkpt lat="45.61626143240708" lon="8.245750446527499"><ele>326.66666666666663</ele><time>2026-04-03T13:07:10.716Z</time></trkpt><trkpt lat="45.61638371137697" lon="8.24563320647064"><ele>325.3333333333333</ele><time>2026-04-03T13:07:11.716Z</time></trkpt><trkpt lat="45.61649421593344" lon="8.245472688448077"><ele>324.0</ele><time>2026-04-03T13:07:12.716Z</time></trkpt><trkpt lat="45.616596001068366" lon="8.245287454763186"><ele>326.25</ele><time>2026-04-03T13:07:13.716Z</time></trkpt><trkpt lat="45.616674552795494" lon="8.245127215293989"><ele>328.5</ele><time>2026-04-03T13:07:14.716Z</time></trkpt><trkpt lat="45.61671726840261" lon="8.244970302394297"><ele>330.75</ele><time>2026-04-03T13:07:15.716Z</time></trkpt><trkpt lat="45.61671507094234" lon="8.244785227083884"><ele>333.0</ele><time>2026-04-03T13:07:16.716Z</time></trkpt><trkpt lat="45.616685827015864" lon="8.244564917207096"><ele>333.0</ele><time>2026-04-03T13:07:17.716Z</time></trkpt><trkpt lat="45.616660706650514" lon="8.244327378783199"><ele>333.0</ele><time>2026-04-03T13:07:18.716Z</time></trkpt><trkpt lat="45.61666273618825" lon="8.244079956735119"><ele>333.0</ele><time>2026-04-03T13:07:19.716Z</time></trkpt><trkpt lat="45.61669856487508" lon="8.243854829766281"><ele>331.0</ele><time>2026-04-03T13:07:20.716Z</time></trkpt><trkpt lat="45.616771280218" lon="8.243635183014904"><ele>329.0</ele><time>2026-04-03T13:07:21.716Z</time></trkpt><trkpt lat="45.616860259917416" lon="8.243408811012898"><ele>327.0</ele><time>2026-04-03T13:07:22.716Z</time></trkpt><trkpt lat="45.61694639830844" lon="8.243185684006553"><ele>327.6666666666667</ele><time>2026-04-03T13:07:23.716Z</time></trkpt><trkpt lat="45.617038438386814" lon="8.242985732792087"><ele>328.33333333333337</ele><time>2026-04-03T13:07:24.716Z</time></trkpt><trkpt lat="45.61714998897422" lon="8.242811764138974"><ele>329.0</ele><time>2026-04-03T13:07:25.716Z</time></trkpt><trkpt lat="45.61728921776558" lon="8.242657591736245"><ele>329.0</ele><time>2026-04-03T13:07:26.716Z</time></trkpt><trkpt lat="45.61744627488071" lon="8.24251846535627"><ele>329.0</ele><time>2026-04-03T13:07:27.716Z</time></trkpt><trkpt lat="45.617592063818336" lon="8.242413828391179"><ele>329.0</ele><time>2026-04-03T13:07:28.716Z</time></trkpt><trkpt lat="45.617719823746455" lon="8.242323608982757"><ele>329.0</ele><time>2026-04-03T13:07:29.716Z</time></trkpt><trkpt lat="45.61781397221676" lon="8.242193845924955"><ele>329.0</ele><time>2026-04-03T13:07:30.716Z</time></trkpt><trkpt lat="45.61787130458883" lon="8.242025059947464"><ele>329.0</ele><time>2026-04-03T13:07:31.716Z</time></trkpt><trkpt lat="45.61789554395999" lon="8.241818343625242"><ele>329.0</ele><time>2026-04-03T13:07:32.716Z</time></trkpt><trkpt lat="45.6179140541565" lon="8.24159848880581"><ele>329.0</ele><time>2026-04-03T13:07:33.716Z</time></trkpt><trkpt lat="45.61792857889448" lon="8.241364504614976"><ele>329.0</ele><time>2026-04-03T13:07:34.716Z</time></trkpt><trkpt lat="45.61797671797354" lon="8.2411326852822"><ele>329.0</ele><time>2026-04-03T13:07:35.716Z</time></trkpt><trkpt lat="45.618056862868386" lon="8.240912981302545"><ele>329.0</ele><time>2026-04-03T13:07:36.716Z</time></trkpt><trkpt lat="45.618151482903016" lon="8.240704491734354"><ele>329.0</ele><time>2026-04-03T13:07:37.716Z</time></trkpt><trkpt lat="45.61824759430073" lon="8.24053902583841"><ele>329.0</ele><time>2026-04-03T13:07:38.716Z</time></trkpt><trkpt lat="45.61836179528354" lon="8.240420029741147"><ele>329.33333333333337</ele><time>2026-04-03T13:07:39.716Z</time></trkpt><trkpt lat="45.618499720900104" lon="8.240347186923337"><ele>329.6666666666667</ele><time>2026-04-03T13:07:40.716Z</time></trkpt><trkpt lat="45.6186609636633" lon="8.240303859232704"><ele>330.0</ele><time>2026-04-03T13:07:41.716Z</time></trkpt><trkpt lat="45.61883628420045" lon="8.240268413361472"><ele>330.6666666666667</ele><time>2026-04-03T13:07:42.716Z</time></trkpt><trkpt lat="45.61902338468767" lon="8.240228121546767"><ele>331.33333333333337</ele><time>2026-04-03T13:07:43.716Z</time></trkpt><trkpt lat="45.6192085173051" lon="8.240168974293066"><ele>332.0</ele><time>2026-04-03T13:07:44.716Z</time></trkpt><trkpt lat="45.61937581906317" lon="8.240090669157096"><ele>331.6666666666667</ele><time>2026-04-03T13:07:45.716Z</time></trkpt><trkpt lat="45.619536821957496" lon="8.240046324041632"><ele>331.3333333333333</ele><time>2026-04-03T13:07:46.716Z</time></trkpt><trkpt lat="45.61969162424708" lon="8.240049907825364"><ele>331.0</ele><time>2026-04-03T13:07:47.716Z</time></trkpt><trkpt lat="45.61985882299606" lon="8.240097008759575"><ele>331.0</ele><time>2026-04-03T13:07:48.716Z</time></trkpt><trkpt lat="45.62003798261146" lon="8.240155938748956"><ele>331.0</ele><time>2026-04-03T13:07:49.716Z</time></trkpt><trkpt lat="45.62022380109599" lon="8.240217801757783"><ele>331.0</ele><time>2026-04-03T13:07:50.716Z</time></trkpt><trkpt lat="45.62041613930342" lon="8.240278056874084"><ele>333.3333333333333</ele><time>2026-04-03T13:07:51.716Z</time></trkpt><trkpt lat="45.62061447484512" lon="8.24033861214905"><ele>335.6666666666667</ele><time>2026-04-03T13:07:52.716Z</time></trkpt><trkpt lat="45.62081348978791" lon="8.240394708795302"><ele>338.0</ele><time>2026-04-03T13:07:53.715Z</time></trkpt><trkpt lat="45.62100798908966" lon="8.24045461142647"><ele>341.6666666666667</ele><time>2026-04-03T13:07:54.715Z</time></trkpt><trkpt lat="45.621197134250785" lon="8.240512405867133"><ele>345.3333333333333</ele><time>2026-04-03T13:07:55.715Z</time></trkpt><trkpt lat="45.621369974426194" lon="8.240585980271861"><ele>349.0</ele><time>2026-04-03T13:07:56.715Z</time></trkpt><trkpt lat="45.62153007284348" lon="8.240685659621077"><ele>349.66666666666663</ele><time>2026-04-03T13:07:57.715Z</time></trkpt><trkpt lat="45.62168139786744" lon="8.240786608144807"><ele>350.3333333333333</ele><time>2026-04-03T13:07:58.715Z</time></trkpt><trkpt lat="45.621828486564695" lon="8.240867391144208"><ele>351.0</ele><time>2026-04-03T13:07:59.715Z</time></trkpt><trkpt lat="45.62195905160927" lon="8.240918001530956"><ele>351.25</ele><time>2026-04-03T13:08:00.715Z</time></trkpt><trkpt lat="45.62210516584802" lon="8.240920017472757"><ele>351.5</ele><time>2026-04-03T13:08:01.715Z</time></trkpt><trkpt lat="45.62223979248913" lon="8.240895619528622"><ele>351.75</ele><time>2026-04-03T13:08:02.715Z</time></trkpt><trkpt lat="45.62237111556407" lon="8.240867873197141"><ele>352.0</ele><time>2026-04-03T13:08:03.717Z</time></trkpt><trkpt lat="45.622502263582035" lon="8.240807113142319"><ele>352.0</ele><time>2026-04-03T13:08:04.716Z</time></trkpt><trkpt lat="45.6226362799795" lon="8.240719056452338"><ele>352.0</ele><time>2026-04-03T13:08:05.716Z</time></trkpt><trkpt lat="45.62278441622688" lon="8.240624504400413"><ele>352.0</ele><time>2026-04-03T13:08:06.716Z</time></trkpt><trkpt lat="45.622941511750476" lon="8.2405333411582"><ele>351.66666666666663</ele><time>2026-04-03T13:08:07.716Z</time></trkpt><trkpt lat="45.62309655424702" lon="8.24044106323593"><ele>351.3333333333333</ele><time>2026-04-03T13:08:08.716Z</time></trkpt><trkpt lat="45.623252906486556" lon="8.240349685525548"><ele>351.0</ele><time>2026-04-03T13:08:09.716Z</time></trkpt><trkpt lat="45.62340926274649" lon="8.240265626397205"><ele>351.0</ele><time>2026-04-03T13:08:10.716Z</time></trkpt><trkpt lat="45.62355530610363" lon="8.24019314547285"><ele>351.0</ele><time>2026-04-03T13:08:11.716Z</time></trkpt><trkpt lat="45.62368896450209" lon="8.240141425973757"><ele>351.0</ele><time>2026-04-03T13:08:12.716Z</time></trkpt><trkpt lat="45.623810635460025" lon="8.240113666735574"><ele>351.0</ele><time>2026-04-03T13:08:13.716Z</time></trkpt><trkpt lat="45.623925979234414" lon="8.240089721003143"><ele>350.6</ele><time>2026-04-03T13:08:14.716Z</time></trkpt><trkpt lat="45.62402865259871" lon="8.240048085681954"><ele>350.20000000000005</ele><time>2026-04-03T13:08:15.716Z</time></trkpt><trkpt lat="45.62411756694061" lon="8.239986554325997"><ele>349.79999999999995</ele><time>2026-04-03T13:08:16.716Z</time></trkpt><trkpt lat="45.624194402666475" lon="8.239894205564982"><ele>349.4</ele><time>2026-04-03T13:08:17.716Z</time></trkpt><trkpt lat="45.624263682747745" lon="8.239773379777656"><ele>349.0</ele><time>2026-04-03T13:08:18.716Z</time></trkpt><trkpt lat="45.62431687258487" lon="8.239642276884743"><ele>351.0</ele><time>2026-04-03T13:08:19.716Z</time></trkpt><trkpt lat="45.624356696984705" lon="8.23950791206472"><ele>353.0</ele><time>2026-04-03T13:08:20.716Z</time></trkpt><trkpt lat="45.62438610344735" lon="8.239387096079655"><ele>355.0</ele><time>2026-04-03T13:08:21.716Z</time></trkpt><trkpt lat="45.62439199617636" lon="8.239263831769557"><ele>357.0</ele><time>2026-04-03T13:08:22.716Z</time></trkpt><trkpt lat="45.62437820730142" lon="8.239128592985029"><ele>359.0</ele><time>2026-04-03T13:08:23.716Z</time></trkpt><trkpt lat="45.624353534564285" lon="8.23898708594388"><ele>358.6</ele><time>2026-04-03T13:08:24.716Z</time></trkpt><trkpt lat="45.62430213259136" lon="8.238848676013653"><ele>358.2</ele><time>2026-04-03T13:08:25.716Z</time></trkpt><trkpt lat="45.62423839550848" lon="8.238708348046073"><ele>357.8</ele><time>2026-04-03T13:08:26.716Z</time></trkpt><trkpt lat="45.62417690182653" lon="8.238569215502272"><ele>357.40000000000003</ele><time>2026-04-03T13:08:27.716Z</time></trkpt><trkpt lat="45.6241329210379" lon="8.238430906477005"><ele>357.0</ele><time>2026-04-03T13:08:28.716Z</time></trkpt><trkpt lat="45.624109768963116" lon="8.238292374200963"><ele>357.0</ele><time>2026-04-03T13:08:29.716Z</time></trkpt><trkpt lat="45.624119337202565" lon="8.238140284347264"><ele>357.0</ele><time>2026-04-03T13:08:30.716Z</time></trkpt><trkpt lat="45.624151048885714" lon="8.237986654714204"><ele>357.0</ele><time>2026-04-03T13:08:31.716Z</time></trkpt><trkpt lat="45.62419699068227" lon="8.237845202357338"><ele>357.0</ele><time>2026-04-03T13:08:32.716Z</time></trkpt><trkpt lat="45.62426326435799" lon="8.23773606543766"><ele>357.0</ele><time>2026-04-03T13:08:33.716Z</time></trkpt><trkpt lat="45.62435282492165" lon="8.237645432968382"><ele>357.75</ele><time>2026-04-03T13:08:34.716Z</time></trkpt><trkpt lat="45.62446387513417" lon="8.23756316041623"><ele>358.5</ele><time>2026-04-03T13:08:35.716Z</time></trkpt><trkpt lat="45.624581166353096" lon="8.237481344836208"><ele>359.25</ele><time>2026-04-03T13:08:36.716Z</time></trkpt><trkpt lat="45.62469802463823" lon="8.237408250698147"><ele>360.0</ele><time>2026-04-03T13:08:37.716Z</time></trkpt><trkpt lat="45.62481170524391" lon="8.237337394678967"><ele>360.2</ele><time>2026-04-03T13:08:38.716Z</time></trkpt><trkpt lat="45.62491852299189" lon="8.237267768107108"><ele>360.4</ele><time>2026-04-03T13:08:39.716Z</time></trkpt><trkpt lat="45.625022431155934" lon="8.23720147471862"><ele>360.6</ele><time>2026-04-03T13:08:40.716Z</time></trkpt><trkpt lat="45.62512421174791" lon="8.23713853756838"><ele>360.8</ele><time>2026-04-03T13:08:41.715Z</time></trkpt><trkpt lat="45.62522343176243" lon="8.237089329734669"><ele>361.0</ele><time>2026-04-03T13:08:42.715Z</time></trkpt><trkpt lat="45.62532442166697" lon="8.23706288984324"><ele>361.0</ele><time>2026-04-03T13:08:43.715Z</time></trkpt><trkpt lat="45.62543047433561" lon="8.237054660199302"><ele>361.0</ele><time>2026-04-03T13:08:44.715Z</time></trkpt><trkpt lat="45.625544714767024" lon="8.237057394003063"><ele>361.0</ele><time>2026-04-03T13:08:45.715Z</time></trkpt><trkpt lat="45.62566182708016" lon="8.237051329232914"><ele>361.0</ele><time>2026-04-03T13:08:46.715Z</time></trkpt><trkpt lat="45.62578182368241" lon="8.237031627270666"><ele>361.0</ele><time>2026-04-03T13:08:47.715Z</time></trkpt><trkpt lat="45.62590495269672" lon="8.237002641038826"><ele>361.0</ele><time>2026-04-03T13:08:48.715Z</time></trkpt><trkpt lat="45.62603956313916" lon="8.236957909658171"><ele>361.0</ele><time>2026-04-03T13:08:49.715Z</time></trkpt><trkpt lat="45.62619136250639" lon="8.23688633939188"><ele>361.0</ele><time>2026-04-03T13:08:50.715Z</time></trkpt><trkpt lat="45.62634967302705" lon="8.236812124777774"><ele>360.0</ele><time>2026-04-03T13:08:51.715Z</time></trkpt><trkpt lat="45.62651855049047" lon="8.236726056769644"><ele>359.0</ele><time>2026-04-03T13:08:52.715Z</time></trkpt><trkpt lat="45.62671299663507" lon="8.23662409821779"><ele>358.0</ele><time>2026-04-03T13:08:53.715Z</time></trkpt><trkpt lat="45.62689414317085" lon="8.236529187054"><ele>358.3333333333333</ele><time>2026-04-03T13:08:54.715Z</time></trkpt><trkpt lat="45.627064326491" lon="8.23643959581745"><ele>358.6666666666667</ele><time>2026-04-03T13:08:55.715Z</time></trkpt><trkpt lat="45.62723033784591" lon="8.236360610331333"><ele>359.0</ele><time>2026-04-03T13:08:56.715Z</time></trkpt><trkpt lat="45.627389994197614" lon="8.236281868862415"><ele>359.0</ele><time>2026-04-03T13:08:57.715Z</time></trkpt><trkpt lat="45.62753906997868" lon="8.236207609540278"><ele>359.0</ele><time>2026-04-03T13:08:58.715Z</time></trkpt><trkpt lat="45.62767676450947" lon="8.236139979892801"><ele>359.0</ele><time>2026-04-03T13:08:59.715Z</time></trkpt><trkpt lat="45.62780385245245" lon="8.236078048437347"><ele>359.0</ele><time>2026-04-03T13:09:00.715Z</time></trkpt><trkpt lat="45.627907855086974" lon="8.236030646908855"><ele>360.79999999999995</ele><time>2026-04-03T13:09:01.715Z</time></trkpt><trkpt lat="45.627996925404474" lon="8.236020487207718"><ele>362.59999999999997</ele><time>2026-04-03T13:09:02.715Z</time></trkpt><trkpt lat="45.628083923028974" lon="8.236050208093395"><ele>364.4</ele><time>2026-04-03T13:09:03.715Z</time></trkpt><trkpt lat="45.62818338000344" lon="8.236124998148032"><ele>366.2</ele><time>2026-04-03T13:09:04.715Z</time></trkpt><trkpt lat="45.62830482693896" lon="8.23620681893154"><ele>368.0</ele><time>2026-04-03T13:09:05.715Z</time></trkpt><trkpt lat="45.6284466212018" lon="8.236269979562977"><ele>368.0</ele><time>2026-04-03T13:09:06.715Z</time></trkpt><trkpt lat="45.62860073574191" lon="8.236281454904566"><ele>368.0</ele><time>2026-04-03T13:09:07.715Z</time></trkpt><trkpt lat="45.628767255995456" lon="8.23628034359591"><ele>368.0</ele><time>2026-04-03T13:09:08.715Z</time></trkpt><trkpt lat="45.628929921884186" lon="8.236287937473966"><ele>368.33333333333337</ele><time>2026-04-03T13:09:09.715Z</time></trkpt><trkpt lat="45.62910270390579" lon="8.236324120139878"><ele>368.6666666666667</ele><time>2026-04-03T13:09:10.715Z</time></trkpt><trkpt lat="45.6292756047565" lon="8.236349056448134"><ele>369.0</ele><time>2026-04-03T13:09:11.715Z</time></trkpt><trkpt lat="45.62944684501647" lon="8.236346687240777"><ele>371.3333333333333</ele><time>2026-04-03T13:09:12.715Z</time></trkpt><trkpt lat="45.629605173479725" lon="8.23634539155437"><ele>373.66666666666663</ele><time>2026-04-03T13:09:13.715Z</time></trkpt><trkpt lat="45.62976527471652" lon="8.236365517102467"><ele>376.0</ele><time>2026-04-03T13:09:14.715Z</time></trkpt><trkpt lat="45.629916853991006" lon="8.236395479266001"><ele>376.0</ele><time>2026-04-03T13:09:15.715Z</time></trkpt><trkpt lat="45.63005755880278" lon="8.23643427648973"><ele>376.0</ele><time>2026-04-03T13:09:16.715Z</time></trkpt><trkpt lat="45.630190823562344" lon="8.236473220002328"><ele>376.0</ele><time>2026-04-03T13:09:17.715Z</time></trkpt><trkpt lat="45.63031670956175" lon="8.236515399102082"><ele>376.0</ele><time>2026-04-03T13:09:18.715Z</time></trkpt><trkpt lat="45.63044148269378" lon="8.23656224029"><ele>374.75</ele><time>2026-04-03T13:09:19.715Z</time></trkpt><trkpt lat="45.63056985707994" lon="8.236630046810916"><ele>373.5</ele><time>2026-04-03T13:09:20.715Z</time></trkpt><trkpt lat="45.63069996683635" lon="8.236735604905327"><ele>372.25</ele><time>2026-04-03T13:09:21.715Z</time></trkpt><trkpt lat="45.63083123446806" lon="8.236860721478243"><ele>371.0</ele><time>2026-04-03T13:09:22.715Z</time></trkpt><trkpt lat="45.63096579823344" lon="8.236987793019846"><ele>371.0</ele><time>2026-04-03T13:09:23.715Z</time></trkpt><trkpt lat="45.63109934111984" lon="8.237114847645143"><ele>371.0</ele><time>2026-04-03T13:09:24.715Z</time></trkpt><trkpt lat="45.631231543740526" lon="8.23724142354988"><ele>371.0</ele><time>2026-04-03T13:09:25.715Z</time></trkpt><trkpt lat="45.63135441122771" lon="8.237356025567408"><ele>372.75</ele><time>2026-04-03T13:09:26.715Z</time></trkpt><trkpt lat="45.63147228573494" lon="8.23743052280853"><ele>374.5</ele><time>2026-04-03T13:09:27.715Z</time></trkpt><trkpt lat="45.63159094664555" lon="8.237454873178784"><ele>376.25</ele><time>2026-04-03T13:09:28.715Z</time></trkpt><trkpt lat="45.631721808366414" lon="8.237417192618054"><ele>378.0</ele><time>2026-04-03T13:09:29.715Z</time></trkpt><trkpt lat="45.63185644618732" lon="8.237329692438733"><ele>376.6666666666667</ele><time>2026-04-03T13:09:30.714Z</time></trkpt><trkpt lat="45.63199599387386" lon="8.23721663759948"><ele>375.33333333333337</ele><time>2026-04-03T13:09:31.714Z</time></trkpt><trkpt lat="45.63215244395592" lon="8.237105257564895"><ele>374.0</ele><time>2026-04-03T13:09:32.714Z</time></trkpt><trkpt lat="45.63231265265712" lon="8.236987486309273"><ele>374.0</ele><time>2026-04-03T13:09:33.714Z</time></trkpt><trkpt lat="45.63246145271219" lon="8.236895977487606"><ele>374.0</ele><time>2026-04-03T13:09:34.714Z</time></trkpt><trkpt lat="45.63260254310561" lon="8.236850163569354"><ele>374.0</ele><time>2026-04-03T13:09:35.714Z</time></trkpt><trkpt lat="45.632734576880544" lon="8.236845573519942"><ele>374.0</ele><time>2026-04-03T13:09:36.714Z</time></trkpt><trkpt lat="45.632859872063115" lon="8.236895170638151"><ele>376.6666666666667</ele><time>2026-04-03T13:09:37.714Z</time></trkpt><trkpt lat="45.63298903189499" lon="8.23700903396744"><ele>379.3333333333333</ele><time>2026-04-03T13:09:38.714Z</time></trkpt><trkpt lat="45.633124818123946" lon="8.23716769467291"><ele>382.0</ele><time>2026-04-03T13:09:39.714Z</time></trkpt><trkpt lat="45.63327311559599" lon="8.237337704612813"><ele>385.3333333333333</ele><time>2026-04-03T13:09:40.714Z</time></trkpt><trkpt lat="45.63343773720276" lon="8.237518137044395"><ele>388.66666666666663</ele><time>2026-04-03T13:09:41.714Z</time></trkpt><trkpt lat="45.63362690358766" lon="8.237709495249343"><ele>392.0</ele><time>2026-04-03T13:09:42.714Z</time></trkpt><trkpt lat="45.63383492461853" lon="8.237875504910637"><ele>393.0</ele><time>2026-04-03T13:09:43.714Z</time></trkpt><trkpt lat="45.63403778693525" lon="8.238037246744156"><ele>394.0</ele><time>2026-04-03T13:09:44.714Z</time></trkpt><trkpt lat="45.634209849271954" lon="8.238170394640054"><ele>395.0</ele><time>2026-04-03T13:09:45.715Z</time></trkpt><trkpt lat="45.63434363967404" lon="8.238278589496314"><ele>397.6</ele><time>2026-04-03T13:09:46.715Z</time></trkpt><trkpt lat="45.634446005420635" lon="8.238366380800251"><ele>400.2</ele><time>2026-04-03T13:09:47.715Z</time></trkpt><trkpt lat="45.634533284273104" lon="8.238435497557365"><ele>402.79999999999995</ele><time>2026-04-03T13:09:48.715Z</time></trkpt><trkpt lat="45.634616738106196" lon="8.238449667832064"><ele>405.4</ele><time>2026-04-03T13:09:49.715Z</time></trkpt><trkpt lat="45.63470159944944" lon="8.238402315471287"><ele>408.0</ele><time>2026-04-03T13:09:50.715Z</time></trkpt><trkpt lat="45.63476569127421" lon="8.23830709974502"><ele>408.0</ele><time>2026-04-03T13:09:51.715Z</time></trkpt><trkpt lat="45.63478986798274" lon="8.238198159709368"><ele>408.0</ele><time>2026-04-03T13:09:52.715Z</time></trkpt><trkpt lat="45.634764108282084" lon="8.238082345339281"><ele>408.0</ele><time>2026-04-03T13:09:53.715Z</time></trkpt><trkpt lat="45.63467608116064" lon="8.237974999334494"><ele>408.0</ele><time>2026-04-03T13:09:54.715Z</time></trkpt><trkpt lat="45.63454483912996" lon="8.237858218771482"><ele>408.0</ele><time>2026-04-03T13:09:55.715Z</time></trkpt><trkpt lat="45.63441779950831" lon="8.237735326889997"><ele>405.66666666666663</ele><time>2026-04-03T13:09:56.715Z</time></trkpt><trkpt lat="45.63431650503973" lon="8.237616598212778"><ele>403.3333333333333</ele><time>2026-04-03T13:09:57.715Z</time></trkpt><trkpt lat="45.6342219919683" lon="8.237433242045864"><ele>401.0</ele><time>2026-04-03T13:09:58.715Z</time></trkpt><trkpt lat="45.63413966235191" lon="8.237181753639643"><ele>401.0</ele><time>2026-04-03T13:09:59.715Z</time></trkpt><trkpt lat="45.634051165655016" lon="8.236915912428962"><ele>401.0</ele><time>2026-04-03T13:10:00.715Z</time></trkpt><trkpt lat="45.63395405176849" lon="8.23664929975245"><ele>401.0</ele><time>2026-04-03T13:10:01.715Z</time></trkpt><trkpt lat="45.63385320003941" lon="8.236382532987731"><ele>401.5</ele><time>2026-04-03T13:10:02.715Z</time></trkpt><trkpt lat="45.63376203935034" lon="8.236158788006499"><ele>402.0</ele><time>2026-04-03T13:10:03.715Z</time></trkpt><trkpt lat="45.6337017202404" lon="8.235991089540164"><ele>402.5</ele><time>2026-04-03T13:10:04.715Z</time></trkpt><trkpt lat="45.63366984395656" lon="8.235874527997622"><ele>403.0</ele><time>2026-04-03T13:10:05.715Z</time></trkpt><trkpt lat="45.63367092689488" lon="8.235776244728166"><ele>403.0</ele><time>2026-04-03T13:10:06.715Z</time></trkpt><trkpt lat="45.633755770012954" lon="8.235693499784878"><ele>403.0</ele><time>2026-04-03T13:10:08.715Z</time></trkpt><trkpt lat="45.633833711645316" lon="8.23572496988904"><ele>403.0</ele><time>2026-04-03T13:10:09.717Z</time></trkpt><trkpt lat="45.633939147974445" lon="8.23577900957126"><ele>403.0</ele><time>2026-04-03T13:10:10.716Z</time></trkpt><trkpt lat="45.63405307937338" lon="8.23587341600999"><ele>403.0</ele><time>2026-04-03T13:10:11.716Z</time></trkpt><trkpt lat="45.63421114355034" lon="8.235955426575808"><ele>403.0</ele><time>2026-04-03T13:10:12.717Z</time></trkpt><trkpt lat="45.63439420481166" lon="8.236040272414114"><ele>403.0</ele><time>2026-04-03T13:10:13.717Z</time></trkpt><trkpt lat="45.63457298740548" lon="8.236118329363519"><ele>403.0</ele><time>2026-04-03T13:10:14.717Z</time></trkpt><trkpt lat="45.63476638183794" lon="8.23621166432419"><ele>403.25</ele><time>2026-04-03T13:10:15.716Z</time></trkpt><trkpt lat="45.63490234121756" lon="8.236312763028913"><ele>403.5</ele><time>2026-04-03T13:10:16.717Z</time></trkpt><trkpt lat="45.635012647711704" lon="8.236419645643346"><ele>403.75</ele><time>2026-04-03T13:10:17.717Z</time></trkpt><trkpt lat="45.635127049598026" lon="8.236577343934766"><ele>404.0</ele><time>2026-04-03T13:10:18.716Z</time></trkpt><trkpt lat="45.63524268992209" lon="8.23676221209167"><ele>410.66666666666663</ele><time>2026-04-03T13:10:19.717Z</time></trkpt><trkpt lat="45.63534588551482" lon="8.23696945108114"><ele>417.33333333333337</ele><time>2026-04-03T13:10:20.716Z</time></trkpt><trkpt lat="45.635423539936625" lon="8.237158438575547"><ele>424.0</ele><time>2026-04-03T13:10:21.716Z</time></trkpt><trkpt lat="45.63549344299959" lon="8.237306025241292"><ele>426.0</ele><time>2026-04-03T13:10:22.717Z</time></trkpt><trkpt lat="45.63558986046258" lon="8.237422720587073"><ele>428.0</ele><time>2026-04-03T13:10:23.717Z</time></trkpt><trkpt lat="45.63568991598053" lon="8.237527978211363"><ele>430.0</ele><time>2026-04-03T13:10:24.717Z</time></trkpt><trkpt lat="45.635792412815356" lon="8.237631936861856"><ele>432.0</ele><time>2026-04-03T13:10:25.717Z</time></trkpt><trkpt lat="45.63585818277105" lon="8.237779008708188"><ele>432.0</ele><time>2026-04-03T13:10:26.717Z</time></trkpt><trkpt lat="45.635891686408925" lon="8.237942357825206"><ele>432.0</ele><time>2026-04-03T13:10:27.717Z</time></trkpt><trkpt lat="45.635939409528895" lon="8.238078376022624"><ele>432.0</ele><time>2026-04-03T13:10:28.717Z</time></trkpt><trkpt lat="45.63602586978624" lon="8.238167419537774"><ele>432.0</ele><time>2026-04-03T13:10:29.717Z</time></trkpt><trkpt lat="45.63613693709804" lon="8.238253566689295"><ele>436.75</ele><time>2026-04-03T13:10:30.717Z</time></trkpt><trkpt lat="45.63626291083042" lon="8.238347470608431"><ele>441.5</ele><time>2026-04-03T13:10:31.717Z</time></trkpt><trkpt lat="45.636385406565424" lon="8.238455167953997"><ele>446.25</ele><time>2026-04-03T13:10:32.717Z</time></trkpt><trkpt lat="45.63649621831204" lon="8.238585114577157"><ele>451.0</ele><time>2026-04-03T13:10:33.717Z</time></trkpt><trkpt lat="45.63657833537244" lon="8.238716579634158"><ele>451.0</ele><time>2026-04-03T13:10:34.717Z</time></trkpt><trkpt lat="45.63662778639741" lon="8.238862770002859"><ele>451.0</ele><time>2026-04-03T13:10:35.717Z</time></trkpt><trkpt lat="45.63665267359842" lon="8.239018030326498"><ele>451.0</ele><time>2026-04-03T13:10:36.716Z</time></trkpt><trkpt lat="45.63668660587206" lon="8.239163309610158"><ele>451.0</ele><time>2026-04-03T13:10:37.716Z</time></trkpt><trkpt lat="45.63674437304742" lon="8.2393155949132"><ele>451.25</ele><time>2026-04-03T13:10:38.716Z</time></trkpt><trkpt lat="45.6368315208122" lon="8.239471615728762"><ele>451.5</ele><time>2026-04-03T13:10:39.716Z</time></trkpt><trkpt lat="45.636918757726605" lon="8.239641181453715"><ele>451.75</ele><time>2026-04-03T13:10:40.716Z</time></trkpt><trkpt lat="45.63699582109326" lon="8.23977852653927"><ele>452.0</ele><time>2026-04-03T13:10:41.716Z</time></trkpt><trkpt lat="45.6370621855277" lon="8.239892483818476"><ele>452.0</ele><time>2026-04-03T13:10:42.716Z</time></trkpt><trkpt lat="45.637153938536365" lon="8.239953156023777"><ele>452.00000000000006</ele><time>2026-04-03T13:10:43.716Z</time></trkpt><trkpt lat="45.637252113363225" lon="8.239975093558591"><ele>452.00000000000006</ele><time>2026-04-03T13:10:44.716Z</time></trkpt><trkpt lat="45.63735233034263" lon="8.239973510273538"><ele>452.0</ele><time>2026-04-03T13:10:45.716Z</time></trkpt><trkpt lat="45.63745246699251" lon="8.239936339123583"><ele>452.0</ele><time>2026-04-03T13:10:46.716Z</time></trkpt><trkpt lat="45.63755468605037" lon="8.2398745129379"><ele>451.99999999999994</ele><time>2026-04-03T13:10:47.716Z</time></trkpt><trkpt lat="45.6376279274353" lon="8.23980165676393"><ele>452.0</ele><time>2026-04-03T13:10:48.716Z</time></trkpt><trkpt lat="45.637703211596694" lon="8.239741538678127"><ele>452.0</ele><time>2026-04-03T13:10:49.716Z</time></trkpt><trkpt lat="45.63778303607782" lon="8.23971131060481"><ele>452.0</ele><time>2026-04-03T13:10:50.716Z</time></trkpt><trkpt lat="45.63786376775386" lon="8.239729219820946"><ele>451.99999999999994</ele><time>2026-04-03T13:10:51.716Z</time></trkpt><trkpt lat="45.6379479612688" lon="8.239811019189245"><ele>452.0</ele><time>2026-04-03T13:10:52.716Z</time></trkpt><trkpt lat="45.63804780052873" lon="8.23994250109462"><ele>457.66666666666663</ele><time>2026-04-03T13:10:53.716Z</time></trkpt><trkpt lat="45.63816041737314" lon="8.240079236667492"><ele>463.33333333333337</ele><time>2026-04-03T13:10:54.716Z</time></trkpt><trkpt lat="45.63829165130925" lon="8.240209801263195"><ele>469.0</ele><time>2026-04-03T13:10:55.716Z</time></trkpt><trkpt lat="45.638419456188856" lon="8.240347375295327"><ele>469.0</ele><time>2026-04-03T13:10:56.716Z</time></trkpt><trkpt lat="45.638523899380225" lon="8.240457586748022"><ele>469.0</ele><time>2026-04-03T13:10:57.716Z</time></trkpt><trkpt lat="45.63863288141472" lon="8.240554125673503"><ele>469.0</ele><time>2026-04-03T13:10:58.716Z</time></trkpt><trkpt lat="45.638767569695496" lon="8.240595158160982"><ele>469.0</ele><time>2026-04-03T13:10:59.716Z</time></trkpt><trkpt lat="45.63891682827981" lon="8.240603621344311"><ele>474.0</ele><time>2026-04-03T13:11:00.716Z</time></trkpt><trkpt lat="45.63907101290425" lon="8.240588227710184"><ele>479.0</ele><time>2026-04-03T13:11:01.716Z</time></trkpt><trkpt lat="45.63924780712514" lon="8.240543055170374"><ele>484.0</ele><time>2026-04-03T13:11:02.716Z</time></trkpt><trkpt lat="45.63942557625413" lon="8.24047052779565"><ele>484.0</ele><time>2026-04-03T13:11:03.716Z</time></trkpt><trkpt lat="45.63960646700425" lon="8.24037971938052"><ele>484.0</ele><time>2026-04-03T13:11:04.716Z</time></trkpt><trkpt lat="45.63978634708632" lon="8.240284486989797"><ele>484.0</ele><time>2026-04-03T13:11:05.716Z</time></trkpt><trkpt lat="45.63995624381837" lon="8.240176073958075"><ele>484.0</ele><time>2026-04-03T13:11:06.716Z</time></trkpt><trkpt lat="45.640131213585235" lon="8.240060324006803"><ele>484.0</ele><time>2026-04-03T13:11:07.716Z</time></trkpt><trkpt lat="45.64030483754461" lon="8.239925828943779"><ele>484.0</ele><time>2026-04-03T13:11:08.716Z</time></trkpt><trkpt lat="45.64046396425307" lon="8.239817957058536"><ele>491.6666666666667</ele><time>2026-04-03T13:11:09.716Z</time></trkpt><trkpt lat="45.64061724496432" lon="8.239751552868576"><ele>499.33333333333337</ele><time>2026-04-03T13:11:10.716Z</time></trkpt><trkpt lat="45.64078428204103" lon="8.239692659036887"><ele>507.0</ele><time>2026-04-03T13:11:11.716Z</time></trkpt><trkpt lat="45.64096175177321" lon="8.239641398875161"><ele>502.33333333333337</ele><time>2026-04-03T13:11:12.716Z</time></trkpt><trkpt lat="45.64115149691616" lon="8.239554663950816"><ele>497.6666666666667</ele><time>2026-04-03T13:11:13.716Z</time></trkpt><trkpt lat="45.641330916789364" lon="8.239474136591634"><ele>493.0</ele><time>2026-04-03T13:11:14.716Z</time></trkpt><trkpt lat="45.64149638864862" lon="8.23938910654461"><ele>493.0</ele><time>2026-04-03T13:11:15.716Z</time></trkpt><trkpt lat="45.64164708080237" lon="8.23931919784448"><ele>493.0</ele><time>2026-04-03T13:11:16.716Z</time></trkpt><trkpt lat="45.641785546743016" lon="8.239264855431573"><ele>493.0</ele><time>2026-04-03T13:11:17.716Z</time></trkpt><trkpt lat="45.64193966877225" lon="8.239235623379427"><ele>491.0</ele><time>2026-04-03T13:11:18.716Z</time></trkpt><trkpt lat="45.64210093496348" lon="8.239225763987331"><ele>489.0</ele><time>2026-04-03T13:11:19.716Z</time></trkpt><trkpt lat="45.64226695259099" lon="8.239238349990883"><ele>487.0</ele><time>2026-04-03T13:11:20.716Z</time></trkpt><trkpt lat="45.64242971366197" lon="8.239260287229337"><ele>487.0</ele><time>2026-04-03T13:11:21.716Z</time></trkpt><trkpt lat="45.64259299274302" lon="8.2392826713631"><ele>487.0</ele><time>2026-04-03T13:11:22.716Z</time></trkpt><trkpt lat="45.642756086007616" lon="8.239306418815719"><ele>487.0</ele><time>2026-04-03T13:11:23.716Z</time></trkpt><trkpt lat="45.642915543086126" lon="8.239336052545479"><ele>485.0</ele><time>2026-04-03T13:11:24.716Z</time></trkpt><trkpt lat="45.64306225888217" lon="8.239362397086817"><ele>483.0</ele><time>2026-04-03T13:11:25.715Z</time></trkpt><trkpt lat="45.64320210060719" lon="8.239363071654191"><ele>481.0</ele><time>2026-04-03T13:11:26.715Z</time></trkpt><trkpt lat="45.64334560697693" lon="8.23932479662725"><ele>479.0</ele><time>2026-04-03T13:11:27.715Z</time></trkpt><trkpt lat="45.643495250614706" lon="8.239251802211577"><ele>480.0</ele><time>2026-04-03T13:11:28.715Z</time></trkpt><trkpt lat="45.64365709092045" lon="8.239168804197247"><ele>481.0</ele><time>2026-04-03T13:11:29.715Z</time></trkpt><trkpt lat="45.643835956678885" lon="8.23908247541134"><ele>482.0</ele><time>2026-04-03T13:11:30.715Z</time></trkpt><trkpt lat="45.64402446817847" lon="8.238988129878537"><ele>483.66666666666663</ele><time>2026-04-03T13:11:31.715Z</time></trkpt><trkpt lat="45.64423042242883" lon="8.238882770165246"><ele>485.33333333333337</ele><time>2026-04-03T13:11:32.715Z</time></trkpt><trkpt lat="45.64443809495546" lon="8.238777816320376"><ele>487.0</ele><time>2026-04-03T13:11:33.715Z</time></trkpt><trkpt lat="45.644619439801254" lon="8.238695336456058"><ele>488.75</ele><time>2026-04-03T13:11:34.715Z</time></trkpt><trkpt lat="45.64478363569553" lon="8.238628595239607"><ele>490.5</ele><time>2026-04-03T13:11:35.715Z</time></trkpt><trkpt lat="45.64492221405065" lon="8.238558803349148"><ele>492.25</ele><time>2026-04-03T13:11:36.715Z</time></trkpt><trkpt lat="45.64503934096111" lon="8.23847332593078"><ele>494.0</ele><time>2026-04-03T13:11:37.715Z</time></trkpt><trkpt lat="45.64513971636401" lon="8.23836831775401"><ele>494.0</ele><time>2026-04-03T13:11:38.715Z</time></trkpt><trkpt lat="45.645215403228256" lon="8.238252732244641"><ele>494.0</ele><time>2026-04-03T13:11:39.715Z</time></trkpt><trkpt lat="45.645289932492226" lon="8.238133086994319"><ele>494.0</ele><time>2026-04-03T13:11:40.715Z</time></trkpt><trkpt lat="45.64537322342604" lon="8.237969376833622"><ele>494.0</ele><time>2026-04-03T13:11:41.715Z</time></trkpt><trkpt lat="45.645452581023825" lon="8.237761253170248"><ele>496.3333333333333</ele><time>2026-04-03T13:11:42.715Z</time></trkpt><trkpt lat="45.645521843181875" lon="8.237515523294507"><ele>498.66666666666663</ele><time>2026-04-03T13:11:43.715Z</time></trkpt><trkpt lat="45.64558692690614" lon="8.237301461868652"><ele>501.0</ele><time>2026-04-03T13:11:44.715Z</time></trkpt><trkpt lat="45.64565670912941" lon="8.237117115339363"><ele>502.66666666666663</ele><time>2026-04-03T13:11:45.715Z</time></trkpt><trkpt lat="45.64578263302977" lon="8.236931861825921"><ele>504.3333333333333</ele><time>2026-04-03T13:11:46.715Z</time></trkpt><trkpt lat="45.645915039746015" lon="8.23677163195483"><ele>506.0</ele><time>2026-04-03T13:11:47.715Z</time></trkpt><trkpt lat="45.646056364794205" lon="8.236641321178256"><ele>511.25</ele><time>2026-04-03T13:11:48.715Z</time></trkpt><trkpt lat="45.64620570629905" lon="8.236532982700197"><ele>516.5</ele><time>2026-04-03T13:11:49.715Z</time></trkpt><trkpt lat="45.6463341310528" lon="8.236442028971437"><ele>521.75</ele><time>2026-04-03T13:11:50.715Z</time></trkpt><trkpt lat="45.64643537679175" lon="8.236361991602534"><ele>527.0</ele><time>2026-04-03T13:11:51.715Z</time></trkpt><trkpt lat="45.646509758419555" lon="8.236276063225162"><ele>527.8000000000001</ele><time>2026-04-03T13:11:52.715Z</time></trkpt><trkpt lat="45.6465419493493" lon="8.236166305634493"><ele>528.6</ele><time>2026-04-03T13:11:53.715Z</time></trkpt><trkpt lat="45.64653709276025" lon="8.236059560894242"><ele>529.4000000000001</ele><time>2026-04-03T13:11:54.715Z</time></trkpt><trkpt lat="45.64647497678754" lon="8.235962401760256"><ele>530.2</ele><time>2026-04-03T13:11:55.715Z</time></trkpt><trkpt lat="45.646365224661004" lon="8.235882817247788"><ele>531.0</ele><time>2026-04-03T13:11:56.715Z</time></trkpt><trkpt lat="45.64623048034373" lon="8.235836629017596"><ele>528.25</ele><time>2026-04-03T13:11:57.715Z</time></trkpt><trkpt lat="45.64609471400444" lon="8.235807806653945"><ele>525.5</ele><time>2026-04-03T13:11:58.715Z</time></trkpt><trkpt lat="45.645959662443445" lon="8.235795702056793"><ele>522.75</ele><time>2026-04-03T13:11:59.715Z</time></trkpt><trkpt lat="45.64584606917376" lon="8.235815735935184"><ele>520.0</ele><time>2026-04-03T13:12:00.715Z</time></trkpt><trkpt lat="45.6457563105716" lon="8.235854216915882"><ele>520.0</ele><time>2026-04-03T13:12:01.715Z</time></trkpt><trkpt lat="45.645694223708986" lon="8.235919392989652"><ele>520.0</ele><time>2026-04-03T13:12:02.715Z</time></trkpt><trkpt lat="45.645625123813964" lon="8.235960990334286"><ele>520.0</ele><time>2026-04-03T13:12:04.715Z</time></trkpt><trkpt lat="45.64555949741831" lon="8.235909653224331"><ele>520.0</ele><time>2026-04-03T13:12:06.715Z</time></trkpt><trkpt lat="45.645608630639764" lon="8.235791231687434"><ele>520.0</ele><time>2026-04-03T13:12:08.715Z</time></trkpt><trkpt lat="45.645698858909476" lon="8.2357294674721"><ele>520.0</ele><time>2026-04-03T13:12:09.715Z</time></trkpt><trkpt lat="45.645802425687926" lon="8.235671421817313"><ele>525.75</ele><time>2026-04-03T13:12:10.715Z</time></trkpt><trkpt lat="45.6459094111509" lon="8.235618654090832"><ele>531.5</ele><time>2026-04-03T13:12:11.715Z</time></trkpt><trkpt lat="45.646051366847836" lon="8.23556207032842"><ele>537.25</ele><time>2026-04-03T13:12:12.715Z</time></trkpt><trkpt lat="45.64619586763439" lon="8.235501137207544"><ele>543.0</ele><time>2026-04-03T13:12:13.714Z</time></trkpt><trkpt lat="45.64631490755459" lon="8.23545821163631"><ele>545.5</ele><time>2026-04-03T13:12:14.714Z</time></trkpt><trkpt lat="45.64643200567666" lon="8.23544638430403"><ele>548.0</ele><time>2026-04-03T13:12:15.716Z</time></trkpt><trkpt lat="45.64656241615711" lon="8.235473381715616"><ele>550.5</ele><time>2026-04-03T13:12:16.716Z</time></trkpt><trkpt lat="45.64670529656999" lon="8.23550260338781"><ele>553.0</ele><time>2026-04-03T13:12:17.716Z</time></trkpt><trkpt lat="45.64685613405058" lon="8.235505037974235"><ele>553.5</ele><time>2026-04-03T13:12:18.716Z</time></trkpt><trkpt lat="45.64700481720794" lon="8.235494511155999"><ele>554.0</ele><time>2026-04-03T13:12:19.716Z</time></trkpt><trkpt lat="45.647147255536474" lon="8.235475208861386"><ele>554.5</ele><time>2026-04-03T13:12:20.716Z</time></trkpt><trkpt lat="45.64729424057695" lon="8.235413421557611"><ele>555.0</ele><time>2026-04-03T13:12:21.715Z</time></trkpt><trkpt lat="45.64745207122999" lon="8.235344289562118"><ele>555.0</ele><time>2026-04-03T13:12:22.715Z</time></trkpt><trkpt lat="45.64761020480261" lon="8.235295484500593"><ele>555.0</ele><time>2026-04-03T13:12:23.715Z</time></trkpt><trkpt lat="45.64776125947083" lon="8.235272716105916"><ele>555.0</ele><time>2026-04-03T13:12:24.716Z</time></trkpt><trkpt lat="45.647888851698546" lon="8.235254999716071"><ele>555.0</ele><time>2026-04-03T13:12:25.715Z</time></trkpt><trkpt lat="45.64799262922403" lon="8.235262907223785"><ele>554.6</ele><time>2026-04-03T13:12:26.715Z</time></trkpt><trkpt lat="45.64807891069041" lon="8.235303529288556"><ele>554.2</ele><time>2026-04-03T13:12:27.716Z</time></trkpt><trkpt lat="45.64815670167511" lon="8.235394093245059"><ele>553.8</ele><time>2026-04-03T13:12:28.716Z</time></trkpt><trkpt lat="45.64819496859964" lon="8.235528859508916"><ele>553.4</ele><time>2026-04-03T13:12:29.716Z</time></trkpt><trkpt lat="45.64822166833972" lon="8.235689042241777"><ele>553.0</ele><time>2026-04-03T13:12:30.716Z</time></trkpt><trkpt lat="45.64822553979945" lon="8.235839945825616"><ele>553.0</ele><time>2026-04-03T13:12:31.716Z</time></trkpt><trkpt lat="45.64821274096724" lon="8.235962550619252"><ele>553.0</ele><time>2026-04-03T13:12:32.716Z</time></trkpt><trkpt lat="45.64817902628798" lon="8.23605875871958"><ele>553.0</ele><time>2026-04-03T13:12:33.716Z</time></trkpt><trkpt lat="45.64813882718042" lon="8.236157961930743"><ele>553.0</ele><time>2026-04-03T13:12:34.716Z</time></trkpt><trkpt lat="45.64813288147373" lon="8.236291356529765"><ele>553.0</ele><time>2026-04-03T13:12:35.716Z</time></trkpt><trkpt lat="45.64815016170693" lon="8.236426598307935"><ele>553.0</ele><time>2026-04-03T13:12:36.716Z</time></trkpt><trkpt lat="45.648200241641575" lon="8.236573542972078"><ele>556.75</ele><time>2026-04-03T13:12:37.716Z</time></trkpt><trkpt lat="45.64826211512501" lon="8.236723787024411"><ele>560.5</ele><time>2026-04-03T13:12:38.716Z</time></trkpt><trkpt lat="45.648326236526444" lon="8.236880474044423"><ele>564.25</ele><time>2026-04-03T13:12:39.716Z</time></trkpt><trkpt lat="45.6483844602136" lon="8.237020793519635"><ele>568.0</ele><time>2026-04-03T13:12:40.716Z</time></trkpt><trkpt lat="45.64847031822414" lon="8.237126539381133"><ele>568.0</ele><time>2026-04-03T13:12:41.715Z</time></trkpt><trkpt lat="45.648583934540135" lon="8.23720438813127"><ele>568.0</ele><time>2026-04-03T13:12:42.715Z</time></trkpt><trkpt lat="45.648730379412775" lon="8.23726428264053"><ele>568.0</ele><time>2026-04-03T13:12:43.715Z</time></trkpt><trkpt lat="45.64888268773475" lon="8.237353614506244"><ele>568.0</ele><time>2026-04-03T13:12:44.715Z</time></trkpt><trkpt lat="45.649040194574695" lon="8.237461460942662"><ele>570.25</ele><time>2026-04-03T13:12:45.715Z</time></trkpt><trkpt lat="45.6491609616243" lon="8.237574395253912"><ele>572.5</ele><time>2026-04-03T13:12:46.715Z</time></trkpt><trkpt lat="45.649256656493144" lon="8.23767759028785"><ele>574.75</ele><time>2026-04-03T13:12:47.715Z</time></trkpt><trkpt lat="45.64935178172201" lon="8.23776108244842"><ele>577.0</ele><time>2026-04-03T13:12:48.715Z</time></trkpt><trkpt lat="45.649457504592455" lon="8.237764226806709"><ele>577.6</ele><time>2026-04-03T13:12:49.715Z</time></trkpt><trkpt lat="45.64954913862145" lon="8.23771231108907"><ele>578.2</ele><time>2026-04-03T13:12:50.715Z</time></trkpt><trkpt lat="45.64964461278145" lon="8.237618525338458"><ele>578.8</ele><time>2026-04-03T13:12:51.715Z</time></trkpt><trkpt lat="45.64973948383438" lon="8.23755008670597"><ele>579.4</ele><time>2026-04-03T13:12:52.715Z</time></trkpt><trkpt lat="45.6498402863959" lon="8.237549239800698"><ele>580.0</ele><time>2026-04-03T13:12:53.715Z</time></trkpt><trkpt lat="45.64996158237162" lon="8.237610149097865"><ele>580.0</ele><time>2026-04-03T13:12:54.715Z</time></trkpt><trkpt lat="45.650084401759045" lon="8.237700826410038"><ele>580.0</ele><time>2026-04-03T13:12:55.715Z</time></trkpt><trkpt lat="45.650184462749735" lon="8.2377379607511"><ele>580.0</ele><time>2026-04-03T13:12:56.715Z</time></trkpt><trkpt lat="45.65027168171556" lon="8.23772722063417"><ele>580.0</ele><time>2026-04-03T13:12:57.715Z</time></trkpt><trkpt lat="45.65034589130114" lon="8.237664832200892"><ele>580.0</ele><time>2026-04-03T13:12:58.715Z</time></trkpt><trkpt lat="45.65041616501514" lon="8.23756415077264"><ele>580.3333333333334</ele><time>2026-04-03T13:12:59.715Z</time></trkpt><trkpt lat="45.650478746549176" lon="8.237413482628249"><ele>580.6666666666667</ele><time>2026-04-03T13:13:00.715Z</time></trkpt><trkpt lat="45.6505373805142" lon="8.237305699025187"><ele>581.0</ele><time>2026-04-03T13:13:01.715Z</time></trkpt><trkpt lat="45.65060233112971" lon="8.237255548552092"><ele>581.3333333333334</ele><time>2026-04-03T13:13:02.715Z</time></trkpt><trkpt lat="45.650676446987994" lon="8.237241420596993"><ele>581.6666666666666</ele><time>2026-04-03T13:13:03.715Z</time></trkpt><trkpt lat="45.650740837517745" lon="8.237272391430528"><ele>582.0</ele><time>2026-04-03T13:13:04.715Z</time></trkpt><trkpt lat="45.65081307989056" lon="8.23736954091121"><ele>582.0</ele><time>2026-04-03T13:13:05.715Z</time></trkpt><trkpt lat="45.65089477383972" lon="8.237510494249454"><ele>582.0</ele><time>2026-04-03T13:13:06.715Z</time></trkpt><trkpt lat="45.650955062167995" lon="8.237659490477737"><ele>582.0</ele><time>2026-04-03T13:13:07.715Z</time></trkpt><trkpt lat="45.65098311494329" lon="8.23779934405183"><ele>582.0</ele><time>2026-04-03T13:13:08.715Z</time></trkpt><trkpt lat="45.65099281033197" lon="8.237944623720265"><ele>582.0</ele><time>2026-04-03T13:13:09.715Z</time></trkpt><trkpt lat="45.65100145455624" lon="8.238084306876233"><ele>582.0</ele><time>2026-04-03T13:13:10.715Z</time></trkpt><trkpt lat="45.65102713345306" lon="8.238197018379303"><ele>582.0</ele><time>2026-04-03T13:13:11.715Z</time></trkpt><trkpt lat="45.651071987256806" lon="8.23828085864833"><ele>582.0</ele><time>2026-04-03T13:13:12.715Z</time></trkpt><trkpt lat="45.65113893859184" lon="8.23832251768316"><ele>582.0</ele><time>2026-04-03T13:13:13.715Z</time></trkpt><trkpt lat="45.65122063710343" lon="8.238326931573006"><ele>582.0</ele><time>2026-04-03T13:13:14.715Z</time></trkpt><trkpt lat="45.651327923257575" lon="8.2383153846668"><ele>585.0</ele><time>2026-04-03T13:13:15.715Z</time></trkpt><trkpt lat="45.65147835380717" lon="8.238284067043175"><ele>588.0</ele><time>2026-04-03T13:13:16.715Z</time></trkpt><trkpt lat="45.65164648782199" lon="8.23827664590349"><ele>591.0</ele><time>2026-04-03T13:13:17.715Z</time></trkpt><trkpt lat="45.651829105703214" lon="8.238260699375463"><ele>591.25</ele><time>2026-04-03T13:13:18.715Z</time></trkpt><trkpt lat="45.65199408978827" lon="8.23824065059457"><ele>591.5</ele><time>2026-04-03T13:13:19.715Z</time></trkpt><trkpt lat="45.65213700342673" lon="8.2382258286145"><ele>591.75</ele><time>2026-04-03T13:13:20.715Z</time></trkpt><trkpt lat="45.65225905681883" lon="8.238224631931036"><ele>592.0</ele><time>2026-04-03T13:13:21.715Z</time></trkpt><trkpt lat="45.65236641594867" lon="8.238252026210786"><ele>592.0</ele><time>2026-04-03T13:13:22.715Z</time></trkpt><trkpt lat="45.65246021305954" lon="8.238306208417859"><ele>592.0</ele><time>2026-04-03T13:13:23.715Z</time></trkpt><trkpt lat="45.65254608991872" lon="8.23838251229615"><ele>592.0</ele><time>2026-04-03T13:13:24.715Z</time></trkpt><trkpt lat="45.65262483625425" lon="8.23845358620983"><ele>592.0</ele><time>2026-04-03T13:13:25.715Z</time></trkpt><trkpt lat="45.65270623553073" lon="8.238466402666246"><ele>592.0</ele><time>2026-04-03T13:13:26.715Z</time></trkpt><trkpt lat="45.65278823667457" lon="8.238449329169182"><ele>592.0</ele><time>2026-04-03T13:13:27.715Z</time></trkpt><trkpt lat="45.65286521657587" lon="8.238396119220083"><ele>592.0</ele><time>2026-04-03T13:13:28.715Z</time></trkpt><trkpt lat="45.65295101925517" lon="8.238317605666863"><ele>592.0</ele><time>2026-04-03T13:13:29.714Z</time></trkpt><trkpt lat="45.65304605816013" lon="8.23821022455041"><ele>592.0</ele><time>2026-04-03T13:13:30.714Z</time></trkpt><trkpt lat="45.653135901972604" lon="8.238098727068765"><ele>592.0</ele><time>2026-04-03T13:13:31.714Z</time></trkpt><trkpt lat="45.65322228765885" lon="8.238023948102553"><ele>592.0</ele><time>2026-04-03T13:13:32.714Z</time></trkpt><trkpt lat="45.65330605029288" lon="8.237984498217651"><ele>592.0</ele><time>2026-04-03T13:13:33.714Z</time></trkpt><trkpt lat="45.653379354765384" lon="8.237985052436152"><ele>592.0</ele><time>2026-04-03T13:13:34.714Z</time></trkpt><trkpt lat="45.653448992390686" lon="8.23803367057983"><ele>592.0</ele><time>2026-04-03T13:13:35.714Z</time></trkpt><trkpt lat="45.65351719128784" lon="8.238112849184361"><ele>592.0</ele><time>2026-04-03T13:13:36.714Z</time></trkpt><trkpt lat="45.65359317109953" lon="8.23822267704753"><ele>592.0</ele><time>2026-04-03T13:13:37.714Z</time></trkpt><trkpt lat="45.6536677208198" lon="8.238302496546348"><ele>592.5</ele><time>2026-04-03T13:13:38.714Z</time></trkpt><trkpt lat="45.65374321846871" lon="8.238341179168845"><ele>593.0</ele><time>2026-04-03T13:13:39.714Z</time></trkpt><trkpt lat="45.653814758027636" lon="8.238335006935154"><ele>593.5</ele><time>2026-04-03T13:13:40.714Z</time></trkpt><trkpt lat="45.65387307353235" lon="8.23829140216317"><ele>594.0</ele><time>2026-04-03T13:13:41.714Z</time></trkpt><trkpt lat="45.65391578132969" lon="8.238217097130011"><ele>594.5</ele><time>2026-04-03T13:13:42.714Z</time></trkpt><trkpt lat="45.65394613783227" lon="8.238109985531091"><ele>595.0</ele><time>2026-04-03T13:13:43.714Z</time></trkpt><trkpt lat="45.65396095886765" lon="8.237970379362762"><ele>595.0</ele><time>2026-04-03T13:13:44.714Z</time></trkpt><trkpt lat="45.65396742588469" lon="8.237789024286435"><ele>595.0</ele><time>2026-04-03T13:13:45.714Z</time></trkpt><trkpt lat="45.65399338389471" lon="8.237604624433027"><ele>595.0</ele><time>2026-04-03T13:13:46.714Z</time></trkpt><trkpt lat="45.65403889967561" lon="8.237436983459752"><ele>595.0</ele><time>2026-04-03T13:13:47.714Z</time></trkpt><trkpt lat="45.65410784325669" lon="8.237272220832814"><ele>594.2</ele><time>2026-04-03T13:13:48.714Z</time></trkpt><trkpt lat="45.65419463475445" lon="8.237133152794156"><ele>593.4</ele><time>2026-04-03T13:13:49.714Z</time></trkpt><trkpt lat="45.654291988603404" lon="8.237035131360537"><ele>592.6</ele><time>2026-04-03T13:13:50.714Z</time></trkpt><trkpt lat="45.65438792903553" lon="8.23696972018504"><ele>591.8</ele><time>2026-04-03T13:13:51.714Z</time></trkpt><trkpt lat="45.65447888043887" lon="8.236942093663748"><ele>591.0</ele><time>2026-04-03T13:13:52.714Z</time></trkpt><trkpt lat="45.654569430732614" lon="8.23695329892322"><ele>591.0</ele><time>2026-04-03T13:13:53.714Z</time></trkpt><trkpt lat="45.65466154753176" lon="8.237024279166942"><ele>591.0</ele><time>2026-04-03T13:13:54.714Z</time></trkpt><trkpt lat="45.65476472166734" lon="8.237085150291277"><ele>591.0</ele><time>2026-04-03T13:13:55.714Z</time></trkpt><trkpt lat="45.65489042078624" lon="8.237088544041946"><ele>591.0</ele><time>2026-04-03T13:13:56.714Z</time></trkpt><trkpt lat="45.655035484476045" lon="8.237059721888665"><ele>591.0</ele><time>2026-04-03T13:13:57.714Z</time></trkpt><trkpt lat="45.655176576316975" lon="8.237024622035351"><ele>591.0</ele><time>2026-04-03T13:13:58.714Z</time></trkpt><trkpt lat="45.65529441139706" lon="8.236965383009881"><ele>591.0</ele><time>2026-04-03T13:13:59.714Z</time></trkpt><trkpt lat="45.65538900744537" lon="8.236896735129713"><ele>591.0</ele><time>2026-04-03T13:14:00.714Z</time></trkpt><trkpt lat="45.655461767576675" lon="8.236817384980554"><ele>593.2</ele><time>2026-04-03T13:14:01.714Z</time></trkpt><trkpt lat="45.65551335652623" lon="8.236717583250721"><ele>595.4000000000001</ele><time>2026-04-03T13:14:02.714Z</time></trkpt><trkpt lat="45.65554204160842" lon="8.236583276739784"><ele>597.6</ele><time>2026-04-03T13:14:03.714Z</time></trkpt><trkpt lat="45.65555659250511" lon="8.236427043579914"><ele>599.8000000000001</ele><time>2026-04-03T13:14:04.714Z</time></trkpt><trkpt lat="45.6555915939712" lon="8.236278068422045"><ele>602.0</ele><time>2026-04-03T13:14:05.714Z</time></trkpt><trkpt lat="45.65566774811114" lon="8.236148038451145"><ele>602.0</ele><time>2026-04-03T13:14:06.714Z</time></trkpt><trkpt lat="45.65575854984615" lon="8.236029085159181"><ele>602.0</ele><time>2026-04-03T13:14:07.714Z</time></trkpt><trkpt lat="45.655875362559556" lon="8.235939165671702"><ele>602.0</ele><time>2026-04-03T13:14:08.714Z</time></trkpt><trkpt lat="45.65598105042779" lon="8.23587418310962"><ele>602.0</ele><time>2026-04-03T13:14:09.714Z</time></trkpt><trkpt lat="45.65605511962517" lon="8.235796565510578"><ele>602.0</ele><time>2026-04-03T13:14:10.714Z</time></trkpt><trkpt lat="45.656103222315295" lon="8.235690021028107"><ele>602.0</ele><time>2026-04-03T13:14:11.714Z</time></trkpt><trkpt lat="45.656106392412674" lon="8.235538120650359"><ele>602.0</ele><time>2026-04-03T13:14:12.714Z</time></trkpt><trkpt lat="45.656093847086424" lon="8.235338704629148"><ele>602.0</ele><time>2026-04-03T13:14:13.714Z</time></trkpt><trkpt lat="45.65609642541566" lon="8.23509397461239"><ele>600.75</ele><time>2026-04-03T13:14:14.714Z</time></trkpt><trkpt lat="45.65611962188943" lon="8.23487849189968"><ele>599.5</ele><time>2026-04-03T13:14:15.714Z</time></trkpt><trkpt lat="45.65615092391509" lon="8.2346824676286"><ele>598.25</ele><time>2026-04-03T13:14:16.714Z</time></trkpt><trkpt lat="45.65618735497172" lon="8.234532379077777"><ele>597.0</ele><time>2026-04-03T13:14:17.713Z</time></trkpt><trkpt lat="45.6562187787839" lon="8.234406740221123"><ele>597.0</ele><time>2026-04-03T13:14:18.713Z</time></trkpt><trkpt lat="45.65625222040236" lon="8.234324595132756"><ele>597.0</ele><time>2026-04-03T13:14:19.713Z</time></trkpt><trkpt lat="45.656354658885796" lon="8.234265623244927"><ele>597.0</ele><time>2026-04-03T13:14:21.715Z</time></trkpt><trkpt lat="45.656420797960685" lon="8.2343059647129"><ele>597.0</ele><time>2026-04-03T13:14:22.715Z</time></trkpt><trkpt lat="45.65650015289128" lon="8.234404498917264"><ele>597.0</ele><time>2026-04-03T13:14:23.715Z</time></trkpt><trkpt lat="45.656586953191415" lon="8.234544702831304"><ele>597.0</ele><time>2026-04-03T13:14:24.715Z</time></trkpt><trkpt lat="45.6566673665039" lon="8.234702334365759"><ele>597.0</ele><time>2026-04-03T13:14:25.715Z</time></trkpt><trkpt lat="45.65672886875129" lon="8.234820865477005"><ele>597.0</ele><time>2026-04-03T13:14:26.715Z</time></trkpt><trkpt lat="45.65678367402379" lon="8.234909873965119"><ele>597.0</ele><time>2026-04-03T13:14:27.714Z</time></trkpt><trkpt lat="45.6568371886718" lon="8.234961187588219"><ele>597.0</ele><time>2026-04-03T13:14:28.714Z</time></trkpt><trkpt lat="45.656961219250185" lon="8.234972869939268"><ele>598.25</ele><time>2026-04-03T13:14:30.715Z</time></trkpt><trkpt lat="45.657061317918725" lon="8.23485308298998"><ele>599.5</ele><time>2026-04-03T13:14:31.715Z</time></trkpt><trkpt lat="45.65713675015396" lon="8.234733049322536"><ele>600.75</ele><time>2026-04-03T13:14:32.715Z</time></trkpt><trkpt lat="45.65724872348483" lon="8.234678362839473"><ele>602.0</ele><time>2026-04-03T13:14:33.715Z</time></trkpt><trkpt lat="45.657380947274724" lon="8.234671080344738"><ele>602.0</ele><time>2026-04-03T13:14:34.715Z</time></trkpt><trkpt lat="45.657521232493906" lon="8.234679436360071"><ele>602.0</ele><time>2026-04-03T13:14:35.715Z</time></trkpt><trkpt lat="45.65763900057244" lon="8.234694090554681"><ele>602.0</ele><time>2026-04-03T13:14:36.714Z</time></trkpt><trkpt lat="45.657736881569235" lon="8.234703733448617"><ele>602.0</ele><time>2026-04-03T13:14:37.714Z</time></trkpt><trkpt lat="45.65781854822396" lon="8.23471816246746"><ele>602.0</ele><time>2026-04-03T13:14:38.714Z</time></trkpt><trkpt lat="45.657908107198665" lon="8.23465933425408"><ele>610.0</ele><time>2026-04-03T13:14:39.714Z</time></trkpt><trkpt lat="45.65797060095598" lon="8.234527206890302"><ele>618.0</ele><time>2026-04-03T13:14:40.714Z</time></trkpt><trkpt lat="45.6579916679573" lon="8.234361993472804"><ele>626.0</ele><time>2026-04-03T13:14:41.714Z</time></trkpt><trkpt lat="45.65796061809306" lon="8.234160474509714"><ele>634.0</ele><time>2026-04-03T13:14:42.714Z</time></trkpt><trkpt lat="45.6579590681987" lon="8.233991724415512"><ele>633.0</ele><time>2026-04-03T13:14:43.714Z</time></trkpt><trkpt lat="45.65799488057531" lon="8.23382048696952"><ele>632.0</ele><time>2026-04-03T13:14:44.714Z</time></trkpt><trkpt lat="45.65801624001193" lon="8.233600721808928"><ele>631.0</ele><time>2026-04-03T13:14:45.714Z</time></trkpt><trkpt lat="45.65801049223601" lon="8.233401329708423"><ele>630.0</ele><time>2026-04-03T13:14:46.714Z</time></trkpt><trkpt lat="45.658032574502364" lon="8.233238212594083"><ele>629.0</ele><time>2026-04-03T13:14:47.714Z</time></trkpt><trkpt lat="45.65803625844879" lon="8.233083713735638"><ele>628.0</ele><time>2026-04-03T13:14:48.714Z</time></trkpt><trkpt lat="45.657988904724" lon="8.232927289897995"><ele>627.0</ele><time>2026-04-03T13:14:49.714Z</time></trkpt><trkpt lat="45.657900944150136" lon="8.232811632110236"><ele>626.0</ele><time>2026-04-03T13:14:50.714Z</time></trkpt><trkpt lat="45.657844745719096" lon="8.232704871445812"><ele>625.0</ele><time>2026-04-03T13:14:51.714Z</time></trkpt><trkpt lat="45.65784414844828" lon="8.232582241736369"><ele>625.0</ele><time>2026-04-03T13:14:52.714Z</time></trkpt><trkpt lat="45.65788024399196" lon="8.232459742255966"><ele>625.0</ele><time>2026-04-03T13:14:53.714Z</time></trkpt><trkpt lat="45.65797619057112" lon="8.232335906741357"><ele>625.0</ele><time>2026-04-03T13:14:54.714Z</time></trkpt><trkpt lat="45.65807994790091" lon="8.232162602088577"><ele>625.0</ele><time>2026-04-03T13:14:55.714Z</time></trkpt><trkpt lat="45.65816994471252" lon="8.231965228044935"><ele>620.5</ele><time>2026-04-03T13:14:56.714Z</time></trkpt><trkpt lat="45.6582537540144" lon="8.231825115913072"><ele>616.0</ele><time>2026-04-03T13:14:57.714Z</time></trkpt><trkpt lat="45.658336392188716" lon="8.231720326952322"><ele>611.5</ele><time>2026-04-03T13:14:58.714Z</time></trkpt><trkpt lat="45.6584216162707" lon="8.231657981230798"><ele>607.0</ele><time>2026-04-03T13:14:59.714Z</time></trkpt><trkpt lat="45.658537400770854" lon="8.231627814098061"><ele>609.0</ele><time>2026-04-03T13:15:00.714Z</time></trkpt><trkpt lat="45.65865274545087" lon="8.231575879030524"><ele>611.0</ele><time>2026-04-03T13:15:01.714Z</time></trkpt><trkpt lat="45.658742414644934" lon="8.231484891423747"><ele>613.0</ele><time>2026-04-03T13:15:02.714Z</time></trkpt><trkpt lat="45.65880463643967" lon="8.231351045180649"><ele>615.0</ele><time>2026-04-03T13:15:03.714Z</time></trkpt><trkpt lat="45.65886027135058" lon="8.231185178051154"><ele>615.0</ele><time>2026-04-03T13:15:04.714Z</time></trkpt><trkpt lat="45.65891147768602" lon="8.231048037391373"><ele>615.0</ele><time>2026-04-03T13:15:05.714Z</time></trkpt><trkpt lat="45.65896247076283" lon="8.230942609084305"><ele>615.0</ele><time>2026-04-03T13:15:06.714Z</time></trkpt><trkpt lat="45.65904820438659" lon="8.230898695674224"><ele>615.0</ele><time>2026-04-03T13:15:07.714Z</time></trkpt><trkpt lat="45.65914848375433" lon="8.230850884691012"><ele>615.0</ele><time>2026-04-03T13:15:08.714Z</time></trkpt><trkpt lat="45.65921556006008" lon="8.230779112286266"><ele>615.0</ele><time>2026-04-03T13:15:09.714Z</time></trkpt><trkpt lat="45.6592495679722" lon="8.230662060645829"><ele>615.0</ele><time>2026-04-03T13:15:10.714Z</time></trkpt><trkpt lat="45.65928233751612" lon="8.230528676566317"><ele>615.0</ele><time>2026-04-03T13:15:11.714Z</time></trkpt><trkpt lat="45.65933752177281" lon="8.230408208082498"><ele>615.0</ele><time>2026-04-03T13:15:12.714Z</time></trkpt><trkpt lat="45.65942822685839" lon="8.230292271488022"><ele>615.0</ele><time>2026-04-03T13:15:13.714Z</time></trkpt><trkpt lat="45.6595556769604" lon="8.230218375642583"><ele>615.8</ele><time>2026-04-03T13:15:14.714Z</time></trkpt><trkpt lat="45.65968063655507" lon="8.230173173187133"><ele>616.6</ele><time>2026-04-03T13:15:15.714Z</time></trkpt><trkpt lat="45.65977786554282" lon="8.230142036484455"><ele>617.4</ele><time>2026-04-03T13:15:16.714Z</time></trkpt><trkpt lat="45.65985709173549" lon="8.230084741855697"><ele>618.2</ele><time>2026-04-03T13:15:17.714Z</time></trkpt><trkpt lat="45.659905436651506" lon="8.229963471439326"><ele>619.0</ele><time>2026-04-03T13:15:18.714Z</time></trkpt><trkpt lat="45.65993999039976" lon="8.229856972298542"><ele>620.4</ele><time>2026-04-03T13:15:19.714Z</time></trkpt><trkpt lat="45.66001936913014" lon="8.229781397298526"><ele>621.8</ele><time>2026-04-03T13:15:20.714Z</time></trkpt><trkpt lat="45.66014268682713" lon="8.229747658790357"><ele>623.2</ele><time>2026-04-03T13:15:21.714Z</time></trkpt><trkpt lat="45.660255621169924" lon="8.22973054125167"><ele>624.6</ele><time>2026-04-03T13:15:22.714Z</time></trkpt><trkpt lat="45.66034561199412" lon="8.229719415277717"><ele>626.0</ele><time>2026-04-03T13:15:23.714Z</time></trkpt><trkpt lat="45.6604111973886" lon="8.229644959317065"><ele>626.0</ele><time>2026-04-03T13:15:24.714Z</time></trkpt><trkpt lat="45.66044824840765" lon="8.229529223488008"><ele>626.0</ele><time>2026-04-03T13:15:25.713Z</time></trkpt><trkpt lat="45.66047326791056" lon="8.229388552990715"><ele>626.0</ele><time>2026-04-03T13:15:26.713Z</time></trkpt><trkpt lat="45.66046028056913" lon="8.22918027274973"><ele>626.0</ele><time>2026-04-03T13:15:27.713Z</time></trkpt><trkpt lat="45.66045061526637" lon="8.228959675371744"><ele>623.75</ele><time>2026-04-03T13:15:28.713Z</time></trkpt><trkpt lat="45.66046035631951" lon="8.22875355939635"><ele>621.5</ele><time>2026-04-03T13:15:29.713Z</time></trkpt><trkpt lat="45.66048599015309" lon="8.228558282275353"><ele>619.25</ele><time>2026-04-03T13:15:30.713Z</time></trkpt><trkpt lat="45.66050976681594" lon="8.22836859359138"><ele>617.0</ele><time>2026-04-03T13:15:31.713Z</time></trkpt><trkpt lat="45.6605694765436" lon="8.228206371971819"><ele>616.6</ele><time>2026-04-03T13:15:32.713Z</time></trkpt><trkpt lat="45.660599025887635" lon="8.228037396635717"><ele>616.2</ele><time>2026-04-03T13:15:33.713Z</time></trkpt><trkpt lat="45.66064880145558" lon="8.227890137785819"><ele>615.8</ele><time>2026-04-03T13:15:34.713Z</time></trkpt><trkpt lat="45.66070732614485" lon="8.227775633824375"><ele>615.4</ele><time>2026-04-03T13:15:35.713Z</time></trkpt><trkpt lat="45.660781555759826" lon="8.227702176576052"><ele>615.0</ele><time>2026-04-03T13:15:36.713Z</time></trkpt><trkpt lat="45.66086959770282" lon="8.227669041527182"><ele>615.0</ele><time>2026-04-03T13:15:37.713Z</time></trkpt><trkpt lat="45.66096286856921" lon="8.227669285925161"><ele>615.0</ele><time>2026-04-03T13:15:38.713Z</time></trkpt><trkpt lat="45.66105180414449" lon="8.227728150902921"><ele>615.0</ele><time>2026-04-03T13:15:39.713Z</time></trkpt><trkpt lat="45.66112889242804" lon="8.22782772412026"><ele>615.0</ele><time>2026-04-03T13:15:40.713Z</time></trkpt><trkpt lat="45.66119702150001" lon="8.227908831656315"><ele>615.0</ele><time>2026-04-03T13:15:41.713Z</time></trkpt><trkpt lat="45.661271662268064" lon="8.227943119535349"><ele>614.2</ele><time>2026-04-03T13:15:42.713Z</time></trkpt><trkpt lat="45.6613420623514" lon="8.2279375820122"><ele>613.4</ele><time>2026-04-03T13:15:43.713Z</time></trkpt><trkpt lat="45.66140244657385" lon="8.227875120217023"><ele>612.6</ele><time>2026-04-03T13:15:44.713Z</time></trkpt><trkpt lat="45.661429191384315" lon="8.22775920709547"><ele>611.8</ele><time>2026-04-03T13:15:45.713Z</time></trkpt><trkpt lat="45.66139232304456" lon="8.227607074997353"><ele>611.0</ele><time>2026-04-03T13:15:46.713Z</time></trkpt><trkpt lat="45.66129085548897" lon="8.227476939690664"><ele>611.0</ele><time>2026-04-03T13:15:47.713Z</time></trkpt><trkpt lat="45.661179424283574" lon="8.227331449095972"><ele>611.0</ele><time>2026-04-03T13:15:48.713Z</time></trkpt><trkpt lat="45.661084558621546" lon="8.227197402751388"><ele>611.0</ele><time>2026-04-03T13:15:49.713Z</time></trkpt><trkpt lat="45.66100942878612" lon="8.227090123380577"><ele>611.0</ele><time>2026-04-03T13:15:50.713Z</time></trkpt><trkpt lat="45.66095498576056" lon="8.227015123385952"><ele>612.6</ele><time>2026-04-03T13:15:51.713Z</time></trkpt><trkpt lat="45.660949608819564" lon="8.226861471230784"><ele>614.2</ele><time>2026-04-03T13:15:53.713Z</time></trkpt><trkpt lat="45.661055418932605" lon="8.226803369783838"><ele>615.8</ele><time>2026-04-03T13:15:55.713Z</time></trkpt><trkpt lat="45.66114318971493" lon="8.22684237558786"><ele>617.4</ele><time>2026-04-03T13:15:56.713Z</time></trkpt><trkpt lat="45.66122510114168" lon="8.226903054389657"><ele>619.0</ele><time>2026-04-03T13:15:57.713Z</time></trkpt><trkpt lat="45.66130779088521" lon="8.226928779902927"><ele>614.75</ele><time>2026-04-03T13:15:58.713Z</time></trkpt><trkpt lat="45.66138461946872" lon="8.22690019867457"><ele>610.5</ele><time>2026-04-03T13:15:59.713Z</time></trkpt><trkpt lat="45.66147957410572" lon="8.226791857934405"><ele>606.25</ele><time>2026-04-03T13:16:00.713Z</time></trkpt><trkpt lat="45.66159543665681" lon="8.226636630007143"><ele>602.0</ele><time>2026-04-03T13:16:01.713Z</time></trkpt><trkpt lat="45.661689783206434" lon="8.226495004574131"><ele>602.25</ele><time>2026-04-03T13:16:02.713Z</time></trkpt><trkpt lat="45.66178055198405" lon="8.226360827245797"><ele>602.5</ele><time>2026-04-03T13:16:03.713Z</time></trkpt><trkpt lat="45.66189097318785" lon="8.226277727563733"><ele>602.75</ele><time>2026-04-03T13:16:04.713Z</time></trkpt><trkpt lat="45.66201778419812" lon="8.226224276430811"><ele>603.0</ele><time>2026-04-03T13:16:05.713Z</time></trkpt><trkpt lat="45.66217762180232" lon="8.226175756634019"><ele>597.3333333333334</ele><time>2026-04-03T13:16:06.713Z</time></trkpt><trkpt lat="45.662338457725596" lon="8.226122189347747"><ele>591.6666666666667</ele><time>2026-04-03T13:16:07.713Z</time></trkpt><trkpt lat="45.66250624100204" lon="8.226047477477364"><ele>586.0</ele><time>2026-04-03T13:16:08.713Z</time></trkpt><trkpt lat="45.66269592800817" lon="8.225959740473007"><ele>585.3333333333334</ele><time>2026-04-03T13:16:09.713Z</time></trkpt><trkpt lat="45.662894904336774" lon="8.22587408417904"><ele>584.6666666666666</ele><time>2026-04-03T13:16:10.713Z</time></trkpt><trkpt lat="45.66309460385906" lon="8.225793958991998"><ele>584.0</ele><time>2026-04-03T13:16:11.713Z</time></trkpt><trkpt lat="45.66328743966341" lon="8.225718192856899"><ele>577.6666666666666</ele><time>2026-04-03T13:16:12.713Z</time></trkpt><trkpt lat="45.663461774619854" lon="8.225644560240058"><ele>571.3333333333334</ele><time>2026-04-03T13:16:13.712Z</time></trkpt><trkpt lat="45.66362828110166" lon="8.225549424491422"><ele>565.0</ele><time>2026-04-03T13:16:14.712Z</time></trkpt><trkpt lat="45.66377865768402" lon="8.225442491238882"><ele>563.75</ele><time>2026-04-03T13:16:15.712Z</time></trkpt><trkpt lat="45.66391530884054" lon="8.225326570355666"><ele>562.5</ele><time>2026-04-03T13:16:16.712Z</time></trkpt><trkpt lat="45.66402741175684" lon="8.225231891482053"><ele>561.25</ele><time>2026-04-03T13:16:17.712Z</time></trkpt><trkpt lat="45.66413849373604" lon="8.22516478403771"><ele>560.0</ele><time>2026-04-03T13:16:18.712Z</time></trkpt><trkpt lat="45.664265514184045" lon="8.225155737257516"><ele>560.0</ele><time>2026-04-03T13:16:19.712Z</time></trkpt><trkpt lat="45.66440763910523" lon="8.225162539992917"><ele>560.0</ele><time>2026-04-03T13:16:20.712Z</time></trkpt><trkpt lat="45.66452327153887" lon="8.22515580691329"><ele>560.0</ele><time>2026-04-03T13:16:21.712Z</time></trkpt><trkpt lat="45.664626760034096" lon="8.225207169604051"><ele>560.0</ele><time>2026-04-03T13:16:22.712Z</time></trkpt><trkpt lat="45.66470843450533" lon="8.225289339947466"><ele>560.4</ele><time>2026-04-03T13:16:23.712Z</time></trkpt><trkpt lat="45.66476092236778" lon="8.225411728578507"><ele>560.8</ele><time>2026-04-03T13:16:24.712Z</time></trkpt><trkpt lat="45.66478134636563" lon="8.225544726921683"><ele>561.2</ele><time>2026-04-03T13:16:25.712Z</time></trkpt><trkpt lat="45.664767333052644" lon="8.225705918191412"><ele>561.6</ele><time>2026-04-03T13:16:26.714Z</time></trkpt><trkpt lat="45.66473412929874" lon="8.225886651840773"><ele>562.0</ele><time>2026-04-03T13:16:27.714Z</time></trkpt><trkpt lat="45.66471013628107" lon="8.226039413205992"><ele>562.0</ele><time>2026-04-03T13:16:28.714Z</time></trkpt><trkpt lat="45.664706475048305" lon="8.226150269281336"><ele>562.0</ele><time>2026-04-03T13:16:29.714Z</time></trkpt><trkpt lat="45.66472426664292" lon="8.226238587118981"><ele>562.0</ele><time>2026-04-03T13:16:30.714Z</time></trkpt><trkpt lat="45.66483026995296" lon="8.226297435488648"><ele>562.0</ele><time>2026-04-03T13:16:32.713Z</time></trkpt><trkpt lat="45.664885495880036" lon="8.226245406470381"><ele>562.0</ele><time>2026-04-03T13:16:33.714Z</time></trkpt><trkpt lat="45.66495603723025" lon="8.226121259857914"><ele>562.0</ele><time>2026-04-03T13:16:34.714Z</time></trkpt><trkpt lat="45.66504974179004" lon="8.225963128771754"><ele>562.0</ele><time>2026-04-03T13:16:35.713Z</time></trkpt><trkpt lat="45.6651380749373" lon="8.225815084974602"><ele>562.0</ele><time>2026-04-03T13:16:36.714Z</time></trkpt><trkpt lat="45.66520063009175" lon="8.22568594630298"><ele>562.0</ele><time>2026-04-03T13:16:37.714Z</time></trkpt><trkpt lat="45.665225391516664" lon="8.225545346836585"><ele>562.0</ele><time>2026-04-03T13:16:38.714Z</time></trkpt><trkpt lat="45.665237947944284" lon="8.225379930853409"><ele>559.0</ele><time>2026-04-03T13:16:39.714Z</time></trkpt><trkpt lat="45.66517178860353" lon="8.225164419253774"><ele>556.0</ele><time>2026-04-03T13:16:40.714Z</time></trkpt><trkpt lat="45.665098932416" lon="8.224962963975182"><ele>553.0</ele><time>2026-04-03T13:16:41.714Z</time></trkpt><trkpt lat="45.6650684591077" lon="8.22478879940801"><ele>550.0</ele><time>2026-04-03T13:16:42.714Z</time></trkpt><trkpt lat="45.665059966024245" lon="8.224652081192568"><ele>550.0</ele><time>2026-04-03T13:16:43.714Z</time></trkpt><trkpt lat="45.6650650675244" lon="8.224528671422073"><ele>550.0</ele><time>2026-04-03T13:16:44.714Z</time></trkpt><trkpt lat="45.66512022714239" lon="8.22440057761254"><ele>550.0</ele><time>2026-04-03T13:16:45.714Z</time></trkpt><trkpt lat="45.66521690445679" lon="8.22423275895558"><ele>550.0</ele><time>2026-04-03T13:16:46.714Z</time></trkpt><trkpt lat="45.665315847548605" lon="8.224065718077357"><ele>542.75</ele><time>2026-04-03T13:16:47.714Z</time></trkpt><trkpt lat="45.66539881983239" lon="8.2239427967062"><ele>535.5</ele><time>2026-04-03T13:16:48.714Z</time></trkpt><trkpt lat="45.66548270370339" lon="8.22386101330398"><ele>528.25</ele><time>2026-04-03T13:16:49.714Z</time></trkpt><trkpt lat="45.66558770191382" lon="8.223828398262361"><ele>521.0</ele><time>2026-04-03T13:16:50.714Z</time></trkpt><trkpt lat="45.66571600108003" lon="8.223817929107263"><ele>521.0</ele><time>2026-04-03T13:16:51.714Z</time></trkpt><trkpt lat="45.665845388483305" lon="8.223808005421235"><ele>521.0</ele><time>2026-04-03T13:16:52.714Z</time></trkpt><trkpt lat="45.66594636877549" lon="8.223714289557678"><ele>521.0</ele><time>2026-04-03T13:16:53.714Z</time></trkpt><trkpt lat="45.666048832926" lon="8.223693340921596"><ele>521.0</ele><time>2026-04-03T13:16:54.714Z</time></trkpt><trkpt lat="45.66617093106076" lon="8.22371304195309"><ele>520.0</ele><time>2026-04-03T13:16:55.714Z</time></trkpt><trkpt lat="45.66630701924774" lon="8.223731554441253"><ele>519.0</ele><time>2026-04-03T13:16:56.714Z</time></trkpt><trkpt lat="45.66643595545632" lon="8.223735552268845"><ele>518.0</ele><time>2026-04-03T13:16:57.714Z</time></trkpt><trkpt lat="45.66654086669828" lon="8.223677389356192"><ele>517.0</ele><time>2026-04-03T13:16:58.714Z</time></trkpt><trkpt lat="45.66662678321011" lon="8.223657710320916"><ele>517.0</ele><time>2026-04-03T13:16:59.714Z</time></trkpt><trkpt lat="45.66669800639394" lon="8.223687714447324"><ele>517.0</ele><time>2026-04-03T13:17:00.714Z</time></trkpt><trkpt lat="45.66674254841568" lon="8.223765660351155"><ele>517.0</ele><time>2026-04-03T13:17:01.714Z</time></trkpt><trkpt lat="45.66680916302895" lon="8.22383170329578"><ele>517.0</ele><time>2026-04-03T13:17:02.714Z</time></trkpt><trkpt lat="45.66687759111671" lon="8.223877271889801"><ele>517.0</ele><time>2026-04-03T13:17:03.714Z</time></trkpt><trkpt lat="45.66694869219172" lon="8.223867168127116"><ele>517.0</ele><time>2026-04-03T13:17:04.714Z</time></trkpt><trkpt lat="45.66702150716352" lon="8.22379278060866"><ele>522.0</ele><time>2026-04-03T13:17:05.713Z</time></trkpt><trkpt lat="45.66711187778568" lon="8.223672908604152"><ele>527.0</ele><time>2026-04-03T13:17:06.713Z</time></trkpt><trkpt lat="45.66719944003694" lon="8.223568381122279"><ele>532.0</ele><time>2026-04-03T13:17:07.713Z</time></trkpt><trkpt lat="45.66726898524172" lon="8.223454161839026"><ele>537.0</ele><time>2026-04-03T13:17:08.713Z</time></trkpt><trkpt lat="45.66730243830518" lon="8.223278506889725"><ele>532.5</ele><time>2026-04-03T13:17:09.713Z</time></trkpt><trkpt lat="45.66729918989023" lon="8.223096353974672"><ele>528.0</ele><time>2026-04-03T13:17:10.713Z</time></trkpt><trkpt lat="45.66728265153531" lon="8.222875515833062"><ele>523.5</ele><time>2026-04-03T13:17:11.713Z</time></trkpt><trkpt lat="45.66726637302712" lon="8.222679937527383"><ele>519.0</ele><time>2026-04-03T13:17:12.713Z</time></trkpt><trkpt lat="45.667257603824346" lon="8.22250254595667"><ele>519.0</ele><time>2026-04-03T13:17:13.713Z</time></trkpt><trkpt lat="45.667277773907195" lon="8.222327544319924"><ele>519.0</ele><time>2026-04-03T13:17:14.713Z</time></trkpt><trkpt lat="45.66731867848174" lon="8.22213284234092"><ele>519.0</ele><time>2026-04-03T13:17:15.713Z</time></trkpt><trkpt lat="45.66736031051418" lon="8.221971022490907"><ele>519.0</ele><time>2026-04-03T13:17:16.713Z</time></trkpt><trkpt lat="45.66738481960754" lon="8.221842504550226"><ele>515.8</ele><time>2026-04-03T13:17:17.713Z</time></trkpt><trkpt lat="45.66740172611637" lon="8.221732366175617"><ele>512.5999999999999</ele><time>2026-04-03T13:17:18.713Z</time></trkpt><trkpt lat="45.66745559701153" lon="8.221660436265637"><ele>509.4</ele><time>2026-04-03T13:17:19.713Z</time></trkpt><trkpt lat="45.66753228312169" lon="8.221623221174527"><ele>506.2</ele><time>2026-04-03T13:17:20.713Z</time></trkpt><trkpt lat="45.667636624550134" lon="8.22158510463932"><ele>503.0</ele><time>2026-04-03T13:17:21.713Z</time></trkpt><trkpt lat="45.66772737364346" lon="8.221467933205806"><ele>498.0</ele><time>2026-04-03T13:17:22.713Z</time></trkpt><trkpt lat="45.66780438271525" lon="8.221302688760401"><ele>493.0</ele><time>2026-04-03T13:17:23.713Z</time></trkpt><trkpt lat="45.66788158406641" lon="8.221184781394326"><ele>488.0</ele><time>2026-04-03T13:17:24.713Z</time></trkpt><trkpt lat="45.667966965379925" lon="8.22110191832009"><ele>483.0</ele><time>2026-04-03T13:17:25.713Z</time></trkpt><trkpt lat="45.668059117919825" lon="8.221049010742416"><ele>483.0</ele><time>2026-04-03T13:17:26.713Z</time></trkpt><trkpt lat="45.66815461621445" lon="8.221030884068867"><ele>482.99999999999994</ele><time>2026-04-03T13:17:27.713Z</time></trkpt><trkpt lat="45.66823619309295" lon="8.22106072630952"><ele>482.99999999999994</ele><time>2026-04-03T13:17:28.713Z</time></trkpt><trkpt lat="45.66830772684479" lon="8.221136673202512"><ele>483.0</ele><time>2026-04-03T13:17:29.713Z</time></trkpt><trkpt lat="45.66837916519276" lon="8.221278817438353"><ele>483.0</ele><time>2026-04-03T13:17:30.713Z</time></trkpt><trkpt lat="45.66843597038576" lon="8.221429240262301"><ele>486.0</ele><time>2026-04-03T13:17:31.713Z</time></trkpt><trkpt lat="45.66847863223989" lon="8.221560606589339"><ele>488.99999999999994</ele><time>2026-04-03T13:17:32.713Z</time></trkpt><trkpt lat="45.66853340979303" lon="8.221672252332233"><ele>491.99999999999994</ele><time>2026-04-03T13:17:33.713Z</time></trkpt><trkpt lat="45.66860575445421" lon="8.221778856013948"><ele>495.0</ele><time>2026-04-03T13:17:34.713Z</time></trkpt><trkpt lat="45.66867460680977" lon="8.221879679655428"><ele>498.0</ele><time>2026-04-03T13:17:35.713Z</time></trkpt><trkpt lat="45.6687317869954" lon="8.221958551518926"><ele>498.0</ele><time>2026-04-03T13:17:36.713Z</time></trkpt><trkpt lat="45.668842412353264" lon="8.222026076099619"><ele>497.99999999999994</ele><time>2026-04-03T13:17:38.713Z</time></trkpt><trkpt lat="45.66893811558432" lon="8.221941820357388"><ele>497.99999999999994</ele><time>2026-04-03T13:17:40.713Z</time></trkpt><trkpt lat="45.669006539466714" lon="8.221838119986188"><ele>498.0</ele><time>2026-04-03T13:17:41.713Z</time></trkpt><trkpt lat="45.66903798485877" lon="8.221677028688804"><ele>498.0</ele><time>2026-04-03T13:17:42.713Z</time></trkpt><trkpt lat="45.669055532806475" lon="8.221532298665219"><ele>493.5</ele><time>2026-04-03T13:17:43.713Z</time></trkpt><trkpt lat="45.669069832023865" lon="8.221417521868135"><ele>489.0</ele><time>2026-04-03T13:17:44.713Z</time></trkpt><trkpt lat="45.66909608126181" lon="8.221310552836387"><ele>484.5</ele><time>2026-04-03T13:17:45.713Z</time></trkpt><trkpt lat="45.66916931218389" lon="8.221260324152443"><ele>480.0</ele><time>2026-04-03T13:17:46.713Z</time></trkpt><trkpt lat="45.66925449269525" lon="8.221272084118272"><ele>475.5</ele><time>2026-04-03T13:17:47.713Z</time></trkpt><trkpt lat="45.66936050848585" lon="8.22132148000119"><ele>471.0</ele><time>2026-04-03T13:17:48.713Z</time></trkpt><trkpt lat="45.66948547774089" lon="8.221375436342012"><ele>467.66666666666663</ele><time>2026-04-03T13:17:49.713Z</time></trkpt><trkpt lat="45.66964272449471" lon="8.221356182318946"><ele>464.3333333333333</ele><time>2026-04-03T13:17:50.713Z</time></trkpt><trkpt lat="45.66979252295774" lon="8.221305545691605"><ele>461.0</ele><time>2026-04-03T13:17:51.713Z</time></trkpt><trkpt lat="45.66994047641228" lon="8.221307847658844"><ele>461.0</ele><time>2026-04-03T13:17:52.713Z</time></trkpt><trkpt lat="45.67006757810575" lon="8.22131993478179"><ele>461.0</ele><time>2026-04-03T13:17:53.712Z</time></trkpt><trkpt lat="45.67019437608595" lon="8.221268529015436"><ele>461.0</ele><time>2026-04-03T13:17:54.787Z</time></trkpt><trkpt lat="45.67029270730761" lon="8.221148293183226"><ele>461.0</ele><time>2026-04-03T13:17:55.787Z</time></trkpt><trkpt lat="45.67038994947417" lon="8.221026385455206"><ele>462.75</ele><time>2026-04-03T13:17:56.787Z</time></trkpt><trkpt lat="45.670502994335706" lon="8.220947975949644"><ele>464.5</ele><time>2026-04-03T13:17:57.788Z</time></trkpt><trkpt lat="45.67062714887114" lon="8.220902045412275"><ele>466.25</ele><time>2026-04-03T13:17:58.788Z</time></trkpt><trkpt lat="45.67074148127631" lon="8.220871728631796"><ele>468.0</ele><time>2026-04-03T13:17:59.788Z</time></trkpt><trkpt lat="45.67085077926664" lon="8.220869736232977"><ele>468.0</ele><time>2026-04-03T13:18:00.789Z</time></trkpt><trkpt lat="45.67094738536164" lon="8.220910690756105"><ele>467.99999999999994</ele><time>2026-04-03T13:18:01.789Z</time></trkpt><trkpt lat="45.67104148103048" lon="8.220993948908715"><ele>467.99999999999994</ele><time>2026-04-03T13:18:02.789Z</time></trkpt><trkpt lat="45.67113297165756" lon="8.22108094170699"><ele>468.0</ele><time>2026-04-03T13:18:03.789Z</time></trkpt><trkpt lat="45.67122520789734" lon="8.221133144638776"><ele>468.0</ele><time>2026-04-03T13:18:04.789Z</time></trkpt><trkpt lat="45.67132269609842" lon="8.221158195326574"><ele>465.4</ele><time>2026-04-03T13:18:05.79Z</time></trkpt><trkpt lat="45.671430284098655" lon="8.221164073505362"><ele>462.79999999999995</ele><time>2026-04-03T13:18:06.79Z</time></trkpt><trkpt lat="45.67151634552453" lon="8.221160364158294"><ele>460.2</ele><time>2026-04-03T13:18:07.79Z</time></trkpt><trkpt lat="45.67161295607554" lon="8.221095532332855"><ele>457.6</ele><time>2026-04-03T13:18:09.79Z</time></trkpt><trkpt lat="45.671641774290585" lon="8.220968925715397"><ele>455.0</ele><time>2026-04-03T13:18:11.79Z</time></trkpt><trkpt lat="45.67161089229486" lon="8.220886657192217"><ele>455.0</ele><time>2026-04-03T13:18:12.791Z</time></trkpt><trkpt lat="45.67152081451721" lon="8.220838321043335"><ele>455.0</ele><time>2026-04-03T13:18:13.791Z</time></trkpt><trkpt lat="45.671424621222556" lon="8.220852544738726"><ele>455.0</ele><time>2026-04-03T13:18:14.791Z</time></trkpt><trkpt lat="45.67133588942219" lon="8.220852838848986"><ele>455.0</ele><time>2026-04-03T13:18:15.791Z</time></trkpt><trkpt lat="45.67125256688732" lon="8.220800668110993"><ele>455.0</ele><time>2026-04-03T13:18:16.791Z</time></trkpt><trkpt lat="45.67118970477774" lon="8.220709089937293"><ele>451.6</ele><time>2026-04-03T13:18:17.791Z</time></trkpt><trkpt lat="45.6711332857921" lon="8.220598432133206"><ele>448.2</ele><time>2026-04-03T13:18:18.791Z</time></trkpt><trkpt lat="45.671081941554306" lon="8.220516887802368"><ele>444.79999999999995</ele><time>2026-04-03T13:18:19.791Z</time></trkpt><trkpt lat="45.6709985502669" lon="8.220451041325239"><ele>441.4</ele><time>2026-04-03T13:18:20.791Z</time></trkpt><trkpt lat="45.67089272185164" lon="8.220455019919182"><ele>438.0</ele><time>2026-04-03T13:18:21.791Z</time></trkpt><trkpt lat="45.67077667017304" lon="8.220486413391418"><ele>438.0</ele><time>2026-04-03T13:18:22.791Z</time></trkpt><trkpt lat="45.67064197869941" lon="8.22052333488426"><ele>438.0</ele><time>2026-04-03T13:18:23.792Z</time></trkpt><trkpt lat="45.670502821021955" lon="8.220537125244965"><ele>438.0</ele><time>2026-04-03T13:18:24.792Z</time></trkpt><trkpt lat="45.67037519869623" lon="8.220503776318008"><ele>438.0</ele><time>2026-04-03T13:18:25.792Z</time></trkpt><trkpt lat="45.67024250694913" lon="8.220468344985358"><ele>438.5</ele><time>2026-04-03T13:18:26.792Z</time></trkpt><trkpt lat="45.67010782988988" lon="8.220463498002644"><ele>439.0</ele><time>2026-04-03T13:18:27.792Z</time></trkpt><trkpt lat="45.66996708621536" lon="8.22050220806368"><ele>439.5</ele><time>2026-04-03T13:18:28.792Z</time></trkpt><trkpt lat="45.66984522523313" lon="8.220529762575826"><ele>440.0</ele><time>2026-04-03T13:18:29.792Z</time></trkpt><trkpt lat="45.669727883920885" lon="8.220543963914281"><ele>440.0</ele><time>2026-04-03T13:18:30.792Z</time></trkpt><trkpt lat="45.669615808041044" lon="8.220540061341799"><ele>440.0</ele><time>2026-04-03T13:18:31.792Z</time></trkpt><trkpt lat="45.669504740368886" lon="8.22048920058669"><ele>440.0</ele><time>2026-04-03T13:18:32.793Z</time></trkpt><trkpt lat="45.66938867887639" lon="8.22041083066961"><ele>440.0</ele><time>2026-04-03T13:18:33.793Z</time></trkpt><trkpt lat="45.66927764653192" lon="8.220334773935548"><ele>442.49999999999994</ele><time>2026-04-03T13:18:34.793Z</time></trkpt><trkpt lat="45.669190899882416" lon="8.220269785405625"><ele>445.0</ele><time>2026-04-03T13:18:35.793Z</time></trkpt><trkpt lat="45.66912231702199" lon="8.22020622422273"><ele>447.5</ele><time>2026-04-03T13:18:36.793Z</time></trkpt><trkpt lat="45.669070890640484" lon="8.2201477522463"><ele>450.0</ele><time>2026-04-03T13:18:37.793Z</time></trkpt><trkpt lat="45.669058619557816" lon="8.220059138173898"><ele>452.49999999999994</ele><time>2026-04-03T13:18:38.794Z</time></trkpt><trkpt lat="45.66912550498181" lon="8.21991637828055"><ele>455.0</ele><time>2026-04-03T13:18:40.793Z</time></trkpt><trkpt lat="45.669195434118805" lon="8.219874653138298"><ele>455.0</ele><time>2026-04-03T13:18:41.793Z</time></trkpt><trkpt lat="45.66928682003631" lon="8.219885140526863"><ele>455.0</ele><time>2026-04-03T13:18:42.794Z</time></trkpt><trkpt lat="45.66939041338538" lon="8.219919394683624"><ele>455.0</ele><time>2026-04-03T13:18:43.794Z</time></trkpt><trkpt lat="45.66949216104486" lon="8.219933045245375"><ele>455.0</ele><time>2026-04-03T13:18:44.794Z</time></trkpt><trkpt lat="45.669589025663655" lon="8.219922815236927"><ele>455.0</ele><time>2026-04-03T13:18:45.794Z</time></trkpt><trkpt lat="45.66970867321987" lon="8.219858647029051"><ele>455.0</ele><time>2026-04-03T13:18:46.794Z</time></trkpt><trkpt lat="45.66985215447963" lon="8.219759865427777"><ele>455.0</ele><time>2026-04-03T13:18:47.794Z</time></trkpt><trkpt lat="45.67000510859541" lon="8.219661283146959"><ele>455.0</ele><time>2026-04-03T13:18:48.794Z</time></trkpt><trkpt lat="45.67016092977888" lon="8.219575542224623"><ele>449.3333333333333</ele><time>2026-04-03T13:18:49.794Z</time></trkpt><trkpt lat="45.670334024624374" lon="8.219511480117468"><ele>443.66666666666663</ele><time>2026-04-03T13:18:50.794Z</time></trkpt><trkpt lat="45.67050409628876" lon="8.219455353349753"><ele>438.0</ele><time>2026-04-03T13:18:51.794Z</time></trkpt><trkpt lat="45.67068128603313" lon="8.219400055676301"><ele>438.0</ele><time>2026-04-03T13:18:52.794Z</time></trkpt><trkpt lat="45.67086571937181" lon="8.219344424120395"><ele>438.0</ele><time>2026-04-03T13:18:53.794Z</time></trkpt><trkpt lat="45.671043420356774" lon="8.219291826260712"><ele>438.0</ele><time>2026-04-03T13:18:54.794Z</time></trkpt><trkpt lat="45.67120390597262" lon="8.219252133177918"><ele>435.5</ele><time>2026-04-03T13:18:55.794Z</time></trkpt><trkpt lat="45.671353593974075" lon="8.21923041968405"><ele>433.0</ele><time>2026-04-03T13:18:56.794Z</time></trkpt><trkpt lat="45.6715001406429" lon="8.219217278513787"><ele>430.5</ele><time>2026-04-03T13:18:57.794Z</time></trkpt><trkpt lat="45.67164231793066" lon="8.219206692299178"><ele>428.0</ele><time>2026-04-03T13:18:58.794Z</time></trkpt><trkpt lat="45.67177459021856" lon="8.219192896271252"><ele>428.0</ele><time>2026-04-03T13:18:59.794Z</time></trkpt><trkpt lat="45.67188909400399" lon="8.219187668165285"><ele>427.99999999999994</ele><time>2026-04-03T13:19:00.794Z</time></trkpt><trkpt lat="45.67199623930081" lon="8.21921295484484"><ele>427.99999999999994</ele><time>2026-04-03T13:19:01.794Z</time></trkpt><trkpt lat="45.672088057741036" lon="8.219241185527823"><ele>428.0</ele><time>2026-04-03T13:19:02.794Z</time></trkpt><trkpt lat="45.67216141185245" lon="8.219265474938803"><ele>428.0</ele><time>2026-04-03T13:19:03.794Z</time></trkpt><trkpt lat="45.672246754101934" lon="8.219299357168964"><ele>425.3333333333333</ele><time>2026-04-03T13:19:05.794Z</time></trkpt><trkpt lat="45.672314100859374" lon="8.219320149747414"><ele>422.66666666666663</ele><time>2026-04-03T13:19:08.794Z</time></trkpt><trkpt lat="45.672305827305564" lon="8.219505722741692"><ele>420.0</ele><time>2026-04-03T13:19:09.794Z</time></trkpt><trkpt lat="45.672299070193766" lon="8.219620650566096"><ele>417.33333333333337</ele><time>2026-04-03T13:19:10.794Z</time></trkpt><trkpt lat="45.672296687429764" lon="8.219730374583794"><ele>414.6666666666667</ele><time>2026-04-03T13:19:11.794Z</time></trkpt><trkpt lat="45.67229454469994" lon="8.219851839510417"><ele>412.0</ele><time>2026-04-03T13:19:12.794Z</time></trkpt><trkpt lat="45.672295656782445" lon="8.219990680838682"><ele>412.0</ele><time>2026-04-03T13:19:13.794Z</time></trkpt><trkpt lat="45.67228905004365" lon="8.220147901501331"><ele>412.0</ele><time>2026-04-03T13:19:14.794Z</time></trkpt><trkpt lat="45.67228768413141" lon="8.220310990959435"><ele>412.0</ele><time>2026-04-03T13:19:15.795Z</time></trkpt><trkpt lat="45.67228826777178" lon="8.220466195001464"><ele>412.0</ele><time>2026-04-03T13:19:16.795Z</time></trkpt><trkpt lat="45.672298156770076" lon="8.220631221362005"><ele>412.0</ele><time>2026-04-03T13:19:17.795Z</time></trkpt><trkpt lat="45.67232790510302" lon="8.220801131763205"><ele>413.0</ele><time>2026-04-03T13:19:18.795Z</time></trkpt><trkpt lat="45.67238348718433" lon="8.220968962787484"><ele>414.0</ele><time>2026-04-03T13:19:19.795Z</time></trkpt><trkpt lat="45.67245779548998" lon="8.221138000801552"><ele>415.0</ele><time>2026-04-03T13:19:20.795Z</time></trkpt><trkpt lat="45.67254300143554" lon="8.221314005255252"><ele>416.0</ele><time>2026-04-03T13:19:21.795Z</time></trkpt><trkpt lat="45.67263507507909" lon="8.221501288131977"><ele>414.0</ele><time>2026-04-03T13:19:22.795Z</time></trkpt><trkpt lat="45.67273355480138" lon="8.221694395168834"><ele>412.0</ele><time>2026-04-03T13:19:23.795Z</time></trkpt><trkpt lat="45.67285209338008" lon="8.22184210491034"><ele>410.0</ele><time>2026-04-03T13:19:24.795Z</time></trkpt><trkpt lat="45.672930923782914" lon="8.222074324589025"><ele>410.0</ele><time>2026-04-03T13:19:25.795Z</time></trkpt><trkpt lat="45.67303440938154" lon="8.222274058537568"><ele>410.0</ele><time>2026-04-03T13:19:26.795Z</time></trkpt><trkpt lat="45.6731431388003" lon="8.22248150533299"><ele>410.0</ele><time>2026-04-03T13:19:27.795Z</time></trkpt><trkpt lat="45.673254727347846" lon="8.222690412374634"><ele>412.3333333333333</ele><time>2026-04-03T13:19:28.795Z</time></trkpt><trkpt lat="45.67336065025497" lon="8.222906007375098"><ele>414.66666666666663</ele><time>2026-04-03T13:19:29.795Z</time></trkpt><trkpt lat="45.673469876907376" lon="8.223126059169882"><ele>417.0</ele><time>2026-04-03T13:19:30.795Z</time></trkpt><trkpt lat="45.673586320588974" lon="8.223351178508912"><ele>413.33333333333337</ele><time>2026-04-03T13:19:31.795Z</time></trkpt><trkpt lat="45.673699807146875" lon="8.223576493346052"><ele>409.6666666666667</ele><time>2026-04-03T13:19:32.795Z</time></trkpt><trkpt lat="45.67380784000081" lon="8.223784975467005"><ele>406.0</ele><time>2026-04-03T13:19:33.795Z</time></trkpt><trkpt lat="45.673907136694154" lon="8.223992234764914"><ele>406.0</ele><time>2026-04-03T13:19:34.795Z</time></trkpt><trkpt lat="45.673993620547414" lon="8.224204748683832"><ele>406.0</ele><time>2026-04-03T13:19:35.795Z</time></trkpt><trkpt lat="45.67407450066791" lon="8.224431453436502"><ele>406.0</ele><time>2026-04-03T13:19:36.795Z</time></trkpt><trkpt lat="45.67414311973615" lon="8.224671275309124"><ele>410.6666666666667</ele><time>2026-04-03T13:19:37.795Z</time></trkpt><trkpt lat="45.67421144285847" lon="8.224921030528188"><ele>415.33333333333337</ele><time>2026-04-03T13:19:38.795Z</time></trkpt><trkpt lat="45.674266885588395" lon="8.225185504911945"><ele>420.0</ele><time>2026-04-03T13:19:39.795Z</time></trkpt><trkpt lat="45.67430040547045" lon="8.225461966628128"><ele>422.0</ele><time>2026-04-03T13:19:40.795Z</time></trkpt><trkpt lat="45.6743131287206" lon="8.22574792988598"><ele>424.0</ele><time>2026-04-03T13:19:41.795Z</time></trkpt><trkpt lat="45.674309776285234" lon="8.22603697916338"><ele>426.0</ele><time>2026-04-03T13:19:42.795Z</time></trkpt><trkpt lat="45.674286754060795" lon="8.226325652326043"><ele>422.66666666666663</ele><time>2026-04-03T13:19:43.795Z</time></trkpt><trkpt lat="45.67424698886379" lon="8.22661175274446"><ele>419.3333333333333</ele><time>2026-04-03T13:19:44.795Z</time></trkpt><trkpt lat="45.67420506626111" lon="8.22688753352276"><ele>416.0</ele><time>2026-04-03T13:19:45.795Z</time></trkpt><trkpt lat="45.67416537090859" lon="8.227148614566554"><ele>413.66666666666663</ele><time>2026-04-03T13:19:46.795Z</time></trkpt><trkpt lat="45.67412587678408" lon="8.227396735880026"><ele>411.33333333333337</ele><time>2026-04-03T13:19:47.795Z</time></trkpt><trkpt lat="45.67408966708635" lon="8.227634261721734"><ele>409.0</ele><time>2026-04-03T13:19:48.795Z</time></trkpt><trkpt lat="45.67405348037528" lon="8.22786339390115"><ele>409.0</ele><time>2026-04-03T13:19:49.795Z</time></trkpt><trkpt lat="45.67401776288234" lon="8.228079888642965"><ele>409.0</ele><time>2026-04-03T13:19:50.795Z</time></trkpt><trkpt lat="45.67398581940616" lon="8.22828496149531"><ele>409.0</ele><time>2026-04-03T13:19:51.795Z</time></trkpt><trkpt lat="45.67395504011272" lon="8.228484500565813"><ele>409.0</ele><time>2026-04-03T13:19:52.795Z</time></trkpt><trkpt lat="45.67392651398327" lon="8.22868081078557"><ele>407.5</ele><time>2026-04-03T13:19:53.795Z</time></trkpt><trkpt lat="45.67389334471012" lon="8.2288850783396"><ele>406.0</ele><time>2026-04-03T13:19:54.795Z</time></trkpt><trkpt lat="45.673866671782946" lon="8.22909159130013"><ele>404.5</ele><time>2026-04-03T13:19:55.795Z</time></trkpt><trkpt lat="45.67385176560462" lon="8.229301150367816"><ele>403.0</ele><time>2026-04-03T13:19:56.795Z</time></trkpt><trkpt lat="45.67384985321019" lon="8.229514848225705"><ele>402.6666666666667</ele><time>2026-04-03T13:19:57.795Z</time></trkpt><trkpt lat="45.6738565904622" lon="8.229733962742575"><ele>402.33333333333337</ele><time>2026-04-03T13:19:58.795Z</time></trkpt><trkpt lat="45.673867125541" lon="8.229953541710232"><ele>402.0</ele><time>2026-04-03T13:19:59.795Z</time></trkpt><trkpt lat="45.67388399932448" lon="8.23017085180233"><ele>402.0</ele><time>2026-04-03T13:20:00.795Z</time></trkpt><trkpt lat="45.67391099192191" lon="8.230379642624456"><ele>402.0</ele><time>2026-04-03T13:20:01.795Z</time></trkpt><trkpt lat="45.67394304423426" lon="8.230578616280578"><ele>402.0</ele><time>2026-04-03T13:20:02.795Z</time></trkpt><trkpt lat="45.6739848176908" lon="8.230777165211201"><ele>402.0</ele><time>2026-04-03T13:20:03.795Z</time></trkpt><trkpt lat="45.67403653712617" lon="8.23097316096004"><ele>402.0</ele><time>2026-04-03T13:20:04.795Z</time></trkpt><trkpt lat="45.674091865210386" lon="8.231169336599123"><ele>402.0</ele><time>2026-04-03T13:20:05.795Z</time></trkpt><trkpt lat="45.67415336496333" lon="8.231364649635447"><ele>402.0</ele><time>2026-04-03T13:20:06.795Z</time></trkpt><trkpt lat="45.6742223067283" lon="8.231558872175063"><ele>402.0</ele><time>2026-04-03T13:20:07.795Z</time></trkpt><trkpt lat="45.67429929342257" lon="8.231749772692257"><ele>402.0</ele><time>2026-04-03T13:20:08.796Z</time></trkpt><trkpt lat="45.67438527682645" lon="8.231936205460315"><ele>402.0</ele><time>2026-04-03T13:20:09.796Z</time></trkpt><trkpt lat="45.67447957070794" lon="8.232139426050411"><ele>400.0</ele><time>2026-04-03T13:20:10.796Z</time></trkpt><trkpt lat="45.674600403637285" lon="8.232344043230048"><ele>398.0</ele><time>2026-04-03T13:20:11.796Z</time></trkpt><trkpt lat="45.6747519983134" lon="8.23253951921171"><ele>396.0</ele><time>2026-04-03T13:20:12.796Z</time></trkpt><trkpt lat="45.67489858204055" lon="8.232764062220477"><ele>396.0</ele><time>2026-04-03T13:20:13.796Z</time></trkpt><trkpt lat="45.67506162674987" lon="8.23299407738211"><ele>396.0</ele><time>2026-04-03T13:20:14.796Z</time></trkpt><trkpt lat="45.675242670735585" lon="8.233237252625525"><ele>394.5</ele><time>2026-04-03T13:20:15.796Z</time></trkpt><trkpt lat="45.67541889160637" lon="8.233473667684818"><ele>393.0</ele><time>2026-04-03T13:20:16.796Z</time></trkpt><trkpt lat="45.67558438113274" lon="8.23369209997578"><ele>393.0</ele><time>2026-04-03T13:20:17.796Z</time></trkpt><trkpt lat="45.67574389404028" lon="8.233904548637557"><ele>393.0</ele><time>2026-04-03T13:20:18.796Z</time></trkpt><trkpt lat="45.67588993345167" lon="8.234125874503865"><ele>393.0</ele><time>2026-04-03T13:20:19.796Z</time></trkpt><trkpt lat="45.67602371714647" lon="8.234355300659935"><ele>392.0</ele><time>2026-04-03T13:20:20.796Z</time></trkpt><trkpt lat="45.676133820464" lon="8.234594009429108"><ele>391.0</ele><time>2026-04-03T13:20:21.796Z</time></trkpt><trkpt lat="45.67621724418001" lon="8.234840218659505"><ele>390.0</ele><time>2026-04-03T13:20:22.796Z</time></trkpt><trkpt lat="45.676284864433455" lon="8.235100524756055"><ele>390.0</ele><time>2026-04-03T13:20:23.796Z</time></trkpt><trkpt lat="45.67632749712482" lon="8.235377153732014"><ele>390.0</ele><time>2026-04-03T13:20:24.796Z</time></trkpt><trkpt lat="45.676343822785775" lon="8.235665519563689"><ele>390.0</ele><time>2026-04-03T13:20:25.796Z</time></trkpt><trkpt lat="45.676337978094615" lon="8.235967757405543"><ele>391.0</ele><time>2026-04-03T13:20:26.796Z</time></trkpt><trkpt lat="45.67632382470426" lon="8.236273753603168"><ele>392.0</ele><time>2026-04-03T13:20:27.796Z</time></trkpt><trkpt lat="45.67629916734042" lon="8.23658515841304"><ele>393.0</ele><time>2026-04-03T13:20:28.796Z</time></trkpt><trkpt lat="45.67626690374659" lon="8.236898607469596"><ele>393.0</ele><time>2026-04-03T13:20:29.796Z</time></trkpt><trkpt lat="45.67623666437651" lon="8.237211284834034"><ele>393.0</ele><time>2026-04-03T13:20:30.796Z</time></trkpt><trkpt lat="45.67621538273603" lon="8.237521053798996"><ele>393.0</ele><time>2026-04-03T13:20:31.796Z</time></trkpt><trkpt lat="45.676201515899514" lon="8.23782781060572"><ele>393.0</ele><time>2026-04-03T13:20:32.796Z</time></trkpt><trkpt lat="45.67618995454693" lon="8.238133065230382"><ele>393.0</ele><time>2026-04-03T13:20:33.796Z</time></trkpt><trkpt lat="45.676179989693416" lon="8.238435044893698"><ele>393.0</ele><time>2026-04-03T13:20:34.796Z</time></trkpt><trkpt lat="45.67617447731259" lon="8.238729491904078"><ele>392.66666666666663</ele><time>2026-04-03T13:20:35.796Z</time></trkpt><trkpt lat="45.67618478825695" lon="8.239013216860004"><ele>392.3333333333333</ele><time>2026-04-03T13:20:36.796Z</time></trkpt><trkpt lat="45.67621144414599" lon="8.239304079772197"><ele>392.0</ele><time>2026-04-03T13:20:37.798Z</time></trkpt><trkpt lat="45.67625818922992" lon="8.2395932014261"><ele>392.3333333333333</ele><time>2026-04-03T13:20:38.798Z</time></trkpt><trkpt lat="45.676318182553615" lon="8.23987681178388"><ele>392.66666666666663</ele><time>2026-04-03T13:20:39.798Z</time></trkpt><trkpt lat="45.676392729728185" lon="8.240159682145126"><ele>393.0</ele><time>2026-04-03T13:20:40.797Z</time></trkpt><trkpt lat="45.67647870084848" lon="8.240438420303315"><ele>393.66666666666663</ele><time>2026-04-03T13:20:41.798Z</time></trkpt><trkpt lat="45.67658365661412" lon="8.240708767815418"><ele>394.3333333333333</ele><time>2026-04-03T13:20:42.798Z</time></trkpt><trkpt lat="45.67669660864667" lon="8.240971537967289"><ele>395.0</ele><time>2026-04-03T13:20:43.797Z</time></trkpt><trkpt lat="45.676827381406746" lon="8.24122305777067"><ele>392.66666666666663</ele><time>2026-04-03T13:20:44.798Z</time></trkpt><trkpt lat="45.67697243087886" lon="8.241455573369858"><ele>390.33333333333337</ele><time>2026-04-03T13:20:45.798Z</time></trkpt><trkpt lat="45.67712532222944" lon="8.241675509001018"><ele>388.0</ele><time>2026-04-03T13:20:46.797Z</time></trkpt><trkpt lat="45.67727912390345" lon="8.24189205478817"><ele>388.0</ele><time>2026-04-03T13:20:47.798Z</time></trkpt><trkpt lat="45.67743319480372" lon="8.242103397897507"><ele>388.0</ele><time>2026-04-03T13:20:48.798Z</time></trkpt><trkpt lat="45.677585444607864" lon="8.242314790532756"><ele>388.0</ele><time>2026-04-03T13:20:49.798Z</time></trkpt><trkpt lat="45.67773599304795" lon="8.242522535128346"><ele>387.0</ele><time>2026-04-03T13:20:50.798Z</time></trkpt><trkpt lat="45.67788532861066" lon="8.242725968019537"><ele>386.0</ele><time>2026-04-03T13:20:51.798Z</time></trkpt><trkpt lat="45.678035797359236" lon="8.24293025979869"><ele>385.0</ele><time>2026-04-03T13:20:52.798Z</time></trkpt><trkpt lat="45.678186148987386" lon="8.243135825326044"><ele>385.0</ele><time>2026-04-03T13:20:53.798Z</time></trkpt><trkpt lat="45.67833874502294" lon="8.243343014437702"><ele>385.0</ele><time>2026-04-03T13:20:54.798Z</time></trkpt><trkpt lat="45.67848987049486" lon="8.243544194258947"><ele>385.0</ele><time>2026-04-03T13:20:55.798Z</time></trkpt><trkpt lat="45.67863773485971" lon="8.243740090372489"><ele>385.33333333333337</ele><time>2026-04-03T13:20:56.798Z</time></trkpt><trkpt lat="45.67878145907631" lon="8.243935775517585"><ele>385.66666666666663</ele><time>2026-04-03T13:20:57.798Z</time></trkpt><trkpt lat="45.678927895540355" lon="8.244138908881503"><ele>386.0</ele><time>2026-04-03T13:20:58.798Z</time></trkpt><trkpt lat="45.679069865858885" lon="8.244350267892836"><ele>386.0</ele><time>2026-04-03T13:20:59.798Z</time></trkpt><trkpt lat="45.67921744479815" lon="8.244559261794198"><ele>386.0</ele><time>2026-04-03T13:21:00.798Z</time></trkpt><trkpt lat="45.67936444349745" lon="8.244769080128705"><ele>386.0</ele><time>2026-04-03T13:21:01.798Z</time></trkpt><trkpt lat="45.6795127159489" lon="8.24497197754809"><ele>384.3333333333333</ele><time>2026-04-03T13:21:02.798Z</time></trkpt><trkpt lat="45.67966142567258" lon="8.24517596613147"><ele>382.66666666666663</ele><time>2026-04-03T13:21:03.798Z</time></trkpt><trkpt lat="45.67980192355518" lon="8.245386238118884"><ele>381.0</ele><time>2026-04-03T13:21:04.798Z</time></trkpt><trkpt lat="45.679935792902185" lon="8.245601931696022"><ele>381.3333333333333</ele><time>2026-04-03T13:21:05.798Z</time></trkpt><trkpt lat="45.68006232031399" lon="8.245818424646522"><ele>381.66666666666663</ele><time>2026-04-03T13:21:06.798Z</time></trkpt><trkpt lat="45.680184154153345" lon="8.24604150162814"><ele>382.0</ele><time>2026-04-03T13:21:07.799Z</time></trkpt><trkpt lat="45.68030035093151" lon="8.246270687341715"><ele>380.0</ele><time>2026-04-03T13:21:08.799Z</time></trkpt><trkpt lat="45.680408164228915" lon="8.246507509214338"><ele>378.0</ele><time>2026-04-03T13:21:09.799Z</time></trkpt><trkpt lat="45.680507083952875" lon="8.246749234210277"><ele>376.0</ele><time>2026-04-03T13:21:10.799Z</time></trkpt><trkpt lat="45.6806025079083" lon="8.246988041396168"><ele>376.0</ele><time>2026-04-03T13:21:11.799Z</time></trkpt><trkpt lat="45.6806930906973" lon="8.247213958354614"><ele>376.0</ele><time>2026-04-03T13:21:12.799Z</time></trkpt><trkpt lat="45.680782451754396" lon="8.247431746281151"><ele>376.0</ele><time>2026-04-03T13:21:13.799Z</time></trkpt><trkpt lat="45.68086670658946" lon="8.24763672501585"><ele>376.25</ele><time>2026-04-03T13:21:14.799Z</time></trkpt><trkpt lat="45.680942246388206" lon="8.24782980992735"><ele>376.5</ele><time>2026-04-03T13:21:15.799Z</time></trkpt><trkpt lat="45.68100510715951" lon="8.24798134915735"><ele>376.75</ele><time>2026-04-03T13:21:16.799Z</time></trkpt><trkpt lat="45.68105997571734" lon="8.248109027009543"><ele>377.0</ele><time>2026-04-03T13:21:17.799Z</time></trkpt><trkpt lat="45.681103540110556" lon="8.248233436030825"><ele>377.0</ele><time>2026-04-03T13:21:18.799Z</time></trkpt><trkpt lat="45.68116493366213" lon="8.248327153684311"><ele>377.0</ele><time>2026-04-03T13:21:19.799Z</time></trkpt><trkpt lat="45.681228303066106" lon="8.248413439760862"><ele>377.0</ele><time>2026-04-03T13:21:20.799Z</time></trkpt><trkpt lat="45.68120650671587" lon="8.248614020316746"><ele>377.0</ele><time>2026-04-03T13:21:21.799Z</time></trkpt><trkpt lat="45.68119707633227" lon="8.248742047653565"><ele>377.0</ele><time>2026-04-03T13:21:22.799Z</time></trkpt><trkpt lat="45.681168700927216" lon="8.24885400459532"><ele>377.0</ele><time>2026-04-03T13:21:23.799Z</time></trkpt><trkpt lat="45.681167028851284" lon="8.24895767780731"><ele>377.0</ele><time>2026-04-03T13:21:24.799Z</time></trkpt><trkpt lat="45.681254532848804" lon="8.249085009053909"><ele>377.0</ele><time>2026-04-03T13:21:26.799Z</time></trkpt><trkpt lat="45.68133644546934" lon="8.249114783324751"><ele>377.0</ele><time>2026-04-03T13:21:27.799Z</time></trkpt><trkpt lat="45.681423507151834" lon="8.249177801922507"><ele>377.0</ele><time>2026-04-03T13:21:28.799Z</time></trkpt><trkpt lat="45.68149846605914" lon="8.249287266251612"><ele>377.25</ele><time>2026-04-03T13:21:29.799Z</time></trkpt><trkpt lat="45.68155839859943" lon="8.249435520091119"><ele>377.5</ele><time>2026-04-03T13:21:30.799Z</time></trkpt><trkpt lat="45.68162090675138" lon="8.24960453332965"><ele>377.75</ele><time>2026-04-03T13:21:31.799Z</time></trkpt><trkpt lat="45.68168974629137" lon="8.249788640074737"><ele>378.0</ele><time>2026-04-03T13:21:32.799Z</time></trkpt><trkpt lat="45.68176951232225" lon="8.2499893089444"><ele>378.0</ele><time>2026-04-03T13:21:33.799Z</time></trkpt><trkpt lat="45.681856604485176" lon="8.250202393993693"><ele>378.0</ele><time>2026-04-03T13:21:34.799Z</time></trkpt><trkpt lat="45.6819467843754" lon="8.250430154814962"><ele>378.0</ele><time>2026-04-03T13:21:35.799Z</time></trkpt><trkpt lat="45.68202826382595" lon="8.250643400545663"><ele>377.3333333333333</ele><time>2026-04-03T13:21:36.799Z</time></trkpt><trkpt lat="45.682107268190414" lon="8.250848595533501"><ele>376.66666666666663</ele><time>2026-04-03T13:21:37.799Z</time></trkpt><trkpt lat="45.6821888015312" lon="8.251061265188987"><ele>376.0</ele><time>2026-04-03T13:21:38.799Z</time></trkpt><trkpt lat="45.68228082649433" lon="8.251276064501816"><ele>377.0</ele><time>2026-04-03T13:21:39.799Z</time></trkpt><trkpt lat="45.68238228085973" lon="8.25148462224087"><ele>378.0</ele><time>2026-04-03T13:21:40.799Z</time></trkpt><trkpt lat="45.68249336234747" lon="8.251681939371768"><ele>379.0</ele><time>2026-04-03T13:21:41.799Z</time></trkpt><trkpt lat="45.68261154750074" lon="8.251862420252069"><ele>379.0</ele><time>2026-04-03T13:21:42.799Z</time></trkpt><trkpt lat="45.68273514887786" lon="8.252022253294488"><ele>379.0</ele><time>2026-04-03T13:21:43.799Z</time></trkpt><trkpt lat="45.6828661510184" lon="8.252168608002831"><ele>379.0</ele><time>2026-04-03T13:21:44.799Z</time></trkpt><trkpt lat="45.68300576570297" lon="8.252299107578127"><ele>387.3333333333333</ele><time>2026-04-03T13:21:45.799Z</time></trkpt><trkpt lat="45.68315849277975" lon="8.252412601771457"><ele>395.66666666666663</ele><time>2026-04-03T13:21:46.799Z</time></trkpt><trkpt lat="45.68332959554063" lon="8.252531116150164"><ele>404.0</ele><time>2026-04-03T13:21:47.799Z</time></trkpt><trkpt lat="45.68354166656983" lon="8.252687980558377"><ele>389.5</ele><time>2026-04-03T13:21:48.799Z</time></trkpt><trkpt lat="45.68378376537754" lon="8.252862244871269"><ele>375.0</ele><time>2026-04-03T13:21:49.799Z</time></trkpt><trkpt lat="45.6839952100912" lon="8.253011645641516"><ele>373.6666666666667</ele><time>2026-04-03T13:21:50.799Z</time></trkpt><trkpt lat="45.684183255086744" lon="8.253140000391364"><ele>372.33333333333337</ele><time>2026-04-03T13:21:51.799Z</time></trkpt><trkpt lat="45.68436425293355" lon="8.253260829479917"><ele>371.0</ele><time>2026-04-03T13:21:52.799Z</time></trkpt><trkpt lat="45.68452315214204" lon="8.253371477248937"><ele>371.0</ele><time>2026-04-03T13:21:53.799Z</time></trkpt><trkpt lat="45.68468164903129" lon="8.25352781063754"><ele>371.0</ele><time>2026-04-03T13:21:54.799Z</time></trkpt><trkpt lat="45.6848090097893" lon="8.253696626253573"><ele>371.0</ele><time>2026-04-03T13:21:55.799Z</time></trkpt><trkpt lat="45.684934236368015" lon="8.253865533710973"><ele>375.33333333333337</ele><time>2026-04-03T13:21:56.799Z</time></trkpt><trkpt lat="45.68505206051647" lon="8.254042574241788"><ele>379.6666666666667</ele><time>2026-04-03T13:21:57.799Z</time></trkpt><trkpt lat="45.68516276146775" lon="8.254240330590553"><ele>384.0</ele><time>2026-04-03T13:21:58.799Z</time></trkpt><trkpt lat="45.68525888231434" lon="8.254451312322542"><ele>379.0</ele><time>2026-04-03T13:21:59.799Z</time></trkpt><trkpt lat="45.68534339632082" lon="8.25465998124044"><ele>374.0</ele><time>2026-04-03T13:22:00.799Z</time></trkpt><trkpt lat="45.68542787475702" lon="8.254882241460239"><ele>369.0</ele><time>2026-04-03T13:22:01.799Z</time></trkpt><trkpt lat="45.68551572756619" lon="8.255108703477235"><ele>369.0</ele><time>2026-04-03T13:22:02.8Z</time></trkpt><trkpt lat="45.68561644204212" lon="8.255331133372417"><ele>369.0</ele><time>2026-04-03T13:22:03.8Z</time></trkpt><trkpt lat="45.68573661374952" lon="8.255539167778835"><ele>369.0</ele><time>2026-04-03T13:22:04.8Z</time></trkpt><trkpt lat="45.685875374280954" lon="8.255738036492792"><ele>368.6666666666667</ele><time>2026-04-03T13:22:05.8Z</time></trkpt><trkpt lat="45.68602065768579" lon="8.255936548138799"><ele>368.33333333333337</ele><time>2026-04-03T13:22:06.8Z</time></trkpt><trkpt lat="45.68616396423854" lon="8.256136192381888"><ele>368.0</ele><time>2026-04-03T13:22:07.8Z</time></trkpt><trkpt lat="45.68629540614678" lon="8.256348228154579"><ele>370.6666666666667</ele><time>2026-04-03T13:22:08.8Z</time></trkpt><trkpt lat="45.686406981994494" lon="8.256582762143454"><ele>373.3333333333333</ele><time>2026-04-03T13:22:09.8Z</time></trkpt><trkpt lat="45.68650924246634" lon="8.256821647004259"><ele>376.0</ele><time>2026-04-03T13:22:10.8Z</time></trkpt><trkpt lat="45.68662286518066" lon="8.257052709455277"><ele>376.0</ele><time>2026-04-03T13:22:11.8Z</time></trkpt><trkpt lat="45.68674529627734" lon="8.257273676478201"><ele>376.0</ele><time>2026-04-03T13:22:12.8Z</time></trkpt><trkpt lat="45.68686604750972" lon="8.257491118502472"><ele>376.0</ele><time>2026-04-03T13:22:13.8Z</time></trkpt><trkpt lat="45.68698451763118" lon="8.257712755091655"><ele>375.3333333333333</ele><time>2026-04-03T13:22:14.8Z</time></trkpt><trkpt lat="45.68710030325806" lon="8.257932668112241"><ele>374.6666666666667</ele><time>2026-04-03T13:22:15.8Z</time></trkpt><trkpt lat="45.68722137294013" lon="8.2581541463932"><ele>374.0</ele><time>2026-04-03T13:22:16.8Z</time></trkpt><trkpt lat="45.6873403039721" lon="8.258377116784438"><ele>374.0</ele><time>2026-04-03T13:22:17.8Z</time></trkpt><trkpt lat="45.6874555297445" lon="8.258597265050168"><ele>374.0</ele><time>2026-04-03T13:22:18.8Z</time></trkpt><trkpt lat="45.68757187085517" lon="8.258821014549495"><ele>374.0</ele><time>2026-04-03T13:22:19.8Z</time></trkpt><trkpt lat="45.68767126402252" lon="8.259062030379138"><ele>369.6666666666667</ele><time>2026-04-03T13:22:20.8Z</time></trkpt><trkpt lat="45.6877493504808" lon="8.259322577564296"><ele>365.3333333333333</ele><time>2026-04-03T13:22:21.8Z</time></trkpt><trkpt lat="45.68781765842072" lon="8.259594298339431"><ele>361.0</ele><time>2026-04-03T13:22:22.8Z</time></trkpt><trkpt lat="45.68787553742982" lon="8.25987672763801"><ele>360.66666666666663</ele><time>2026-04-03T13:22:23.8Z</time></trkpt><trkpt lat="45.68793046121364" lon="8.260164339832981"><ele>360.3333333333333</ele><time>2026-04-03T13:22:24.8Z</time></trkpt><trkpt lat="45.68798196584562" lon="8.260455110840784"><ele>360.0</ele><time>2026-04-03T13:22:25.8Z</time></trkpt><trkpt lat="45.68803844788731" lon="8.2607437829101"><ele>361.3333333333333</ele><time>2026-04-03T13:22:26.8Z</time></trkpt><trkpt lat="45.68809374169088" lon="8.261030292563555"><ele>362.66666666666663</ele><time>2026-04-03T13:22:27.8Z</time></trkpt><trkpt lat="45.68814432578734" lon="8.261312091994768"><ele>364.0</ele><time>2026-04-03T13:22:28.8Z</time></trkpt><trkpt lat="45.68819461840137" lon="8.261599980158037"><ele>366.66666666666663</ele><time>2026-04-03T13:22:29.8Z</time></trkpt><trkpt lat="45.68823578957477" lon="8.261895339706314"><ele>369.3333333333333</ele><time>2026-04-03T13:22:30.8Z</time></trkpt><trkpt lat="45.688270283042776" lon="8.262195994063896"><ele>372.0</ele><time>2026-04-03T13:22:31.8Z</time></trkpt><trkpt lat="45.68829000613455" lon="8.262504816895346"><ele>372.3333333333333</ele><time>2026-04-03T13:22:32.8Z</time></trkpt><trkpt lat="45.68830648882417" lon="8.26281409166679"><ele>372.66666666666663</ele><time>2026-04-03T13:22:33.8Z</time></trkpt><trkpt lat="45.68833482165148" lon="8.263120624745103"><ele>373.0</ele><time>2026-04-03T13:22:34.8Z</time></trkpt><trkpt lat="45.68837341473643" lon="8.26342722589023"><ele>373.3333333333333</ele><time>2026-04-03T13:22:35.8Z</time></trkpt><trkpt lat="45.68842915507825" lon="8.263730565026355"><ele>373.6666666666667</ele><time>2026-04-03T13:22:36.8Z</time></trkpt><trkpt lat="45.688492991947" lon="8.264030606997771"><ele>374.0</ele><time>2026-04-03T13:22:37.8Z</time></trkpt><trkpt lat="45.68857201085389" lon="8.264324776319315"><ele>369.33333333333337</ele><time>2026-04-03T13:22:38.8Z</time></trkpt><trkpt lat="45.6886602404667" lon="8.26460722161885"><ele>364.6666666666667</ele><time>2026-04-03T13:22:39.8Z</time></trkpt><trkpt lat="45.68875686753168" lon="8.264887583704787"><ele>360.0</ele><time>2026-04-03T13:22:40.8Z</time></trkpt><trkpt lat="45.688863460510746" lon="8.26515707904462"><ele>360.0</ele><time>2026-04-03T13:22:41.8Z</time></trkpt><trkpt lat="45.68898346048164" lon="8.265414026096511"><ele>360.0</ele><time>2026-04-03T13:22:42.8Z</time></trkpt><trkpt lat="45.68911734502569" lon="8.265656585717451"><ele>360.0</ele><time>2026-04-03T13:22:43.802Z</time></trkpt><trkpt lat="45.68927069529231" lon="8.265881313512153"><ele>357.5</ele><time>2026-04-03T13:22:44.802Z</time></trkpt><trkpt lat="45.689442201467685" lon="8.26608742251843"><ele>355.0</ele><time>2026-04-03T13:22:45.802Z</time></trkpt><trkpt lat="45.68962716428876" lon="8.266281712740701"><ele>361.0</ele><time>2026-04-03T13:22:46.802Z</time></trkpt><trkpt lat="45.68981932791364" lon="8.266478178436815"><ele>367.0</ele><time>2026-04-03T13:22:47.802Z</time></trkpt><trkpt lat="45.690012201509845" lon="8.2666740950382"><ele>367.0</ele><time>2026-04-03T13:22:48.802Z</time></trkpt><trkpt lat="45.6901979104369" lon="8.2668697443376"><ele>367.0</ele><time>2026-04-03T13:22:49.802Z</time></trkpt><trkpt lat="45.69038061797665" lon="8.267064734801899"><ele>368.66666666666663</ele><time>2026-04-03T13:22:50.802Z</time></trkpt><trkpt lat="45.690557878158984" lon="8.267246449110088"><ele>370.3333333333333</ele><time>2026-04-03T13:22:51.802Z</time></trkpt><trkpt lat="45.690737897375236" lon="8.267402914460634"><ele>372.0</ele><time>2026-04-03T13:22:52.802Z</time></trkpt><trkpt lat="45.69092277927887" lon="8.267530476195656"><ele>370.0</ele><time>2026-04-03T13:22:53.802Z</time></trkpt><trkpt lat="45.69111340772441" lon="8.267621412568074"><ele>368.0</ele><time>2026-04-03T13:22:54.802Z</time></trkpt><trkpt lat="45.69130980949954" lon="8.267676939038715"><ele>366.0</ele><time>2026-04-03T13:22:55.802Z</time></trkpt><trkpt lat="45.69151621179579" lon="8.267700467801259"><ele>366.0</ele><time>2026-04-03T13:22:56.802Z</time></trkpt><trkpt lat="45.69172019749586" lon="8.267706418919612"><ele>366.0</ele><time>2026-04-03T13:22:57.802Z</time></trkpt><trkpt lat="45.69192419144643" lon="8.26769467591588"><ele>366.0</ele><time>2026-04-03T13:22:58.802Z</time></trkpt><trkpt lat="45.69212486345354" lon="8.26766074840837"><ele>365.0</ele><time>2026-04-03T13:22:59.802Z</time></trkpt><trkpt lat="45.692324175552166" lon="8.267616294974708"><ele>364.0</ele><time>2026-04-03T13:23:00.802Z</time></trkpt><trkpt lat="45.69251388742051" lon="8.267580411038212"><ele>363.0</ele><time>2026-04-03T13:23:01.802Z</time></trkpt><trkpt lat="45.69269532024377" lon="8.26756841630453"><ele>361.6666666666667</ele><time>2026-04-03T13:23:02.802Z</time></trkpt><trkpt lat="45.692882527545216" lon="8.267583394365008"><ele>360.33333333333337</ele><time>2026-04-03T13:23:03.802Z</time></trkpt><trkpt lat="45.69307513848204" lon="8.267636186078986"><ele>359.0</ele><time>2026-04-03T13:23:04.802Z</time></trkpt><trkpt lat="45.69326517711636" lon="8.267727224958033"><ele>359.0</ele><time>2026-04-03T13:23:05.803Z</time></trkpt><trkpt lat="45.69344781897499" lon="8.267848166162437"><ele>359.0</ele><time>2026-04-03T13:23:06.803Z</time></trkpt><trkpt lat="45.693641668731516" lon="8.267904678460777"><ele>359.0</ele><time>2026-04-03T13:23:07.803Z</time></trkpt><trkpt lat="45.69379200189257" lon="8.268201258005575"><ele>358.0</ele><time>2026-04-03T13:23:08.803Z</time></trkpt><trkpt lat="45.69394737547892" lon="8.268422042152391"><ele>357.0</ele><time>2026-04-03T13:23:09.803Z</time></trkpt><trkpt lat="45.69410600478041" lon="8.268624858815363"><ele>356.0</ele><time>2026-04-03T13:23:10.803Z</time></trkpt><trkpt lat="45.69424774530453" lon="8.268841298748608"><ele>356.0</ele><time>2026-04-03T13:23:11.803Z</time></trkpt><trkpt lat="45.6943727004166" lon="8.269068796231375"><ele>356.0</ele><time>2026-04-03T13:23:12.803Z</time></trkpt><trkpt lat="45.69448220256384" lon="8.269302644464657"><ele>356.0</ele><time>2026-04-03T13:23:13.803Z</time></trkpt><trkpt lat="45.694576838283375" lon="8.269543700024236"><ele>355.6666666666667</ele><time>2026-04-03T13:23:14.803Z</time></trkpt><trkpt lat="45.69466070957562" lon="8.26979306391895"><ele>355.3333333333333</ele><time>2026-04-03T13:23:15.803Z</time></trkpt><trkpt lat="45.694735800188944" lon="8.27005001595811"><ele>355.0</ele><time>2026-04-03T13:23:16.803Z</time></trkpt><trkpt lat="45.69481113525361" lon="8.27031312556246"><ele>355.0</ele><time>2026-04-03T13:23:17.803Z</time></trkpt><trkpt lat="45.69488441799039" lon="8.2705794956453"><ele>355.0</ele><time>2026-04-03T13:23:18.803Z</time></trkpt><trkpt lat="45.69495815477119" lon="8.27084463627144"><ele>355.0</ele><time>2026-04-03T13:23:19.803Z</time></trkpt><trkpt lat="45.69503478872517" lon="8.271111938264445"><ele>354.66666666666663</ele><time>2026-04-03T13:23:20.803Z</time></trkpt><trkpt lat="45.69511029423314" lon="8.27137278524487"><ele>354.3333333333333</ele><time>2026-04-03T13:23:21.803Z</time></trkpt><trkpt lat="45.695185692399185" lon="8.271634182883034"><ele>354.0</ele><time>2026-04-03T13:23:22.803Z</time></trkpt><trkpt lat="45.69526115916722" lon="8.271891219003182"><ele>354.3333333333333</ele><time>2026-04-03T13:23:23.803Z</time></trkpt><trkpt lat="45.69533660656813" lon="8.272144037801002"><ele>354.66666666666663</ele><time>2026-04-03T13:23:24.803Z</time></trkpt><trkpt lat="45.695410664259676" lon="8.272392191071935"><ele>355.0</ele><time>2026-04-03T13:23:25.803Z</time></trkpt><trkpt lat="45.695479243815434" lon="8.27264315608656"><ele>355.0</ele><time>2026-04-03T13:23:26.803Z</time></trkpt><trkpt lat="45.69554477089706" lon="8.27289286306213"><ele>355.0</ele><time>2026-04-03T13:23:27.803Z</time></trkpt><trkpt lat="45.69560853591833" lon="8.273145040993155"><ele>355.0</ele><time>2026-04-03T13:23:28.803Z</time></trkpt><trkpt lat="45.69567259099588" lon="8.273399858563902"><ele>355.0</ele><time>2026-04-03T13:23:29.803Z</time></trkpt><trkpt lat="45.695730748801815" lon="8.273660335019004"><ele>355.0</ele><time>2026-04-03T13:23:30.803Z</time></trkpt><trkpt lat="45.695787766014966" lon="8.273924191379807"><ele>355.0</ele><time>2026-04-03T13:23:31.803Z</time></trkpt><trkpt lat="45.69584356891309" lon="8.274191896691462"><ele>355.0</ele><time>2026-04-03T13:23:32.803Z</time></trkpt><trkpt lat="45.695897797262106" lon="8.274458167176924"><ele>355.0</ele><time>2026-04-03T13:23:33.803Z</time></trkpt><trkpt lat="45.6959409886149" lon="8.274726594880802"><ele>355.0</ele><time>2026-04-03T13:23:34.803Z</time></trkpt><trkpt lat="45.695975059165235" lon="8.27499570600545"><ele>355.66666666666663</ele><time>2026-04-03T13:23:35.803Z</time></trkpt><trkpt lat="45.69601348086224" lon="8.275261102607642"><ele>356.3333333333333</ele><time>2026-04-03T13:23:36.803Z</time></trkpt><trkpt lat="45.69604657581775" lon="8.275526313249866"><ele>357.0</ele><time>2026-04-03T13:23:37.803Z</time></trkpt><trkpt lat="45.696078749659556" lon="8.275787345669679"><ele>353.6666666666667</ele><time>2026-04-03T13:23:38.803Z</time></trkpt><trkpt lat="45.69611300396375" lon="8.276046308475099"><ele>350.33333333333337</ele><time>2026-04-03T13:23:39.803Z</time></trkpt><trkpt lat="45.69614534970328" lon="8.276303938644608"><ele>347.0</ele><time>2026-04-03T13:23:40.803Z</time></trkpt><trkpt lat="45.69617801071722" lon="8.276557559887243"><ele>347.0</ele><time>2026-04-03T13:23:41.803Z</time></trkpt><trkpt lat="45.69621016778411" lon="8.276807813695381"><ele>347.0</ele><time>2026-04-03T13:23:42.803Z</time></trkpt><trkpt lat="45.696242784959615" lon="8.277058995017327"><ele>347.0</ele><time>2026-04-03T13:23:43.803Z</time></trkpt><trkpt lat="45.69627897900803" lon="8.277309748406564"><ele>348.0</ele><time>2026-04-03T13:23:44.803Z</time></trkpt><trkpt lat="45.6963136981519" lon="8.27756077575458"><ele>349.0</ele><time>2026-04-03T13:23:45.803Z</time></trkpt><trkpt lat="45.69634280655276" lon="8.27781570202044"><ele>350.0</ele><time>2026-04-03T13:23:46.803Z</time></trkpt><trkpt lat="45.69637192446654" lon="8.2780659944341"><ele>350.33333333333337</ele><time>2026-04-03T13:23:47.803Z</time></trkpt><trkpt lat="45.69640130997421" lon="8.278311627854121"><ele>350.6666666666667</ele><time>2026-04-03T13:23:48.803Z</time></trkpt><trkpt lat="45.69643251675988" lon="8.278566308197687"><ele>351.0</ele><time>2026-04-03T13:23:49.803Z</time></trkpt><trkpt lat="45.696467652853656" lon="8.278827945233635"><ele>349.3333333333333</ele><time>2026-04-03T13:23:50.803Z</time></trkpt><trkpt lat="45.696502718116676" lon="8.279096459319208"><ele>347.66666666666663</ele><time>2026-04-03T13:23:51.803Z</time></trkpt><trkpt lat="45.69653453667786" lon="8.279358381656513"><ele>346.0</ele><time>2026-04-03T13:23:52.803Z</time></trkpt><trkpt lat="45.696567121658695" lon="8.279612767483737"><ele>345.3333333333333</ele><time>2026-04-03T13:23:53.803Z</time></trkpt><trkpt lat="45.69659695409914" lon="8.279865702902246"><ele>344.6666666666667</ele><time>2026-04-03T13:23:54.803Z</time></trkpt><trkpt lat="45.69662815992827" lon="8.280112492443001"><ele>344.0</ele><time>2026-04-03T13:23:55.803Z</time></trkpt><trkpt lat="45.696656582734995" lon="8.2803513796946"><ele>344.0</ele><time>2026-04-03T13:23:56.803Z</time></trkpt><trkpt lat="45.696686832424" lon="8.280584365240482"><ele>344.0</ele><time>2026-04-03T13:23:57.803Z</time></trkpt><trkpt lat="45.6967171212993" lon="8.280812553258846"><ele>344.0</ele><time>2026-04-03T13:23:58.803Z</time></trkpt><trkpt lat="45.69675008702135" lon="8.281054363414167"><ele>344.0</ele><time>2026-04-03T13:23:59.804Z</time></trkpt><trkpt lat="45.69678350076985" lon="8.281300394936919"><ele>344.0</ele><time>2026-04-03T13:24:00.804Z</time></trkpt><trkpt lat="45.69681655627959" lon="8.281540740609614"><ele>344.0</ele><time>2026-04-03T13:24:01.804Z</time></trkpt><trkpt lat="45.69684698202352" lon="8.281771253494941"><ele>344.6666666666667</ele><time>2026-04-03T13:24:02.804Z</time></trkpt><trkpt lat="45.69687412720709" lon="8.281993038732189"><ele>345.3333333333333</ele><time>2026-04-03T13:24:03.804Z</time></trkpt><trkpt lat="45.69690065200859" lon="8.282207157043736"><ele>346.0</ele><time>2026-04-03T13:24:04.804Z</time></trkpt><trkpt lat="45.6969265882142" lon="8.282414746877073"><ele>344.75</ele><time>2026-04-03T13:24:05.804Z</time></trkpt><trkpt lat="45.69695190723671" lon="8.282617226066659"><ele>343.5</ele><time>2026-04-03T13:24:06.804Z</time></trkpt><trkpt lat="45.696976831825324" lon="8.28281665009361"><ele>342.25</ele><time>2026-04-03T13:24:07.804Z</time></trkpt><trkpt lat="45.697000295928866" lon="8.283016134976132"><ele>341.0</ele><time>2026-04-03T13:24:08.804Z</time></trkpt><trkpt lat="45.69702676504332" lon="8.283220619375768"><ele>341.0</ele><time>2026-04-03T13:24:09.804Z</time></trkpt><trkpt lat="45.69705276053" lon="8.283426583896329"><ele>341.0</ele><time>2026-04-03T13:24:10.804Z</time></trkpt><trkpt lat="45.697077729063494" lon="8.283627098555915"><ele>341.0</ele><time>2026-04-03T13:24:11.804Z</time></trkpt><trkpt lat="45.69710543557351" lon="8.283820347849575"><ele>341.0</ele><time>2026-04-03T13:24:12.804Z</time></trkpt><trkpt lat="45.69712882656853" lon="8.284014527683356"><ele>341.0</ele><time>2026-04-03T13:24:13.804Z</time></trkpt><trkpt lat="45.69715227323237" lon="8.28420440271068"><ele>341.0</ele><time>2026-04-03T13:24:14.804Z</time></trkpt><trkpt lat="45.69717795923559" lon="8.284389742562565"><ele>341.0</ele><time>2026-04-03T13:24:15.804Z</time></trkpt><trkpt lat="45.69718429691452" lon="8.284568332475386"><ele>341.0</ele><time>2026-04-03T13:24:16.804Z</time></trkpt><trkpt lat="45.69720581157074" lon="8.284734550562556"><ele>341.0</ele><time>2026-04-03T13:24:17.804Z</time></trkpt><trkpt lat="45.697226895430674" lon="8.284896053096787"><ele>341.0</ele><time>2026-04-03T13:24:18.804Z</time></trkpt><trkpt lat="45.697247199622765" lon="8.28505322637025"><ele>341.0</ele><time>2026-04-03T13:24:19.804Z</time></trkpt><trkpt lat="45.69726729282694" lon="8.28521004497105"><ele>341.0</ele><time>2026-04-03T13:24:20.804Z</time></trkpt><trkpt lat="45.697286144235115" lon="8.285357166214565"><ele>341.0</ele><time>2026-04-03T13:24:21.804Z</time></trkpt><trkpt lat="45.69730401872608" lon="8.285494365516723"><ele>340.83333333333337</ele><time>2026-04-03T13:24:22.804Z</time></trkpt><trkpt lat="45.697321840613384" lon="8.285631757590153"><ele>340.6666666666667</ele><time>2026-04-03T13:24:23.804Z</time></trkpt><trkpt lat="45.6973375148524" lon="8.285752592587599"><ele>340.5</ele><time>2026-04-03T13:24:24.804Z</time></trkpt><trkpt lat="45.69735171562721" lon="8.28586200576031"><ele>340.3333333333333</ele><time>2026-04-03T13:24:25.804Z</time></trkpt><trkpt lat="45.697364201808995" lon="8.285960774702847"><ele>340.16666666666663</ele><time>2026-04-03T13:24:26.804Z</time></trkpt><trkpt lat="45.697376239783175" lon="8.286055998159677"><ele>340.0</ele><time>2026-04-03T13:24:27.804Z</time></trkpt><trkpt lat="45.69740120714133" lon="8.286144703000348"><ele>340.0</ele><time>2026-04-03T13:24:28.804Z</time></trkpt><trkpt lat="45.69742323930652" lon="8.286315979072025"><ele>340.0</ele><time>2026-04-03T13:24:30.804Z</time></trkpt><trkpt lat="45.69742719418402" lon="8.286477188286968"><ele>340.0</ele><time>2026-04-03T13:24:32.804Z</time></trkpt><trkpt lat="45.697451919006916" lon="8.286566709049273"><ele>340.0</ele><time>2026-04-03T13:24:34.804Z</time></trkpt><trkpt lat="45.697462028733234" lon="8.286673395076122"><ele>340.0</ele><time>2026-04-03T13:24:37.804Z</time></trkpt><trkpt lat="45.69747283338171" lon="8.286790645819794"><ele>340.0</ele><time>2026-04-03T13:24:40.804Z</time></trkpt><trkpt lat="45.69748819631269" lon="8.28691804527695"><ele>340.0</ele><time>2026-04-03T13:24:43.804Z</time></trkpt><trkpt lat="45.697597538539284" lon="8.286961536349946"><ele>340.0</ele><time>2026-04-03T13:24:46.804Z</time></trkpt><trkpt lat="45.69768318086996" lon="8.286943102989518"><ele>340.0</ele><time>2026-04-03T13:24:47.804Z</time></trkpt><trkpt lat="45.69776070978639" lon="8.28695989483411"><ele>340.0</ele><time>2026-04-03T13:24:48.804Z</time></trkpt><trkpt lat="45.697830488939154" lon="8.286951786952839"><ele>340.0</ele><time>2026-04-03T13:24:49.806Z</time></trkpt><trkpt lat="45.69793449440351" lon="8.286961134654232"><ele>338.75</ele><time>2026-04-03T13:24:50.806Z</time></trkpt><trkpt lat="45.698052382534286" lon="8.286970913806709"><ele>337.5</ele><time>2026-04-03T13:24:51.806Z</time></trkpt><trkpt lat="45.698163763994856" lon="8.28697895222146"><ele>336.25</ele><time>2026-04-03T13:24:52.806Z</time></trkpt><trkpt lat="45.69828254742246" lon="8.28699080191094"><ele>335.0</ele><time>2026-04-03T13:24:53.806Z</time></trkpt><trkpt lat="45.69840706017059" lon="8.287001031459576"><ele>335.0</ele><time>2026-04-03T13:24:54.806Z</time></trkpt><trkpt lat="45.69853202407051" lon="8.287019154001893"><ele>335.0</ele><time>2026-04-03T13:24:55.806Z</time></trkpt><trkpt lat="45.69865819237506" lon="8.287035777151031"><ele>335.0</ele><time>2026-04-03T13:24:56.806Z</time></trkpt><trkpt lat="45.69878596144123" lon="8.287048720017449"><ele>335.0</ele><time>2026-04-03T13:24:57.806Z</time></trkpt><trkpt lat="45.69890909779824" lon="8.287062420015339"><ele>335.25</ele><time>2026-04-03T13:24:58.806Z</time></trkpt><trkpt lat="45.699028533662535" lon="8.287075840464293"><ele>335.5</ele><time>2026-04-03T13:24:59.806Z</time></trkpt><trkpt lat="45.699145049393294" lon="8.287088917618897"><ele>335.75</ele><time>2026-04-03T13:25:00.806Z</time></trkpt><trkpt lat="45.6992581248207" lon="8.287101550940347"><ele>336.0</ele><time>2026-04-03T13:25:01.807Z</time></trkpt><trkpt lat="45.699374096285005" lon="8.287116801848379"><ele>336.5</ele><time>2026-04-03T13:25:02.806Z</time></trkpt><trkpt lat="45.69949104708619" lon="8.287129965875959"><ele>337.0</ele><time>2026-04-03T13:25:03.807Z</time></trkpt><trkpt lat="45.69961804838894" lon="8.287143790264517"><ele>337.5</ele><time>2026-04-03T13:25:04.807Z</time></trkpt><trkpt lat="45.69975300032191" lon="8.287159185480903"><ele>338.0</ele><time>2026-04-03T13:25:05.807Z</time></trkpt><trkpt lat="45.699890705839294" lon="8.287169595870228"><ele>338.0</ele><time>2026-04-03T13:25:06.807Z</time></trkpt><trkpt lat="45.700026225884706" lon="8.287185496134136"><ele>338.0</ele><time>2026-04-03T13:25:07.807Z</time></trkpt><trkpt lat="45.70015811225828" lon="8.287193233447395"><ele>338.0</ele><time>2026-04-03T13:25:08.807Z</time></trkpt><trkpt lat="45.700278233988826" lon="8.287203139426786"><ele>338.0</ele><time>2026-04-03T13:25:09.807Z</time></trkpt><trkpt lat="45.70038761278262" lon="8.28721341644235"><ele>338.33333333333337</ele><time>2026-04-03T13:25:10.807Z</time></trkpt><trkpt lat="45.700482137415726" lon="8.287224536945393"><ele>338.6666666666667</ele><time>2026-04-03T13:25:11.807Z</time></trkpt><trkpt lat="45.70057305851266" lon="8.28723574805581"><ele>339.0</ele><time>2026-04-03T13:25:12.807Z</time></trkpt><trkpt lat="45.700661696287156" lon="8.28724463177004"><ele>339.3333333333333</ele><time>2026-04-03T13:25:13.807Z</time></trkpt><trkpt lat="45.700746266457756" lon="8.287258854044019"><ele>339.66666666666663</ele><time>2026-04-03T13:25:14.807Z</time></trkpt><trkpt lat="45.7008235260218" lon="8.287269529407109"><ele>340.0</ele><time>2026-04-03T13:25:15.807Z</time></trkpt><trkpt lat="45.70089945118806" lon="8.287276226153898"><ele>339.3333333333333</ele><time>2026-04-03T13:25:16.807Z</time></trkpt><trkpt lat="45.700968773390194" lon="8.28728816201316"><ele>338.66666666666663</ele><time>2026-04-03T13:25:17.807Z</time></trkpt><trkpt lat="45.70103275792317" lon="8.287331959739571"><ele>338.0</ele><time>2026-04-03T13:25:18.807Z</time></trkpt><trkpt lat="45.701088802378" lon="8.287399170713666"><ele>337.3333333333333</ele><time>2026-04-03T13:25:19.807Z</time></trkpt><trkpt lat="45.701154284142504" lon="8.287467849791444"><ele>336.6666666666667</ele><time>2026-04-03T13:25:20.807Z</time></trkpt><trkpt lat="45.70118027011733" lon="8.287607903758293"><ele>336.0</ele><time>2026-04-03T13:25:21.807Z</time></trkpt><trkpt lat="45.70120578326828" lon="8.287744101821861"><ele>338.8</ele><time>2026-04-03T13:25:22.807Z</time></trkpt><trkpt lat="45.701225342941854" lon="8.287889215665833"><ele>341.6</ele><time>2026-04-03T13:25:23.807Z</time></trkpt><trkpt lat="45.70124223642306" lon="8.28804092022125"><ele>344.4</ele><time>2026-04-03T13:25:24.807Z</time></trkpt><trkpt lat="45.701262922539044" lon="8.288195631057533"><ele>347.2</ele><time>2026-04-03T13:25:25.807Z</time></trkpt><trkpt lat="45.70129216053451" lon="8.288349903641032"><ele>350.0</ele><time>2026-04-03T13:25:26.807Z</time></trkpt><trkpt lat="45.70133658382356" lon="8.288492972532174"><ele>350.0</ele><time>2026-04-03T13:25:27.807Z</time></trkpt><trkpt lat="45.70139872334216" lon="8.288615356275056"><ele>350.0</ele><time>2026-04-03T13:25:28.807Z</time></trkpt><trkpt lat="45.70147820390089" lon="8.288700341077545"><ele>350.0</ele><time>2026-04-03T13:25:29.807Z</time></trkpt><trkpt lat="45.70157201565487" lon="8.288760688216566"><ele>350.0</ele><time>2026-04-03T13:25:30.807Z</time></trkpt><trkpt lat="45.701681776465634" lon="8.288782851485207"><ele>350.0</ele><time>2026-04-03T13:25:31.807Z</time></trkpt><trkpt lat="45.70181100638221" lon="8.288789614293592"><ele>350.5</ele><time>2026-04-03T13:25:32.807Z</time></trkpt><trkpt lat="45.70195022826474" lon="8.288789925052491"><ele>351.0</ele><time>2026-04-03T13:25:33.807Z</time></trkpt><trkpt lat="45.70209290071264" lon="8.288767481251904"><ele>351.5</ele><time>2026-04-03T13:25:34.807Z</time></trkpt><trkpt lat="45.70223321224382" lon="8.28873952796071"><ele>352.0</ele><time>2026-04-03T13:25:35.807Z</time></trkpt><trkpt lat="45.7023729089796" lon="8.28870703695311"><ele>352.0</ele><time>2026-04-03T13:25:36.807Z</time></trkpt><trkpt lat="45.70250612600232" lon="8.288671669327654"><ele>352.0</ele><time>2026-04-03T13:25:37.807Z</time></trkpt><trkpt lat="45.70263831903704" lon="8.288638729371236"><ele>352.0</ele><time>2026-04-03T13:25:38.807Z</time></trkpt><trkpt lat="45.70277158802531" lon="8.288607410887865"><ele>352.0</ele><time>2026-04-03T13:25:39.807Z</time></trkpt><trkpt lat="45.70289997216325" lon="8.288573576865438"><ele>351.0</ele><time>2026-04-03T13:25:40.807Z</time></trkpt><trkpt lat="45.70302664006097" lon="8.288541695915473"><ele>350.0</ele><time>2026-04-03T13:25:41.807Z</time></trkpt><trkpt lat="45.7031549446292" lon="8.288510640380299"><ele>349.0</ele><time>2026-04-03T13:25:42.807Z</time></trkpt><trkpt lat="45.70328284556777" lon="8.288476073088704"><ele>348.0</ele><time>2026-04-03T13:25:43.807Z</time></trkpt><trkpt lat="45.703411642457446" lon="8.288440702595452"><ele>348.0</ele><time>2026-04-03T13:25:44.807Z</time></trkpt><trkpt lat="45.70353874790763" lon="8.288403191980022"><ele>348.0</ele><time>2026-04-03T13:25:45.807Z</time></trkpt><trkpt lat="45.70365789283251" lon="8.288354940853901"><ele>348.0</ele><time>2026-04-03T13:25:46.807Z</time></trkpt><trkpt lat="45.70376857176891" lon="8.288300318636065"><ele>348.0</ele><time>2026-04-03T13:25:47.807Z</time></trkpt><trkpt lat="45.703871488349705" lon="8.288253694905526"><ele>347.6666666666667</ele><time>2026-04-03T13:25:48.807Z</time></trkpt><trkpt lat="45.70395911955823" lon="8.28820856035419"><ele>347.3333333333333</ele><time>2026-04-03T13:25:49.807Z</time></trkpt><trkpt lat="45.70403882723746" lon="8.288169560852902"><ele>347.0</ele><time>2026-04-03T13:25:50.807Z</time></trkpt><trkpt lat="45.704115924554465" lon="8.288140058921622"><ele>346.66666666666663</ele><time>2026-04-03T13:25:51.807Z</time></trkpt><trkpt lat="45.704193901534566" lon="8.288125157760833"><ele>346.3333333333333</ele><time>2026-04-03T13:25:52.807Z</time></trkpt><trkpt lat="45.70427724690607" lon="8.288131211377596"><ele>346.0</ele><time>2026-04-03T13:25:53.807Z</time></trkpt><trkpt lat="45.704362118513515" lon="8.288150065291909"><ele>346.0</ele><time>2026-04-03T13:25:54.807Z</time></trkpt><trkpt lat="45.70444471282975" lon="8.288155403815557"><ele>346.0</ele><time>2026-04-03T13:25:55.807Z</time></trkpt><trkpt lat="45.70451775061901" lon="8.288142287414303"><ele>346.0</ele><time>2026-04-03T13:25:56.807Z</time></trkpt><trkpt lat="45.70459241846966" lon="8.288088020444407"><ele>346.0</ele><time>2026-04-03T13:25:57.807Z</time></trkpt><trkpt lat="45.70464620057722" lon="8.287992436628267"><ele>346.0</ele><time>2026-04-03T13:25:58.808Z</time></trkpt><trkpt lat="45.70468221190543" lon="8.287869171990188"><ele>346.0</ele><time>2026-04-03T13:25:59.808Z</time></trkpt><trkpt lat="45.70470368879158" lon="8.28772575736115"><ele>349.25</ele><time>2026-04-03T13:26:00.808Z</time></trkpt><trkpt lat="45.70482322446591" lon="8.287608901941978"><ele>352.5</ele><time>2026-04-03T13:26:01.808Z</time></trkpt><trkpt lat="45.704927616045794" lon="8.287474211407396"><ele>355.75</ele><time>2026-04-03T13:26:02.808Z</time></trkpt><trkpt lat="45.70504378586668" lon="8.287321599809045"><ele>359.0</ele><time>2026-04-03T13:26:03.808Z</time></trkpt><trkpt lat="45.70516944614123" lon="8.287150807164391"><ele>356.6666666666667</ele><time>2026-04-03T13:26:04.808Z</time></trkpt><trkpt lat="45.705309689337184" lon="8.286974792871504"><ele>354.3333333333333</ele><time>2026-04-03T13:26:05.808Z</time></trkpt><trkpt lat="45.70546298615541" lon="8.286776037722255"><ele>352.0</ele><time>2026-04-03T13:26:06.808Z</time></trkpt><trkpt lat="45.70561784832434" lon="8.28658092342427"><ele>351.0</ele><time>2026-04-03T13:26:07.808Z</time></trkpt><trkpt lat="45.70576713941931" lon="8.28639744719736"><ele>350.0</ele><time>2026-04-03T13:26:08.808Z</time></trkpt><trkpt lat="45.70591802705935" lon="8.286206759805179"><ele>349.0</ele><time>2026-04-03T13:26:09.808Z</time></trkpt><trkpt lat="45.70607846051695" lon="8.28601155661982"><ele>349.0</ele><time>2026-04-03T13:26:10.808Z</time></trkpt><trkpt lat="45.70623874636334" lon="8.285807701789164"><ele>349.0</ele><time>2026-04-03T13:26:11.808Z</time></trkpt><trkpt lat="45.706387404403735" lon="8.2856075401848"><ele>349.0</ele><time>2026-04-03T13:26:12.808Z</time></trkpt><trkpt lat="45.70652239707625" lon="8.28541249092125"><ele>348.66666666666663</ele><time>2026-04-03T13:26:13.808Z</time></trkpt><trkpt lat="45.70665594971517" lon="8.28521691125226"><ele>348.3333333333333</ele><time>2026-04-03T13:26:14.808Z</time></trkpt><trkpt lat="45.70679396273243" lon="8.285023675743519"><ele>348.0</ele><time>2026-04-03T13:26:15.808Z</time></trkpt><trkpt lat="45.70692095075624" lon="8.284818027978142"><ele>349.6666666666667</ele><time>2026-04-03T13:26:16.808Z</time></trkpt><trkpt lat="45.70703496501229" lon="8.28460351486809"><ele>351.33333333333337</ele><time>2026-04-03T13:26:17.808Z</time></trkpt><trkpt lat="45.70714493470361" lon="8.28438331260134"><ele>353.0</ele><time>2026-04-03T13:26:18.808Z</time></trkpt><trkpt lat="45.70724377357882" lon="8.284158807504443"><ele>353.0</ele><time>2026-04-03T13:26:19.808Z</time></trkpt><trkpt lat="45.707342194090074" lon="8.283947168157752"><ele>353.0</ele><time>2026-04-03T13:26:20.808Z</time></trkpt><trkpt lat="45.70743396394354" lon="8.283743925766029"><ele>353.0</ele><time>2026-04-03T13:26:21.808Z</time></trkpt><trkpt lat="45.70751615037272" lon="8.283550073296393"><ele>356.75</ele><time>2026-04-03T13:26:22.808Z</time></trkpt><trkpt lat="45.7075853528" lon="8.283359176222028"><ele>360.5</ele><time>2026-04-03T13:26:23.808Z</time></trkpt><trkpt lat="45.707644155143086" lon="8.283165194406983"><ele>364.25</ele><time>2026-04-03T13:26:24.808Z</time></trkpt><trkpt lat="45.707698806109065" lon="8.28297490464697"><ele>368.0</ele><time>2026-04-03T13:26:25.808Z</time></trkpt><trkpt lat="45.707742875770506" lon="8.282792279794299"><ele>369.5</ele><time>2026-04-03T13:26:26.808Z</time></trkpt><trkpt lat="45.70778011903866" lon="8.282616260700067"><ele>371.0</ele><time>2026-04-03T13:26:27.808Z</time></trkpt><trkpt lat="45.707789409622684" lon="8.282444135123205"><ele>372.5</ele><time>2026-04-03T13:26:28.808Z</time></trkpt><trkpt lat="45.70776775099101" lon="8.282267492604985"><ele>374.0</ele><time>2026-04-03T13:26:29.808Z</time></trkpt><trkpt lat="45.707734248350874" lon="8.282076046409085"><ele>374.0</ele><time>2026-04-03T13:26:30.808Z</time></trkpt><trkpt lat="45.70769689628578" lon="8.281875683262191"><ele>374.0</ele><time>2026-04-03T13:26:31.808Z</time></trkpt><trkpt lat="45.70766632813519" lon="8.281683321691256"><ele>374.0</ele><time>2026-04-03T13:26:32.808Z</time></trkpt><trkpt lat="45.70765260835512" lon="8.281501419180929"><ele>374.0</ele><time>2026-04-03T13:26:33.808Z</time></trkpt><trkpt lat="45.70764753244991" lon="8.281301901649142"><ele>373.6666666666667</ele><time>2026-04-03T13:26:34.808Z</time></trkpt><trkpt lat="45.707647641149485" lon="8.281088477260584"><ele>373.3333333333333</ele><time>2026-04-03T13:26:35.808Z</time></trkpt><trkpt lat="45.70766140723351" lon="8.280869423837826"><ele>373.0</ele><time>2026-04-03T13:26:36.808Z</time></trkpt><trkpt lat="45.70767232147547" lon="8.280641999628834"><ele>373.3333333333333</ele><time>2026-04-03T13:26:37.808Z</time></trkpt><trkpt lat="45.707693007336296" lon="8.280409338637625"><ele>373.6666666666667</ele><time>2026-04-03T13:26:38.808Z</time></trkpt><trkpt lat="45.7077142275954" lon="8.280176043846517"><ele>374.0</ele><time>2026-04-03T13:26:39.808Z</time></trkpt><trkpt lat="45.70773515214901" lon="8.279940679794644"><ele>365.6666666666667</ele><time>2026-04-03T13:26:40.808Z</time></trkpt><trkpt lat="45.70775468922863" lon="8.279704704352277"><ele>357.3333333333333</ele><time>2026-04-03T13:26:41.808Z</time></trkpt><trkpt lat="45.70777841488128" lon="8.279460726929617"><ele>349.0</ele><time>2026-04-03T13:26:42.808Z</time></trkpt><trkpt lat="45.707806924422904" lon="8.279214893087827"><ele>349.0</ele><time>2026-04-03T13:26:43.808Z</time></trkpt><trkpt lat="45.70784706842003" lon="8.278968103435881"><ele>349.0</ele><time>2026-04-03T13:26:44.808Z</time></trkpt><trkpt lat="45.70790145050268" lon="8.278722217675151"><ele>349.0</ele><time>2026-04-03T13:26:45.808Z</time></trkpt><trkpt lat="45.70795772468421" lon="8.27848162885988"><ele>349.66666666666663</ele><time>2026-04-03T13:26:46.808Z</time></trkpt><trkpt lat="45.708012146395674" lon="8.27825747589539"><ele>350.3333333333333</ele><time>2026-04-03T13:26:47.808Z</time></trkpt><trkpt lat="45.70807313555805" lon="8.27804631663696"><ele>351.0</ele><time>2026-04-03T13:26:48.808Z</time></trkpt><trkpt lat="45.70813932881893" lon="8.277830967300842"><ele>353.0</ele><time>2026-04-03T13:26:49.808Z</time></trkpt><trkpt lat="45.70820987914288" lon="8.277609532179099"><ele>355.0</ele><time>2026-04-03T13:26:50.808Z</time></trkpt><trkpt lat="45.70828059642074" lon="8.277385823114697"><ele>357.0</ele><time>2026-04-03T13:26:51.808Z</time></trkpt><trkpt lat="45.708349504999426" lon="8.277159450370926"><ele>360.3333333333333</ele><time>2026-04-03T13:26:52.809Z</time></trkpt><trkpt lat="45.708423855960454" lon="8.276929956955675"><ele>363.66666666666663</ele><time>2026-04-03T13:26:53.809Z</time></trkpt><trkpt lat="45.70849862921018" lon="8.276702336886759"><ele>367.0</ele><time>2026-04-03T13:26:54.809Z</time></trkpt><trkpt lat="45.70857315538144" lon="8.2764734972528"><ele>363.0</ele><time>2026-04-03T13:26:55.81Z</time></trkpt><trkpt lat="45.70864713716124" lon="8.276242125270658"><ele>359.0</ele><time>2026-04-03T13:26:56.809Z</time></trkpt><trkpt lat="45.70872140507499" lon="8.276007169403787"><ele>355.0</ele><time>2026-04-03T13:26:57.809Z</time></trkpt><trkpt lat="45.70879804179792" lon="8.275767914092722"><ele>358.0</ele><time>2026-04-03T13:26:58.81Z</time></trkpt><trkpt lat="45.70887844083251" lon="8.275524215357867"><ele>361.0</ele><time>2026-04-03T13:26:59.81Z</time></trkpt><trkpt lat="45.70895644974883" lon="8.27527626844788"><ele>364.0</ele><time>2026-04-03T13:27:00.81Z</time></trkpt><trkpt lat="45.70903758245315" lon="8.275023103455002"><ele>365.66666666666663</ele><time>2026-04-03T13:27:01.81Z</time></trkpt><trkpt lat="45.7091192105111" lon="8.274764784204617"><ele>367.3333333333333</ele><time>2026-04-03T13:27:02.81Z</time></trkpt><trkpt lat="45.70920305588917" lon="8.274506557062551"><ele>369.0</ele><time>2026-04-03T13:27:03.81Z</time></trkpt><trkpt lat="45.70928728047489" lon="8.27425539249079"><ele>369.0</ele><time>2026-04-03T13:27:04.81Z</time></trkpt><trkpt lat="45.70937139083346" lon="8.274011161853663"><ele>369.0</ele><time>2026-04-03T13:27:05.81Z</time></trkpt><trkpt lat="45.70945266470688" lon="8.273770795888899"><ele>369.0</ele><time>2026-04-03T13:27:06.81Z</time></trkpt><trkpt lat="45.70953813660288" lon="8.273525368088858"><ele>364.0</ele><time>2026-04-03T13:27:07.81Z</time></trkpt><trkpt lat="45.70962456191307" lon="8.273276339189412"><ele>359.0</ele><time>2026-04-03T13:27:08.81Z</time></trkpt><trkpt lat="45.70971108582779" lon="8.273024567991204"><ele>354.0</ele><time>2026-04-03T13:27:09.81Z</time></trkpt><trkpt lat="45.70979612710975" lon="8.272781594053896"><ele>354.0</ele><time>2026-04-03T13:27:10.81Z</time></trkpt><trkpt lat="45.70988246107347" lon="8.272535069637954"><ele>354.0</ele><time>2026-04-03T13:27:11.81Z</time></trkpt><trkpt lat="45.70996834748737" lon="8.272289706891494"><ele>354.0</ele><time>2026-04-03T13:27:12.81Z</time></trkpt><trkpt lat="45.71005408809184" lon="8.272041290440695"><ele>354.0</ele><time>2026-04-03T13:27:13.81Z</time></trkpt><trkpt lat="45.71013941075209" lon="8.271792173581222"><ele>354.0</ele><time>2026-04-03T13:27:14.81Z</time></trkpt><trkpt lat="45.710222498857505" lon="8.27153675358432"><ele>354.0</ele><time>2026-04-03T13:27:15.81Z</time></trkpt><trkpt lat="45.71032510382454" lon="8.271283575379428"><ele>354.0</ele><time>2026-04-03T13:27:16.81Z</time></trkpt><trkpt lat="45.71042321017297" lon="8.271006336011192"><ele>354.0</ele><time>2026-04-03T13:27:17.81Z</time></trkpt><trkpt lat="45.71053031596159" lon="8.270685513011857"><ele>358.0</ele><time>2026-04-03T13:27:18.81Z</time></trkpt><trkpt lat="45.710643744932064" lon="8.270379642523801"><ele>362.0</ele><time>2026-04-03T13:27:19.81Z</time></trkpt><trkpt lat="45.7107508780435" lon="8.270074747784117"><ele>362.0</ele><time>2026-04-03T13:27:20.81Z</time></trkpt><trkpt lat="45.710856020927416" lon="8.269785356665619"><ele>362.0</ele><time>2026-04-03T13:27:21.81Z</time></trkpt><trkpt lat="45.71095768340377" lon="8.269506090842032"><ele>362.0</ele><time>2026-04-03T13:27:22.81Z</time></trkpt><trkpt lat="45.711054380777504" lon="8.269234235526556"><ele>357.6666666666667</ele><time>2026-04-03T13:27:23.81Z</time></trkpt><trkpt lat="45.7111464644163" lon="8.268973960864583"><ele>353.3333333333333</ele><time>2026-04-03T13:27:24.81Z</time></trkpt><trkpt lat="45.711240552417145" lon="8.268720803492414"><ele>349.0</ele><time>2026-04-03T13:27:25.81Z</time></trkpt><trkpt lat="45.7113338137319" lon="8.268464086023343"><ele>349.0</ele><time>2026-04-03T13:27:26.81Z</time></trkpt><trkpt lat="45.71141857653189" lon="8.268208269142779"><ele>349.0</ele><time>2026-04-03T13:27:27.81Z</time></trkpt><trkpt lat="45.71151125081894" lon="8.267951647175709"><ele>349.0</ele><time>2026-04-03T13:27:28.81Z</time></trkpt><trkpt lat="45.71160171056787" lon="8.267695019098731"><ele>351.3333333333333</ele><time>2026-04-03T13:27:29.81Z</time></trkpt><trkpt lat="45.71169202183881" lon="8.267442788927447"><ele>353.6666666666667</ele><time>2026-04-03T13:27:30.811Z</time></trkpt><trkpt lat="45.71178418243926" lon="8.267191869694676"><ele>356.0</ele><time>2026-04-03T13:27:31.811Z</time></trkpt><trkpt lat="45.711885628301815" lon="8.266950684016178"><ele>356.33333333333337</ele><time>2026-04-03T13:27:32.811Z</time></trkpt><trkpt lat="45.7119946192126" lon="8.266720149875848"><ele>356.6666666666667</ele><time>2026-04-03T13:27:33.811Z</time></trkpt><trkpt lat="45.71210790359121" lon="8.266498217153616"><ele>357.0</ele><time>2026-04-03T13:27:34.811Z</time></trkpt><trkpt lat="45.71222924041484" lon="8.266288235786377"><ele>357.0</ele><time>2026-04-03T13:27:35.811Z</time></trkpt><trkpt lat="45.712358530534495" lon="8.266088603615778"><ele>357.0</ele><time>2026-04-03T13:27:36.811Z</time></trkpt><trkpt lat="45.71249634059709" lon="8.26589660582213"><ele>357.0</ele><time>2026-04-03T13:27:37.811Z</time></trkpt><trkpt lat="45.71264557900518" lon="8.265720992006047"><ele>358.3333333333333</ele><time>2026-04-03T13:27:38.811Z</time></trkpt><trkpt lat="45.71280260521688" lon="8.26555903673507"><ele>359.66666666666663</ele><time>2026-04-03T13:27:39.811Z</time></trkpt><trkpt lat="45.712963212454675" lon="8.265409029534952"><ele>361.0</ele><time>2026-04-03T13:27:40.811Z</time></trkpt><trkpt lat="45.71312925239124" lon="8.265266720022316"><ele>361.0</ele><time>2026-04-03T13:27:41.811Z</time></trkpt><trkpt lat="45.71330045938862" lon="8.265133006848973"><ele>361.0</ele><time>2026-04-03T13:27:42.811Z</time></trkpt><trkpt lat="45.71347607541873" lon="8.265017692566753"><ele>361.0</ele><time>2026-04-03T13:27:43.811Z</time></trkpt><trkpt lat="45.713652212928245" lon="8.264914801793264"><ele>358.3333333333333</ele><time>2026-04-03T13:27:44.811Z</time></trkpt><trkpt lat="45.71383038894354" lon="8.264826052851314"><ele>355.6666666666667</ele><time>2026-04-03T13:27:45.811Z</time></trkpt><trkpt lat="45.71400699292116" lon="8.264748841245577"><ele>353.0</ele><time>2026-04-03T13:27:46.811Z</time></trkpt><trkpt lat="45.71418566862452" lon="8.26469406545998"><ele>357.33333333333337</ele><time>2026-04-03T13:27:47.811Z</time></trkpt><trkpt lat="45.714358458365595" lon="8.264644951818116"><ele>361.6666666666667</ele><time>2026-04-03T13:27:48.811Z</time></trkpt><trkpt lat="45.71452491811139" lon="8.264595008376418"><ele>366.0</ele><time>2026-04-03T13:27:49.811Z</time></trkpt><trkpt lat="45.71468629593067" lon="8.264534429606973"><ele>366.0</ele><time>2026-04-03T13:27:50.811Z</time></trkpt><trkpt lat="45.7148336332528" lon="8.264453315788233"><ele>366.0</ele><time>2026-04-03T13:27:51.811Z</time></trkpt><trkpt lat="45.714965652023096" lon="8.264363933369925"><ele>366.0</ele><time>2026-04-03T13:27:52.811Z</time></trkpt><trkpt lat="45.715090446119945" lon="8.264286466899504"><ele>366.0</ele><time>2026-04-03T13:27:53.811Z</time></trkpt><trkpt lat="45.71522334502238" lon="8.264219313287805"><ele>362.6666666666667</ele><time>2026-04-03T13:27:54.811Z</time></trkpt><trkpt lat="45.71536327911048" lon="8.264150965655947"><ele>359.33333333333337</ele><time>2026-04-03T13:27:55.811Z</time></trkpt><trkpt lat="45.715505189147336" lon="8.264071228242633"><ele>356.0</ele><time>2026-04-03T13:27:56.811Z</time></trkpt><trkpt lat="45.715645488118014" lon="8.263982561523067"><ele>362.0</ele><time>2026-04-03T13:27:57.811Z</time></trkpt><trkpt lat="45.71579493335865" lon="8.263896604151826"><ele>368.0</ele><time>2026-04-03T13:27:58.811Z</time></trkpt><trkpt lat="45.71594626980517" lon="8.263815347101405"><ele>374.0</ele><time>2026-04-03T13:27:59.811Z</time></trkpt><trkpt lat="45.71610159001055" lon="8.263745602394744"><ele>374.0</ele><time>2026-04-03T13:28:00.811Z</time></trkpt><trkpt lat="45.71626131514196" lon="8.26368518567921"><ele>374.0</ele><time>2026-04-03T13:28:01.811Z</time></trkpt><trkpt lat="45.71642487810766" lon="8.263631524792967"><ele>374.0</ele><time>2026-04-03T13:28:02.811Z</time></trkpt><trkpt lat="45.716592184697696" lon="8.263580068062419"><ele>374.0</ele><time>2026-04-03T13:28:03.811Z</time></trkpt><trkpt lat="45.7167593248684" lon="8.263530822336222"><ele>374.0</ele><time>2026-04-03T13:28:04.811Z</time></trkpt><trkpt lat="45.716924936443796" lon="8.263483499501284"><ele>374.0</ele><time>2026-04-03T13:28:05.811Z</time></trkpt><trkpt lat="45.71709211089752" lon="8.263440516853409"><ele>374.0</ele><time>2026-04-03T13:28:06.811Z</time></trkpt><trkpt lat="45.71726066130667" lon="8.263401892470144"><ele>374.0</ele><time>2026-04-03T13:28:07.811Z</time></trkpt><trkpt lat="45.717437960941005" lon="8.263365597732417"><ele>374.0</ele><time>2026-04-03T13:28:08.811Z</time></trkpt><trkpt lat="45.71761601105174" lon="8.263331370215125"><ele>373.0</ele><time>2026-04-03T13:28:09.811Z</time></trkpt><trkpt lat="45.71779734527628" lon="8.263299281230244"><ele>372.0</ele><time>2026-04-03T13:28:10.811Z</time></trkpt><trkpt lat="45.717970560897434" lon="8.26327105870594"><ele>371.0</ele><time>2026-04-03T13:28:11.811Z</time></trkpt><trkpt lat="45.71814403745245" lon="8.26325248882774"><ele>371.0</ele><time>2026-04-03T13:28:12.811Z</time></trkpt><trkpt lat="45.71833417846404" lon="8.263243616195066"><ele>371.0</ele><time>2026-04-03T13:28:13.811Z</time></trkpt><trkpt lat="45.7185256278194" lon="8.263227427342397"><ele>371.0</ele><time>2026-04-03T13:28:14.811Z</time></trkpt><trkpt lat="45.7187223650226" lon="8.263209984964416"><ele>368.6666666666667</ele><time>2026-04-03T13:28:15.811Z</time></trkpt><trkpt lat="45.71892194508572" lon="8.26319228179031"><ele>366.3333333333333</ele><time>2026-04-03T13:28:16.811Z</time></trkpt><trkpt lat="45.71912250232245" lon="8.263175724293607"><ele>364.0</ele><time>2026-04-03T13:28:17.811Z</time></trkpt><trkpt lat="45.719325339067645" lon="8.263151988207268"><ele>362.0</ele><time>2026-04-03T13:28:18.811Z</time></trkpt><trkpt lat="45.71952761121787" lon="8.263120905876898"><ele>360.0</ele><time>2026-04-03T13:28:19.811Z</time></trkpt><trkpt lat="45.7197210613449" lon="8.26308355528692"><ele>358.0</ele><time>2026-04-03T13:28:20.811Z</time></trkpt><trkpt lat="45.719908545198926" lon="8.26304146286958"><ele>364.3333333333333</ele><time>2026-04-03T13:28:21.811Z</time></trkpt><trkpt lat="45.720089640352185" lon="8.263000169272928"><ele>370.6666666666667</ele><time>2026-04-03T13:28:22.811Z</time></trkpt><trkpt lat="45.72027397480071" lon="8.262954615201734"><ele>377.0</ele><time>2026-04-03T13:28:23.811Z</time></trkpt><trkpt lat="45.72045955953363" lon="8.262907742831173"><ele>377.0</ele><time>2026-04-03T13:28:24.811Z</time></trkpt><trkpt lat="45.720650112718914" lon="8.262864063651197"><ele>377.0</ele><time>2026-04-03T13:28:25.812Z</time></trkpt><trkpt lat="45.72083796193706" lon="8.262819546378543"><ele>377.0</ele><time>2026-04-03T13:28:26.812Z</time></trkpt><trkpt lat="45.72101969591442" lon="8.262773472609034"><ele>374.6666666666667</ele><time>2026-04-03T13:28:27.812Z</time></trkpt><trkpt lat="45.72119757707136" lon="8.26272514942648"><ele>372.3333333333333</ele><time>2026-04-03T13:28:28.812Z</time></trkpt><trkpt lat="45.72136687514965" lon="8.26268407091376"><ele>370.0</ele><time>2026-04-03T13:28:29.812Z</time></trkpt><trkpt lat="45.721528860106126" lon="8.262648215289154"><ele>370.0</ele><time>2026-04-03T13:28:30.812Z</time></trkpt><trkpt lat="45.721683291422785" lon="8.2626146809323"><ele>370.0</ele><time>2026-04-03T13:28:31.812Z</time></trkpt><trkpt lat="45.7218326038562" lon="8.262581212782335"><ele>370.0</ele><time>2026-04-03T13:28:32.812Z</time></trkpt><trkpt lat="45.72199274166876" lon="8.262545884412154"><ele>367.3333333333333</ele><time>2026-04-03T13:28:33.812Z</time></trkpt><trkpt lat="45.72216002203604" lon="8.262508459812468"><ele>364.6666666666667</ele><time>2026-04-03T13:28:34.812Z</time></trkpt><trkpt lat="45.72234058334853" lon="8.262472018514638"><ele>362.0</ele><time>2026-04-03T13:28:35.812Z</time></trkpt><trkpt lat="45.722513420637966" lon="8.262427755691181"><ele>362.0</ele><time>2026-04-03T13:28:36.812Z</time></trkpt><trkpt lat="45.7226839586196" lon="8.262388087037992"><ele>362.0</ele><time>2026-04-03T13:28:37.812Z</time></trkpt><trkpt lat="45.722846175786955" lon="8.262350155806887"><ele>362.0</ele><time>2026-04-03T13:28:38.812Z</time></trkpt><trkpt lat="45.72300344374498" lon="8.262316092746069"><ele>360.33333333333337</ele><time>2026-04-03T13:28:39.812Z</time></trkpt><trkpt lat="45.7231619417419" lon="8.262281637171803"><ele>358.6666666666667</ele><time>2026-04-03T13:28:40.812Z</time></trkpt><trkpt lat="45.72332178837342" lon="8.262247700976232"><ele>357.0</ele><time>2026-04-03T13:28:41.812Z</time></trkpt><trkpt lat="45.72348459735918" lon="8.262214338490201"><ele>363.6666666666667</ele><time>2026-04-03T13:28:42.812Z</time></trkpt><trkpt lat="45.72365139725018" lon="8.262186395157384"><ele>370.33333333333337</ele><time>2026-04-03T13:28:43.812Z</time></trkpt><trkpt lat="45.72381709750651" lon="8.262162997134077"><ele>377.0</ele><time>2026-04-03T13:28:44.812Z</time></trkpt><trkpt lat="45.72398174109363" lon="8.262142308637392"><ele>377.0</ele><time>2026-04-03T13:28:45.812Z</time></trkpt><trkpt lat="45.72413990501355" lon="8.262126470425688"><ele>377.0</ele><time>2026-04-03T13:28:46.812Z</time></trkpt><trkpt lat="45.7242972657601" lon="8.262112183143238"><ele>377.0</ele><time>2026-04-03T13:28:47.812Z</time></trkpt><trkpt lat="45.724454517018756" lon="8.262100486968926"><ele>376.6666666666667</ele><time>2026-04-03T13:28:48.812Z</time></trkpt><trkpt lat="45.72461253852027" lon="8.262092573201267"><ele>376.3333333333333</ele><time>2026-04-03T13:28:49.812Z</time></trkpt><trkpt lat="45.72477185221459" lon="8.262090043920072"><ele>376.0</ele><time>2026-04-03T13:28:50.812Z</time></trkpt><trkpt lat="45.72493578750083" lon="8.262086854904608"><ele>376.0</ele><time>2026-04-03T13:28:51.812Z</time></trkpt><trkpt lat="45.72510298287688" lon="8.262081405476433"><ele>376.0</ele><time>2026-04-03T13:28:52.812Z</time></trkpt><trkpt lat="45.725269981779014" lon="8.262068803539448"><ele>376.0</ele><time>2026-04-03T13:28:53.812Z</time></trkpt><trkpt lat="45.72543842817314" lon="8.26204963523497"><ele>375.0</ele><time>2026-04-03T13:28:54.812Z</time></trkpt><trkpt lat="45.72560533579188" lon="8.262031256970666"><ele>374.0</ele><time>2026-04-03T13:28:55.812Z</time></trkpt><trkpt lat="45.72577733780091" lon="8.262009366043245"><ele>373.0</ele><time>2026-04-03T13:28:56.812Z</time></trkpt><trkpt lat="45.72595502785297" lon="8.261976752984074"><ele>369.3333333333333</ele><time>2026-04-03T13:28:57.812Z</time></trkpt><trkpt lat="45.72613676101469" lon="8.261938454129849"><ele>365.6666666666667</ele><time>2026-04-03T13:28:58.812Z</time></trkpt><trkpt lat="45.726322100293864" lon="8.261894824594867"><ele>362.0</ele><time>2026-04-03T13:28:59.812Z</time></trkpt><trkpt lat="45.72651045678432" lon="8.26184327907325"><ele>362.0</ele><time>2026-04-03T13:29:00.812Z</time></trkpt><trkpt lat="45.7266984433247" lon="8.261783908630804"><ele>362.0</ele><time>2026-04-03T13:29:01.814Z</time></trkpt><trkpt lat="45.72689339337782" lon="8.261726138333614"><ele>362.0</ele><time>2026-04-03T13:29:02.813Z</time></trkpt><trkpt lat="45.727087187005445" lon="8.261657781237531"><ele>361.6666666666667</ele><time>2026-04-03T13:29:03.813Z</time></trkpt><trkpt lat="45.72728366810332" lon="8.26158881789053"><ele>361.3333333333333</ele><time>2026-04-03T13:29:04.814Z</time></trkpt><trkpt lat="45.72748120197187" lon="8.261516568541253"><ele>361.0</ele><time>2026-04-03T13:29:05.814Z</time></trkpt><trkpt lat="45.727681313807" lon="8.26144410584816"><ele>364.66666666666663</ele><time>2026-04-03T13:29:06.814Z</time></trkpt><trkpt lat="45.727886053467294" lon="8.261371764388963"><ele>368.3333333333333</ele><time>2026-04-03T13:29:07.814Z</time></trkpt><trkpt lat="45.72809344213206" lon="8.261300979249148"><ele>372.0</ele><time>2026-04-03T13:29:08.814Z</time></trkpt><trkpt lat="45.72829889452656" lon="8.261233349291784"><ele>372.0</ele><time>2026-04-03T13:29:09.814Z</time></trkpt><trkpt lat="45.72850357824662" lon="8.261160957315397"><ele>372.0</ele><time>2026-04-03T13:29:10.814Z</time></trkpt><trkpt lat="45.728709187406885" lon="8.26109840331161"><ele>372.0</ele><time>2026-04-03T13:29:11.814Z</time></trkpt><trkpt lat="45.728912445164205" lon="8.261029333880598"><ele>370.6666666666667</ele><time>2026-04-03T13:29:12.814Z</time></trkpt><trkpt lat="45.72911699185327" lon="8.260964334492197"><ele>369.33333333333337</ele><time>2026-04-03T13:29:13.814Z</time></trkpt><trkpt lat="45.72932148583436" lon="8.260897296066851"><ele>368.0</ele><time>2026-04-03T13:29:14.814Z</time></trkpt><trkpt lat="45.72952516342676" lon="8.260828850023648"><ele>367.6666666666667</ele><time>2026-04-03T13:29:15.814Z</time></trkpt><trkpt lat="45.72973243178636" lon="8.260766021639865"><ele>367.3333333333333</ele><time>2026-04-03T13:29:16.814Z</time></trkpt><trkpt lat="45.72994726228268" lon="8.260701972071738"><ele>367.0</ele><time>2026-04-03T13:29:17.814Z</time></trkpt><trkpt lat="45.73016682553601" lon="8.260644076761066"><ele>371.0</ele><time>2026-04-03T13:29:18.814Z</time></trkpt><trkpt lat="45.73038207057544" lon="8.26058319937315"><ele>375.0</ele><time>2026-04-03T13:29:19.814Z</time></trkpt><trkpt lat="45.73059682863283" lon="8.260521858537537"><ele>379.0</ele><time>2026-04-03T13:29:20.814Z</time></trkpt><trkpt lat="45.730778004849434" lon="8.26045101763687"><ele>379.0</ele><time>2026-04-03T13:29:21.814Z</time></trkpt><trkpt lat="45.73095843889716" lon="8.260383520396314"><ele>379.0</ele><time>2026-04-03T13:29:22.814Z</time></trkpt><trkpt lat="45.73114552939619" lon="8.26033007556428"><ele>379.0</ele><time>2026-04-03T13:29:23.814Z</time></trkpt><trkpt lat="45.73133901594792" lon="8.260277888806224"><ele>379.3333333333333</ele><time>2026-04-03T13:29:24.814Z</time></trkpt><trkpt lat="45.73153767322403" lon="8.260234680164412"><ele>379.6666666666667</ele><time>2026-04-03T13:29:25.814Z</time></trkpt><trkpt lat="45.73173618959349" lon="8.260195025889287"><ele>380.0</ele><time>2026-04-03T13:29:26.814Z</time></trkpt><trkpt lat="45.73194058065025" lon="8.260160633579476"><ele>378.0</ele><time>2026-04-03T13:29:27.814Z</time></trkpt><trkpt lat="45.732144792011006" lon="8.260128791601582"><ele>376.0</ele><time>2026-04-03T13:29:28.814Z</time></trkpt><trkpt lat="45.7323502287679" lon="8.260094863615427"><ele>374.0</ele><time>2026-04-03T13:29:29.814Z</time></trkpt><trkpt lat="45.7325549993305" lon="8.260059814521735"><ele>372.0</ele><time>2026-04-03T13:29:30.814Z</time></trkpt><trkpt lat="45.73276701716541" lon="8.260022225955023"><ele>370.0</ele><time>2026-04-03T13:29:31.814Z</time></trkpt><trkpt lat="45.732976037878245" lon="8.259986049427713"><ele>368.0</ele><time>2026-04-03T13:29:32.814Z</time></trkpt><trkpt lat="45.733186830307545" lon="8.259951613451326"><ele>368.0</ele><time>2026-04-03T13:29:33.814Z</time></trkpt><trkpt lat="45.733398333672504" lon="8.259919360953603"><ele>368.0</ele><time>2026-04-03T13:29:34.814Z</time></trkpt><trkpt lat="45.73360706271739" lon="8.259886413384724"><ele>368.0</ele><time>2026-04-03T13:29:35.814Z</time></trkpt><trkpt lat="45.73381471052588" lon="8.259850848199731"><ele>367.0</ele><time>2026-04-03T13:29:36.814Z</time></trkpt><trkpt lat="45.73401941813325" lon="8.25981638071612"><ele>366.0</ele><time>2026-04-03T13:29:37.814Z</time></trkpt><trkpt lat="45.7342236512945" lon="8.259777033658908"><ele>365.0</ele><time>2026-04-03T13:29:38.814Z</time></trkpt><trkpt lat="45.73443329829552" lon="8.259740319062825"><ele>374.6666666666667</ele><time>2026-04-03T13:29:39.814Z</time></trkpt><trkpt lat="45.7346416948012" lon="8.259705337925945"><ele>384.33333333333337</ele><time>2026-04-03T13:29:40.814Z</time></trkpt><trkpt lat="45.734852672674634" lon="8.259666393411843"><ele>394.0</ele><time>2026-04-03T13:29:41.814Z</time></trkpt><trkpt lat="45.73505416151992" lon="8.259634662921323"><ele>394.0</ele><time>2026-04-03T13:29:42.814Z</time></trkpt><trkpt lat="45.735245820919474" lon="8.259603530307658"><ele>394.0</ele><time>2026-04-03T13:29:43.814Z</time></trkpt><trkpt lat="45.73541447724323" lon="8.259581764184578"><ele>394.0</ele><time>2026-04-03T13:29:44.814Z</time></trkpt><trkpt lat="45.73557317792192" lon="8.259559376161318"><ele>394.0</ele><time>2026-04-03T13:29:45.814Z</time></trkpt><trkpt lat="45.73571816919299" lon="8.259537850266454"><ele>394.0</ele><time>2026-04-03T13:29:46.814Z</time></trkpt><trkpt lat="45.735848786263745" lon="8.259515730188005"><ele>394.0</ele><time>2026-04-03T13:29:47.814Z</time></trkpt><trkpt lat="45.73596471386298" lon="8.259495776444862"><ele>394.0</ele><time>2026-04-03T13:29:48.814Z</time></trkpt><trkpt lat="45.7360747566228" lon="8.259475052691482"><ele>392.6666666666667</ele><time>2026-04-03T13:29:49.814Z</time></trkpt><trkpt lat="45.73617224086429" lon="8.259465938754609"><ele>391.33333333333337</ele><time>2026-04-03T13:29:50.814Z</time></trkpt><trkpt lat="45.73626103336016" lon="8.259467014721444"><ele>390.0</ele><time>2026-04-03T13:29:51.814Z</time></trkpt><trkpt lat="45.73634235360871" lon="8.259481954540293"><ele>388.66666666666663</ele><time>2026-04-03T13:29:52.814Z</time></trkpt><trkpt lat="45.73641110447979" lon="8.259502125673418"><ele>387.3333333333333</ele><time>2026-04-03T13:29:53.814Z</time></trkpt><trkpt lat="45.736470718629" lon="8.25954155342151"><ele>386.0</ele><time>2026-04-03T13:29:54.814Z</time></trkpt><trkpt lat="45.7365339820622" lon="8.259610142230704"><ele>385.99999999999994</ele><time>2026-04-03T13:29:55.814Z</time></trkpt><trkpt lat="45.7365939420057" lon="8.259705657790215"><ele>386.0</ele><time>2026-04-03T13:29:56.814Z</time></trkpt><trkpt lat="45.73665265608386" lon="8.259785109262316"><ele>386.0</ele><time>2026-04-03T13:29:57.814Z</time></trkpt><trkpt lat="45.736708546207666" lon="8.259839933047722"><ele>386.0</ele><time>2026-04-03T13:29:58.814Z</time></trkpt><trkpt lat="45.73677409518927" lon="8.259842557438013"><ele>385.99999999999994</ele><time>2026-04-03T13:29:59.814Z</time></trkpt><trkpt lat="45.736838749884015" lon="8.259801004328503"><ele>386.0</ele><time>2026-04-03T13:30:00.814Z</time></trkpt><trkpt lat="45.73689949089772" lon="8.259720858541167"><ele>385.0</ele><time>2026-04-03T13:30:01.814Z</time></trkpt><trkpt lat="45.73694597128433" lon="8.259613723829574"><ele>384.0</ele><time>2026-04-03T13:30:02.814Z</time></trkpt><trkpt lat="45.73700293905916" lon="8.259505740703887"><ele>383.0</ele><time>2026-04-03T13:30:03.814Z</time></trkpt><trkpt lat="45.73708044087592" lon="8.259429814136436"><ele>382.0</ele><time>2026-04-03T13:30:04.815Z</time></trkpt><trkpt lat="45.73717353337734" lon="8.259389405403763"><ele>381.0</ele><time>2026-04-03T13:30:05.815Z</time></trkpt><trkpt lat="45.73727532263221" lon="8.259381172040962"><ele>381.0</ele><time>2026-04-03T13:30:06.815Z</time></trkpt><trkpt lat="45.73737940336942" lon="8.25937972764953"><ele>381.0</ele><time>2026-04-03T13:30:07.815Z</time></trkpt><trkpt lat="45.737469931598305" lon="8.259375228853756"><ele>381.0</ele><time>2026-04-03T13:30:08.815Z</time></trkpt><trkpt lat="45.73756449672157" lon="8.259374966023895"><ele>381.0</ele><time>2026-04-03T13:30:09.815Z</time></trkpt><trkpt lat="45.73766332115009" lon="8.25937785049089"><ele>381.0</ele><time>2026-04-03T13:30:10.815Z</time></trkpt><trkpt lat="45.73777023130045" lon="8.259384356447319"><ele>380.20000000000005</ele><time>2026-04-03T13:30:11.815Z</time></trkpt><trkpt lat="45.737875834230344" lon="8.259396771348515"><ele>379.40000000000003</ele><time>2026-04-03T13:30:12.815Z</time></trkpt><trkpt lat="45.7379873115291" lon="8.259417481331639"><ele>378.6</ele><time>2026-04-03T13:30:13.815Z</time></trkpt><trkpt lat="45.73810104690978" lon="8.259447623788285"><ele>377.8</ele><time>2026-04-03T13:30:14.815Z</time></trkpt><trkpt lat="45.73821279438883" lon="8.259481516190744"><ele>377.0</ele><time>2026-04-03T13:30:15.815Z</time></trkpt><trkpt lat="45.73832516358077" lon="8.259522728439215"><ele>377.0</ele><time>2026-04-03T13:30:16.815Z</time></trkpt><trkpt lat="45.738432269638416" lon="8.259562967186959"><ele>377.0</ele><time>2026-04-03T13:30:17.815Z</time></trkpt><trkpt lat="45.73855407716155" lon="8.25960676858747"><ele>377.0</ele><time>2026-04-03T13:30:18.815Z</time></trkpt><trkpt lat="45.73868297189805" lon="8.259662936987958"><ele>377.0</ele><time>2026-04-03T13:30:19.815Z</time></trkpt><trkpt lat="45.73882236662989" lon="8.259717044566331"><ele>377.6666666666667</ele><time>2026-04-03T13:30:20.815Z</time></trkpt><trkpt lat="45.738965695910494" lon="8.259768443680164"><ele>378.3333333333333</ele><time>2026-04-03T13:30:21.815Z</time></trkpt><trkpt lat="45.739112768776266" lon="8.259813254826248"><ele>379.0</ele><time>2026-04-03T13:30:22.815Z</time></trkpt><trkpt lat="45.73927450016494" lon="8.259839594925646"><ele>376.5</ele><time>2026-04-03T13:30:23.815Z</time></trkpt><trkpt lat="45.739435380774644" lon="8.259849859560424"><ele>374.0</ele><time>2026-04-03T13:30:24.815Z</time></trkpt><trkpt lat="45.739576597829114" lon="8.25984981053851"><ele>371.5</ele><time>2026-04-03T13:30:25.815Z</time></trkpt><trkpt lat="45.739711476493554" lon="8.25985467754517"><ele>369.0</ele><time>2026-04-03T13:30:26.815Z</time></trkpt><trkpt lat="45.73983376957021" lon="8.259849839527412"><ele>369.0</ele><time>2026-04-03T13:30:27.815Z</time></trkpt><trkpt lat="45.73994121952001" lon="8.259835399182272"><ele>369.0</ele><time>2026-04-03T13:30:28.815Z</time></trkpt><trkpt lat="45.74003703199266" lon="8.259819999644888"><ele>369.0</ele><time>2026-04-03T13:30:29.815Z</time></trkpt><trkpt lat="45.740126864824354" lon="8.259817920958598"><ele>369.0</ele><time>2026-04-03T13:30:30.815Z</time></trkpt><trkpt lat="45.74021517300901" lon="8.259835569815545"><ele>369.0</ele><time>2026-04-03T13:30:31.815Z</time></trkpt><trkpt lat="45.74030100945771" lon="8.259820302619445"><ele>370.4</ele><time>2026-04-03T13:30:32.815Z</time></trkpt><trkpt lat="45.74038294641027" lon="8.259768066190974"><ele>371.79999999999995</ele><time>2026-04-03T13:30:33.815Z</time></trkpt><trkpt lat="45.74047624005009" lon="8.259714934800341"><ele>373.20000000000005</ele><time>2026-04-03T13:30:34.815Z</time></trkpt><trkpt lat="45.74058068821828" lon="8.259676720482862"><ele>374.6</ele><time>2026-04-03T13:30:35.815Z</time></trkpt><trkpt lat="45.74069548496489" lon="8.259641431551305"><ele>376.0</ele><time>2026-04-03T13:30:36.815Z</time></trkpt><trkpt lat="45.740818472689746" lon="8.259604376061125"><ele>376.0</ele><time>2026-04-03T13:30:37.815Z</time></trkpt><trkpt lat="45.74094340325835" lon="8.259568542259377"><ele>376.0</ele><time>2026-04-03T13:30:38.815Z</time></trkpt><trkpt lat="45.741066934287275" lon="8.259529736516383"><ele>376.0</ele><time>2026-04-03T13:30:39.815Z</time></trkpt><trkpt lat="45.741193051146425" lon="8.259494915682161"><ele>376.0</ele><time>2026-04-03T13:30:40.815Z</time></trkpt><trkpt lat="45.74131906842485" lon="8.259464203534952"><ele>375.25</ele><time>2026-04-03T13:30:41.815Z</time></trkpt><trkpt lat="45.74144434796843" lon="8.25943385094484"><ele>374.5</ele><time>2026-04-03T13:30:42.815Z</time></trkpt><trkpt lat="45.741580986331414" lon="8.259405721882706"><ele>373.75</ele><time>2026-04-03T13:30:43.815Z</time></trkpt><trkpt lat="45.74172598474333" lon="8.259377245394885"><ele>373.0</ele><time>2026-04-03T13:30:44.815Z</time></trkpt><trkpt lat="45.7418820449054" lon="8.259345536332436"><ele>373.0</ele><time>2026-04-03T13:30:45.815Z</time></trkpt><trkpt lat="45.74204702605247" lon="8.259319020201193"><ele>373.0</ele><time>2026-04-03T13:30:46.815Z</time></trkpt><trkpt lat="45.742217972082706" lon="8.259293730206853"><ele>373.0</ele><time>2026-04-03T13:30:47.815Z</time></trkpt><trkpt lat="45.74238370646149" lon="8.259286092702846"><ele>373.0</ele><time>2026-04-03T13:30:48.815Z</time></trkpt><trkpt lat="45.74254333911776" lon="8.25929535295102"><ele>373.0</ele><time>2026-04-03T13:30:49.815Z</time></trkpt><trkpt lat="45.74270921672272" lon="8.25931183044502"><ele>373.0</ele><time>2026-04-03T13:30:50.815Z</time></trkpt><trkpt lat="45.742880920135896" lon="8.259338403316093"><ele>373.66666666666663</ele><time>2026-04-03T13:30:51.815Z</time></trkpt><trkpt lat="45.74304219538488" lon="8.25936753241946"><ele>374.3333333333333</ele><time>2026-04-03T13:30:52.815Z</time></trkpt><trkpt lat="45.743188172668596" lon="8.2593972869234"><ele>375.0</ele><time>2026-04-03T13:30:53.815Z</time></trkpt><trkpt lat="45.74332876362026" lon="8.259427588407211"><ele>375.0</ele><time>2026-04-03T13:30:54.815Z</time></trkpt><trkpt lat="45.743470597137986" lon="8.25945783325057"><ele>375.0</ele><time>2026-04-03T13:30:55.815Z</time></trkpt><trkpt lat="45.743616753903105" lon="8.259492124064808"><ele>375.0</ele><time>2026-04-03T13:30:56.815Z</time></trkpt><trkpt lat="45.74376475670032" lon="8.259529128010884"><ele>375.0</ele><time>2026-04-03T13:30:57.815Z</time></trkpt><trkpt lat="45.74390029196428" lon="8.259565592942447"><ele>375.2</ele><time>2026-04-03T13:30:58.816Z</time></trkpt><trkpt lat="45.74402273166323" lon="8.259601244734183"><ele>375.4</ele><time>2026-04-03T13:30:59.816Z</time></trkpt><trkpt lat="45.74413950845441" lon="8.25963160440891"><ele>375.6</ele><time>2026-04-03T13:31:00.816Z</time></trkpt><trkpt lat="45.74424797829535" lon="8.259661004573212"><ele>375.8</ele><time>2026-04-03T13:31:01.816Z</time></trkpt><trkpt lat="45.74433205253108" lon="8.259680912798098"><ele>376.0</ele><time>2026-04-03T13:31:02.816Z</time></trkpt><trkpt lat="45.74440709330815" lon="8.259703645575255"><ele>376.0</ele><time>2026-04-03T13:31:03.816Z</time></trkpt><trkpt lat="45.74446909325139" lon="8.259720839767274"><ele>376.0</ele><time>2026-04-03T13:31:04.816Z</time></trkpt><trkpt lat="45.744552540352906" lon="8.259748559245667"><ele>376.0</ele><time>2026-04-03T13:31:06.816Z</time></trkpt><trkpt lat="45.74462516137579" lon="8.259758591412782"><ele>376.0</ele><time>2026-04-03T13:31:10.818Z</time></trkpt><trkpt lat="45.74471419602869" lon="8.259779286282338"><ele>376.0</ele><time>2026-04-03T13:31:12.818Z</time></trkpt><trkpt lat="45.74477637455648" lon="8.259804011197119"><ele>376.0</ele><time>2026-04-03T13:31:13.818Z</time></trkpt><trkpt lat="45.74484742522667" lon="8.259824656392873"><ele>376.0</ele><time>2026-04-03T13:31:14.817Z</time></trkpt><trkpt lat="45.74492132574497" lon="8.25984068675928"><ele>375.8</ele><time>2026-04-03T13:31:15.817Z</time></trkpt><trkpt lat="45.74501316849841" lon="8.259862985292871"><ele>375.6</ele><time>2026-04-03T13:31:16.818Z</time></trkpt><trkpt lat="45.74512504764599" lon="8.2598947674014"><ele>375.4</ele><time>2026-04-03T13:31:17.818Z</time></trkpt><trkpt lat="45.74523748983331" lon="8.25992591048852"><ele>375.2</ele><time>2026-04-03T13:31:18.818Z</time></trkpt><trkpt lat="45.74535349838744" lon="8.25995747251096"><ele>375.0</ele><time>2026-04-03T13:31:19.818Z</time></trkpt><trkpt lat="45.74548182060977" lon="8.259992583986948"><ele>375.0</ele><time>2026-04-03T13:31:20.818Z</time></trkpt><trkpt lat="45.745622319887666" lon="8.26003138835474"><ele>375.0</ele><time>2026-04-03T13:31:21.818Z</time></trkpt><trkpt lat="45.745770989557045" lon="8.260073604159736"><ele>375.0</ele><time>2026-04-03T13:31:22.818Z</time></trkpt><trkpt lat="45.745914409352224" lon="8.260111982074697"><ele>375.0</ele><time>2026-04-03T13:31:23.818Z</time></trkpt><trkpt lat="45.74606622115577" lon="8.260155084115931"><ele>374.6666666666667</ele><time>2026-04-03T13:31:24.818Z</time></trkpt><trkpt lat="45.746225419293246" lon="8.260200081916603"><ele>374.33333333333337</ele><time>2026-04-03T13:31:25.818Z</time></trkpt><trkpt lat="45.74639380407783" lon="8.260241701315323"><ele>374.0</ele><time>2026-04-03T13:31:26.818Z</time></trkpt><trkpt lat="45.74656880390084" lon="8.260280428995989"><ele>374.0</ele><time>2026-04-03T13:31:27.818Z</time></trkpt><trkpt lat="45.74674597976038" lon="8.260309004520943"><ele>374.0</ele><time>2026-04-03T13:31:28.818Z</time></trkpt><trkpt lat="45.7469263597864" lon="8.260321623211338"><ele>374.0</ele><time>2026-04-03T13:31:29.818Z</time></trkpt><trkpt lat="45.747108381826706" lon="8.260317193428556"><ele>375.6666666666667</ele><time>2026-04-03T13:31:30.818Z</time></trkpt><trkpt lat="45.747286623626344" lon="8.260299884158352"><ele>377.3333333333333</ele><time>2026-04-03T13:31:31.818Z</time></trkpt><trkpt lat="45.74746482220553" lon="8.260283789209419"><ele>379.0</ele><time>2026-04-03T13:31:32.818Z</time></trkpt><trkpt lat="45.74764145670396" lon="8.26025773422307"><ele>379.0</ele><time>2026-04-03T13:31:33.818Z</time></trkpt><trkpt lat="45.74781496753249" lon="8.260223111125928"><ele>379.0</ele><time>2026-04-03T13:31:34.818Z</time></trkpt><trkpt lat="45.74799157523958" lon="8.260197180169088"><ele>379.0</ele><time>2026-04-03T13:31:35.818Z</time></trkpt><trkpt lat="45.74817548643045" lon="8.260165170004655"><ele>379.0</ele><time>2026-04-03T13:31:36.818Z</time></trkpt><trkpt lat="45.74836542334523" lon="8.260127462117586"><ele>379.0</ele><time>2026-04-03T13:31:37.818Z</time></trkpt><trkpt lat="45.74855858243254" lon="8.260092652866124"><ele>379.0</ele><time>2026-04-03T13:31:38.818Z</time></trkpt><trkpt lat="45.74875260438397" lon="8.260058528552214"><ele>379.66666666666663</ele><time>2026-04-03T13:31:39.818Z</time></trkpt><trkpt lat="45.74895291297719" lon="8.260020416084942"><ele>380.3333333333333</ele><time>2026-04-03T13:31:40.818Z</time></trkpt><trkpt lat="45.749154438183744" lon="8.25999216551777"><ele>381.0</ele><time>2026-04-03T13:31:41.818Z</time></trkpt><trkpt lat="45.74935316402348" lon="8.259969983253848"><ele>378.6666666666667</ele><time>2026-04-03T13:31:42.818Z</time></trkpt><trkpt lat="45.74955109359791" lon="8.259937158025945"><ele>376.33333333333337</ele><time>2026-04-03T13:31:43.818Z</time></trkpt><trkpt lat="45.749750764708324" lon="8.259876003590604"><ele>374.0</ele><time>2026-04-03T13:31:44.818Z</time></trkpt><trkpt lat="45.74995954296291" lon="8.259780710699836"><ele>380.6666666666667</ele><time>2026-04-03T13:31:45.818Z</time></trkpt><trkpt lat="45.750165006216164" lon="8.259668538849594"><ele>387.33333333333337</ele><time>2026-04-03T13:31:46.818Z</time></trkpt><trkpt lat="45.75036502099275" lon="8.259568710867807"><ele>394.0</ele><time>2026-04-03T13:31:47.818Z</time></trkpt><trkpt lat="45.7505756679315" lon="8.259488486779711"><ele>394.0</ele><time>2026-04-03T13:31:48.818Z</time></trkpt><trkpt lat="45.75079317642848" lon="8.259414133294166"><ele>394.0</ele><time>2026-04-03T13:31:49.818Z</time></trkpt><trkpt lat="45.751009136326964" lon="8.259341931668448"><ele>394.0</ele><time>2026-04-03T13:31:50.818Z</time></trkpt><trkpt lat="45.75123045679575" lon="8.259274426171295"><ele>389.0</ele><time>2026-04-03T13:31:51.818Z</time></trkpt><trkpt lat="45.75143754099106" lon="8.25920775919233"><ele>384.0</ele><time>2026-04-03T13:31:52.818Z</time></trkpt><trkpt lat="45.75164262221516" lon="8.259148094614774"><ele>379.0</ele><time>2026-04-03T13:31:53.818Z</time></trkpt><trkpt lat="45.75185402727127" lon="8.259096175442748"><ele>380.0</ele><time>2026-04-03T13:31:54.818Z</time></trkpt><trkpt lat="45.752069547368265" lon="8.259065650353328"><ele>381.0</ele><time>2026-04-03T13:31:55.818Z</time></trkpt><trkpt lat="45.75228450255473" lon="8.259057262735027"><ele>382.0</ele><time>2026-04-03T13:31:56.818Z</time></trkpt><trkpt lat="45.752497906973225" lon="8.259049446097158"><ele>382.3333333333333</ele><time>2026-04-03T13:31:57.818Z</time></trkpt><trkpt lat="45.75271602850189" lon="8.259037548784246"><ele>382.6666666666667</ele><time>2026-04-03T13:31:58.818Z</time></trkpt><trkpt lat="45.75293520124809" lon="8.259026085885258"><ele>383.0</ele><time>2026-04-03T13:31:59.818Z</time></trkpt><trkpt lat="45.7531575682645" lon="8.259009311073042"><ele>383.0</ele><time>2026-04-03T13:32:00.818Z</time></trkpt><trkpt lat="45.7533780305262" lon="8.258997421791928"><ele>383.0</ele><time>2026-04-03T13:32:01.818Z</time></trkpt><trkpt lat="45.753594522582816" lon="8.258983773992032"><ele>383.0</ele><time>2026-04-03T13:32:02.819Z</time></trkpt><trkpt lat="45.753815198755525" lon="8.258974795322574"><ele>382.6666666666667</ele><time>2026-04-03T13:32:03.819Z</time></trkpt><trkpt lat="45.75403141508028" lon="8.25896453626444"><ele>382.3333333333333</ele><time>2026-04-03T13:32:04.819Z</time></trkpt><trkpt lat="45.75424715637738" lon="8.258959891859764"><ele>382.0</ele><time>2026-04-03T13:32:05.819Z</time></trkpt><trkpt lat="45.75446460569095" lon="8.258961864760705"><ele>382.0</ele><time>2026-04-03T13:32:06.819Z</time></trkpt><trkpt lat="45.75468099138304" lon="8.258975608059592"><ele>382.0</ele><time>2026-04-03T13:32:07.819Z</time></trkpt><trkpt lat="45.754895636053966" lon="8.259000103952104"><ele>382.0</ele><time>2026-04-03T13:32:08.819Z</time></trkpt><trkpt lat="45.75510872391108" lon="8.259025393899027"><ele>384.66666666666663</ele><time>2026-04-03T13:32:09.819Z</time></trkpt><trkpt lat="45.75531997168827" lon="8.25905366540291"><ele>387.3333333333333</ele><time>2026-04-03T13:32:10.819Z</time></trkpt><trkpt lat="45.755531324783725" lon="8.25908278976598"><ele>390.0</ele><time>2026-04-03T13:32:11.819Z</time></trkpt><trkpt lat="45.7557399177402" lon="8.259110134707452"><ele>390.0</ele><time>2026-04-03T13:32:12.819Z</time></trkpt><trkpt lat="45.755952480558555" lon="8.259139583340184"><ele>390.0</ele><time>2026-04-03T13:32:13.819Z</time></trkpt><trkpt lat="45.75615938277811" lon="8.25916822372019"><ele>390.0</ele><time>2026-04-03T13:32:14.819Z</time></trkpt><trkpt lat="45.756364895984646" lon="8.259181049067031"><ele>391.0</ele><time>2026-04-03T13:32:15.819Z</time></trkpt><trkpt lat="45.75657562262442" lon="8.259173586095383"><ele>392.0</ele><time>2026-04-03T13:32:16.819Z</time></trkpt><trkpt lat="45.75678822620615" lon="8.259154335860517"><ele>393.0</ele><time>2026-04-03T13:32:17.819Z</time></trkpt><trkpt lat="45.75700289850519" lon="8.25912844257757"><ele>395.33333333333337</ele><time>2026-04-03T13:32:18.819Z</time></trkpt><trkpt lat="45.75722625631116" lon="8.259106499013173"><ele>397.6666666666667</ele><time>2026-04-03T13:32:19.819Z</time></trkpt><trkpt lat="45.75744724247183" lon="8.259086427797001"><ele>400.0</ele><time>2026-04-03T13:32:20.819Z</time></trkpt><trkpt lat="45.75767103112117" lon="8.259070616655741"><ele>402.33333333333337</ele><time>2026-04-03T13:32:21.819Z</time></trkpt><trkpt lat="45.75789069299152" lon="8.259053119816953"><ele>404.66666666666663</ele><time>2026-04-03T13:32:22.819Z</time></trkpt><trkpt lat="45.758107876563095" lon="8.259029692517911"><ele>407.0</ele><time>2026-04-03T13:32:23.819Z</time></trkpt><trkpt lat="45.758325885486975" lon="8.259008350322043"><ele>407.66666666666663</ele><time>2026-04-03T13:32:24.819Z</time></trkpt><trkpt lat="45.758539614804526" lon="8.258989328000848"><ele>408.33333333333337</ele><time>2026-04-03T13:32:25.819Z</time></trkpt><trkpt lat="45.75875283650386" lon="8.258968735910603"><ele>409.0</ele><time>2026-04-03T13:32:26.819Z</time></trkpt><trkpt lat="45.758967131377524" lon="8.25895020035586"><ele>409.0</ele><time>2026-04-03T13:32:27.819Z</time></trkpt><trkpt lat="45.75917216485487" lon="8.258933772488795"><ele>409.0</ele><time>2026-04-03T13:32:28.819Z</time></trkpt><trkpt lat="45.75936646016804" lon="8.258915573229594"><ele>409.0</ele><time>2026-04-03T13:32:29.819Z</time></trkpt><trkpt lat="45.75955091770686" lon="8.258904194540378"><ele>409.25</ele><time>2026-04-03T13:32:30.819Z</time></trkpt><trkpt lat="45.75971410162657" lon="8.258898779200877"><ele>409.5</ele><time>2026-04-03T13:32:31.819Z</time></trkpt><trkpt lat="45.75985813309024" lon="8.258905453175743"><ele>409.75</ele><time>2026-04-03T13:32:32.819Z</time></trkpt><trkpt lat="45.75999096305093" lon="8.258922769618742"><ele>410.0</ele><time>2026-04-03T13:32:33.819Z</time></trkpt><trkpt lat="45.76011424641976" lon="8.258948352678326"><ele>407.8</ele><time>2026-04-03T13:32:34.819Z</time></trkpt><trkpt lat="45.760227562721425" lon="8.258982496359792"><ele>405.6</ele><time>2026-04-03T13:32:35.819Z</time></trkpt><trkpt lat="45.760326246747354" lon="8.259022028944377"><ele>403.4</ele><time>2026-04-03T13:32:36.819Z</time></trkpt><trkpt lat="45.76042005125124" lon="8.25906714311811"><ele>401.2</ele><time>2026-04-03T13:32:37.819Z</time></trkpt><trkpt lat="45.760493716035946" lon="8.259123036667594"><ele>399.0</ele><time>2026-04-03T13:32:38.819Z</time></trkpt><trkpt lat="45.760544599732555" lon="8.259205291652403"><ele>399.0</ele><time>2026-04-03T13:32:39.819Z</time></trkpt><trkpt lat="45.7605771662097" lon="8.259298068391537"><ele>399.0</ele><time>2026-04-03T13:32:40.819Z</time></trkpt><trkpt lat="45.76060981981299" lon="8.259386109428718"><ele>399.0</ele><time>2026-04-03T13:32:41.819Z</time></trkpt><trkpt lat="45.76066754149568" lon="8.259449368827385"><ele>399.0</ele><time>2026-04-03T13:32:42.819Z</time></trkpt><trkpt lat="45.76074226339342" lon="8.259462418095106"><ele>399.0</ele><time>2026-04-03T13:32:43.819Z</time></trkpt><trkpt lat="45.76082282732068" lon="8.259437054313796"><ele>399.0</ele><time>2026-04-03T13:32:44.819Z</time></trkpt><trkpt lat="45.76090954306726" lon="8.259409647296236"><ele>399.0</ele><time>2026-04-03T13:32:45.819Z</time></trkpt><trkpt lat="45.76100381300117" lon="8.259418654027177"><ele>399.0</ele><time>2026-04-03T13:32:46.819Z</time></trkpt><trkpt lat="45.76109805164064" lon="8.259470320333202"><ele>399.0</ele><time>2026-04-03T13:32:47.819Z</time></trkpt><trkpt lat="45.76119821729104" lon="8.259526033860595"><ele>399.0</ele><time>2026-04-03T13:32:48.819Z</time></trkpt><trkpt lat="45.76130635533755" lon="8.259579750744242"><ele>399.0</ele><time>2026-04-03T13:32:49.819Z</time></trkpt><trkpt lat="45.76142087452138" lon="8.259635875804909"><ele>398.75</ele><time>2026-04-03T13:32:50.819Z</time></trkpt><trkpt lat="45.76154399895309" lon="8.259683307947348"><ele>398.5</ele><time>2026-04-03T13:32:51.819Z</time></trkpt><trkpt lat="45.761675980793456" lon="8.2597206355973"><ele>398.25</ele><time>2026-04-03T13:32:52.819Z</time></trkpt><trkpt lat="45.76180914866591" lon="8.259751964155877"><ele>398.0</ele><time>2026-04-03T13:32:53.819Z</time></trkpt><trkpt lat="45.76193881915458" lon="8.259771901120297"><ele>397.25</ele><time>2026-04-03T13:32:54.819Z</time></trkpt><trkpt lat="45.76206908161448" lon="8.25978665315099"><ele>396.5</ele><time>2026-04-03T13:32:55.819Z</time></trkpt><trkpt lat="45.762207230603934" lon="8.259808359947291"><ele>395.75</ele><time>2026-04-03T13:32:56.819Z</time></trkpt><trkpt lat="45.76235527175664" lon="8.259829205495482"><ele>395.0</ele><time>2026-04-03T13:32:57.82Z</time></trkpt><trkpt lat="45.76250999576921" lon="8.259848263650923"><ele>395.0</ele><time>2026-04-03T13:32:58.82Z</time></trkpt><trkpt lat="45.76266289685467" lon="8.25986901671153"><ele>395.0</ele><time>2026-04-03T13:32:59.82Z</time></trkpt><trkpt lat="45.762809954958406" lon="8.259892128342845"><ele>395.0</ele><time>2026-04-03T13:33:00.82Z</time></trkpt><trkpt lat="45.76294887255431" lon="8.259914804126455"><ele>395.0</ele><time>2026-04-03T13:33:01.82Z</time></trkpt><trkpt lat="45.76308429395538" lon="8.25993260172176"><ele>395.25</ele><time>2026-04-03T13:33:02.82Z</time></trkpt><trkpt lat="45.76321153679223" lon="8.259949150535062"><ele>395.5</ele><time>2026-04-03T13:33:03.82Z</time></trkpt><trkpt lat="45.7633270549134" lon="8.259966805230537"><ele>395.75</ele><time>2026-04-03T13:33:04.82Z</time></trkpt><trkpt lat="45.763434696307236" lon="8.259992329581205"><ele>396.0</ele><time>2026-04-03T13:33:05.82Z</time></trkpt><trkpt lat="45.763532675692204" lon="8.260021077907071"><ele>396.0</ele><time>2026-04-03T13:33:06.82Z</time></trkpt><trkpt lat="45.76362040117136" lon="8.260055133359096"><ele>396.0</ele><time>2026-04-03T13:33:07.82Z</time></trkpt><trkpt lat="45.76370476407986" lon="8.260090429928736"><ele>396.0</ele><time>2026-04-03T13:33:08.82Z</time></trkpt><trkpt lat="45.76378159922982" lon="8.260128487474592"><ele>396.0</ele><time>2026-04-03T13:33:09.82Z</time></trkpt><trkpt lat="45.76384839742452" lon="8.260172047049553"><ele>396.0</ele><time>2026-04-03T13:33:10.82Z</time></trkpt><trkpt lat="45.763904478632114" lon="8.260235372921013"><ele>396.0</ele><time>2026-04-03T13:33:11.82Z</time></trkpt><trkpt lat="45.76396103967336" lon="8.260282104911948"><ele>396.0</ele><time>2026-04-03T13:33:12.82Z</time></trkpt><trkpt lat="45.764079885438385" lon="8.2602542241206"><ele>396.0</ele><time>2026-04-03T13:33:14.82Z</time></trkpt><trkpt lat="45.76415680730219" lon="8.260208890647451"><ele>396.0</ele><time>2026-04-03T13:33:15.82Z</time></trkpt><trkpt lat="45.76425618346535" lon="8.26018912221966"><ele>396.0</ele><time>2026-04-03T13:33:16.82Z</time></trkpt><trkpt lat="45.76437050677598" lon="8.260187877546176"><ele>396.0</ele><time>2026-04-03T13:33:17.819Z</time></trkpt><trkpt lat="45.76447854196667" lon="8.260189109032607"><ele>395.25</ele><time>2026-04-03T13:33:18.82Z</time></trkpt><trkpt lat="45.76458827619109" lon="8.260190163558809"><ele>394.5</ele><time>2026-04-03T13:33:19.82Z</time></trkpt><trkpt lat="45.764710774534414" lon="8.260194565638317"><ele>393.75</ele><time>2026-04-03T13:33:20.82Z</time></trkpt><trkpt lat="45.764839362457245" lon="8.260204654961033"><ele>393.0</ele><time>2026-04-03T13:33:21.82Z</time></trkpt><trkpt lat="45.76497694915199" lon="8.260219199728326"><ele>393.0</ele><time>2026-04-03T13:33:22.82Z</time></trkpt><trkpt lat="45.76511087144613" lon="8.260232566930377"><ele>393.0</ele><time>2026-04-03T13:33:23.82Z</time></trkpt><trkpt lat="45.7652420999219" lon="8.260247002187644"><ele>393.0</ele><time>2026-04-03T13:33:24.82Z</time></trkpt><trkpt lat="45.76537050476803" lon="8.260261834270718"><ele>393.0</ele><time>2026-04-03T13:33:25.82Z</time></trkpt><trkpt lat="45.765503187377355" lon="8.260279526286906"><ele>392.75</ele><time>2026-04-03T13:33:26.82Z</time></trkpt><trkpt lat="45.765644449713946" lon="8.260300086051782"><ele>392.5</ele><time>2026-04-03T13:33:27.82Z</time></trkpt><trkpt lat="45.7657950566557" lon="8.260323890232765"><ele>392.25</ele><time>2026-04-03T13:33:28.82Z</time></trkpt><trkpt lat="45.765940070505295" lon="8.260344882753879"><ele>392.0</ele><time>2026-04-03T13:33:29.82Z</time></trkpt><trkpt lat="45.766079204647845" lon="8.260364361083147"><ele>392.0</ele><time>2026-04-03T13:33:30.82Z</time></trkpt><trkpt lat="45.766213810443666" lon="8.260387498998663"><ele>392.0</ele><time>2026-04-03T13:33:31.82Z</time></trkpt><trkpt lat="45.76635041307601" lon="8.260407941190739"><ele>392.0</ele><time>2026-04-03T13:33:32.82Z</time></trkpt><trkpt lat="45.766477662431726" lon="8.260426818624962"><ele>392.0</ele><time>2026-04-03T13:33:33.82Z</time></trkpt><trkpt lat="45.76658979970157" lon="8.260444042362085"><ele>391.99999999999994</ele><time>2026-04-03T13:33:34.82Z</time></trkpt><trkpt lat="45.766684619319626" lon="8.260458306193167"><ele>392.0</ele><time>2026-04-03T13:33:35.82Z</time></trkpt><trkpt lat="45.76675789713772" lon="8.260467429627457"><ele>392.0</ele><time>2026-04-03T13:33:36.82Z</time></trkpt><trkpt lat="45.76682957078453" lon="8.260470175555529"><ele>392.0</ele><time>2026-04-03T13:33:37.82Z</time></trkpt><trkpt lat="45.76690302304029" lon="8.260473363217521"><ele>391.99999999999994</ele><time>2026-04-03T13:33:38.82Z</time></trkpt><trkpt lat="45.766990596141426" lon="8.260478034185192"><ele>392.0</ele><time>2026-04-03T13:33:39.82Z</time></trkpt><trkpt lat="45.767085915750336" lon="8.260483113659918"><ele>392.8</ele><time>2026-04-03T13:33:40.82Z</time></trkpt><trkpt lat="45.76718482695385" lon="8.260493922905324"><ele>393.6</ele><time>2026-04-03T13:33:41.82Z</time></trkpt><trkpt lat="45.76728368565445" lon="8.260507869969759"><ele>394.40000000000003</ele><time>2026-04-03T13:33:42.82Z</time></trkpt><trkpt lat="45.76738335018049" lon="8.260523681413103"><ele>395.20000000000005</ele><time>2026-04-03T13:33:43.82Z</time></trkpt><trkpt lat="45.76748670993459" lon="8.260539053592028"><ele>396.0</ele><time>2026-04-03T13:33:44.82Z</time></trkpt><trkpt lat="45.76759269747658" lon="8.260555695678029"><ele>396.0</ele><time>2026-04-03T13:33:45.82Z</time></trkpt><trkpt lat="45.7677035969564" lon="8.260569482624753"><ele>396.0</ele><time>2026-04-03T13:33:46.82Z</time></trkpt><trkpt lat="45.767830842926315" lon="8.260584168640452"><ele>396.0</ele><time>2026-04-03T13:33:47.82Z</time></trkpt><trkpt lat="45.767955508496904" lon="8.260609066829351"><ele>396.0</ele><time>2026-04-03T13:33:48.82Z</time></trkpt><trkpt lat="45.76807321066522" lon="8.260639241711514"><ele>395.0</ele><time>2026-04-03T13:33:49.821Z</time></trkpt><trkpt lat="45.76817883173488" lon="8.260674181751183"><ele>394.0</ele><time>2026-04-03T13:33:50.821Z</time></trkpt><trkpt lat="45.76826671823017" lon="8.260708212392418"><ele>393.0</ele><time>2026-04-03T13:33:51.821Z</time></trkpt><trkpt lat="45.76832662033221" lon="8.260736514318154"><ele>392.0</ele><time>2026-04-03T13:33:52.821Z</time></trkpt><trkpt lat="45.76839346029589" lon="8.260761148479247"><ele>391.0</ele><time>2026-04-03T13:33:54.821Z</time></trkpt><trkpt lat="45.768477591130456" lon="8.260789827784802"><ele>390.0</ele><time>2026-04-03T13:33:57.821Z</time></trkpt><trkpt lat="45.76855542287968" lon="8.260825724625978"><ele>390.0</ele><time>2026-04-03T13:34:00.821Z</time></trkpt><trkpt lat="45.76861565742159" lon="8.260853470911696"><ele>390.0</ele><time>2026-04-03T13:34:07.821Z</time></trkpt><trkpt lat="45.768678869764805" lon="8.26087054275225"><ele>390.0</ele><time>2026-04-03T13:34:10.821Z</time></trkpt><trkpt lat="45.76874427982128" lon="8.260900454563778"><ele>390.0</ele><time>2026-04-03T13:34:12.821Z</time></trkpt><trkpt lat="45.7688522613826" lon="8.260986942667735"><ele>390.0</ele><time>2026-04-03T13:34:14.821Z</time></trkpt><trkpt lat="45.768921327781655" lon="8.26103664150052"><ele>390.0</ele><time>2026-04-03T13:34:15.821Z</time></trkpt><trkpt lat="45.76899532830481" lon="8.261090537253118"><ele>390.0</ele><time>2026-04-03T13:34:16.821Z</time></trkpt><trkpt lat="45.769086267527264" lon="8.261156161698358"><ele>390.0</ele><time>2026-04-03T13:34:17.821Z</time></trkpt><trkpt lat="45.769192656676815" lon="8.261239670053603"><ele>390.0</ele><time>2026-04-03T13:34:18.821Z</time></trkpt><trkpt lat="45.769294694129954" lon="8.261327428689881"><ele>390.0</ele><time>2026-04-03T13:34:19.821Z</time></trkpt><trkpt lat="45.76939821400381" lon="8.26142377227338"><ele>390.25</ele><time>2026-04-03T13:34:20.821Z</time></trkpt><trkpt lat="45.76950799902812" lon="8.261535121851445"><ele>390.5</ele><time>2026-04-03T13:34:21.821Z</time></trkpt><trkpt lat="45.769624146162656" lon="8.261665070068204"><ele>390.75</ele><time>2026-04-03T13:34:22.821Z</time></trkpt><trkpt lat="45.769746038597496" lon="8.261815318646539"><ele>391.0</ele><time>2026-04-03T13:34:23.821Z</time></trkpt><trkpt lat="45.769865540963316" lon="8.261982600923659"><ele>391.0</ele><time>2026-04-03T13:34:24.821Z</time></trkpt><trkpt lat="45.76997426595654" lon="8.262147955918612"><ele>391.0</ele><time>2026-04-03T13:34:25.821Z</time></trkpt><trkpt lat="45.77007941247768" lon="8.26232016706911"><ele>391.0</ele><time>2026-04-03T13:34:26.821Z</time></trkpt><trkpt lat="45.77017989325429" lon="8.262502818578147"><ele>390.33333333333337</ele><time>2026-04-03T13:34:27.821Z</time></trkpt><trkpt lat="45.77027727004154" lon="8.262700407941729"><ele>389.66666666666663</ele><time>2026-04-03T13:34:28.821Z</time></trkpt><trkpt lat="45.770377668637835" lon="8.26290583506889"><ele>389.0</ele><time>2026-04-03T13:34:29.821Z</time></trkpt><trkpt lat="45.77048173669962" lon="8.263120549974126"><ele>388.66666666666663</ele><time>2026-04-03T13:34:30.821Z</time></trkpt><trkpt lat="45.77058895854828" lon="8.263340201479446"><ele>388.33333333333337</ele><time>2026-04-03T13:34:31.821Z</time></trkpt><trkpt lat="45.770703622231814" lon="8.263565706922291"><ele>388.0</ele><time>2026-04-03T13:34:32.821Z</time></trkpt><trkpt lat="45.77082185269781" lon="8.263795237995625"><ele>388.0</ele><time>2026-04-03T13:34:33.821Z</time></trkpt><trkpt lat="45.77093791247064" lon="8.264024108623435"><ele>388.0</ele><time>2026-04-03T13:34:34.821Z</time></trkpt><trkpt lat="45.77104856020926" lon="8.26424783165677"><ele>388.0</ele><time>2026-04-03T13:34:35.821Z</time></trkpt><trkpt lat="45.77116119488976" lon="8.264470029018705"><ele>388.6666666666667</ele><time>2026-04-03T13:34:36.821Z</time></trkpt><trkpt lat="45.77127415218818" lon="8.264702193565391"><ele>389.33333333333337</ele><time>2026-04-03T13:34:37.821Z</time></trkpt><trkpt lat="45.771388914613595" lon="8.26493225629849"><ele>390.0</ele><time>2026-04-03T13:34:38.821Z</time></trkpt><trkpt lat="45.77150254655023" lon="8.265154446617741"><ele>391.66666666666663</ele><time>2026-04-03T13:34:39.821Z</time></trkpt><trkpt lat="45.771613804091366" lon="8.265372357781295"><ele>393.3333333333333</ele><time>2026-04-03T13:34:40.821Z</time></trkpt><trkpt lat="45.77172918315807" lon="8.265598726985502"><ele>395.0</ele><time>2026-04-03T13:34:41.822Z</time></trkpt><trkpt lat="45.77184914172084" lon="8.265831161297395"><ele>395.3333333333333</ele><time>2026-04-03T13:34:42.822Z</time></trkpt><trkpt lat="45.77198011691385" lon="8.266068074961174"><ele>395.66666666666663</ele><time>2026-04-03T13:34:43.822Z</time></trkpt><trkpt lat="45.772118549771754" lon="8.266306479701166"><ele>396.0</ele><time>2026-04-03T13:34:44.822Z</time></trkpt><trkpt lat="45.77226224046193" lon="8.266539280415744"><ele>396.0</ele><time>2026-04-03T13:34:45.822Z</time></trkpt><trkpt lat="45.77240767006641" lon="8.26677034940084"><ele>396.0</ele><time>2026-04-03T13:34:46.822Z</time></trkpt><trkpt lat="45.77255686743928" lon="8.266993336431202"><ele>396.0</ele><time>2026-04-03T13:34:47.822Z</time></trkpt><trkpt lat="45.77270852016491" lon="8.26721683653776"><ele>396.33333333333337</ele><time>2026-04-03T13:34:48.822Z</time></trkpt><trkpt lat="45.77286455909431" lon="8.26743459624345"><ele>396.6666666666667</ele><time>2026-04-03T13:34:49.822Z</time></trkpt><trkpt lat="45.773023722396566" lon="8.267647613352482"><ele>397.0</ele><time>2026-04-03T13:34:50.822Z</time></trkpt><trkpt lat="45.773186852393145" lon="8.26785680832803"><ele>397.0</ele><time>2026-04-03T13:34:51.822Z</time></trkpt><trkpt lat="45.77335472233813" lon="8.268054683479425"><ele>397.0</ele><time>2026-04-03T13:34:52.822Z</time></trkpt><trkpt lat="45.77352308736883" lon="8.268247353331397"><ele>397.0</ele><time>2026-04-03T13:34:53.822Z</time></trkpt><trkpt lat="45.773696620381266" lon="8.26843097342782"><ele>398.0</ele><time>2026-04-03T13:34:54.822Z</time></trkpt><trkpt lat="45.773866832031295" lon="8.268613163415544"><ele>399.0</ele><time>2026-04-03T13:34:55.822Z</time></trkpt><trkpt lat="45.774042217869734" lon="8.26879303076524"><ele>400.0</ele><time>2026-04-03T13:34:56.822Z</time></trkpt><trkpt lat="45.77422011733435" lon="8.268966288026842"><ele>400.0</ele><time>2026-04-03T13:34:57.822Z</time></trkpt><trkpt lat="45.77439911668092" lon="8.269136028354145"><ele>400.0</ele><time>2026-04-03T13:34:58.822Z</time></trkpt><trkpt lat="45.774578567763896" lon="8.269303398895518"><ele>400.0</ele><time>2026-04-03T13:34:59.822Z</time></trkpt><trkpt lat="45.77475712272173" lon="8.269471254317127"><ele>400.0</ele><time>2026-04-03T13:35:00.822Z</time></trkpt><trkpt lat="45.774934933873446" lon="8.269637354397709"><ele>400.0</ele><time>2026-04-03T13:35:01.822Z</time></trkpt><trkpt lat="45.77510810200677" lon="8.269804628142705"><ele>400.0</ele><time>2026-04-03T13:35:02.822Z</time></trkpt><trkpt lat="45.775284857387966" lon="8.26997154411319"><ele>401.0</ele><time>2026-04-03T13:35:03.822Z</time></trkpt><trkpt lat="45.77545878786198" lon="8.270137957925696"><ele>402.0</ele><time>2026-04-03T13:35:04.822Z</time></trkpt><trkpt lat="45.775629695152894" lon="8.270307141457423"><ele>403.0</ele><time>2026-04-03T13:35:05.822Z</time></trkpt><trkpt lat="45.775804683842466" lon="8.270469814058398"><ele>403.6666666666667</ele><time>2026-04-03T13:35:06.822Z</time></trkpt><trkpt lat="45.77598176029405" lon="8.27063853393442"><ele>404.33333333333337</ele><time>2026-04-03T13:35:07.822Z</time></trkpt><trkpt lat="45.776157693437604" lon="8.270810749669549"><ele>405.0</ele><time>2026-04-03T13:35:08.822Z</time></trkpt><trkpt lat="45.776339048797496" lon="8.270979047094285"><ele>405.0</ele><time>2026-04-03T13:35:09.822Z</time></trkpt><trkpt lat="45.776517778864005" lon="8.271151613852766"><ele>405.0</ele><time>2026-04-03T13:35:10.822Z</time></trkpt><trkpt lat="45.776699224127135" lon="8.271325466402672"><ele>405.0</ele><time>2026-04-03T13:35:11.822Z</time></trkpt><trkpt lat="45.776885726417454" lon="8.271498604073583"><ele>406.0</ele><time>2026-04-03T13:35:12.822Z</time></trkpt><trkpt lat="45.77707193652389" lon="8.271670905951936"><ele>407.0</ele><time>2026-04-03T13:35:13.822Z</time></trkpt><trkpt lat="45.77726099231621" lon="8.271842788425259"><ele>408.0</ele><time>2026-04-03T13:35:14.822Z</time></trkpt><trkpt lat="45.77744793891863" lon="8.27201609677882"><ele>408.0</ele><time>2026-04-03T13:35:15.822Z</time></trkpt><trkpt lat="45.77763669588824" lon="8.272188914342031"><ele>408.0</ele><time>2026-04-03T13:35:16.822Z</time></trkpt><trkpt lat="45.77782616974521" lon="8.272363174024468"><ele>408.0</ele><time>2026-04-03T13:35:17.822Z</time></trkpt><trkpt lat="45.77801607652066" lon="8.272536250825015"><ele>407.66666666666663</ele><time>2026-04-03T13:35:18.822Z</time></trkpt><trkpt lat="45.7782054387556" lon="8.272711963641573"><ele>407.3333333333333</ele><time>2026-04-03T13:35:19.823Z</time></trkpt><trkpt lat="45.77839073817503" lon="8.272891009340979"><ele>407.0</ele><time>2026-04-03T13:35:20.823Z</time></trkpt><trkpt lat="45.778573350366976" lon="8.273074340756187"><ele>407.3333333333333</ele><time>2026-04-03T13:35:21.823Z</time></trkpt><trkpt lat="45.77876036345832" lon="8.273253374183078"><ele>407.66666666666663</ele><time>2026-04-03T13:35:22.822Z</time></trkpt><trkpt lat="45.77894360608105" lon="8.273434602516293"><ele>408.0</ele><time>2026-04-03T13:35:23.823Z</time></trkpt><trkpt lat="45.77912988739778" lon="8.273611378198614"><ele>408.0</ele><time>2026-04-03T13:35:24.823Z</time></trkpt><trkpt lat="45.77931467123474" lon="8.273790278988614"><ele>408.0</ele><time>2026-04-03T13:35:25.823Z</time></trkpt><trkpt lat="45.77949650111798" lon="8.2739721413366"><ele>408.0</ele><time>2026-04-03T13:35:26.822Z</time></trkpt><trkpt lat="45.7796827868802" lon="8.274151867984624"><ele>408.0</ele><time>2026-04-03T13:35:27.822Z</time></trkpt><trkpt lat="45.77986689930676" lon="8.27433452326598"><ele>408.0</ele><time>2026-04-03T13:35:28.822Z</time></trkpt><trkpt lat="45.78004591955876" lon="8.274517276752485"><ele>408.0</ele><time>2026-04-03T13:35:29.823Z</time></trkpt><trkpt lat="45.78022556676605" lon="8.274697956163651"><ele>409.0</ele><time>2026-04-03T13:35:30.823Z</time></trkpt><trkpt lat="45.78040534747986" lon="8.274878863385887"><ele>410.0</ele><time>2026-04-03T13:35:31.823Z</time></trkpt><trkpt lat="45.7805888280638" lon="8.275059212808124"><ele>411.0</ele><time>2026-04-03T13:35:32.823Z</time></trkpt><trkpt lat="45.780768247125835" lon="8.275242959851948"><ele>411.0</ele><time>2026-04-03T13:35:33.823Z</time></trkpt><trkpt lat="45.780946275660334" lon="8.275426127579616"><ele>411.0</ele><time>2026-04-03T13:35:34.823Z</time></trkpt><trkpt lat="45.7811217475164" lon="8.275599782991637"><ele>411.0</ele><time>2026-04-03T13:35:35.823Z</time></trkpt><trkpt lat="45.781305142239574" lon="8.275754665759738"><ele>410.66666666666663</ele><time>2026-04-03T13:35:36.823Z</time></trkpt><trkpt lat="45.781491450713396" lon="8.275886696783097"><ele>410.3333333333333</ele><time>2026-04-03T13:35:37.823Z</time></trkpt><trkpt lat="45.78168556139981" lon="8.275992936009223"><ele>410.0</ele><time>2026-04-03T13:35:38.823Z</time></trkpt><trkpt lat="45.78188698389812" lon="8.276071594958067"><ele>410.0</ele><time>2026-04-03T13:35:39.823Z</time></trkpt><trkpt lat="45.7820941452663" lon="8.276126887931726"><ele>410.0</ele><time>2026-04-03T13:35:40.823Z</time></trkpt><trkpt lat="45.78230554148133" lon="8.27615560320678"><ele>410.0</ele><time>2026-04-03T13:35:41.823Z</time></trkpt><trkpt lat="45.78251893664154" lon="8.27615306695065"><ele>411.0</ele><time>2026-04-03T13:35:42.823Z</time></trkpt><trkpt lat="45.78273501124365" lon="8.276122438524345"><ele>412.0</ele><time>2026-04-03T13:35:43.823Z</time></trkpt><trkpt lat="45.78295091703459" lon="8.276062238408935"><ele>413.0</ele><time>2026-04-03T13:35:44.823Z</time></trkpt><trkpt lat="45.783166862764176" lon="8.276006662465258"><ele>413.0</ele><time>2026-04-03T13:35:45.823Z</time></trkpt><trkpt lat="45.7833723393211" lon="8.275957851341508"><ele>413.0</ele><time>2026-04-03T13:35:46.823Z</time></trkpt><trkpt lat="45.78356965023017" lon="8.275904009761582"><ele>413.0</ele><time>2026-04-03T13:35:47.823Z</time></trkpt><trkpt lat="45.783737016213536" lon="8.275663861991697"><ele>412.66666666666663</ele><time>2026-04-03T13:35:48.823Z</time></trkpt><trkpt lat="45.78391226904681" lon="8.27555547857182"><ele>412.33333333333337</ele><time>2026-04-03T13:35:49.823Z</time></trkpt><trkpt lat="45.78408265992754" lon="8.275452596836262"><ele>412.0</ele><time>2026-04-03T13:35:50.823Z</time></trkpt><trkpt lat="45.78425089800502" lon="8.275350144888492"><ele>412.33333333333337</ele><time>2026-04-03T13:35:51.823Z</time></trkpt><trkpt lat="45.78442308466653" lon="8.275249095426274"><ele>412.66666666666663</ele><time>2026-04-03T13:35:52.823Z</time></trkpt><trkpt lat="45.78460177259991" lon="8.275144977675343"><ele>413.0</ele><time>2026-04-03T13:35:53.823Z</time></trkpt><trkpt lat="45.784782174503256" lon="8.27503897330441"><ele>413.0</ele><time>2026-04-03T13:35:54.823Z</time></trkpt><trkpt lat="45.78496193830411" lon="8.274932488004247"><ele>413.0</ele><time>2026-04-03T13:35:55.823Z</time></trkpt><trkpt lat="45.78513801902722" lon="8.274823169065138"><ele>413.0</ele><time>2026-04-03T13:35:56.823Z</time></trkpt><trkpt lat="45.785315860282395" lon="8.274718074605124"><ele>413.66666666666663</ele><time>2026-04-03T13:35:57.823Z</time></trkpt><trkpt lat="45.7854909937201" lon="8.274614757825912"><ele>414.33333333333337</ele><time>2026-04-03T13:35:58.823Z</time></trkpt><trkpt lat="45.785664733581854" lon="8.274509663103586"><ele>415.0</ele><time>2026-04-03T13:35:59.823Z</time></trkpt><trkpt lat="45.78583529885469" lon="8.274403867663162"><ele>415.0</ele><time>2026-04-03T13:36:00.823Z</time></trkpt><trkpt lat="45.78601068347946" lon="8.274298501583804"><ele>415.0</ele><time>2026-04-03T13:36:01.823Z</time></trkpt><trkpt lat="45.78619178678813" lon="8.274193795280851"><ele>415.0</ele><time>2026-04-03T13:36:02.823Z</time></trkpt><trkpt lat="45.78637824118428" lon="8.27408570603704"><ele>415.0</ele><time>2026-04-03T13:36:03.823Z</time></trkpt><trkpt lat="45.786568636262984" lon="8.273974122328214"><ele>415.0</ele><time>2026-04-03T13:36:04.823Z</time></trkpt><trkpt lat="45.78676099286097" lon="8.273861286315597"><ele>415.0</ele><time>2026-04-03T13:36:05.823Z</time></trkpt><trkpt lat="45.78695452620069" lon="8.273754561952531"><ele>414.6666666666667</ele><time>2026-04-03T13:36:06.823Z</time></trkpt><trkpt lat="45.78714970507355" lon="8.273648118195185"><ele>414.33333333333337</ele><time>2026-04-03T13:36:07.823Z</time></trkpt><trkpt lat="45.78734699534573" lon="8.273539070394333"><ele>414.0</ele><time>2026-04-03T13:36:08.823Z</time></trkpt><trkpt lat="45.78754601944066" lon="8.273426148503038"><ele>414.0</ele><time>2026-04-03T13:36:09.823Z</time></trkpt><trkpt lat="45.78774698522516" lon="8.273316023281167"><ele>414.0</ele><time>2026-04-03T13:36:10.823Z</time></trkpt><trkpt lat="45.78795091005894" lon="8.273210627537935"><ele>414.0</ele><time>2026-04-03T13:36:11.823Z</time></trkpt><trkpt lat="45.78815210356368" lon="8.273106524966718"><ele>414.33333333333337</ele><time>2026-04-03T13:36:12.823Z</time></trkpt><trkpt lat="45.788355986543046" lon="8.27300275548102"><ele>414.6666666666667</ele><time>2026-04-03T13:36:13.823Z</time></trkpt><trkpt lat="45.788562027936045" lon="8.272905857949128"><ele>415.0</ele><time>2026-04-03T13:36:14.823Z</time></trkpt><trkpt lat="45.78877133322829" lon="8.272814991310863"><ele>415.0</ele><time>2026-04-03T13:36:15.823Z</time></trkpt><trkpt lat="45.78898146824078" lon="8.272730947397969"><ele>415.0</ele><time>2026-04-03T13:36:16.823Z</time></trkpt><trkpt lat="45.78919198992929" lon="8.272647240242222"><ele>415.0</ele><time>2026-04-03T13:36:17.823Z</time></trkpt><trkpt lat="45.78940495048079" lon="8.272565366209417"><ele>415.6666666666667</ele><time>2026-04-03T13:36:18.824Z</time></trkpt><trkpt lat="45.78961509118779" lon="8.272487469689528"><ele>416.33333333333337</ele><time>2026-04-03T13:36:19.824Z</time></trkpt><trkpt lat="45.78982779972661" lon="8.272413591282085"><ele>417.0</ele><time>2026-04-03T13:36:20.824Z</time></trkpt><trkpt lat="45.790039589359175" lon="8.272344086021972"><ele>417.33333333333337</ele><time>2026-04-03T13:36:21.824Z</time></trkpt><trkpt lat="45.7902498405259" lon="8.272282191041404"><ele>417.6666666666667</ele><time>2026-04-03T13:36:22.824Z</time></trkpt><trkpt lat="45.790458990171494" lon="8.272229018318864"><ele>418.0</ele><time>2026-04-03T13:36:23.824Z</time></trkpt><trkpt lat="45.79066757591779" lon="8.272175292475508"><ele>417.33333333333337</ele><time>2026-04-03T13:36:24.824Z</time></trkpt><trkpt lat="45.790877648311415" lon="8.272122300930643"><ele>416.66666666666663</ele><time>2026-04-03T13:36:25.824Z</time></trkpt><trkpt lat="45.79108535105113" lon="8.272072824108294"><ele>416.0</ele><time>2026-04-03T13:36:26.824Z</time></trkpt><trkpt lat="45.791293982459266" lon="8.272026866764481"><ele>417.0</ele><time>2026-04-03T13:36:27.824Z</time></trkpt><trkpt lat="45.79149976241656" lon="8.271978118595"><ele>418.0</ele><time>2026-04-03T13:36:28.824Z</time></trkpt><trkpt lat="45.79170724206474" lon="8.271935722051968"><ele>419.0</ele><time>2026-04-03T13:36:29.824Z</time></trkpt><trkpt lat="45.79191642415481" lon="8.27189950989346"><ele>419.0</ele><time>2026-04-03T13:36:30.824Z</time></trkpt><trkpt lat="45.7921268546444" lon="8.27186332748834"><ele>419.0</ele><time>2026-04-03T13:36:31.824Z</time></trkpt><trkpt lat="45.792340735046096" lon="8.271824196496345"><ele>419.0</ele><time>2026-04-03T13:36:32.824Z</time></trkpt><trkpt lat="45.79255477152271" lon="8.271784958853349"><ele>417.3333333333333</ele><time>2026-04-03T13:36:33.824Z</time></trkpt><trkpt lat="45.792768946586335" lon="8.271745054000807"><ele>415.66666666666663</ele><time>2026-04-03T13:36:34.824Z</time></trkpt><trkpt lat="45.79298228982858" lon="8.271705653452289"><ele>414.0</ele><time>2026-04-03T13:36:35.824Z</time></trkpt><trkpt lat="45.793194081309345" lon="8.27166338322279"><ele>414.0</ele><time>2026-04-03T13:36:36.824Z</time></trkpt><trkpt lat="45.793404837842566" lon="8.271623340649509"><ele>414.0</ele><time>2026-04-03T13:36:37.824Z</time></trkpt><trkpt lat="45.79361047239372" lon="8.27158435020168"><ele>414.0</ele><time>2026-04-03T13:36:38.824Z</time></trkpt><trkpt lat="45.79381247044954" lon="8.271544850402185"><ele>415.0</ele><time>2026-04-03T13:36:39.824Z</time></trkpt><trkpt lat="45.79401371954008" lon="8.27150737903918"><ele>416.0</ele><time>2026-04-03T13:36:40.824Z</time></trkpt><trkpt lat="45.79421626384297" lon="8.271468628695747"><ele>417.0</ele><time>2026-04-03T13:36:41.824Z</time></trkpt><trkpt lat="45.794418516950245" lon="8.27141878076613"><ele>417.0</ele><time>2026-04-03T13:36:42.824Z</time></trkpt><trkpt lat="45.79461587382207" lon="8.271352168306807"><ele>417.0</ele><time>2026-04-03T13:36:43.824Z</time></trkpt><trkpt lat="45.79481806873262" lon="8.271270999712545"><ele>417.0</ele><time>2026-04-03T13:36:44.824Z</time></trkpt><trkpt lat="45.79501374631543" lon="8.271167979441898"><ele>419.0</ele><time>2026-04-03T13:36:45.824Z</time></trkpt><trkpt lat="45.79520309309887" lon="8.271042240743979"><ele>421.0</ele><time>2026-04-03T13:36:46.824Z</time></trkpt><trkpt lat="45.79538109273111" lon="8.270891019983889"><ele>423.0</ele><time>2026-04-03T13:36:47.824Z</time></trkpt><trkpt lat="45.795565009192735" lon="8.270728097320635"><ele>423.0</ele><time>2026-04-03T13:36:48.824Z</time></trkpt><trkpt lat="45.79574400253486" lon="8.270569823307925"><ele>423.0</ele><time>2026-04-03T13:36:49.824Z</time></trkpt><trkpt lat="45.795926777940736" lon="8.270406869965171"><ele>423.0</ele><time>2026-04-03T13:36:50.824Z</time></trkpt><trkpt lat="45.796105788298924" lon="8.270248777029884"><ele>423.0</ele><time>2026-04-03T13:36:51.824Z</time></trkpt><trkpt lat="45.79628457680221" lon="8.270091846132964"><ele>423.0</ele><time>2026-04-03T13:36:52.824Z</time></trkpt><trkpt lat="45.79646196325618" lon="8.269938198104544"><ele>423.0</ele><time>2026-04-03T13:36:53.824Z</time></trkpt><trkpt lat="45.79663937255963" lon="8.269784059673398"><ele>422.33333333333337</ele><time>2026-04-03T13:36:54.824Z</time></trkpt><trkpt lat="45.79681835307171" lon="8.269627161570048"><ele>421.6666666666667</ele><time>2026-04-03T13:36:55.824Z</time></trkpt><trkpt lat="45.796998446777856" lon="8.269471730035388"><ele>421.0</ele><time>2026-04-03T13:36:56.824Z</time></trkpt><trkpt lat="45.79717465770895" lon="8.269317285798326"><ele>421.0</ele><time>2026-04-03T13:36:57.824Z</time></trkpt><trkpt lat="45.79735168325425" lon="8.269160804554579"><ele>421.0</ele><time>2026-04-03T13:36:58.824Z</time></trkpt><trkpt lat="45.79753200071479" lon="8.26900360195464"><ele>421.0</ele><time>2026-04-03T13:36:59.824Z</time></trkpt><trkpt lat="45.797708551754575" lon="8.268842133532145"><ele>424.33333333333337</ele><time>2026-04-03T13:37:00.824Z</time></trkpt><trkpt lat="45.79788729842029" lon="8.268680786111586"><ele>427.66666666666663</ele><time>2026-04-03T13:37:01.824Z</time></trkpt><trkpt lat="45.798068501219646" lon="8.268519720911739"><ele>431.0</ele><time>2026-04-03T13:37:02.824Z</time></trkpt><trkpt lat="45.79825053916669" lon="8.268360196175143"><ele>431.0</ele><time>2026-04-03T13:37:03.824Z</time></trkpt><trkpt lat="45.79843358446406" lon="8.268204432500548"><ele>431.0</ele><time>2026-04-03T13:37:04.824Z</time></trkpt><trkpt lat="45.79861774016118" lon="8.26804665300716"><ele>431.0</ele><time>2026-04-03T13:37:05.824Z</time></trkpt><trkpt lat="45.798801254343545" lon="8.26788760903468"><ele>430.3333333333333</ele><time>2026-04-03T13:37:06.824Z</time></trkpt><trkpt lat="45.79898451440387" lon="8.267728852771123"><ele>429.66666666666663</ele><time>2026-04-03T13:37:07.824Z</time></trkpt><trkpt lat="45.79916564795856" lon="8.267572257552718"><ele>429.0</ele><time>2026-04-03T13:37:08.824Z</time></trkpt><trkpt lat="45.79935153104725" lon="8.2674203462287"><ele>427.0</ele><time>2026-04-03T13:37:09.824Z</time></trkpt><trkpt lat="45.7995359110465" lon="8.26726458975005"><ele>425.0</ele><time>2026-04-03T13:37:10.824Z</time></trkpt><trkpt lat="45.79971946263321" lon="8.267115002356734"><ele>423.0</ele><time>2026-04-03T13:37:11.824Z</time></trkpt><trkpt lat="45.79990369670463" lon="8.26697021873359"><ele>423.0</ele><time>2026-04-03T13:37:12.824Z</time></trkpt><trkpt lat="45.80009607444358" lon="8.266845815325675"><ele>423.0</ele><time>2026-04-03T13:37:13.825Z</time></trkpt><trkpt lat="45.80029299694892" lon="8.266739268965797"><ele>423.0</ele><time>2026-04-03T13:37:14.825Z</time></trkpt><trkpt lat="45.80049312613501" lon="8.266635267347198"><ele>423.33333333333337</ele><time>2026-04-03T13:37:15.825Z</time></trkpt><trkpt lat="45.8006912181349" lon="8.266526029402499"><ele>423.6666666666667</ele><time>2026-04-03T13:37:16.825Z</time></trkpt><trkpt lat="45.800888576291754" lon="8.266413213766151"><ele>424.0</ele><time>2026-04-03T13:37:17.825Z</time></trkpt><trkpt lat="45.80108799616789" lon="8.266304156219693"><ele>424.6666666666667</ele><time>2026-04-03T13:37:18.825Z</time></trkpt><trkpt lat="45.801285885663205" lon="8.266196536415684"><ele>425.33333333333337</ele><time>2026-04-03T13:37:19.825Z</time></trkpt><trkpt lat="45.80148185332855" lon="8.266089258668387"><ele>426.0</ele><time>2026-04-03T13:37:20.825Z</time></trkpt><trkpt lat="45.80167958127618" lon="8.265982458994687"><ele>427.33333333333337</ele><time>2026-04-03T13:37:21.825Z</time></trkpt><trkpt lat="45.80187764886946" lon="8.26587793145892"><ele>428.6666666666667</ele><time>2026-04-03T13:37:22.825Z</time></trkpt><trkpt lat="45.80207285361628" lon="8.265770818287267"><ele>430.0</ele><time>2026-04-03T13:37:23.825Z</time></trkpt><trkpt lat="45.80226745168654" lon="8.26566410693168"><ele>430.0</ele><time>2026-04-03T13:37:24.825Z</time></trkpt><trkpt lat="45.8024616321294" lon="8.265558357288437"><ele>430.0</ele><time>2026-04-03T13:37:25.825Z</time></trkpt><trkpt lat="45.80265959391926" lon="8.265451420182595"><ele>430.0</ele><time>2026-04-03T13:37:26.826Z</time></trkpt><trkpt lat="45.802858079010875" lon="8.26534290260741"><ele>430.0</ele><time>2026-04-03T13:37:27.826Z</time></trkpt><trkpt lat="45.80305381778987" lon="8.265235843517397"><ele>430.0</ele><time>2026-04-03T13:37:28.825Z</time></trkpt><trkpt lat="45.8032521863335" lon="8.265131750698668"><ele>430.0</ele><time>2026-04-03T13:37:29.826Z</time></trkpt><trkpt lat="45.80345038139457" lon="8.265028272857824"><ele>429.33333333333337</ele><time>2026-04-03T13:37:30.826Z</time></trkpt><trkpt lat="45.80364953510889" lon="8.264922762549087"><ele>428.66666666666663</ele><time>2026-04-03T13:37:31.826Z</time></trkpt><trkpt lat="45.80385213568351" lon="8.264815738841826"><ele>428.0</ele><time>2026-04-03T13:37:32.826Z</time></trkpt><trkpt lat="45.80404903986376" lon="8.264710547557728"><ele>428.0</ele><time>2026-04-03T13:37:33.826Z</time></trkpt><trkpt lat="45.80424371888652" lon="8.264611374142063"><ele>428.0</ele><time>2026-04-03T13:37:34.825Z</time></trkpt><trkpt lat="45.804435628038206" lon="8.264529026686633"><ele>428.0</ele><time>2026-04-03T13:37:35.826Z</time></trkpt><trkpt lat="45.80461686075479" lon="8.264463076135945"><ele>428.3333333333333</ele><time>2026-04-03T13:37:36.826Z</time></trkpt><trkpt lat="45.80479623103667" lon="8.264415384031118"><ele>428.66666666666663</ele><time>2026-04-03T13:37:37.826Z</time></trkpt><trkpt lat="45.80497696151646" lon="8.264388436153359"><ele>429.0</ele><time>2026-04-03T13:37:38.826Z</time></trkpt><trkpt lat="45.80515955360172" lon="8.264376409405642"><ele>429.33333333333337</ele><time>2026-04-03T13:37:39.826Z</time></trkpt><trkpt lat="45.8053433993611" lon="8.264377015142973"><ele>429.6666666666667</ele><time>2026-04-03T13:37:40.826Z</time></trkpt><trkpt lat="45.805528830250616" lon="8.26438098448699"><ele>430.0</ele><time>2026-04-03T13:37:41.826Z</time></trkpt><trkpt lat="45.80571115926754" lon="8.26438337978658"><ele>430.0</ele><time>2026-04-03T13:37:42.826Z</time></trkpt><trkpt lat="45.805893085033794" lon="8.264382356832517"><ele>430.0</ele><time>2026-04-03T13:37:43.826Z</time></trkpt><trkpt lat="45.80606964501153" lon="8.26438499241405"><ele>430.0</ele><time>2026-04-03T13:37:44.826Z</time></trkpt><trkpt lat="45.806245161551956" lon="8.264395472120489"><ele>430.33333333333337</ele><time>2026-04-03T13:37:45.826Z</time></trkpt><trkpt lat="45.8064211590414" lon="8.264405312131501"><ele>430.66666666666663</ele><time>2026-04-03T13:37:46.826Z</time></trkpt><trkpt lat="45.806599236215405" lon="8.264410542270811"><ele>431.0</ele><time>2026-04-03T13:37:47.826Z</time></trkpt><trkpt lat="45.80677674118021" lon="8.264418258949073"><ele>432.0</ele><time>2026-04-03T13:37:48.826Z</time></trkpt><trkpt lat="45.806954597438384" lon="8.264422899831397"><ele>433.0</ele><time>2026-04-03T13:37:49.826Z</time></trkpt><trkpt lat="45.80713217583273" lon="8.264404254780347"><ele>434.0</ele><time>2026-04-03T13:37:50.826Z</time></trkpt><trkpt lat="45.80730058230268" lon="8.264368949744451"><ele>434.0</ele><time>2026-04-03T13:37:51.826Z</time></trkpt><trkpt lat="45.8074692322644" lon="8.264314268850248"><ele>434.0</ele><time>2026-04-03T13:37:52.826Z</time></trkpt><trkpt lat="45.80763106134281" lon="8.26425070982248"><ele>434.0</ele><time>2026-04-03T13:37:53.826Z</time></trkpt><trkpt lat="45.80779304931579" lon="8.264181639542459"><ele>434.3333333333333</ele><time>2026-04-03T13:37:54.826Z</time></trkpt><trkpt lat="45.807954061358636" lon="8.264097582103794"><ele>434.66666666666663</ele><time>2026-04-03T13:37:55.826Z</time></trkpt><trkpt lat="45.808110655325144" lon="8.263987168451141"><ele>435.0</ele><time>2026-04-03T13:37:56.826Z</time></trkpt><trkpt lat="45.80826310727564" lon="8.263857370270776"><ele>435.33333333333337</ele><time>2026-04-03T13:37:57.826Z</time></trkpt><trkpt lat="45.80840923248381" lon="8.263709487448235"><ele>435.6666666666667</ele><time>2026-04-03T13:37:58.826Z</time></trkpt><trkpt lat="45.80855350151715" lon="8.263540501898943"><ele>436.0</ele><time>2026-04-03T13:37:59.826Z</time></trkpt><trkpt lat="45.80869347907485" lon="8.263353011029539"><ele>436.0</ele><time>2026-04-03T13:38:00.826Z</time></trkpt><trkpt lat="45.80882573165474" lon="8.26314479290939"><ele>436.0</ele><time>2026-04-03T13:38:01.826Z</time></trkpt><trkpt lat="45.80895568252024" lon="8.262932271641846"><ele>436.0</ele><time>2026-04-03T13:38:02.826Z</time></trkpt><trkpt lat="45.809086160254786" lon="8.262717035171079"><ele>435.6666666666667</ele><time>2026-04-03T13:38:03.826Z</time></trkpt><trkpt lat="45.80922024819603" lon="8.262501310794457"><ele>435.33333333333337</ele><time>2026-04-03T13:38:04.826Z</time></trkpt><trkpt lat="45.80935131694804" lon="8.26228133455953"><ele>435.0</ele><time>2026-04-03T13:38:05.826Z</time></trkpt><trkpt lat="45.80948147149863" lon="8.26205723310591"><ele>435.0</ele><time>2026-04-03T13:38:06.826Z</time></trkpt><trkpt lat="45.80961156138744" lon="8.261837816668177"><ele>435.0</ele><time>2026-04-03T13:38:07.826Z</time></trkpt><trkpt lat="45.80974353003909" lon="8.261617900013043"><ele>435.0</ele><time>2026-04-03T13:38:08.826Z</time></trkpt><trkpt lat="45.80987851383831" lon="8.261403924328903"><ele>433.66666666666663</ele><time>2026-04-03T13:38:09.826Z</time></trkpt><trkpt lat="45.81000993560873" lon="8.261192206068596"><ele>432.3333333333333</ele><time>2026-04-03T13:38:10.826Z</time></trkpt><trkpt lat="45.81013893277566" lon="8.260973752577794"><ele>431.0</ele><time>2026-04-03T13:38:11.826Z</time></trkpt><trkpt lat="45.810265287698435" lon="8.260758855521763"><ele>433.0</ele><time>2026-04-03T13:38:12.826Z</time></trkpt><trkpt lat="45.81039677207378" lon="8.260548646529989"><ele>435.0</ele><time>2026-04-03T13:38:13.826Z</time></trkpt><trkpt lat="45.81052850677745" lon="8.260333865511967"><ele>437.0</ele><time>2026-04-03T13:38:14.826Z</time></trkpt><trkpt lat="45.81065915704892" lon="8.260117110871848"><ele>437.0</ele><time>2026-04-03T13:38:15.826Z</time></trkpt><trkpt lat="45.81079083064299" lon="8.259899116233777"><ele>437.0</ele><time>2026-04-03T13:38:16.826Z</time></trkpt><trkpt lat="45.81092022163012" lon="8.259685543467283"><ele>437.0</ele><time>2026-04-03T13:38:17.826Z</time></trkpt><trkpt lat="45.8110485550992" lon="8.259472209399934"><ele>436.66666666666663</ele><time>2026-04-03T13:38:18.826Z</time></trkpt><trkpt lat="45.811173221816944" lon="8.25925649319276"><ele>436.33333333333337</ele><time>2026-04-03T13:38:19.826Z</time></trkpt><trkpt lat="45.81130044472944" lon="8.259043778765607"><ele>436.0</ele><time>2026-04-03T13:38:20.826Z</time></trkpt><trkpt lat="45.81143053622007" lon="8.258830228849495"><ele>436.0</ele><time>2026-04-03T13:38:21.826Z</time></trkpt><trkpt lat="45.81156061760545" lon="8.258616372353142"><ele>436.0</ele><time>2026-04-03T13:38:22.826Z</time></trkpt><trkpt lat="45.81168641872895" lon="8.258405513651109"><ele>436.0</ele><time>2026-04-03T13:38:23.826Z</time></trkpt><trkpt lat="45.81181076897366" lon="8.258198709618137"><ele>437.6666666666667</ele><time>2026-04-03T13:38:24.826Z</time></trkpt><trkpt lat="45.811933581136124" lon="8.257999541858005"><ele>439.33333333333337</ele><time>2026-04-03T13:38:25.826Z</time></trkpt><trkpt lat="45.81205453132468" lon="8.257797204578738"><ele>441.0</ele><time>2026-04-03T13:38:26.826Z</time></trkpt><trkpt lat="45.812170496213376" lon="8.257586716346665"><ele>441.0</ele><time>2026-04-03T13:38:27.826Z</time></trkpt><trkpt lat="45.812275991501366" lon="8.257370531004927"><ele>441.0</ele><time>2026-04-03T13:38:28.826Z</time></trkpt><trkpt lat="45.81236690001938" lon="8.25714613056642"><ele>441.0</ele><time>2026-04-03T13:38:29.826Z</time></trkpt><trkpt lat="45.81244888717858" lon="8.256915676372326"><ele>440.33333333333337</ele><time>2026-04-03T13:38:30.826Z</time></trkpt><trkpt lat="45.812521901673136" lon="8.256689446560433"><ele>439.6666666666667</ele><time>2026-04-03T13:38:31.826Z</time></trkpt><trkpt lat="45.81258390830662" lon="8.256473802144844"><ele>439.0</ele><time>2026-04-03T13:38:32.827Z</time></trkpt><trkpt lat="45.81263542815989" lon="8.25626273405383"><ele>441.5</ele><time>2026-04-03T13:38:33.827Z</time></trkpt><trkpt lat="45.81267722265404" lon="8.256054535253261"><ele>444.0</ele><time>2026-04-03T13:38:34.827Z</time></trkpt><trkpt lat="45.8127099234449" lon="8.255845472152282"><ele>446.5</ele><time>2026-04-03T13:38:35.827Z</time></trkpt><trkpt lat="45.81274305818062" lon="8.25564237928667"><ele>449.0</ele><time>2026-04-03T13:38:36.827Z</time></trkpt><trkpt lat="45.812771924048086" lon="8.25544076081711"><ele>449.0</ele><time>2026-04-03T13:38:37.827Z</time></trkpt><trkpt lat="45.8128001191919" lon="8.25523761918448"><ele>449.0</ele><time>2026-04-03T13:38:38.827Z</time></trkpt><trkpt lat="45.81283191749391" lon="8.255029804454136"><ele>449.0</ele><time>2026-04-03T13:38:39.827Z</time></trkpt><trkpt lat="45.812867931998916" lon="8.254820603609122"><ele>449.0</ele><time>2026-04-03T13:38:40.827Z</time></trkpt><trkpt lat="45.81290300130231" lon="8.254621653875995"><ele>448.0</ele><time>2026-04-03T13:38:41.827Z</time></trkpt><trkpt lat="45.81293983848981" lon="8.254438721750825"><ele>447.0</ele><time>2026-04-03T13:38:42.827Z</time></trkpt><trkpt lat="45.81297840844855" lon="8.254268041031082"><ele>446.0</ele><time>2026-04-03T13:38:43.827Z</time></trkpt><trkpt lat="45.813019132581964" lon="8.254129490279931"><ele>445.0</ele><time>2026-04-03T13:38:44.827Z</time></trkpt><trkpt lat="45.813065138831064" lon="8.25401442752886"><ele>444.83333333333337</ele><time>2026-04-03T13:38:45.827Z</time></trkpt><trkpt lat="45.81310951300326" lon="8.253916746428077"><ele>444.6666666666667</ele><time>2026-04-03T13:38:46.827Z</time></trkpt><trkpt lat="45.81313631826834" lon="8.253823477667622"><ele>444.5</ele><time>2026-04-03T13:38:47.827Z</time></trkpt><trkpt lat="45.813127691342245" lon="8.253731258852753"><ele>444.33333333333337</ele><time>2026-04-03T13:38:48.827Z</time></trkpt><trkpt lat="45.813109373466304" lon="8.25362847456498"><ele>444.1666666666667</ele><time>2026-04-03T13:38:49.827Z</time></trkpt><trkpt lat="45.81309793663999" lon="8.253493166493985"><ele>444.0</ele><time>2026-04-03T13:38:50.827Z</time></trkpt><trkpt lat="45.81310237631768" lon="8.253330913133475"><ele>444.0</ele><time>2026-04-03T13:38:51.827Z</time></trkpt><trkpt lat="45.81311701205147" lon="8.253139638895934"><ele>444.0</ele><time>2026-04-03T13:38:52.827Z</time></trkpt><trkpt lat="45.81311602253702" lon="8.252946628289719"><ele>444.0</ele><time>2026-04-03T13:38:53.827Z</time></trkpt><trkpt lat="45.813152054214996" lon="8.252748290166894"><ele>444.0</ele><time>2026-04-03T13:38:54.827Z</time></trkpt><trkpt lat="45.813176525754976" lon="8.25252707709426"><ele>443.0</ele><time>2026-04-03T13:38:55.827Z</time></trkpt><trkpt lat="45.813206837994535" lon="8.252287342120491"><ele>442.0</ele><time>2026-04-03T13:38:56.827Z</time></trkpt><trkpt lat="45.81324044960343" lon="8.252048438533413"><ele>441.0</ele><time>2026-04-03T13:38:57.827Z</time></trkpt><trkpt lat="45.81327025197253" lon="8.251819802635852"><ele>441.0</ele><time>2026-04-03T13:38:58.827Z</time></trkpt><trkpt lat="45.81329921719386" lon="8.25159214409629"><ele>441.0</ele><time>2026-04-03T13:38:59.827Z</time></trkpt><trkpt lat="45.813323220714416" lon="8.251346048495037"><ele>441.0</ele><time>2026-04-03T13:39:00.827Z</time></trkpt><trkpt lat="45.81333801921452" lon="8.251092870280818"><ele>439.66666666666663</ele><time>2026-04-03T13:39:01.827Z</time></trkpt><trkpt lat="45.81334342373223" lon="8.25082994301115"><ele>438.3333333333333</ele><time>2026-04-03T13:39:02.827Z</time></trkpt><trkpt lat="45.81334195180961" lon="8.250563592437828"><ele>437.0</ele><time>2026-04-03T13:39:03.827Z</time></trkpt><trkpt lat="45.81333352385658" lon="8.250309007001206"><ele>437.0</ele><time>2026-04-03T13:39:04.827Z</time></trkpt><trkpt lat="45.813317326331116" lon="8.250048429064263"><ele>437.0</ele><time>2026-04-03T13:39:05.827Z</time></trkpt><trkpt lat="45.813292300583605" lon="8.249783163886486"><ele>437.0</ele><time>2026-04-03T13:39:06.827Z</time></trkpt><trkpt lat="45.81326042921521" lon="8.249523534874793"><ele>438.3333333333333</ele><time>2026-04-03T13:39:07.827Z</time></trkpt><trkpt lat="45.81322952027007" lon="8.249274272544874"><ele>439.66666666666663</ele><time>2026-04-03T13:39:08.827Z</time></trkpt><trkpt lat="45.81320961826626" lon="8.249027777799439"><ele>441.0</ele><time>2026-04-03T13:39:09.827Z</time></trkpt><trkpt lat="45.81320389470182" lon="8.248782192234701"><ele>441.0</ele><time>2026-04-03T13:39:10.827Z</time></trkpt><trkpt lat="45.8132150012645" lon="8.248527464154904"><ele>441.0</ele><time>2026-04-03T13:39:11.827Z</time></trkpt><trkpt lat="45.81324183595886" lon="8.248269077400984"><ele>441.0</ele><time>2026-04-03T13:39:12.827Z</time></trkpt><trkpt lat="45.81328673851191" lon="8.248009725506622"><ele>440.66666666666663</ele><time>2026-04-03T13:39:13.827Z</time></trkpt><trkpt lat="45.813346348615106" lon="8.247749335814207"><ele>440.3333333333333</ele><time>2026-04-03T13:39:14.827Z</time></trkpt><trkpt lat="45.813421315168576" lon="8.247492378005273"><ele>440.0</ele><time>2026-04-03T13:39:15.827Z</time></trkpt><trkpt lat="45.81349975564957" lon="8.247242097760004"><ele>442.66666666666663</ele><time>2026-04-03T13:39:16.827Z</time></trkpt><trkpt lat="45.81357361471824" lon="8.246987959932632"><ele>445.33333333333337</ele><time>2026-04-03T13:39:17.827Z</time></trkpt><trkpt lat="45.813647419449914" lon="8.246735071289669"><ele>448.0</ele><time>2026-04-03T13:39:18.827Z</time></trkpt><trkpt lat="45.813717496749774" lon="8.24647740834417"><ele>448.33333333333337</ele><time>2026-04-03T13:39:19.827Z</time></trkpt><trkpt lat="45.81378908648166" lon="8.246222136047757"><ele>448.66666666666663</ele><time>2026-04-03T13:39:20.827Z</time></trkpt><trkpt lat="45.813861158732685" lon="8.245979401307185"><ele>449.0</ele><time>2026-04-03T13:39:21.827Z</time></trkpt><trkpt lat="45.81392450089168" lon="8.245753125905312"><ele>447.66666666666663</ele><time>2026-04-03T13:39:22.827Z</time></trkpt><trkpt lat="45.81398260461664" lon="8.24554151269538"><ele>446.33333333333337</ele><time>2026-04-03T13:39:23.827Z</time></trkpt><trkpt lat="45.81404351995218" lon="8.245338912639921"><ele>445.0</ele><time>2026-04-03T13:39:24.827Z</time></trkpt><trkpt lat="45.81410925087413" lon="8.24513382787774"><ele>445.0</ele><time>2026-04-03T13:39:25.827Z</time></trkpt><trkpt lat="45.814186928678176" lon="8.244926165797233"><ele>445.0</ele><time>2026-04-03T13:39:26.827Z</time></trkpt><trkpt lat="45.814281513745065" lon="8.244730738343724"><ele>445.0</ele><time>2026-04-03T13:39:27.828Z</time></trkpt><trkpt lat="45.81439196193668" lon="8.244553398553398"><ele>445.6666666666667</ele><time>2026-04-03T13:39:28.828Z</time></trkpt><trkpt lat="45.81452077065953" lon="8.244404542552243"><ele>446.33333333333337</ele><time>2026-04-03T13:39:29.828Z</time></trkpt><trkpt lat="45.814662886784625" lon="8.244277685125086"><ele>447.0</ele><time>2026-04-03T13:39:30.828Z</time></trkpt><trkpt lat="45.81481441965739" lon="8.244170428105791"><ele>447.0</ele><time>2026-04-03T13:39:31.828Z</time></trkpt><trkpt lat="45.814973873431825" lon="8.244075721971557"><ele>447.0</ele><time>2026-04-03T13:39:32.829Z</time></trkpt><trkpt lat="45.8151375171885" lon="8.243987789207242"><ele>447.0</ele><time>2026-04-03T13:39:33.829Z</time></trkpt><trkpt lat="45.81530656364075" lon="8.243903320078292"><ele>447.66666666666663</ele><time>2026-04-03T13:39:34.828Z</time></trkpt><trkpt lat="45.81548068026362" lon="8.243818407221143"><ele>448.3333333333333</ele><time>2026-04-03T13:39:35.829Z</time></trkpt><trkpt lat="45.81565626234539" lon="8.2437261227654"><ele>449.0</ele><time>2026-04-03T13:39:36.829Z</time></trkpt><trkpt lat="45.81583212133892" lon="8.243630065285972"><ele>449.66666666666663</ele><time>2026-04-03T13:39:37.829Z</time></trkpt><trkpt lat="45.81601614905849" lon="8.243536934352816"><ele>450.33333333333337</ele><time>2026-04-03T13:39:38.829Z</time></trkpt><trkpt lat="45.81620605513662" lon="8.243455296097265"><ele>451.0</ele><time>2026-04-03T13:39:39.829Z</time></trkpt><trkpt lat="45.81639789225816" lon="8.24338605818802"><ele>451.0</ele><time>2026-04-03T13:39:40.829Z</time></trkpt><trkpt lat="45.816592952351726" lon="8.243320436125838"><ele>451.0</ele><time>2026-04-03T13:39:41.829Z</time></trkpt><trkpt lat="45.816788651576" lon="8.243254121616237"><ele>451.0</ele><time>2026-04-03T13:39:42.829Z</time></trkpt><trkpt lat="45.81698456397966" lon="8.24318899320754"><ele>450.6666666666667</ele><time>2026-04-03T13:39:43.829Z</time></trkpt><trkpt lat="45.81717499129268" lon="8.24312230054253"><ele>450.33333333333337</ele><time>2026-04-03T13:39:44.829Z</time></trkpt><trkpt lat="45.817361285790966" lon="8.243059492429916"><ele>450.0</ele><time>2026-04-03T13:39:45.829Z</time></trkpt><trkpt lat="45.81754083048771" lon="8.242994487540242"><ele>450.33333333333337</ele><time>2026-04-03T13:39:46.829Z</time></trkpt><trkpt lat="45.817712004939345" lon="8.242929666135762"><ele>450.6666666666667</ele><time>2026-04-03T13:39:47.829Z</time></trkpt><trkpt lat="45.81788549326946" lon="8.242865521148724"><ele>451.0</ele><time>2026-04-03T13:39:48.829Z</time></trkpt><trkpt lat="45.81806668513678" lon="8.242802363241681"><ele>451.0</ele><time>2026-04-03T13:39:49.829Z</time></trkpt><trkpt lat="45.81823816775161" lon="8.24274490925139"><ele>451.0</ele><time>2026-04-03T13:39:50.829Z</time></trkpt><trkpt lat="45.818407969271966" lon="8.242689095108728"><ele>451.0</ele><time>2026-04-03T13:39:51.829Z</time></trkpt><trkpt lat="45.81857660830128" lon="8.242638787642237"><ele>459.33333333333337</ele><time>2026-04-03T13:39:52.829Z</time></trkpt><trkpt lat="45.8187444502355" lon="8.242585319406608"><ele>467.66666666666663</ele><time>2026-04-03T13:39:53.829Z</time></trkpt><trkpt lat="45.818912382618095" lon="8.242531242423658"><ele>476.0</ele><time>2026-04-03T13:39:54.829Z</time></trkpt><trkpt lat="45.819081845158536" lon="8.24246962180957"><ele>476.0</ele><time>2026-04-03T13:39:55.829Z</time></trkpt><trkpt lat="45.81924848985549" lon="8.242400065509818"><ele>476.0</ele><time>2026-04-03T13:39:56.829Z</time></trkpt><trkpt lat="45.81940946909509" lon="8.242323334058602"><ele>476.0</ele><time>2026-04-03T13:39:57.829Z</time></trkpt><trkpt lat="45.8195623117814" lon="8.242231478197846"><ele>476.3333333333333</ele><time>2026-04-03T13:39:58.829Z</time></trkpt><trkpt lat="45.81970201046178" lon="8.242109690781815"><ele>476.66666666666663</ele><time>2026-04-03T13:39:59.829Z</time></trkpt><trkpt lat="45.81982558514151" lon="8.241959091982524"><ele>477.0</ele><time>2026-04-03T13:40:00.829Z</time></trkpt><trkpt lat="45.81994274970448" lon="8.241803750617182"><ele>477.0</ele><time>2026-04-03T13:40:01.829Z</time></trkpt><trkpt lat="45.82005269356991" lon="8.241651920629993"><ele>477.0</ele><time>2026-04-03T13:40:02.829Z</time></trkpt><trkpt lat="45.820146460256645" lon="8.24148459373638"><ele>477.0</ele><time>2026-04-03T13:40:03.829Z</time></trkpt><trkpt lat="45.820215087641266" lon="8.241286490279043"><ele>482.0</ele><time>2026-04-03T13:40:04.829Z</time></trkpt><trkpt lat="45.82027627237563" lon="8.241063248224028"><ele>487.0</ele><time>2026-04-03T13:40:05.829Z</time></trkpt><trkpt lat="45.82032801276622" lon="8.24082094183433"><ele>492.0</ele><time>2026-04-03T13:40:06.829Z</time></trkpt><trkpt lat="45.82038556448508" lon="8.2405980653727"><ele>492.0</ele><time>2026-04-03T13:40:07.829Z</time></trkpt><trkpt lat="45.820444314675825" lon="8.240374848118746"><ele>492.0</ele><time>2026-04-03T13:40:08.829Z</time></trkpt><trkpt lat="45.82050991383926" lon="8.240176318770153"><ele>492.0</ele><time>2026-04-03T13:40:09.829Z</time></trkpt><trkpt lat="45.82057919161606" lon="8.239991634308902"><ele>492.0</ele><time>2026-04-03T13:40:10.829Z</time></trkpt><trkpt lat="45.82064776089841" lon="8.23982155805091"><ele>492.0</ele><time>2026-04-03T13:40:11.829Z</time></trkpt><trkpt lat="45.82071184713055" lon="8.239649032771348"><ele>492.0</ele><time>2026-04-03T13:40:12.829Z</time></trkpt><trkpt lat="45.82077427873825" lon="8.239480931378822"><ele>492.0</ele><time>2026-04-03T13:40:13.829Z</time></trkpt><trkpt lat="45.820828488111886" lon="8.239301933223445"><ele>486.25</ele><time>2026-04-03T13:40:14.829Z</time></trkpt><trkpt lat="45.820853233261005" lon="8.239106830342083"><ele>480.5</ele><time>2026-04-03T13:40:15.829Z</time></trkpt><trkpt lat="45.82084870763107" lon="8.238904322434907"><ele>474.75</ele><time>2026-04-03T13:40:16.829Z</time></trkpt><trkpt lat="45.82083113848929" lon="8.238711190885565"><ele>469.0</ele><time>2026-04-03T13:40:17.829Z</time></trkpt><trkpt lat="45.82079663270026" lon="8.238527564018161"><ele>469.0</ele><time>2026-04-03T13:40:18.829Z</time></trkpt><trkpt lat="45.82073336249265" lon="8.238349794370771"><ele>469.0</ele><time>2026-04-03T13:40:19.829Z</time></trkpt><trkpt lat="45.82063679832095" lon="8.238168750989"><ele>469.0</ele><time>2026-04-03T13:40:20.829Z</time></trkpt><trkpt lat="45.820529934939266" lon="8.23797697481603"><ele>471.33333333333337</ele><time>2026-04-03T13:40:21.829Z</time></trkpt><trkpt lat="45.820417323643596" lon="8.237777368270407"><ele>473.66666666666663</ele><time>2026-04-03T13:40:22.829Z</time></trkpt><trkpt lat="45.820307128351885" lon="8.237578507584143"><ele>476.0</ele><time>2026-04-03T13:40:23.829Z</time></trkpt><trkpt lat="45.820203203052955" lon="8.237388106401767"><ele>471.66666666666663</ele><time>2026-04-03T13:40:24.829Z</time></trkpt><trkpt lat="45.82010074120251" lon="8.237204891053116"><ele>467.33333333333337</ele><time>2026-04-03T13:40:25.829Z</time></trkpt><trkpt lat="45.819999073667894" lon="8.237029952561805"><ele>463.0</ele><time>2026-04-03T13:40:26.829Z</time></trkpt><trkpt lat="45.81990438935863" lon="8.23685895156421"><ele>463.0</ele><time>2026-04-03T13:40:27.829Z</time></trkpt><trkpt lat="45.81980785174003" lon="8.236692304885711"><ele>463.0</ele><time>2026-04-03T13:40:28.829Z</time></trkpt><trkpt lat="45.819728241298044" lon="8.23651304458917"><ele>463.0</ele><time>2026-04-03T13:40:29.829Z</time></trkpt><trkpt lat="45.819638325685716" lon="8.236346825900558"><ele>463.0</ele><time>2026-04-03T13:40:30.829Z</time></trkpt><trkpt lat="45.819551349275976" lon="8.236184518676206"><ele>462.75</ele><time>2026-04-03T13:40:31.83Z</time></trkpt><trkpt lat="45.81946006157256" lon="8.236018797642128"><ele>462.5</ele><time>2026-04-03T13:40:32.83Z</time></trkpt><trkpt lat="45.819374585729044" lon="8.235853876743612"><ele>462.25</ele><time>2026-04-03T13:40:33.83Z</time></trkpt><trkpt lat="45.81929188789131" lon="8.235687584434972"><ele>462.0</ele><time>2026-04-03T13:40:34.83Z</time></trkpt><trkpt lat="45.81921828190726" lon="8.235512456753597"><ele>464.25</ele><time>2026-04-03T13:40:35.83Z</time></trkpt><trkpt lat="45.819163117981574" lon="8.235313021813983"><ele>466.5</ele><time>2026-04-03T13:40:36.83Z</time></trkpt><trkpt lat="45.81912615621078" lon="8.235109166782333"><ele>468.75</ele><time>2026-04-03T13:40:37.83Z</time></trkpt><trkpt lat="45.81910906877142" lon="8.234902978946744"><ele>471.0</ele><time>2026-04-03T13:40:38.83Z</time></trkpt><trkpt lat="45.819101790585954" lon="8.234692589031567"><ele>475.0</ele><time>2026-04-03T13:40:39.83Z</time></trkpt><trkpt lat="45.81909587331511" lon="8.234482931076295"><ele>479.0</ele><time>2026-04-03T13:40:40.83Z</time></trkpt><trkpt lat="45.81908510753065" lon="8.234264820597666"><ele>483.0</ele><time>2026-04-03T13:40:41.83Z</time></trkpt><trkpt lat="45.81907596535039" lon="8.234044740892319"><ele>483.5</ele><time>2026-04-03T13:40:42.83Z</time></trkpt><trkpt lat="45.819071001493484" lon="8.233828907164158"><ele>484.0</ele><time>2026-04-03T13:40:43.83Z</time></trkpt><trkpt lat="45.81906882106202" lon="8.233615668891625"><ele>484.5</ele><time>2026-04-03T13:40:44.83Z</time></trkpt><trkpt lat="45.81906715670629" lon="8.233404252361401"><ele>485.0</ele><time>2026-04-03T13:40:45.83Z</time></trkpt><trkpt lat="45.81906406642672" lon="8.23319183028252"><ele>486.0</ele><time>2026-04-03T13:40:46.83Z</time></trkpt><trkpt lat="45.81906091919206" lon="8.232981295729822"><ele>487.0</ele><time>2026-04-03T13:40:47.83Z</time></trkpt><trkpt lat="45.81905627641886" lon="8.23277304321146"><ele>488.0</ele><time>2026-04-03T13:40:48.83Z</time></trkpt><trkpt lat="45.81904680197608" lon="8.232567602597772"><ele>489.0</ele><time>2026-04-03T13:40:49.83Z</time></trkpt><trkpt lat="45.819043380099394" lon="8.232372807934487"><ele>487.0</ele><time>2026-04-03T13:40:50.83Z</time></trkpt><trkpt lat="45.819043358323455" lon="8.23219372847647"><ele>485.0</ele><time>2026-04-03T13:40:51.83Z</time></trkpt><trkpt lat="45.8190594619682" lon="8.232022534058036"><ele>483.0</ele><time>2026-04-03T13:40:52.83Z</time></trkpt><trkpt lat="45.81909451086508" lon="8.231854413264987"><ele>481.0</ele><time>2026-04-03T13:40:53.83Z</time></trkpt><trkpt lat="45.81913311028856" lon="8.231684591582885"><ele>481.0</ele><time>2026-04-03T13:40:54.83Z</time></trkpt><trkpt lat="45.81917504727833" lon="8.231516082903157"><ele>481.0</ele><time>2026-04-03T13:40:55.83Z</time></trkpt><trkpt lat="45.819217121499115" lon="8.231348846468325"><ele>481.0</ele><time>2026-04-03T13:40:56.83Z</time></trkpt><trkpt lat="45.81926341754654" lon="8.231183827157952"><ele>481.0</ele><time>2026-04-03T13:40:57.83Z</time></trkpt><trkpt lat="45.81932170371925" lon="8.231015124468101"><ele>484.25</ele><time>2026-04-03T13:40:58.83Z</time></trkpt><trkpt lat="45.81940621344812" lon="8.230875208664905"><ele>487.5</ele><time>2026-04-03T13:40:59.83Z</time></trkpt><trkpt lat="45.819514553788814" lon="8.230781603840498"><ele>490.75</ele><time>2026-04-03T13:41:00.83Z</time></trkpt><trkpt lat="45.81963909959738" lon="8.23070898031594"><ele>494.0</ele><time>2026-04-03T13:41:01.83Z</time></trkpt><trkpt lat="45.81978075482427" lon="8.230656299604155"><ele>484.3333333333333</ele><time>2026-04-03T13:41:02.83Z</time></trkpt><trkpt lat="45.81992939605254" lon="8.230607583392848"><ele>474.66666666666663</ele><time>2026-04-03T13:41:03.83Z</time></trkpt><trkpt lat="45.82007450380835" lon="8.230554848598002"><ele>465.0</ele><time>2026-04-03T13:41:04.83Z</time></trkpt><trkpt lat="45.82021958872327" lon="8.230516932459718"><ele>465.0</ele><time>2026-04-03T13:41:05.83Z</time></trkpt><trkpt lat="45.820355546317764" lon="8.230474786892326"><ele>465.0</ele><time>2026-04-03T13:41:06.83Z</time></trkpt><trkpt lat="45.82048796928811" lon="8.230435198350605"><ele>465.0</ele><time>2026-04-03T13:41:07.83Z</time></trkpt><trkpt lat="45.82062483449681" lon="8.230414190580703"><ele>465.0</ele><time>2026-04-03T13:41:08.83Z</time></trkpt><trkpt lat="45.82076506794357" lon="8.230403613047008"><ele>465.0</ele><time>2026-04-03T13:41:09.83Z</time></trkpt><trkpt lat="45.82091052563297" lon="8.230401277574915"><ele>465.0</ele><time>2026-04-03T13:41:10.83Z</time></trkpt><trkpt lat="45.82105740521125" lon="8.230406578545008"><ele>465.0</ele><time>2026-04-03T13:41:11.83Z</time></trkpt><trkpt lat="45.82120577357891" lon="8.230412911668028"><ele>465.0</ele><time>2026-04-03T13:41:12.83Z</time></trkpt><trkpt lat="45.821351377730146" lon="8.230395865561722"><ele>465.5</ele><time>2026-04-03T13:41:13.83Z</time></trkpt><trkpt lat="45.821491838937014" lon="8.230360996179407"><ele>466.0</ele><time>2026-04-03T13:41:14.83Z</time></trkpt><trkpt lat="45.82163750205545" lon="8.230326787466828"><ele>466.5</ele><time>2026-04-03T13:41:15.83Z</time></trkpt><trkpt lat="45.82179171123061" lon="8.230296438600663"><ele>467.0</ele><time>2026-04-03T13:41:16.83Z</time></trkpt><trkpt lat="45.82194969216446" lon="8.230259291460005"><ele>470.0</ele><time>2026-04-03T13:41:17.83Z</time></trkpt><trkpt lat="45.82210620210354" lon="8.230215700301503"><ele>473.0</ele><time>2026-04-03T13:41:18.83Z</time></trkpt><trkpt lat="45.82225588464108" lon="8.230146692716014"><ele>476.0</ele><time>2026-04-03T13:41:19.83Z</time></trkpt><trkpt lat="45.822393063958465" lon="8.230044181431989"><ele>476.0</ele><time>2026-04-03T13:41:20.83Z</time></trkpt><trkpt lat="45.82252053237254" lon="8.229915857227192"><ele>476.0</ele><time>2026-04-03T13:41:21.83Z</time></trkpt><trkpt lat="45.82263320852005" lon="8.229756503878596"><ele>476.0</ele><time>2026-04-03T13:41:22.83Z</time></trkpt><trkpt lat="45.8227339414527" lon="8.229582119688667"><ele>476.0</ele><time>2026-04-03T13:41:23.83Z</time></trkpt><trkpt lat="45.82281236817166" lon="8.229395330835137"><ele>476.0</ele><time>2026-04-03T13:41:24.83Z</time></trkpt><trkpt lat="45.82287365915629" lon="8.229197620487335"><ele>476.0</ele><time>2026-04-03T13:41:25.83Z</time></trkpt><trkpt lat="45.822920225958036" lon="8.228990619094313"><ele>476.0</ele><time>2026-04-03T13:41:26.831Z</time></trkpt><trkpt lat="45.822959351317294" lon="8.228774120348328"><ele>476.0</ele><time>2026-04-03T13:41:27.831Z</time></trkpt><trkpt lat="45.822987937372865" lon="8.22855326480952"><ele>476.0</ele><time>2026-04-03T13:41:28.831Z</time></trkpt><trkpt lat="45.823013875916885" lon="8.228336936825436"><ele>476.0</ele><time>2026-04-03T13:41:29.831Z</time></trkpt><trkpt lat="45.82303844212033" lon="8.228124126961395"><ele>476.0</ele><time>2026-04-03T13:41:30.831Z</time></trkpt><trkpt lat="45.823068560089645" lon="8.227916146685855"><ele>476.0</ele><time>2026-04-03T13:41:31.831Z</time></trkpt><trkpt lat="45.82309409340214" lon="8.227710967755431"><ele>476.0</ele><time>2026-04-03T13:41:32.831Z</time></trkpt><trkpt lat="45.82311988480984" lon="8.227502752115582"><ele>476.0</ele><time>2026-04-03T13:41:33.831Z</time></trkpt><trkpt lat="45.823147294752076" lon="8.227295612544964"><ele>476.0</ele><time>2026-04-03T13:41:34.831Z</time></trkpt><trkpt lat="45.82317203919126" lon="8.227090889847608"><ele>476.0</ele><time>2026-04-03T13:41:35.831Z</time></trkpt><trkpt lat="45.823198144272176" lon="8.226890195849034"><ele>476.0</ele><time>2026-04-03T13:41:36.831Z</time></trkpt><trkpt lat="45.82322115452634" lon="8.226688003289665"><ele>476.0</ele><time>2026-04-03T13:41:37.832Z</time></trkpt><trkpt lat="45.82324075168622" lon="8.226499636131393"><ele>476.0</ele><time>2026-04-03T13:41:38.832Z</time></trkpt><trkpt lat="45.82326371273556" lon="8.226327008030871"><ele>476.0</ele><time>2026-04-03T13:41:39.832Z</time></trkpt><trkpt lat="45.8232823855325" lon="8.226172554494601"><ele>476.0</ele><time>2026-04-03T13:41:40.831Z</time></trkpt><trkpt lat="45.82329600851349" lon="8.226043501625274"><ele>475.8</ele><time>2026-04-03T13:41:41.832Z</time></trkpt><trkpt lat="45.82331314685287" lon="8.225925133798865"><ele>475.6</ele><time>2026-04-03T13:41:42.832Z</time></trkpt><trkpt lat="45.823329461377206" lon="8.225812134199463"><ele>475.4</ele><time>2026-04-03T13:41:43.832Z</time></trkpt><trkpt lat="45.82334740887162" lon="8.22568092550749"><ele>475.2</ele><time>2026-04-03T13:41:44.831Z</time></trkpt><trkpt lat="45.8233673561402" lon="8.225545903944415"><ele>475.0</ele><time>2026-04-03T13:41:45.831Z</time></trkpt><trkpt lat="45.82338408611114" lon="8.225410148813111"><ele>474.6</ele><time>2026-04-03T13:41:46.832Z</time></trkpt><trkpt lat="45.82340202101297" lon="8.225268510281904"><ele>474.2</ele><time>2026-04-03T13:41:47.832Z</time></trkpt><trkpt lat="45.823419782265404" lon="8.225112804512396"><ele>473.79999999999995</ele><time>2026-04-03T13:41:48.832Z</time></trkpt><trkpt lat="45.82343634611664" lon="8.224953240727165"><ele>473.4</ele><time>2026-04-03T13:41:49.832Z</time></trkpt><trkpt lat="45.823446890672635" lon="8.224796371650168"><ele>473.0</ele><time>2026-04-03T13:41:50.832Z</time></trkpt><trkpt lat="45.823439319796265" lon="8.22463049467151"><ele>473.0</ele><time>2026-04-03T13:41:51.832Z</time></trkpt><trkpt lat="45.82341540810466" lon="8.224463152083317"><ele>473.0</ele><time>2026-04-03T13:41:52.832Z</time></trkpt><trkpt lat="45.823379984010614" lon="8.224295144411492"><ele>473.0</ele><time>2026-04-03T13:41:53.832Z</time></trkpt><trkpt lat="45.82332907073531" lon="8.22411743356681"><ele>473.0</ele><time>2026-04-03T13:41:54.832Z</time></trkpt><trkpt lat="45.82327488948162" lon="8.223929837831099"><ele>473.25</ele><time>2026-04-03T13:41:55.832Z</time></trkpt><trkpt lat="45.8232160305616" lon="8.223733249287251"><ele>473.5</ele><time>2026-04-03T13:41:56.832Z</time></trkpt><trkpt lat="45.82315883091601" lon="8.223542184346893"><ele>473.75</ele><time>2026-04-03T13:41:57.832Z</time></trkpt><trkpt lat="45.8231082126601" lon="8.223348879867196"><ele>474.0</ele><time>2026-04-03T13:41:58.832Z</time></trkpt><trkpt lat="45.82305163868733" lon="8.22315211441652"><ele>475.66666666666663</ele><time>2026-04-03T13:41:59.832Z</time></trkpt><trkpt lat="45.82299685663262" lon="8.222950735533859"><ele>477.3333333333333</ele><time>2026-04-03T13:42:00.832Z</time></trkpt><trkpt lat="45.82293776886257" lon="8.222751232915906"><ele>479.0</ele><time>2026-04-03T13:42:01.832Z</time></trkpt><trkpt lat="45.822878266335906" lon="8.222542352166926"><ele>479.0</ele><time>2026-04-03T13:42:02.832Z</time></trkpt><trkpt lat="45.82282353437022" lon="8.222340845709779"><ele>479.0</ele><time>2026-04-03T13:42:03.832Z</time></trkpt><trkpt lat="45.82276767237482" lon="8.22214716641937"><ele>479.0</ele><time>2026-04-03T13:42:04.832Z</time></trkpt><trkpt lat="45.822713479751" lon="8.221968839556268"><ele>479.0</ele><time>2026-04-03T13:42:05.832Z</time></trkpt><trkpt lat="45.82265817576882" lon="8.221796044708654"><ele>479.0</ele><time>2026-04-03T13:42:06.832Z</time></trkpt><trkpt lat="45.82260676477204" lon="8.22162101581655"><ele>479.0</ele><time>2026-04-03T13:42:07.832Z</time></trkpt><trkpt lat="45.82255614013194" lon="8.221434057746581"><ele>479.0</ele><time>2026-04-03T13:42:08.832Z</time></trkpt><trkpt lat="45.82250909466286" lon="8.22124041353959"><ele>479.0</ele><time>2026-04-03T13:42:09.832Z</time></trkpt><trkpt lat="45.82247311817248" lon="8.221039400294293"><ele>482.0</ele><time>2026-04-03T13:42:10.832Z</time></trkpt><trkpt lat="45.82246290826621" lon="8.220830224180279"><ele>485.0</ele><time>2026-04-03T13:42:11.832Z</time></trkpt><trkpt lat="45.82247001675315" lon="8.220622008083032"><ele>488.0</ele><time>2026-04-03T13:42:12.832Z</time></trkpt><trkpt lat="45.822495615668316" lon="8.220411719669492"><ele>491.0</ele><time>2026-04-03T13:42:13.832Z</time></trkpt><trkpt lat="45.82252702085504" lon="8.220199032929063"><ele>492.0</ele><time>2026-04-03T13:42:14.832Z</time></trkpt><trkpt lat="45.82255826994518" lon="8.219992626993161"><ele>493.0</ele><time>2026-04-03T13:42:15.832Z</time></trkpt><trkpt lat="45.82258287407848" lon="8.219787559793353"><ele>494.0</ele><time>2026-04-03T13:42:16.832Z</time></trkpt><trkpt lat="45.82260077481915" lon="8.219584167640905"><ele>495.0</ele><time>2026-04-03T13:42:17.833Z</time></trkpt><trkpt lat="45.822607471585336" lon="8.219386752815225"><ele>492.25</ele><time>2026-04-03T13:42:18.833Z</time></trkpt><trkpt lat="45.822602019747976" lon="8.219182836661615"><ele>489.5</ele><time>2026-04-03T13:42:19.833Z</time></trkpt><trkpt lat="45.82259116192757" lon="8.218982346365182"><ele>486.75</ele><time>2026-04-03T13:42:20.833Z</time></trkpt><trkpt lat="45.822586996824285" lon="8.21879271386033"><ele>484.0</ele><time>2026-04-03T13:42:21.833Z</time></trkpt><trkpt lat="45.82260058255688" lon="8.218597244342574"><ele>484.0</ele><time>2026-04-03T13:42:22.833Z</time></trkpt><trkpt lat="45.82264405303562" lon="8.218403344974586"><ele>484.0</ele><time>2026-04-03T13:42:23.833Z</time></trkpt><trkpt lat="45.82270521768049" lon="8.218215051226402"><ele>484.0</ele><time>2026-04-03T13:42:24.833Z</time></trkpt><trkpt lat="45.82277074537319" lon="8.21801876524559"><ele>484.0</ele><time>2026-04-03T13:42:25.833Z</time></trkpt><trkpt lat="45.822833307965865" lon="8.217824832689722"><ele>485.25</ele><time>2026-04-03T13:42:26.833Z</time></trkpt><trkpt lat="45.822893060215506" lon="8.217627645226031"><ele>486.5</ele><time>2026-04-03T13:42:27.833Z</time></trkpt><trkpt lat="45.82295058707735" lon="8.217437483455104"><ele>487.75</ele><time>2026-04-03T13:42:28.833Z</time></trkpt><trkpt lat="45.823009276460596" lon="8.217254940330676"><ele>489.0</ele><time>2026-04-03T13:42:29.833Z</time></trkpt><trkpt lat="45.823066518146014" lon="8.217081707431005"><ele>489.0</ele><time>2026-04-03T13:42:30.833Z</time></trkpt><trkpt lat="45.823112625461064" lon="8.216914096910356"><ele>489.0</ele><time>2026-04-03T13:42:31.833Z</time></trkpt><trkpt lat="45.82315099308338" lon="8.21675805086185"><ele>489.0</ele><time>2026-04-03T13:42:32.833Z</time></trkpt><trkpt lat="45.823183807533134" lon="8.216612497128523"><ele>489.0</ele><time>2026-04-03T13:42:33.833Z</time></trkpt><trkpt lat="45.82321151267048" lon="8.216477032990477"><ele>489.0</ele><time>2026-04-03T13:42:34.833Z</time></trkpt><trkpt lat="45.823238020675106" lon="8.216348808382069"><ele>487.3333333333333</ele><time>2026-04-03T13:42:35.833Z</time></trkpt><trkpt lat="45.823266738076185" lon="8.216239198265548"><ele>485.66666666666663</ele><time>2026-04-03T13:42:36.833Z</time></trkpt><trkpt lat="45.82328842639349" lon="8.21612890734139"><ele>484.0</ele><time>2026-04-03T13:42:37.833Z</time></trkpt><trkpt lat="45.823314178065026" lon="8.216017822418076"><ele>482.3333333333333</ele><time>2026-04-03T13:42:38.833Z</time></trkpt><trkpt lat="45.823339984947914" lon="8.215897735546159"><ele>480.66666666666663</ele><time>2026-04-03T13:42:39.833Z</time></trkpt><trkpt lat="45.82336336311359" lon="8.2157793225743"><ele>479.0</ele><time>2026-04-03T13:42:40.833Z</time></trkpt><trkpt lat="45.82338549857969" lon="8.215652728711738"><ele>479.0</ele><time>2026-04-03T13:42:41.833Z</time></trkpt><trkpt lat="45.82341753340716" lon="8.215522280939817"><ele>479.0</ele><time>2026-04-03T13:42:42.833Z</time></trkpt><trkpt lat="45.823452918430064" lon="8.21538429903504"><ele>479.0</ele><time>2026-04-03T13:42:43.833Z</time></trkpt><trkpt lat="45.8234891239482" lon="8.21524090203683"><ele>479.0</ele><time>2026-04-03T13:42:44.833Z</time></trkpt><trkpt lat="45.82352054296311" lon="8.215082994717758"><ele>479.0</ele><time>2026-04-03T13:42:45.833Z</time></trkpt><trkpt lat="45.82355950568342" lon="8.214916258113583"><ele>480.0</ele><time>2026-04-03T13:42:46.833Z</time></trkpt><trkpt lat="45.823600268935124" lon="8.21474289585377"><ele>481.0</ele><time>2026-04-03T13:42:47.833Z</time></trkpt><trkpt lat="45.823645126787845" lon="8.214561018686362"><ele>482.0</ele><time>2026-04-03T13:42:48.833Z</time></trkpt><trkpt lat="45.82369057236718" lon="8.214362771558795"><ele>483.0</ele><time>2026-04-03T13:42:49.833Z</time></trkpt><trkpt lat="45.823742140789825" lon="8.214149518887007"><ele>483.0</ele><time>2026-04-03T13:42:50.833Z</time></trkpt><trkpt lat="45.82379014215973" lon="8.213940078120439"><ele>483.0</ele><time>2026-04-03T13:42:51.833Z</time></trkpt><trkpt lat="45.82383331140493" lon="8.213735747292016"><ele>483.0</ele><time>2026-04-03T13:42:52.833Z</time></trkpt><trkpt lat="45.823879805534354" lon="8.213514874246963"><ele>483.0</ele><time>2026-04-03T13:42:53.833Z</time></trkpt><trkpt lat="45.82392885299613" lon="8.213287863378339"><ele>483.0</ele><time>2026-04-03T13:42:54.833Z</time></trkpt><trkpt lat="45.82397714549626" lon="8.21305463747267"><ele>483.0</ele><time>2026-04-03T13:42:55.833Z</time></trkpt><trkpt lat="45.824028929508096" lon="8.212825111975073"><ele>482.33333333333337</ele><time>2026-04-03T13:42:56.833Z</time></trkpt><trkpt lat="45.82407968034811" lon="8.212596433191111"><ele>481.6666666666667</ele><time>2026-04-03T13:42:57.833Z</time></trkpt><trkpt lat="45.824127972126846" lon="8.212368157865095"><ele>481.0</ele><time>2026-04-03T13:42:58.833Z</time></trkpt><trkpt lat="45.82417791496991" lon="8.21213800705875"><ele>480.6666666666667</ele><time>2026-04-03T13:42:59.833Z</time></trkpt><trkpt lat="45.82422564163495" lon="8.211914241048108"><ele>480.33333333333337</ele><time>2026-04-03T13:43:00.833Z</time></trkpt><trkpt lat="45.82427213852422" lon="8.21169752700185"><ele>480.0</ele><time>2026-04-03T13:43:01.833Z</time></trkpt><trkpt lat="45.824321912846166" lon="8.21147481175842"><ele>483.33333333333337</ele><time>2026-04-03T13:43:02.833Z</time></trkpt><trkpt lat="45.824374146265704" lon="8.21125053770917"><ele>486.6666666666667</ele><time>2026-04-03T13:43:03.833Z</time></trkpt><trkpt lat="45.82442967825238" lon="8.21102819187635"><ele>490.0</ele><time>2026-04-03T13:43:04.833Z</time></trkpt><trkpt lat="45.824494559555404" lon="8.210812624185486"><ele>490.6666666666667</ele><time>2026-04-03T13:43:05.833Z</time></trkpt><trkpt lat="45.82458367532204" lon="8.210603218445739"><ele>491.33333333333337</ele><time>2026-04-03T13:43:06.833Z</time></trkpt><trkpt lat="45.82468721148032" lon="8.210404158587158"><ele>492.0</ele><time>2026-04-03T13:43:07.833Z</time></trkpt><trkpt lat="45.824794473245994" lon="8.210200766107647"><ele>492.0</ele><time>2026-04-03T13:43:08.833Z</time></trkpt><trkpt lat="45.82490274864469" lon="8.20999358751485"><ele>492.0</ele><time>2026-04-03T13:43:09.833Z</time></trkpt><trkpt lat="45.82501199195959" lon="8.209790903795547"><ele>492.0</ele><time>2026-04-03T13:43:10.833Z</time></trkpt><trkpt lat="45.82512616946996" lon="8.209588330865875"><ele>490.66666666666663</ele><time>2026-04-03T13:43:11.833Z</time></trkpt><trkpt lat="45.82524299502831" lon="8.209383575178762"><ele>489.3333333333333</ele><time>2026-04-03T13:43:12.834Z</time></trkpt><trkpt lat="45.825363634706235" lon="8.20917848656301"><ele>488.0</ele><time>2026-04-03T13:43:13.834Z</time></trkpt><trkpt lat="45.82548567441693" lon="8.208968830321"><ele>488.0</ele><time>2026-04-03T13:43:14.834Z</time></trkpt><trkpt lat="45.82561709672679" lon="8.208768664239656"><ele>488.0</ele><time>2026-04-03T13:43:15.834Z</time></trkpt><trkpt lat="45.82575051307716" lon="8.208561994103366"><ele>488.0</ele><time>2026-04-03T13:43:16.834Z</time></trkpt><trkpt lat="45.82588568962" lon="8.208353090585183"><ele>489.3333333333333</ele><time>2026-04-03T13:43:17.834Z</time></trkpt><trkpt lat="45.82602127177364" lon="8.208145898359057"><ele>490.66666666666663</ele><time>2026-04-03T13:43:18.834Z</time></trkpt><trkpt lat="45.82615069563548" lon="8.207948922431232"><ele>492.0</ele><time>2026-04-03T13:43:19.834Z</time></trkpt><trkpt lat="45.826281091013875" lon="8.207752149482129"><ele>492.0</ele><time>2026-04-03T13:43:20.834Z</time></trkpt><trkpt lat="45.82641043504339" lon="8.20754638959308"><ele>492.0</ele><time>2026-04-03T13:43:21.834Z</time></trkpt><trkpt lat="45.82654768010962" lon="8.207333583827241"><ele>492.0</ele><time>2026-04-03T13:43:22.834Z</time></trkpt><trkpt lat="45.82668822241993" lon="8.20711807222497"><ele>492.33333333333337</ele><time>2026-04-03T13:43:23.834Z</time></trkpt><trkpt lat="45.826826457561026" lon="8.206898575729086"><ele>492.6666666666667</ele><time>2026-04-03T13:43:24.834Z</time></trkpt><trkpt lat="45.82696544970499" lon="8.206678807479268"><ele>493.0</ele><time>2026-04-03T13:43:25.834Z</time></trkpt><trkpt lat="45.82709910709375" lon="8.206462970621919"><ele>493.0</ele><time>2026-04-03T13:43:26.834Z</time></trkpt><trkpt lat="45.82724360530655" lon="8.206268932328902"><ele>493.0</ele><time>2026-04-03T13:43:27.834Z</time></trkpt><trkpt lat="45.82737649101525" lon="8.20606440456887"><ele>493.0</ele><time>2026-04-03T13:43:28.834Z</time></trkpt><trkpt lat="45.82749553409854" lon="8.205852516059148"><ele>494.0</ele><time>2026-04-03T13:43:29.834Z</time></trkpt><trkpt lat="45.82761619463644" lon="8.205660986783816"><ele>495.0</ele><time>2026-04-03T13:43:30.834Z</time></trkpt><trkpt lat="45.827738777498276" lon="8.20548724617655"><ele>496.0</ele><time>2026-04-03T13:43:31.834Z</time></trkpt><trkpt lat="45.827854413435475" lon="8.205322337533909"><ele>496.0</ele><time>2026-04-03T13:43:32.834Z</time></trkpt><trkpt lat="45.827970570740284" lon="8.2051515005436"><ele>496.0</ele><time>2026-04-03T13:43:33.834Z</time></trkpt><trkpt lat="45.828086144471015" lon="8.204956300640234"><ele>496.0</ele><time>2026-04-03T13:43:34.834Z</time></trkpt><trkpt lat="45.828211484804044" lon="8.204751445528323"><ele>496.0</ele><time>2026-04-03T13:43:35.834Z</time></trkpt><trkpt lat="45.82835014510236" lon="8.204543896813874"><ele>496.0</ele><time>2026-04-03T13:43:36.834Z</time></trkpt><trkpt lat="45.82849572155927" lon="8.204325179744353"><ele>496.0</ele><time>2026-04-03T13:43:37.834Z</time></trkpt><trkpt lat="45.828642479670314" lon="8.204102865698925"><ele>496.6666666666667</ele><time>2026-04-03T13:43:38.834Z</time></trkpt><trkpt lat="45.8287912425478" lon="8.203871112912534"><ele>497.33333333333337</ele><time>2026-04-03T13:43:39.834Z</time></trkpt><trkpt lat="45.828943114972006" lon="8.203639234618572"><ele>498.0</ele><time>2026-04-03T13:43:40.834Z</time></trkpt><trkpt lat="45.829098310250565" lon="8.203408603082291"><ele>498.0</ele><time>2026-04-03T13:43:41.834Z</time></trkpt><trkpt lat="45.829251643594176" lon="8.20318195675865"><ele>498.0</ele><time>2026-04-03T13:43:42.834Z</time></trkpt><trkpt lat="45.82940121975761" lon="8.202957140583921"><ele>498.0</ele><time>2026-04-03T13:43:43.834Z</time></trkpt><trkpt lat="45.829547161116196" lon="8.20274072458672"><ele>497.66666666666663</ele><time>2026-04-03T13:43:44.835Z</time></trkpt><trkpt lat="45.829694287614714" lon="8.202534394543067"><ele>497.3333333333333</ele><time>2026-04-03T13:43:45.835Z</time></trkpt><trkpt lat="45.82984329057586" lon="8.202341326437022"><ele>497.0</ele><time>2026-04-03T13:43:46.835Z</time></trkpt><trkpt lat="45.83000143051764" lon="8.202166565876627"><ele>505.66666666666663</ele><time>2026-04-03T13:43:47.834Z</time></trkpt><trkpt lat="45.83016275758489" lon="8.202003201284631"><ele>514.3333333333334</ele><time>2026-04-03T13:43:48.835Z</time></trkpt><trkpt lat="45.83031925193468" lon="8.201839014154002"><ele>523.0</ele><time>2026-04-03T13:43:49.835Z</time></trkpt><trkpt lat="45.830468468613425" lon="8.201679640976133"><ele>523.0</ele><time>2026-04-03T13:43:50.835Z</time></trkpt><trkpt lat="45.83061146183183" lon="8.201523469300708"><ele>523.0</ele><time>2026-04-03T13:43:51.835Z</time></trkpt><trkpt lat="45.83074709370691" lon="8.201366648935254"><ele>523.0</ele><time>2026-04-03T13:43:52.835Z</time></trkpt><trkpt lat="45.830869546611126" lon="8.201202207316866"><ele>520.3333333333334</ele><time>2026-04-03T13:43:53.835Z</time></trkpt><trkpt lat="45.83097036778471" lon="8.201009913692472"><ele>517.6666666666666</ele><time>2026-04-03T13:43:54.835Z</time></trkpt><trkpt lat="45.83105884226056" lon="8.20079350312945"><ele>515.0</ele><time>2026-04-03T13:43:55.836Z</time></trkpt><trkpt lat="45.83113819401587" lon="8.200574294579377"><ele>515.0</ele><time>2026-04-03T13:43:56.835Z</time></trkpt><trkpt lat="45.83120978530055" lon="8.200355711396998"><ele>515.0</ele><time>2026-04-03T13:43:57.835Z</time></trkpt><trkpt lat="45.831291756096356" lon="8.200153531632504"><ele>515.0</ele><time>2026-04-03T13:43:58.835Z</time></trkpt><trkpt lat="45.83138875904841" lon="8.199955157298296"><ele>511.0</ele><time>2026-04-03T13:43:59.835Z</time></trkpt><trkpt lat="45.83149500552688" lon="8.1997685629883"><ele>507.0</ele><time>2026-04-03T13:44:00.835Z</time></trkpt><trkpt lat="45.83161645626308" lon="8.199607571705448"><ele>503.0</ele><time>2026-04-03T13:44:01.835Z</time></trkpt><trkpt lat="45.83173632922619" lon="8.199445841396095"><ele>507.66666666666663</ele><time>2026-04-03T13:44:02.835Z</time></trkpt><trkpt lat="45.83186108050526" lon="8.199287204600797"><ele>512.3333333333334</ele><time>2026-04-03T13:44:03.835Z</time></trkpt><trkpt lat="45.83198215518154" lon="8.199126319916399"><ele>517.0</ele><time>2026-04-03T13:44:04.835Z</time></trkpt><trkpt lat="45.83210306873656" lon="8.198964201350309"><ele>517.0</ele><time>2026-04-03T13:44:05.835Z</time></trkpt><trkpt lat="45.832220975998254" lon="8.198803204736619"><ele>517.0</ele><time>2026-04-03T13:44:06.835Z</time></trkpt><trkpt lat="45.832338078765865" lon="8.19864959579854"><ele>517.0</ele><time>2026-04-03T13:44:07.835Z</time></trkpt><trkpt lat="45.83245399613186" lon="8.198500607997287"><ele>517.0</ele><time>2026-04-03T13:44:08.835Z</time></trkpt><trkpt lat="45.83255911688317" lon="8.198351553622727"><ele>517.0</ele><time>2026-04-03T13:44:09.835Z</time></trkpt><trkpt lat="45.8326444285518" lon="8.198195846464516"><ele>517.0</ele><time>2026-04-03T13:44:10.835Z</time></trkpt><trkpt lat="45.832707644762706" lon="8.198019508984302"><ele>517.0</ele><time>2026-04-03T13:44:11.835Z</time></trkpt><trkpt lat="45.83275199989235" lon="8.197837985237259"><ele>519.0</ele><time>2026-04-03T13:44:12.835Z</time></trkpt><trkpt lat="45.83276746713466" lon="8.197644467593989"><ele>521.0</ele><time>2026-04-03T13:44:13.835Z</time></trkpt><trkpt lat="45.83277640498551" lon="8.197444500778056"><ele>523.0</ele><time>2026-04-03T13:44:14.835Z</time></trkpt><trkpt lat="45.8327766101358" lon="8.197259309681337"><ele>525.0</ele><time>2026-04-03T13:44:15.835Z</time></trkpt><trkpt lat="45.832778692083956" lon="8.19708421788824"><ele>525.0</ele><time>2026-04-03T13:44:16.835Z</time></trkpt><trkpt lat="45.83277947520633" lon="8.19690202805908"><ele>525.0</ele><time>2026-04-03T13:44:17.835Z</time></trkpt><trkpt lat="45.832770672684106" lon="8.196710259947023"><ele>525.0</ele><time>2026-04-03T13:44:18.835Z</time></trkpt><trkpt lat="45.832755246497875" lon="8.196512147532108"><ele>525.0</ele><time>2026-04-03T13:44:19.835Z</time></trkpt><trkpt lat="45.83273298359536" lon="8.196306728437872"><ele>523.0</ele><time>2026-04-03T13:44:20.835Z</time></trkpt><trkpt lat="45.832698179452" lon="8.196088487054798"><ele>521.0</ele><time>2026-04-03T13:44:21.835Z</time></trkpt><trkpt lat="45.83266529592599" lon="8.195869483289638"><ele>519.0</ele><time>2026-04-03T13:44:22.835Z</time></trkpt><trkpt lat="45.83263131009695" lon="8.195648945651666"><ele>514.0</ele><time>2026-04-03T13:44:23.835Z</time></trkpt><trkpt lat="45.832603349470865" lon="8.195429782959712"><ele>509.0</ele><time>2026-04-03T13:44:24.835Z</time></trkpt><trkpt lat="45.83257780011163" lon="8.195215410044879"><ele>504.0</ele><time>2026-04-03T13:44:25.835Z</time></trkpt><trkpt lat="45.8325488484116" lon="8.194998486498207"><ele>505.0</ele><time>2026-04-03T13:44:26.835Z</time></trkpt><trkpt lat="45.83251637112159" lon="8.194775532952274"><ele>506.0</ele><time>2026-04-03T13:44:27.835Z</time></trkpt><trkpt lat="45.83249034373257" lon="8.194555894670637"><ele>507.0</ele><time>2026-04-03T13:44:28.835Z</time></trkpt><trkpt lat="45.83246600138235" lon="8.194340666196021"><ele>507.0</ele><time>2026-04-03T13:44:29.835Z</time></trkpt><trkpt lat="45.83244866448358" lon="8.194130542602327"><ele>507.0</ele><time>2026-04-03T13:44:30.835Z</time></trkpt><trkpt lat="45.83244770649972" lon="8.193927531536415"><ele>507.0</ele><time>2026-04-03T13:44:31.835Z</time></trkpt><trkpt lat="45.83245642541968" lon="8.193731977752861"><ele>507.0</ele><time>2026-04-03T13:44:32.835Z</time></trkpt><trkpt lat="45.83246069610462" lon="8.193531838544311"><ele>506.75</ele><time>2026-04-03T13:44:33.835Z</time></trkpt><trkpt lat="45.83246915513632" lon="8.193330035295268"><ele>506.5</ele><time>2026-04-03T13:44:34.835Z</time></trkpt><trkpt lat="45.83247412550614" lon="8.193126536103355"><ele>506.25</ele><time>2026-04-03T13:44:35.835Z</time></trkpt><trkpt lat="45.83248352670903" lon="8.192925718387679"><ele>506.0</ele><time>2026-04-03T13:44:36.835Z</time></trkpt><trkpt lat="45.83249150439799" lon="8.192723696886492"><ele>506.0</ele><time>2026-04-03T13:44:37.835Z</time></trkpt><trkpt lat="45.83249117311278" lon="8.19253770646268"><ele>506.0</ele><time>2026-04-03T13:44:38.835Z</time></trkpt><trkpt lat="45.83246274741899" lon="8.192358260157915"><ele>506.0</ele><time>2026-04-03T13:44:39.835Z</time></trkpt><trkpt lat="45.832417372273746" lon="8.192176745514118"><ele>506.0</ele><time>2026-04-03T13:44:40.835Z</time></trkpt><trkpt lat="45.83237617419981" lon="8.192039779659057"><ele>506.20000000000005</ele><time>2026-04-03T13:44:41.835Z</time></trkpt><trkpt lat="45.83235247581778" lon="8.191945466674436"><ele>506.40000000000003</ele><time>2026-04-03T13:44:42.835Z</time></trkpt><trkpt lat="45.83230971099533" lon="8.191808519514053"><ele>506.6</ele><time>2026-04-03T13:44:44.836Z</time></trkpt><trkpt lat="45.832271099510976" lon="8.191703020075195"><ele>506.8</ele><time>2026-04-03T13:44:45.836Z</time></trkpt><trkpt lat="45.8322213638815" lon="8.191570199753775"><ele>507.0</ele><time>2026-04-03T13:44:46.836Z</time></trkpt><trkpt lat="45.83216686274857" lon="8.191411683504013"><ele>510.33333333333337</ele><time>2026-04-03T13:44:47.836Z</time></trkpt><trkpt lat="45.83210917055558" lon="8.191222851087463"><ele>513.6666666666667</ele><time>2026-04-03T13:44:48.836Z</time></trkpt><trkpt lat="45.83203490843236" lon="8.191004248973584"><ele>517.0</ele><time>2026-04-03T13:44:49.836Z</time></trkpt><trkpt lat="45.831955104910946" lon="8.190777096540286"><ele>514.3333333333334</ele><time>2026-04-03T13:44:50.836Z</time></trkpt><trkpt lat="45.83188543507428" lon="8.190564253162078"><ele>511.66666666666663</ele><time>2026-04-03T13:44:51.836Z</time></trkpt><trkpt lat="45.83181328555717" lon="8.190343764359325"><ele>509.0</ele><time>2026-04-03T13:44:52.836Z</time></trkpt><trkpt lat="45.83173673178939" lon="8.190106808782438"><ele>509.0</ele><time>2026-04-03T13:44:53.836Z</time></trkpt><trkpt lat="45.83165480112671" lon="8.189862019850105"><ele>509.0</ele><time>2026-04-03T13:44:54.836Z</time></trkpt><trkpt lat="45.831561771520484" lon="8.189606215758776"><ele>509.0</ele><time>2026-04-03T13:44:55.836Z</time></trkpt><trkpt lat="45.83147892749292" lon="8.189359436607276"><ele>513.3333333333333</ele><time>2026-04-03T13:44:56.836Z</time></trkpt><trkpt lat="45.8313930860838" lon="8.189116190480709"><ele>517.6666666666666</ele><time>2026-04-03T13:44:57.836Z</time></trkpt><trkpt lat="45.831335669347055" lon="8.188878693668597"><ele>522.0</ele><time>2026-04-03T13:44:58.836Z</time></trkpt><trkpt lat="45.83126253670769" lon="8.188667387318599"><ele>532.3333333333334</ele><time>2026-04-03T13:44:59.836Z</time></trkpt><trkpt lat="45.83119044540607" lon="8.18846677283489"><ele>542.6666666666667</ele><time>2026-04-03T13:45:00.836Z</time></trkpt><trkpt lat="45.83111997039567" lon="8.188268806565175"><ele>553.0</ele><time>2026-04-03T13:45:01.836Z</time></trkpt><trkpt lat="45.83105890141533" lon="8.188069671107824"><ele>554.5</ele><time>2026-04-03T13:45:02.836Z</time></trkpt><trkpt lat="45.83100728833565" lon="8.187871274917548"><ele>556.0</ele><time>2026-04-03T13:45:03.836Z</time></trkpt><trkpt lat="45.830942682130214" lon="8.187685783095784"><ele>557.5</ele><time>2026-04-03T13:45:04.836Z</time></trkpt><trkpt lat="45.83086815562848" lon="8.187506529335506"><ele>559.0</ele><time>2026-04-03T13:45:05.836Z</time></trkpt><trkpt lat="45.8308042409319" lon="8.187311565187777"><ele>547.5</ele><time>2026-04-03T13:45:06.836Z</time></trkpt><trkpt lat="45.83073790108344" lon="8.1871173399956"><ele>536.0</ele><time>2026-04-03T13:45:07.836Z</time></trkpt><trkpt lat="45.83067040342686" lon="8.186934200423561"><ele>524.5</ele><time>2026-04-03T13:45:08.836Z</time></trkpt><trkpt lat="45.830610904442125" lon="8.1867373245083"><ele>513.0</ele><time>2026-04-03T13:45:09.836Z</time></trkpt><trkpt lat="45.83054735317816" lon="8.186536790280927"><ele>516.6666666666666</ele><time>2026-04-03T13:45:10.836Z</time></trkpt><trkpt lat="45.8304872333457" lon="8.186328230029359"><ele>520.3333333333333</ele><time>2026-04-03T13:45:11.836Z</time></trkpt><trkpt lat="45.830422403633264" lon="8.186114938776338"><ele>524.0</ele><time>2026-04-03T13:45:12.836Z</time></trkpt><trkpt lat="45.83035344298373" lon="8.185897882008508"><ele>534.0</ele><time>2026-04-03T13:45:13.836Z</time></trkpt><trkpt lat="45.830286424888655" lon="8.185677432500851"><ele>544.0</ele><time>2026-04-03T13:45:14.836Z</time></trkpt><trkpt lat="45.83021994943061" lon="8.185453098179055"><ele>554.0</ele><time>2026-04-03T13:45:15.836Z</time></trkpt><trkpt lat="45.83015424764859" lon="8.185229837871965"><ele>545.3333333333333</ele><time>2026-04-03T13:45:16.836Z</time></trkpt><trkpt lat="45.830087506178124" lon="8.185013453643935"><ele>536.6666666666666</ele><time>2026-04-03T13:45:17.836Z</time></trkpt><trkpt lat="45.830024344042265" lon="8.18479929480009"><ele>528.0</ele><time>2026-04-03T13:45:18.836Z</time></trkpt><trkpt lat="45.82995589394616" lon="8.18458428369363"><ele>528.0</ele><time>2026-04-03T13:45:19.836Z</time></trkpt><trkpt lat="45.82988608985284" lon="8.184356031319979"><ele>528.0</ele><time>2026-04-03T13:45:20.836Z</time></trkpt><trkpt lat="45.82981392617852" lon="8.184123173905268"><ele>528.0</ele><time>2026-04-03T13:45:21.836Z</time></trkpt><trkpt lat="45.82974048894083" lon="8.183887078069453"><ele>531.6666666666666</ele><time>2026-04-03T13:45:22.836Z</time></trkpt><trkpt lat="45.82966170190387" lon="8.18364484712248"><ele>535.3333333333333</ele><time>2026-04-03T13:45:23.836Z</time></trkpt><trkpt lat="45.82958402193149" lon="8.183396904620388"><ele>539.0</ele><time>2026-04-03T13:45:24.836Z</time></trkpt><trkpt lat="45.82950543230074" lon="8.183154372877173"><ele>544.6666666666666</ele><time>2026-04-03T13:45:25.836Z</time></trkpt><trkpt lat="45.82942622866444" lon="8.182913859055045"><ele>550.3333333333334</ele><time>2026-04-03T13:45:26.836Z</time></trkpt><trkpt lat="45.829347019537394" lon="8.182672381889013"><ele>556.0</ele><time>2026-04-03T13:45:27.836Z</time></trkpt><trkpt lat="45.8292710646357" lon="8.182428934152373"><ele>544.6666666666667</ele><time>2026-04-03T13:45:28.836Z</time></trkpt><trkpt lat="45.82919518072249" lon="8.182186473309057"><ele>533.3333333333334</ele><time>2026-04-03T13:45:29.836Z</time></trkpt><trkpt lat="45.82912232422827" lon="8.18195375488683"><ele>522.0</ele><time>2026-04-03T13:45:30.836Z</time></trkpt><trkpt lat="45.82905089604885" lon="8.181729048411446"><ele>525.0</ele><time>2026-04-03T13:45:31.836Z</time></trkpt><trkpt lat="45.828977646724645" lon="8.181509746062401"><ele>528.0</ele><time>2026-04-03T13:45:32.836Z</time></trkpt><trkpt lat="45.828907764579704" lon="8.18129240554297"><ele>531.0</ele><time>2026-04-03T13:45:33.836Z</time></trkpt><trkpt lat="45.82884055524754" lon="8.18108274028847"><ele>531.0</ele><time>2026-04-03T13:45:34.836Z</time></trkpt><trkpt lat="45.8287729630248" lon="8.180869061053633"><ele>531.0</ele><time>2026-04-03T13:45:35.836Z</time></trkpt><trkpt lat="45.828721405723144" lon="8.18064043924282"><ele>531.0</ele><time>2026-04-03T13:45:36.836Z</time></trkpt><trkpt lat="45.82868235797163" lon="8.180392719113454"><ele>534.6666666666666</ele><time>2026-04-03T13:45:37.836Z</time></trkpt><trkpt lat="45.8286579373692" lon="8.180136161952976"><ele>538.3333333333333</ele><time>2026-04-03T13:45:38.837Z</time></trkpt><trkpt lat="45.82862347855623" lon="8.179880204634468"><ele>542.0</ele><time>2026-04-03T13:45:39.837Z</time></trkpt><trkpt lat="45.82856781298295" lon="8.179616244782167"><ele>538.6666666666666</ele><time>2026-04-03T13:45:40.837Z</time></trkpt><trkpt lat="45.82849795408108" lon="8.17935852959658"><ele>535.3333333333334</ele><time>2026-04-03T13:45:41.837Z</time></trkpt><trkpt lat="45.82842557278061" lon="8.179098224682528"><ele>532.0</ele><time>2026-04-03T13:45:42.837Z</time></trkpt><trkpt lat="45.828361278779724" lon="8.178847376859618"><ele>532.0</ele><time>2026-04-03T13:45:43.837Z</time></trkpt><trkpt lat="45.828300314287276" lon="8.178621108937403"><ele>532.0</ele><time>2026-04-03T13:45:44.837Z</time></trkpt><trkpt lat="45.828245405655004" lon="8.17841041524525"><ele>532.0</ele><time>2026-04-03T13:45:45.837Z</time></trkpt><trkpt lat="45.828200539964996" lon="8.178200691506209"><ele>533.6666666666667</ele><time>2026-04-03T13:45:46.837Z</time></trkpt><trkpt lat="45.82817952578235" lon="8.177975542166735"><ele>535.3333333333334</ele><time>2026-04-03T13:45:47.837Z</time></trkpt><trkpt lat="45.828170861896076" lon="8.177717627756953"><ele>537.0</ele><time>2026-04-03T13:45:48.837Z</time></trkpt><trkpt lat="45.828176267368235" lon="8.177419854900938"><ele>535.0</ele><time>2026-04-03T13:45:49.838Z</time></trkpt><trkpt lat="45.82821358427197" lon="8.177079233566845"><ele>533.0</ele><time>2026-04-03T13:45:50.838Z</time></trkpt><trkpt lat="45.828239091439684" lon="8.17670691954602"><ele>534.5</ele><time>2026-04-03T13:45:51.838Z</time></trkpt><trkpt lat="45.82826751112154" lon="8.176371134130862"><ele>536.0</ele><time>2026-04-03T13:45:52.838Z</time></trkpt><trkpt lat="45.82826962444224" lon="8.176054136798886"><ele>536.0</ele><time>2026-04-03T13:45:53.838Z</time></trkpt><trkpt lat="45.82823161375002" lon="8.175734906948533"><ele>536.0</ele><time>2026-04-03T13:45:54.838Z</time></trkpt><trkpt lat="45.828119190909604" lon="8.175385388227777"><ele>561.0</ele><time>2026-04-03T13:45:55.838Z</time></trkpt><trkpt lat="45.827897394721916" lon="8.174647170413605"><ele>561.0</ele><time>2026-04-03T13:45:57.838Z</time></trkpt><trkpt lat="45.827804578864885" lon="8.174305004662061"><ele>561.0</ele><time>2026-04-03T13:45:58.838Z</time></trkpt><trkpt lat="45.82772140870757" lon="8.173999515632646"><ele>560.6666666666666</ele><time>2026-04-03T13:45:59.838Z</time></trkpt><trkpt lat="45.8276636707347" lon="8.173731503401829"><ele>560.3333333333333</ele><time>2026-04-03T13:46:00.838Z</time></trkpt><trkpt lat="45.827625024148446" lon="8.173483863036283"><ele>560.0</ele><time>2026-04-03T13:46:01.838Z</time></trkpt><trkpt lat="45.82760469455561" lon="8.173251411628502"><ele>548.0</ele><time>2026-04-03T13:46:02.839Z</time></trkpt><trkpt lat="45.827600947449845" lon="8.173024900480558"><ele>536.0</ele><time>2026-04-03T13:46:03.839Z</time></trkpt><trkpt lat="45.82761795652785" lon="8.17280612368373"><ele>524.0</ele><time>2026-04-03T13:46:04.839Z</time></trkpt><trkpt lat="45.82763820110564" lon="8.17258682711863"><ele>530.0</ele><time>2026-04-03T13:46:05.839Z</time></trkpt><trkpt lat="45.82766446016713" lon="8.172376852964646"><ele>536.0</ele><time>2026-04-03T13:46:06.839Z</time></trkpt><trkpt lat="45.827711162365716" lon="8.17218885494494"><ele>542.0</ele><time>2026-04-03T13:46:07.839Z</time></trkpt><trkpt lat="45.827782900939255" lon="8.172019994137765"><ele>548.0</ele><time>2026-04-03T13:46:08.839Z</time></trkpt><trkpt lat="45.82787693138667" lon="8.17185655196291"><ele>548.0</ele><time>2026-04-03T13:46:09.839Z</time></trkpt><trkpt lat="45.827972056795225" lon="8.171690950702029"><ele>548.0</ele><time>2026-04-03T13:46:10.839Z</time></trkpt><trkpt lat="45.8280526124203" lon="8.171512853508766"><ele>548.0</ele><time>2026-04-03T13:46:11.839Z</time></trkpt><trkpt lat="45.828126890376595" lon="8.17132316692896"><ele>548.0</ele><time>2026-04-03T13:46:12.839Z</time></trkpt><trkpt lat="45.82817717295042" lon="8.171121301405385"><ele>546.0</ele><time>2026-04-03T13:46:13.839Z</time></trkpt><trkpt lat="45.8282083106244" lon="8.170901346974476"><ele>544.0</ele><time>2026-04-03T13:46:14.839Z</time></trkpt><trkpt lat="45.82822477501766" lon="8.170666775213324"><ele>542.0</ele><time>2026-04-03T13:46:15.839Z</time></trkpt><trkpt lat="45.8282426188526" lon="8.170439927186518"><ele>542.0</ele><time>2026-04-03T13:46:16.839Z</time></trkpt><trkpt lat="45.82824007981315" lon="8.170209878325709"><ele>542.0</ele><time>2026-04-03T13:46:17.839Z</time></trkpt><trkpt lat="45.828225174563094" lon="8.169978560107655"><ele>542.0</ele><time>2026-04-03T13:46:18.839Z</time></trkpt><trkpt lat="45.82819966679786" lon="8.169736917946867"><ele>544.6666666666666</ele><time>2026-04-03T13:46:19.839Z</time></trkpt><trkpt lat="45.82817349414511" lon="8.169491162514062"><ele>547.3333333333334</ele><time>2026-04-03T13:46:20.839Z</time></trkpt><trkpt lat="45.82814612116301" lon="8.169237648289378"><ele>550.0</ele><time>2026-04-03T13:46:21.839Z</time></trkpt><trkpt lat="45.828115071077214" lon="8.168977922524899"><ele>552.0</ele><time>2026-04-03T13:46:22.839Z</time></trkpt><trkpt lat="45.82807792342462" lon="8.168711282483507"><ele>554.0</ele><time>2026-04-03T13:46:23.839Z</time></trkpt><trkpt lat="45.82804024862283" lon="8.168439330150324"><ele>556.0</ele><time>2026-04-03T13:46:24.839Z</time></trkpt><trkpt lat="45.8280024630546" lon="8.168177136873403"><ele>556.6666666666667</ele><time>2026-04-03T13:46:25.839Z</time></trkpt><trkpt lat="45.827961652505614" lon="8.1679299443966"><ele>557.3333333333334</ele><time>2026-04-03T13:46:26.839Z</time></trkpt><trkpt lat="45.82791398273471" lon="8.167680664827753"><ele>558.0</ele><time>2026-04-03T13:46:27.839Z</time></trkpt><trkpt lat="45.82785377245238" lon="8.167421751292204"><ele>559.6666666666666</ele><time>2026-04-03T13:46:28.839Z</time></trkpt><trkpt lat="45.82778948901892" lon="8.16716431023442"><ele>561.3333333333333</ele><time>2026-04-03T13:46:29.839Z</time></trkpt><trkpt lat="45.82772533198443" lon="8.16690887376076"><ele>563.0</ele><time>2026-04-03T13:46:30.839Z</time></trkpt><trkpt lat="45.8276636749018" lon="8.16665288381485"><ele>555.3333333333333</ele><time>2026-04-03T13:46:31.839Z</time></trkpt><trkpt lat="45.8276066887534" lon="8.166399953999862"><ele>547.6666666666666</ele><time>2026-04-03T13:46:32.839Z</time></trkpt><trkpt lat="45.82754337846812" lon="8.16615540569462"><ele>540.0</ele><time>2026-04-03T13:46:33.839Z</time></trkpt><trkpt lat="45.82747585743914" lon="8.165914298558326"><ele>542.6666666666666</ele><time>2026-04-03T13:46:34.839Z</time></trkpt><trkpt lat="45.82741086639375" lon="8.165674328022012"><ele>545.3333333333333</ele><time>2026-04-03T13:46:35.839Z</time></trkpt><trkpt lat="45.82734906948512" lon="8.165419153348012"><ele>548.0</ele><time>2026-04-03T13:46:36.839Z</time></trkpt><trkpt lat="45.82725776066541" lon="8.16517222903807"><ele>548.0</ele><time>2026-04-03T13:46:37.839Z</time></trkpt><trkpt lat="45.82716408566156" lon="8.16494541296858"><ele>548.0</ele><time>2026-04-03T13:46:38.839Z</time></trkpt><trkpt lat="45.82706116610851" lon="8.164741362604184"><ele>548.0</ele><time>2026-04-03T13:46:39.839Z</time></trkpt><trkpt lat="45.826943816709665" lon="8.164571387450483"><ele>548.6666666666666</ele><time>2026-04-03T13:46:40.839Z</time></trkpt><trkpt lat="45.82680790572625" lon="8.164443541309732"><ele>549.3333333333334</ele><time>2026-04-03T13:46:41.839Z</time></trkpt><trkpt lat="45.82666198754866" lon="8.164331068716153"><ele>550.0</ele><time>2026-04-03T13:46:42.839Z</time></trkpt><trkpt lat="45.826506480082145" lon="8.16422232440609"><ele>550.0</ele><time>2026-04-03T13:46:43.839Z</time></trkpt><trkpt lat="45.82635164362538" lon="8.164105337311847"><ele>550.0</ele><time>2026-04-03T13:46:44.839Z</time></trkpt><trkpt lat="45.826216332744686" lon="8.163971993203251"><ele>550.0</ele><time>2026-04-03T13:46:45.839Z</time></trkpt><trkpt lat="45.826091788522405" lon="8.163821313123906"><ele>549.3333333333334</ele><time>2026-04-03T13:46:46.839Z</time></trkpt><trkpt lat="45.82596852649929" lon="8.163666653910305"><ele>548.6666666666666</ele><time>2026-04-03T13:46:47.839Z</time></trkpt><trkpt lat="45.82584480123946" lon="8.163507159847903"><ele>548.0</ele><time>2026-04-03T13:46:48.84Z</time></trkpt><trkpt lat="45.82573223066312" lon="8.163349998501978"><ele>552.3333333333333</ele><time>2026-04-03T13:46:49.84Z</time></trkpt><trkpt lat="45.825616861462876" lon="8.163186496397643"><ele>556.6666666666666</ele><time>2026-04-03T13:46:50.84Z</time></trkpt><trkpt lat="45.82550077272342" lon="8.163029152481993"><ele>561.0</ele><time>2026-04-03T13:46:51.84Z</time></trkpt><trkpt lat="45.8253825174039" lon="8.162870911600235"><ele>561.0</ele><time>2026-04-03T13:46:52.84Z</time></trkpt><trkpt lat="45.825259502011114" lon="8.162710111642278"><ele>561.0</ele><time>2026-04-03T13:46:53.84Z</time></trkpt><trkpt lat="45.825133070290235" lon="8.162551822281527"><ele>561.0</ele><time>2026-04-03T13:46:54.84Z</time></trkpt><trkpt lat="45.825007201935115" lon="8.162397296951678"><ele>558.3333333333334</ele><time>2026-04-03T13:46:55.84Z</time></trkpt><trkpt lat="45.82488498734762" lon="8.162240606867737"><ele>555.6666666666667</ele><time>2026-04-03T13:46:56.84Z</time></trkpt><trkpt lat="45.824768661555844" lon="8.162079600886425"><ele>553.0</ele><time>2026-04-03T13:46:57.84Z</time></trkpt><trkpt lat="45.82466290856337" lon="8.161895709314777"><ele>553.0</ele><time>2026-04-03T13:46:58.84Z</time></trkpt><trkpt lat="45.8245730177196" lon="8.1616873973217"><ele>553.0</ele><time>2026-04-03T13:46:59.84Z</time></trkpt><trkpt lat="45.82448023931325" lon="8.161447007150274"><ele>553.0</ele><time>2026-04-03T13:47:00.84Z</time></trkpt><trkpt lat="45.82437682402344" lon="8.161160465953994"><ele>556.0</ele><time>2026-04-03T13:47:01.84Z</time></trkpt><trkpt lat="45.824254828033844" lon="8.160847847116507"><ele>559.0</ele><time>2026-04-03T13:47:02.84Z</time></trkpt><trkpt lat="45.8240991875965" lon="8.160535552815631"><ele>559.0</ele><time>2026-04-03T13:47:03.84Z</time></trkpt><trkpt lat="45.8239303110703" lon="8.160213319603749"><ele>559.0</ele><time>2026-04-03T13:47:04.84Z</time></trkpt><trkpt lat="45.823743974685286" lon="8.159878368828984"><ele>555.5</ele><time>2026-04-03T13:47:05.84Z</time></trkpt><trkpt lat="45.82357400852563" lon="8.159509417191746"><ele>552.0</ele><time>2026-04-03T13:47:06.84Z</time></trkpt><trkpt lat="45.82341889882327" lon="8.159147617200247"><ele>562.0</ele><time>2026-04-03T13:47:07.84Z</time></trkpt><trkpt lat="45.823269815023856" lon="8.158796091994661"><ele>572.0</ele><time>2026-04-03T13:47:08.84Z</time></trkpt><trkpt lat="45.82312848921379" lon="8.158460045529438"><ele>578.0</ele><time>2026-04-03T13:47:09.84Z</time></trkpt><trkpt lat="45.82298779741156" lon="8.158143023140829"><ele>584.0</ele><time>2026-04-03T13:47:10.84Z</time></trkpt><trkpt lat="45.82285266603309" lon="8.157844158719248"><ele>584.0</ele><time>2026-04-03T13:47:11.84Z</time></trkpt><trkpt lat="45.822727039631815" lon="8.157551038346229"><ele>584.0</ele><time>2026-04-03T13:47:12.84Z</time></trkpt><trkpt lat="45.822600859628345" lon="8.157264524717338"><ele>573.0</ele><time>2026-04-03T13:47:13.84Z</time></trkpt><trkpt lat="45.8224708047455" lon="8.156964866821564"><ele>562.0</ele><time>2026-04-03T13:47:14.84Z</time></trkpt><trkpt lat="45.82234998040907" lon="8.15664535083426"><ele>563.6666666666667</ele><time>2026-04-03T13:47:15.84Z</time></trkpt><trkpt lat="45.82225704374372" lon="8.156349367075592"><ele>565.3333333333334</ele><time>2026-04-03T13:47:16.84Z</time></trkpt><trkpt lat="45.82221478104915" lon="8.156082495377467"><ele>567.0</ele><time>2026-04-03T13:47:17.84Z</time></trkpt><trkpt lat="45.82213487641868" lon="8.155821296279006"><ele>564.0</ele><time>2026-04-03T13:47:18.84Z</time></trkpt><trkpt lat="45.821990357769145" lon="8.155551574152643"><ele>561.0</ele><time>2026-04-03T13:47:19.84Z</time></trkpt><trkpt lat="45.821813460772425" lon="8.155250932057811"><ele>561.0</ele><time>2026-04-03T13:47:20.84Z</time></trkpt><trkpt lat="45.82161164327044" lon="8.154944147023212"><ele>561.0</ele><time>2026-04-03T13:47:21.84Z</time></trkpt><trkpt lat="45.82142458579513" lon="8.154617103018373"><ele>561.5</ele><time>2026-04-03T13:47:22.84Z</time></trkpt><trkpt lat="45.82123117649151" lon="8.154338247123388"><ele>562.0</ele><time>2026-04-03T13:47:23.84Z</time></trkpt><trkpt lat="45.821029926969416" lon="8.154096496511375"><ele>562.5</ele><time>2026-04-03T13:47:24.84Z</time></trkpt><trkpt lat="45.820830213391616" lon="8.153865909863725"><ele>563.0</ele><time>2026-04-03T13:47:25.84Z</time></trkpt><trkpt lat="45.82063581865976" lon="8.153681825392004"><ele>563.0</ele><time>2026-04-03T13:47:26.84Z</time></trkpt><trkpt lat="45.82046953211165" lon="8.1534795156989"><ele>563.0</ele><time>2026-04-03T13:47:27.84Z</time></trkpt><trkpt lat="45.820326796390326" lon="8.153253698785981"><ele>563.0</ele><time>2026-04-03T13:47:28.84Z</time></trkpt><trkpt lat="45.82021527760236" lon="8.152994445978692"><ele>561.0</ele><time>2026-04-03T13:47:29.84Z</time></trkpt><trkpt lat="45.820134060077805" lon="8.152716297330233"><ele>559.0</ele><time>2026-04-03T13:47:30.84Z</time></trkpt><trkpt lat="45.82007168278781" lon="8.152427364301001"><ele>557.0</ele><time>2026-04-03T13:47:31.84Z</time></trkpt><trkpt lat="45.820014100250006" lon="8.152148791260196"><ele>557.0</ele><time>2026-04-03T13:47:32.84Z</time></trkpt><trkpt lat="45.81996547808645" lon="8.15187672973855"><ele>557.0</ele><time>2026-04-03T13:47:33.84Z</time></trkpt><trkpt lat="45.81994358289495" lon="8.151573815752704"><ele>557.0</ele><time>2026-04-03T13:47:34.84Z</time></trkpt><trkpt lat="45.819916189076885" lon="8.151201760128"><ele>560.5</ele><time>2026-04-03T13:47:35.84Z</time></trkpt><trkpt lat="45.81990990532735" lon="8.150772102800888"><ele>564.0</ele><time>2026-04-03T13:47:36.84Z</time></trkpt><trkpt lat="45.8199089545965" lon="8.1503614613603"><ele>564.5</ele><time>2026-04-03T13:47:37.84Z</time></trkpt><trkpt lat="45.81991270570962" lon="8.149987905156804"><ele>565.0</ele><time>2026-04-03T13:47:38.84Z</time></trkpt><trkpt lat="45.81990000767434" lon="8.149656608724353"><ele>565.3333333333334</ele><time>2026-04-03T13:47:39.84Z</time></trkpt><trkpt lat="45.81989013078127" lon="8.14935853986316"><ele>565.6666666666666</ele><time>2026-04-03T13:47:40.84Z</time></trkpt><trkpt lat="45.81990605285525" lon="8.149086694762502"><ele>566.0</ele><time>2026-04-03T13:47:41.84Z</time></trkpt><trkpt lat="45.81994757462014" lon="8.148811657274727"><ele>564.3333333333333</ele><time>2026-04-03T13:47:42.84Z</time></trkpt><trkpt lat="45.819987266054" lon="8.148520684302985"><ele>562.6666666666666</ele><time>2026-04-03T13:47:43.841Z</time></trkpt><trkpt lat="45.82002397574451" lon="8.148238836754555"><ele>561.0</ele><time>2026-04-03T13:47:44.841Z</time></trkpt><trkpt lat="45.82007164667549" lon="8.147971856612044"><ele>559.0</ele><time>2026-04-03T13:47:45.841Z</time></trkpt><trkpt lat="45.82012904195295" lon="8.147681475993164"><ele>557.0</ele><time>2026-04-03T13:47:46.841Z</time></trkpt><trkpt lat="45.8201967043006" lon="8.147377147384393"><ele>555.0</ele><time>2026-04-03T13:47:47.841Z</time></trkpt><trkpt lat="45.82025896927296" lon="8.14708289313249"><ele>562.3333333333334</ele><time>2026-04-03T13:47:48.841Z</time></trkpt><trkpt lat="45.82030682199452" lon="8.14685179963067"><ele>569.6666666666667</ele><time>2026-04-03T13:47:49.841Z</time></trkpt><trkpt lat="45.82036293100157" lon="8.146645180118849"><ele>577.0</ele><time>2026-04-03T13:47:50.841Z</time></trkpt><trkpt lat="45.82040316402885" lon="8.146464562292346"><ele>577.0</ele><time>2026-04-03T13:47:51.841Z</time></trkpt><trkpt lat="45.82040435494758" lon="8.146282623589062"><ele>577.0</ele><time>2026-04-03T13:47:52.841Z</time></trkpt><trkpt lat="45.82037994820493" lon="8.146097927390256"><ele>577.0</ele><time>2026-04-03T13:47:53.841Z</time></trkpt><trkpt lat="45.820335781905115" lon="8.145923477609037"><ele>577.0</ele><time>2026-04-03T13:47:54.841Z</time></trkpt><trkpt lat="45.820277282395914" lon="8.145756287394569"><ele>577.0</ele><time>2026-04-03T13:47:55.84Z</time></trkpt><trkpt lat="45.82019646752029" lon="8.145600060929302"><ele>577.0</ele><time>2026-04-03T13:47:56.841Z</time></trkpt><trkpt lat="45.820113463671696" lon="8.145474995670297"><ele>577.0</ele><time>2026-04-03T13:47:57.841Z</time></trkpt><trkpt lat="45.819960016117996" lon="8.145335591293907"><ele>577.0</ele><time>2026-04-03T13:47:58.84Z</time></trkpt><trkpt lat="45.819761341788315" lon="8.145161392286274"><ele>568.5</ele><time>2026-04-03T13:47:59.841Z</time></trkpt><trkpt lat="45.81952299309642" lon="8.144953945675793"><ele>560.0</ele><time>2026-04-03T13:48:00.841Z</time></trkpt><trkpt lat="45.819299313253744" lon="8.14475481458195"><ele>559.0</ele><time>2026-04-03T13:48:01.84Z</time></trkpt><trkpt lat="45.81909773483221" lon="8.144564001206687"><ele>558.0</ele><time>2026-04-03T13:48:02.84Z</time></trkpt><trkpt lat="45.8189189741655" lon="8.144367090116104"><ele>558.0</ele><time>2026-04-03T13:48:03.84Z</time></trkpt><trkpt lat="45.81876089666799" lon="8.144166363444606"><ele>558.0</ele><time>2026-04-03T13:48:04.841Z</time></trkpt><trkpt lat="45.81862835226275" lon="8.14396628118867"><ele>558.0</ele><time>2026-04-03T13:48:05.84Z</time></trkpt><trkpt lat="45.8185303714014" lon="8.143772776655833"><ele>558.5</ele><time>2026-04-03T13:48:06.84Z</time></trkpt><trkpt lat="45.818444312374574" lon="8.143595166842955"><ele>559.0</ele><time>2026-04-03T13:48:07.84Z</time></trkpt><trkpt lat="45.81838757425385" lon="8.143438994734185"><ele>559.5</ele><time>2026-04-03T13:48:08.841Z</time></trkpt><trkpt lat="45.81834441314284" lon="8.14328339379751"><ele>560.0</ele><time>2026-04-03T13:48:09.841Z</time></trkpt><trkpt lat="45.818319828545825" lon="8.14313891718981"><ele>560.0</ele><time>2026-04-03T13:48:10.841Z</time></trkpt><trkpt lat="45.81829679691428" lon="8.143016607105794"><ele>560.0</ele><time>2026-04-03T13:48:11.841Z</time></trkpt><trkpt lat="45.81825392742224" lon="8.14291935671724"><ele>560.0</ele><time>2026-04-03T13:48:12.841Z</time></trkpt><trkpt lat="45.818204534654114" lon="8.14283488585633"><ele>560.0</ele><time>2026-04-03T13:48:13.841Z</time></trkpt><trkpt lat="45.8181554759483" lon="8.142757950660565"><ele>560.0</ele><time>2026-04-03T13:48:14.841Z</time></trkpt><trkpt lat="45.81811357054058" lon="8.142681244217277"><ele>560.0</ele><time>2026-04-03T13:48:15.841Z</time></trkpt><trkpt lat="45.818069325767866" lon="8.142581842711593"><ele>560.0</ele><time>2026-04-03T13:48:16.841Z</time></trkpt><trkpt lat="45.81801243496876" lon="8.142448276094289"><ele>560.0</ele><time>2026-04-03T13:48:17.841Z</time></trkpt><trkpt lat="45.81795647793225" lon="8.142302517600767"><ele>560.0</ele><time>2026-04-03T13:48:18.841Z</time></trkpt><trkpt lat="45.817920728742784" lon="8.142158820204214"><ele>560.0</ele><time>2026-04-03T13:48:19.841Z</time></trkpt><trkpt lat="45.81790732976722" lon="8.142013897448294"><ele>560.0</ele><time>2026-04-03T13:48:20.841Z</time></trkpt><trkpt lat="45.8179203200232" lon="8.141862541162949"><ele>561.75</ele><time>2026-04-03T13:48:21.841Z</time></trkpt><trkpt lat="45.817951378590514" lon="8.141698582745835"><ele>563.5</ele><time>2026-04-03T13:48:22.841Z</time></trkpt><trkpt lat="45.81798273891199" lon="8.141527725634981"><ele>565.25</ele><time>2026-04-03T13:48:23.841Z</time></trkpt><trkpt lat="45.818022190448964" lon="8.141366057428604"><ele>567.0</ele><time>2026-04-03T13:48:24.841Z</time></trkpt><trkpt lat="45.81806519889615" lon="8.141222429341514"><ele>567.0</ele><time>2026-04-03T13:48:25.841Z</time></trkpt><trkpt lat="45.81810287398699" lon="8.141077144594233"><ele>567.0</ele><time>2026-04-03T13:48:26.841Z</time></trkpt><trkpt lat="45.818168341195914" lon="8.140935921085328"><ele>567.0</ele><time>2026-04-03T13:48:27.841Z</time></trkpt><trkpt lat="45.8182438013835" lon="8.140783625371546"><ele>567.0</ele><time>2026-04-03T13:48:28.841Z</time></trkpt><trkpt lat="45.81831862926238" lon="8.14061396598601"><ele>568.25</ele><time>2026-04-03T13:48:29.841Z</time></trkpt><trkpt lat="45.81839846860849" lon="8.140461775874577"><ele>569.5</ele><time>2026-04-03T13:48:30.841Z</time></trkpt><trkpt lat="45.81848586806199" lon="8.140320507461025"><ele>570.75</ele><time>2026-04-03T13:48:31.841Z</time></trkpt><trkpt lat="45.81858951044498" lon="8.140204462753264"><ele>572.0</ele><time>2026-04-03T13:48:32.841Z</time></trkpt><trkpt lat="45.81870122811274" lon="8.140115854976628"><ele>572.0</ele><time>2026-04-03T13:48:33.841Z</time></trkpt><trkpt lat="45.818818512814204" lon="8.139993669157343"><ele>572.0</ele><time>2026-04-03T13:48:34.841Z</time></trkpt><trkpt lat="45.81893936000924" lon="8.139845625576662"><ele>572.0</ele><time>2026-04-03T13:48:35.841Z</time></trkpt><trkpt lat="45.81905284502796" lon="8.139687606008742"><ele>569.5</ele><time>2026-04-03T13:48:36.841Z</time></trkpt><trkpt lat="45.81915980217617" lon="8.13952909367435"><ele>567.0</ele><time>2026-04-03T13:48:37.841Z</time></trkpt><trkpt lat="45.81923122133569" lon="8.139381300090308"><ele>564.5</ele><time>2026-04-03T13:48:38.918Z</time></trkpt><trkpt lat="45.819285003478505" lon="8.139259008257696"><ele>562.0</ele><time>2026-04-03T13:48:39.918Z</time></trkpt><trkpt lat="45.819352695533" lon="8.139165086711456"><ele>565.25</ele><time>2026-04-03T13:48:40.919Z</time></trkpt><trkpt lat="45.81945637691331" lon="8.139086097010722"><ele>568.5</ele><time>2026-04-03T13:48:41.919Z</time></trkpt><trkpt lat="45.81956293872043" lon="8.138997308481926"><ele>571.75</ele><time>2026-04-03T13:48:42.919Z</time></trkpt><trkpt lat="45.819669814261644" lon="8.138862278994786"><ele>575.0</ele><time>2026-04-03T13:48:43.919Z</time></trkpt><trkpt lat="45.81975046456065" lon="8.138689642804186"><ele>575.0</ele><time>2026-04-03T13:48:44.919Z</time></trkpt><trkpt lat="45.81981215530738" lon="8.138546087075417"><ele>575.0</ele><time>2026-04-03T13:48:45.919Z</time></trkpt><trkpt lat="45.819890449553135" lon="8.138440579301506"><ele>575.0</ele><time>2026-04-03T13:48:46.919Z</time></trkpt><trkpt lat="45.819988073220976" lon="8.138366658691455"><ele>575.0</ele><time>2026-04-03T13:48:47.919Z</time></trkpt><trkpt lat="45.82010813196909" lon="8.138328462575918"><ele>580.3333333333333</ele><time>2026-04-03T13:48:48.919Z</time></trkpt><trkpt lat="45.820256623316816" lon="8.138337200340576"><ele>585.6666666666666</ele><time>2026-04-03T13:48:49.919Z</time></trkpt><trkpt lat="45.82042090706414" lon="8.138307017604049"><ele>591.0</ele><time>2026-04-03T13:48:50.919Z</time></trkpt><trkpt lat="45.82056566145062" lon="8.138321168123007"><ele>591.0</ele><time>2026-04-03T13:48:51.919Z</time></trkpt><trkpt lat="45.820689673262585" lon="8.138342981802914"><ele>591.0</ele><time>2026-04-03T13:48:52.919Z</time></trkpt><trkpt lat="45.82082064303304" lon="8.138337586461999"><ele>591.0</ele><time>2026-04-03T13:48:53.919Z</time></trkpt><trkpt lat="45.820957420704495" lon="8.1382473809693"><ele>591.0</ele><time>2026-04-03T13:48:54.919Z</time></trkpt><trkpt lat="45.821096762239634" lon="8.138134517674017"><ele>591.0</ele><time>2026-04-03T13:48:55.919Z</time></trkpt><trkpt lat="45.82124636665224" lon="8.138010609753277"><ele>591.0</ele><time>2026-04-03T13:48:56.919Z</time></trkpt><trkpt lat="45.82138959330215" lon="8.137891656517942"><ele>591.0</ele><time>2026-04-03T13:48:57.919Z</time></trkpt><trkpt lat="45.82154304291036" lon="8.137763078327204"><ele>591.0</ele><time>2026-04-03T13:48:58.919Z</time></trkpt><trkpt lat="45.8216733652119" lon="8.137630226630238"><ele>591.0</ele><time>2026-04-03T13:48:59.919Z</time></trkpt><trkpt lat="45.82180927104339" lon="8.137537043967091"><ele>591.0</ele><time>2026-04-03T13:49:00.919Z</time></trkpt><trkpt lat="45.82195630795061" lon="8.137488351271315"><ele>589.3333333333334</ele><time>2026-04-03T13:49:01.92Z</time></trkpt><trkpt lat="45.822101136250296" lon="8.137387166729235"><ele>587.6666666666667</ele><time>2026-04-03T13:49:02.92Z</time></trkpt><trkpt lat="45.82223234952448" lon="8.137263174175445"><ele>586.0</ele><time>2026-04-03T13:49:03.92Z</time></trkpt><trkpt lat="45.82234956190225" lon="8.137144178449146"><ele>586.0</ele><time>2026-04-03T13:49:04.92Z</time></trkpt><trkpt lat="45.822461898411945" lon="8.137037907328963"><ele>586.0</ele><time>2026-04-03T13:49:05.92Z</time></trkpt><trkpt lat="45.82259070742086" lon="8.136965919971106"><ele>586.0</ele><time>2026-04-03T13:49:06.92Z</time></trkpt><trkpt lat="45.82272818957303" lon="8.136902528225223"><ele>586.0</ele><time>2026-04-03T13:49:07.92Z</time></trkpt><trkpt lat="45.82285431117216" lon="8.136852623811592"><ele>583.75</ele><time>2026-04-03T13:49:08.92Z</time></trkpt><trkpt lat="45.82298495694002" lon="8.13681111844403"><ele>581.5</ele><time>2026-04-03T13:49:09.92Z</time></trkpt><trkpt lat="45.82312420058328" lon="8.13683752027125"><ele>579.25</ele><time>2026-04-03T13:49:10.92Z</time></trkpt><trkpt lat="45.823274014798315" lon="8.136894984636445"><ele>577.0</ele><time>2026-04-03T13:49:11.92Z</time></trkpt><trkpt lat="45.823416489496395" lon="8.136950437096878"><ele>580.25</ele><time>2026-04-03T13:49:12.92Z</time></trkpt><trkpt lat="45.82353671574817" lon="8.13698920627345"><ele>583.5</ele><time>2026-04-03T13:49:13.92Z</time></trkpt><trkpt lat="45.823659972784114" lon="8.136973232361527"><ele>586.75</ele><time>2026-04-03T13:49:14.92Z</time></trkpt><trkpt lat="45.823785624510954" lon="8.13691458860404"><ele>590.0</ele><time>2026-04-03T13:49:15.92Z</time></trkpt><trkpt lat="45.82390716972337" lon="8.136805676562158"><ele>590.0</ele><time>2026-04-03T13:49:16.92Z</time></trkpt><trkpt lat="45.82402867785921" lon="8.136677237214661"><ele>590.0</ele><time>2026-04-03T13:49:17.92Z</time></trkpt><trkpt lat="45.824136537822824" lon="8.136498523924319"><ele>590.0</ele><time>2026-04-03T13:49:18.92Z</time></trkpt><trkpt lat="45.82423319159915" lon="8.13629471104624"><ele>593.0</ele><time>2026-04-03T13:49:19.92Z</time></trkpt><trkpt lat="45.82433319766085" lon="8.136105398015548"><ele>596.0</ele><time>2026-04-03T13:49:20.92Z</time></trkpt><trkpt lat="45.82445960245484" lon="8.135923932257132"><ele>599.0</ele><time>2026-04-03T13:49:21.92Z</time></trkpt><trkpt lat="45.82458295128152" lon="8.135755285388832"><ele>596.25</ele><time>2026-04-03T13:49:22.92Z</time></trkpt><trkpt lat="45.824673824855765" lon="8.135578641525264"><ele>593.5</ele><time>2026-04-03T13:49:23.92Z</time></trkpt><trkpt lat="45.82474310583643" lon="8.135399712071045"><ele>590.75</ele><time>2026-04-03T13:49:24.92Z</time></trkpt><trkpt lat="45.82481134493015" lon="8.135254044787695"><ele>588.0</ele><time>2026-04-03T13:49:25.92Z</time></trkpt><trkpt lat="45.82490075661054" lon="8.135139082485923"><ele>588.0</ele><time>2026-04-03T13:49:26.92Z</time></trkpt><trkpt lat="45.82500622575006" lon="8.135066962122607"><ele>588.0</ele><time>2026-04-03T13:49:27.92Z</time></trkpt><trkpt lat="45.82514154468712" lon="8.135027851320167"><ele>588.0</ele><time>2026-04-03T13:49:28.92Z</time></trkpt><trkpt lat="45.82531756193284" lon="8.134975564442668"><ele>588.0</ele><time>2026-04-03T13:49:29.92Z</time></trkpt><trkpt lat="45.825495609117716" lon="8.134903811241903"><ele>587.0</ele><time>2026-04-03T13:49:30.921Z</time></trkpt><trkpt lat="45.82567167552222" lon="8.13484522850867"><ele>586.0</ele><time>2026-04-03T13:49:31.921Z</time></trkpt><trkpt lat="45.825845506119016" lon="8.13478496251479"><ele>585.0</ele><time>2026-04-03T13:49:32.921Z</time></trkpt><trkpt lat="45.82600881706212" lon="8.134729189596413"><ele>588.0</ele><time>2026-04-03T13:49:33.921Z</time></trkpt><trkpt lat="45.82615455307793" lon="8.13467000198974"><ele>591.0</ele><time>2026-04-03T13:49:34.921Z</time></trkpt><trkpt lat="45.826299636968365" lon="8.134613435241052"><ele>594.0</ele><time>2026-04-03T13:49:35.921Z</time></trkpt><trkpt lat="45.82645084748772" lon="8.134550282182367"><ele>594.0</ele><time>2026-04-03T13:49:36.921Z</time></trkpt><trkpt lat="45.826610988730906" lon="8.134475535860176"><ele>594.0</ele><time>2026-04-03T13:49:37.921Z</time></trkpt><trkpt lat="45.82677759674417" lon="8.134399884217066"><ele>594.0</ele><time>2026-04-03T13:49:38.921Z</time></trkpt><trkpt lat="45.8269507923672" lon="8.134320909234443"><ele>593.3333333333334</ele><time>2026-04-03T13:49:39.921Z</time></trkpt><trkpt lat="45.8271306708906" lon="8.134235458382422"><ele>592.6666666666667</ele><time>2026-04-03T13:49:40.921Z</time></trkpt><trkpt lat="45.82731772717681" lon="8.134140389225163"><ele>592.0</ele><time>2026-04-03T13:49:41.921Z</time></trkpt><trkpt lat="45.827496758570135" lon="8.134015964053207"><ele>598.3333333333334</ele><time>2026-04-03T13:49:42.921Z</time></trkpt><trkpt lat="45.82767375896119" lon="8.133855688628973"><ele>604.6666666666666</ele><time>2026-04-03T13:49:43.921Z</time></trkpt><trkpt lat="45.82783634134363" lon="8.133698525834184"><ele>611.0</ele><time>2026-04-03T13:49:44.921Z</time></trkpt><trkpt lat="45.827994060221634" lon="8.133556942514597"><ele>611.0</ele><time>2026-04-03T13:49:45.921Z</time></trkpt><trkpt lat="45.828158900588946" lon="8.133429123985538"><ele>611.0</ele><time>2026-04-03T13:49:46.921Z</time></trkpt><trkpt lat="45.828321655146944" lon="8.133307401874411"><ele>611.0</ele><time>2026-04-03T13:49:47.921Z</time></trkpt><trkpt lat="45.82847223184024" lon="8.133198429606347"><ele>612.25</ele><time>2026-04-03T13:49:48.921Z</time></trkpt><trkpt lat="45.82861103270628" lon="8.133098841771181"><ele>613.5</ele><time>2026-04-03T13:49:49.921Z</time></trkpt><trkpt lat="45.82873894227651" lon="8.133011923590985"><ele>614.75</ele><time>2026-04-03T13:49:50.921Z</time></trkpt><trkpt lat="45.8288527046318" lon="8.132954189702147"><ele>616.0</ele><time>2026-04-03T13:49:51.921Z</time></trkpt><trkpt lat="45.82894777663133" lon="8.132887704761083"><ele>616.0</ele><time>2026-04-03T13:49:52.921Z</time></trkpt><trkpt lat="45.82900664234797" lon="8.132774576839566"><ele>616.0</ele><time>2026-04-03T13:49:53.921Z</time></trkpt><trkpt lat="45.82904292564992" lon="8.132627242083927"><ele>616.0</ele><time>2026-04-03T13:49:54.921Z</time></trkpt><trkpt lat="45.82908364345994" lon="8.132422796183258"><ele>616.0</ele><time>2026-04-03T13:49:55.921Z</time></trkpt><trkpt lat="45.82914530740796" lon="8.132189563206978"><ele>615.6666666666667</ele><time>2026-04-03T13:49:56.921Z</time></trkpt><trkpt lat="45.82922331263284" lon="8.131931741024319"><ele>615.3333333333334</ele><time>2026-04-03T13:49:57.921Z</time></trkpt><trkpt lat="45.82931454383487" lon="8.13167283290214"><ele>615.0</ele><time>2026-04-03T13:49:58.921Z</time></trkpt><trkpt lat="45.829409683867375" lon="8.131432524582069"><ele>625.0</ele><time>2026-04-03T13:49:59.921Z</time></trkpt><trkpt lat="45.82950284166055" lon="8.131218758056258"><ele>635.0</ele><time>2026-04-03T13:50:00.921Z</time></trkpt><trkpt lat="45.82960104111114" lon="8.131007688291264"><ele>645.0</ele><time>2026-04-03T13:50:01.921Z</time></trkpt><trkpt lat="45.82968008619539" lon="8.130773120810282"><ele>641.6666666666666</ele><time>2026-04-03T13:50:02.921Z</time></trkpt><trkpt lat="45.829745816484234" lon="8.130517872944333"><ele>638.3333333333333</ele><time>2026-04-03T13:50:03.921Z</time></trkpt><trkpt lat="45.829808252007524" lon="8.130259687376018"><ele>635.0</ele><time>2026-04-03T13:50:04.922Z</time></trkpt><trkpt lat="45.82985792635459" lon="8.129992678278175"><ele>633.3333333333333</ele><time>2026-04-03T13:50:05.922Z</time></trkpt><trkpt lat="45.82988677348277" lon="8.129720110701914"><ele>631.6666666666666</ele><time>2026-04-03T13:50:06.922Z</time></trkpt><trkpt lat="45.82990359713916" lon="8.12944134022324"><ele>630.0</ele><time>2026-04-03T13:50:07.921Z</time></trkpt><trkpt lat="45.82992090109349" lon="8.12918043389463"><ele>631.3333333333334</ele><time>2026-04-03T13:50:08.922Z</time></trkpt><trkpt lat="45.82993657968995" lon="8.128941002063007"><ele>632.6666666666667</ele><time>2026-04-03T13:50:09.922Z</time></trkpt><trkpt lat="45.82994719128476" lon="8.128718691662076"><ele>634.0</ele><time>2026-04-03T13:50:10.922Z</time></trkpt><trkpt lat="45.829960005402285" lon="8.128518226644385"><ele>634.0</ele><time>2026-04-03T13:50:11.921Z</time></trkpt><trkpt lat="45.829956647087684" lon="8.128314316074432"><ele>634.0</ele><time>2026-04-03T13:50:12.921Z</time></trkpt><trkpt lat="45.82993456020072" lon="8.128118177578887"><ele>634.0</ele><time>2026-04-03T13:50:13.921Z</time></trkpt><trkpt lat="45.829889807164136" lon="8.127944168661204"><ele>634.0</ele><time>2026-04-03T13:50:14.921Z</time></trkpt><trkpt lat="45.82984433488625" lon="8.127773627985805"><ele>633.75</ele><time>2026-04-03T13:50:15.921Z</time></trkpt><trkpt lat="45.82982544330555" lon="8.12758850948476"><ele>633.5</ele><time>2026-04-03T13:50:16.921Z</time></trkpt><trkpt lat="45.829840410941735" lon="8.127399142408967"><ele>633.25</ele><time>2026-04-03T13:50:17.921Z</time></trkpt><trkpt lat="45.82989206539412" lon="8.12721123044277"><ele>633.0</ele><time>2026-04-03T13:50:18.921Z</time></trkpt><trkpt lat="45.829968188080336" lon="8.127022556614925"><ele>633.3333333333334</ele><time>2026-04-03T13:50:19.921Z</time></trkpt><trkpt lat="45.83002885341048" lon="8.126816050327196"><ele>633.6666666666667</ele><time>2026-04-03T13:50:20.921Z</time></trkpt><trkpt lat="45.830063850538345" lon="8.12658873672123"><ele>634.0</ele><time>2026-04-03T13:50:21.921Z</time></trkpt><trkpt lat="45.83006787904038" lon="8.12635671965985"><ele>634.0</ele><time>2026-04-03T13:50:22.922Z</time></trkpt><trkpt lat="45.830034456278696" lon="8.126124592652856"><ele>634.0</ele><time>2026-04-03T13:50:23.922Z</time></trkpt><trkpt lat="45.82997365412999" lon="8.125892966470513"><ele>634.0</ele><time>2026-04-03T13:50:24.922Z</time></trkpt><trkpt lat="45.829893654011414" lon="8.125668497313827"><ele>633.3333333333334</ele><time>2026-04-03T13:50:25.922Z</time></trkpt><trkpt lat="45.82982857430294" lon="8.12546242397545"><ele>632.6666666666666</ele><time>2026-04-03T13:50:26.922Z</time></trkpt><trkpt lat="45.82977895492536" lon="8.125230077077472"><ele>632.0</ele><time>2026-04-03T13:50:27.922Z</time></trkpt><trkpt lat="45.82974636638942" lon="8.124971802026767"><ele>633.0</ele><time>2026-04-03T13:50:28.922Z</time></trkpt><trkpt lat="45.82973236822949" lon="8.12470915311451"><ele>634.0</ele><time>2026-04-03T13:50:29.922Z</time></trkpt><trkpt lat="45.829746324643246" lon="8.124451433420708"><ele>635.0</ele><time>2026-04-03T13:50:30.922Z</time></trkpt><trkpt lat="45.829798569171906" lon="8.12415599119189"><ele>635.0</ele><time>2026-04-03T13:50:31.922Z</time></trkpt><trkpt lat="45.82986593349746" lon="8.123869658402782"><ele>635.0</ele><time>2026-04-03T13:50:32.922Z</time></trkpt><trkpt lat="45.82989834932722" lon="8.12360854667526"><ele>635.0</ele><time>2026-04-03T13:50:33.922Z</time></trkpt><trkpt lat="45.82990558952374" lon="8.12331067628098"><ele>636.5</ele><time>2026-04-03T13:50:34.922Z</time></trkpt><trkpt lat="45.829875887148" lon="8.122956073793953"><ele>638.0</ele><time>2026-04-03T13:50:35.922Z</time></trkpt><trkpt lat="45.82982921834619" lon="8.12260539185208"><ele>641.6666666666666</ele><time>2026-04-03T13:50:36.922Z</time></trkpt><trkpt lat="45.82979986809667" lon="8.122284873543357"><ele>645.3333333333334</ele><time>2026-04-03T13:50:37.922Z</time></trkpt><trkpt lat="45.829781874991006" lon="8.122004627308222"><ele>649.0</ele><time>2026-04-03T13:50:38.922Z</time></trkpt><trkpt lat="45.82978493041351" lon="8.121748618314871"><ele>647.0</ele><time>2026-04-03T13:50:39.922Z</time></trkpt><trkpt lat="45.829824068334936" lon="8.121473202475714"><ele>645.0</ele><time>2026-04-03T13:50:40.922Z</time></trkpt><trkpt lat="45.829894959844" lon="8.121166488785299"><ele>643.0</ele><time>2026-04-03T13:50:41.922Z</time></trkpt><trkpt lat="45.8299910115858" lon="8.120886592871646"><ele>641.0</ele><time>2026-04-03T13:50:42.922Z</time></trkpt><trkpt lat="45.83006948909104" lon="8.120642678197676"><ele>639.0</ele><time>2026-04-03T13:50:43.922Z</time></trkpt><trkpt lat="45.830118707438714" lon="8.120411945821642"><ele>637.0</ele><time>2026-04-03T13:50:44.922Z</time></trkpt><trkpt lat="45.83013712931292" lon="8.120137641080941"><ele>637.6666666666667</ele><time>2026-04-03T13:50:45.922Z</time></trkpt><trkpt lat="45.83014777231445" lon="8.119886174307823"><ele>638.3333333333334</ele><time>2026-04-03T13:50:46.922Z</time></trkpt><trkpt lat="45.83012153065287" lon="8.119624055417848"><ele>639.0</ele><time>2026-04-03T13:50:47.922Z</time></trkpt><trkpt lat="45.830050363792424" lon="8.119322835738888"><ele>644.5</ele><time>2026-04-03T13:50:48.922Z</time></trkpt><trkpt lat="45.829977399727916" lon="8.118974155688683"><ele>650.0</ele><time>2026-04-03T13:50:49.922Z</time></trkpt><trkpt lat="45.82990802171485" lon="8.118616528190769"><ele>650.0</ele><time>2026-04-03T13:50:50.922Z</time></trkpt><trkpt lat="45.82984992806857" lon="8.118257355038809"><ele>650.0</ele><time>2026-04-03T13:50:51.922Z</time></trkpt><trkpt lat="45.829796891639354" lon="8.117930300753674"><ele>653.0</ele><time>2026-04-03T13:50:52.922Z</time></trkpt><trkpt lat="45.82973635028548" lon="8.1176353855192"><ele>656.0</ele><time>2026-04-03T13:50:53.922Z</time></trkpt><trkpt lat="45.8296724857662" lon="8.117372133627962"><ele>659.0</ele><time>2026-04-03T13:50:54.922Z</time></trkpt><trkpt lat="45.82961118153198" lon="8.117132576162163"><ele>659.0</ele><time>2026-04-03T13:50:55.923Z</time></trkpt><trkpt lat="45.82955891992593" lon="8.11690905959913"><ele>659.0</ele><time>2026-04-03T13:50:56.923Z</time></trkpt><trkpt lat="45.82952298124157" lon="8.116707253864062"><ele>659.0</ele><time>2026-04-03T13:50:57.923Z</time></trkpt><trkpt lat="45.82950967566625" lon="8.11651136354965"><ele>659.0</ele><time>2026-04-03T13:50:58.923Z</time></trkpt><trkpt lat="45.8295308730539" lon="8.116306075090217"><ele>657.75</ele><time>2026-04-03T13:50:59.923Z</time></trkpt><trkpt lat="45.82959310803214" lon="8.116092489004432"><ele>656.5</ele><time>2026-04-03T13:51:00.923Z</time></trkpt><trkpt lat="45.829659044789416" lon="8.115916997660527"><ele>655.25</ele><time>2026-04-03T13:51:01.923Z</time></trkpt><trkpt lat="45.82971977738545" lon="8.11577391572818"><ele>654.0</ele><time>2026-04-03T13:51:02.923Z</time></trkpt><trkpt lat="45.82974696068431" lon="8.115654797233606"><ele>651.2</ele><time>2026-04-03T13:51:03.923Z</time></trkpt><trkpt lat="45.82973017680683" lon="8.115505213092232"><ele>648.4000000000001</ele><time>2026-04-03T13:51:04.923Z</time></trkpt><trkpt lat="45.82970916016927" lon="8.115357453248183"><ele>645.6</ele><time>2026-04-03T13:51:05.923Z</time></trkpt><trkpt lat="45.829710280518306" lon="8.115208151853004"><ele>642.8</ele><time>2026-04-03T13:51:06.923Z</time></trkpt><trkpt lat="45.82976025225474" lon="8.115066404718586"><ele>640.0</ele><time>2026-04-03T13:51:07.923Z</time></trkpt><trkpt lat="45.829849037716485" lon="8.11492756144168"><ele>641.25</ele><time>2026-04-03T13:51:08.923Z</time></trkpt><trkpt lat="45.829945569200724" lon="8.114770485020355"><ele>642.5</ele><time>2026-04-03T13:51:09.923Z</time></trkpt><trkpt lat="45.83004035778832" lon="8.114613171767962"><ele>643.75</ele><time>2026-04-03T13:51:10.923Z</time></trkpt><trkpt lat="45.83012032466065" lon="8.11447893136601"><ele>645.0</ele><time>2026-04-03T13:51:11.923Z</time></trkpt><trkpt lat="45.83019387494001" lon="8.114385998253228"><ele>645.0</ele><time>2026-04-03T13:51:12.923Z</time></trkpt><trkpt lat="45.83029321836789" lon="8.114340213655693"><ele>645.0</ele><time>2026-04-03T13:51:13.923Z</time></trkpt><trkpt lat="45.83040573501713" lon="8.114317280873992"><ele>645.0</ele><time>2026-04-03T13:51:14.923Z</time></trkpt><trkpt lat="45.83049647587357" lon="8.11430676091237"><ele>645.0</ele><time>2026-04-03T13:51:15.923Z</time></trkpt><trkpt lat="45.83057597941607" lon="8.114310247461287"><ele>645.0</ele><time>2026-04-03T13:51:16.923Z</time></trkpt><trkpt lat="45.830660597894095" lon="8.114310782049635"><ele>645.0</ele><time>2026-04-03T13:51:17.923Z</time></trkpt><trkpt lat="45.830712188702826" lon="8.11421205746002"><ele>645.0</ele><time>2026-04-03T13:51:19.923Z</time></trkpt><trkpt lat="45.830678834074" lon="8.114113283581512"><ele>645.0</ele><time>2026-04-03T13:51:21.923Z</time></trkpt><trkpt lat="45.830517292053685" lon="8.1140854325305"><ele>645.0</ele><time>2026-04-03T13:51:23.923Z</time></trkpt><trkpt lat="45.830416355627605" lon="8.114064924763357"><ele>645.0</ele><time>2026-04-03T13:51:24.923Z</time></trkpt><trkpt lat="45.83031739118135" lon="8.114057735841692"><ele>645.0</ele><time>2026-04-03T13:51:25.923Z</time></trkpt><trkpt lat="45.830234428355865" lon="8.114063444207437"><ele>645.0</ele><time>2026-04-03T13:51:26.923Z</time></trkpt><trkpt lat="45.830166055515534" lon="8.114089501012481"><ele>645.0</ele><time>2026-04-03T13:51:27.923Z</time></trkpt><trkpt lat="45.83008303704829" lon="8.114202757256646"><ele>645.0</ele><time>2026-04-03T13:51:29.924Z</time></trkpt><trkpt lat="45.83004671336701" lon="8.114299420820176"><ele>645.0</ele><time>2026-04-03T13:51:30.924Z</time></trkpt><trkpt lat="45.829999010756026" lon="8.114388042016316"><ele>645.0</ele><time>2026-04-03T13:51:31.924Z</time></trkpt><trkpt lat="45.82990297979942" lon="8.114407268849641"><ele>645.0</ele><time>2026-04-03T13:51:33.924Z</time></trkpt><trkpt lat="45.82983602614069" lon="8.114287752014594"><ele>645.0</ele><time>2026-04-03T13:51:35.924Z</time></trkpt><trkpt lat="45.829885309075344" lon="8.114126332871653"><ele>645.0</ele><time>2026-04-03T13:51:37.924Z</time></trkpt><trkpt lat="45.82994517604189" lon="8.114091062315445"><ele>645.0</ele><time>2026-04-03T13:51:38.924Z</time></trkpt><trkpt lat="45.830017487530625" lon="8.114066678665358"><ele>645.0</ele><time>2026-04-03T13:51:39.924Z</time></trkpt><trkpt lat="45.83007960159534" lon="8.114017565129961"><ele>645.0</ele><time>2026-04-03T13:51:40.924Z</time></trkpt><trkpt lat="45.8301253213095" lon="8.113950235631298"><ele>646.2</ele><time>2026-04-03T13:51:41.924Z</time></trkpt><trkpt lat="45.830148101449225" lon="8.113773792557598"><ele>647.4</ele><time>2026-04-03T13:51:43.924Z</time></trkpt><trkpt lat="45.83013930323944" lon="8.113669957788082"><ele>648.5999999999999</ele><time>2026-04-03T13:51:44.924Z</time></trkpt><trkpt lat="45.83010958599027" lon="8.113549452915551"><ele>649.8</ele><time>2026-04-03T13:51:45.924Z</time></trkpt><trkpt lat="45.830086369129894" lon="8.113399477520682"><ele>651.0</ele><time>2026-04-03T13:51:46.924Z</time></trkpt><trkpt lat="45.830090315269295" lon="8.113216072897727"><ele>651.0</ele><time>2026-04-03T13:51:47.924Z</time></trkpt><trkpt lat="45.83010406914893" lon="8.113043333191268"><ele>651.0</ele><time>2026-04-03T13:51:48.924Z</time></trkpt><trkpt lat="45.83011896524805" lon="8.112884557558338"><ele>651.0</ele><time>2026-04-03T13:51:49.924Z</time></trkpt><trkpt lat="45.83012290587958" lon="8.112700285693357"><ele>651.0</ele><time>2026-04-03T13:51:50.924Z</time></trkpt><trkpt lat="45.83012376833309" lon="8.112494403418454"><ele>650.0</ele><time>2026-04-03T13:51:51.924Z</time></trkpt><trkpt lat="45.83012752092276" lon="8.112278765489034"><ele>649.0</ele><time>2026-04-03T13:51:52.924Z</time></trkpt><trkpt lat="45.830133378534605" lon="8.112061963811225"><ele>648.0</ele><time>2026-04-03T13:51:53.924Z</time></trkpt><trkpt lat="45.83014524887522" lon="8.111834709770152"><ele>660.0</ele><time>2026-04-03T13:51:54.924Z</time></trkpt><trkpt lat="45.830175473510366" lon="8.111593318392703"><ele>672.0</ele><time>2026-04-03T13:51:55.924Z</time></trkpt><trkpt lat="45.83020465518656" lon="8.111332226436858"><ele>684.0</ele><time>2026-04-03T13:51:56.924Z</time></trkpt><trkpt lat="45.8302166514372" lon="8.111078307764261"><ele>689.0</ele><time>2026-04-03T13:51:57.924Z</time></trkpt><trkpt lat="45.830210678952014" lon="8.110825473450463"><ele>694.0</ele><time>2026-04-03T13:51:58.924Z</time></trkpt><trkpt lat="45.83018815289128" lon="8.110572144323044"><ele>699.0</ele><time>2026-04-03T13:51:59.924Z</time></trkpt><trkpt lat="45.83013293738345" lon="8.110312768713642"><ele>697.3333333333334</ele><time>2026-04-03T13:52:00.924Z</time></trkpt><trkpt lat="45.83004585189357" lon="8.11005946539971"><ele>695.6666666666667</ele><time>2026-04-03T13:52:01.924Z</time></trkpt><trkpt lat="45.82994104099951" lon="8.109816342602844"><ele>694.0</ele><time>2026-04-03T13:52:02.925Z</time></trkpt><trkpt lat="45.82987321042532" lon="8.109580602598884"><ele>694.0</ele><time>2026-04-03T13:52:03.925Z</time></trkpt><trkpt lat="45.82980623880262" lon="8.109364003880643"><ele>694.0</ele><time>2026-04-03T13:52:04.925Z</time></trkpt><trkpt lat="45.829741807369125" lon="8.109167857634608"><ele>694.0</ele><time>2026-04-03T13:52:05.925Z</time></trkpt><trkpt lat="45.82966759172189" lon="8.108979003122297"><ele>687.6666666666667</ele><time>2026-04-03T13:52:06.925Z</time></trkpt><trkpt lat="45.829553643743466" lon="8.108808054245705"><ele>681.3333333333334</ele><time>2026-04-03T13:52:07.926Z</time></trkpt><trkpt lat="45.829406253689946" lon="8.108644686182663"><ele>675.0</ele><time>2026-04-03T13:52:08.925Z</time></trkpt><trkpt lat="45.82927731433743" lon="8.108487279376199"><ele>675.0</ele><time>2026-04-03T13:52:09.925Z</time></trkpt><trkpt lat="45.82916525709315" lon="8.108334834260507"><ele>675.0</ele><time>2026-04-03T13:52:10.926Z</time></trkpt><trkpt lat="45.82906335522375" lon="8.108191874877885"><ele>675.0</ele><time>2026-04-03T13:52:11.926Z</time></trkpt><trkpt lat="45.828969860783374" lon="8.10803777428978"><ele>675.0</ele><time>2026-04-03T13:52:12.926Z</time></trkpt><trkpt lat="45.82889153596837" lon="8.107863388517758"><ele>682.3333333333334</ele><time>2026-04-03T13:52:13.926Z</time></trkpt><trkpt lat="45.82883045145907" lon="8.107655038092437"><ele>689.6666666666667</ele><time>2026-04-03T13:52:14.926Z</time></trkpt><trkpt lat="45.82877211502291" lon="8.107434987996779"><ele>697.0</ele><time>2026-04-03T13:52:15.926Z</time></trkpt><trkpt lat="45.828723092090065" lon="8.107197649706688"><ele>701.3333333333334</ele><time>2026-04-03T13:52:16.926Z</time></trkpt><trkpt lat="45.82869750619011" lon="8.106935365128798"><ele>705.6666666666666</ele><time>2026-04-03T13:52:17.926Z</time></trkpt><trkpt lat="45.82867392609775" lon="8.10666234185223"><ele>710.0</ele><time>2026-04-03T13:52:18.926Z</time></trkpt><trkpt lat="45.828625163856316" lon="8.106389025661494"><ele>716.0</ele><time>2026-04-03T13:52:19.926Z</time></trkpt><trkpt lat="45.82856110560373" lon="8.106098291396659"><ele>722.0</ele><time>2026-04-03T13:52:20.927Z</time></trkpt><trkpt lat="45.828502005254485" lon="8.105828643736656"><ele>728.0</ele><time>2026-04-03T13:52:21.927Z</time></trkpt><trkpt lat="45.82845730910011" lon="8.105612767248013"><ele>731.6666666666666</ele><time>2026-04-03T13:52:22.927Z</time></trkpt><trkpt lat="45.828436299445656" lon="8.10541708779779"><ele>735.3333333333334</ele><time>2026-04-03T13:52:23.927Z</time></trkpt><trkpt lat="45.82844957342234" lon="8.105204574053262"><ele>739.0</ele><time>2026-04-03T13:52:24.927Z</time></trkpt><trkpt lat="45.82848990704683" lon="8.104971098298698"><ele>746.0</ele><time>2026-04-03T13:52:25.927Z</time></trkpt><trkpt lat="45.82853509966395" lon="8.104753746556348"><ele>753.0</ele><time>2026-04-03T13:52:26.927Z</time></trkpt><trkpt lat="45.8285564278929" lon="8.104527399258682"><ele>760.0</ele><time>2026-04-03T13:52:27.927Z</time></trkpt><trkpt lat="45.82855037641367" lon="8.1042575612702"><ele>757.6666666666667</ele><time>2026-04-03T13:52:28.927Z</time></trkpt><trkpt lat="45.82853193002792" lon="8.103956388025786"><ele>755.3333333333334</ele><time>2026-04-03T13:52:29.927Z</time></trkpt><trkpt lat="45.82851845957796" lon="8.103690924893861"><ele>753.0</ele><time>2026-04-03T13:52:30.927Z</time></trkpt><trkpt lat="45.82851691486658" lon="8.103460040606901"><ele>748.6666666666666</ele><time>2026-04-03T13:52:31.927Z</time></trkpt><trkpt lat="45.828516311798325" lon="8.10323379485201"><ele>744.3333333333333</ele><time>2026-04-03T13:52:32.927Z</time></trkpt><trkpt lat="45.8284814723361" lon="8.102998753608391"><ele>740.0</ele><time>2026-04-03T13:52:33.927Z</time></trkpt><trkpt lat="45.82847353788738" lon="8.102753751211235"><ele>740.0</ele><time>2026-04-03T13:52:34.927Z</time></trkpt><trkpt lat="45.828492874693715" lon="8.102474389682675"><ele>740.0</ele><time>2026-04-03T13:52:35.927Z</time></trkpt><trkpt lat="45.82853449542056" lon="8.102186747205401"><ele>740.0</ele><time>2026-04-03T13:52:36.927Z</time></trkpt><trkpt lat="45.82857923256826" lon="8.10189211252918"><ele>740.6666666666666</ele><time>2026-04-03T13:52:37.927Z</time></trkpt><trkpt lat="45.828618722932475" lon="8.10161566975293"><ele>741.3333333333334</ele><time>2026-04-03T13:52:38.927Z</time></trkpt><trkpt lat="45.82865391222235" lon="8.10137685203172"><ele>742.0</ele><time>2026-04-03T13:52:39.927Z</time></trkpt><trkpt lat="45.82869367946362" lon="8.101166394086643"><ele>740.25</ele><time>2026-04-03T13:52:40.927Z</time></trkpt><trkpt lat="45.828734897319656" lon="8.100972402749985"><ele>738.5</ele><time>2026-04-03T13:52:41.927Z</time></trkpt><trkpt lat="45.82879188760138" lon="8.100803269074621"><ele>736.75</ele><time>2026-04-03T13:52:42.927Z</time></trkpt><trkpt lat="45.82887007441835" lon="8.100650318574363"><ele>735.0</ele><time>2026-04-03T13:52:43.927Z</time></trkpt><trkpt lat="45.82896514385411" lon="8.10050455552939"><ele>732.4</ele><time>2026-04-03T13:52:44.927Z</time></trkpt><trkpt lat="45.829059814011586" lon="8.100383784814117"><ele>729.8</ele><time>2026-04-03T13:52:45.927Z</time></trkpt><trkpt lat="45.829143648967914" lon="8.100283545629031"><ele>727.2</ele><time>2026-04-03T13:52:46.928Z</time></trkpt><trkpt lat="45.82921225307112" lon="8.100183574075917"><ele>724.6</ele><time>2026-04-03T13:52:47.928Z</time></trkpt><trkpt lat="45.8292564341199" lon="8.100050330328216"><ele>722.0</ele><time>2026-04-03T13:52:48.928Z</time></trkpt><trkpt lat="45.82927857160429" lon="8.099884450717193"><ele>719.5</ele><time>2026-04-03T13:52:49.928Z</time></trkpt><trkpt lat="45.829290629358205" lon="8.099690974609898"><ele>717.0</ele><time>2026-04-03T13:52:50.928Z</time></trkpt><trkpt lat="45.829322537776946" lon="8.099501954509696"><ele>714.5</ele><time>2026-04-03T13:52:51.928Z</time></trkpt><trkpt lat="45.82939748264311" lon="8.09931911991671"><ele>712.0</ele><time>2026-04-03T13:52:52.928Z</time></trkpt><trkpt lat="45.82949331947396" lon="8.099149729228827"><ele>724.5</ele><time>2026-04-03T13:52:53.928Z</time></trkpt><trkpt lat="45.82957011652273" lon="8.098988488404364"><ele>737.0</ele><time>2026-04-03T13:52:54.928Z</time></trkpt><trkpt lat="45.82961438204146" lon="8.098814500892377"><ele>749.5</ele><time>2026-04-03T13:52:55.928Z</time></trkpt><trkpt lat="45.82965744978193" lon="8.098612449268606"><ele>762.0</ele><time>2026-04-03T13:52:56.928Z</time></trkpt><trkpt lat="45.829688953971285" lon="8.098377595052078"><ele>760.0</ele><time>2026-04-03T13:52:57.928Z</time></trkpt><trkpt lat="45.82971794497225" lon="8.098137147631222"><ele>758.0</ele><time>2026-04-03T13:52:58.928Z</time></trkpt><trkpt lat="45.82974695103144" lon="8.097909570456451"><ele>756.0</ele><time>2026-04-03T13:52:59.928Z</time></trkpt><trkpt lat="45.829789991035895" lon="8.097716483168508"><ele>756.0</ele><time>2026-04-03T13:53:00.928Z</time></trkpt><trkpt lat="45.829826313917266" lon="8.09753562317094"><ele>756.0</ele><time>2026-04-03T13:53:01.928Z</time></trkpt><trkpt lat="45.82983368852263" lon="8.09734094714409"><ele>756.0</ele><time>2026-04-03T13:53:02.928Z</time></trkpt><trkpt lat="45.82981662337034" lon="8.097136627501603"><ele>756.0</ele><time>2026-04-03T13:53:03.928Z</time></trkpt><trkpt lat="45.829782965911164" lon="8.096956762771468"><ele>756.25</ele><time>2026-04-03T13:53:04.928Z</time></trkpt><trkpt lat="45.829733370505174" lon="8.096793566560914"><ele>756.5</ele><time>2026-04-03T13:53:05.928Z</time></trkpt><trkpt lat="45.82966916633518" lon="8.096646542943882"><ele>756.75</ele><time>2026-04-03T13:53:06.928Z</time></trkpt><trkpt lat="45.82961433914733" lon="8.09648112913481"><ele>757.0</ele><time>2026-04-03T13:53:07.928Z</time></trkpt><trkpt lat="45.82957909232865" lon="8.096299300663246"><ele>757.0</ele><time>2026-04-03T13:53:08.928Z</time></trkpt><trkpt lat="45.82956906561897" lon="8.096137212025887"><ele>757.0</ele><time>2026-04-03T13:53:09.928Z</time></trkpt><trkpt lat="45.82960188562526" lon="8.09598581728819"><ele>757.0</ele><time>2026-04-03T13:53:10.928Z</time></trkpt><trkpt lat="45.82968476899039" lon="8.09581859716903"><ele>757.0</ele><time>2026-04-03T13:53:11.928Z</time></trkpt><trkpt lat="45.829763263924065" lon="8.09562916081321"><ele>752.0</ele><time>2026-04-03T13:53:12.928Z</time></trkpt><trkpt lat="45.82983769561635" lon="8.095458146184331"><ele>747.0</ele><time>2026-04-03T13:53:13.928Z</time></trkpt><trkpt lat="45.82992052749143" lon="8.09532524262731"><ele>742.0</ele><time>2026-04-03T13:53:14.928Z</time></trkpt><trkpt lat="45.83003734678159" lon="8.095211875615181"><ele>737.0</ele><time>2026-04-03T13:53:15.928Z</time></trkpt><trkpt lat="45.830178067529154" lon="8.095114148256673"><ele>745.0</ele><time>2026-04-03T13:53:16.928Z</time></trkpt><trkpt lat="45.83031250483333" lon="8.095008193052687"><ele>753.0</ele><time>2026-04-03T13:53:17.928Z</time></trkpt><trkpt lat="45.83043200669188" lon="8.094899070923036"><ele>761.0</ele><time>2026-04-03T13:53:18.928Z</time></trkpt><trkpt lat="45.830536713792455" lon="8.094767950191494"><ele>769.0</ele><time>2026-04-03T13:53:19.928Z</time></trkpt><trkpt lat="45.83061572548483" lon="8.094591968675664"><ele>769.0</ele><time>2026-04-03T13:53:20.929Z</time></trkpt><trkpt lat="45.8306840544561" lon="8.094381003876"><ele>769.0</ele><time>2026-04-03T13:53:21.929Z</time></trkpt><trkpt lat="45.83077559637612" lon="8.094166300609393"><ele>769.0</ele><time>2026-04-03T13:53:22.929Z</time></trkpt><trkpt lat="45.830892655673004" lon="8.093972868422883"><ele>781.6666666666666</ele><time>2026-04-03T13:53:23.929Z</time></trkpt><trkpt lat="45.83100010032106" lon="8.093806574607084"><ele>794.3333333333333</ele><time>2026-04-03T13:53:24.929Z</time></trkpt><trkpt lat="45.831082488073186" lon="8.093638261095377"><ele>807.0</ele><time>2026-04-03T13:53:25.929Z</time></trkpt><trkpt lat="45.83114097633197" lon="8.093439692564816"><ele>804.0</ele><time>2026-04-03T13:53:26.929Z</time></trkpt><trkpt lat="45.83117555632758" lon="8.093223950468735"><ele>801.0</ele><time>2026-04-03T13:53:27.929Z</time></trkpt><trkpt lat="45.83118250577481" lon="8.092990372047199"><ele>798.0</ele><time>2026-04-03T13:53:28.929Z</time></trkpt><trkpt lat="45.83118164697312" lon="8.092766503252921"><ele>798.0</ele><time>2026-04-03T13:53:29.929Z</time></trkpt><trkpt lat="45.83118145772929" lon="8.092568969167438"><ele>798.0</ele><time>2026-04-03T13:53:30.929Z</time></trkpt><trkpt lat="45.83118216592662" lon="8.092390198694691"><ele>798.0</ele><time>2026-04-03T13:53:31.929Z</time></trkpt><trkpt lat="45.831198819199955" lon="8.092240693207827"><ele>798.0</ele><time>2026-04-03T13:53:32.929Z</time></trkpt><trkpt lat="45.83123032010081" lon="8.092110324322245"><ele>793.5</ele><time>2026-04-03T13:53:33.929Z</time></trkpt><trkpt lat="45.83128721323665" lon="8.09198554351289"><ele>789.0</ele><time>2026-04-03T13:53:34.929Z</time></trkpt><trkpt lat="45.83136762608564" lon="8.091867928106856"><ele>784.5</ele><time>2026-04-03T13:53:35.929Z</time></trkpt><trkpt lat="45.83145301969655" lon="8.09173372482143"><ele>780.0</ele><time>2026-04-03T13:53:36.929Z</time></trkpt><trkpt lat="45.83154474247608" lon="8.09159200435769"><ele>775.6666666666666</ele><time>2026-04-03T13:53:37.929Z</time></trkpt><trkpt lat="45.831639526275346" lon="8.091441769282238"><ele>771.3333333333333</ele><time>2026-04-03T13:53:38.929Z</time></trkpt><trkpt lat="45.83174285194827" lon="8.091281227976692"><ele>767.0</ele><time>2026-04-03T13:53:39.929Z</time></trkpt><trkpt lat="45.83184907281527" lon="8.09111042143385"><ele>772.6666666666666</ele><time>2026-04-03T13:53:40.929Z</time></trkpt><trkpt lat="45.831957784543555" lon="8.090931333973895"><ele>778.3333333333333</ele><time>2026-04-03T13:53:41.929Z</time></trkpt><trkpt lat="45.83207085422273" lon="8.090744372705744"><ele>784.0</ele><time>2026-04-03T13:53:42.929Z</time></trkpt><trkpt lat="45.832184670018485" lon="8.090550944517712"><ele>784.0</ele><time>2026-04-03T13:53:43.929Z</time></trkpt><trkpt lat="45.83230353568162" lon="8.0903458671832"><ele>784.0</ele><time>2026-04-03T13:53:44.929Z</time></trkpt><trkpt lat="45.83242747289768" lon="8.090126411007942"><ele>784.0</ele><time>2026-04-03T13:53:45.929Z</time></trkpt><trkpt lat="45.832561373132044" lon="8.089891140516896"><ele>793.6666666666666</ele><time>2026-04-03T13:53:46.929Z</time></trkpt><trkpt lat="45.83269710410634" lon="8.089644174863597"><ele>803.3333333333333</ele><time>2026-04-03T13:53:47.929Z</time></trkpt><trkpt lat="45.83282204279609" lon="8.089408286569792"><ele>813.0</ele><time>2026-04-03T13:53:48.929Z</time></trkpt><trkpt lat="45.83294866537155" lon="8.089162301710855"><ele>807.6666666666667</ele><time>2026-04-03T13:53:49.929Z</time></trkpt><trkpt lat="45.83306689787034" lon="8.08890089356151"><ele>802.3333333333334</ele><time>2026-04-03T13:53:50.929Z</time></trkpt><trkpt lat="45.8331740728607" lon="8.088639055430129"><ele>797.0</ele><time>2026-04-03T13:53:51.929Z</time></trkpt><trkpt lat="45.83326927424759" lon="8.088383975039582"><ele>792.3333333333334</ele><time>2026-04-03T13:53:52.929Z</time></trkpt><trkpt lat="45.83334983999625" lon="8.088152599356235"><ele>787.6666666666667</ele><time>2026-04-03T13:53:53.93Z</time></trkpt><trkpt lat="45.833426869127386" lon="8.087945153917763"><ele>783.0</ele><time>2026-04-03T13:53:54.93Z</time></trkpt><trkpt lat="45.83349911274441" lon="8.087754135694404"><ele>783.0</ele><time>2026-04-03T13:53:55.93Z</time></trkpt><trkpt lat="45.83357638971038" lon="8.087594582251581"><ele>783.0</ele><time>2026-04-03T13:53:56.93Z</time></trkpt><trkpt lat="45.83365495307107" lon="8.087466988397187"><ele>783.0</ele><time>2026-04-03T13:53:57.93Z</time></trkpt><trkpt lat="45.83373438213479" lon="8.087377282392524"><ele>783.0</ele><time>2026-04-03T13:53:58.93Z</time></trkpt><trkpt lat="45.833819222670016" lon="8.08733163950061"><ele>783.0</ele><time>2026-04-03T13:53:59.93Z</time></trkpt><trkpt lat="45.83390270833521" lon="8.08734170926108"><ele>783.0</ele><time>2026-04-03T13:54:00.93Z</time></trkpt><trkpt lat="45.83399694621767" lon="8.087406283603492"><ele>783.0</ele><time>2026-04-03T13:54:01.93Z</time></trkpt><trkpt lat="45.83410448293053" lon="8.087487023677362"><ele>783.0</ele><time>2026-04-03T13:54:02.93Z</time></trkpt><trkpt lat="45.83420332214819" lon="8.087543408525761"><ele>783.0</ele><time>2026-04-03T13:54:03.93Z</time></trkpt><trkpt lat="45.834288740225425" lon="8.087587335547596"><ele>783.0</ele><time>2026-04-03T13:54:04.93Z</time></trkpt><trkpt lat="45.83436253103675" lon="8.087672063130254"><ele>775.2</ele><time>2026-04-03T13:54:05.93Z</time></trkpt><trkpt lat="45.83443350953856" lon="8.08779607974681"><ele>767.4</ele><time>2026-04-03T13:54:06.93Z</time></trkpt><trkpt lat="45.83450242571595" lon="8.08790908634645"><ele>759.6</ele><time>2026-04-03T13:54:07.93Z</time></trkpt><trkpt lat="45.834562607675934" lon="8.088023150964702"><ele>751.8000000000001</ele><time>2026-04-03T13:54:08.93Z</time></trkpt><trkpt lat="45.834592788963526" lon="8.088139944084151"><ele>744.0</ele><time>2026-04-03T13:54:09.93Z</time></trkpt><trkpt lat="45.834631702096885" lon="8.088230625759236"><ele>762.0</ele><time>2026-04-03T13:54:10.93Z</time></trkpt><trkpt lat="45.83469157763799" lon="8.088299968684034"><ele>780.0</ele><time>2026-04-03T13:54:11.93Z</time></trkpt><trkpt lat="45.8347806746953" lon="8.088339718821247"><ele>798.0</ele><time>2026-04-03T13:54:12.93Z</time></trkpt><trkpt lat="45.83488782627928" lon="8.0883505954693"><ele>816.0</ele><time>2026-04-03T13:54:13.931Z</time></trkpt><trkpt lat="45.83500544680381" lon="8.088351568236902"><ele>834.0</ele><time>2026-04-03T13:54:14.931Z</time></trkpt><trkpt lat="45.83511229811178" lon="8.08837639748794"><ele>831.1666666666666</ele><time>2026-04-03T13:54:15.931Z</time></trkpt><trkpt lat="45.835209427794176" lon="8.088417007030365"><ele>828.3333333333333</ele><time>2026-04-03T13:54:16.931Z</time></trkpt><trkpt lat="45.83528601736647" lon="8.088441936635839"><ele>825.5</ele><time>2026-04-03T13:54:17.931Z</time></trkpt><trkpt lat="45.83536104968807" lon="8.088418631978666"><ele>822.6666666666666</ele><time>2026-04-03T13:54:18.931Z</time></trkpt><trkpt lat="45.83544810089504" lon="8.088373623009957"><ele>819.8333333333333</ele><time>2026-04-03T13:54:19.931Z</time></trkpt><trkpt lat="45.835527372542714" lon="8.088345247465218"><ele>817.0</ele><time>2026-04-03T13:54:20.931Z</time></trkpt><trkpt lat="45.835595465532165" lon="8.088341571552569"><ele>816.9999999999999</ele><time>2026-04-03T13:54:21.931Z</time></trkpt><trkpt lat="45.83565868465132" lon="8.088368486178481"><ele>817.0</ele><time>2026-04-03T13:54:22.931Z</time></trkpt><trkpt lat="45.8357225773404" lon="8.088430593027963"><ele>817.0</ele><time>2026-04-03T13:54:23.931Z</time></trkpt><trkpt lat="45.83583471806847" lon="8.088467837285028"><ele>817.0</ele><time>2026-04-03T13:54:25.931Z</time></trkpt><trkpt lat="45.83589128153522" lon="8.088425231767893"><ele>816.9999999999999</ele><time>2026-04-03T13:54:26.932Z</time></trkpt><trkpt lat="45.83594788593935" lon="8.088351855920418"><ele>817.0</ele><time>2026-04-03T13:54:27.932Z</time></trkpt><trkpt lat="45.835990524830905" lon="8.088265400618589"><ele>810.2857142857142</ele><time>2026-04-03T13:54:28.932Z</time></trkpt><trkpt lat="45.83603440935428" lon="8.088187325646551"><ele>803.5714285714286</ele><time>2026-04-03T13:54:29.932Z</time></trkpt><trkpt lat="45.83609194686489" lon="8.088141080468656"><ele>796.8571428571429</ele><time>2026-04-03T13:54:30.932Z</time></trkpt><trkpt lat="45.83615917049478" lon="8.088140756868217"><ele>790.1428571428571</ele><time>2026-04-03T13:54:31.932Z</time></trkpt><trkpt lat="45.83623272235806" lon="8.088167582882848"><ele>783.4285714285714</ele><time>2026-04-03T13:54:32.932Z</time></trkpt><trkpt lat="45.83631328538668" lon="8.088218497676351"><ele>776.7142857142857</ele><time>2026-04-03T13:54:33.932Z</time></trkpt><trkpt lat="45.83639325356016" lon="8.088216620606918"><ele>770.0</ele><time>2026-04-03T13:54:34.932Z</time></trkpt><trkpt lat="45.836482635849286" lon="8.0882082324386"><ele>770.0</ele><time>2026-04-03T13:54:35.932Z</time></trkpt><trkpt lat="45.836569622831185" lon="8.088161426833214"><ele>770.0</ele><time>2026-04-03T13:54:36.932Z</time></trkpt><trkpt lat="45.83665963182173" lon="8.08807861855289"><ele>770.0</ele><time>2026-04-03T13:54:37.932Z</time></trkpt><trkpt lat="45.83676750879086" lon="8.087991554056345"><ele>770.0</ele><time>2026-04-03T13:54:38.932Z</time></trkpt><trkpt lat="45.83687950077473" lon="8.087918814119442"><ele>770.0</ele><time>2026-04-03T13:54:39.932Z</time></trkpt><trkpt lat="45.83700266744769" lon="8.087853734874832"><ele>773.25</ele><time>2026-04-03T13:54:40.932Z</time></trkpt><trkpt lat="45.837144515456224" lon="8.087782642771227"><ele>776.5</ele><time>2026-04-03T13:54:41.932Z</time></trkpt><trkpt lat="45.837258330257214" lon="8.087727129143413"><ele>779.75</ele><time>2026-04-03T13:54:42.932Z</time></trkpt><trkpt lat="45.83737287256411" lon="8.087726937065604"><ele>783.0</ele><time>2026-04-03T13:54:43.932Z</time></trkpt><trkpt lat="45.83748873111956" lon="8.087762912691405"><ele>783.0</ele><time>2026-04-03T13:54:44.932Z</time></trkpt><trkpt lat="45.83759952646341" lon="8.087818438514844"><ele>783.0</ele><time>2026-04-03T13:54:45.932Z</time></trkpt><trkpt lat="45.837704769265756" lon="8.08783403195709"><ele>783.0</ele><time>2026-04-03T13:54:46.932Z</time></trkpt><trkpt lat="45.837822149875" lon="8.08779020640447"><ele>783.0</ele><time>2026-04-03T13:54:47.932Z</time></trkpt><trkpt lat="45.83794734896385" lon="8.087727951793065"><ele>786.2</ele><time>2026-04-03T13:54:48.932Z</time></trkpt><trkpt lat="45.83807262031002" lon="8.087653957622551"><ele>789.4</ele><time>2026-04-03T13:54:49.932Z</time></trkpt><trkpt lat="45.838175631528514" lon="8.087585224289016"><ele>792.6</ele><time>2026-04-03T13:54:50.932Z</time></trkpt><trkpt lat="45.83824953168787" lon="8.0874917715531"><ele>795.8000000000001</ele><time>2026-04-03T13:54:51.932Z</time></trkpt><trkpt lat="45.83829474682705" lon="8.087371565245132"><ele>799.0</ele><time>2026-04-03T13:54:52.932Z</time></trkpt><trkpt lat="45.838307464508816" lon="8.087214174767617"><ele>799.0</ele><time>2026-04-03T13:54:53.932Z</time></trkpt><trkpt lat="45.83828839628368" lon="8.087062553732734"><ele>799.0</ele><time>2026-04-03T13:54:54.932Z</time></trkpt><trkpt lat="45.83824003856652" lon="8.086895780240885"><ele>799.0</ele><time>2026-04-03T13:54:55.932Z</time></trkpt><trkpt lat="45.83817907788889" lon="8.086733074536097"><ele>799.0</ele><time>2026-04-03T13:54:56.932Z</time></trkpt><trkpt lat="45.83813123263134" lon="8.086583428239669"><ele>797.0</ele><time>2026-04-03T13:54:57.932Z</time></trkpt><trkpt lat="45.838120764415265" lon="8.086458158991306"><ele>795.0</ele><time>2026-04-03T13:54:58.932Z</time></trkpt><trkpt lat="45.8381465166431" lon="8.086338210440646"><ele>793.0</ele><time>2026-04-03T13:54:59.933Z</time></trkpt><trkpt lat="45.83820335666405" lon="8.086203528255304"><ele>791.0</ele><time>2026-04-03T13:55:00.933Z</time></trkpt><trkpt lat="45.83829428800481" lon="8.086056814185676"><ele>789.0</ele><time>2026-04-03T13:55:01.933Z</time></trkpt><trkpt lat="45.83838897851173" lon="8.085922982262264"><ele>792.4000000000001</ele><time>2026-04-03T13:55:02.933Z</time></trkpt><trkpt lat="45.838473369070606" lon="8.085801662202394"><ele>795.8</ele><time>2026-04-03T13:55:03.933Z</time></trkpt><trkpt lat="45.83853971122455" lon="8.085682917430868"><ele>799.2</ele><time>2026-04-03T13:55:04.933Z</time></trkpt><trkpt lat="45.83857413599501" lon="8.085551847032399"><ele>802.5999999999999</ele><time>2026-04-03T13:55:05.933Z</time></trkpt><trkpt lat="45.83857061443251" lon="8.085393969190248"><ele>806.0</ele><time>2026-04-03T13:55:06.933Z</time></trkpt><trkpt lat="45.83854348572128" lon="8.08523042417331"><ele>806.1999999999999</ele><time>2026-04-03T13:55:07.933Z</time></trkpt><trkpt lat="45.838514731208925" lon="8.085058725910683"><ele>806.4</ele><time>2026-04-03T13:55:08.933Z</time></trkpt><trkpt lat="45.83849546157168" lon="8.08490534986485"><ele>806.6</ele><time>2026-04-03T13:55:09.933Z</time></trkpt><trkpt lat="45.838488758615405" lon="8.084751060125862"><ele>806.8</ele><time>2026-04-03T13:55:10.933Z</time></trkpt><trkpt lat="45.83850213838262" lon="8.084603495609842"><ele>807.0</ele><time>2026-04-03T13:55:11.933Z</time></trkpt><trkpt lat="45.838542528604364" lon="8.084471679904581"><ele>804.8</ele><time>2026-04-03T13:55:12.933Z</time></trkpt><trkpt lat="45.83859957519446" lon="8.08435750908028"><ele>802.6</ele><time>2026-04-03T13:55:13.933Z</time></trkpt><trkpt lat="45.838670265259765" lon="8.08427872276444"><ele>800.4</ele><time>2026-04-03T13:55:14.933Z</time></trkpt><trkpt lat="45.83874883402718" lon="8.084255080401654"><ele>798.1999999999999</ele><time>2026-04-03T13:55:15.933Z</time></trkpt><trkpt lat="45.83884324751665" lon="8.084249440747481"><ele>796.0</ele><time>2026-04-03T13:55:16.933Z</time></trkpt><trkpt lat="45.83895560209881" lon="8.084264886074777"><ele>796.0</ele><time>2026-04-03T13:55:17.933Z</time></trkpt><trkpt lat="45.839083279742546" lon="8.084287824889387"><ele>796.0</ele><time>2026-04-03T13:55:18.933Z</time></trkpt><trkpt lat="45.83920828399633" lon="8.084309490880694"><ele>796.0</ele><time>2026-04-03T13:55:19.933Z</time></trkpt><trkpt lat="45.839324660293286" lon="8.08431428772497"><ele>796.0</ele><time>2026-04-03T13:55:20.933Z</time></trkpt><trkpt lat="45.839441835217364" lon="8.084287129652767"><ele>793.0</ele><time>2026-04-03T13:55:21.933Z</time></trkpt><trkpt lat="45.83955855129448" lon="8.084217656748805"><ele>790.0</ele><time>2026-04-03T13:55:22.933Z</time></trkpt><trkpt lat="45.83968267477855" lon="8.084118387316785"><ele>787.0</ele><time>2026-04-03T13:55:23.933Z</time></trkpt><trkpt lat="45.839814577140096" lon="8.084004978562968"><ele>784.0</ele><time>2026-04-03T13:55:24.933Z</time></trkpt><trkpt lat="45.83994432355685" lon="8.083873161403861"><ele>784.0</ele><time>2026-04-03T13:55:25.933Z</time></trkpt><trkpt lat="45.84005646177695" lon="8.083714892927647"><ele>784.0</ele><time>2026-04-03T13:55:26.933Z</time></trkpt><trkpt lat="45.840154842136066" lon="8.083542014405234"><ele>784.0</ele><time>2026-04-03T13:55:27.933Z</time></trkpt><trkpt lat="45.84023780134719" lon="8.083387693637318"><ele>784.0</ele><time>2026-04-03T13:55:28.933Z</time></trkpt><trkpt lat="45.840310632496006" lon="8.083247374844632"><ele>784.25</ele><time>2026-04-03T13:55:29.933Z</time></trkpt><trkpt lat="45.8403713697504" lon="8.083135428524857"><ele>784.5</ele><time>2026-04-03T13:55:30.933Z</time></trkpt><trkpt lat="45.84044562342424" lon="8.083043308567472"><ele>784.75</ele><time>2026-04-03T13:55:31.933Z</time></trkpt><trkpt lat="45.84056029602092" lon="8.082955764000907"><ele>785.0</ele><time>2026-04-03T13:55:32.933Z</time></trkpt><trkpt lat="45.84066714606098" lon="8.082865293905853"><ele>785.0</ele><time>2026-04-03T13:55:33.934Z</time></trkpt><trkpt lat="45.84075473085633" lon="8.082800677696065"><ele>785.0</ele><time>2026-04-03T13:55:34.934Z</time></trkpt><trkpt lat="45.84083276211716" lon="8.082753302298153"><ele>785.0</ele><time>2026-04-03T13:55:35.934Z</time></trkpt><trkpt lat="45.840898808747454" lon="8.082648667427557"><ele>785.0</ele><time>2026-04-03T13:55:36.934Z</time></trkpt><trkpt lat="45.84095847766837" lon="8.082518588368456"><ele>785.0</ele><time>2026-04-03T13:55:37.934Z</time></trkpt><trkpt lat="45.84099713706942" lon="8.082361154940829"><ele>788.0</ele><time>2026-04-03T13:55:38.934Z</time></trkpt><trkpt lat="45.841007257146934" lon="8.082187819185975"><ele>791.0</ele><time>2026-04-03T13:55:39.934Z</time></trkpt><trkpt lat="45.841012615002015" lon="8.082009732042005"><ele>794.0</ele><time>2026-04-03T13:55:40.934Z</time></trkpt><trkpt lat="45.840999969735975" lon="8.081833336318555"><ele>797.0</ele><time>2026-04-03T13:55:41.934Z</time></trkpt><trkpt lat="45.84094772011911" lon="8.081666125326421"><ele>799.6</ele><time>2026-04-03T13:55:42.934Z</time></trkpt><trkpt lat="45.84087865168411" lon="8.081523776652455"><ele>802.2</ele><time>2026-04-03T13:55:43.934Z</time></trkpt><trkpt lat="45.84081257589734" lon="8.081393119762676"><ele>804.8</ele><time>2026-04-03T13:55:44.934Z</time></trkpt><trkpt lat="45.840768669220985" lon="8.081260949397123"><ele>807.4</ele><time>2026-04-03T13:55:45.934Z</time></trkpt><trkpt lat="45.84075152368531" lon="8.081107008585914"><ele>810.0</ele><time>2026-04-03T13:55:46.934Z</time></trkpt><trkpt lat="45.840734408511004" lon="8.080929585790164"><ele>810.0</ele><time>2026-04-03T13:55:47.934Z</time></trkpt><trkpt lat="45.84069897103715" lon="8.080787083689435"><ele>810.0</ele><time>2026-04-03T13:55:48.934Z</time></trkpt><trkpt lat="45.84067384901488" lon="8.080672469618671"><ele>810.0</ele><time>2026-04-03T13:55:49.934Z</time></trkpt><trkpt lat="45.84069169893391" lon="8.080560498420407"><ele>810.0</ele><time>2026-04-03T13:55:50.934Z</time></trkpt><trkpt lat="45.840755828186744" lon="8.080434482437923"><ele>810.0</ele><time>2026-04-03T13:55:51.934Z</time></trkpt><trkpt lat="45.840852453659224" lon="8.08027099255338"><ele>811.3333333333333</ele><time>2026-04-03T13:55:52.934Z</time></trkpt><trkpt lat="45.840945157220375" lon="8.080074125330817"><ele>812.6666666666666</ele><time>2026-04-03T13:55:53.934Z</time></trkpt><trkpt lat="45.84104603254597" lon="8.079888452303928"><ele>814.0</ele><time>2026-04-03T13:55:54.934Z</time></trkpt><trkpt lat="45.84113120332933" lon="8.079661114938002"><ele>814.0</ele><time>2026-04-03T13:55:55.934Z</time></trkpt><trkpt lat="45.84121264639098" lon="8.079411792407694"><ele>814.0</ele><time>2026-04-03T13:55:56.934Z</time></trkpt><trkpt lat="45.84128399669654" lon="8.079159528341648"><ele>814.0</ele><time>2026-04-03T13:55:57.934Z</time></trkpt><trkpt lat="45.84134487003957" lon="8.078927637130294"><ele>805.0</ele><time>2026-04-03T13:55:58.934Z</time></trkpt><trkpt lat="45.841402781317846" lon="8.078722494482493"><ele>796.0</ele><time>2026-04-03T13:55:59.934Z</time></trkpt><trkpt lat="45.841474385151685" lon="8.07853564677447"><ele>787.0</ele><time>2026-04-03T13:56:00.934Z</time></trkpt><trkpt lat="45.84157392778893" lon="8.078369249325226"><ele>786.6666666666666</ele><time>2026-04-03T13:56:01.934Z</time></trkpt><trkpt lat="45.84171389784249" lon="8.078213657384588"><ele>786.3333333333333</ele><time>2026-04-03T13:56:02.934Z</time></trkpt><trkpt lat="45.841863245342964" lon="8.078039709958777"><ele>786.0</ele><time>2026-04-03T13:56:03.934Z</time></trkpt><trkpt lat="45.84201031762236" lon="8.077864509902659"><ele>786.0</ele><time>2026-04-03T13:56:04.934Z</time></trkpt><trkpt lat="45.842144010506786" lon="8.07771814495315"><ele>786.0</ele><time>2026-04-03T13:56:05.934Z</time></trkpt><trkpt lat="45.842263781264975" lon="8.077591298322472"><ele>786.0</ele><time>2026-04-03T13:56:06.935Z</time></trkpt><trkpt lat="45.84238029997561" lon="8.077479364518773"><ele>784.75</ele><time>2026-04-03T13:56:07.935Z</time></trkpt><trkpt lat="45.84246086110532" lon="8.077357070409905"><ele>783.5</ele><time>2026-04-03T13:56:08.935Z</time></trkpt><trkpt lat="45.84250865201515" lon="8.077199694883062"><ele>782.25</ele><time>2026-04-03T13:56:09.935Z</time></trkpt><trkpt lat="45.84252816761247" lon="8.077016884300656"><ele>781.0</ele><time>2026-04-03T13:56:10.935Z</time></trkpt><trkpt lat="45.84253508809937" lon="8.076808855445734"><ele>783.75</ele><time>2026-04-03T13:56:11.935Z</time></trkpt><trkpt lat="45.84255996741852" lon="8.076594152146729"><ele>786.5</ele><time>2026-04-03T13:56:12.935Z</time></trkpt><trkpt lat="45.84259135429712" lon="8.076393477402643"><ele>789.25</ele><time>2026-04-03T13:56:13.935Z</time></trkpt><trkpt lat="45.84260650378327" lon="8.076224506112188"><ele>792.0</ele><time>2026-04-03T13:56:14.935Z</time></trkpt><trkpt lat="45.84259558462356" lon="8.076057878651289"><ele>792.0</ele><time>2026-04-03T13:56:15.935Z</time></trkpt><trkpt lat="45.84256335248665" lon="8.075894282005049"><ele>792.0</ele><time>2026-04-03T13:56:16.935Z</time></trkpt><trkpt lat="45.842511272377045" lon="8.075729076774124"><ele>792.0</ele><time>2026-04-03T13:56:17.935Z</time></trkpt><trkpt lat="45.84243279115975" lon="8.075564605197833"><ele>792.0</ele><time>2026-04-03T13:56:18.935Z</time></trkpt><trkpt lat="45.84233511827998" lon="8.075388921265008"><ele>797.0</ele><time>2026-04-03T13:56:19.936Z</time></trkpt><trkpt lat="45.842229011163646" lon="8.075207948211164"><ele>802.0</ele><time>2026-04-03T13:56:20.936Z</time></trkpt><trkpt lat="45.842138841974304" lon="8.075013629055245"><ele>807.0</ele><time>2026-04-03T13:56:21.936Z</time></trkpt><trkpt lat="45.842054325991334" lon="8.074829626886869"><ele>809.25</ele><time>2026-04-03T13:56:22.936Z</time></trkpt><trkpt lat="45.841967954052244" lon="8.074683751661118"><ele>811.5</ele><time>2026-04-03T13:56:23.936Z</time></trkpt><trkpt lat="45.841885733385126" lon="8.074535438576943"><ele>813.75</ele><time>2026-04-03T13:56:24.936Z</time></trkpt><trkpt lat="45.84182222362513" lon="8.074346893353063"><ele>816.0</ele><time>2026-04-03T13:56:25.936Z</time></trkpt><trkpt lat="45.84176954020361" lon="8.07412568022246"><ele>812.0</ele><time>2026-04-03T13:56:26.937Z</time></trkpt><trkpt lat="45.8417216049332" lon="8.073855237919576"><ele>808.0</ele><time>2026-04-03T13:56:27.937Z</time></trkpt><trkpt lat="45.841675049410576" lon="8.073573905840725"><ele>804.0</ele><time>2026-04-03T13:56:28.937Z</time></trkpt><trkpt lat="45.841624869431925" lon="8.073286842849052"><ele>804.25</ele><time>2026-04-03T13:56:29.936Z</time></trkpt><trkpt lat="45.84157522445758" lon="8.073042882591801"><ele>804.5</ele><time>2026-04-03T13:56:30.936Z</time></trkpt><trkpt lat="45.84152888717562" lon="8.072842367815937"><ele>804.75</ele><time>2026-04-03T13:56:31.937Z</time></trkpt><trkpt lat="45.84149226726087" lon="8.072696576021137"><ele>805.0</ele><time>2026-04-03T13:56:32.937Z</time></trkpt><trkpt lat="45.841489544929395" lon="8.072551740844998"><ele>802.5</ele><time>2026-04-03T13:56:33.937Z</time></trkpt><trkpt lat="45.841514156338654" lon="8.072412240299991"><ele>800.0</ele><time>2026-04-03T13:56:34.937Z</time></trkpt><trkpt lat="45.84157389762227" lon="8.072279577097643"><ele>797.5</ele><time>2026-04-03T13:56:35.937Z</time></trkpt><trkpt lat="45.841668212952754" lon="8.072166874994814"><ele>795.0</ele><time>2026-04-03T13:56:36.937Z</time></trkpt><trkpt lat="45.84177819212176" lon="8.072043255659214"><ele>798.5</ele><time>2026-04-03T13:56:37.937Z</time></trkpt><trkpt lat="45.84189091942837" lon="8.071910748785422"><ele>802.0</ele><time>2026-04-03T13:56:38.937Z</time></trkpt><trkpt lat="45.84199045408138" lon="8.071801975776538"><ele>805.5</ele><time>2026-04-03T13:56:39.937Z</time></trkpt><trkpt lat="45.842097355040146" lon="8.071720798780738"><ele>809.0</ele><time>2026-04-03T13:56:40.937Z</time></trkpt><trkpt lat="45.84221387411263" lon="8.071676901888017"><ele>809.0</ele><time>2026-04-03T13:56:41.937Z</time></trkpt><trkpt lat="45.8423542760375" lon="8.071670800466503"><ele>809.0</ele><time>2026-04-03T13:56:42.937Z</time></trkpt><trkpt lat="45.84250214024464" lon="8.07165428254484"><ele>809.0</ele><time>2026-04-03T13:56:43.937Z</time></trkpt><trkpt lat="45.842655486400005" lon="8.071634436362217"><ele>809.0</ele><time>2026-04-03T13:56:44.937Z</time></trkpt><trkpt lat="45.84282468934752" lon="8.071599997087691"><ele>811.0</ele><time>2026-04-03T13:56:45.938Z</time></trkpt><trkpt lat="45.84299752574294" lon="8.071531908182639"><ele>813.0</ele><time>2026-04-03T13:56:46.938Z</time></trkpt><trkpt lat="45.84316614258108" lon="8.071448013981772"><ele>815.0</ele><time>2026-04-03T13:56:47.938Z</time></trkpt><trkpt lat="45.84331836324961" lon="8.071338842030343"><ele>815.0</ele><time>2026-04-03T13:56:48.938Z</time></trkpt><trkpt lat="45.84346112881602" lon="8.071197053507666"><ele>815.0</ele><time>2026-04-03T13:56:49.938Z</time></trkpt><trkpt lat="45.8435908278604" lon="8.071018717895344"><ele>815.0</ele><time>2026-04-03T13:56:50.938Z</time></trkpt><trkpt lat="45.84371589018086" lon="8.070821988039118"><ele>820.0</ele><time>2026-04-03T13:56:51.938Z</time></trkpt><trkpt lat="45.84383754222105" lon="8.070623561986967"><ele>825.0</ele><time>2026-04-03T13:56:52.938Z</time></trkpt><trkpt lat="45.84394468197084" lon="8.070410699000448"><ele>830.0</ele><time>2026-04-03T13:56:53.938Z</time></trkpt><trkpt lat="45.84403121527653" lon="8.07017466425253"><ele>826.0</ele><time>2026-04-03T13:56:54.938Z</time></trkpt><trkpt lat="45.844097321411915" lon="8.06991761201029"><ele>822.0</ele><time>2026-04-03T13:56:55.938Z</time></trkpt><trkpt lat="45.844164518028485" lon="8.06965104280909"><ele>818.0</ele><time>2026-04-03T13:56:56.938Z</time></trkpt><trkpt lat="45.844222973409735" lon="8.06935877544952"><ele>819.6666666666667</ele><time>2026-04-03T13:56:57.938Z</time></trkpt><trkpt lat="45.84426860248369" lon="8.06905426405625"><ele>821.3333333333333</ele><time>2026-04-03T13:56:58.938Z</time></trkpt><trkpt lat="45.84430269670659" lon="8.06874943073706"><ele>823.0</ele><time>2026-04-03T13:56:59.938Z</time></trkpt><trkpt lat="45.84430847295265" lon="8.068444741038938"><ele>830.0</ele><time>2026-04-03T13:57:00.938Z</time></trkpt><trkpt lat="45.84430621215528" lon="8.068205011361906"><ele>837.0</ele><time>2026-04-03T13:57:01.938Z</time></trkpt><trkpt lat="45.84431357533308" lon="8.068030000143327"><ele>844.0</ele><time>2026-04-03T13:57:02.938Z</time></trkpt><trkpt lat="45.8443456427498" lon="8.067882104180438"><ele>851.0</ele><time>2026-04-03T13:57:03.938Z</time></trkpt><trkpt lat="45.844411122190024" lon="8.06773833484085"><ele>851.0</ele><time>2026-04-03T13:57:04.938Z</time></trkpt><trkpt lat="45.84451576069316" lon="8.067583390045645"><ele>851.0</ele><time>2026-04-03T13:57:05.938Z</time></trkpt><trkpt lat="45.844646076732765" lon="8.067429101484473"><ele>851.0</ele><time>2026-04-03T13:57:06.938Z</time></trkpt><trkpt lat="45.84476809339027" lon="8.06726482438997"><ele>846.6666666666667</ele><time>2026-04-03T13:57:07.938Z</time></trkpt><trkpt lat="45.844886179998205" lon="8.067049403717764"><ele>842.3333333333333</ele><time>2026-04-03T13:57:08.938Z</time></trkpt><trkpt lat="45.84499548831362" lon="8.066809996104126"><ele>838.0</ele><time>2026-04-03T13:57:09.938Z</time></trkpt><trkpt lat="45.845114056639325" lon="8.066599004569609"><ele>837.75</ele><time>2026-04-03T13:57:10.938Z</time></trkpt><trkpt lat="45.845217960077186" lon="8.066433056796576"><ele>837.5</ele><time>2026-04-03T13:57:11.938Z</time></trkpt><trkpt lat="45.84529712946602" lon="8.066307246058095"><ele>837.25</ele><time>2026-04-03T13:57:12.938Z</time></trkpt><trkpt lat="45.84539802636095" lon="8.066208661712341"><ele>837.0</ele><time>2026-04-03T13:57:13.938Z</time></trkpt><trkpt lat="45.845531369160774" lon="8.06613049542333"><ele>837.0</ele><time>2026-04-03T13:57:14.938Z</time></trkpt><trkpt lat="45.84567506132197" lon="8.066045533939132"><ele>837.0</ele><time>2026-04-03T13:57:15.938Z</time></trkpt><trkpt lat="45.84578998100536" lon="8.065960316676051"><ele>837.0</ele><time>2026-04-03T13:57:16.938Z</time></trkpt><trkpt lat="45.84590416567346" lon="8.065916818781975"><ele>837.0</ele><time>2026-04-03T13:57:17.938Z</time></trkpt><trkpt lat="45.846024035394485" lon="8.065904117477583"><ele>840.25</ele><time>2026-04-03T13:57:18.938Z</time></trkpt><trkpt lat="45.84615325452563" lon="8.065930609058602"><ele>843.5</ele><time>2026-04-03T13:57:19.939Z</time></trkpt><trkpt lat="45.84626892101114" lon="8.065979182460204"><ele>846.75</ele><time>2026-04-03T13:57:20.939Z</time></trkpt><trkpt lat="45.84638427674345" lon="8.066064023022758"><ele>850.0</ele><time>2026-04-03T13:57:21.939Z</time></trkpt><trkpt lat="45.84650581438935" lon="8.066179937266769"><ele>850.0</ele><time>2026-04-03T13:57:22.939Z</time></trkpt><trkpt lat="45.846635871450786" lon="8.066286427413484"><ele>850.0</ele><time>2026-04-03T13:57:23.939Z</time></trkpt><trkpt lat="45.84679398990466" lon="8.066374226663326"><ele>850.0</ele><time>2026-04-03T13:57:24.939Z</time></trkpt><trkpt lat="45.84697897460887" lon="8.066424985197775"><ele>856.0</ele><time>2026-04-03T13:57:25.939Z</time></trkpt><trkpt lat="45.84718988056359" lon="8.066470265453454"><ele>862.0</ele><time>2026-04-03T13:57:26.939Z</time></trkpt><trkpt lat="45.84744131873645" lon="8.066523865223164"><ele>866.5</ele><time>2026-04-03T13:57:27.939Z</time></trkpt><trkpt lat="45.8477000648957" lon="8.066582561650806"><ele>871.0</ele><time>2026-04-03T13:57:28.939Z</time></trkpt><trkpt lat="45.84794521365893" lon="8.06665346791974"><ele>859.5</ele><time>2026-04-03T13:57:29.939Z</time></trkpt><trkpt lat="45.84818450376056" lon="8.066741115926966"><ele>848.0</ele><time>2026-04-03T13:57:30.939Z</time></trkpt><trkpt lat="45.84839779858" lon="8.066828912466415"><ele>846.3333333333334</ele><time>2026-04-03T13:57:31.939Z</time></trkpt><trkpt lat="45.84860337865172" lon="8.066901506513432"><ele>844.6666666666667</ele><time>2026-04-03T13:57:32.939Z</time></trkpt><trkpt lat="45.84881957507321" lon="8.066944359202518"><ele>843.0</ele><time>2026-04-03T13:57:33.939Z</time></trkpt><trkpt lat="45.8490368803193" lon="8.06695951177022"><ele>843.0</ele><time>2026-04-03T13:57:34.939Z</time></trkpt><trkpt lat="45.84925223480448" lon="8.066976415921449"><ele>843.0</ele><time>2026-04-03T13:57:35.939Z</time></trkpt><trkpt lat="45.84944541134029" lon="8.066976863193299"><ele>843.0</ele><time>2026-04-03T13:57:36.939Z</time></trkpt><trkpt lat="45.849610614325826" lon="8.066968951034434"><ele>844.0</ele><time>2026-04-03T13:57:37.939Z</time></trkpt><trkpt lat="45.84976760028704" lon="8.066925159283171"><ele>845.0</ele><time>2026-04-03T13:57:38.939Z</time></trkpt><trkpt lat="45.849938317394916" lon="8.066816812214931"><ele>846.0</ele><time>2026-04-03T13:57:39.939Z</time></trkpt><trkpt lat="45.85009688546557" lon="8.066693146394817"><ele>846.6666666666667</ele><time>2026-04-03T13:57:40.939Z</time></trkpt><trkpt lat="45.85025238495317" lon="8.066550627263185"><ele>847.3333333333334</ele><time>2026-04-03T13:57:41.939Z</time></trkpt><trkpt lat="45.85039683649972" lon="8.06636857436502"><ele>848.0</ele><time>2026-04-03T13:57:42.939Z</time></trkpt><trkpt lat="45.850548347220624" lon="8.066188861007324"><ele>848.0</ele><time>2026-04-03T13:57:43.939Z</time></trkpt><trkpt lat="45.850680960499524" lon="8.066050297955796"><ele>848.0</ele><time>2026-04-03T13:57:44.939Z</time></trkpt><trkpt lat="45.850786872682775" lon="8.065915701275856"><ele>848.0</ele><time>2026-04-03T13:57:45.939Z</time></trkpt><trkpt lat="45.85089566299114" lon="8.06580273755567"><ele>848.0</ele><time>2026-04-03T13:57:46.939Z</time></trkpt><trkpt lat="45.85102785651787" lon="8.065700152795316"><ele>849.3333333333334</ele><time>2026-04-03T13:57:47.939Z</time></trkpt><trkpt lat="45.8511736744694" lon="8.065617422991046"><ele>850.6666666666667</ele><time>2026-04-03T13:57:48.939Z</time></trkpt><trkpt lat="45.85130608646828" lon="8.0655277661335"><ele>852.0</ele><time>2026-04-03T13:57:49.939Z</time></trkpt><trkpt lat="45.8514198155175" lon="8.065394769961536"><ele>852.0</ele><time>2026-04-03T13:57:50.939Z</time></trkpt><trkpt lat="45.85152503825062" lon="8.065222438855313"><ele>852.0</ele><time>2026-04-03T13:57:51.939Z</time></trkpt><trkpt lat="45.85162583125225" lon="8.065020702767818"><ele>852.0</ele><time>2026-04-03T13:57:52.94Z</time></trkpt><trkpt lat="45.851736051694076" lon="8.064844948269297"><ele>853.75</ele><time>2026-04-03T13:57:53.94Z</time></trkpt><trkpt lat="45.85184831670088" lon="8.064697700241092"><ele>855.5</ele><time>2026-04-03T13:57:54.94Z</time></trkpt><trkpt lat="45.85196247366727" lon="8.064587789599624"><ele>857.25</ele><time>2026-04-03T13:57:55.94Z</time></trkpt><trkpt lat="45.852090147184846" lon="8.064512469062201"><ele>859.0</ele><time>2026-04-03T13:57:56.94Z</time></trkpt><trkpt lat="45.852217559257596" lon="8.064474561947803"><ele>859.0</ele><time>2026-04-03T13:57:57.94Z</time></trkpt><trkpt lat="45.852326300140625" lon="8.064467333736028"><ele>859.0000000000001</ele><time>2026-04-03T13:57:58.94Z</time></trkpt><trkpt lat="45.852424888357056" lon="8.064492855847945"><ele>859.0000000000001</ele><time>2026-04-03T13:57:59.94Z</time></trkpt><trkpt lat="45.85252361731984" lon="8.064571136356202"><ele>859.0</ele><time>2026-04-03T13:58:00.94Z</time></trkpt><trkpt lat="45.85262113838042" lon="8.064667033051112"><ele>859.0</ele><time>2026-04-03T13:58:01.94Z</time></trkpt><trkpt lat="45.85273601793792" lon="8.064757877884817"><ele>859.3333333333333</ele><time>2026-04-03T13:58:02.94Z</time></trkpt><trkpt lat="45.852869287325895" lon="8.06481019262919"><ele>859.6666666666667</ele><time>2026-04-03T13:58:03.94Z</time></trkpt><trkpt lat="45.85302905757602" lon="8.064834950018192"><ele>860.0</ele><time>2026-04-03T13:58:04.94Z</time></trkpt><trkpt lat="45.853203526951695" lon="8.064847806097807"><ele>860.0</ele><time>2026-04-03T13:58:05.94Z</time></trkpt><trkpt lat="45.85339216366989" lon="8.064858524553532"><ele>860.0</ele><time>2026-04-03T13:58:06.94Z</time></trkpt><trkpt lat="45.85356710353658" lon="8.064874749235926"><ele>860.0</ele><time>2026-04-03T13:58:07.94Z</time></trkpt><trkpt lat="45.853726828832826" lon="8.064897317755396"><ele>861.4</ele><time>2026-04-03T13:58:08.94Z</time></trkpt><trkpt lat="45.85385491143369" lon="8.064919191157784"><ele>862.8</ele><time>2026-04-03T13:58:09.94Z</time></trkpt><trkpt lat="45.85395988693415" lon="8.06493392007935"><ele>864.2</ele><time>2026-04-03T13:58:10.94Z</time></trkpt><trkpt lat="45.854051664102926" lon="8.064916582291458"><ele>865.6</ele><time>2026-04-03T13:58:11.94Z</time></trkpt><trkpt lat="45.85413605244298" lon="8.064876528188067"><ele>867.0</ele><time>2026-04-03T13:58:12.94Z</time></trkpt><trkpt lat="45.854225462262896" lon="8.064805774629782"><ele>872.2</ele><time>2026-04-03T13:58:13.94Z</time></trkpt><trkpt lat="45.854302850762004" lon="8.06470256626795"><ele>877.4000000000001</ele><time>2026-04-03T13:58:14.94Z</time></trkpt><trkpt lat="45.854359703831705" lon="8.06458497912006"><ele>882.5999999999999</ele><time>2026-04-03T13:58:15.94Z</time></trkpt><trkpt lat="45.85437382737021" lon="8.064433875548334"><ele>887.8</ele><time>2026-04-03T13:58:16.94Z</time></trkpt><trkpt lat="45.85435805544733" lon="8.064269874678729"><ele>893.0</ele><time>2026-04-03T13:58:17.94Z</time></trkpt><trkpt lat="45.8543296359039" lon="8.064119020154829"><ele>893.5999999999999</ele><time>2026-04-03T13:58:18.94Z</time></trkpt><trkpt lat="45.85426923049178" lon="8.063990218886007"><ele>894.1999999999999</ele><time>2026-04-03T13:58:19.94Z</time></trkpt><trkpt lat="45.854191886194734" lon="8.063885877330517"><ele>894.8</ele><time>2026-04-03T13:58:20.94Z</time></trkpt><trkpt lat="45.85410863420234" lon="8.063804416113731"><ele>895.4</ele><time>2026-04-03T13:58:21.94Z</time></trkpt><trkpt lat="45.854033921021774" lon="8.063741130881777"><ele>896.0</ele><time>2026-04-03T13:58:22.94Z</time></trkpt><trkpt lat="45.853964406008416" lon="8.063706978285603"><ele>896.0</ele><time>2026-04-03T13:58:23.94Z</time></trkpt><trkpt lat="45.853876009032085" lon="8.063664614154105"><ele>895.9999999999999</ele><time>2026-04-03T13:58:25.941Z</time></trkpt><trkpt lat="45.8538920839143" lon="8.063548025397836"><ele>895.9999999999999</ele><time>2026-04-03T13:58:27.942Z</time></trkpt><trkpt lat="45.85400238494687" lon="8.06353797686677"><ele>896.0</ele><time>2026-04-03T13:58:29.941Z</time></trkpt><trkpt lat="45.85408396730734" lon="8.063624418915898"><ele>896.0</ele><time>2026-04-03T13:58:30.941Z</time></trkpt><trkpt lat="45.85419232349981" lon="8.063735787782736"><ele>895.25</ele><time>2026-04-03T13:58:31.942Z</time></trkpt><trkpt lat="45.854291076168884" lon="8.063833329111963"><ele>894.5</ele><time>2026-04-03T13:58:32.942Z</time></trkpt><trkpt lat="45.85437583280354" lon="8.06396042407048"><ele>893.75</ele><time>2026-04-03T13:58:33.942Z</time></trkpt><trkpt lat="45.85443984569091" lon="8.064114998047042"><ele>893.0</ele><time>2026-04-03T13:58:34.942Z</time></trkpt><trkpt lat="45.854470585344025" lon="8.064252547949858"><ele>893.0</ele><time>2026-04-03T13:58:35.942Z</time></trkpt><trkpt lat="45.85448136742554" lon="8.064385603000085"><ele>893.0</ele><time>2026-04-03T13:58:36.942Z</time></trkpt><trkpt lat="45.85452835990014" lon="8.064518331861711"><ele>893.0</ele><time>2026-04-03T13:58:37.942Z</time></trkpt><trkpt lat="45.854592524311535" lon="8.064626012175564"><ele>893.0</ele><time>2026-04-03T13:58:38.942Z</time></trkpt><trkpt lat="45.85466095530873" lon="8.064691377566456"><ele>893.0</ele><time>2026-04-03T13:58:39.942Z</time></trkpt><trkpt lat="45.85474594713182" lon="8.064712142478147"><ele>893.0</ele><time>2026-04-03T13:58:40.942Z</time></trkpt><trkpt lat="45.85484410310458" lon="8.064697052893708"><ele>893.0</ele><time>2026-04-03T13:58:41.942Z</time></trkpt><trkpt lat="45.85494886353086" lon="8.064637053435693"><ele>893.0</ele><time>2026-04-03T13:58:42.942Z</time></trkpt><trkpt lat="45.85504779394915" lon="8.064556092904734"><ele>893.0</ele><time>2026-04-03T13:58:43.942Z</time></trkpt><trkpt lat="45.85513679194783" lon="8.064469448430035"><ele>893.0</ele><time>2026-04-03T13:58:44.942Z</time></trkpt><trkpt lat="45.855214140392256" lon="8.064365540563522"><ele>891.8</ele><time>2026-04-03T13:58:45.942Z</time></trkpt><trkpt lat="45.85525293581257" lon="8.064263163431452"><ele>890.5999999999999</ele><time>2026-04-03T13:58:46.942Z</time></trkpt><trkpt lat="45.855256100899666" lon="8.064083829192404"><ele>889.4000000000001</ele><time>2026-04-03T13:58:48.942Z</time></trkpt><trkpt lat="45.85522898635472" lon="8.063963945559898"><ele>888.2</ele><time>2026-04-03T13:58:49.942Z</time></trkpt><trkpt lat="45.855232517502465" lon="8.063826394878959"><ele>887.0</ele><time>2026-04-03T13:58:50.943Z</time></trkpt><trkpt lat="45.85527720543459" lon="8.063669690554816"><ele>894.0</ele><time>2026-04-03T13:58:51.943Z</time></trkpt><trkpt lat="45.85534627385748" lon="8.06352104274385"><ele>901.0</ele><time>2026-04-03T13:58:52.943Z</time></trkpt><trkpt lat="45.85543343033028" lon="8.063390944551886"><ele>908.0</ele><time>2026-04-03T13:58:53.943Z</time></trkpt><trkpt lat="45.85554203045402" lon="8.063292983315279"><ele>915.0</ele><time>2026-04-03T13:58:54.943Z</time></trkpt><trkpt lat="45.855658899121316" lon="8.063219962312424"><ele>917.75</ele><time>2026-04-03T13:58:55.943Z</time></trkpt><trkpt lat="45.85578996487641" lon="8.06316923452919"><ele>920.5</ele><time>2026-04-03T13:58:56.943Z</time></trkpt><trkpt lat="45.85593939230315" lon="8.063134365478232"><ele>923.25</ele><time>2026-04-03T13:58:57.943Z</time></trkpt><trkpt lat="45.856081223926154" lon="8.063109837256633"><ele>926.0</ele><time>2026-04-03T13:58:58.943Z</time></trkpt><trkpt lat="45.856212938074265" lon="8.063093949565848"><ele>926.0</ele><time>2026-04-03T13:58:59.943Z</time></trkpt><trkpt lat="45.856332807210315" lon="8.063105332018118"><ele>926.0</ele><time>2026-04-03T13:59:00.943Z</time></trkpt><trkpt lat="45.85644132210756" lon="8.063154383851595"><ele>926.0</ele><time>2026-04-03T13:59:01.943Z</time></trkpt><trkpt lat="45.85655113760618" lon="8.063198662561604"><ele>926.0</ele><time>2026-04-03T13:59:02.943Z</time></trkpt><trkpt lat="45.85666410389949" lon="8.063228148514614"><ele>926.0</ele><time>2026-04-03T13:59:03.943Z</time></trkpt><trkpt lat="45.85677147137152" lon="8.063219401571141"><ele>926.0</ele><time>2026-04-03T13:59:04.943Z</time></trkpt><trkpt lat="45.85688760191365" lon="8.06317450536913"><ele>926.0</ele><time>2026-04-03T13:59:05.943Z</time></trkpt><trkpt lat="45.85702226531932" lon="8.063124423016706"><ele>926.0</ele><time>2026-04-03T13:59:06.943Z</time></trkpt><trkpt lat="45.85716233250301" lon="8.063076093417834"><ele>924.0</ele><time>2026-04-03T13:59:07.943Z</time></trkpt><trkpt lat="45.85729874476724" lon="8.063027058024797"><ele>922.0</ele><time>2026-04-03T13:59:08.943Z</time></trkpt><trkpt lat="45.85744052641086" lon="8.063003944697645"><ele>920.0</ele><time>2026-04-03T13:59:09.943Z</time></trkpt><trkpt lat="45.857573465274946" lon="8.062989694563418"><ele>918.0</ele><time>2026-04-03T13:59:10.943Z</time></trkpt><trkpt lat="45.85770671935622" lon="8.06299445711687"><ele>917.0</ele><time>2026-04-03T13:59:11.943Z</time></trkpt><trkpt lat="45.857846353956035" lon="8.062994260790191"><ele>916.0</ele><time>2026-04-03T13:59:12.943Z</time></trkpt><trkpt lat="45.85797489796637" lon="8.062982320002392"><ele>915.0</ele><time>2026-04-03T13:59:13.943Z</time></trkpt><trkpt lat="45.85808725653772" lon="8.062967564520855"><ele>914.0</ele><time>2026-04-03T13:59:14.943Z</time></trkpt><trkpt lat="45.85818281319646" lon="8.06294655462264"><ele>914.0000000000001</ele><time>2026-04-03T13:59:15.943Z</time></trkpt><trkpt lat="45.85826976463078" lon="8.062916561354626"><ele>914.0</ele><time>2026-04-03T13:59:16.943Z</time></trkpt><trkpt lat="45.85835832075757" lon="8.062906351390751"><ele>914.0</ele><time>2026-04-03T13:59:17.943Z</time></trkpt><trkpt lat="45.85843849633706" lon="8.062918570174766"><ele>914.0</ele><time>2026-04-03T13:59:18.943Z</time></trkpt><trkpt lat="45.85850464752231" lon="8.062935875783944"><ele>914.0000000000001</ele><time>2026-04-03T13:59:19.943Z</time></trkpt><trkpt lat="45.85856471420646" lon="8.062966056986259"><ele>914.0</ele><time>2026-04-03T13:59:20.943Z</time></trkpt><trkpt lat="45.858648067872494" lon="8.06298356742807"><ele>912.0</ele><time>2026-04-03T13:59:22.943Z</time></trkpt><trkpt lat="45.8587195980284" lon="8.062953894275175"><ele>910.0000000000001</ele><time>2026-04-03T13:59:23.943Z</time></trkpt><trkpt lat="45.85880889529536" lon="8.062907142166967"><ele>908.0000000000001</ele><time>2026-04-03T13:59:24.944Z</time></trkpt><trkpt lat="45.8589039141208" lon="8.06285158735304"><ele>906.0</ele><time>2026-04-03T13:59:25.944Z</time></trkpt><trkpt lat="45.85900661985217" lon="8.062793429986726"><ele>904.0</ele><time>2026-04-03T13:59:26.944Z</time></trkpt><trkpt lat="45.85911555002559" lon="8.062719062184769"><ele>904.0</ele><time>2026-04-03T13:59:27.944Z</time></trkpt><trkpt lat="45.85919655567461" lon="8.062622541114353"><ele>904.0000000000001</ele><time>2026-04-03T13:59:28.944Z</time></trkpt><trkpt lat="45.85924965271935" lon="8.062524892146168"><ele>904.0000000000001</ele><time>2026-04-03T13:59:29.944Z</time></trkpt><trkpt lat="45.859278623717316" lon="8.062440073560115"><ele>904.0</ele><time>2026-04-03T13:59:30.944Z</time></trkpt><trkpt lat="45.8593063322425" lon="8.062322252672935"><ele>904.0</ele><time>2026-04-03T13:59:32.944Z</time></trkpt><trkpt lat="45.85930278011909" lon="8.062154796517563"><ele>906.2</ele><time>2026-04-03T13:59:34.944Z</time></trkpt><trkpt lat="45.859311253565835" lon="8.062015651262334"><ele>908.4000000000001</ele><time>2026-04-03T13:59:35.944Z</time></trkpt><trkpt lat="45.85931592651012" lon="8.06187251827182"><ele>910.6</ele><time>2026-04-03T13:59:36.944Z</time></trkpt><trkpt lat="45.859312025902454" lon="8.061749142140469"><ele>912.8</ele><time>2026-04-03T13:59:37.944Z</time></trkpt><trkpt lat="45.8593075119767" lon="8.061623713802488"><ele>915.0</ele><time>2026-04-03T13:59:38.944Z</time></trkpt><trkpt lat="45.85931976410896" lon="8.061511262395554"><ele>915.0</ele><time>2026-04-03T13:59:39.944Z</time></trkpt><trkpt lat="45.859341866465414" lon="8.061389096355303"><ele>915.0</ele><time>2026-04-03T13:59:40.944Z</time></trkpt><trkpt lat="45.85938426733719" lon="8.061258570580819"><ele>915.0</ele><time>2026-04-03T13:59:41.944Z</time></trkpt><trkpt lat="45.859462863910835" lon="8.0611249796695"><ele>915.0</ele><time>2026-04-03T13:59:42.944Z</time></trkpt><trkpt lat="45.859559394681206" lon="8.060990150932522"><ele>915.0</ele><time>2026-04-03T13:59:43.944Z</time></trkpt><trkpt lat="45.85967700596394" lon="8.060838655473894"><ele>914.5</ele><time>2026-04-03T13:59:44.944Z</time></trkpt><trkpt lat="45.859796442586074" lon="8.060694409419215"><ele>914.0</ele><time>2026-04-03T13:59:45.944Z</time></trkpt><trkpt lat="45.85990781938978" lon="8.060561223153638"><ele>913.5</ele><time>2026-04-03T13:59:46.944Z</time></trkpt><trkpt lat="45.86001922031549" lon="8.060447907216984"><ele>913.0</ele><time>2026-04-03T13:59:47.944Z</time></trkpt><trkpt lat="45.86014760142376" lon="8.060339734857646"><ele>913.0</ele><time>2026-04-03T13:59:48.944Z</time></trkpt><trkpt lat="45.8602534815235" lon="8.060220579619164"><ele>913.0</ele><time>2026-04-03T13:59:49.944Z</time></trkpt><trkpt lat="45.860354416340094" lon="8.06007719621078"><ele>913.0</ele><time>2026-04-03T13:59:50.944Z</time></trkpt><trkpt lat="45.86045446949164" lon="8.059967229833802"><ele>913.0</ele><time>2026-04-03T13:59:51.944Z</time></trkpt><trkpt lat="45.86055943080706" lon="8.059885454021899"><ele>914.4</ele><time>2026-04-03T13:59:52.944Z</time></trkpt><trkpt lat="45.86064939350297" lon="8.059811106906318"><ele>915.8</ele><time>2026-04-03T13:59:53.944Z</time></trkpt><trkpt lat="45.86069245225197" lon="8.05971127892952"><ele>917.2</ele><time>2026-04-03T13:59:54.944Z</time></trkpt><trkpt lat="45.86071729654897" lon="8.059561798409057"><ele>918.6</ele><time>2026-04-03T13:59:55.944Z</time></trkpt><trkpt lat="45.8607105906249" lon="8.059381437618603"><ele>920.0</ele><time>2026-04-03T13:59:56.944Z</time></trkpt><trkpt lat="45.86068552514181" lon="8.059206176719144"><ele>925.5</ele><time>2026-04-03T13:59:57.945Z</time></trkpt><trkpt lat="45.86064782256658" lon="8.059043843279365"><ele>931.0</ele><time>2026-04-03T13:59:58.945Z</time></trkpt><trkpt lat="45.86057216733905" lon="8.058890369790989"><ele>936.5</ele><time>2026-04-03T13:59:59.945Z</time></trkpt><trkpt lat="45.86047930946384" lon="8.058722008528614"><ele>942.0</ele><time>2026-04-03T14:00:00.945Z</time></trkpt><trkpt lat="45.860392954597415" lon="8.058554571325763"><ele>942.0</ele><time>2026-04-03T14:00:01.945Z</time></trkpt><trkpt lat="45.86031968426685" lon="8.0583752730239"><ele>942.0</ele><time>2026-04-03T14:00:02.945Z</time></trkpt><trkpt lat="45.860269727420025" lon="8.058187183178623"><ele>942.0</ele><time>2026-04-03T14:00:03.945Z</time></trkpt><trkpt lat="45.86024235020424" lon="8.057987766380393"><ele>942.0</ele><time>2026-04-03T14:00:04.945Z</time></trkpt><trkpt lat="45.86022834580627" lon="8.05777212835005"><ele>943.0</ele><time>2026-04-03T14:00:05.945Z</time></trkpt><trkpt lat="45.86023074112372" lon="8.057538121071476"><ele>944.0</ele><time>2026-04-03T14:00:06.945Z</time></trkpt><trkpt lat="45.860235500600936" lon="8.057314406566865"><ele>945.0</ele><time>2026-04-03T14:00:07.945Z</time></trkpt><trkpt lat="45.86024614944985" lon="8.057116571204762"><ele>945.0</ele><time>2026-04-03T14:00:08.945Z</time></trkpt><trkpt lat="45.86028290817906" lon="8.056941968438794"><ele>945.0</ele><time>2026-04-03T14:00:09.945Z</time></trkpt><trkpt lat="45.86035482470739" lon="8.056764241786968"><ele>945.0</ele><time>2026-04-03T14:00:10.945Z</time></trkpt><trkpt lat="45.86045690010518" lon="8.056588929636069"><ele>945.0</ele><time>2026-04-03T14:00:11.945Z</time></trkpt><trkpt lat="45.860576803901154" lon="8.05645285295015"><ele>942.5</ele><time>2026-04-03T14:00:12.945Z</time></trkpt><trkpt lat="45.86070327696611" lon="8.056346934320432"><ele>940.0</ele><time>2026-04-03T14:00:13.945Z</time></trkpt><trkpt lat="45.86081686409131" lon="8.056277282838316"><ele>937.5</ele><time>2026-04-03T14:00:14.945Z</time></trkpt><trkpt lat="45.86089986340305" lon="8.05619336027427"><ele>935.0</ele><time>2026-04-03T14:00:15.945Z</time></trkpt><trkpt lat="45.86095155976176" lon="8.056096604827818"><ele>935.0</ele><time>2026-04-03T14:00:16.945Z</time></trkpt><trkpt lat="45.860970510650915" lon="8.056000330750583"><ele>935.0</ele><time>2026-04-03T14:00:17.945Z</time></trkpt><trkpt lat="45.8608866052725" lon="8.055824038075693"><ele>935.0</ele><time>2026-04-03T14:00:19.945Z</time></trkpt><trkpt lat="45.86083330387977" lon="8.055684545138327"><ele>935.0</ele><time>2026-04-03T14:00:20.945Z</time></trkpt><trkpt lat="45.86081232530834" lon="8.055542527492014"><ele>935.0</ele><time>2026-04-03T14:00:21.945Z</time></trkpt><trkpt lat="45.86081845057849" lon="8.055433624552634"><ele>936.25</ele><time>2026-04-03T14:00:22.945Z</time></trkpt><trkpt lat="45.86087592423067" lon="8.055353454420048"><ele>937.5</ele><time>2026-04-03T14:00:23.945Z</time></trkpt><trkpt lat="45.86095928746933" lon="8.055263215840572"><ele>938.75</ele><time>2026-04-03T14:00:24.945Z</time></trkpt><trkpt lat="45.861073020445076" lon="8.05517261396655"><ele>940.0</ele><time>2026-04-03T14:00:25.945Z</time></trkpt><trkpt lat="45.861192036945056" lon="8.055052889450733"><ele>940.0</ele><time>2026-04-03T14:00:26.945Z</time></trkpt><trkpt lat="45.86129048376367" lon="8.054947282191616"><ele>940.0</ele><time>2026-04-03T14:00:27.945Z</time></trkpt><trkpt lat="45.861355778406654" lon="8.054815654916595"><ele>940.0</ele><time>2026-04-03T14:00:28.945Z</time></trkpt><trkpt lat="45.86141724239557" lon="8.054664541723186"><ele>940.0</ele><time>2026-04-03T14:00:29.945Z</time></trkpt><trkpt lat="45.86144600484343" lon="8.0544678239794"><ele>940.0</ele><time>2026-04-03T14:00:30.947Z</time></trkpt><trkpt lat="45.86147892618542" lon="8.054248270839222"><ele>940.0</ele><time>2026-04-03T14:00:31.947Z</time></trkpt><trkpt lat="45.861530551823535" lon="8.054006308928006"><ele>940.0</ele><time>2026-04-03T14:00:32.947Z</time></trkpt><trkpt lat="45.86158630769775" lon="8.05375167651842"><ele>943.3333333333333</ele><time>2026-04-03T14:00:33.947Z</time></trkpt><trkpt lat="45.86165636253416" lon="8.053479797702986"><ele>946.6666666666667</ele><time>2026-04-03T14:00:34.946Z</time></trkpt><trkpt lat="45.86171510347756" lon="8.053192775144653"><ele>950.0</ele><time>2026-04-03T14:00:35.946Z</time></trkpt><trkpt lat="45.8617783375554" lon="8.052896522136962"><ele>951.3333333333334</ele><time>2026-04-03T14:00:36.947Z</time></trkpt><trkpt lat="45.86184399435155" lon="8.05262471651021"><ele>952.6666666666667</ele><time>2026-04-03T14:00:37.947Z</time></trkpt><trkpt lat="45.86190265651825" lon="8.052352076238234"><ele>954.0</ele><time>2026-04-03T14:00:38.947Z</time></trkpt><trkpt lat="45.86195537223845" lon="8.052085590203601"><ele>955.6666666666667</ele><time>2026-04-03T14:00:39.947Z</time></trkpt><trkpt lat="45.86199993396042" lon="8.051798532253821"><ele>957.3333333333334</ele><time>2026-04-03T14:00:40.948Z</time></trkpt><trkpt lat="45.862029537001504" lon="8.051522495959452"><ele>959.0</ele><time>2026-04-03T14:00:41.948Z</time></trkpt><trkpt lat="45.86205077097931" lon="8.05126540679201"><ele>962.3333333333334</ele><time>2026-04-03T14:00:42.947Z</time></trkpt><trkpt lat="45.862072818807675" lon="8.051034305597195"><ele>965.6666666666667</ele><time>2026-04-03T14:00:43.948Z</time></trkpt><trkpt lat="45.86207714455214" lon="8.050821065758674"><ele>969.0</ele><time>2026-04-03T14:00:44.948Z</time></trkpt><trkpt lat="45.862041707553544" lon="8.050614537624336"><ele>969.3333333333333</ele><time>2026-04-03T14:00:45.948Z</time></trkpt><trkpt lat="45.86199564940293" lon="8.050404264758349"><ele>969.6666666666666</ele><time>2026-04-03T14:00:46.948Z</time></trkpt><trkpt lat="45.86193900161274" lon="8.05018638760367"><ele>970.0</ele><time>2026-04-03T14:00:47.948Z</time></trkpt><trkpt lat="45.86190288207954" lon="8.049947808435453"><ele>970.0</ele><time>2026-04-03T14:00:48.948Z</time></trkpt><trkpt lat="45.86187600571965" lon="8.049676530518088"><ele>970.0</ele><time>2026-04-03T14:00:49.948Z</time></trkpt><trkpt lat="45.86188273115742" lon="8.049399820113877"><ele>970.0</ele><time>2026-04-03T14:00:50.948Z</time></trkpt><trkpt lat="45.86190625254859" lon="8.049125359716337"><ele>972.6666666666666</ele><time>2026-04-03T14:00:51.948Z</time></trkpt><trkpt lat="45.8619512032771" lon="8.048861690672975"><ele>975.3333333333333</ele><time>2026-04-03T14:00:52.948Z</time></trkpt><trkpt lat="45.86199340271069" lon="8.048593982950559"><ele>978.0</ele><time>2026-04-03T14:00:53.948Z</time></trkpt><trkpt lat="45.86201178806934" lon="8.048308451098846"><ele>980.6666666666667</ele><time>2026-04-03T14:00:54.948Z</time></trkpt><trkpt lat="45.86200564437157" lon="8.048021778907763"><ele>983.3333333333334</ele><time>2026-04-03T14:00:55.948Z</time></trkpt><trkpt lat="45.861987928789674" lon="8.047750671026506"><ele>986.0</ele><time>2026-04-03T14:00:56.948Z</time></trkpt><trkpt lat="45.861949038635416" lon="8.047477117816607"><ele>987.6666666666667</ele><time>2026-04-03T14:00:57.948Z</time></trkpt><trkpt lat="45.861891950594654" lon="8.047212278922093"><ele>989.3333333333333</ele><time>2026-04-03T14:00:58.948Z</time></trkpt><trkpt lat="45.861821661647774" lon="8.046941838991014"><ele>991.0</ele><time>2026-04-03T14:00:59.948Z</time></trkpt><trkpt lat="45.861762829764984" lon="8.046652074335563"><ele>990.0</ele><time>2026-04-03T14:01:00.948Z</time></trkpt><trkpt lat="45.86168585149205" lon="8.046349397323599"><ele>989.0</ele><time>2026-04-03T14:01:01.948Z</time></trkpt><trkpt lat="45.861602278274674" lon="8.046030927708694"><ele>992.5</ele><time>2026-04-03T14:01:02.948Z</time></trkpt><trkpt lat="45.8615244221703" lon="8.045713682425713"><ele>996.0</ele><time>2026-04-03T14:01:03.948Z</time></trkpt><trkpt lat="45.86145377094516" lon="8.045391105464573"><ele>996.0</ele><time>2026-04-03T14:01:04.948Z</time></trkpt><trkpt lat="45.86137861989821" lon="8.045082207629576"><ele>996.0</ele><time>2026-04-03T14:01:05.948Z</time></trkpt><trkpt lat="45.86131787088979" lon="8.044794357197388"><ele>996.0</ele><time>2026-04-03T14:01:06.948Z</time></trkpt><trkpt lat="45.8612613038569" lon="8.044522890817454"><ele>995.3333333333333</ele><time>2026-04-03T14:01:07.948Z</time></trkpt><trkpt lat="45.861209730268314" lon="8.044258808542017"><ele>994.6666666666666</ele><time>2026-04-03T14:01:08.948Z</time></trkpt><trkpt lat="45.86117236808213" lon="8.043985016040125"><ele>994.0</ele><time>2026-04-03T14:01:09.948Z</time></trkpt><trkpt lat="45.86114660469021" lon="8.043698050792864"><ele>996.6666666666666</ele><time>2026-04-03T14:01:10.948Z</time></trkpt><trkpt lat="45.86113469534469" lon="8.04338979264263"><ele>999.3333333333333</ele><time>2026-04-03T14:01:11.948Z</time></trkpt><trkpt lat="45.86112723653613" lon="8.043061595093906"><ele>1002.0</ele><time>2026-04-03T14:01:12.948Z</time></trkpt><trkpt lat="45.86111755709309" lon="8.042728393532451"><ele>1004.0</ele><time>2026-04-03T14:01:13.948Z</time></trkpt><trkpt lat="45.8611150619315" lon="8.04241485328921"><ele>1006.0</ele><time>2026-04-03T14:01:14.948Z</time></trkpt><trkpt lat="45.861124197461734" lon="8.04211656908463"><ele>1008.0</ele><time>2026-04-03T14:01:15.948Z</time></trkpt><trkpt lat="45.86114545742372" lon="8.041826368566086"><ele>1009.0</ele><time>2026-04-03T14:01:16.949Z</time></trkpt><trkpt lat="45.86117648915717" lon="8.0415424864546"><ele>1010.0</ele><time>2026-04-03T14:01:17.949Z</time></trkpt><trkpt lat="45.86121465827671" lon="8.04125765758781"><ele>1011.0</ele><time>2026-04-03T14:01:18.949Z</time></trkpt><trkpt lat="45.86125177097048" lon="8.04096946273742"><ele>1012.3333333333333</ele><time>2026-04-03T14:01:19.949Z</time></trkpt><trkpt lat="45.86128698486247" lon="8.040683662466721"><ele>1013.6666666666666</ele><time>2026-04-03T14:01:20.949Z</time></trkpt><trkpt lat="45.86132228168474" lon="8.040403984452096"><ele>1015.0</ele><time>2026-04-03T14:01:21.949Z</time></trkpt><trkpt lat="45.86135848798529" lon="8.040132428369219"><ele>1017.0</ele><time>2026-04-03T14:01:22.949Z</time></trkpt><trkpt lat="45.8613936976355" lon="8.039877117679852"><ele>1019.0</ele><time>2026-04-03T14:01:23.949Z</time></trkpt><trkpt lat="45.86142496549461" lon="8.039636475412717"><ele>1021.0</ele><time>2026-04-03T14:01:24.949Z</time></trkpt><trkpt lat="45.861449428569955" lon="8.039411643787712"><ele>1021.0</ele><time>2026-04-03T14:01:25.949Z</time></trkpt><trkpt lat="45.86146239149797" lon="8.039216446971562"><ele>1021.0</ele><time>2026-04-03T14:01:26.949Z</time></trkpt><trkpt lat="45.86145099303403" lon="8.039044212352017"><ele>1021.0</ele><time>2026-04-03T14:01:27.949Z</time></trkpt><trkpt lat="45.86141251059206" lon="8.038882611109253"><ele>1021.0</ele><time>2026-04-03T14:01:28.949Z</time></trkpt><trkpt lat="45.861349655174564" lon="8.038731016617598"><ele>1022.0</ele><time>2026-04-03T14:01:29.949Z</time></trkpt><trkpt lat="45.86126726117558" lon="8.038572811349804"><ele>1023.0</ele><time>2026-04-03T14:01:30.949Z</time></trkpt><trkpt lat="45.861158717206514" lon="8.038405294891202"><ele>1024.0</ele><time>2026-04-03T14:01:31.949Z</time></trkpt><trkpt lat="45.86103194824372" lon="8.038223828773045"><ele>1027.6666666666665</ele><time>2026-04-03T14:01:32.949Z</time></trkpt><trkpt lat="45.860913077748876" lon="8.038053670737161"><ele>1031.3333333333333</ele><time>2026-04-03T14:01:33.949Z</time></trkpt><trkpt lat="45.86081332302456" lon="8.037892702709836"><ele>1035.0</ele><time>2026-04-03T14:01:34.949Z</time></trkpt><trkpt lat="45.860736850718766" lon="8.037732501983546"><ele>1035.0</ele><time>2026-04-03T14:01:35.949Z</time></trkpt><trkpt lat="45.86067768140326" lon="8.037569396307935"><ele>1035.0</ele><time>2026-04-03T14:01:36.949Z</time></trkpt><trkpt lat="45.86064291700052" lon="8.037405781572096"><ele>1035.0</ele><time>2026-04-03T14:01:37.949Z</time></trkpt><trkpt lat="45.86067862511401" lon="8.0371326563777"><ele>1035.0</ele><time>2026-04-03T14:01:38.949Z</time></trkpt><trkpt lat="45.86075690914307" lon="8.03686167784229"><ele>1040.0</ele><time>2026-04-03T14:01:39.949Z</time></trkpt><trkpt lat="45.86081969223413" lon="8.036590940752925"><ele>1045.0</ele><time>2026-04-03T14:01:40.949Z</time></trkpt><trkpt lat="45.86085569689502" lon="8.036324811716923"><ele>1050.0</ele><time>2026-04-03T14:01:41.949Z</time></trkpt><trkpt lat="45.860889274703716" lon="8.036046068035663"><ele>1051.0</ele><time>2026-04-03T14:01:42.949Z</time></trkpt><trkpt lat="45.860924333213994" lon="8.035762539492323"><ele>1052.0</ele><time>2026-04-03T14:01:43.949Z</time></trkpt><trkpt lat="45.86095820631711" lon="8.035491695034247"><ele>1053.0</ele><time>2026-04-03T14:01:44.949Z</time></trkpt><trkpt lat="45.860983010003956" lon="8.035221934605005"><ele>1047.0</ele><time>2026-04-03T14:01:45.949Z</time></trkpt><trkpt lat="45.86099347758866" lon="8.034944599259948"><ele>1041.0</ele><time>2026-04-03T14:01:46.949Z</time></trkpt><trkpt lat="45.86099230674571" lon="8.03466025285341"><ele>1035.0</ele><time>2026-04-03T14:01:47.949Z</time></trkpt><trkpt lat="45.86098763848921" lon="8.034371949912039"><ele>1037.3333333333333</ele><time>2026-04-03T14:01:48.949Z</time></trkpt><trkpt lat="45.860982730745704" lon="8.034078564580296"><ele>1039.6666666666665</ele><time>2026-04-03T14:01:49.95Z</time></trkpt><trkpt lat="45.86098536310816" lon="8.033783522094463"><ele>1042.0</ele><time>2026-04-03T14:01:50.95Z</time></trkpt><trkpt lat="45.860989338603936" lon="8.033489924783787"><ele>1043.3333333333333</ele><time>2026-04-03T14:01:51.95Z</time></trkpt><trkpt lat="45.86100322228122" lon="8.03318666854464"><ele>1044.6666666666667</ele><time>2026-04-03T14:01:52.95Z</time></trkpt><trkpt lat="45.861024427463086" lon="8.03287067666005"><ele>1046.0</ele><time>2026-04-03T14:01:53.95Z</time></trkpt><trkpt lat="45.861042451895145" lon="8.032535434366993"><ele>1049.5</ele><time>2026-04-03T14:01:54.95Z</time></trkpt><trkpt lat="45.861061966799724" lon="8.032185151907427"><ele>1053.0</ele><time>2026-04-03T14:01:55.95Z</time></trkpt><trkpt lat="45.86108338454753" lon="8.031874429220485"><ele>1055.3333333333333</ele><time>2026-04-03T14:01:56.95Z</time></trkpt><trkpt lat="45.86110935845448" lon="8.031592951978075"><ele>1057.6666666666665</ele><time>2026-04-03T14:01:57.95Z</time></trkpt><trkpt lat="45.86116535289103" lon="8.031328022081063"><ele>1060.0</ele><time>2026-04-03T14:01:58.95Z</time></trkpt><trkpt lat="45.861220512894796" lon="8.031077174961437"><ele>1060.0</ele><time>2026-04-03T14:01:59.95Z</time></trkpt><trkpt lat="45.86124696245226" lon="8.030837744465222"><ele>1060.0</ele><time>2026-04-03T14:02:00.95Z</time></trkpt><trkpt lat="45.86126431627901" lon="8.030612139202901"><ele>1060.0</ele><time>2026-04-03T14:02:01.95Z</time></trkpt><trkpt lat="45.86130874061304" lon="8.030418817146748"><ele>1064.6666666666665</ele><time>2026-04-03T14:02:02.95Z</time></trkpt><trkpt lat="45.86139308471796" lon="8.03023634954827"><ele>1069.3333333333333</ele><time>2026-04-03T14:02:03.95Z</time></trkpt><trkpt lat="45.861515556676956" lon="8.030051383200579"><ele>1074.0</ele><time>2026-04-03T14:02:04.95Z</time></trkpt><trkpt lat="45.86163126307846" lon="8.029857840874396"><ele>1073.0</ele><time>2026-04-03T14:02:05.95Z</time></trkpt><trkpt lat="45.86174293841416" lon="8.029674077127375"><ele>1072.0</ele><time>2026-04-03T14:02:06.95Z</time></trkpt><trkpt lat="45.86185055047153" lon="8.02949132304145"><ele>1071.0</ele><time>2026-04-03T14:02:07.95Z</time></trkpt><trkpt lat="45.861944884959115" lon="8.029295812656262"><ele>1076.3333333333333</ele><time>2026-04-03T14:02:08.95Z</time></trkpt><trkpt lat="45.86201856375946" lon="8.029066440383039"><ele>1081.6666666666665</ele><time>2026-04-03T14:02:09.95Z</time></trkpt><trkpt lat="45.86208223039325" lon="8.028835849817265"><ele>1087.0</ele><time>2026-04-03T14:02:10.95Z</time></trkpt><trkpt lat="45.86217029475089" lon="8.028590151616783"><ele>1087.0</ele><time>2026-04-03T14:02:11.95Z</time></trkpt><trkpt lat="45.86227263569298" lon="8.028342572281968"><ele>1087.0</ele><time>2026-04-03T14:02:12.95Z</time></trkpt><trkpt lat="45.862376995122396" lon="8.028101625234598"><ele>1087.0</ele><time>2026-04-03T14:02:13.95Z</time></trkpt><trkpt lat="45.862490730193784" lon="8.027909383287453"><ele>1088.6666666666665</ele><time>2026-04-03T14:02:14.95Z</time></trkpt><trkpt lat="45.8626253943582" lon="8.027761715254188"><ele>1090.3333333333333</ele><time>2026-04-03T14:02:15.95Z</time></trkpt><trkpt lat="45.86277248951397" lon="8.027642123096696"><ele>1092.0</ele><time>2026-04-03T14:02:16.95Z</time></trkpt><trkpt lat="45.8629200675035" lon="8.02751772341307"><ele>1097.3333333333333</ele><time>2026-04-03T14:02:17.95Z</time></trkpt><trkpt lat="45.8630518116511" lon="8.027352734335686"><ele>1102.6666666666665</ele><time>2026-04-03T14:02:18.95Z</time></trkpt><trkpt lat="45.86318171513901" lon="8.027170693939397"><ele>1108.0</ele><time>2026-04-03T14:02:19.95Z</time></trkpt><trkpt lat="45.86329957103279" lon="8.027004841804175"><ele>1108.0</ele><time>2026-04-03T14:02:20.95Z</time></trkpt><trkpt lat="45.863410922270056" lon="8.026878920194898"><ele>1108.0</ele><time>2026-04-03T14:02:21.95Z</time></trkpt><trkpt lat="45.86351957229971" lon="8.02680360940611"><ele>1108.0</ele><time>2026-04-03T14:02:22.951Z</time></trkpt><trkpt lat="45.86362591373791" lon="8.026754741084439"><ele>1108.0</ele><time>2026-04-03T14:02:23.951Z</time></trkpt><trkpt lat="45.86371773842729" lon="8.026674935408957"><ele>1107.75</ele><time>2026-04-03T14:02:24.951Z</time></trkpt><trkpt lat="45.86380036806434" lon="8.026564270711967"><ele>1107.5</ele><time>2026-04-03T14:02:25.951Z</time></trkpt><trkpt lat="45.863867191946525" lon="8.026435066153313"><ele>1107.25</ele><time>2026-04-03T14:02:26.951Z</time></trkpt><trkpt lat="45.863902825573746" lon="8.0262726393219"><ele>1107.0</ele><time>2026-04-03T14:02:27.951Z</time></trkpt><trkpt lat="45.86392949826501" lon="8.026084062807817"><ele>1107.0</ele><time>2026-04-03T14:02:28.951Z</time></trkpt><trkpt lat="45.86397239553343" lon="8.025892018244598"><ele>1107.0</ele><time>2026-04-03T14:02:29.951Z</time></trkpt><trkpt lat="45.86403845534241" lon="8.025699090802455"><ele>1107.0</ele><time>2026-04-03T14:02:30.951Z</time></trkpt><trkpt lat="45.864103845673874" lon="8.025525181388424"><ele>1107.0</ele><time>2026-04-03T14:02:31.951Z</time></trkpt><trkpt lat="45.86417420219388" lon="8.025375617737971"><ele>1107.75</ele><time>2026-04-03T14:02:32.951Z</time></trkpt><trkpt lat="45.86427813604071" lon="8.025252625065857"><ele>1108.5</ele><time>2026-04-03T14:02:33.951Z</time></trkpt><trkpt lat="45.864401334238956" lon="8.025134251684618"><ele>1109.25</ele><time>2026-04-03T14:02:34.951Z</time></trkpt><trkpt lat="45.864533739132305" lon="8.02501153178627"><ele>1110.0</ele><time>2026-04-03T14:02:35.951Z</time></trkpt><trkpt lat="45.86467330702875" lon="8.024879125448193"><ele>1112.0</ele><time>2026-04-03T14:02:36.952Z</time></trkpt><trkpt lat="45.86480806001438" lon="8.024746115710434"><ele>1114.0</ele><time>2026-04-03T14:02:37.953Z</time></trkpt><trkpt lat="45.86491828634589" lon="8.02461825057864"><ele>1116.0</ele><time>2026-04-03T14:02:38.953Z</time></trkpt><trkpt lat="45.86500301816095" lon="8.024485361419694"><ele>1118.0</ele><time>2026-04-03T14:02:39.952Z</time></trkpt><trkpt lat="45.865065009910815" lon="8.024333779167177"><ele>1118.75</ele><time>2026-04-03T14:02:40.953Z</time></trkpt><trkpt lat="45.86511679099169" lon="8.0241636341214"><ele>1119.5</ele><time>2026-04-03T14:02:41.953Z</time></trkpt><trkpt lat="45.865170368554054" lon="8.023982595961774"><ele>1120.25</ele><time>2026-04-03T14:02:42.953Z</time></trkpt><trkpt lat="45.86524223110605" lon="8.023800292133604"><ele>1121.0</ele><time>2026-04-03T14:02:43.953Z</time></trkpt><trkpt lat="45.86533161373225" lon="8.023624641574221"><ele>1121.0</ele><time>2026-04-03T14:02:44.953Z</time></trkpt><trkpt lat="45.865430696552615" lon="8.023470812311281"><ele>1121.0</ele><time>2026-04-03T14:02:45.953Z</time></trkpt><trkpt lat="45.865526225706034" lon="8.023332787872535"><ele>1121.0</ele><time>2026-04-03T14:02:46.953Z</time></trkpt><trkpt lat="45.86562329972864" lon="8.023212081672156"><ele>1121.0</ele><time>2026-04-03T14:02:47.953Z</time></trkpt><trkpt lat="45.86572365605487" lon="8.023120011406192"><ele>1122.5</ele><time>2026-04-03T14:02:48.954Z</time></trkpt><trkpt lat="45.86582296322724" lon="8.023036269305594"><ele>1124.0</ele><time>2026-04-03T14:02:49.953Z</time></trkpt><trkpt lat="45.86593065650407" lon="8.022954416992073"><ele>1125.5</ele><time>2026-04-03T14:02:50.953Z</time></trkpt><trkpt lat="45.86605008153617" lon="8.02287943937718"><ele>1127.0</ele><time>2026-04-03T14:02:51.953Z</time></trkpt><trkpt lat="45.86616867438664" lon="8.02280908764702"><ele>1127.0</ele><time>2026-04-03T14:02:52.953Z</time></trkpt><trkpt lat="45.86627744462508" lon="8.022739929542107"><ele>1127.0</ele><time>2026-04-03T14:02:53.953Z</time></trkpt><trkpt lat="45.86638659374079" lon="8.02265256377255"><ele>1127.0</ele><time>2026-04-03T14:02:54.953Z</time></trkpt><trkpt lat="45.866475590101174" lon="8.02256541763189"><ele>1127.0</ele><time>2026-04-03T14:02:55.953Z</time></trkpt><trkpt lat="45.86654473591447" lon="8.022466381776672"><ele>1127.0</ele><time>2026-04-03T14:02:56.953Z</time></trkpt><trkpt lat="45.86660025682666" lon="8.022345079165161"><ele>1130.5</ele><time>2026-04-03T14:02:57.953Z</time></trkpt><trkpt lat="45.866654110287286" lon="8.022203357400102"><ele>1134.0</ele><time>2026-04-03T14:02:58.953Z</time></trkpt><trkpt lat="45.866722211937834" lon="8.022057225940923"><ele>1137.5</ele><time>2026-04-03T14:02:59.954Z</time></trkpt><trkpt lat="45.86681657221542" lon="8.021906210923298"><ele>1141.0</ele><time>2026-04-03T14:03:00.954Z</time></trkpt><trkpt lat="45.86693848007571" lon="8.021769999169166"><ele>1151.6666666666665</ele><time>2026-04-03T14:03:01.954Z</time></trkpt><trkpt lat="45.86706532790649" lon="8.021639126505011"><ele>1162.3333333333333</ele><time>2026-04-03T14:03:02.954Z</time></trkpt><trkpt lat="45.86720180934223" lon="8.021531753416648"><ele>1173.0</ele><time>2026-04-03T14:03:03.954Z</time></trkpt><trkpt lat="45.86735771562764" lon="8.02145900413208"><ele>1173.0</ele><time>2026-04-03T14:03:04.954Z</time></trkpt><trkpt lat="45.86752920430621" lon="8.021402812438113"><ele>1173.0</ele><time>2026-04-03T14:03:05.954Z</time></trkpt><trkpt lat="45.86770633503301" lon="8.021373579677318"><ele>1173.0</ele><time>2026-04-03T14:03:06.954Z</time></trkpt><trkpt lat="45.867880887450134" lon="8.021370090939653"><ele>1168.6666666666667</ele><time>2026-04-03T14:03:07.954Z</time></trkpt><trkpt lat="45.86803959381392" lon="8.02136674697843"><ele>1164.3333333333335</ele><time>2026-04-03T14:03:08.954Z</time></trkpt><trkpt lat="45.86820093832436" lon="8.021343433817526"><ele>1160.0</ele><time>2026-04-03T14:03:09.954Z</time></trkpt><trkpt lat="45.868356301219976" lon="8.021284257959598"><ele>1158.3333333333335</ele><time>2026-04-03T14:03:10.954Z</time></trkpt><trkpt lat="45.868502831380376" lon="8.021184422577845"><ele>1156.6666666666667</ele><time>2026-04-03T14:03:11.954Z</time></trkpt><trkpt lat="45.86864190646219" lon="8.02105262343903"><ele>1155.0</ele><time>2026-04-03T14:03:12.954Z</time></trkpt><trkpt lat="45.86877539898812" lon="8.020893233298185"><ele>1164.3333333333333</ele><time>2026-04-03T14:03:13.954Z</time></trkpt><trkpt lat="45.86891137035713" lon="8.020728549454066"><ele>1173.6666666666665</ele><time>2026-04-03T14:03:14.954Z</time></trkpt><trkpt lat="45.869059001333554" lon="8.020568398413129"><ele>1183.0</ele><time>2026-04-03T14:03:15.954Z</time></trkpt><trkpt lat="45.86919741683855" lon="8.020414928645367"><ele>1179.3333333333333</ele><time>2026-04-03T14:03:16.954Z</time></trkpt><trkpt lat="45.86933811970719" lon="8.02027867995704"><ele>1175.6666666666667</ele><time>2026-04-03T14:03:17.954Z</time></trkpt><trkpt lat="45.86949317679098" lon="8.020163050849153"><ele>1172.0</ele><time>2026-04-03T14:03:18.954Z</time></trkpt><trkpt lat="45.86966170981451" lon="8.020071434620148"><ele>1181.3333333333335</ele><time>2026-04-03T14:03:19.954Z</time></trkpt><trkpt lat="45.869835803419925" lon="8.019967373756513"><ele>1190.6666666666667</ele><time>2026-04-03T14:03:20.954Z</time></trkpt><trkpt lat="45.87002703418457" lon="8.019872508007632"><ele>1200.0</ele><time>2026-04-03T14:03:21.954Z</time></trkpt><trkpt lat="45.87025003452045" lon="8.019793639228084"><ele>1200.0</ele><time>2026-04-03T14:03:22.954Z</time></trkpt><trkpt lat="45.870492124678" lon="8.019707653663637"><ele>1200.0</ele><time>2026-04-03T14:03:23.954Z</time></trkpt><trkpt lat="45.87075585345717" lon="8.019617716683555"><ele>1193.0</ele><time>2026-04-03T14:03:24.954Z</time></trkpt><trkpt lat="45.87100933236786" lon="8.019530368054346"><ele>1186.0</ele><time>2026-04-03T14:03:25.954Z</time></trkpt><trkpt lat="45.87124689869085" lon="8.019463932157077"><ele>1186.0</ele><time>2026-04-03T14:03:26.954Z</time></trkpt><trkpt lat="45.871457956705974" lon="8.019408096360953"><ele>1186.0</ele><time>2026-04-03T14:03:27.954Z</time></trkpt><trkpt lat="45.87164568701337" lon="8.01936251321468"><ele>1186.0</ele><time>2026-04-03T14:03:28.954Z</time></trkpt><trkpt lat="45.87182111587307" lon="8.01932795579138"><ele>1183.3333333333333</ele><time>2026-04-03T14:03:29.954Z</time></trkpt><trkpt lat="45.87199116587467" lon="8.019321866926973"><ele>1180.6666666666667</ele><time>2026-04-03T14:03:30.954Z</time></trkpt><trkpt lat="45.87213928224121" lon="8.01935227729126"><ele>1178.0</ele><time>2026-04-03T14:03:31.954Z</time></trkpt><trkpt lat="45.87227770548674" lon="8.019406683662321"><ele>1178.0</ele><time>2026-04-03T14:03:32.954Z</time></trkpt><trkpt lat="45.87240393362428" lon="8.019443987416352"><ele>1178.0</ele><time>2026-04-03T14:03:33.955Z</time></trkpt><trkpt lat="45.872512535999434" lon="8.019464251612298"><ele>1178.0</ele><time>2026-04-03T14:03:34.955Z</time></trkpt><trkpt lat="45.872601157541816" lon="8.019423392942251"><ele>1178.0</ele><time>2026-04-03T14:03:35.955Z</time></trkpt><trkpt lat="45.87269336687809" lon="8.019334916256547"><ele>1178.0</ele><time>2026-04-03T14:03:36.955Z</time></trkpt><trkpt lat="45.87280328948255" lon="8.019218322459322"><ele>1183.6666666666667</ele><time>2026-04-03T14:03:37.955Z</time></trkpt><trkpt lat="45.87291872748462" lon="8.019079900465256"><ele>1189.3333333333333</ele><time>2026-04-03T14:03:38.955Z</time></trkpt><trkpt lat="45.87303694006832" lon="8.018926688171199"><ele>1195.0</ele><time>2026-04-03T14:03:39.955Z</time></trkpt><trkpt lat="45.87315996453075" lon="8.018767700830503"><ele>1195.0</ele><time>2026-04-03T14:03:40.955Z</time></trkpt><trkpt lat="45.87328616275828" lon="8.018597899222687"><ele>1195.0</ele><time>2026-04-03T14:03:41.955Z</time></trkpt><trkpt lat="45.87342445609192" lon="8.018420896993725"><ele>1195.0</ele><time>2026-04-03T14:03:42.955Z</time></trkpt><trkpt lat="45.87356174897812" lon="8.018225330078058"><ele>1196.6666666666665</ele><time>2026-04-03T14:03:43.955Z</time></trkpt><trkpt lat="45.87371516161733" lon="8.018013148098621"><ele>1198.3333333333333</ele><time>2026-04-03T14:03:44.955Z</time></trkpt><trkpt lat="45.8738875909897" lon="8.017790357849254"><ele>1200.0</ele><time>2026-04-03T14:03:45.955Z</time></trkpt><trkpt lat="45.87406702591248" lon="8.01756545881937"><ele>1205.5</ele><time>2026-04-03T14:03:46.955Z</time></trkpt><trkpt lat="45.87424704291638" lon="8.017336738746227"><ele>1211.0</ele><time>2026-04-03T14:03:47.955Z</time></trkpt><trkpt lat="45.87445663693743" lon="8.017099769216555"><ele>1211.0</ele><time>2026-04-03T14:03:48.955Z</time></trkpt><trkpt lat="45.874684794148784" lon="8.01685837139195"><ele>1211.0</ele><time>2026-04-03T14:03:49.955Z</time></trkpt><trkpt lat="45.874903206699706" lon="8.016619271399595"><ele>1215.5</ele><time>2026-04-03T14:03:50.955Z</time></trkpt><trkpt lat="45.875090524985005" lon="8.016398005123406"><ele>1220.0</ele><time>2026-04-03T14:03:51.955Z</time></trkpt><trkpt lat="45.87526396412776" lon="8.01620160349536"><ele>1220.0</ele><time>2026-04-03T14:03:52.955Z</time></trkpt><trkpt lat="45.87542290373239" lon="8.016039863744584"><ele>1220.0</ele><time>2026-04-03T14:03:53.955Z</time></trkpt><trkpt lat="45.87555755367596" lon="8.015890129791249"><ele>1220.0</ele><time>2026-04-03T14:03:54.955Z</time></trkpt><trkpt lat="45.8756879862578" lon="8.015762911193626"><ele>1224.75</ele><time>2026-04-03T14:03:55.955Z</time></trkpt><trkpt lat="45.87581611949611" lon="8.015659382526186"><ele>1229.5</ele><time>2026-04-03T14:03:56.955Z</time></trkpt><trkpt lat="45.87594032361536" lon="8.015577960932077"><ele>1234.25</ele><time>2026-04-03T14:03:57.955Z</time></trkpt><trkpt lat="45.87606384929411" lon="8.015522255630973"><ele>1239.0</ele><time>2026-04-03T14:03:58.955Z</time></trkpt><trkpt lat="45.87619515405344" lon="8.015504983078355"><ele>1239.0</ele><time>2026-04-03T14:03:59.955Z</time></trkpt><trkpt lat="45.87632212797495" lon="8.015536510887689"><ele>1239.0</ele><time>2026-04-03T14:04:00.955Z</time></trkpt><trkpt lat="45.87645450005146" lon="8.015571620479589"><ele>1239.0</ele><time>2026-04-03T14:04:01.955Z</time></trkpt><trkpt lat="45.876579748051384" lon="8.015575803516212"><ele>1239.0</ele><time>2026-04-03T14:04:02.955Z</time></trkpt><trkpt lat="45.87669697113348" lon="8.015532366256243"><ele>1237.5</ele><time>2026-04-03T14:04:03.955Z</time></trkpt><trkpt lat="45.876796333146366" lon="8.015448765281608"><ele>1236.0</ele><time>2026-04-03T14:04:04.955Z</time></trkpt><trkpt lat="45.87688948717978" lon="8.015335529583801"><ele>1234.5</ele><time>2026-04-03T14:04:05.955Z</time></trkpt><trkpt lat="45.8769795396224" lon="8.015194264905908"><ele>1233.0</ele><time>2026-04-03T14:04:06.956Z</time></trkpt><trkpt lat="45.87707776619464" lon="8.015054112264638"><ele>1235.75</ele><time>2026-04-03T14:04:07.956Z</time></trkpt><trkpt lat="45.87716538831144" lon="8.014904736413367"><ele>1238.5</ele><time>2026-04-03T14:04:08.956Z</time></trkpt><trkpt lat="45.87725025870148" lon="8.014742522329968"><ele>1241.25</ele><time>2026-04-03T14:04:09.956Z</time></trkpt><trkpt lat="45.87733907725966" lon="8.014565164230186"><ele>1244.0</ele><time>2026-04-03T14:04:10.956Z</time></trkpt><trkpt lat="45.8774369861317" lon="8.014380013444534"><ele>1244.0</ele><time>2026-04-03T14:04:11.956Z</time></trkpt><trkpt lat="45.87753065012295" lon="8.014186188135502"><ele>1244.0</ele><time>2026-04-03T14:04:12.956Z</time></trkpt><trkpt lat="45.87762193839669" lon="8.013981260522177"><ele>1244.0</ele><time>2026-04-03T14:04:13.956Z</time></trkpt><trkpt lat="45.877717794630634" lon="8.013776069088474"><ele>1246.0</ele><time>2026-04-03T14:04:14.956Z</time></trkpt><trkpt lat="45.87780679734623" lon="8.013578196389743"><ele>1248.0</ele><time>2026-04-03T14:04:15.956Z</time></trkpt><trkpt lat="45.87788219954447" lon="8.013390151972908"><ele>1250.0</ele><time>2026-04-03T14:04:16.956Z</time></trkpt><trkpt lat="45.877936710433595" lon="8.013194575329207"><ele>1250.3333333333335</ele><time>2026-04-03T14:04:17.956Z</time></trkpt><trkpt lat="45.87797595481148" lon="8.012978430914764"><ele>1250.6666666666667</ele><time>2026-04-03T14:04:18.956Z</time></trkpt><trkpt lat="45.87802824781488" lon="8.01275139835761"><ele>1251.0</ele><time>2026-04-03T14:04:19.956Z</time></trkpt><trkpt lat="45.87810835990939" lon="8.012538563839275"><ele>1253.3333333333333</ele><time>2026-04-03T14:04:20.956Z</time></trkpt><trkpt lat="45.87821041550662" lon="8.012339298414908"><ele>1255.6666666666665</ele><time>2026-04-03T14:04:21.956Z</time></trkpt><trkpt lat="45.878325758267465" lon="8.012132554055139"><ele>1258.0</ele><time>2026-04-03T14:04:22.956Z</time></trkpt><trkpt lat="45.87844699252752" lon="8.011910774366255"><ele>1258.0</ele><time>2026-04-03T14:04:23.956Z</time></trkpt><trkpt lat="45.8785708758888" lon="8.011679242474786"><ele>1258.0</ele><time>2026-04-03T14:04:24.956Z</time></trkpt><trkpt lat="45.87868938572018" lon="8.011457618032194"><ele>1258.0</ele><time>2026-04-03T14:04:25.956Z</time></trkpt><trkpt lat="45.87880986380269" lon="8.011230936214321"><ele>1259.6666666666665</ele><time>2026-04-03T14:04:26.956Z</time></trkpt><trkpt lat="45.87892804193305" lon="8.010997195663867"><ele>1261.3333333333333</ele><time>2026-04-03T14:04:27.956Z</time></trkpt><trkpt lat="45.879037488581595" lon="8.010771069116544"><ele>1263.0</ele><time>2026-04-03T14:04:28.956Z</time></trkpt><trkpt lat="45.87914740355277" lon="8.010551810673569"><ele>1267.3333333333333</ele><time>2026-04-03T14:04:29.956Z</time></trkpt><trkpt lat="45.87925152358001" lon="8.010353590967108"><ele>1271.6666666666665</ele><time>2026-04-03T14:04:30.956Z</time></trkpt><trkpt lat="45.87934848953835" lon="8.010171964598696"><ele>1276.0</ele><time>2026-04-03T14:04:31.956Z</time></trkpt><trkpt lat="45.879437769620935" lon="8.009997880648902"><ele>1276.3999999999999</ele><time>2026-04-03T14:04:32.956Z</time></trkpt><trkpt lat="45.87952065421639" lon="8.009836387106626"><ele>1276.8</ele><time>2026-04-03T14:04:33.956Z</time></trkpt><trkpt lat="45.87959190591805" lon="8.009696350198112"><ele>1277.1999999999998</ele><time>2026-04-03T14:04:34.956Z</time></trkpt><trkpt lat="45.879634815260886" lon="8.00956819627828"><ele>1277.6</ele><time>2026-04-03T14:04:35.956Z</time></trkpt><trkpt lat="45.87966125640571" lon="8.009452487078454"><ele>1278.0</ele><time>2026-04-03T14:04:36.956Z</time></trkpt><trkpt lat="45.87968941599552" lon="8.009364558421604"><ele>1278.0</ele><time>2026-04-03T14:04:37.956Z</time></trkpt><trkpt lat="45.87978913930918" lon="8.009247615896113"><ele>1278.0</ele><time>2026-04-03T14:04:39.957Z</time></trkpt><trkpt lat="45.87985696210969" lon="8.009208620878438"><ele>1278.0</ele><time>2026-04-03T14:04:40.957Z</time></trkpt><trkpt lat="45.87992526900344" lon="8.009169966223483"><ele>1278.0</ele><time>2026-04-03T14:04:41.957Z</time></trkpt><trkpt lat="45.87999218099402" lon="8.00914948955559"><ele>1278.0</ele><time>2026-04-03T14:04:42.959Z</time></trkpt><trkpt lat="45.880074353778014" lon="8.009230206796053"><ele>1278.0</ele><time>2026-04-03T14:04:44.958Z</time></trkpt><trkpt lat="45.880104922362285" lon="8.009391212316721"><ele>1282.6</ele><time>2026-04-03T14:04:46.959Z</time></trkpt><trkpt lat="45.880167981508876" lon="8.009426836137887"><ele>1287.1999999999998</ele><time>2026-04-03T14:04:48.959Z</time></trkpt><trkpt lat="45.8802187495602" lon="8.009326951211705"><ele>1291.8</ele><time>2026-04-03T14:04:50.959Z</time></trkpt><trkpt lat="45.88020986742249" lon="8.009192088127824"><ele>1296.3999999999999</ele><time>2026-04-03T14:04:51.959Z</time></trkpt><trkpt lat="45.88019942160808" lon="8.009029470885743"><ele>1301.0</ele><time>2026-04-03T14:04:52.96Z</time></trkpt><trkpt lat="45.8801857451511" lon="8.008841273084766"><ele>1301.0</ele><time>2026-04-03T14:04:53.96Z</time></trkpt><trkpt lat="45.88016523934249" lon="8.008671913052689"><ele>1301.0</ele><time>2026-04-03T14:04:54.959Z</time></trkpt><trkpt lat="45.88014789311407" lon="8.008537592113235"><ele>1301.0</ele><time>2026-04-03T14:04:55.959Z</time></trkpt><trkpt lat="45.88014983322299" lon="8.00843148946217"><ele>1301.0</ele><time>2026-04-03T14:04:56.959Z</time></trkpt><trkpt lat="45.88017895701603" lon="8.008333312841408"><ele>1301.0</ele><time>2026-04-03T14:04:57.959Z</time></trkpt><trkpt lat="45.88022893114751" lon="8.008242971015909"><ele>1301.0</ele><time>2026-04-03T14:04:58.959Z</time></trkpt><trkpt lat="45.88029821708678" lon="8.008141628653116"><ele>1300.8333333333335</ele><time>2026-04-03T14:04:59.959Z</time></trkpt><trkpt lat="45.880353244198176" lon="8.00802117117491"><ele>1300.6666666666667</ele><time>2026-04-03T14:05:00.959Z</time></trkpt><trkpt lat="45.880387083490014" lon="8.007892292641507"><ele>1300.5</ele><time>2026-04-03T14:05:01.959Z</time></trkpt><trkpt lat="45.88040110143249" lon="8.00778213106771"><ele>1300.3333333333333</ele><time>2026-04-03T14:05:02.959Z</time></trkpt><trkpt lat="45.880424244127134" lon="8.007651171350645"><ele>1300.1666666666665</ele><time>2026-04-03T14:05:04.959Z</time></trkpt><trkpt lat="45.880494546597966" lon="8.007634711885855"><ele>1300.0</ele><time>2026-04-03T14:05:06.959Z</time></trkpt><trkpt lat="45.880526996013515" lon="8.007761420937305"><ele>1300.0</ele><time>2026-04-03T14:05:08.96Z</time></trkpt><trkpt lat="45.880508957413966" lon="8.007879692021682"><ele>1300.0</ele><time>2026-04-03T14:05:09.96Z</time></trkpt><trkpt lat="45.88049099123192" lon="8.008011648029296"><ele>1300.0</ele><time>2026-04-03T14:05:10.96Z</time></trkpt><trkpt lat="45.88048603301632" lon="8.008130073314781"><ele>1300.0</ele><time>2026-04-03T14:05:11.96Z</time></trkpt><trkpt lat="45.88052288301166" lon="8.008260446325234"><ele>1300.0</ele><time>2026-04-03T14:05:13.96Z</time></trkpt><trkpt lat="45.88059912824304" lon="8.008267665021885"><ele>1300.0</ele><time>2026-04-03T14:05:15.96Z</time></trkpt><trkpt lat="45.88066161761528" lon="8.008085216950791"><ele>1300.0</ele><time>2026-04-03T14:05:17.96Z</time></trkpt><trkpt lat="45.88068887965175" lon="8.007940938418033"><ele>1300.0</ele><time>2026-04-03T14:05:18.96Z</time></trkpt><trkpt lat="45.88071524748438" lon="8.00780390488984"><ele>1300.0</ele><time>2026-04-03T14:05:19.96Z</time></trkpt><trkpt lat="45.880732347594375" lon="8.007678679999715"><ele>1300.0</ele><time>2026-04-03T14:05:20.96Z</time></trkpt><trkpt lat="45.88073884845112" lon="8.007530890515502"><ele>1300.0</ele><time>2026-04-03T14:05:21.96Z</time></trkpt><trkpt lat="45.88074241184746" lon="8.007392776290713"><ele>1300.8333333333333</ele><time>2026-04-03T14:05:22.96Z</time></trkpt><trkpt lat="45.88074317144969" lon="8.007296836625056"><ele>1301.6666666666665</ele><time>2026-04-03T14:05:23.96Z</time></trkpt><trkpt lat="45.880766390612415" lon="8.007171183446847"><ele>1302.5</ele><time>2026-04-03T14:05:25.96Z</time></trkpt><trkpt lat="45.88084622999716" lon="8.007155082873954"><ele>1303.3333333333333</ele><time>2026-04-03T14:05:27.96Z</time></trkpt><trkpt lat="45.88088935097915" lon="8.0072979895743"><ele>1304.1666666666667</ele><time>2026-04-03T14:05:29.96Z</time></trkpt><trkpt lat="45.880896439690396" lon="8.007420093477107"><ele>1305.0</ele><time>2026-04-03T14:05:30.96Z</time></trkpt><trkpt lat="45.88093343920776" lon="8.007532965112357"><ele>1309.1666666666667</ele><time>2026-04-03T14:05:31.96Z</time></trkpt><trkpt lat="45.880988559303816" lon="8.007637924198821"><ele>1313.3333333333333</ele><time>2026-04-03T14:05:32.96Z</time></trkpt><trkpt lat="45.881038861495604" lon="8.007742686358446"><ele>1317.5</ele><time>2026-04-03T14:05:33.96Z</time></trkpt><trkpt lat="45.88108267475807" lon="8.007874119406413"><ele>1321.6666666666665</ele><time>2026-04-03T14:05:34.96Z</time></trkpt><trkpt lat="45.881106484910184" lon="8.007970234504"><ele>1325.8333333333333</ele><time>2026-04-03T14:05:35.96Z</time></trkpt><trkpt lat="45.881150093319214" lon="8.008067949184682"><ele>1330.0</ele><time>2026-04-03T14:05:37.96Z</time></trkpt><trkpt lat="45.88121864662505" lon="8.008021210091787"><ele>1330.0</ele><time>2026-04-03T14:05:39.96Z</time></trkpt><trkpt lat="45.881229622625995" lon="8.007841856318455"><ele>1330.0</ele><time>2026-04-03T14:05:41.96Z</time></trkpt><trkpt lat="45.88123336211566" lon="8.007716045708605"><ele>1330.0</ele><time>2026-04-03T14:05:42.961Z</time></trkpt><trkpt lat="45.88124654101039" lon="8.00757020595705"><ele>1330.0</ele><time>2026-04-03T14:05:43.961Z</time></trkpt><trkpt lat="45.88126804099702" lon="8.007417633111546"><ele>1330.0</ele><time>2026-04-03T14:05:44.961Z</time></trkpt><trkpt lat="45.88129010569786" lon="8.007278175918824"><ele>1329.4</ele><time>2026-04-03T14:05:45.961Z</time></trkpt><trkpt lat="45.88132157749061" lon="8.007128918349354"><ele>1328.8</ele><time>2026-04-03T14:05:46.961Z</time></trkpt><trkpt lat="45.88134262431532" lon="8.007001743824993"><ele>1328.1999999999998</ele><time>2026-04-03T14:05:47.961Z</time></trkpt><trkpt lat="45.881363733201454" lon="8.006905530061776"><ele>1327.6</ele><time>2026-04-03T14:05:48.961Z</time></trkpt><trkpt lat="45.88143020524585" lon="8.006814864755354"><ele>1327.0</ele><time>2026-04-03T14:05:50.961Z</time></trkpt><trkpt lat="45.881508204991114" lon="8.00688557511225"><ele>1327.0</ele><time>2026-04-03T14:05:52.961Z</time></trkpt><trkpt lat="45.88151183845406" lon="8.00698044190851"><ele>1327.0</ele><time>2026-04-03T14:05:53.961Z</time></trkpt><trkpt lat="45.88148144743076" lon="8.00710164402857"><ele>1327.0</ele><time>2026-04-03T14:05:54.961Z</time></trkpt><trkpt lat="45.88146177099052" lon="8.00721898727826"><ele>1327.0</ele><time>2026-04-03T14:05:55.961Z</time></trkpt><trkpt lat="45.88146514243959" lon="8.007316868440641"><ele>1327.0</ele><time>2026-04-03T14:05:56.961Z</time></trkpt><trkpt lat="45.88153310463541" lon="8.007400953338232"><ele>1327.0</ele><time>2026-04-03T14:05:58.961Z</time></trkpt><trkpt lat="45.88162064048565" lon="8.007308813912834"><ele>1327.0</ele><time>2026-04-03T14:06:00.961Z</time></trkpt><trkpt lat="45.881645249255016" lon="8.007168083272793"><ele>1327.0</ele><time>2026-04-03T14:06:01.961Z</time></trkpt><trkpt lat="45.881682442776224" lon="8.00701880667593"><ele>1327.0</ele><time>2026-04-03T14:06:02.961Z</time></trkpt><trkpt lat="45.88171953442455" lon="8.006888810883867"><ele>1327.0</ele><time>2026-04-03T14:06:03.961Z</time></trkpt><trkpt lat="45.881763005316145" lon="8.006747707032881"><ele>1327.0</ele><time>2026-04-03T14:06:04.961Z</time></trkpt><trkpt lat="45.88181007366188" lon="8.00659393431565"><ele>1332.5</ele><time>2026-04-03T14:06:05.961Z</time></trkpt><trkpt lat="45.88184717771668" lon="8.00641651954147"><ele>1338.0</ele><time>2026-04-03T14:06:06.961Z</time></trkpt><trkpt lat="45.88187414548589" lon="8.006225127747472"><ele>1343.5</ele><time>2026-04-03T14:06:07.961Z</time></trkpt><trkpt lat="45.8819094398898" lon="8.00603178173396"><ele>1349.0</ele><time>2026-04-03T14:06:08.961Z</time></trkpt><trkpt lat="45.881944034133014" lon="8.005842060834993"><ele>1349.5</ele><time>2026-04-03T14:06:09.961Z</time></trkpt><trkpt lat="45.881977218970896" lon="8.005665219020567"><ele>1350.0</ele><time>2026-04-03T14:06:10.961Z</time></trkpt><trkpt lat="45.882003218520154" lon="8.005494699694832"><ele>1350.5</ele><time>2026-04-03T14:06:11.961Z</time></trkpt><trkpt lat="45.88202767151643" lon="8.005330444365049"><ele>1351.0</ele><time>2026-04-03T14:06:12.961Z</time></trkpt><trkpt lat="45.88205092560813" lon="8.005154969535607"><ele>1353.0</ele><time>2026-04-03T14:06:13.961Z</time></trkpt><trkpt lat="45.8820635550154" lon="8.004958700168162"><ele>1355.0</ele><time>2026-04-03T14:06:14.961Z</time></trkpt><trkpt lat="45.88206923856223" lon="8.004755244329"><ele>1357.0</ele><time>2026-04-03T14:06:15.962Z</time></trkpt><trkpt lat="45.8820603814572" lon="8.0045807457226"><ele>1359.0</ele><time>2026-04-03T14:06:16.962Z</time></trkpt><trkpt lat="45.88205636820964" lon="8.00439908604004"><ele>1359.0</ele><time>2026-04-03T14:06:17.962Z</time></trkpt><trkpt lat="45.88205788744694" lon="8.00425473327223"><ele>1359.0</ele><time>2026-04-03T14:06:18.962Z</time></trkpt><trkpt lat="45.88207745667516" lon="8.0041228637228"><ele>1359.0</ele><time>2026-04-03T14:06:19.962Z</time></trkpt><trkpt lat="45.88211868919043" lon="8.003987425118947"><ele>1359.0</ele><time>2026-04-03T14:06:20.962Z</time></trkpt><trkpt lat="45.88218437002357" lon="8.003861508195225"><ele>1359.0</ele><time>2026-04-03T14:06:21.962Z</time></trkpt><trkpt lat="45.88226940065668" lon="8.003731678409496"><ele>1359.0</ele><time>2026-04-03T14:06:22.962Z</time></trkpt><trkpt lat="45.882357701726555" lon="8.003588854140258"><ele>1359.0</ele><time>2026-04-03T14:06:23.962Z</time></trkpt><trkpt lat="45.8824473167411" lon="8.003434917627246"><ele>1359.0</ele><time>2026-04-03T14:06:24.962Z</time></trkpt><trkpt lat="45.882538864776485" lon="8.003306731354934"><ele>1359.0</ele><time>2026-04-03T14:06:25.962Z</time></trkpt><trkpt lat="45.88265182820574" lon="8.00318344157059"><ele>1359.0</ele><time>2026-04-03T14:06:26.962Z</time></trkpt><trkpt lat="45.88278306323088" lon="8.00305689899376"><ele>1359.0</ele><time>2026-04-03T14:06:27.962Z</time></trkpt><trkpt lat="45.88291542145817" lon="8.002930175224328"><ele>1359.0</ele><time>2026-04-03T14:06:28.962Z</time></trkpt><trkpt lat="45.88305003710382" lon="8.002808053838377"><ele>1359.0</ele><time>2026-04-03T14:06:29.962Z</time></trkpt><trkpt lat="45.88318734362835" lon="8.002684640249953"><ele>1359.0</ele><time>2026-04-03T14:06:30.962Z</time></trkpt><trkpt lat="45.88332532360764" lon="8.002556339501455"><ele>1359.0</ele><time>2026-04-03T14:06:31.962Z</time></trkpt><trkpt lat="45.883466450059494" lon="8.002421229570459"><ele>1365.3333333333333</ele><time>2026-04-03T14:06:32.962Z</time></trkpt><trkpt lat="45.88360628578102" lon="8.002292108430987"><ele>1371.6666666666665</ele><time>2026-04-03T14:06:33.962Z</time></trkpt><trkpt lat="45.88373503175749" lon="8.00215566787876"><ele>1378.0</ele><time>2026-04-03T14:06:34.962Z</time></trkpt><trkpt lat="45.88385089461311" lon="8.002003185818698"><ele>1378.0</ele><time>2026-04-03T14:06:35.962Z</time></trkpt><trkpt lat="45.883958860668606" lon="8.001831472677548"><ele>1378.0</ele><time>2026-04-03T14:06:36.962Z</time></trkpt><trkpt lat="45.88406798787411" lon="8.001670640239542"><ele>1378.0</ele><time>2026-04-03T14:06:37.962Z</time></trkpt><trkpt lat="45.884178158646705" lon="8.001533553194315"><ele>1382.0</ele><time>2026-04-03T14:06:38.962Z</time></trkpt><trkpt lat="45.88428235214645" lon="8.001437222015376"><ele>1386.0</ele><time>2026-04-03T14:06:39.962Z</time></trkpt><trkpt lat="45.884362041238255" lon="8.001333464769896"><ele>1390.0</ele><time>2026-04-03T14:06:40.962Z</time></trkpt><trkpt lat="45.88442759697261" lon="8.001215216182539"><ele>1394.0</ele><time>2026-04-03T14:06:41.962Z</time></trkpt><trkpt lat="45.884469197185595" lon="8.001090656900267"><ele>1398.0</ele><time>2026-04-03T14:06:42.962Z</time></trkpt><trkpt lat="45.88448638539519" lon="8.000969579832963"><ele>1398.0</ele><time>2026-04-03T14:06:43.962Z</time></trkpt><trkpt lat="45.88449077002487" lon="8.000851443640094"><ele>1398.0</ele><time>2026-04-03T14:06:44.962Z</time></trkpt><trkpt lat="45.88449452557146" lon="8.000745470744222"><ele>1398.0</ele><time>2026-04-03T14:06:45.962Z</time></trkpt><trkpt lat="45.884547370405656" lon="8.000637584914283"><ele>1398.0</ele><time>2026-04-03T14:06:47.962Z</time></trkpt><trkpt lat="45.88464504646476" lon="8.000696163864623"><ele>1398.0</ele><time>2026-04-03T14:06:49.965Z</time></trkpt><trkpt lat="45.88466312515217" lon="8.0007832320169"><ele>1398.0</ele><time>2026-04-03T14:06:50.965Z</time></trkpt><trkpt lat="45.88465455859913" lon="8.000901932638444"><ele>1398.0</ele><time>2026-04-03T14:06:51.966Z</time></trkpt><trkpt lat="45.884653526358875" lon="8.001028914341317"><ele>1398.0</ele><time>2026-04-03T14:06:52.966Z</time></trkpt><trkpt lat="45.88467133940454" lon="8.001126720797576"><ele>1398.0</ele><time>2026-04-03T14:06:53.966Z</time></trkpt><trkpt lat="45.884732684275846" lon="8.001199375560448"><ele>1398.0</ele><time>2026-04-03T14:06:55.966Z</time></trkpt><trkpt lat="45.88478556844569" lon="8.00112282530908"><ele>1398.0</ele><time>2026-04-03T14:06:57.966Z</time></trkpt><trkpt lat="45.88480835852912" lon="8.000906188474463"><ele>1397.2</ele><time>2026-04-03T14:06:59.966Z</time></trkpt><trkpt lat="45.884839478279545" lon="8.000780362047042"><ele>1396.4</ele><time>2026-04-03T14:07:00.966Z</time></trkpt><trkpt lat="45.88488697180475" lon="8.000680572369294"><ele>1395.6000000000001</ele><time>2026-04-03T14:07:01.966Z</time></trkpt><trkpt lat="45.88494509135723" lon="8.000599246721363"><ele>1394.8000000000002</ele><time>2026-04-03T14:07:02.966Z</time></trkpt><trkpt lat="45.884994360169145" lon="8.000525060095509"><ele>1394.0</ele><time>2026-04-03T14:07:03.966Z</time></trkpt><trkpt lat="45.88504707721849" lon="8.00037025347702"><ele>1394.0</ele><time>2026-04-03T14:07:05.966Z</time></trkpt><trkpt lat="45.88504633232961" lon="8.000274896863779"><ele>1394.0</ele><time>2026-04-03T14:07:06.966Z</time></trkpt><trkpt lat="45.88504613957448" lon="8.000114854732383"><ele>1394.0</ele><time>2026-04-03T14:07:08.966Z</time></trkpt><trkpt lat="45.88507659649743" lon="8.00001249345155"><ele>1394.0</ele><time>2026-04-03T14:07:10.966Z</time></trkpt><trkpt lat="45.88518313899542" lon="7.999984977265894"><ele>1394.0</ele><time>2026-04-03T14:07:12.966Z</time></trkpt><trkpt lat="45.88526886617394" lon="8.000055992881913"><ele>1398.2</ele><time>2026-04-03T14:07:14.966Z</time></trkpt><trkpt lat="45.88536770456243" lon="8.000115283576244"><ele>1402.4</ele><time>2026-04-03T14:07:16.966Z</time></trkpt><trkpt lat="45.88545677815706" lon="8.000112560419012"><ele>1406.6</ele><time>2026-04-03T14:07:18.966Z</time></trkpt><trkpt lat="45.88550894285506" lon="7.9999944020731855"><ele>1410.8</ele><time>2026-04-03T14:07:20.966Z</time></trkpt><trkpt lat="45.88548238866227" lon="7.999903905771779"><ele>1415.0</ele><time>2026-04-03T14:07:22.966Z</time></trkpt><trkpt lat="45.885396075876415" lon="7.999841268781534"><ele>1415.0</ele><time>2026-04-03T14:07:24.966Z</time></trkpt><trkpt lat="45.88527468698999" lon="7.999781565512963"><ele>1415.0</ele><time>2026-04-03T14:07:26.967Z</time></trkpt><trkpt lat="45.88521261905836" lon="7.999745703972911"><ele>1415.0</ele><time>2026-04-03T14:07:27.967Z</time></trkpt><trkpt lat="45.885153741085226" lon="7.999710814955134"><ele>1415.0</ele><time>2026-04-03T14:07:28.967Z</time></trkpt><trkpt lat="45.8850522510783" lon="7.999648011297752"><ele>1415.0</ele><time>2026-04-03T14:07:30.967Z</time></trkpt><trkpt lat="45.88498494025556" lon="7.999576077013925"><ele>1415.0</ele><time>2026-04-03T14:07:32.967Z</time></trkpt><trkpt lat="45.88492878511323" lon="7.999456515960847"><ele>1415.0</ele><time>2026-04-03T14:07:34.967Z</time></trkpt><trkpt lat="45.88488986598089" lon="7.99936476702371"><ele>1415.0</ele><time>2026-04-03T14:07:36.967Z</time></trkpt><trkpt lat="45.884910063764764" lon="7.999276928762858"><ele>1415.0</ele><time>2026-04-03T14:07:38.967Z</time></trkpt><trkpt lat="45.88497074087846" lon="7.999236081694561"><ele>1415.0</ele><time>2026-04-03T14:07:40.967Z</time></trkpt><trkpt lat="45.88507464844969" lon="7.9992992148174435"><ele>1415.0</ele><time>2026-04-03T14:07:42.967Z</time></trkpt><trkpt lat="45.88519093424173" lon="7.999366415262656"><ele>1415.0</ele><time>2026-04-03T14:07:44.967Z</time></trkpt><trkpt lat="45.88527268145461" lon="7.99937598740985"><ele>1415.0</ele><time>2026-04-03T14:07:46.967Z</time></trkpt><trkpt lat="45.88532509911236" lon="7.999285859913127"><ele>1415.0</ele><time>2026-04-03T14:07:49.967Z</time></trkpt><trkpt lat="45.88527803878325" lon="7.9991872306132175"><ele>1415.0</ele><time>2026-04-03T14:07:53.967Z</time></trkpt><trkpt lat="45.88521857373563" lon="7.999124767038706"><ele>1415.0</ele><time>2026-04-03T14:07:55.967Z</time></trkpt><trkpt lat="45.88530395570069" lon="7.999209290679918"><ele>1415.0</ele><time>2026-04-03T14:08:28.968Z</time></trkpt><trkpt lat="45.885352415443656" lon="7.999270027153318"><ele>1415.0</ele><time>2026-04-03T14:08:31.969Z</time></trkpt><trkpt lat="45.88528645028927" lon="7.999331399375517"><ele>1415.0</ele><time>2026-04-03T14:08:34.969Z</time></trkpt><trkpt lat="45.885186364015695" lon="7.999323252924197"><ele>1415.0</ele><time>2026-04-03T14:08:36.969Z</time></trkpt><trkpt lat="45.8851261887146" lon="7.9992937162599365"><ele>1415.0</ele><time>2026-04-03T14:08:37.969Z</time></trkpt><trkpt lat="45.88502975478153" lon="7.999221803237369"><ele>1415.0</ele><time>2026-04-03T14:08:39.969Z</time></trkpt><trkpt lat="45.884968988648595" lon="7.999190002463846"><ele>1415.0</ele><time>2026-04-03T14:08:41.969Z</time></trkpt><trkpt lat="45.88490115729456" lon="7.99925039316105"><ele>1415.0</ele><time>2026-04-03T14:08:44.969Z</time></trkpt><trkpt lat="45.8849174989501" lon="7.999391461094675"><ele>1415.0</ele><time>2026-04-03T14:08:47.969Z</time></trkpt><trkpt lat="45.88499379419121" lon="7.99953662044974"><ele>1415.0</ele><time>2026-04-03T14:08:49.969Z</time></trkpt><trkpt lat="45.88508508885309" lon="7.999619600164824"><ele>1415.0</ele><time>2026-04-03T14:08:51.969Z</time></trkpt><trkpt lat="45.885195764409644" lon="7.9996923155107575"><ele>1415.0</ele><time>2026-04-03T14:08:53.971Z</time></trkpt><trkpt lat="45.88525620036687" lon="7.999731318368681"><ele>1415.0</ele><time>2026-04-03T14:08:54.971Z</time></trkpt><trkpt lat="45.885361141332545" lon="7.99979876747441"><ele>1415.0</ele><time>2026-04-03T14:08:56.972Z</time></trkpt><trkpt lat="45.88545943896724" lon="7.99985755877991"><ele>1415.0</ele><time>2026-04-03T14:08:58.972Z</time></trkpt><trkpt lat="45.88548724175003" lon="7.9999717433671504"><ele>1415.0</ele><time>2026-04-03T14:09:00.973Z</time></trkpt><trkpt lat="45.885434721299745" lon="8.000074220922594"><ele>1415.0</ele><time>2026-04-03T14:09:02.972Z</time></trkpt><trkpt lat="45.88534474884324" lon="8.000067274115418"><ele>1415.0</ele><time>2026-04-03T14:09:04.972Z</time></trkpt><trkpt lat="45.88526613976677" lon="8.000015971040835"><ele>1415.0</ele><time>2026-04-03T14:09:06.972Z</time></trkpt><trkpt lat="45.88519181842626" lon="8.000034376009424"><ele>1415.0</ele><time>2026-04-03T14:09:09.973Z</time></trkpt></trkseg><trkseg><trkpt lat="45.88516995266967" lon="8.000089239716045"><ele>1415.0</ele><time>2026-04-03T14:31:10.011Z</time></trkpt><trkpt lat="45.885186372536474" lon="7.999962153213899"><ele>1415.0</ele><time>2026-04-03T14:31:18.006Z</time></trkpt><trkpt lat="45.88510185214976" lon="7.999970801939282"><ele>1415.0</ele><time>2026-04-03T14:31:20.005Z</time></trkpt><trkpt lat="45.885055921696846" lon="8.000037191926051"><ele>1415.0</ele><time>2026-04-03T14:31:22.005Z</time></trkpt><trkpt lat="45.885049426448724" lon="8.000190314311514"><ele>1415.0</ele><time>2026-04-03T14:31:24.004Z</time></trkpt><trkpt lat="45.885058509022116" lon="8.000284054893235"><ele>1415.0</ele><time>2026-04-03T14:31:25.004Z</time></trkpt><trkpt lat="45.88501676751846" lon="8.000504314142157"><ele>1411.6</ele><time>2026-04-03T14:31:28.003Z</time></trkpt><trkpt lat="45.884915750507346" lon="8.000628788211513"><ele>1408.2</ele><time>2026-04-03T14:31:30.003Z</time></trkpt><trkpt lat="45.88486763950272" lon="8.00069321796706"><ele>1404.8000000000002</ele><time>2026-04-03T14:31:31.003Z</time></trkpt><trkpt lat="45.88482584052559" lon="8.000763922932519"><ele>1401.4</ele><time>2026-04-03T14:31:32.003Z</time></trkpt><trkpt lat="45.88478846537828" lon="8.000939710676205"><ele>1398.0</ele><time>2026-04-03T14:31:34.002Z</time></trkpt><trkpt lat="45.884787266121094" lon="8.001040374647427"><ele>1398.0</ele><time>2026-04-03T14:31:35.002Z</time></trkpt><trkpt lat="45.88476941994798" lon="8.001159271209133"><ele>1398.0</ele><time>2026-04-03T14:31:37.002Z</time></trkpt><trkpt lat="45.88469374615964" lon="8.001158874729192"><ele>1398.0</ele><time>2026-04-03T14:31:39.002Z</time></trkpt><trkpt lat="45.884642184051984" lon="8.001038792704177"><ele>1398.0</ele><time>2026-04-03T14:31:41.002Z</time></trkpt><trkpt lat="45.88463753247463" lon="8.000936052524231"><ele>1398.0</ele><time>2026-04-03T14:31:42.002Z</time></trkpt><trkpt lat="45.88464638126676" lon="8.000821279253897"><ele>1398.0</ele><time>2026-04-03T14:31:43.002Z</time></trkpt><trkpt lat="45.88465238681593" lon="8.000714884514355"><ele>1398.0</ele><time>2026-04-03T14:31:44.001Z</time></trkpt><trkpt lat="45.88461109497912" lon="8.000622076189627"><ele>1398.0</ele><time>2026-04-03T14:31:46.001Z</time></trkpt><trkpt lat="45.884506992045836" lon="8.000669254028839"><ele>1398.0</ele><time>2026-04-03T14:31:48.001Z</time></trkpt><trkpt lat="45.88447709606392" lon="8.000835262736498"><ele>1398.0</ele><time>2026-04-03T14:31:50.001Z</time></trkpt><trkpt lat="45.88446731719219" lon="8.000967013044088"><ele>1398.0</ele><time>2026-04-03T14:31:51.001Z</time></trkpt><trkpt lat="45.88444848293136" lon="8.001103414295677"><ele>1398.0</ele><time>2026-04-03T14:31:52.001Z</time></trkpt><trkpt lat="45.88440315090413" lon="8.001231132204948"><ele>1398.0</ele><time>2026-04-03T14:31:53.001Z</time></trkpt><trkpt lat="45.884335160010096" lon="8.001341386970498"><ele>1398.0</ele><time>2026-04-03T14:31:54.001Z</time></trkpt><trkpt lat="45.88425869879852" lon="8.001444541322135"><ele>1398.0</ele><time>2026-04-03T14:31:55.001Z</time></trkpt><trkpt lat="45.884177731252045" lon="8.001546963089506"><ele>1398.0</ele><time>2026-04-03T14:31:56.001Z</time></trkpt><trkpt lat="45.88409303683279" lon="8.001645800838773"><ele>1394.0</ele><time>2026-04-03T14:31:57.001Z</time></trkpt><trkpt lat="45.88400770556029" lon="8.001746177299834"><ele>1390.0</ele><time>2026-04-03T14:31:58.001Z</time></trkpt><trkpt lat="45.88392945922033" lon="8.001856986212871"><ele>1386.0</ele><time>2026-04-03T14:31:59.001Z</time></trkpt><trkpt lat="45.88385193346326" lon="8.001974996140486"><ele>1382.0</ele><time>2026-04-03T14:32:00.001Z</time></trkpt><trkpt lat="45.88377736181622" lon="8.002098019653946"><ele>1378.0</ele><time>2026-04-03T14:32:01.001Z</time></trkpt><trkpt lat="45.88369771473893" lon="8.002217773711388"><ele>1378.0</ele><time>2026-04-03T14:32:02.001Z</time></trkpt><trkpt lat="45.88361003850163" lon="8.002325737919545"><ele>1378.0</ele><time>2026-04-03T14:32:03.001Z</time></trkpt><trkpt lat="45.883518781585764" lon="8.002421170121709"><ele>1378.0</ele><time>2026-04-03T14:32:04.001Z</time></trkpt><trkpt lat="45.883424061110745" lon="8.002509761314373"><ele>1378.0</ele><time>2026-04-03T14:32:05.001Z</time></trkpt><trkpt lat="45.883327944679515" lon="8.002599473859059"><ele>1373.25</ele><time>2026-04-03T14:32:06.001Z</time></trkpt><trkpt lat="45.88323403873727" lon="8.002693731156137"><ele>1368.5</ele><time>2026-04-03T14:32:07.001Z</time></trkpt><trkpt lat="45.883139699502216" lon="8.002781348016965"><ele>1363.75</ele><time>2026-04-03T14:32:08.001Z</time></trkpt><trkpt lat="45.883034041918755" lon="8.002855831666764"><ele>1359.0</ele><time>2026-04-03T14:32:09.001Z</time></trkpt><trkpt lat="45.88293894543738" lon="8.002946429922124"><ele>1359.0</ele><time>2026-04-03T14:32:10.001Z</time></trkpt><trkpt lat="45.88284164460952" lon="8.00304664285436"><ele>1359.0</ele><time>2026-04-03T14:32:11.001Z</time></trkpt><trkpt lat="45.88274348596406" lon="8.003138721399012"><ele>1359.0</ele><time>2026-04-03T14:32:12.001Z</time></trkpt><trkpt lat="45.88264923842145" lon="8.003227690076326"><ele>1359.0</ele><time>2026-04-03T14:32:13.001Z</time></trkpt><trkpt lat="45.882565141418276" lon="8.003313569649313"><ele>1358.0</ele><time>2026-04-03T14:32:14.001Z</time></trkpt><trkpt lat="45.88248901741942" lon="8.003405539329373"><ele>1357.0</ele><time>2026-04-03T14:32:15.001Z</time></trkpt><trkpt lat="45.88241700852382" lon="8.003508714140185"><ele>1356.0</ele><time>2026-04-03T14:32:16.001Z</time></trkpt><trkpt lat="45.8823471393655" lon="8.003625044677245"><ele>1355.0</ele><time>2026-04-03T14:32:17.001Z</time></trkpt><trkpt lat="45.88227335219502" lon="8.003748168412258"><ele>1354.0</ele><time>2026-04-03T14:32:18.001Z</time></trkpt><trkpt lat="45.882203638071985" lon="8.003867833362651"><ele>1354.0</ele><time>2026-04-03T14:32:19.001Z</time></trkpt><trkpt lat="45.88214098802936" lon="8.003979440266823"><ele>1354.0</ele><time>2026-04-03T14:32:20.001Z</time></trkpt><trkpt lat="45.88208964649451" lon="8.004092133224814"><ele>1354.0</ele><time>2026-04-03T14:32:21.001Z</time></trkpt><trkpt lat="45.88205311849722" lon="8.004208281727644"><ele>1354.0</ele><time>2026-04-03T14:32:22.001Z</time></trkpt><trkpt lat="45.882037052895164" lon="8.004330442468069"><ele>1354.0</ele><time>2026-04-03T14:32:23.001Z</time></trkpt><trkpt lat="45.88203483734049" lon="8.00446405810925"><ele>1353.5</ele><time>2026-04-03T14:32:24.001Z</time></trkpt><trkpt lat="45.882039963623754" lon="8.004595454287676"><ele>1353.0</ele><time>2026-04-03T14:32:25.001Z</time></trkpt><trkpt lat="45.88204373198919" lon="8.004729282643398"><ele>1352.5</ele><time>2026-04-03T14:32:26.001Z</time></trkpt><trkpt lat="45.882044464839616" lon="8.00485923484022"><ele>1352.0</ele><time>2026-04-03T14:32:27.001Z</time></trkpt><trkpt lat="45.882041278110634" lon="8.004985983358715"><ele>1351.5</ele><time>2026-04-03T14:32:28.001Z</time></trkpt><trkpt lat="45.88203308594936" lon="8.005093693009282"><ele>1351.0</ele><time>2026-04-03T14:32:29.001Z</time></trkpt><trkpt lat="45.88202576534653" lon="8.005185618316382"><ele>1351.0</ele><time>2026-04-03T14:32:30.001Z</time></trkpt><trkpt lat="45.8820095823443" lon="8.005317696134346"><ele>1351.0</ele><time>2026-04-03T14:32:32.001Z</time></trkpt><trkpt lat="45.88198775659358" lon="8.005414283837561"><ele>1351.0</ele><time>2026-04-03T14:32:35.002Z</time></trkpt><trkpt lat="45.88199418293557" lon="8.00551468524821"><ele>1351.0</ele><time>2026-04-03T14:35:47.006Z</time></trkpt><trkpt lat="45.881975314772816" lon="8.005627472063965"><ele>1351.0</ele><time>2026-04-03T14:35:49.006Z</time></trkpt><trkpt lat="45.881951752995164" lon="8.005757712720316"><ele>1351.0</ele><time>2026-04-03T14:35:51.006Z</time></trkpt><trkpt lat="45.88193337845291" lon="8.005888348529776"><ele>1350.6</ele><time>2026-04-03T14:35:53.006Z</time></trkpt><trkpt lat="45.88191452620544" lon="8.006033332505053"><ele>1350.1999999999998</ele><time>2026-04-03T14:35:55.006Z</time></trkpt><trkpt lat="45.881901112991976" lon="8.00612712812483"><ele>1349.8000000000002</ele><time>2026-04-03T14:35:56.006Z</time></trkpt><trkpt lat="45.8818850419289" lon="8.006245155470676"><ele>1349.4</ele><time>2026-04-03T14:35:57.006Z</time></trkpt><trkpt lat="45.881863030022146" lon="8.006380986661956"><ele>1349.0</ele><time>2026-04-03T14:35:58.006Z</time></trkpt><trkpt lat="45.881843331120535" lon="8.006521290193584"><ele>1349.0</ele><time>2026-04-03T14:35:59.006Z</time></trkpt><trkpt lat="45.88181538576295" lon="8.006657501201374"><ele>1349.0</ele><time>2026-04-03T14:36:00.006Z</time></trkpt><trkpt lat="45.88177920221556" lon="8.006789980328751"><ele>1349.0</ele><time>2026-04-03T14:36:01.006Z</time></trkpt><trkpt lat="45.88174068883652" lon="8.006918437930834"><ele>1349.0</ele><time>2026-04-03T14:36:02.006Z</time></trkpt><trkpt lat="45.881703171955316" lon="8.00703389174244"><ele>1349.0</ele><time>2026-04-03T14:36:03.006Z</time></trkpt><trkpt lat="45.881677740216" lon="8.007138830158544"><ele>1345.3333333333335</ele><time>2026-04-03T14:36:04.006Z</time></trkpt><trkpt lat="45.881662865798646" lon="8.007235836276767"><ele>1341.6666666666667</ele><time>2026-04-03T14:36:05.006Z</time></trkpt><trkpt lat="45.88160854699808" lon="8.007366300615967"><ele>1338.0</ele><time>2026-04-03T14:36:07.006Z</time></trkpt><trkpt lat="45.88153401535993" lon="8.007379418643161"><ele>1334.3333333333333</ele><time>2026-04-03T14:36:09.007Z</time></trkpt><trkpt lat="45.88149044397845" lon="8.00724825545825"><ele>1330.6666666666665</ele><time>2026-04-03T14:36:11.007Z</time></trkpt><trkpt lat="45.88150822608834" lon="8.007117645377834"><ele>1327.0</ele><time>2026-04-03T14:36:12.007Z</time></trkpt><trkpt lat="45.881518554535916" lon="8.007006867784762"><ele>1327.0</ele><time>2026-04-03T14:36:13.007Z</time></trkpt><trkpt lat="45.88152547084101" lon="8.006916767743833"><ele>1327.0</ele><time>2026-04-03T14:36:14.007Z</time></trkpt><trkpt lat="45.881496134575116" lon="8.0068220501337"><ele>1327.0</ele><time>2026-04-03T14:36:16.007Z</time></trkpt><trkpt lat="45.881410396551026" lon="8.006842943667015"><ele>1327.0</ele><time>2026-04-03T14:36:18.007Z</time></trkpt><trkpt lat="45.88135678508071" lon="8.007047656806797"><ele>1327.0</ele><time>2026-04-03T14:36:20.007Z</time></trkpt><trkpt lat="45.88132681856608" lon="8.007200415308118"><ele>1327.0</ele><time>2026-04-03T14:36:21.007Z</time></trkpt><trkpt lat="45.88129028593794" lon="8.007360203759534"><ele>1327.0</ele><time>2026-04-03T14:36:22.007Z</time></trkpt><trkpt lat="45.88127145774909" lon="8.007511191629067"><ele>1327.0</ele><time>2026-04-03T14:36:23.007Z</time></trkpt><trkpt lat="45.88126174208577" lon="8.007648360541404"><ele>1327.0</ele><time>2026-04-03T14:36:24.007Z</time></trkpt><trkpt lat="45.881262502264136" lon="8.007778740718397"><ele>1327.0</ele><time>2026-04-03T14:36:25.007Z</time></trkpt><trkpt lat="45.88126332027983" lon="8.007890956827447"><ele>1327.5</ele><time>2026-04-03T14:36:26.007Z</time></trkpt><trkpt lat="45.88123592664219" lon="8.008041570519886"><ele>1328.0</ele><time>2026-04-03T14:36:28.007Z</time></trkpt><trkpt lat="45.881165644919044" lon="8.008082203307557"><ele>1328.5</ele><time>2026-04-03T14:36:30.007Z</time></trkpt><trkpt lat="45.881104030614864" lon="8.008008403019629"><ele>1329.0</ele><time>2026-04-03T14:36:32.007Z</time></trkpt><trkpt lat="45.88107880051031" lon="8.00788336277808"><ele>1329.5</ele><time>2026-04-03T14:36:33.007Z</time></trkpt><trkpt lat="45.8810456788178" lon="8.007762235233645"><ele>1330.0</ele><time>2026-04-03T14:36:34.007Z</time></trkpt><trkpt lat="45.88099680943274" lon="8.00766023519914"><ele>1330.0</ele><time>2026-04-03T14:36:35.007Z</time></trkpt><trkpt lat="45.88094124354247" lon="8.007557142304135"><ele>1330.0</ele><time>2026-04-03T14:36:36.007Z</time></trkpt><trkpt lat="45.88090041233806" lon="8.007450938278405"><ele>1330.0</ele><time>2026-04-03T14:36:37.007Z</time></trkpt><trkpt lat="45.880880884720256" lon="8.007350896858807"><ele>1330.0</ele><time>2026-04-03T14:36:38.007Z</time></trkpt><trkpt lat="45.88087029780611" lon="8.00724863552836"><ele>1330.0</ele><time>2026-04-03T14:36:39.007Z</time></trkpt><trkpt lat="45.880827870052926" lon="8.007137530585162"><ele>1330.0</ele><time>2026-04-03T14:36:41.007Z</time></trkpt><trkpt lat="45.88075645564852" lon="8.007147460608397"><ele>1325.0</ele><time>2026-04-03T14:36:43.007Z</time></trkpt><trkpt lat="45.880722622336684" lon="8.00728372792852"><ele>1320.0</ele><time>2026-04-03T14:36:45.007Z</time></trkpt><trkpt lat="45.88073067494894" lon="8.007420377672743"><ele>1315.0</ele><time>2026-04-03T14:36:46.007Z</time></trkpt><trkpt lat="45.880730561594774" lon="8.007580494600973"><ele>1310.0</ele><time>2026-04-03T14:36:47.007Z</time></trkpt><trkpt lat="45.88072015984358" lon="8.00773894739039"><ele>1305.0</ele><time>2026-04-03T14:36:48.007Z</time></trkpt><trkpt lat="45.88069972309189" lon="8.007896772494583"><ele>1304.1666666666667</ele><time>2026-04-03T14:36:49.007Z</time></trkpt><trkpt lat="45.880669421200835" lon="8.008038240187647"><ele>1303.3333333333333</ele><time>2026-04-03T14:36:50.007Z</time></trkpt><trkpt lat="45.88064626985797" lon="8.008149963918875"><ele>1302.5</ele><time>2026-04-03T14:36:51.008Z</time></trkpt><trkpt lat="45.880607422893775" lon="8.00829112738138"><ele>1301.6666666666665</ele><time>2026-04-03T14:36:53.008Z</time></trkpt><trkpt lat="45.88053832733164" lon="8.008302622768587"><ele>1300.8333333333333</ele><time>2026-04-03T14:36:55.008Z</time></trkpt><trkpt lat="45.880506789105304" lon="8.008212679897616"><ele>1300.0</ele><time>2026-04-03T14:36:57.008Z</time></trkpt><trkpt lat="45.880522084143564" lon="8.008023067094124"><ele>1300.0</ele><time>2026-04-03T14:36:59.008Z</time></trkpt><trkpt lat="45.88053547362835" lon="8.007902716421802"><ele>1300.0</ele><time>2026-04-03T14:37:00.008Z</time></trkpt><trkpt lat="45.880550667550516" lon="8.007798064730519"><ele>1300.0</ele><time>2026-04-03T14:37:01.008Z</time></trkpt><trkpt lat="45.88055569015361" lon="8.007653163163054"><ele>1300.0</ele><time>2026-04-03T14:37:03.008Z</time></trkpt><trkpt lat="45.880489319586424" lon="8.007611804886853"><ele>1300.0</ele><time>2026-04-03T14:37:05.008Z</time></trkpt><trkpt lat="45.880421862114886" lon="8.007727373073037"><ele>1300.0</ele><time>2026-04-03T14:37:07.008Z</time></trkpt><trkpt lat="45.88040997763398" lon="8.007843302413367"><ele>1300.0</ele><time>2026-04-03T14:37:08.008Z</time></trkpt><trkpt lat="45.880400610611375" lon="8.00795832573908"><ele>1300.0</ele><time>2026-04-03T14:37:09.008Z</time></trkpt><trkpt lat="45.880368367462616" lon="8.008075314866833"><ele>1300.0</ele><time>2026-04-03T14:37:10.008Z</time></trkpt><trkpt lat="45.88030908392937" lon="8.008178800033193"><ele>1300.0</ele><time>2026-04-03T14:37:11.008Z</time></trkpt><trkpt lat="45.88024685284914" lon="8.008269204899623"><ele>1300.0</ele><time>2026-04-03T14:37:12.008Z</time></trkpt><trkpt lat="45.88020593667304" lon="8.00834963723701"><ele>1300.0</ele><time>2026-04-03T14:37:13.008Z</time></trkpt><trkpt lat="45.88018781598716" lon="8.008529661666811"><ele>1300.142857142857</ele><time>2026-04-03T14:37:15.008Z</time></trkpt><trkpt lat="45.88019926224386" lon="8.008630190051864"><ele>1300.2857142857144</ele><time>2026-04-03T14:37:16.008Z</time></trkpt><trkpt lat="45.88020900900565" lon="8.008723371638322"><ele>1300.4285714285716</ele><time>2026-04-03T14:37:17.008Z</time></trkpt><trkpt lat="45.88022306720034" lon="8.008819419108152"><ele>1300.5714285714284</ele><time>2026-04-03T14:37:18.008Z</time></trkpt><trkpt lat="45.88023221654837" lon="8.008923759447509"><ele>1300.7142857142858</ele><time>2026-04-03T14:37:19.008Z</time></trkpt><trkpt lat="45.88024353265775" lon="8.009042034690372"><ele>1300.857142857143</ele><time>2026-04-03T14:37:20.008Z</time></trkpt><trkpt lat="45.88025628531863" lon="8.009158285085821"><ele>1301.0</ele><time>2026-04-03T14:37:21.008Z</time></trkpt><trkpt lat="45.88027033394155" lon="8.009260712838158"><ele>1302.5</ele><time>2026-04-03T14:37:22.008Z</time></trkpt><trkpt lat="45.88025722635832" lon="8.009400746269337"><ele>1304.0</ele><time>2026-04-03T14:37:24.008Z</time></trkpt><trkpt lat="45.880185696158605" lon="8.009428145328918"><ele>1305.5</ele><time>2026-04-03T14:37:26.008Z</time></trkpt><trkpt lat="45.8801253571541" lon="8.009351628734898"><ele>1307.0</ele><time>2026-04-03T14:37:28.008Z</time></trkpt><trkpt lat="45.88010933505257" lon="8.00923089674295"><ele>1308.5</ele><time>2026-04-03T14:37:30.008Z</time></trkpt><trkpt lat="45.88003646404643" lon="8.009153999817627"><ele>1310.0</ele><time>2026-04-03T14:37:32.008Z</time></trkpt><trkpt lat="45.879910185611756" lon="8.009201190791126"><ele>1304.6666666666667</ele><time>2026-04-03T14:37:34.009Z</time></trkpt><trkpt lat="45.87984400645423" lon="8.009220875743685"><ele>1299.3333333333335</ele><time>2026-04-03T14:37:35.009Z</time></trkpt><trkpt lat="45.87975181835482" lon="8.00928072972259"><ele>1294.0</ele><time>2026-04-03T14:37:37.009Z</time></trkpt><trkpt lat="45.87971173330344" lon="8.009411650260324"><ele>1288.6666666666667</ele><time>2026-04-03T14:37:39.009Z</time></trkpt><trkpt lat="45.879694717749935" lon="8.009514146208788"><ele>1283.3333333333333</ele><time>2026-04-03T14:37:40.009Z</time></trkpt><trkpt lat="45.879650863854835" lon="8.00963280775439"><ele>1278.0</ele><time>2026-04-03T14:37:41.009Z</time></trkpt><trkpt lat="45.87959751635323" lon="8.009752774555741"><ele>1278.0</ele><time>2026-04-03T14:37:42.009Z</time></trkpt><trkpt lat="45.879526054601534" lon="8.009889222741615"><ele>1278.0</ele><time>2026-04-03T14:37:43.009Z</time></trkpt><trkpt lat="45.87943991407289" lon="8.010044916526791"><ele>1278.0</ele><time>2026-04-03T14:37:44.009Z</time></trkpt><trkpt lat="45.879349694167" lon="8.010217631211152"><ele>1278.0</ele><time>2026-04-03T14:37:45.009Z</time></trkpt><trkpt lat="45.879263330537846" lon="8.010384497391415"><ele>1277.75</ele><time>2026-04-03T14:37:46.009Z</time></trkpt><trkpt lat="45.87917621420978" lon="8.010551513225025"><ele>1277.5</ele><time>2026-04-03T14:37:47.009Z</time></trkpt><trkpt lat="45.87908541173721" lon="8.010723734087266"><ele>1277.25</ele><time>2026-04-03T14:37:48.009Z</time></trkpt><trkpt lat="45.87899282447323" lon="8.010899824349334"><ele>1277.0</ele><time>2026-04-03T14:37:49.009Z</time></trkpt><trkpt lat="45.87889954148257" lon="8.011077744329459"><ele>1272.3333333333335</ele><time>2026-04-03T14:37:50.009Z</time></trkpt><trkpt lat="45.87880635653264" lon="8.011256133391488"><ele>1267.6666666666667</ele><time>2026-04-03T14:37:51.009Z</time></trkpt><trkpt lat="45.87871013380476" lon="8.011433406382556"><ele>1263.0</ele><time>2026-04-03T14:37:52.009Z</time></trkpt><trkpt lat="45.878613761178364" lon="8.011616553581225"><ele>1261.3333333333333</ele><time>2026-04-03T14:37:53.009Z</time></trkpt><trkpt lat="45.87851695381789" lon="8.011802550885518"><ele>1259.6666666666665</ele><time>2026-04-03T14:37:54.009Z</time></trkpt><trkpt lat="45.878421895690444" lon="8.011984585961317"><ele>1258.0</ele><time>2026-04-03T14:37:55.009Z</time></trkpt><trkpt lat="45.87833015043239" lon="8.012159431307886"><ele>1256.25</ele><time>2026-04-03T14:37:56.009Z</time></trkpt><trkpt lat="45.87824259015952" lon="8.012327674282197"><ele>1254.5</ele><time>2026-04-03T14:37:57.009Z</time></trkpt><trkpt lat="45.878159031578" lon="8.01249706056211"><ele>1252.75</ele><time>2026-04-03T14:37:58.009Z</time></trkpt><trkpt lat="45.87808465566109" lon="8.012679159258496"><ele>1251.0</ele><time>2026-04-03T14:37:59.009Z</time></trkpt><trkpt lat="45.8780223329911" lon="8.012873978314136"><ele>1251.0</ele><time>2026-04-03T14:38:00.009Z</time></trkpt><trkpt lat="45.87797251278143" lon="8.013074682106096"><ele>1251.0</ele><time>2026-04-03T14:38:01.009Z</time></trkpt><trkpt lat="45.877916504358495" lon="8.01326942485055"><ele>1251.0</ele><time>2026-04-03T14:38:02.009Z</time></trkpt><trkpt lat="45.87785463456843" lon="8.01346655447522"><ele>1251.0</ele><time>2026-04-03T14:38:03.009Z</time></trkpt><trkpt lat="45.87777017946561" lon="8.013663289592733"><ele>1250.6666666666667</ele><time>2026-04-03T14:38:04.009Z</time></trkpt><trkpt lat="45.877679298914785" lon="8.013859454128657"><ele>1250.3333333333335</ele><time>2026-04-03T14:38:05.009Z</time></trkpt><trkpt lat="45.87758565693725" lon="8.01404440097503"><ele>1250.0</ele><time>2026-04-03T14:38:06.009Z</time></trkpt><trkpt lat="45.87749898884098" lon="8.014226575367225"><ele>1248.5</ele><time>2026-04-03T14:38:07.009Z</time></trkpt><trkpt lat="45.877417170466636" lon="8.01440211936071"><ele>1247.0</ele><time>2026-04-03T14:38:08.009Z</time></trkpt><trkpt lat="45.87733357139537" lon="8.014568530260854"><ele>1245.5</ele><time>2026-04-03T14:38:09.009Z</time></trkpt><trkpt lat="45.87725482473585" lon="8.014733395353781"><ele>1244.0</ele><time>2026-04-03T14:38:10.009Z</time></trkpt><trkpt lat="45.87717082285403" lon="8.014896448772586"><ele>1241.25</ele><time>2026-04-03T14:38:11.009Z</time></trkpt><trkpt lat="45.877078460105615" lon="8.01504849338929"><ele>1238.5</ele><time>2026-04-03T14:38:12.009Z</time></trkpt><trkpt lat="45.876980030316155" lon="8.0151817103534"><ele>1235.75</ele><time>2026-04-03T14:38:13.009Z</time></trkpt><trkpt lat="45.876895098451" lon="8.015304267637799"><ele>1233.0</ele><time>2026-04-03T14:38:14.009Z</time></trkpt><trkpt lat="45.8768114167003" lon="8.015405480788667"><ele>1234.2</ele><time>2026-04-03T14:38:15.01Z</time></trkpt><trkpt lat="45.8767195854307" lon="8.015480040437204"><ele>1235.4</ele><time>2026-04-03T14:38:16.01Z</time></trkpt><trkpt lat="45.87662050108128" lon="8.015530139625097"><ele>1236.6000000000001</ele><time>2026-04-03T14:38:17.01Z</time></trkpt><trkpt lat="45.87651351195089" lon="8.015550303965359"><ele>1237.8</ele><time>2026-04-03T14:38:18.01Z</time></trkpt><trkpt lat="45.876393542107685" lon="8.01554356587786"><ele>1239.0</ele><time>2026-04-03T14:38:19.01Z</time></trkpt><trkpt lat="45.876268134455835" lon="8.015521840434552"><ele>1239.0</ele><time>2026-04-03T14:38:20.01Z</time></trkpt><trkpt lat="45.87614688346237" lon="8.015507775335365"><ele>1239.0</ele><time>2026-04-03T14:38:21.01Z</time></trkpt><trkpt lat="45.876028301390214" lon="8.015521795100845"><ele>1239.0</ele><time>2026-04-03T14:38:22.01Z</time></trkpt><trkpt lat="45.87590908110102" lon="8.0155721526098"><ele>1239.0</ele><time>2026-04-03T14:38:23.01Z</time></trkpt><trkpt lat="45.87577825857764" lon="8.015662700059355"><ele>1241.0</ele><time>2026-04-03T14:38:24.01Z</time></trkpt><trkpt lat="45.8756465689288" lon="8.015781912436509"><ele>1243.0</ele><time>2026-04-03T14:38:25.01Z</time></trkpt><trkpt lat="45.87550454383049" lon="8.015931775685637"><ele>1245.0</ele><time>2026-04-03T14:38:26.01Z</time></trkpt><trkpt lat="45.87534907986377" lon="8.016101605597562"><ele>1240.6666666666667</ele><time>2026-04-03T14:38:27.01Z</time></trkpt><trkpt lat="45.8751908107749" lon="8.01627288255161"><ele>1236.3333333333335</ele><time>2026-04-03T14:38:28.01Z</time></trkpt><trkpt lat="45.87503717850065" lon="8.016442562324734"><ele>1232.0</ele><time>2026-04-03T14:38:29.01Z</time></trkpt><trkpt lat="45.874881846858926" lon="8.016617547471233"><ele>1225.0</ele><time>2026-04-03T14:38:30.01Z</time></trkpt><trkpt lat="45.87472790534976" lon="8.01678745671366"><ele>1218.0</ele><time>2026-04-03T14:38:31.01Z</time></trkpt><trkpt lat="45.87457814469258" lon="8.016953169677054"><ele>1211.0</ele><time>2026-04-03T14:38:32.01Z</time></trkpt><trkpt lat="45.87443401134123" lon="8.017110765126459"><ele>1211.0</ele><time>2026-04-03T14:38:33.01Z</time></trkpt><trkpt lat="45.87429001314588" lon="8.017275713574948"><ele>1211.0</ele><time>2026-04-03T14:38:34.01Z</time></trkpt><trkpt lat="45.874150044338116" lon="8.017436382142993"><ele>1211.0</ele><time>2026-04-03T14:38:35.01Z</time></trkpt><trkpt lat="45.874015663107116" lon="8.017604468950996"><ele>1207.3333333333335</ele><time>2026-04-03T14:38:36.01Z</time></trkpt><trkpt lat="45.8738871177524" lon="8.017774239293232"><ele>1203.6666666666667</ele><time>2026-04-03T14:38:37.01Z</time></trkpt><trkpt lat="45.87376015950888" lon="8.017946927213307"><ele>1200.0</ele><time>2026-04-03T14:38:38.01Z</time></trkpt><trkpt lat="45.8736298710584" lon="8.01812724341655"><ele>1200.0</ele><time>2026-04-03T14:38:39.01Z</time></trkpt><trkpt lat="45.87349857105039" lon="8.018298571280972"><ele>1200.0</ele><time>2026-04-03T14:38:40.01Z</time></trkpt><trkpt lat="45.87336922038182" lon="8.018472863329865"><ele>1200.0</ele><time>2026-04-03T14:38:41.01Z</time></trkpt><trkpt lat="45.87324269835157" lon="8.018645743064956"><ele>1198.3333333333333</ele><time>2026-04-03T14:38:42.01Z</time></trkpt><trkpt lat="45.87312344855557" lon="8.018810537788669"><ele>1196.6666666666665</ele><time>2026-04-03T14:38:43.01Z</time></trkpt><trkpt lat="45.873009241009" lon="8.018967107746262"><ele>1195.0</ele><time>2026-04-03T14:38:44.01Z</time></trkpt><trkpt lat="45.87289939550135" lon="8.01911534802089"><ele>1193.4</ele><time>2026-04-03T14:38:45.01Z</time></trkpt><trkpt lat="45.87279950462123" lon="8.01923374080238"><ele>1191.8</ele><time>2026-04-03T14:38:46.01Z</time></trkpt><trkpt lat="45.87270417253754" lon="8.019332766179996"><ele>1190.2</ele><time>2026-04-03T14:38:47.01Z</time></trkpt><trkpt lat="45.87261451139882" lon="8.019402728972336"><ele>1188.6</ele><time>2026-04-03T14:38:48.01Z</time></trkpt><trkpt lat="45.872527985179374" lon="8.0194400639382"><ele>1187.0</ele><time>2026-04-03T14:38:49.01Z</time></trkpt><trkpt lat="45.87243465350004" lon="8.019450157444071"><ele>1184.75</ele><time>2026-04-03T14:38:50.01Z</time></trkpt><trkpt lat="45.87233192637573" lon="8.019431059474341"><ele>1182.5</ele><time>2026-04-03T14:38:51.01Z</time></trkpt><trkpt lat="45.872211082718096" lon="8.01938714789394"><ele>1180.25</ele><time>2026-04-03T14:38:52.01Z</time></trkpt><trkpt lat="45.872083424874916" lon="8.019338324624258"><ele>1178.0</ele><time>2026-04-03T14:38:53.01Z</time></trkpt><trkpt lat="45.87195652801777" lon="8.01931713720887"><ele>1178.0</ele><time>2026-04-03T14:38:54.01Z</time></trkpt><trkpt lat="45.87182289856336" lon="8.01931064686365"><ele>1178.0</ele><time>2026-04-03T14:38:55.01Z</time></trkpt><trkpt lat="45.871673049559014" lon="8.019330005042763"><ele>1178.0</ele><time>2026-04-03T14:38:56.01Z</time></trkpt><trkpt lat="45.87150742424525" lon="8.019379806346194"><ele>1180.6666666666667</ele><time>2026-04-03T14:38:57.01Z</time></trkpt><trkpt lat="45.87133272985658" lon="8.019442892057498"><ele>1183.3333333333333</ele><time>2026-04-03T14:38:58.011Z</time></trkpt><trkpt lat="45.87115165660313" lon="8.019506563120666"><ele>1186.0</ele><time>2026-04-03T14:38:59.011Z</time></trkpt><trkpt lat="45.87095417309218" lon="8.019580987168023"><ele>1190.6666666666665</ele><time>2026-04-03T14:39:00.011Z</time></trkpt><trkpt lat="45.87075920784566" lon="8.019654219146087"><ele>1195.3333333333333</ele><time>2026-04-03T14:39:01.011Z</time></trkpt><trkpt lat="45.87056800205628" lon="8.019724942996511"><ele>1200.0</ele><time>2026-04-03T14:39:02.011Z</time></trkpt><trkpt lat="45.870382715776266" lon="8.01979242554178"><ele>1200.0</ele><time>2026-04-03T14:39:03.011Z</time></trkpt><trkpt lat="45.87020900432538" lon="8.019858408462325"><ele>1200.0</ele><time>2026-04-03T14:39:04.011Z</time></trkpt><trkpt lat="45.87003812149635" lon="8.019918833221077"><ele>1200.0</ele><time>2026-04-03T14:39:05.011Z</time></trkpt><trkpt lat="45.86987436433347" lon="8.019985277730624"><ele>1190.6666666666667</ele><time>2026-04-03T14:39:06.011Z</time></trkpt><trkpt lat="45.869721216623276" lon="8.020069556877319"><ele>1181.3333333333335</ele><time>2026-04-03T14:39:07.011Z</time></trkpt><trkpt lat="45.86957432775405" lon="8.020157428586831"><ele>1172.0</ele><time>2026-04-03T14:39:08.011Z</time></trkpt><trkpt lat="45.86943460655915" lon="8.020254636332824"><ele>1172.0</ele><time>2026-04-03T14:39:09.011Z</time></trkpt><trkpt lat="45.86929719936303" lon="8.020370961284748"><ele>1172.0</ele><time>2026-04-03T14:39:10.011Z</time></trkpt><trkpt lat="45.86915485236729" lon="8.020518856052028"><ele>1172.0</ele><time>2026-04-03T14:39:11.011Z</time></trkpt><trkpt lat="45.86901008451407" lon="8.020682640204406"><ele>1166.3333333333335</ele><time>2026-04-03T14:39:12.011Z</time></trkpt><trkpt lat="45.86886808519003" lon="8.020845350859945"><ele>1160.6666666666667</ele><time>2026-04-03T14:39:13.011Z</time></trkpt><trkpt lat="45.86873599084371" lon="8.020987017517779"><ele>1155.0</ele><time>2026-04-03T14:39:14.011Z</time></trkpt><trkpt lat="45.868612236821534" lon="8.021110412494082"><ele>1155.0</ele><time>2026-04-03T14:39:15.011Z</time></trkpt><trkpt lat="45.8684858747356" lon="8.021231048506241"><ele>1155.0</ele><time>2026-04-03T14:39:16.011Z</time></trkpt><trkpt lat="45.86835521498065" lon="8.02131642252352"><ele>1155.0</ele><time>2026-04-03T14:39:17.011Z</time></trkpt><trkpt lat="45.86821068816962" lon="8.021376337763535"><ele>1155.0</ele><time>2026-04-03T14:39:18.011Z</time></trkpt><trkpt lat="45.86805021728936" lon="8.021414961392278"><ele>1156.6666666666667</ele><time>2026-04-03T14:39:19.011Z</time></trkpt><trkpt lat="45.86788608459008" lon="8.021421095884918"><ele>1158.3333333333335</ele><time>2026-04-03T14:39:20.011Z</time></trkpt><trkpt lat="45.86772353104324" lon="8.0214148841394"><ele>1160.0</ele><time>2026-04-03T14:39:21.011Z</time></trkpt><trkpt lat="45.867567544126665" lon="8.021425879883937"><ele>1164.3333333333335</ele><time>2026-04-03T14:39:22.011Z</time></trkpt><trkpt lat="45.86741016617797" lon="8.021468326442449"><ele>1168.6666666666667</ele><time>2026-04-03T14:39:23.011Z</time></trkpt><trkpt lat="45.86726158896032" lon="8.021535066111783"><ele>1173.0</ele><time>2026-04-03T14:39:24.011Z</time></trkpt><trkpt lat="45.867123281487714" lon="8.021621065265272"><ele>1167.75</ele><time>2026-04-03T14:39:25.011Z</time></trkpt><trkpt lat="45.86699716295951" lon="8.021727446200616"><ele>1162.5</ele><time>2026-04-03T14:39:26.011Z</time></trkpt><trkpt lat="45.86688355444689" lon="8.021851868499253"><ele>1157.25</ele><time>2026-04-03T14:39:27.011Z</time></trkpt><trkpt lat="45.866784098824354" lon="8.02199080421705"><ele>1152.0</ele><time>2026-04-03T14:39:28.011Z</time></trkpt><trkpt lat="45.86669930459724" lon="8.022130621000404"><ele>1152.0</ele><time>2026-04-03T14:39:29.011Z</time></trkpt><trkpt lat="45.866653249640436" lon="8.022252274979962"><ele>1152.0</ele><time>2026-04-03T14:39:30.011Z</time></trkpt><trkpt lat="45.86662266115007" lon="8.02238194376752"><ele>1152.0</ele><time>2026-04-03T14:39:31.011Z</time></trkpt><trkpt lat="45.86656717400171" lon="8.022508419329409"><ele>1152.0</ele><time>2026-04-03T14:39:32.011Z</time></trkpt><trkpt lat="45.866479608871146" lon="8.02262822168111"><ele>1152.0</ele><time>2026-04-03T14:39:33.011Z</time></trkpt><trkpt lat="45.866371648815644" lon="8.02272471009328"><ele>1145.75</ele><time>2026-04-03T14:39:34.011Z</time></trkpt><trkpt lat="45.866258321607276" lon="8.022804098242789"><ele>1139.5</ele><time>2026-04-03T14:39:35.011Z</time></trkpt><trkpt lat="45.86614170732716" lon="8.022875123143116"><ele>1133.25</ele><time>2026-04-03T14:39:36.011Z</time></trkpt><trkpt lat="45.866026758863526" lon="8.022946134013223"><ele>1127.0</ele><time>2026-04-03T14:39:37.011Z</time></trkpt><trkpt lat="45.86591688523487" lon="8.023016299348745"><ele>1127.0</ele><time>2026-04-03T14:39:38.011Z</time></trkpt><trkpt lat="45.86581148238008" lon="8.023091786231634"><ele>1127.0</ele><time>2026-04-03T14:39:39.011Z</time></trkpt><trkpt lat="45.8657154918682" lon="8.02315714651377"><ele>1127.0</ele><time>2026-04-03T14:39:40.012Z</time></trkpt><trkpt lat="45.86562664148692" lon="8.023225634252265"><ele>1127.0</ele><time>2026-04-03T14:39:41.012Z</time></trkpt><trkpt lat="45.86554339167979" lon="8.023316327180634"><ele>1127.0</ele><time>2026-04-03T14:39:42.012Z</time></trkpt><trkpt lat="45.86545576251579" lon="8.023434116687769"><ele>1125.5</ele><time>2026-04-03T14:39:43.012Z</time></trkpt><trkpt lat="45.86536911082754" lon="8.023576296457604"><ele>1124.0</ele><time>2026-04-03T14:39:44.012Z</time></trkpt><trkpt lat="45.865280137687996" lon="8.023732420486665"><ele>1122.5</ele><time>2026-04-03T14:39:45.012Z</time></trkpt><trkpt lat="45.86520367402842" lon="8.02389820551849"><ele>1121.0</ele><time>2026-04-03T14:39:46.012Z</time></trkpt><trkpt lat="45.865133934152304" lon="8.024079445758089"><ele>1120.25</ele><time>2026-04-03T14:39:47.012Z</time></trkpt><trkpt lat="45.86507944131527" lon="8.024261656467116"><ele>1119.5</ele><time>2026-04-03T14:39:48.012Z</time></trkpt><trkpt lat="45.86502369969848" lon="8.024421289238942"><ele>1118.75</ele><time>2026-04-03T14:39:49.012Z</time></trkpt><trkpt lat="45.864944023804" lon="8.024576055610988"><ele>1118.0</ele><time>2026-04-03T14:39:50.012Z</time></trkpt><trkpt lat="45.864840271616394" lon="8.02472291098201"><ele>1118.0</ele><time>2026-04-03T14:39:51.012Z</time></trkpt><trkpt lat="45.86470975258288" lon="8.024851914556011"><ele>1118.0</ele><time>2026-04-03T14:39:52.012Z</time></trkpt><trkpt lat="45.86456850654995" lon="8.02498331265378"><ele>1118.0</ele><time>2026-04-03T14:39:53.012Z</time></trkpt><trkpt lat="45.86442881767633" lon="8.02511111664319"><ele>1118.5</ele><time>2026-04-03T14:39:54.012Z</time></trkpt><trkpt lat="45.86430762731665" lon="8.025226032570993"><ele>1119.0</ele><time>2026-04-03T14:39:55.012Z</time></trkpt><trkpt lat="45.86420305567991" lon="8.025343532170309"><ele>1119.5</ele><time>2026-04-03T14:39:56.012Z</time></trkpt><trkpt lat="45.864119137624996" lon="8.02547780485448"><ele>1120.0</ele><time>2026-04-03T14:39:57.012Z</time></trkpt><trkpt lat="45.86404462527735" lon="8.025639553689071"><ele>1116.75</ele><time>2026-04-03T14:39:58.012Z</time></trkpt><trkpt lat="45.863979585354535" lon="8.025823149743825"><ele>1113.5</ele><time>2026-04-03T14:39:59.012Z</time></trkpt><trkpt lat="45.8639301481606" lon="8.026005323131681"><ele>1110.25</ele><time>2026-04-03T14:40:00.012Z</time></trkpt><trkpt lat="45.86389524677631" lon="8.026181607542913"><ele>1107.0</ele><time>2026-04-03T14:40:01.012Z</time></trkpt><trkpt lat="45.86386916749742" lon="8.026346378183865"><ele>1107.0</ele><time>2026-04-03T14:40:02.012Z</time></trkpt><trkpt lat="45.86382811766387" lon="8.02649158889946"><ele>1107.0</ele><time>2026-04-03T14:40:03.012Z</time></trkpt><trkpt lat="45.86376262181628" lon="8.026613256355594"><ele>1107.0</ele><time>2026-04-03T14:40:04.012Z</time></trkpt><trkpt lat="45.86367576903848" lon="8.026713281840223"><ele>1107.0</ele><time>2026-04-03T14:40:05.012Z</time></trkpt><trkpt lat="45.86356977303699" lon="8.026789795778646"><ele>1107.0</ele><time>2026-04-03T14:40:06.012Z</time></trkpt><trkpt lat="45.86345199664968" lon="8.026860344054393"><ele>1107.3333333333333</ele><time>2026-04-03T14:40:07.012Z</time></trkpt><trkpt lat="45.86333742465719" lon="8.026983307904846"><ele>1107.6666666666665</ele><time>2026-04-03T14:40:08.012Z</time></trkpt><trkpt lat="45.863217014650075" lon="8.02713791718747"><ele>1108.0</ele><time>2026-04-03T14:40:09.012Z</time></trkpt><trkpt lat="45.86310164483016" lon="8.027290735872274"><ele>1108.0</ele><time>2026-04-03T14:40:10.012Z</time></trkpt><trkpt lat="45.862991010302366" lon="8.027435088990382"><ele>1108.0</ele><time>2026-04-03T14:40:11.012Z</time></trkpt><trkpt lat="45.86287081714821" lon="8.02757492409466"><ele>1108.0</ele><time>2026-04-03T14:40:12.012Z</time></trkpt><trkpt lat="45.86273378095458" lon="8.027692768930567"><ele>1107.5</ele><time>2026-04-03T14:40:13.012Z</time></trkpt><trkpt lat="45.862600143064896" lon="8.027801956060564"><ele>1107.0</ele><time>2026-04-03T14:40:14.012Z</time></trkpt><trkpt lat="45.86248714321606" lon="8.027929003676665"><ele>1106.5</ele><time>2026-04-03T14:40:15.012Z</time></trkpt><trkpt lat="45.862399939630265" lon="8.028085147714345"><ele>1106.0</ele><time>2026-04-03T14:40:16.012Z</time></trkpt><trkpt lat="45.86232337804657" lon="8.028288410500199"><ele>1099.6666666666667</ele><time>2026-04-03T14:40:17.012Z</time></trkpt><trkpt lat="45.86224613661645" lon="8.02852853332566"><ele>1093.3333333333333</ele><time>2026-04-03T14:40:18.012Z</time></trkpt><trkpt lat="45.86217024324944" lon="8.028763464299168"><ele>1087.0</ele><time>2026-04-03T14:40:19.012Z</time></trkpt><trkpt lat="45.86209741400331" lon="8.028990595793429"><ele>1081.6666666666665</ele><time>2026-04-03T14:40:20.012Z</time></trkpt><trkpt lat="45.86202235604544" lon="8.029212567770086"><ele>1076.3333333333333</ele><time>2026-04-03T14:40:21.012Z</time></trkpt><trkpt lat="45.86193278709966" lon="8.02941863479572"><ele>1071.0</ele><time>2026-04-03T14:40:22.013Z</time></trkpt><trkpt lat="45.86182323420543" lon="8.02961705262975"><ele>1072.0</ele><time>2026-04-03T14:40:23.013Z</time></trkpt><trkpt lat="45.861702880250704" lon="8.029800645621764"><ele>1073.0</ele><time>2026-04-03T14:40:24.013Z</time></trkpt><trkpt lat="45.86159452348401" lon="8.029959842129589"><ele>1074.0</ele><time>2026-04-03T14:40:25.013Z</time></trkpt><trkpt lat="45.86149327818528" lon="8.030112813450856"><ele>1074.0</ele><time>2026-04-03T14:40:26.013Z</time></trkpt><trkpt lat="45.861408057726855" lon="8.030270544864752"><ele>1074.0</ele><time>2026-04-03T14:40:27.013Z</time></trkpt><trkpt lat="45.861334729724625" lon="8.030419300396076"><ele>1074.0</ele><time>2026-04-03T14:40:28.013Z</time></trkpt><trkpt lat="45.86128481435732" lon="8.03058773925321"><ele>1074.0</ele><time>2026-04-03T14:40:29.013Z</time></trkpt><trkpt lat="45.86125892126156" lon="8.030788341719765"><ele>1069.3333333333333</ele><time>2026-04-03T14:40:30.013Z</time></trkpt><trkpt lat="45.86123051257018" lon="8.031028592111202"><ele>1064.6666666666665</ele><time>2026-04-03T14:40:31.013Z</time></trkpt><trkpt lat="45.86119228150837" lon="8.031284969853823"><ele>1060.0</ele><time>2026-04-03T14:40:32.013Z</time></trkpt><trkpt lat="45.861147245852074" lon="8.031540369401867"><ele>1057.6666666666665</ele><time>2026-04-03T14:40:33.013Z</time></trkpt><trkpt lat="45.8611131648995" lon="8.031816038097007"><ele>1055.3333333333333</ele><time>2026-04-03T14:40:34.013Z</time></trkpt><trkpt lat="45.86108432735765" lon="8.032112579089905"><ele>1053.0</ele><time>2026-04-03T14:40:35.013Z</time></trkpt><trkpt lat="45.86106122397672" lon="8.032413585289023"><ele>1050.6666666666667</ele><time>2026-04-03T14:40:36.013Z</time></trkpt><trkpt lat="45.86103893190304" lon="8.032712553946691"><ele>1048.3333333333335</ele><time>2026-04-03T14:40:37.013Z</time></trkpt><trkpt lat="45.861019657668685" lon="8.033000127125112"><ele>1046.0</ele><time>2026-04-03T14:40:38.013Z</time></trkpt><trkpt lat="45.86100178051909" lon="8.033276410913903"><ele>1044.6666666666667</ele><time>2026-04-03T14:40:39.013Z</time></trkpt><trkpt lat="45.860991612077044" lon="8.03353885982395"><ele>1043.3333333333333</ele><time>2026-04-03T14:40:40.013Z</time></trkpt><trkpt lat="45.860980330268674" lon="8.033799556500897"><ele>1042.0</ele><time>2026-04-03T14:40:41.013Z</time></trkpt><trkpt lat="45.860977346478535" lon="8.034054508044361"><ele>1039.6666666666665</ele><time>2026-04-03T14:40:42.013Z</time></trkpt><trkpt lat="45.86098819228171" lon="8.034307922598007"><ele>1037.3333333333333</ele><time>2026-04-03T14:40:43.013Z</time></trkpt><trkpt lat="45.861001071716686" lon="8.034562997654433"><ele>1035.0</ele><time>2026-04-03T14:40:44.013Z</time></trkpt><trkpt lat="45.86100587909615" lon="8.034809410530931"><ele>1035.0</ele><time>2026-04-03T14:40:45.013Z</time></trkpt><trkpt lat="45.86100090792781" lon="8.03505021489801"><ele>1035.0</ele><time>2026-04-03T14:40:46.013Z</time></trkpt><trkpt lat="45.86098715259594" lon="8.035298442463631"><ele>1035.0</ele><time>2026-04-03T14:40:47.013Z</time></trkpt><trkpt lat="45.860963322997215" lon="8.03556549570208"><ele>1040.0</ele><time>2026-04-03T14:40:48.013Z</time></trkpt><trkpt lat="45.86093425727222" lon="8.035850132177726"><ele>1045.0</ele><time>2026-04-03T14:40:49.013Z</time></trkpt><trkpt lat="45.860911734578345" lon="8.036128446695322"><ele>1050.0</ele><time>2026-04-03T14:40:50.013Z</time></trkpt><trkpt lat="45.86088493487525" lon="8.036394645787595"><ele>1047.0</ele><time>2026-04-03T14:40:51.013Z</time></trkpt><trkpt lat="45.86085974452549" lon="8.03665509992936"><ele>1044.0</ele><time>2026-04-03T14:40:52.013Z</time></trkpt><trkpt lat="45.86083915064851" lon="8.036907763320723"><ele>1041.0</ele><time>2026-04-03T14:40:53.013Z</time></trkpt><trkpt lat="45.86082415429065" lon="8.037139394699267"><ele>1041.0</ele><time>2026-04-03T14:40:54.013Z</time></trkpt><trkpt lat="45.86082194477824" lon="8.037350139238882"><ele>1041.0</ele><time>2026-04-03T14:40:55.013Z</time></trkpt><trkpt lat="45.86083500989488" lon="8.03755024746908"><ele>1041.0</ele><time>2026-04-03T14:40:56.013Z</time></trkpt><trkpt lat="45.860868783104735" lon="8.037737385533394"><ele>1041.0</ele><time>2026-04-03T14:40:57.013Z</time></trkpt><trkpt lat="45.86092574875958" lon="8.03791910396133"><ele>1036.3333333333333</ele><time>2026-04-03T14:40:58.013Z</time></trkpt><trkpt lat="45.86100748572416" lon="8.03810273683447"><ele>1031.6666666666665</ele><time>2026-04-03T14:40:59.013Z</time></trkpt><trkpt lat="45.8611153247807" lon="8.038294066293213"><ele>1027.0</ele><time>2026-04-03T14:41:00.013Z</time></trkpt><trkpt lat="45.861225528085896" lon="8.038485132989493"><ele>1026.25</ele><time>2026-04-03T14:41:01.013Z</time></trkpt><trkpt lat="45.86131857044199" lon="8.038649927309972"><ele>1025.5</ele><time>2026-04-03T14:41:02.013Z</time></trkpt><trkpt lat="45.861395179230534" lon="8.038814679614187"><ele>1024.75</ele><time>2026-04-03T14:41:03.013Z</time></trkpt><trkpt lat="45.8614567897131" lon="8.039013898785491"><ele>1024.0</ele><time>2026-04-03T14:41:04.014Z</time></trkpt><trkpt lat="45.86146728641382" lon="8.039205144089854"><ele>1023.25</ele><time>2026-04-03T14:41:05.014Z</time></trkpt><trkpt lat="45.861444841729416" lon="8.039394771266343"><ele>1022.5</ele><time>2026-04-03T14:41:06.014Z</time></trkpt><trkpt lat="45.861422246345434" lon="8.03958558716885"><ele>1021.75</ele><time>2026-04-03T14:41:07.014Z</time></trkpt><trkpt lat="45.8613781109709" lon="8.039810677395833"><ele>1021.0</ele><time>2026-04-03T14:41:08.014Z</time></trkpt><trkpt lat="45.861333084368574" lon="8.04006092094643"><ele>1019.0</ele><time>2026-04-03T14:41:09.014Z</time></trkpt><trkpt lat="45.861288111095895" lon="8.04033742081512"><ele>1017.0</ele><time>2026-04-03T14:41:10.014Z</time></trkpt><trkpt lat="45.8612513154073" lon="8.040634753058468"><ele>1015.0</ele><time>2026-04-03T14:41:11.014Z</time></trkpt><trkpt lat="45.86121437580587" lon="8.04093778780465"><ele>1013.6666666666666</ele><time>2026-04-03T14:41:12.014Z</time></trkpt><trkpt lat="45.86118884687218" lon="8.041226357427764"><ele>1012.3333333333333</ele><time>2026-04-03T14:41:13.014Z</time></trkpt><trkpt lat="45.86116010512701" lon="8.04150420662552"><ele>1011.0</ele><time>2026-04-03T14:41:14.014Z</time></trkpt><trkpt lat="45.86113389355673" lon="8.041771480329526"><ele>1010.0</ele><time>2026-04-03T14:41:15.014Z</time></trkpt><trkpt lat="45.86110849695492" lon="8.042028881727225"><ele>1009.0</ele><time>2026-04-03T14:41:16.014Z</time></trkpt><trkpt lat="45.86109810422979" lon="8.042285346692081"><ele>1008.0</ele><time>2026-04-03T14:41:17.014Z</time></trkpt><trkpt lat="45.86109232800185" lon="8.042555253454752"><ele>1007.6666666666667</ele><time>2026-04-03T14:41:18.014Z</time></trkpt><trkpt lat="45.86109888397254" lon="8.042842642596394"><ele>1007.3333333333334</ele><time>2026-04-03T14:41:19.014Z</time></trkpt><trkpt lat="45.86111134196582" lon="8.04312672764632"><ele>1007.0</ele><time>2026-04-03T14:41:20.014Z</time></trkpt><trkpt lat="45.861125260226416" lon="8.043399143609397"><ele>1005.3333333333334</ele><time>2026-04-03T14:41:21.014Z</time></trkpt><trkpt lat="45.86113770001522" lon="8.043652050834629"><ele>1003.6666666666667</ele><time>2026-04-03T14:41:22.014Z</time></trkpt><trkpt lat="45.86115930164964" lon="8.043891612468059"><ele>1002.0</ele><time>2026-04-03T14:41:23.014Z</time></trkpt><trkpt lat="45.861191285958434" lon="8.04412830068633"><ele>999.3333333333333</ele><time>2026-04-03T14:41:24.014Z</time></trkpt><trkpt lat="45.86123740605736" lon="8.04437191354254"><ele>996.6666666666666</ele><time>2026-04-03T14:41:25.014Z</time></trkpt><trkpt lat="45.86129319259098" lon="8.04461468463619"><ele>994.0</ele><time>2026-04-03T14:41:26.014Z</time></trkpt><trkpt lat="45.861358284769075" lon="8.044865860015381"><ele>994.6666666666666</ele><time>2026-04-03T14:41:27.014Z</time></trkpt><trkpt lat="45.861430265116866" lon="8.045122216092347"><ele>995.3333333333333</ele><time>2026-04-03T14:41:28.014Z</time></trkpt><trkpt lat="45.861504458806074" lon="8.045382492572054"><ele>996.0</ele><time>2026-04-03T14:41:29.014Z</time></trkpt><trkpt lat="45.86157663675921" lon="8.045657000668628"><ele>993.6666666666667</ele><time>2026-04-03T14:41:30.014Z</time></trkpt><trkpt lat="45.86164905140602" lon="8.045932457825575"><ele>991.3333333333334</ele><time>2026-04-03T14:41:31.014Z</time></trkpt><trkpt lat="45.86172255875367" lon="8.046203024137181"><ele>989.0</ele><time>2026-04-03T14:41:32.014Z</time></trkpt><trkpt lat="45.86178381813234" lon="8.046474322397495"><ele>991.0</ele><time>2026-04-03T14:41:33.014Z</time></trkpt><trkpt lat="45.8618253310092" lon="8.046751052776417"><ele>993.0</ele><time>2026-04-03T14:41:34.014Z</time></trkpt><trkpt lat="45.8618866230393" lon="8.047010415805168"><ele>995.0</ele><time>2026-04-03T14:41:35.014Z</time></trkpt><trkpt lat="45.86193911874481" lon="8.047265883216546"><ele>992.0</ele><time>2026-04-03T14:41:36.014Z</time></trkpt><trkpt lat="45.86197605411051" lon="8.047520355177125"><ele>989.0</ele><time>2026-04-03T14:41:37.014Z</time></trkpt><trkpt lat="45.86200450369212" lon="8.047774459280003"><ele>986.0</ele><time>2026-04-03T14:41:38.014Z</time></trkpt><trkpt lat="45.862027734368525" lon="8.048027497775728"><ele>986.0</ele><time>2026-04-03T14:41:39.014Z</time></trkpt><trkpt lat="45.86203712791485" lon="8.04828229929007"><ele>986.0</ele><time>2026-04-03T14:41:40.014Z</time></trkpt><trkpt lat="45.862031046652895" lon="8.048535559071746"><ele>986.0</ele><time>2026-04-03T14:41:41.014Z</time></trkpt><trkpt lat="45.86200543517446" lon="8.048809161623716"><ele>983.3333333333334</ele><time>2026-04-03T14:41:42.014Z</time></trkpt><trkpt lat="45.86196912753533" lon="8.049066942568855"><ele>980.6666666666667</ele><time>2026-04-03T14:41:43.014Z</time></trkpt><trkpt lat="45.86193014718788" lon="8.049307585022964"><ele>978.0</ele><time>2026-04-03T14:41:44.014Z</time></trkpt><trkpt lat="45.861915643972786" lon="8.04956506469748"><ele>975.3333333333333</ele><time>2026-04-03T14:41:45.014Z</time></trkpt><trkpt lat="45.86192212467613" lon="8.049810950795296"><ele>972.6666666666666</ele><time>2026-04-03T14:41:46.015Z</time></trkpt><trkpt lat="45.86193375572021" lon="8.050041950859384"><ele>970.0</ele><time>2026-04-03T14:41:47.015Z</time></trkpt><trkpt lat="45.86195052657" lon="8.050261190163607"><ele>970.0</ele><time>2026-04-03T14:41:48.015Z</time></trkpt><trkpt lat="45.86198679633587" lon="8.05047634360119"><ele>970.0</ele><time>2026-04-03T14:41:49.015Z</time></trkpt><trkpt lat="45.86203093640304" lon="8.050700641657103"><ele>970.0</ele><time>2026-04-03T14:41:50.015Z</time></trkpt><trkpt lat="45.86204882746021" lon="8.050925917533021"><ele>969.6666666666666</ele><time>2026-04-03T14:41:51.015Z</time></trkpt><trkpt lat="45.86204584187295" lon="8.051179913255611"><ele>969.3333333333333</ele><time>2026-04-03T14:41:52.015Z</time></trkpt><trkpt lat="45.86201457149411" lon="8.051464847014165"><ele>969.0</ele><time>2026-04-03T14:41:53.015Z</time></trkpt><trkpt lat="45.86198835868684" lon="8.051747103848935"><ele>965.6666666666667</ele><time>2026-04-03T14:41:54.015Z</time></trkpt><trkpt lat="45.861969589111794" lon="8.052020039708545"><ele>962.3333333333334</ele><time>2026-04-03T14:41:55.015Z</time></trkpt><trkpt lat="45.86193047075496" lon="8.052291628450355"><ele>959.0</ele><time>2026-04-03T14:41:56.015Z</time></trkpt><trkpt lat="45.861877037713654" lon="8.052580610824313"><ele>957.3333333333334</ele><time>2026-04-03T14:41:57.015Z</time></trkpt><trkpt lat="45.861816821553894" lon="8.052888152482339"><ele>955.6666666666667</ele><time>2026-04-03T14:41:58.015Z</time></trkpt><trkpt lat="45.861757284296985" lon="8.053191097050217"><ele>954.0</ele><time>2026-04-03T14:41:59.015Z</time></trkpt><trkpt lat="45.861701672297286" lon="8.05348016800016"><ele>952.6666666666667</ele><time>2026-04-03T14:42:00.015Z</time></trkpt><trkpt lat="45.86164664757254" lon="8.053749745426053"><ele>951.3333333333334</ele><time>2026-04-03T14:42:01.015Z</time></trkpt><trkpt lat="45.861594124197346" lon="8.054009182134646"><ele>950.0</ele><time>2026-04-03T14:42:02.015Z</time></trkpt><trkpt lat="45.861545222286374" lon="8.054259412646761"><ele>947.5</ele><time>2026-04-03T14:42:03.015Z</time></trkpt><trkpt lat="45.861503377285054" lon="8.054479939373484"><ele>945.0</ele><time>2026-04-03T14:42:04.015Z</time></trkpt><trkpt lat="45.86146288761934" lon="8.054673939389673"><ele>942.5</ele><time>2026-04-03T14:42:05.015Z</time></trkpt><trkpt lat="45.861403307153736" lon="8.054843215197797"><ele>940.0</ele><time>2026-04-03T14:42:06.015Z</time></trkpt><trkpt lat="45.86132499723448" lon="8.054985897673765"><ele>940.0</ele><time>2026-04-03T14:42:07.015Z</time></trkpt><trkpt lat="45.86120638190308" lon="8.05510810662605"><ele>940.0</ele><time>2026-04-03T14:42:08.015Z</time></trkpt><trkpt lat="45.86107030405895" lon="8.055219268718282"><ele>940.0</ele><time>2026-04-03T14:42:09.015Z</time></trkpt><trkpt lat="45.860965344243496" lon="8.055306350192414"><ele>940.0</ele><time>2026-04-03T14:42:10.015Z</time></trkpt><trkpt lat="45.86088293454456" lon="8.055386260892988"><ele>939.0</ele><time>2026-04-03T14:42:11.015Z</time></trkpt><trkpt lat="45.86082676461529" lon="8.055487147198926"><ele>938.0</ele><time>2026-04-03T14:42:12.015Z</time></trkpt><trkpt lat="45.8608092122044" lon="8.05560564183373"><ele>937.0</ele><time>2026-04-03T14:42:13.015Z</time></trkpt><trkpt lat="45.86084114287256" lon="8.055729821071552"><ele>936.0</ele><time>2026-04-03T14:42:14.015Z</time></trkpt><trkpt lat="45.86090594928219" lon="8.055868789376156"><ele>935.0</ele><time>2026-04-03T14:42:15.015Z</time></trkpt><trkpt lat="45.8609496575487" lon="8.055990636634608"><ele>935.0</ele><time>2026-04-03T14:42:16.015Z</time></trkpt><trkpt lat="45.860954788915194" lon="8.056098106280196"><ele>935.0</ele><time>2026-04-03T14:42:17.015Z</time></trkpt><trkpt lat="45.860913221163564" lon="8.056202654195207"><ele>935.0</ele><time>2026-04-03T14:42:18.015Z</time></trkpt><trkpt lat="45.86081824776969" lon="8.056296641074864"><ele>935.0</ele><time>2026-04-03T14:42:19.015Z</time></trkpt><trkpt lat="45.86068723270607" lon="8.05639165710024"><ele>935.0</ele><time>2026-04-03T14:42:20.015Z</time></trkpt><trkpt lat="45.86055310360924" lon="8.056513097824617"><ele>937.5</ele><time>2026-04-03T14:42:21.015Z</time></trkpt><trkpt lat="45.86043961443326" lon="8.056674252052169"><ele>940.0</ele><time>2026-04-03T14:42:22.015Z</time></trkpt><trkpt lat="45.86034322783966" lon="8.056836336672898"><ele>942.5</ele><time>2026-04-03T14:42:23.015Z</time></trkpt><trkpt lat="45.86027509569709" lon="8.056991183508204"><ele>945.0</ele><time>2026-04-03T14:42:24.015Z</time></trkpt><trkpt lat="45.8602383277155" lon="8.05715301399877"><ele>945.0</ele><time>2026-04-03T14:42:25.015Z</time></trkpt><trkpt lat="45.86022942823983" lon="8.057374285588986"><ele>945.0</ele><time>2026-04-03T14:42:26.015Z</time></trkpt><trkpt lat="45.86024148489321" lon="8.057639226743275"><ele>945.0</ele><time>2026-04-03T14:42:27.015Z</time></trkpt><trkpt lat="45.860237239432635" lon="8.057859779063138"><ele>944.25</ele><time>2026-04-03T14:42:28.015Z</time></trkpt><trkpt lat="45.860241881694364" lon="8.058048933665454"><ele>943.5</ele><time>2026-04-03T14:42:29.016Z</time></trkpt><trkpt lat="45.86029219529226" lon="8.058262044270911"><ele>942.75</ele><time>2026-04-03T14:42:30.016Z</time></trkpt><trkpt lat="45.86035583832048" lon="8.058464227343544"><ele>942.0</ele><time>2026-04-03T14:42:31.016Z</time></trkpt><trkpt lat="45.86046329594352" lon="8.058648410041165"><ele>942.0</ele><time>2026-04-03T14:42:32.016Z</time></trkpt><trkpt lat="45.860575773756736" lon="8.058835050590563"><ele>942.0</ele><time>2026-04-03T14:42:33.016Z</time></trkpt><trkpt lat="45.860650550724316" lon="8.05901024189413"><ele>942.0</ele><time>2026-04-03T14:42:34.016Z</time></trkpt><trkpt lat="45.860704800747904" lon="8.059192431572882"><ele>937.6</ele><time>2026-04-03T14:42:35.016Z</time></trkpt><trkpt lat="45.860722926488776" lon="8.059381127391937"><ele>933.2</ele><time>2026-04-03T14:42:36.016Z</time></trkpt><trkpt lat="45.86072016239935" lon="8.059553057890938"><ele>928.8</ele><time>2026-04-03T14:42:37.016Z</time></trkpt><trkpt lat="45.8606962757449" lon="8.059702919059925"><ele>924.4</ele><time>2026-04-03T14:42:38.016Z</time></trkpt><trkpt lat="45.86064656840382" lon="8.05980685864401"><ele>920.0</ele><time>2026-04-03T14:42:39.016Z</time></trkpt><trkpt lat="45.86056278106402" lon="8.059890023742062"><ele>917.6666666666667</ele><time>2026-04-03T14:42:40.016Z</time></trkpt><trkpt lat="45.86045778277016" lon="8.059976228312895"><ele>915.3333333333333</ele><time>2026-04-03T14:42:41.016Z</time></trkpt><trkpt lat="45.8603321686342" lon="8.06010492008475"><ele>913.0</ele><time>2026-04-03T14:42:42.016Z</time></trkpt><trkpt lat="45.860188201545164" lon="8.060267716701556"><ele>917.6666666666666</ele><time>2026-04-03T14:42:43.016Z</time></trkpt><trkpt lat="45.86003498418995" lon="8.060423248104456"><ele>922.3333333333333</ele><time>2026-04-03T14:42:44.016Z</time></trkpt><trkpt lat="45.859883938466005" lon="8.060580777878185"><ele>927.0</ele><time>2026-04-03T14:42:45.016Z</time></trkpt><trkpt lat="45.85974957544875" lon="8.060741748908619"><ele>923.0</ele><time>2026-04-03T14:42:46.016Z</time></trkpt><trkpt lat="45.85962588280816" lon="8.060896701709297"><ele>919.0</ele><time>2026-04-03T14:42:47.016Z</time></trkpt><trkpt lat="45.85951214941013" lon="8.061046056345388"><ele>915.0</ele><time>2026-04-03T14:42:48.016Z</time></trkpt><trkpt lat="45.8594180437256" lon="8.061188307794966"><ele>915.0</ele><time>2026-04-03T14:42:49.016Z</time></trkpt><trkpt lat="45.85936397200492" lon="8.061334044706385"><ele>915.0</ele><time>2026-04-03T14:42:50.016Z</time></trkpt><trkpt lat="45.859316993524274" lon="8.061492584629933"><ele>915.0</ele><time>2026-04-03T14:42:51.016Z</time></trkpt><trkpt lat="45.85929046540023" lon="8.061641868151726"><ele>915.0</ele><time>2026-04-03T14:42:52.016Z</time></trkpt><trkpt lat="45.85927948250735" lon="8.061800852162849"><ele>917.0</ele><time>2026-04-03T14:42:53.016Z</time></trkpt><trkpt lat="45.859253464531136" lon="8.06195442389644"><ele>919.0</ele><time>2026-04-03T14:42:54.016Z</time></trkpt><trkpt lat="45.85920963572737" lon="8.06209316693577"><ele>921.0</ele><time>2026-04-03T14:42:55.016Z</time></trkpt><trkpt lat="45.85914829389616" lon="8.062208734164884"><ele>923.0</ele><time>2026-04-03T14:42:56.016Z</time></trkpt><trkpt lat="45.859080826430606" lon="8.062311538139925"><ele>925.0</ele><time>2026-04-03T14:42:57.016Z</time></trkpt><trkpt lat="45.85901099095701" lon="8.062397493561381"><ele>921.4999999999999</ele><time>2026-04-03T14:42:58.016Z</time></trkpt><trkpt lat="45.85896897306886" lon="8.062478671079221"><ele>918.0</ele><time>2026-04-03T14:42:59.016Z</time></trkpt><trkpt lat="45.858930643727156" lon="8.062550767675871"><ele>914.5</ele><time>2026-04-03T14:43:00.016Z</time></trkpt><trkpt lat="45.858812405147944" lon="8.062620621602461"><ele>911.0</ele><time>2026-04-03T14:43:02.016Z</time></trkpt><trkpt lat="45.85873075738739" lon="8.06266191831856"><ele>907.4999999999999</ele><time>2026-04-03T14:43:03.016Z</time></trkpt><trkpt lat="45.8586669980543" lon="8.062722561258687"><ele>904.0</ele><time>2026-04-03T14:43:04.016Z</time></trkpt><trkpt lat="45.85860223787953" lon="8.062762494024097"><ele>903.9999999999999</ele><time>2026-04-03T14:43:05.016Z</time></trkpt><trkpt lat="45.85852280818616" lon="8.062796424510868"><ele>904.0</ele><time>2026-04-03T14:43:07.016Z</time></trkpt><trkpt lat="45.858460929221835" lon="8.062861580098955"><ele>904.0</ele><time>2026-04-03T14:43:10.016Z</time></trkpt><trkpt lat="45.85835143563979" lon="8.062853405449113"><ele>904.0</ele><time>2026-04-03T14:43:12.017Z</time></trkpt><trkpt lat="45.85827259277114" lon="8.062859155118002"><ele>903.9999999999999</ele><time>2026-04-03T14:43:13.017Z</time></trkpt><trkpt lat="45.85820253898564" lon="8.062883042818456"><ele>904.0</ele><time>2026-04-03T14:43:14.017Z</time></trkpt><trkpt lat="45.85812757717592" lon="8.062921677587227"><ele>906.0</ele><time>2026-04-03T14:43:15.017Z</time></trkpt><trkpt lat="45.85803862536447" lon="8.062941252701686"><ele>908.0000000000001</ele><time>2026-04-03T14:43:16.017Z</time></trkpt><trkpt lat="45.85794690053987" lon="8.062941381745008"><ele>910.0000000000001</ele><time>2026-04-03T14:43:17.017Z</time></trkpt><trkpt lat="45.857846725827144" lon="8.062945607763313"><ele>912.0</ele><time>2026-04-03T14:43:18.017Z</time></trkpt><trkpt lat="45.85772734967059" lon="8.062958335702499"><ele>914.0</ele><time>2026-04-03T14:43:19.017Z</time></trkpt><trkpt lat="45.857596985124744" lon="8.062970523759715"><ele>915.0</ele><time>2026-04-03T14:43:20.017Z</time></trkpt><trkpt lat="45.85746843363144" lon="8.062985819854456"><ele>916.0</ele><time>2026-04-03T14:43:21.017Z</time></trkpt><trkpt lat="45.85734474292873" lon="8.063005601900413"><ele>917.0</ele><time>2026-04-03T14:43:22.017Z</time></trkpt><trkpt lat="45.85721444554461" lon="8.063039482758418"><ele>918.0</ele><time>2026-04-03T14:43:23.017Z</time></trkpt><trkpt lat="45.85708078140011" lon="8.063089515890992"><ele>918.0</ele><time>2026-04-03T14:43:24.017Z</time></trkpt><trkpt lat="45.856962153853246" lon="8.063129418913139"><ele>918.0</ele><time>2026-04-03T14:43:25.017Z</time></trkpt><trkpt lat="45.85685497453649" lon="8.06318486154791"><ele>918.0</ele><time>2026-04-03T14:43:26.017Z</time></trkpt><trkpt lat="45.85675529402892" lon="8.063211201003314"><ele>918.0</ele><time>2026-04-03T14:43:27.017Z</time></trkpt><trkpt lat="45.856658793234686" lon="8.06321671706803"><ele>918.0</ele><time>2026-04-03T14:43:28.017Z</time></trkpt><trkpt lat="45.85655306196939" lon="8.063189063072308"><ele>920.0</ele><time>2026-04-03T14:43:29.017Z</time></trkpt><trkpt lat="45.856437854881776" lon="8.063138883199523"><ele>922.0</ele><time>2026-04-03T14:43:30.017Z</time></trkpt><trkpt lat="45.85631244401248" lon="8.063098788279833"><ele>924.0</ele><time>2026-04-03T14:43:31.017Z</time></trkpt><trkpt lat="45.85617006335018" lon="8.063101171649453"><ele>926.0</ele><time>2026-04-03T14:43:32.017Z</time></trkpt><trkpt lat="45.856015182911456" lon="8.063131691741386"><ele>923.25</ele><time>2026-04-03T14:43:33.017Z</time></trkpt><trkpt lat="45.85585864785514" lon="8.063170235158568"><ele>920.5</ele><time>2026-04-03T14:43:34.017Z</time></trkpt><trkpt lat="45.85572040840264" lon="8.063207373557079"><ele>917.75</ele><time>2026-04-03T14:43:35.017Z</time></trkpt><trkpt lat="45.855603798216585" lon="8.063259985485974"><ele>915.0</ele><time>2026-04-03T14:43:36.017Z</time></trkpt><trkpt lat="45.85550300484734" lon="8.063340277156357"><ele>915.0</ele><time>2026-04-03T14:43:37.017Z</time></trkpt><trkpt lat="45.8554036174091" lon="8.063439477388817"><ele>915.0</ele><time>2026-04-03T14:43:38.017Z</time></trkpt><trkpt lat="45.85531720813779" lon="8.063552304079899"><ele>915.0</ele><time>2026-04-03T14:43:39.017Z</time></trkpt><trkpt lat="45.85526006835288" lon="8.06368949423737"><ele>915.0</ele><time>2026-04-03T14:43:40.017Z</time></trkpt><trkpt lat="45.85523124061435" lon="8.063850259240557"><ele>915.0</ele><time>2026-04-03T14:43:41.017Z</time></trkpt><trkpt lat="45.85522651305745" lon="8.064022404446929"><ele>915.0</ele><time>2026-04-03T14:43:42.017Z</time></trkpt><trkpt lat="45.855239237342346" lon="8.064163130401015"><ele>915.0</ele><time>2026-04-03T14:43:43.017Z</time></trkpt><trkpt lat="45.85524091646093" lon="8.064277740936538"><ele>915.0</ele><time>2026-04-03T14:43:44.017Z</time></trkpt><trkpt lat="45.85521294158757" lon="8.064375164388059"><ele>915.0</ele><time>2026-04-03T14:43:45.017Z</time></trkpt><trkpt lat="45.855153998660775" lon="8.0644757104147"><ele>910.6</ele><time>2026-04-03T14:43:46.017Z</time></trkpt><trkpt lat="45.85506163480186" lon="8.064565209118099"><ele>906.2</ele><time>2026-04-03T14:43:47.017Z</time></trkpt><trkpt lat="45.85495598750736" lon="8.064640758004046"><ele>901.8</ele><time>2026-04-03T14:43:48.017Z</time></trkpt><trkpt lat="45.854866377844125" lon="8.06470214053557"><ele>897.4</ele><time>2026-04-03T14:43:49.017Z</time></trkpt><trkpt lat="45.85477738525659" lon="8.06473903983889"><ele>893.0</ele><time>2026-04-03T14:43:50.017Z</time></trkpt><trkpt lat="45.85469068176404" lon="8.06474203903522"><ele>893.0</ele><time>2026-04-03T14:43:51.017Z</time></trkpt><trkpt lat="45.85462330386723" lon="8.064702250211027"><ele>893.0</ele><time>2026-04-03T14:43:52.017Z</time></trkpt><trkpt lat="45.85456227502783" lon="8.064627127917449"><ele>893.0</ele><time>2026-04-03T14:43:53.018Z</time></trkpt><trkpt lat="45.8545084833639" lon="8.06448845577748"><ele>893.0</ele><time>2026-04-03T14:43:54.018Z</time></trkpt><trkpt lat="45.85448843561328" lon="8.064321429465322"><ele>893.0</ele><time>2026-04-03T14:43:55.018Z</time></trkpt><trkpt lat="45.85446721000443" lon="8.064159540974183"><ele>893.75</ele><time>2026-04-03T14:43:56.018Z</time></trkpt><trkpt lat="45.854412913537836" lon="8.064019405914467"><ele>894.5</ele><time>2026-04-03T14:43:57.018Z</time></trkpt><trkpt lat="45.8543295582939" lon="8.063884078726687"><ele>895.25</ele><time>2026-04-03T14:43:58.018Z</time></trkpt><trkpt lat="45.85423172348134" lon="8.063768421521909"><ele>896.0</ele><time>2026-04-03T14:43:59.018Z</time></trkpt><trkpt lat="45.85412834963492" lon="8.063677691048678"><ele>896.0</ele><time>2026-04-03T14:44:00.018Z</time></trkpt><trkpt lat="45.85404109621028" lon="8.063604923240899"><ele>895.9999999999999</ele><time>2026-04-03T14:44:01.018Z</time></trkpt><trkpt lat="45.85397714905269" lon="8.063549439137317"><ele>895.9999999999999</ele><time>2026-04-03T14:44:02.018Z</time></trkpt><trkpt lat="45.853873060026935" lon="8.063532744021172"><ele>896.0</ele><time>2026-04-03T14:44:04.018Z</time></trkpt><trkpt lat="45.85385620896845" lon="8.0636463750532"><ele>896.0</ele><time>2026-04-03T14:44:06.018Z</time></trkpt><trkpt lat="45.85395605094583" lon="8.06375415431072"><ele>896.0</ele><time>2026-04-03T14:44:08.018Z</time></trkpt><trkpt lat="45.854044602682954" lon="8.063789860811694"><ele>895.9999999999999</ele><time>2026-04-03T14:44:09.018Z</time></trkpt><trkpt lat="45.854129323645125" lon="8.063851726747556"><ele>895.9999999999999</ele><time>2026-04-03T14:44:10.018Z</time></trkpt><trkpt lat="45.8542118773607" lon="8.063948224104124"><ele>896.0</ele><time>2026-04-03T14:44:11.018Z</time></trkpt><trkpt lat="45.85427564410063" lon="8.064045865727165"><ele>896.0</ele><time>2026-04-03T14:44:12.018Z</time></trkpt><trkpt lat="45.854323211021644" lon="8.064160459458348"><ele>895.4</ele><time>2026-04-03T14:44:13.018Z</time></trkpt><trkpt lat="45.85434801844084" lon="8.064288860565197"><ele>894.8</ele><time>2026-04-03T14:44:14.018Z</time></trkpt><trkpt lat="45.85433429403112" lon="8.064422655151564"><ele>894.1999999999999</ele><time>2026-04-03T14:44:15.018Z</time></trkpt><trkpt lat="45.854306768213625" lon="8.064551634248142"><ele>893.5999999999999</ele><time>2026-04-03T14:44:16.018Z</time></trkpt><trkpt lat="45.854267391858514" lon="8.064670328860501"><ele>893.0</ele><time>2026-04-03T14:44:17.018Z</time></trkpt><trkpt lat="45.854206349166425" lon="8.064768391501422"><ele>886.5</ele><time>2026-04-03T14:44:18.018Z</time></trkpt><trkpt lat="45.854115044242384" lon="8.064859400287318"><ele>880.0</ele><time>2026-04-03T14:44:19.018Z</time></trkpt><trkpt lat="45.854014675515145" lon="8.064908575066418"><ele>873.5</ele><time>2026-04-03T14:44:20.018Z</time></trkpt><trkpt lat="45.85389846996348" lon="8.064923613306446"><ele>867.0</ele><time>2026-04-03T14:44:21.018Z</time></trkpt><trkpt lat="45.85376532897155" lon="8.064897338631589"><ele>867.0</ele><time>2026-04-03T14:44:22.018Z</time></trkpt><trkpt lat="45.85360375380074" lon="8.064857523185841"><ele>867.0</ele><time>2026-04-03T14:44:23.018Z</time></trkpt><trkpt lat="45.85344842308503" lon="8.064838034902609"><ele>867.0</ele><time>2026-04-03T14:44:24.018Z</time></trkpt><trkpt lat="45.85327567846264" lon="8.064818237137873"><ele>864.6666666666667</ele><time>2026-04-03T14:44:25.018Z</time></trkpt><trkpt lat="45.853110528269966" lon="8.064806461927096"><ele>862.3333333333334</ele><time>2026-04-03T14:44:26.018Z</time></trkpt><trkpt lat="45.85295469060183" lon="8.064804389517125"><ele>860.0</ele><time>2026-04-03T14:44:27.018Z</time></trkpt><trkpt lat="45.85281959503289" lon="8.064780783216188"><ele>860.0</ele><time>2026-04-03T14:44:28.018Z</time></trkpt><trkpt lat="45.85268496651005" lon="8.064733785052708"><ele>860.0</ele><time>2026-04-03T14:44:29.018Z</time></trkpt><trkpt lat="45.85256954288359" lon="8.064678953932441"><ele>860.0</ele><time>2026-04-03T14:44:30.018Z</time></trkpt><trkpt lat="45.852477949732105" lon="8.064592607877778"><ele>860.0</ele><time>2026-04-03T14:44:31.018Z</time></trkpt><trkpt lat="45.852390906662876" lon="8.064514401243638"><ele>859.8</ele><time>2026-04-03T14:44:32.018Z</time></trkpt><trkpt lat="45.85230531666113" lon="8.064458994122754"><ele>859.6</ele><time>2026-04-03T14:44:33.018Z</time></trkpt><trkpt lat="45.852215162727056" lon="8.064448841611451"><ele>859.4000000000001</ele><time>2026-04-03T14:44:34.018Z</time></trkpt><trkpt lat="45.852102273348805" lon="8.064490217865607"><ele>859.2</ele><time>2026-04-03T14:44:35.019Z</time></trkpt><trkpt lat="45.8519822667727" lon="8.064551595286469"><ele>859.0</ele><time>2026-04-03T14:44:36.019Z</time></trkpt><trkpt lat="45.85187972267019" lon="8.064638931998479"><ele>857.3333333333333</ele><time>2026-04-03T14:44:37.019Z</time></trkpt><trkpt lat="45.85176958703157" lon="8.064762991237716"><ele>855.6666666666667</ele><time>2026-04-03T14:44:38.019Z</time></trkpt><trkpt lat="45.8516572133776" lon="8.064934837008547"><ele>854.0</ele><time>2026-04-03T14:44:39.019Z</time></trkpt><trkpt lat="45.85155069531397" lon="8.06511350643149"><ele>853.5</ele><time>2026-04-03T14:44:40.019Z</time></trkpt><trkpt lat="45.85145781368187" lon="8.065295900014197"><ele>853.0</ele><time>2026-04-03T14:44:41.019Z</time></trkpt><trkpt lat="45.85136302584121" lon="8.065442316199638"><ele>852.5</ele><time>2026-04-03T14:44:42.019Z</time></trkpt><trkpt lat="45.85125926185539" lon="8.06556422257041"><ele>852.0</ele><time>2026-04-03T14:44:43.019Z</time></trkpt><trkpt lat="45.85113001885751" lon="8.065654883857551"><ele>852.0</ele><time>2026-04-03T14:44:44.019Z</time></trkpt><trkpt lat="45.85099289616698" lon="8.065727947472"><ele>852.0</ele><time>2026-04-03T14:44:45.019Z</time></trkpt><trkpt lat="45.85087387196912" lon="8.065802918218532"><ele>852.0</ele><time>2026-04-03T14:44:46.019Z</time></trkpt><trkpt lat="45.85076112091154" lon="8.06591348195025"><ele>852.0</ele><time>2026-04-03T14:44:47.019Z</time></trkpt><trkpt lat="45.85064269473343" lon="8.066051318330818"><ele>850.6666666666667</ele><time>2026-04-03T14:44:48.019Z</time></trkpt><trkpt lat="45.85050440707465" lon="8.066185300986227"><ele>849.3333333333334</ele><time>2026-04-03T14:44:49.019Z</time></trkpt><trkpt lat="45.850370256138156" lon="8.066325333290042"><ele>848.0</ele><time>2026-04-03T14:44:50.019Z</time></trkpt><trkpt lat="45.85025317149853" lon="8.066489701446587"><ele>847.3333333333334</ele><time>2026-04-03T14:44:51.019Z</time></trkpt><trkpt lat="45.85012310962298" lon="8.066630880612465"><ele>846.6666666666667</ele><time>2026-04-03T14:44:52.019Z</time></trkpt><trkpt lat="45.84997344267788" lon="8.066760483531436"><ele>846.0</ele><time>2026-04-03T14:44:53.019Z</time></trkpt><trkpt lat="45.8498242267644" lon="8.066870501227097"><ele>846.0</ele><time>2026-04-03T14:44:54.019Z</time></trkpt><trkpt lat="45.8496792933671" lon="8.06694068842503"><ele>846.0</ele><time>2026-04-03T14:44:55.019Z</time></trkpt><trkpt lat="45.849521345634464" lon="8.066965214831349"><ele>846.0</ele><time>2026-04-03T14:44:56.019Z</time></trkpt><trkpt lat="45.84934068189111" lon="8.066972018487121"><ele>845.0</ele><time>2026-04-03T14:44:57.019Z</time></trkpt><trkpt lat="45.84914774180655" lon="8.066982895973048"><ele>844.0</ele><time>2026-04-03T14:44:58.019Z</time></trkpt><trkpt lat="45.84895049815072" lon="8.066971062005774"><ele>843.0</ele><time>2026-04-03T14:44:59.019Z</time></trkpt><trkpt lat="45.8487568596905" lon="8.0669471968632"><ele>843.0</ele><time>2026-04-03T14:45:00.019Z</time></trkpt><trkpt lat="45.84857640489154" lon="8.066908092282082"><ele>843.0</ele><time>2026-04-03T14:45:01.019Z</time></trkpt><trkpt lat="45.84840446605237" lon="8.066855269783337"><ele>843.0</ele><time>2026-04-03T14:45:02.019Z</time></trkpt><trkpt lat="45.848232708998225" lon="8.066791603445346"><ele>844.6666666666667</ele><time>2026-04-03T14:45:03.019Z</time></trkpt><trkpt lat="45.84805866938455" lon="8.066737039391887"><ele>846.3333333333334</ele><time>2026-04-03T14:45:04.019Z</time></trkpt><trkpt lat="45.84788555084098" lon="8.06668924301273"><ele>848.0</ele><time>2026-04-03T14:45:05.019Z</time></trkpt><trkpt lat="45.847698583383675" lon="8.066633617888362"><ele>852.6666666666667</ele><time>2026-04-03T14:45:06.019Z</time></trkpt><trkpt lat="45.84750577728083" lon="8.066588576497436"><ele>857.3333333333333</ele><time>2026-04-03T14:45:07.019Z</time></trkpt><trkpt lat="45.84732608936706" lon="8.066549029410103"><ele>862.0</ele><time>2026-04-03T14:45:08.019Z</time></trkpt><trkpt lat="45.84716003057559" lon="8.066512849325553"><ele>862.0</ele><time>2026-04-03T14:45:09.019Z</time></trkpt><trkpt lat="45.846999787790914" lon="8.066471613530112"><ele>862.0</ele><time>2026-04-03T14:45:10.019Z</time></trkpt><trkpt lat="45.846848340798005" lon="8.066417326780329"><ele>862.0</ele><time>2026-04-03T14:45:11.019Z</time></trkpt><trkpt lat="45.84669723869854" lon="8.066344035517007"><ele>859.0</ele><time>2026-04-03T14:45:12.019Z</time></trkpt><trkpt lat="45.846564919601974" lon="8.066253250761033"><ele>856.0</ele><time>2026-04-03T14:45:13.019Z</time></trkpt><trkpt lat="45.8464542730541" lon="8.066159169869731"><ele>853.0</ele><time>2026-04-03T14:45:14.019Z</time></trkpt><trkpt lat="45.84635884695967" lon="8.066069673148938"><ele>850.0</ele><time>2026-04-03T14:45:15.019Z</time></trkpt><trkpt lat="45.84626709878378" lon="8.0659994157331"><ele>850.0</ele><time>2026-04-03T14:45:16.019Z</time></trkpt><trkpt lat="45.84615722216033" lon="8.065952274497485"><ele>850.0</ele><time>2026-04-03T14:45:17.019Z</time></trkpt><trkpt lat="45.846028333948986" lon="8.065926837271007"><ele>850.0</ele><time>2026-04-03T14:45:18.02Z</time></trkpt><trkpt lat="45.84589891603328" lon="8.065940306942657"><ele>850.0</ele><time>2026-04-03T14:45:19.02Z</time></trkpt><trkpt lat="45.84580496983758" lon="8.065980766953333"><ele>846.75</ele><time>2026-04-03T14:45:20.02Z</time></trkpt><trkpt lat="45.84568884749044" lon="8.066074979346105"><ele>843.5</ele><time>2026-04-03T14:45:21.02Z</time></trkpt><trkpt lat="45.845558048978745" lon="8.066166731514155"><ele>840.25</ele><time>2026-04-03T14:45:22.02Z</time></trkpt><trkpt lat="45.84542703900515" lon="8.066234107519357"><ele>837.0</ele><time>2026-04-03T14:45:23.02Z</time></trkpt><trkpt lat="45.845333057602524" lon="8.066320726944499"><ele>837.0</ele><time>2026-04-03T14:45:24.02Z</time></trkpt><trkpt lat="45.84523506137698" lon="8.066454734299036"><ele>837.0</ele><time>2026-04-03T14:45:25.02Z</time></trkpt><trkpt lat="45.8451344576858" lon="8.066608096780888"><ele>837.0</ele><time>2026-04-03T14:45:26.02Z</time></trkpt><trkpt lat="45.84501419418661" lon="8.066795505554001"><ele>834.0</ele><time>2026-04-03T14:45:27.02Z</time></trkpt><trkpt lat="45.84489926130618" lon="8.066987948264352"><ele>831.0</ele><time>2026-04-03T14:45:28.02Z</time></trkpt><trkpt lat="45.84479591821206" lon="8.067169244017784"><ele>828.0</ele><time>2026-04-03T14:45:29.02Z</time></trkpt><trkpt lat="45.844677007355216" lon="8.067305919689899"><ele>828.0</ele><time>2026-04-03T14:45:30.02Z</time></trkpt><trkpt lat="45.844551392123286" lon="8.067429453962045"><ele>828.0</ele><time>2026-04-03T14:45:31.02Z</time></trkpt><trkpt lat="45.84443791904503" lon="8.067556631893858"><ele>828.0</ele><time>2026-04-03T14:45:32.02Z</time></trkpt><trkpt lat="45.8443546783866" lon="8.06769070020996"><ele>828.0</ele><time>2026-04-03T14:45:33.02Z</time></trkpt><trkpt lat="45.84428597382388" lon="8.067800684859987"><ele>826.75</ele><time>2026-04-03T14:45:34.02Z</time></trkpt><trkpt lat="45.844245454738996" lon="8.067943329900297"><ele>825.5</ele><time>2026-04-03T14:45:35.02Z</time></trkpt><trkpt lat="45.84422060269346" lon="8.068121749923312"><ele>824.25</ele><time>2026-04-03T14:45:36.02Z</time></trkpt><trkpt lat="45.8442118857137" lon="8.06834890163097"><ele>823.0</ele><time>2026-04-03T14:45:37.02Z</time></trkpt><trkpt lat="45.844193319626854" lon="8.068607292951302"><ele>823.0</ele><time>2026-04-03T14:45:38.02Z</time></trkpt><trkpt lat="45.84416629824076" lon="8.068903380249424"><ele>823.0</ele><time>2026-04-03T14:45:39.02Z</time></trkpt><trkpt lat="45.84413175502602" lon="8.069177752682203"><ele>823.0</ele><time>2026-04-03T14:45:40.02Z</time></trkpt><trkpt lat="45.84409687723748" lon="8.069445891347609"><ele>821.3333333333333</ele><time>2026-04-03T14:45:41.02Z</time></trkpt><trkpt lat="45.84405331057917" lon="8.069716952698888"><ele>819.6666666666667</ele><time>2026-04-03T14:45:42.02Z</time></trkpt><trkpt lat="45.843997537298655" lon="8.069956221849536"><ele>818.0</ele><time>2026-04-03T14:45:43.02Z</time></trkpt><trkpt lat="45.84393259724166" lon="8.070169453252669"><ele>822.0</ele><time>2026-04-03T14:45:44.02Z</time></trkpt><trkpt lat="45.8438533277081" lon="8.070356335925744"><ele>826.0</ele><time>2026-04-03T14:45:45.02Z</time></trkpt><trkpt lat="45.84375235876291" lon="8.070547289229621"><ele>830.0</ele><time>2026-04-03T14:45:46.02Z</time></trkpt><trkpt lat="45.843628754700944" lon="8.07073828072135"><ele>825.0</ele><time>2026-04-03T14:45:47.02Z</time></trkpt><trkpt lat="45.8435052763117" lon="8.070895883852842"><ele>820.0</ele><time>2026-04-03T14:45:48.02Z</time></trkpt><trkpt lat="45.8433754330562" lon="8.071030519139805"><ele>815.0</ele><time>2026-04-03T14:45:49.02Z</time></trkpt><trkpt lat="45.843244544241095" lon="8.071141233451488"><ele>815.0</ele><time>2026-04-03T14:45:50.02Z</time></trkpt><trkpt lat="45.8431014980086" lon="8.071253310528109"><ele>815.0</ele><time>2026-04-03T14:45:51.02Z</time></trkpt><trkpt lat="45.84295116011315" lon="8.071366266276375"><ele>815.0</ele><time>2026-04-03T14:45:52.02Z</time></trkpt><trkpt lat="45.84278524915523" lon="8.071435226202142"><ele>811.6666666666667</ele><time>2026-04-03T14:45:53.02Z</time></trkpt><trkpt lat="45.84262123278066" lon="8.071495604494794"><ele>808.3333333333333</ele><time>2026-04-03T14:45:54.02Z</time></trkpt><trkpt lat="45.842461824750046" lon="8.071526390150769"><ele>805.0</ele><time>2026-04-03T14:45:55.02Z</time></trkpt><trkpt lat="45.84232971754057" lon="8.07156710072855"><ele>805.0</ele><time>2026-04-03T14:45:56.02Z</time></trkpt><trkpt lat="45.84221337085836" lon="8.07159004386642"><ele>805.0</ele><time>2026-04-03T14:45:57.02Z</time></trkpt><trkpt lat="45.84211085691348" lon="8.071612958595278"><ele>805.0</ele><time>2026-04-03T14:45:58.02Z</time></trkpt><trkpt lat="45.842029840956585" lon="8.071672383136118"><ele>805.0</ele><time>2026-04-03T14:45:59.02Z</time></trkpt><trkpt lat="45.841940245637865" lon="8.071788629242693"><ele>805.0</ele><time>2026-04-03T14:46:00.021Z</time></trkpt><trkpt lat="45.8418369810235" lon="8.07193117233753"><ele>802.5</ele><time>2026-04-03T14:46:01.021Z</time></trkpt><trkpt lat="45.84173058321948" lon="8.072074243519651"><ele>800.0</ele><time>2026-04-03T14:46:02.021Z</time></trkpt><trkpt lat="45.84161294701769" lon="8.072173032843304"><ele>797.5</ele><time>2026-04-03T14:46:03.021Z</time></trkpt><trkpt lat="45.841525837322585" lon="8.072270525816057"><ele>795.0</ele><time>2026-04-03T14:46:04.021Z</time></trkpt><trkpt lat="45.84148337697765" lon="8.072394452562296"><ele>797.5</ele><time>2026-04-03T14:46:05.021Z</time></trkpt><trkpt lat="45.8414649680371" lon="8.07252952035042"><ele>800.0</ele><time>2026-04-03T14:46:06.021Z</time></trkpt><trkpt lat="45.8414849286923" lon="8.072696510451012"><ele>802.5</ele><time>2026-04-03T14:46:07.021Z</time></trkpt><trkpt lat="45.841539114752294" lon="8.072895848639117"><ele>805.0</ele><time>2026-04-03T14:46:08.021Z</time></trkpt><trkpt lat="45.84159677291833" lon="8.07312907114012"><ele>804.6666666666666</ele><time>2026-04-03T14:46:09.021Z</time></trkpt><trkpt lat="45.841649820516295" lon="8.073401976292159"><ele>804.3333333333333</ele><time>2026-04-03T14:46:10.021Z</time></trkpt><trkpt lat="45.841694898645294" lon="8.073648567873956"><ele>804.0</ele><time>2026-04-03T14:46:11.021Z</time></trkpt><trkpt lat="45.841732170660016" lon="8.07388363149028"><ele>801.0</ele><time>2026-04-03T14:46:12.021Z</time></trkpt><trkpt lat="45.841777521033336" lon="8.074106018647003"><ele>798.0</ele><time>2026-04-03T14:46:13.021Z</time></trkpt><trkpt lat="45.841819236601076" lon="8.074310963084494"><ele>795.0</ele><time>2026-04-03T14:46:14.021Z</time></trkpt><trkpt lat="45.841875660804455" lon="8.07449700651152"><ele>799.0</ele><time>2026-04-03T14:46:15.021Z</time></trkpt><trkpt lat="45.84195251603721" lon="8.074679098863351"><ele>803.0</ele><time>2026-04-03T14:46:16.021Z</time></trkpt><trkpt lat="45.842035153654095" lon="8.074868716864662"><ele>807.0</ele><time>2026-04-03T14:46:17.021Z</time></trkpt><trkpt lat="45.84210297969374" lon="8.075058713334453"><ele>807.0</ele><time>2026-04-03T14:46:18.021Z</time></trkpt><trkpt lat="45.84216704084731" lon="8.075239370551289"><ele>807.0</ele><time>2026-04-03T14:46:19.021Z</time></trkpt><trkpt lat="45.842260118539706" lon="8.075406121093648"><ele>807.0</ele><time>2026-04-03T14:46:20.021Z</time></trkpt><trkpt lat="45.84237066382659" lon="8.075562004701421"><ele>807.0</ele><time>2026-04-03T14:46:21.021Z</time></trkpt><trkpt lat="45.84245024867082" lon="8.075721156225855"><ele>803.25</ele><time>2026-04-03T14:46:22.021Z</time></trkpt><trkpt lat="45.84251754313549" lon="8.075873208608307"><ele>799.5</ele><time>2026-04-03T14:46:23.021Z</time></trkpt><trkpt lat="45.842564654849596" lon="8.076031266836916"><ele>795.75</ele><time>2026-04-03T14:46:24.021Z</time></trkpt><trkpt lat="45.84258090373134" lon="8.076191677386348"><ele>792.0</ele><time>2026-04-03T14:46:25.021Z</time></trkpt><trkpt lat="45.842575861944184" lon="8.076358889345313"><ele>792.0</ele><time>2026-04-03T14:46:26.021Z</time></trkpt><trkpt lat="45.842551320467415" lon="8.076546596403881"><ele>792.0</ele><time>2026-04-03T14:46:27.021Z</time></trkpt><trkpt lat="45.8425276697216" lon="8.076750941131081"><ele>792.0</ele><time>2026-04-03T14:46:28.021Z</time></trkpt><trkpt lat="45.842519998374314" lon="8.076944777483034"><ele>792.0</ele><time>2026-04-03T14:46:29.021Z</time></trkpt><trkpt lat="45.842508580985275" lon="8.077120111852851"><ele>790.5</ele><time>2026-04-03T14:46:30.021Z</time></trkpt><trkpt lat="45.8424677491092" lon="8.077271645428107"><ele>789.0</ele><time>2026-04-03T14:46:31.021Z</time></trkpt><trkpt lat="45.842404059471974" lon="8.077405381042025"><ele>787.5</ele><time>2026-04-03T14:46:32.021Z</time></trkpt><trkpt lat="45.842313185840645" lon="8.077525179104013"><ele>786.0</ele><time>2026-04-03T14:46:33.021Z</time></trkpt><trkpt lat="45.84219052551872" lon="8.077638817675503"><ele>786.0</ele><time>2026-04-03T14:46:34.021Z</time></trkpt><trkpt lat="45.84205139522188" lon="8.077765362164046"><ele>786.0</ele><time>2026-04-03T14:46:35.021Z</time></trkpt><trkpt lat="45.84191252351852" lon="8.077909605650293"><ele>786.0</ele><time>2026-04-03T14:46:36.021Z</time></trkpt><trkpt lat="45.84178683064994" lon="8.078054852468757"><ele>786.25</ele><time>2026-04-03T14:46:37.021Z</time></trkpt><trkpt lat="45.84167078684792" lon="8.078195667957514"><ele>786.5</ele><time>2026-04-03T14:46:38.021Z</time></trkpt><trkpt lat="45.841562750253345" lon="8.078331371312583"><ele>786.75</ele><time>2026-04-03T14:46:39.021Z</time></trkpt><trkpt lat="45.84147321568256" lon="8.07849064873768"><ele>787.0</ele><time>2026-04-03T14:46:40.021Z</time></trkpt><trkpt lat="45.84138481063723" lon="8.078675638294275"><ele>787.0</ele><time>2026-04-03T14:46:41.021Z</time></trkpt><trkpt lat="45.84132555408365" lon="8.078888693456035"><ele>787.0</ele><time>2026-04-03T14:46:42.022Z</time></trkpt><trkpt lat="45.841275620485895" lon="8.079129750168569"><ele>787.0</ele><time>2026-04-03T14:46:43.022Z</time></trkpt><trkpt lat="45.84120265380676" lon="8.079385548140964"><ele>789.3333333333333</ele><time>2026-04-03T14:46:44.022Z</time></trkpt><trkpt lat="45.841125402286664" lon="8.079627206110837"><ele>791.6666666666667</ele><time>2026-04-03T14:46:45.022Z</time></trkpt><trkpt lat="45.841044769508294" lon="8.079839449646474"><ele>794.0</ele><time>2026-04-03T14:46:46.022Z</time></trkpt><trkpt lat="45.84096100937536" lon="8.08001941883922"><ele>794.0</ele><time>2026-04-03T14:46:47.022Z</time></trkpt><trkpt lat="45.8408723243071" lon="8.080195693414002"><ele>794.0</ele><time>2026-04-03T14:46:48.022Z</time></trkpt><trkpt lat="45.84079324997779" lon="8.080352664657513"><ele>794.0</ele><time>2026-04-03T14:46:49.022Z</time></trkpt><trkpt lat="45.84072175640333" lon="8.0804788716608"><ele>794.0</ele><time>2026-04-03T14:46:50.022Z</time></trkpt><trkpt lat="45.840674082641236" lon="8.080583897399531"><ele>794.0</ele><time>2026-04-03T14:46:51.022Z</time></trkpt><trkpt lat="45.840661943495505" lon="8.080695473096506"><ele>794.0</ele><time>2026-04-03T14:46:52.022Z</time></trkpt><trkpt lat="45.84068417751095" lon="8.08081724378785"><ele>794.0</ele><time>2026-04-03T14:46:53.022Z</time></trkpt><trkpt lat="45.840731057367066" lon="8.080972813145337"><ele>794.0</ele><time>2026-04-03T14:46:54.022Z</time></trkpt><trkpt lat="45.84076956313218" lon="8.081159757155257"><ele>794.0</ele><time>2026-04-03T14:46:55.022Z</time></trkpt><trkpt lat="45.84079686752515" lon="8.081333509543066"><ele>794.75</ele><time>2026-04-03T14:46:56.022Z</time></trkpt><trkpt lat="45.84086187296002" lon="8.081492780168961"><ele>795.5</ele><time>2026-04-03T14:46:57.022Z</time></trkpt><trkpt lat="45.8409421869654" lon="8.081662097690577"><ele>796.25</ele><time>2026-04-03T14:46:58.022Z</time></trkpt><trkpt lat="45.84099191572508" lon="8.081807662861342"><ele>797.0</ele><time>2026-04-03T14:46:59.022Z</time></trkpt><trkpt lat="45.84101645727456" lon="8.081952607444723"><ele>794.6</ele><time>2026-04-03T14:47:00.022Z</time></trkpt><trkpt lat="45.84102634729663" lon="8.08208709105656"><ele>792.2</ele><time>2026-04-03T14:47:01.022Z</time></trkpt><trkpt lat="45.841016171983796" lon="8.082238542612213"><ele>789.8</ele><time>2026-04-03T14:47:02.022Z</time></trkpt><trkpt lat="45.84099866515097" lon="8.082384424176043"><ele>787.4</ele><time>2026-04-03T14:47:03.022Z</time></trkpt><trkpt lat="45.840957323581875" lon="8.082538793482582"><ele>785.0</ele><time>2026-04-03T14:47:04.022Z</time></trkpt><trkpt lat="45.84090451422621" lon="8.082663222245118"><ele>785.0</ele><time>2026-04-03T14:47:05.022Z</time></trkpt><trkpt lat="45.8408382157049" lon="8.082749204371936"><ele>785.0</ele><time>2026-04-03T14:47:06.022Z</time></trkpt><trkpt lat="45.840747703711564" lon="8.082818272231798"><ele>785.0</ele><time>2026-04-03T14:47:07.022Z</time></trkpt><trkpt lat="45.84064753909473" lon="8.082906411279607"><ele>785.0</ele><time>2026-04-03T14:47:08.022Z</time></trkpt><trkpt lat="45.8405372643441" lon="8.082997546950487"><ele>785.0</ele><time>2026-04-03T14:47:09.022Z</time></trkpt><trkpt lat="45.84044362019295" lon="8.083054758486519"><ele>785.0</ele><time>2026-04-03T14:47:10.022Z</time></trkpt><trkpt lat="45.840374440103325" lon="8.083127345657338"><ele>785.0</ele><time>2026-04-03T14:47:11.022Z</time></trkpt><trkpt lat="45.84032071704215" lon="8.083252148105242"><ele>785.0</ele><time>2026-04-03T14:47:12.022Z</time></trkpt><trkpt lat="45.84026240993036" lon="8.083396426558608"><ele>785.0</ele><time>2026-04-03T14:47:13.022Z</time></trkpt><trkpt lat="45.84018266854632" lon="8.083549649892195"><ele>785.0</ele><time>2026-04-03T14:47:14.022Z</time></trkpt><trkpt lat="45.840089461502934" lon="8.083703915302904"><ele>784.6666666666667</ele><time>2026-04-03T14:47:15.022Z</time></trkpt><trkpt lat="45.83997621142864" lon="8.08385770561138"><ele>784.3333333333333</ele><time>2026-04-03T14:47:16.022Z</time></trkpt><trkpt lat="45.8398546688108" lon="8.084005602779662"><ele>784.0</ele><time>2026-04-03T14:47:17.022Z</time></trkpt><trkpt lat="45.83971568598002" lon="8.084129547738199"><ele>787.0</ele><time>2026-04-03T14:47:18.022Z</time></trkpt><trkpt lat="45.839593542382275" lon="8.084233383843603"><ele>790.0</ele><time>2026-04-03T14:47:19.022Z</time></trkpt><trkpt lat="45.839480397624136" lon="8.084305856452582"><ele>793.0</ele><time>2026-04-03T14:47:20.022Z</time></trkpt><trkpt lat="45.839369078841806" lon="8.084345768771097"><ele>796.0</ele><time>2026-04-03T14:47:21.022Z</time></trkpt><trkpt lat="45.83925453888412" lon="8.084351716226465"><ele>796.0</ele><time>2026-04-03T14:47:22.022Z</time></trkpt><trkpt lat="45.839149039322535" lon="8.084342850395954"><ele>796.0</ele><time>2026-04-03T14:47:23.022Z</time></trkpt><trkpt lat="45.83900097852312" lon="8.084269579911544"><ele>796.0</ele><time>2026-04-03T14:47:24.023Z</time></trkpt><trkpt lat="45.83890710557502" lon="8.084257650411"><ele>796.0</ele><time>2026-04-03T14:47:25.023Z</time></trkpt><trkpt lat="45.838819048235244" lon="8.084262377513847"><ele>796.0</ele><time>2026-04-03T14:47:26.023Z</time></trkpt><trkpt lat="45.83874501394373" lon="8.084279511058087"><ele>795.9999999999999</ele><time>2026-04-03T14:47:27.023Z</time></trkpt><trkpt lat="45.83868096029144" lon="8.084318062040854"><ele>796.0</ele><time>2026-04-03T14:47:28.023Z</time></trkpt><trkpt lat="45.83862724668704" lon="8.084384573171695"><ele>796.0</ele><time>2026-04-03T14:47:29.023Z</time></trkpt><trkpt lat="45.838582487606224" lon="8.084485015021672"><ele>796.0</ele><time>2026-04-03T14:47:30.023Z</time></trkpt><trkpt lat="45.83853893967183" lon="8.08461578089809"><ele>795.9999999999999</ele><time>2026-04-03T14:47:31.023Z</time></trkpt><trkpt lat="45.838493362684" lon="8.084756969004236"><ele>796.0</ele><time>2026-04-03T14:47:32.023Z</time></trkpt><trkpt lat="45.838492614326384" lon="8.084928094318432"><ele>798.75</ele><time>2026-04-03T14:47:33.023Z</time></trkpt><trkpt lat="45.83851397106683" lon="8.08510794864213"><ele>801.5</ele><time>2026-04-03T14:47:34.023Z</time></trkpt><trkpt lat="45.8385394051983" lon="8.085277455504137"><ele>804.25</ele><time>2026-04-03T14:47:35.023Z</time></trkpt><trkpt lat="45.83855398132022" lon="8.085434354303569"><ele>807.0</ele><time>2026-04-03T14:47:36.023Z</time></trkpt><trkpt lat="45.83855108266943" lon="8.085583700538018"><ele>807.0</ele><time>2026-04-03T14:47:37.023Z</time></trkpt><trkpt lat="45.83851535770686" lon="8.085715273558538"><ele>807.0</ele><time>2026-04-03T14:47:38.023Z</time></trkpt><trkpt lat="45.83845460731611" lon="8.085825907373112"><ele>807.0</ele><time>2026-04-03T14:47:39.023Z</time></trkpt><trkpt lat="45.838360596724286" lon="8.08593835055525"><ele>807.0</ele><time>2026-04-03T14:47:40.023Z</time></trkpt><trkpt lat="45.83826078372135" lon="8.08606082341095"><ele>805.4000000000001</ele><time>2026-04-03T14:47:41.023Z</time></trkpt><trkpt lat="45.838181801815765" lon="8.0861981239102"><ele>803.8000000000001</ele><time>2026-04-03T14:47:42.023Z</time></trkpt><trkpt lat="45.838129161427496" lon="8.086323130536394"><ele>802.2</ele><time>2026-04-03T14:47:43.023Z</time></trkpt><trkpt lat="45.83810929574149" lon="8.086442730213335"><ele>800.6</ele><time>2026-04-03T14:47:44.023Z</time></trkpt><trkpt lat="45.83811404721692" lon="8.086568822012902"><ele>799.0</ele><time>2026-04-03T14:47:45.023Z</time></trkpt><trkpt lat="45.83814215437251" lon="8.086692207015401"><ele>799.0</ele><time>2026-04-03T14:47:46.023Z</time></trkpt><trkpt lat="45.838187261518065" lon="8.086821281697146"><ele>799.0</ele><time>2026-04-03T14:47:47.023Z</time></trkpt><trkpt lat="45.83822568241273" lon="8.086957318440371"><ele>799.0</ele><time>2026-04-03T14:47:48.023Z</time></trkpt><trkpt lat="45.838255285877025" lon="8.087107221114382"><ele>799.0</ele><time>2026-04-03T14:47:49.023Z</time></trkpt><trkpt lat="45.83825892732627" lon="8.087258281004019"><ele>799.0</ele><time>2026-04-03T14:47:50.023Z</time></trkpt><trkpt lat="45.838243439379696" lon="8.087384726058385"><ele>801.4000000000001</ele><time>2026-04-03T14:47:51.023Z</time></trkpt><trkpt lat="45.83820082455686" lon="8.087483347237182"><ele>803.8</ele><time>2026-04-03T14:47:52.023Z</time></trkpt><trkpt lat="45.83812702689419" lon="8.087557545084893"><ele>806.2</ele><time>2026-04-03T14:47:53.023Z</time></trkpt><trkpt lat="45.838017194406405" lon="8.08762266146557"><ele>808.5999999999999</ele><time>2026-04-03T14:47:54.023Z</time></trkpt><trkpt lat="45.83788952361362" lon="8.087698062839237"><ele>811.0</ele><time>2026-04-03T14:47:55.023Z</time></trkpt><trkpt lat="45.83777619934441" lon="8.08777591065245"><ele>811.0</ele><time>2026-04-03T14:47:56.023Z</time></trkpt><trkpt lat="45.83768206846463" lon="8.087821480045399"><ele>811.0</ele><time>2026-04-03T14:47:57.023Z</time></trkpt><trkpt lat="45.837588772568594" lon="8.08781811868297"><ele>811.0</ele><time>2026-04-03T14:47:58.023Z</time></trkpt><trkpt lat="45.837498042011916" lon="8.087766790078371"><ele>811.0</ele><time>2026-04-03T14:47:59.023Z</time></trkpt><trkpt lat="45.83741228416241" lon="8.087705487091153"><ele>811.0</ele><time>2026-04-03T14:48:00.023Z</time></trkpt><trkpt lat="45.83733296193184" lon="8.087692824257877"><ele>804.0</ele><time>2026-04-03T14:48:01.023Z</time></trkpt><trkpt lat="45.83723722287093" lon="8.08773369715468"><ele>797.0</ele><time>2026-04-03T14:48:02.023Z</time></trkpt><trkpt lat="45.837119939707776" lon="8.087803420704553"><ele>790.0</ele><time>2026-04-03T14:48:03.023Z</time></trkpt><trkpt lat="45.83698871870684" lon="8.087885069989484"><ele>783.0</ele><time>2026-04-03T14:48:04.023Z</time></trkpt><trkpt lat="45.83686022821879" lon="8.087985543350872"><ele>779.75</ele><time>2026-04-03T14:48:05.023Z</time></trkpt><trkpt lat="45.836730535396846" lon="8.088085644320229"><ele>776.5</ele><time>2026-04-03T14:48:06.023Z</time></trkpt><trkpt lat="45.836609649254314" lon="8.088187589764834"><ele>773.25</ele><time>2026-04-03T14:48:07.024Z</time></trkpt><trkpt lat="45.83649270977667" lon="8.088241640426043"><ele>770.0</ele><time>2026-04-03T14:48:08.024Z</time></trkpt><trkpt lat="45.83637563643174" lon="8.08823148390254"><ele>770.0000000000001</ele><time>2026-04-03T14:48:09.024Z</time></trkpt><trkpt lat="45.83626765520329" lon="8.088182792764036"><ele>770.0</ele><time>2026-04-03T14:48:10.024Z</time></trkpt><trkpt lat="45.836180412579665" lon="8.088137089983134"><ele>770.0</ele><time>2026-04-03T14:48:11.024Z</time></trkpt><trkpt lat="45.8361068213146" lon="8.088146725398092"><ele>770.0</ele><time>2026-04-03T14:48:12.024Z</time></trkpt><trkpt lat="45.83605983359378" lon="8.088208939019673"><ele>770.0000000000001</ele><time>2026-04-03T14:48:13.024Z</time></trkpt><trkpt lat="45.836023503042746" lon="8.088319724965341"><ele>770.0</ele><time>2026-04-03T14:48:14.024Z</time></trkpt><trkpt lat="45.83597083845457" lon="8.088429107995786"><ele>779.4</ele><time>2026-04-03T14:48:15.024Z</time></trkpt><trkpt lat="45.83587247885871" lon="8.08847872828367"><ele>788.8</ele><time>2026-04-03T14:48:16.024Z</time></trkpt><trkpt lat="45.83578282446228" lon="8.088475817767046"><ele>798.2</ele><time>2026-04-03T14:48:17.024Z</time></trkpt><trkpt lat="45.835705071154585" lon="8.088423182736078"><ele>807.6</ele><time>2026-04-03T14:48:18.024Z</time></trkpt><trkpt lat="45.835622110448426" lon="8.088377798949372"><ele>817.0</ele><time>2026-04-03T14:48:19.024Z</time></trkpt><trkpt lat="45.83554180023362" lon="8.088397948142173"><ele>817.0</ele><time>2026-04-03T14:48:20.024Z</time></trkpt><trkpt lat="45.83543951470048" lon="8.088435734196576"><ele>817.0</ele><time>2026-04-03T14:48:21.024Z</time></trkpt><trkpt lat="45.83533602526738" lon="8.088459872835976"><ele>817.0</ele><time>2026-04-03T14:48:22.024Z</time></trkpt><trkpt lat="45.83522072363069" lon="8.088429558996042"><ele>817.0</ele><time>2026-04-03T14:48:23.024Z</time></trkpt><trkpt lat="45.8350877337295" lon="8.088371678413056"><ele>820.4000000000001</ele><time>2026-04-03T14:48:24.024Z</time></trkpt><trkpt lat="45.83495704386563" lon="8.088362363010003"><ele>823.8000000000001</ele><time>2026-04-03T14:48:25.024Z</time></trkpt><trkpt lat="45.834846089256416" lon="8.088352444792779"><ele>827.2</ele><time>2026-04-03T14:48:26.024Z</time></trkpt><trkpt lat="45.834738758814005" lon="8.088333336355074"><ele>830.6</ele><time>2026-04-03T14:48:27.024Z</time></trkpt><trkpt lat="45.83466574538441" lon="8.08826632597881"><ele>834.0</ele><time>2026-04-03T14:48:28.024Z</time></trkpt><trkpt lat="45.83460605830406" lon="8.088154450895935"><ele>823.8000000000001</ele><time>2026-04-03T14:48:29.024Z</time></trkpt><trkpt lat="45.834553835599706" lon="8.088022035733658"><ele>813.6</ele><time>2026-04-03T14:48:30.024Z</time></trkpt><trkpt lat="45.83450809417205" lon="8.08790493553214"><ele>803.4</ele><time>2026-04-03T14:48:31.024Z</time></trkpt><trkpt lat="45.834443482067435" lon="8.087779461063965"><ele>793.2</ele><time>2026-04-03T14:48:32.024Z</time></trkpt><trkpt lat="45.83436286488526" lon="8.087684347982954"><ele>783.0</ele><time>2026-04-03T14:48:33.024Z</time></trkpt><trkpt lat="45.83427398071122" lon="8.087603266371627"><ele>783.0</ele><time>2026-04-03T14:48:34.024Z</time></trkpt><trkpt lat="45.83416825753349" lon="8.087531864587572"><ele>783.0</ele><time>2026-04-03T14:48:35.024Z</time></trkpt><trkpt lat="45.83406302712155" lon="8.087468193286545"><ele>783.0</ele><time>2026-04-03T14:48:36.024Z</time></trkpt><trkpt lat="45.83397906028623" lon="8.087409714498772"><ele>783.0</ele><time>2026-04-03T14:48:37.024Z</time></trkpt><trkpt lat="45.83389673945647" lon="8.087367890941836"><ele>783.0</ele><time>2026-04-03T14:48:38.024Z</time></trkpt><trkpt lat="45.83382198486655" lon="8.087344316815289"><ele>783.0</ele><time>2026-04-03T14:48:39.024Z</time></trkpt><trkpt lat="45.83374900883815" lon="8.087385661739813"><ele>783.0</ele><time>2026-04-03T14:48:40.024Z</time></trkpt><trkpt lat="45.83366869923502" lon="8.087451350637537"><ele>783.0</ele><time>2026-04-03T14:48:41.024Z</time></trkpt><trkpt lat="45.833593239345994" lon="8.087551843917899"><ele>783.0</ele><time>2026-04-03T14:48:42.024Z</time></trkpt><trkpt lat="45.8335232400684" lon="8.087697884999711"><ele>783.0</ele><time>2026-04-03T14:48:43.024Z</time></trkpt><trkpt lat="45.83345708026125" lon="8.087875768178135"><ele>787.6666666666667</ele><time>2026-04-03T14:48:44.024Z</time></trkpt><trkpt lat="45.83338405715807" lon="8.088080528619415"><ele>792.3333333333334</ele><time>2026-04-03T14:48:45.024Z</time></trkpt><trkpt lat="45.83329583417856" lon="8.088303673281178"><ele>797.0</ele><time>2026-04-03T14:48:46.024Z</time></trkpt><trkpt lat="45.83321679413348" lon="8.088520160436138"><ele>797.0</ele><time>2026-04-03T14:48:47.024Z</time></trkpt><trkpt lat="45.833131589478874" lon="8.088727352417385"><ele>797.0</ele><time>2026-04-03T14:48:48.024Z</time></trkpt><trkpt lat="45.833041403830045" lon="8.08893366193862"><ele>797.0</ele><time>2026-04-03T14:48:49.025Z</time></trkpt><trkpt lat="45.832945625914164" lon="8.089142694728972"><ele>802.3333333333334</ele><time>2026-04-03T14:48:50.025Z</time></trkpt><trkpt lat="45.8328397905509" lon="8.089352234717277"><ele>807.6666666666667</ele><time>2026-04-03T14:48:51.025Z</time></trkpt><trkpt lat="45.83272601456302" lon="8.08956465564252"><ele>813.0</ele><time>2026-04-03T14:48:52.025Z</time></trkpt><trkpt lat="45.83260536103131" lon="8.089777216560533"><ele>803.3333333333333</ele><time>2026-04-03T14:48:53.025Z</time></trkpt><trkpt lat="45.83248065100949" lon="8.089992772552431"><ele>793.6666666666666</ele><time>2026-04-03T14:48:54.025Z</time></trkpt><trkpt lat="45.8323600619557" lon="8.090207519291381"><ele>784.0</ele><time>2026-04-03T14:48:55.025Z</time></trkpt><trkpt lat="45.83224434173871" lon="8.0904024346872"><ele>784.0</ele><time>2026-04-03T14:48:56.025Z</time></trkpt><trkpt lat="45.832137815720245" lon="8.090582894175201"><ele>784.0</ele><time>2026-04-03T14:48:57.025Z</time></trkpt><trkpt lat="45.83203596497596" lon="8.0907509791601"><ele>784.0</ele><time>2026-04-03T14:48:58.025Z</time></trkpt><trkpt lat="45.83193383606958" lon="8.090907892592348"><ele>778.3333333333333</ele><time>2026-04-03T14:48:59.025Z</time></trkpt><trkpt lat="45.83183059740989" lon="8.091071532237686"><ele>772.6666666666666</ele><time>2026-04-03T14:49:00.025Z</time></trkpt><trkpt lat="45.83171788251706" lon="8.091248225549018"><ele>767.0</ele><time>2026-04-03T14:49:01.025Z</time></trkpt><trkpt lat="45.83161170968933" lon="8.091421746203585"><ele>767.0</ele><time>2026-04-03T14:49:02.025Z</time></trkpt><trkpt lat="45.831507758130826" lon="8.091587828349377"><ele>767.0</ele><time>2026-04-03T14:49:03.025Z</time></trkpt><trkpt lat="45.83140756827193" lon="8.091740899724217"><ele>767.0</ele><time>2026-04-03T14:49:04.025Z</time></trkpt><trkpt lat="45.83131987041243" lon="8.091879469305336"><ele>767.0</ele><time>2026-04-03T14:49:05.025Z</time></trkpt><trkpt lat="45.831244150894236" lon="8.091996401008677"><ele>770.25</ele><time>2026-04-03T14:49:06.025Z</time></trkpt><trkpt lat="45.83118591074025" lon="8.0921356543722"><ele>773.5</ele><time>2026-04-03T14:49:07.025Z</time></trkpt><trkpt lat="45.83115045517909" lon="8.092297743386919"><ele>776.75</ele><time>2026-04-03T14:49:08.025Z</time></trkpt><trkpt lat="45.831145381896484" lon="8.092507240516229"><ele>780.0</ele><time>2026-04-03T14:49:09.025Z</time></trkpt><trkpt lat="45.83115267479872" lon="8.092747646356973"><ele>786.0</ele><time>2026-04-03T14:49:10.025Z</time></trkpt><trkpt lat="45.831151989772195" lon="8.093007158197462"><ele>792.0</ele><time>2026-04-03T14:49:11.025Z</time></trkpt><trkpt lat="45.83113695969373" lon="8.093237344422763"><ele>798.0</ele><time>2026-04-03T14:49:12.025Z</time></trkpt><trkpt lat="45.83111020621761" lon="8.093437036607918"><ele>800.25</ele><time>2026-04-03T14:49:13.025Z</time></trkpt><trkpt lat="45.83106036561415" lon="8.093616773569387"><ele>802.5</ele><time>2026-04-03T14:49:14.025Z</time></trkpt><trkpt lat="45.83099605569206" lon="8.093774001019343"><ele>804.75</ele><time>2026-04-03T14:49:15.025Z</time></trkpt><trkpt lat="45.830906730910854" lon="8.093911061130399"><ele>807.0</ele><time>2026-04-03T14:49:16.025Z</time></trkpt><trkpt lat="45.83080595704921" lon="8.09406083754401"><ele>797.5</ele><time>2026-04-03T14:49:17.025Z</time></trkpt><trkpt lat="45.83073643392218" lon="8.09423032154801"><ele>788.0</ele><time>2026-04-03T14:49:18.025Z</time></trkpt><trkpt lat="45.83068391293024" lon="8.094426147850214"><ele>778.5</ele><time>2026-04-03T14:49:19.025Z</time></trkpt><trkpt lat="45.83063065430624" lon="8.094611948551819"><ele>769.0</ele><time>2026-04-03T14:49:20.025Z</time></trkpt><trkpt lat="45.83054800464675" lon="8.094766009375165"><ele>769.0</ele><time>2026-04-03T14:49:21.025Z</time></trkpt><trkpt lat="45.83042839791994" lon="8.094896932329744"><ele>769.0</ele><time>2026-04-03T14:49:22.025Z</time></trkpt><trkpt lat="45.830287088230136" lon="8.09501648264523"><ele>769.0</ele><time>2026-04-03T14:49:23.025Z</time></trkpt><trkpt lat="45.830147041995374" lon="8.095116478568999"><ele>761.0</ele><time>2026-04-03T14:49:24.025Z</time></trkpt><trkpt lat="45.83002277998038" lon="8.09520086566772"><ele>753.0</ele><time>2026-04-03T14:49:25.025Z</time></trkpt><trkpt lat="45.82991101285101" lon="8.095293692396886"><ele>745.0</ele><time>2026-04-03T14:49:26.025Z</time></trkpt><trkpt lat="45.82981179200696" lon="8.095419273914928"><ele>737.0</ele><time>2026-04-03T14:49:27.025Z</time></trkpt><trkpt lat="45.82972450740254" lon="8.095585208604286"><ele>742.0</ele><time>2026-04-03T14:49:28.025Z</time></trkpt><trkpt lat="45.82964203178628" lon="8.095757637405345"><ele>747.0</ele><time>2026-04-03T14:49:29.025Z</time></trkpt><trkpt lat="45.829569137102325" lon="8.095903857657376"><ele>752.0</ele><time>2026-04-03T14:49:30.025Z</time></trkpt><trkpt lat="45.829526566762034" lon="8.09603370190627"><ele>757.0</ele><time>2026-04-03T14:49:31.026Z</time></trkpt><trkpt lat="45.82952678008337" lon="8.096193472856434"><ele>757.0</ele><time>2026-04-03T14:49:32.026Z</time></trkpt><trkpt lat="45.82956558167549" lon="8.096389864063783"><ele>757.0</ele><time>2026-04-03T14:49:33.026Z</time></trkpt><trkpt lat="45.82961999918578" lon="8.096593929938635"><ele>757.0</ele><time>2026-04-03T14:49:34.026Z</time></trkpt><trkpt lat="45.82967510849859" lon="8.096770263599877"><ele>757.0</ele><time>2026-04-03T14:49:35.026Z</time></trkpt><trkpt lat="45.829734732045814" lon="8.096939278594494"><ele>756.75</ele><time>2026-04-03T14:49:36.026Z</time></trkpt><trkpt lat="45.82977454782767" lon="8.09714028631239"><ele>756.5</ele><time>2026-04-03T14:49:37.026Z</time></trkpt><trkpt lat="45.82979398848129" lon="8.09735280472259"><ele>756.25</ele><time>2026-04-03T14:49:38.026Z</time></trkpt><trkpt lat="45.82979175281848" lon="8.097547192203757"><ele>756.0</ele><time>2026-04-03T14:49:39.026Z</time></trkpt><trkpt lat="45.829761191095244" lon="8.097748630446088"><ele>756.0</ele><time>2026-04-03T14:49:40.026Z</time></trkpt><trkpt lat="45.82971526185813" lon="8.097985016797296"><ele>756.0</ele><time>2026-04-03T14:49:41.026Z</time></trkpt><trkpt lat="45.82967122726984" lon="8.09823640989124"><ele>756.0</ele><time>2026-04-03T14:49:42.026Z</time></trkpt><trkpt lat="45.82963639785484" lon="8.098455153966933"><ele>757.5</ele><time>2026-04-03T14:49:43.026Z</time></trkpt><trkpt lat="45.82960630470957" lon="8.098644583443177"><ele>759.0</ele><time>2026-04-03T14:49:44.026Z</time></trkpt><trkpt lat="45.82957426482435" lon="8.098819414068846"><ele>760.5</ele><time>2026-04-03T14:49:45.026Z</time></trkpt><trkpt lat="45.829521668315756" lon="8.098983918461306"><ele>762.0</ele><time>2026-04-03T14:49:46.026Z</time></trkpt><trkpt lat="45.829438253656456" lon="8.099140342435737"><ele>764.0</ele><time>2026-04-03T14:49:47.026Z</time></trkpt><trkpt lat="45.82935288236012" lon="8.099299700225059"><ele>766.0</ele><time>2026-04-03T14:49:48.026Z</time></trkpt><trkpt lat="45.829287494680074" lon="8.099462195147243"><ele>768.0</ele><time>2026-04-03T14:49:49.026Z</time></trkpt><trkpt lat="45.829244851380345" lon="8.099633133571166"><ele>770.0</ele><time>2026-04-03T14:49:50.026Z</time></trkpt><trkpt lat="45.829234809646564" lon="8.099814299031092"><ele>760.4</ele><time>2026-04-03T14:49:51.026Z</time></trkpt><trkpt lat="45.82922113210611" lon="8.099969114955885"><ele>750.8</ele><time>2026-04-03T14:49:52.026Z</time></trkpt><trkpt lat="45.82918750155957" lon="8.100108370474059"><ele>741.2</ele><time>2026-04-03T14:49:53.026Z</time></trkpt><trkpt lat="45.82911087955589" lon="8.100220802318313"><ele>731.6</ele><time>2026-04-03T14:49:54.026Z</time></trkpt><trkpt lat="45.82901075712883" lon="8.100320634056677"><ele>722.0</ele><time>2026-04-03T14:49:55.026Z</time></trkpt><trkpt lat="45.8289223401954" lon="8.100424349239619"><ele>722.0</ele><time>2026-04-03T14:49:56.026Z</time></trkpt><trkpt lat="45.82883945885982" lon="8.10053592105124"><ele>722.0</ele><time>2026-04-03T14:49:57.026Z</time></trkpt><trkpt lat="45.82876648541646" lon="8.100664598616687"><ele>722.0</ele><time>2026-04-03T14:49:58.026Z</time></trkpt><trkpt lat="45.82870762938901" lon="8.100828732806871"><ele>722.0</ele><time>2026-04-03T14:49:59.026Z</time></trkpt><trkpt lat="45.82865852353165" lon="8.101030064413928"><ele>726.3333333333333</ele><time>2026-04-03T14:50:00.026Z</time></trkpt><trkpt lat="45.828622724648525" lon="8.101271114148172"><ele>730.6666666666666</ele><time>2026-04-03T14:50:01.026Z</time></trkpt><trkpt lat="45.828584506456686" lon="8.10154003711161"><ele>735.0</ele><time>2026-04-03T14:50:02.026Z</time></trkpt><trkpt lat="45.82854887770752" lon="8.101827679945684"><ele>737.3333333333334</ele><time>2026-04-03T14:50:03.026Z</time></trkpt><trkpt lat="45.82850859892271" lon="8.102088669852806"><ele>739.6666666666667</ele><time>2026-04-03T14:50:04.026Z</time></trkpt><trkpt lat="45.82847458573293" lon="8.102336151855962"><ele>742.0</ele><time>2026-04-03T14:50:05.026Z</time></trkpt><trkpt lat="45.8284515954291" lon="8.10257115052425"><ele>745.6666666666667</ele><time>2026-04-03T14:50:06.026Z</time></trkpt><trkpt lat="45.8284450756098" lon="8.102806652522005"><ele>749.3333333333334</ele><time>2026-04-03T14:50:07.026Z</time></trkpt><trkpt lat="45.82845871279308" lon="8.1030514532263"><ele>753.0</ele><time>2026-04-03T14:50:08.026Z</time></trkpt><trkpt lat="45.82847835394191" lon="8.103296914747931"><ele>753.0</ele><time>2026-04-03T14:50:09.026Z</time></trkpt><trkpt lat="45.828493923391626" lon="8.10353942211998"><ele>753.0</ele><time>2026-04-03T14:50:10.026Z</time></trkpt><trkpt lat="45.82849398563139" lon="8.103770371834234"><ele>753.0</ele><time>2026-04-03T14:50:11.026Z</time></trkpt><trkpt lat="45.82849951949356" lon="8.104003574820906"><ele>755.3333333333334</ele><time>2026-04-03T14:50:12.026Z</time></trkpt><trkpt lat="45.82851126958041" lon="8.104239124153393"><ele>757.6666666666667</ele><time>2026-04-03T14:50:13.027Z</time></trkpt><trkpt lat="45.82851768624877" lon="8.104467869659226"><ele>760.0</ele><time>2026-04-03T14:50:14.027Z</time></trkpt><trkpt lat="45.828508993729066" lon="8.104681003790605"><ele>760.0</ele><time>2026-04-03T14:50:15.027Z</time></trkpt><trkpt lat="45.82847955480123" lon="8.1048655194498"><ele>760.0</ele><time>2026-04-03T14:50:16.027Z</time></trkpt><trkpt lat="45.828442288052734" lon="8.105049544124212"><ele>760.0</ele><time>2026-04-03T14:50:17.027Z</time></trkpt><trkpt lat="45.82841685378807" lon="8.10523672026219"><ele>760.0</ele><time>2026-04-03T14:50:18.027Z</time></trkpt><trkpt lat="45.82841265995334" lon="8.105413922595341"><ele>749.3333333333334</ele><time>2026-04-03T14:50:19.027Z</time></trkpt><trkpt lat="45.82842878401" lon="8.105606136250607"><ele>738.6666666666666</ele><time>2026-04-03T14:50:20.027Z</time></trkpt><trkpt lat="45.828482747266264" lon="8.1058054866942"><ele>728.0</ele><time>2026-04-03T14:50:21.027Z</time></trkpt><trkpt lat="45.828553962010744" lon="8.106027288523663"><ele>728.0</ele><time>2026-04-03T14:50:22.027Z</time></trkpt><trkpt lat="45.828611376921366" lon="8.106286799920897"><ele>728.0</ele><time>2026-04-03T14:50:23.027Z</time></trkpt><trkpt lat="45.82865185459571" lon="8.106538097385451"><ele>728.0</ele><time>2026-04-03T14:50:24.027Z</time></trkpt><trkpt lat="45.82868332125533" lon="8.106768160603059"><ele>723.5</ele><time>2026-04-03T14:50:25.027Z</time></trkpt><trkpt lat="45.82871052829665" lon="8.106980941336463"><ele>719.0</ele><time>2026-04-03T14:50:26.027Z</time></trkpt><trkpt lat="45.8287333414417" lon="8.107190724510971"><ele>714.5</ele><time>2026-04-03T14:50:27.027Z</time></trkpt><trkpt lat="45.8287698570215" lon="8.1073935270306"><ele>710.0</ele><time>2026-04-03T14:50:28.027Z</time></trkpt><trkpt lat="45.828823414203335" lon="8.107600642995566"><ele>705.6666666666666</ele><time>2026-04-03T14:50:29.027Z</time></trkpt><trkpt lat="45.82888702437967" lon="8.10779607104961"><ele>701.3333333333334</ele><time>2026-04-03T14:50:30.027Z</time></trkpt><trkpt lat="45.82896550069123" lon="8.107970277768604"><ele>697.0</ele><time>2026-04-03T14:50:31.027Z</time></trkpt><trkpt lat="45.82906602729965" lon="8.10815043080787"><ele>689.6666666666667</ele><time>2026-04-03T14:50:32.027Z</time></trkpt><trkpt lat="45.829183969421585" lon="8.108320805526189"><ele>682.3333333333334</ele><time>2026-04-03T14:50:33.027Z</time></trkpt><trkpt lat="45.82931222452599" lon="8.108485455253927"><ele>675.0</ele><time>2026-04-03T14:50:34.027Z</time></trkpt><trkpt lat="45.82943007945266" lon="8.108643063146065"><ele>681.3333333333334</ele><time>2026-04-03T14:50:35.027Z</time></trkpt><trkpt lat="45.82954600082498" lon="8.10878352659353"><ele>687.6666666666667</ele><time>2026-04-03T14:50:36.027Z</time></trkpt><trkpt lat="45.82965336399857" lon="8.108931805676258"><ele>694.0</ele><time>2026-04-03T14:50:37.027Z</time></trkpt><trkpt lat="45.82975040668748" lon="8.109113385059292"><ele>694.0</ele><time>2026-04-03T14:50:38.027Z</time></trkpt><trkpt lat="45.82983454047782" lon="8.109316602493923"><ele>694.0</ele><time>2026-04-03T14:50:39.027Z</time></trkpt><trkpt lat="45.82990330133479" lon="8.109535180440242"><ele>694.0</ele><time>2026-04-03T14:50:40.027Z</time></trkpt><trkpt lat="45.8299635028036" lon="8.109742148339597"><ele>702.6666666666667</ele><time>2026-04-03T14:50:41.027Z</time></trkpt><trkpt lat="45.83003755132882" lon="8.10993323972121"><ele>711.3333333333334</ele><time>2026-04-03T14:50:42.027Z</time></trkpt><trkpt lat="45.83010512153032" lon="8.110127611600486"><ele>720.0</ele><time>2026-04-03T14:50:43.027Z</time></trkpt><trkpt lat="45.830157288208376" lon="8.11032837467569"><ele>720.0</ele><time>2026-04-03T14:50:44.027Z</time></trkpt><trkpt lat="45.83018933535048" lon="8.110537705410955"><ele>720.0</ele><time>2026-04-03T14:50:45.027Z</time></trkpt><trkpt lat="45.830210422101565" lon="8.110743939692435"><ele>720.0</ele><time>2026-04-03T14:50:46.027Z</time></trkpt><trkpt lat="45.830215409584206" lon="8.110954706532217"><ele>720.0</ele><time>2026-04-03T14:50:47.027Z</time></trkpt><trkpt lat="45.83020978271078" lon="8.11116553808763"><ele>714.75</ele><time>2026-04-03T14:50:48.027Z</time></trkpt><trkpt lat="45.830188802002034" lon="8.111370169916107"><ele>709.5</ele><time>2026-04-03T14:50:49.027Z</time></trkpt><trkpt lat="45.830164494485494" lon="8.111576124795345"><ele>704.25</ele><time>2026-04-03T14:50:50.027Z</time></trkpt><trkpt lat="45.830142427499176" lon="8.111781041010058"><ele>699.0</ele><time>2026-04-03T14:50:51.027Z</time></trkpt><trkpt lat="45.830123985874785" lon="8.111977549042248"><ele>687.0</ele><time>2026-04-03T14:50:52.027Z</time></trkpt><trkpt lat="45.83010961446606" lon="8.112162670236973"><ele>675.0</ele><time>2026-04-03T14:50:53.027Z</time></trkpt><trkpt lat="45.83010533569724" lon="8.112349892503591"><ele>663.0</ele><time>2026-04-03T14:50:54.027Z</time></trkpt><trkpt lat="45.8301013940095" lon="8.112539062660241"><ele>651.0</ele><time>2026-04-03T14:50:55.027Z</time></trkpt><trkpt lat="45.830097393932284" lon="8.112726537509362"><ele>651.0</ele><time>2026-04-03T14:50:56.028Z</time></trkpt><trkpt lat="45.83009186263325" lon="8.112895841866477"><ele>651.0</ele><time>2026-04-03T14:50:57.028Z</time></trkpt><trkpt lat="45.8300890021258" lon="8.11304830449134"><ele>651.0</ele><time>2026-04-03T14:50:58.028Z</time></trkpt><trkpt lat="45.83008883411798" lon="8.113186403120341"><ele>651.0</ele><time>2026-04-03T14:50:59.028Z</time></trkpt><trkpt lat="45.83008542818202" lon="8.113320014441598"><ele>651.0</ele><time>2026-04-03T14:51:00.028Z</time></trkpt><trkpt lat="45.83009427443004" lon="8.113442346285177"><ele>651.2857142857143</ele><time>2026-04-03T14:51:01.028Z</time></trkpt><trkpt lat="45.83011400080668" lon="8.113545689497219"><ele>651.5714285714286</ele><time>2026-04-03T14:51:02.028Z</time></trkpt><trkpt lat="45.83013426029373" lon="8.11364707606501"><ele>651.8571428571429</ele><time>2026-04-03T14:51:03.028Z</time></trkpt><trkpt lat="45.83013821049042" lon="8.11374117306104"><ele>652.1428571428571</ele><time>2026-04-03T14:51:04.028Z</time></trkpt><trkpt lat="45.830115392287496" lon="8.113843642584458"><ele>652.4285714285714</ele><time>2026-04-03T14:51:05.028Z</time></trkpt><trkpt lat="45.830085089320605" lon="8.11392307602587"><ele>652.7142857142858</ele><time>2026-04-03T14:51:06.028Z</time></trkpt><trkpt lat="45.83002694406527" lon="8.113990408612482"><ele>653.0</ele><time>2026-04-03T14:51:07.047Z</time></trkpt><trkpt lat="45.82994873237745" lon="8.114029273967946"><ele>653.0</ele><time>2026-04-03T14:51:08.047Z</time></trkpt><trkpt lat="45.829879220184175" lon="8.114052273124425"><ele>653.0</ele><time>2026-04-03T14:51:09.047Z</time></trkpt><trkpt lat="45.82979900658782" lon="8.114155422758675"><ele>653.0</ele><time>2026-04-03T14:51:11.047Z</time></trkpt><trkpt lat="45.82980682886606" lon="8.114271038821123"><ele>653.0</ele><time>2026-04-03T14:51:13.047Z</time></trkpt><trkpt lat="45.829896473902856" lon="8.114370469961257"><ele>653.0</ele><time>2026-04-03T14:51:15.047Z</time></trkpt><trkpt lat="45.82998868257686" lon="8.114358106274066"><ele>651.6666666666666</ele><time>2026-04-03T14:51:17.047Z</time></trkpt><trkpt lat="45.8300418813586" lon="8.11423211361902"><ele>650.3333333333333</ele><time>2026-04-03T14:51:19.047Z</time></trkpt><trkpt lat="45.83008616409018" lon="8.114154403035325"><ele>649.0</ele><time>2026-04-03T14:51:20.047Z</time></trkpt><trkpt lat="45.830140828258024" lon="8.1141050675761"><ele>647.6666666666666</ele><time>2026-04-03T14:51:21.047Z</time></trkpt><trkpt lat="45.83020963880524" lon="8.114072908589016"><ele>646.3333333333334</ele><time>2026-04-03T14:51:22.047Z</time></trkpt><trkpt lat="45.83031856781799" lon="8.11410271692948"><ele>645.0</ele><time>2026-04-03T14:51:23.047Z</time></trkpt><trkpt lat="45.83043072500305" lon="8.114111994603606"><ele>645.0</ele><time>2026-04-03T14:51:24.047Z</time></trkpt><trkpt lat="45.83053142766297" lon="8.11411821153788"><ele>645.0</ele><time>2026-04-03T14:51:25.047Z</time></trkpt><trkpt lat="45.83060879313884" lon="8.114119380570285"><ele>645.0</ele><time>2026-04-03T14:51:26.047Z</time></trkpt><trkpt lat="45.830672717619244" lon="8.114144317721992"><ele>645.0</ele><time>2026-04-03T14:51:27.047Z</time></trkpt><trkpt lat="45.830727729064826" lon="8.114201981597729"><ele>645.0</ele><time>2026-04-03T14:51:29.047Z</time></trkpt><trkpt lat="45.830669517850225" lon="8.114300589628547"><ele>645.0</ele><time>2026-04-03T14:51:32.047Z</time></trkpt><trkpt lat="45.83058404543656" lon="8.114304946181019"><ele>645.0</ele><time>2026-04-03T14:51:33.047Z</time></trkpt><trkpt lat="45.830484465572866" lon="8.114290899205505"><ele>645.0</ele><time>2026-04-03T14:51:34.047Z</time></trkpt><trkpt lat="45.830395704242356" lon="8.114304992287847"><ele>645.0</ele><time>2026-04-03T14:51:35.047Z</time></trkpt><trkpt lat="45.83029954339004" lon="8.11432344259259"><ele>645.0</ele><time>2026-04-03T14:51:36.047Z</time></trkpt><trkpt lat="45.830206617866615" lon="8.11435655104234"><ele>645.0</ele><time>2026-04-03T14:51:37.047Z</time></trkpt><trkpt lat="45.83011665966286" lon="8.114421696570949"><ele>645.0</ele><time>2026-04-03T14:51:38.047Z</time></trkpt><trkpt lat="45.83002463619014" lon="8.114544315135587"><ele>645.0</ele><time>2026-04-03T14:51:39.047Z</time></trkpt><trkpt lat="45.829930494265575" lon="8.114700237360559"><ele>645.0</ele><time>2026-04-03T14:51:40.048Z</time></trkpt><trkpt lat="45.82984532361993" lon="8.11485620399855"><ele>645.0</ele><time>2026-04-03T14:51:41.048Z</time></trkpt><trkpt lat="45.829772071624035" lon="8.114979168335609"><ele>644.0</ele><time>2026-04-03T14:51:42.048Z</time></trkpt><trkpt lat="45.82971666895479" lon="8.115086777222436"><ele>643.0</ele><time>2026-04-03T14:51:43.048Z</time></trkpt><trkpt lat="45.829686809977325" lon="8.115224139332016"><ele>642.0</ele><time>2026-04-03T14:51:44.048Z</time></trkpt><trkpt lat="45.829685936749385" lon="8.115387326549587"><ele>641.0</ele><time>2026-04-03T14:51:45.048Z</time></trkpt><trkpt lat="45.829708884604706" lon="8.115561507567588"><ele>640.0</ele><time>2026-04-03T14:51:46.048Z</time></trkpt><trkpt lat="45.82970204095036" lon="8.115699169214274"><ele>643.5</ele><time>2026-04-03T14:51:47.048Z</time></trkpt><trkpt lat="45.82966399459884" lon="8.115830446365097"><ele>647.0</ele><time>2026-04-03T14:51:48.048Z</time></trkpt><trkpt lat="45.8296027832818" lon="8.11597369788305"><ele>650.5</ele><time>2026-04-03T14:51:49.048Z</time></trkpt><trkpt lat="45.8295347736329" lon="8.116138225094538"><ele>654.0</ele><time>2026-04-03T14:51:50.048Z</time></trkpt><trkpt lat="45.829487661403576" lon="8.116323491080694"><ele>654.0</ele><time>2026-04-03T14:51:51.048Z</time></trkpt><trkpt lat="45.82946105530536" lon="8.116513040960045"><ele>654.0</ele><time>2026-04-03T14:51:52.048Z</time></trkpt><trkpt lat="45.82947549814852" lon="8.116724713374689"><ele>654.0</ele><time>2026-04-03T14:51:53.048Z</time></trkpt><trkpt lat="45.82952161971896" lon="8.116946150451387"><ele>654.0</ele><time>2026-04-03T14:51:54.05Z</time></trkpt><trkpt lat="45.82958963041834" lon="8.117175770734173"><ele>657.3333333333334</ele><time>2026-04-03T14:51:55.05Z</time></trkpt><trkpt lat="45.82965282625515" lon="8.117418395974427"><ele>660.6666666666667</ele><time>2026-04-03T14:51:56.05Z</time></trkpt><trkpt lat="45.8297167774213" lon="8.11764315462492"><ele>664.0</ele><time>2026-04-03T14:51:57.05Z</time></trkpt><trkpt lat="45.829760981408825" lon="8.117885504861995"><ele>664.0</ele><time>2026-04-03T14:51:58.05Z</time></trkpt><trkpt lat="45.82980932134249" lon="8.118149117315198"><ele>664.0</ele><time>2026-04-03T14:51:59.05Z</time></trkpt><trkpt lat="45.82985358675127" lon="8.118414910028816"><ele>664.0</ele><time>2026-04-03T14:52:00.05Z</time></trkpt><trkpt lat="45.82989483669723" lon="8.118675044237957"><ele>659.3333333333334</ele><time>2026-04-03T14:52:01.051Z</time></trkpt><trkpt lat="45.829936651053096" lon="8.118917778340268"><ele>654.6666666666666</ele><time>2026-04-03T14:52:02.051Z</time></trkpt><trkpt lat="45.829983084577655" lon="8.119153130929503"><ele>650.0</ele><time>2026-04-03T14:52:03.051Z</time></trkpt><trkpt lat="45.83003527725517" lon="8.11937604107882"><ele>646.3333333333333</ele><time>2026-04-03T14:52:04.05Z</time></trkpt><trkpt lat="45.830081000237584" lon="8.119586984524485"><ele>642.6666666666666</ele><time>2026-04-03T14:52:05.05Z</time></trkpt><trkpt lat="45.83011367981403" lon="8.119801945218914"><ele>639.0</ele><time>2026-04-03T14:52:06.05Z</time></trkpt><trkpt lat="45.830123216323976" lon="8.12001213649118"><ele>638.3333333333334</ele><time>2026-04-03T14:52:07.051Z</time></trkpt><trkpt lat="45.83011287611744" lon="8.120226693693427"><ele>637.6666666666667</ele><time>2026-04-03T14:52:08.051Z</time></trkpt><trkpt lat="45.83009681680986" lon="8.120451948076214"><ele>637.0</ele><time>2026-04-03T14:52:09.051Z</time></trkpt><trkpt lat="45.83005613812006" lon="8.12066098959776"><ele>639.0</ele><time>2026-04-03T14:52:10.051Z</time></trkpt><trkpt lat="45.82998436588038" lon="8.12086828932991"><ele>641.0</ele><time>2026-04-03T14:52:11.051Z</time></trkpt><trkpt lat="45.82989906062171" lon="8.121071706941688"><ele>643.0</ele><time>2026-04-03T14:52:12.051Z</time></trkpt><trkpt lat="45.829843994383175" lon="8.121286623288354"><ele>643.0</ele><time>2026-04-03T14:52:13.051Z</time></trkpt><trkpt lat="45.82980348810632" lon="8.121499889550977"><ele>643.0</ele><time>2026-04-03T14:52:14.051Z</time></trkpt><trkpt lat="45.82978034701868" lon="8.12172020024424"><ele>643.0</ele><time>2026-04-03T14:52:15.051Z</time></trkpt><trkpt lat="45.829777183495786" lon="8.121960939028845"><ele>641.3333333333334</ele><time>2026-04-03T14:52:16.051Z</time></trkpt><trkpt lat="45.829796046715586" lon="8.122206143048494"><ele>639.6666666666666</ele><time>2026-04-03T14:52:17.051Z</time></trkpt><trkpt lat="45.82982867380263" lon="8.122461244786223"><ele>638.0</ele><time>2026-04-03T14:52:18.051Z</time></trkpt><trkpt lat="45.829858915817" lon="8.122725808167058"><ele>638.0</ele><time>2026-04-03T14:52:19.051Z</time></trkpt><trkpt lat="45.82988446171303" lon="8.122979587436461"><ele>638.0</ele><time>2026-04-03T14:52:20.051Z</time></trkpt><trkpt lat="45.829893003152776" lon="8.123226493916222"><ele>638.0</ele><time>2026-04-03T14:52:21.051Z</time></trkpt><trkpt lat="45.82989236419919" lon="8.123465597832674"><ele>637.0</ele><time>2026-04-03T14:52:22.051Z</time></trkpt><trkpt lat="45.829870545725925" lon="8.123717748208941"><ele>636.0</ele><time>2026-04-03T14:52:23.051Z</time></trkpt><trkpt lat="45.82982496630086" lon="8.123957569308871"><ele>635.0</ele><time>2026-04-03T14:52:24.051Z</time></trkpt><trkpt lat="45.82977853854202" lon="8.1241718571375"><ele>635.0</ele><time>2026-04-03T14:52:25.051Z</time></trkpt><trkpt lat="45.829740928042085" lon="8.124370702253724"><ele>635.0</ele><time>2026-04-03T14:52:26.051Z</time></trkpt><trkpt lat="45.8297220024155" lon="8.12457416527118"><ele>635.0</ele><time>2026-04-03T14:52:27.051Z</time></trkpt><trkpt lat="45.82971802550092" lon="8.124805666116185"><ele>635.0</ele><time>2026-04-03T14:52:28.051Z</time></trkpt><trkpt lat="45.829731083158876" lon="8.125050402983213"><ele>634.0</ele><time>2026-04-03T14:52:29.051Z</time></trkpt><trkpt lat="45.82976849544518" lon="8.125286200408178"><ele>633.0</ele><time>2026-04-03T14:52:30.051Z</time></trkpt><trkpt lat="45.829826986029445" lon="8.12551332928263"><ele>632.0</ele><time>2026-04-03T14:52:31.051Z</time></trkpt><trkpt lat="45.82990281712212" lon="8.125725968208528"><ele>632.6666666666666</ele><time>2026-04-03T14:52:32.051Z</time></trkpt><trkpt lat="45.82997033781862" lon="8.125945350610476"><ele>633.3333333333334</ele><time>2026-04-03T14:52:33.051Z</time></trkpt><trkpt lat="45.830016203656825" lon="8.126174918663477"><ele>634.0</ele><time>2026-04-03T14:52:34.051Z</time></trkpt><trkpt lat="45.83003214950389" lon="8.126403001267525"><ele>633.25</ele><time>2026-04-03T14:52:35.051Z</time></trkpt><trkpt lat="45.830020855107705" lon="8.126616197633737"><ele>632.5</ele><time>2026-04-03T14:52:36.051Z</time></trkpt><trkpt lat="45.82998823975671" lon="8.126809702837365"><ele>631.75</ele><time>2026-04-03T14:52:37.051Z</time></trkpt><trkpt lat="45.829929476511005" lon="8.12699298801951"><ele>631.0</ele><time>2026-04-03T14:52:38.051Z</time></trkpt><trkpt lat="45.8298628795862" lon="8.127155872728357"><ele>631.0</ele><time>2026-04-03T14:52:39.051Z</time></trkpt><trkpt lat="45.829798474911556" lon="8.12730711734837"><ele>631.0</ele><time>2026-04-03T14:52:40.051Z</time></trkpt><trkpt lat="45.829767588229586" lon="8.12748843893932"><ele>631.0</ele><time>2026-04-03T14:52:41.051Z</time></trkpt><trkpt lat="45.82977700122876" lon="8.127699558773415"><ele>631.0</ele><time>2026-04-03T14:52:42.051Z</time></trkpt><trkpt lat="45.829821853864544" lon="8.127925578193537"><ele>631.6666666666667</ele><time>2026-04-03T14:52:43.051Z</time></trkpt><trkpt lat="45.82987996185278" lon="8.12814547926727"><ele>632.3333333333334</ele><time>2026-04-03T14:52:44.052Z</time></trkpt><trkpt lat="45.82989481313417" lon="8.12837457611728"><ele>633.0</ele><time>2026-04-03T14:52:45.052Z</time></trkpt><trkpt lat="45.829886433086415" lon="8.128630294832865"><ele>633.3333333333334</ele><time>2026-04-03T14:52:46.052Z</time></trkpt><trkpt lat="45.82987120953327" lon="8.128901340929934"><ele>633.6666666666667</ele><time>2026-04-03T14:52:47.052Z</time></trkpt><trkpt lat="45.82985637562964" lon="8.12915752168218"><ele>634.0</ele><time>2026-04-03T14:52:48.052Z</time></trkpt><trkpt lat="45.829840976260286" lon="8.129413125910956"><ele>634.3333333333334</ele><time>2026-04-03T14:52:49.052Z</time></trkpt><trkpt lat="45.82983187799611" lon="8.129660390200662"><ele>634.6666666666666</ele><time>2026-04-03T14:52:50.052Z</time></trkpt><trkpt lat="45.829819873022586" lon="8.129890850066804"><ele>635.0</ele><time>2026-04-03T14:52:51.052Z</time></trkpt><trkpt lat="45.82978295682041" lon="8.130125172848098"><ele>635.0</ele><time>2026-04-03T14:52:52.052Z</time></trkpt><trkpt lat="45.82972401169959" lon="8.130353466668522"><ele>635.0</ele><time>2026-04-03T14:52:53.052Z</time></trkpt><trkpt lat="45.829667105969406" lon="8.130587262423667"><ele>635.0</ele><time>2026-04-03T14:52:54.052Z</time></trkpt><trkpt lat="45.82960626715457" lon="8.130823579154724"><ele>638.3333333333333</ele><time>2026-04-03T14:52:55.052Z</time></trkpt><trkpt lat="45.82952302835338" lon="8.131054225314989"><ele>641.6666666666666</ele><time>2026-04-03T14:52:56.052Z</time></trkpt><trkpt lat="45.829428266464596" lon="8.131278161094706"><ele>645.0</ele><time>2026-04-03T14:52:57.052Z</time></trkpt><trkpt lat="45.82933964620254" lon="8.131517895962968"><ele>635.0</ele><time>2026-04-03T14:52:58.052Z</time></trkpt><trkpt lat="45.82925078796045" lon="8.131737384516775"><ele>625.0</ele><time>2026-04-03T14:52:59.052Z</time></trkpt><trkpt lat="45.82916921935155" lon="8.131954556683766"><ele>615.0</ele><time>2026-04-03T14:53:00.052Z</time></trkpt><trkpt lat="45.829104339410875" lon="8.132163891977742"><ele>615.0</ele><time>2026-04-03T14:53:01.052Z</time></trkpt><trkpt lat="45.82905733841115" lon="8.132365115386934"><ele>615.0</ele><time>2026-04-03T14:53:02.052Z</time></trkpt><trkpt lat="45.82901813643048" lon="8.132544336088547"><ele>615.0</ele><time>2026-04-03T14:53:03.052Z</time></trkpt><trkpt lat="45.828984600366574" lon="8.132700599438117"><ele>615.0</ele><time>2026-04-03T14:53:04.052Z</time></trkpt><trkpt lat="45.828932825317686" lon="8.132821064326942"><ele>615.25</ele><time>2026-04-03T14:53:05.052Z</time></trkpt><trkpt lat="45.8288504695356" lon="8.132910495590847"><ele>615.5</ele><time>2026-04-03T14:53:06.052Z</time></trkpt><trkpt lat="45.828721478887914" lon="8.133002341502397"><ele>615.75</ele><time>2026-04-03T14:53:07.052Z</time></trkpt><trkpt lat="45.828557555576936" lon="8.13310253162624"><ele>616.0</ele><time>2026-04-03T14:53:08.052Z</time></trkpt><trkpt lat="45.828404228082285" lon="8.133196130253882"><ele>614.3333333333334</ele><time>2026-04-03T14:53:09.052Z</time></trkpt><trkpt lat="45.828252551250216" lon="8.133306614393982"><ele>612.6666666666666</ele><time>2026-04-03T14:53:10.052Z</time></trkpt><trkpt lat="45.82809375348345" lon="8.133426818039174"><ele>611.0</ele><time>2026-04-03T14:53:11.052Z</time></trkpt><trkpt lat="45.82793650125594" lon="8.133569323517063"><ele>611.0</ele><time>2026-04-03T14:53:12.052Z</time></trkpt><trkpt lat="45.82777889826742" lon="8.133711002714122"><ele>611.0</ele><time>2026-04-03T14:53:13.052Z</time></trkpt><trkpt lat="45.827631875400584" lon="8.133848746839838"><ele>611.0</ele><time>2026-04-03T14:53:14.052Z</time></trkpt><trkpt lat="45.827476481689914" lon="8.133977132579327"><ele>609.6666666666666</ele><time>2026-04-03T14:53:15.052Z</time></trkpt><trkpt lat="45.82731936047613" lon="8.1340998228989"><ele>608.3333333333334</ele><time>2026-04-03T14:53:16.052Z</time></trkpt><trkpt lat="45.82715762798146" lon="8.13420685003142"><ele>607.0</ele><time>2026-04-03T14:53:17.052Z</time></trkpt><trkpt lat="45.8269876297485" lon="8.134287538763344"><ele>607.0</ele><time>2026-04-03T14:53:18.052Z</time></trkpt><trkpt lat="45.82681437995106" lon="8.134356173648369"><ele>607.0</ele><time>2026-04-03T14:53:19.052Z</time></trkpt><trkpt lat="45.82665118762832" lon="8.13442866373498"><ele>607.0</ele><time>2026-04-03T14:53:20.052Z</time></trkpt><trkpt lat="45.826502721859065" lon="8.134498764569887"><ele>602.6666666666667</ele><time>2026-04-03T14:53:21.052Z</time></trkpt><trkpt lat="45.82635752197713" lon="8.134566565906491"><ele>598.3333333333334</ele><time>2026-04-03T14:53:22.052Z</time></trkpt><trkpt lat="45.82620671349251" lon="8.13463206094198"><ele>594.0</ele><time>2026-04-03T14:53:23.052Z</time></trkpt><trkpt lat="45.826045805991114" lon="8.134700144456335"><ele>591.0</ele><time>2026-04-03T14:53:24.052Z</time></trkpt><trkpt lat="45.82587680784522" lon="8.134754574406259"><ele>588.0</ele><time>2026-04-03T14:53:25.052Z</time></trkpt><trkpt lat="45.825707693876716" lon="8.134806297716025"><ele>585.0</ele><time>2026-04-03T14:53:26.053Z</time></trkpt><trkpt lat="45.82554372110476" lon="8.134865297273862"><ele>586.0</ele><time>2026-04-03T14:53:27.053Z</time></trkpt><trkpt lat="45.82538471636778" lon="8.134917195121494"><ele>587.0</ele><time>2026-04-03T14:53:28.053Z</time></trkpt><trkpt lat="45.82522919592339" lon="8.13496427877492"><ele>588.0</ele><time>2026-04-03T14:53:29.053Z</time></trkpt><trkpt lat="45.82509734484152" lon="8.135009897038518"><ele>588.0</ele><time>2026-04-03T14:53:30.053Z</time></trkpt><trkpt lat="45.82498731544794" lon="8.135052265983088"><ele>588.0</ele><time>2026-04-03T14:53:31.053Z</time></trkpt><trkpt lat="45.82489574000942" lon="8.135112370889242"><ele>588.0</ele><time>2026-04-03T14:53:32.053Z</time></trkpt><trkpt lat="45.82482234692393" lon="8.135201680672683"><ele>588.0</ele><time>2026-04-03T14:53:33.053Z</time></trkpt><trkpt lat="45.824759793473135" lon="8.13534146797769"><ele>588.0</ele><time>2026-04-03T14:53:34.053Z</time></trkpt><trkpt lat="45.82470602929128" lon="8.13550218279053"><ele>588.0</ele><time>2026-04-03T14:53:35.053Z</time></trkpt><trkpt lat="45.82461798656079" lon="8.135654557562626"><ele>588.0</ele><time>2026-04-03T14:53:36.053Z</time></trkpt><trkpt lat="45.82450916897626" lon="8.135813934159465"><ele>588.0</ele><time>2026-04-03T14:53:37.053Z</time></trkpt><trkpt lat="45.82439725499406" lon="8.13596928897788"><ele>588.0</ele><time>2026-04-03T14:53:38.053Z</time></trkpt><trkpt lat="45.8242914483659" lon="8.136126155136044"><ele>588.5</ele><time>2026-04-03T14:53:39.053Z</time></trkpt><trkpt lat="45.82420427223693" lon="8.136304150836681"><ele>589.0</ele><time>2026-04-03T14:53:40.053Z</time></trkpt><trkpt lat="45.82412939720068" lon="8.136486267376075"><ele>589.5</ele><time>2026-04-03T14:53:41.053Z</time></trkpt><trkpt lat="45.82403800480351" lon="8.136642224158301"><ele>590.0</ele><time>2026-04-03T14:53:42.053Z</time></trkpt><trkpt lat="45.82394534499927" lon="8.136765287758326"><ele>590.0</ele><time>2026-04-03T14:53:43.053Z</time></trkpt><trkpt lat="45.823837111471114" lon="8.136817342996084"><ele>590.0</ele><time>2026-04-03T14:53:44.053Z</time></trkpt><trkpt lat="45.823744778800204" lon="8.13687992125604"><ele>590.0</ele><time>2026-04-03T14:53:45.053Z</time></trkpt><trkpt lat="45.8236488052981" lon="8.1369264114153"><ele>590.0</ele><time>2026-04-03T14:53:46.053Z</time></trkpt><trkpt lat="45.82354379577287" lon="8.136948306851524"><ele>590.0</ele><time>2026-04-03T14:53:47.053Z</time></trkpt><trkpt lat="45.82343227841086" lon="8.13691199670377"><ele>586.75</ele><time>2026-04-03T14:53:48.053Z</time></trkpt><trkpt lat="45.823304838366504" lon="8.13685776436167"><ele>583.5</ele><time>2026-04-03T14:53:49.053Z</time></trkpt><trkpt lat="45.82317480706333" lon="8.136809406841914"><ele>580.25</ele><time>2026-04-03T14:53:50.053Z</time></trkpt><trkpt lat="45.82305427223592" lon="8.13678046411758"><ele>577.0</ele><time>2026-04-03T14:53:51.053Z</time></trkpt><trkpt lat="45.82293326897066" lon="8.13677942752953"><ele>577.0</ele><time>2026-04-03T14:53:52.053Z</time></trkpt><trkpt lat="45.82280580704674" lon="8.136821340790904"><ele>577.0</ele><time>2026-04-03T14:53:53.053Z</time></trkpt><trkpt lat="45.82268103530595" lon="8.13687425001609"><ele>577.0</ele><time>2026-04-03T14:53:54.053Z</time></trkpt><trkpt lat="45.82255602375593" lon="8.136931824916498"><ele>577.0</ele><time>2026-04-03T14:53:55.053Z</time></trkpt><trkpt lat="45.82243375996378" lon="8.137005627256809"><ele>580.0</ele><time>2026-04-03T14:53:56.053Z</time></trkpt><trkpt lat="45.822301877271194" lon="8.137134859707151"><ele>583.0</ele><time>2026-04-03T14:53:57.053Z</time></trkpt><trkpt lat="45.82217046972176" lon="8.13726579466247"><ele>586.0</ele><time>2026-04-03T14:53:58.053Z</time></trkpt><trkpt lat="45.82201834395429" lon="8.137424793307382"><ele>587.6666666666667</ele><time>2026-04-03T14:53:59.053Z</time></trkpt><trkpt lat="45.82182547549202" lon="8.13748483121953"><ele>589.3333333333334</ele><time>2026-04-03T14:54:00.055Z</time></trkpt><trkpt lat="45.82165683482829" lon="8.137610601651318"><ele>591.0</ele><time>2026-04-03T14:54:01.056Z</time></trkpt><trkpt lat="45.82148695161837" lon="8.13775555301396"><ele>591.0</ele><time>2026-04-03T14:54:02.056Z</time></trkpt><trkpt lat="45.82132677795499" lon="8.137888773345711"><ele>591.0</ele><time>2026-04-03T14:54:03.056Z</time></trkpt><trkpt lat="45.821183956357416" lon="8.138033294259502"><ele>591.0</ele><time>2026-04-03T14:54:04.055Z</time></trkpt><trkpt lat="45.82104265231911" lon="8.138131040497436"><ele>591.0</ele><time>2026-04-03T14:54:05.055Z</time></trkpt><trkpt lat="45.8209313525292" lon="8.138213572013978"><ele>591.0</ele><time>2026-04-03T14:54:06.055Z</time></trkpt><trkpt lat="45.82082692666969" lon="8.138309336030444"><ele>591.0</ele><time>2026-04-03T14:54:07.055Z</time></trkpt><trkpt lat="45.82070915522758" lon="8.138322471565509"><ele>591.0</ele><time>2026-04-03T14:54:08.055Z</time></trkpt><trkpt lat="45.82057493778132" lon="8.1382743453322"><ele>591.0</ele><time>2026-04-03T14:54:09.055Z</time></trkpt><trkpt lat="45.8204301281388" lon="8.138288779627876"><ele>591.0</ele><time>2026-04-03T14:54:10.055Z</time></trkpt><trkpt lat="45.82029305393801" lon="8.138287793272958"><ele>591.0</ele><time>2026-04-03T14:54:11.055Z</time></trkpt><trkpt lat="45.82016723623154" lon="8.138288542813543"><ele>591.0</ele><time>2026-04-03T14:54:12.055Z</time></trkpt><trkpt lat="45.82005323251579" lon="8.1382977691433"><ele>587.8</ele><time>2026-04-03T14:54:13.055Z</time></trkpt><trkpt lat="45.8199605357189" lon="8.13833194829356"><ele>584.6</ele><time>2026-04-03T14:54:14.055Z</time></trkpt><trkpt lat="45.819879230881476" lon="8.138400450497553"><ele>581.4</ele><time>2026-04-03T14:54:15.055Z</time></trkpt><trkpt lat="45.81979909330384" lon="8.1384870808294"><ele>578.2</ele><time>2026-04-03T14:54:16.055Z</time></trkpt><trkpt lat="45.819748750307106" lon="8.138632035079613"><ele>575.0</ele><time>2026-04-03T14:54:17.055Z</time></trkpt><trkpt lat="45.81968029694938" lon="8.138780290216173"><ele>575.0</ele><time>2026-04-03T14:54:18.055Z</time></trkpt><trkpt lat="45.81959996487938" lon="8.13890900093432"><ele>575.0</ele><time>2026-04-03T14:54:19.055Z</time></trkpt><trkpt lat="45.81949417498474" lon="8.138995840927645"><ele>575.0</ele><time>2026-04-03T14:54:20.055Z</time></trkpt><trkpt lat="45.81940394025282" lon="8.139057126897928"><ele>575.0</ele><time>2026-04-03T14:54:21.055Z</time></trkpt><trkpt lat="45.819325064968794" lon="8.139099585272598"><ele>575.0</ele><time>2026-04-03T14:54:22.055Z</time></trkpt><trkpt lat="45.819269744504226" lon="8.139192234591178"><ele>571.75</ele><time>2026-04-03T14:54:23.055Z</time></trkpt><trkpt lat="45.8192272760356" lon="8.139313429372695"><ele>568.5</ele><time>2026-04-03T14:54:24.056Z</time></trkpt><trkpt lat="45.81916581802393" lon="8.139463428453258"><ele>565.25</ele><time>2026-04-03T14:54:25.056Z</time></trkpt><trkpt lat="45.81907031446153" lon="8.139612926817527"><ele>562.0</ele><time>2026-04-03T14:54:26.056Z</time></trkpt><trkpt lat="45.81897660162021" lon="8.139758887631011"><ele>564.5</ele><time>2026-04-03T14:54:27.056Z</time></trkpt><trkpt lat="45.818874503014634" lon="8.139897219658174"><ele>567.0</ele><time>2026-04-03T14:54:28.056Z</time></trkpt><trkpt lat="45.81877076982981" lon="8.140020636652556"><ele>569.5</ele><time>2026-04-03T14:54:29.056Z</time></trkpt><trkpt lat="45.81865947758366" lon="8.140119067110287"><ele>572.0</ele><time>2026-04-03T14:54:30.056Z</time></trkpt><trkpt lat="45.81855920146262" lon="8.140201198263028"><ele>568.0</ele><time>2026-04-03T14:54:31.056Z</time></trkpt><trkpt lat="45.818463763412815" lon="8.140296855363975"><ele>564.0</ele><time>2026-04-03T14:54:32.056Z</time></trkpt><trkpt lat="45.81838480925394" lon="8.140412500516568"><ele>560.0</ele><time>2026-04-03T14:54:33.056Z</time></trkpt><trkpt lat="45.81831369087645" lon="8.140537132775224"><ele>556.0</ele><time>2026-04-03T14:54:34.056Z</time></trkpt><trkpt lat="45.81824416140011" lon="8.140692400538084"><ele>558.75</ele><time>2026-04-03T14:54:35.056Z</time></trkpt><trkpt lat="45.81817791087971" lon="8.140848954729547"><ele>561.5</ele><time>2026-04-03T14:54:36.056Z</time></trkpt><trkpt lat="45.81810101695742" lon="8.140979600824371"><ele>564.25</ele><time>2026-04-03T14:54:37.056Z</time></trkpt><trkpt lat="45.81804759548406" lon="8.14113114310932"><ele>567.0</ele><time>2026-04-03T14:54:38.056Z</time></trkpt><trkpt lat="45.81800481038654" lon="8.14130953644294"><ele>567.0</ele><time>2026-04-03T14:54:39.056Z</time></trkpt><trkpt lat="45.817969351380796" lon="8.141489578279392"><ele>567.0</ele><time>2026-04-03T14:54:40.056Z</time></trkpt><trkpt lat="45.8179363846454" lon="8.141655921887613"><ele>567.0</ele><time>2026-04-03T14:54:41.056Z</time></trkpt><trkpt lat="45.81790307575331" lon="8.141805470754772"><ele>567.0</ele><time>2026-04-03T14:54:42.056Z</time></trkpt><trkpt lat="45.81788745920521" lon="8.141943674603375"><ele>567.3333333333334</ele><time>2026-04-03T14:54:43.056Z</time></trkpt><trkpt lat="45.81789540728756" lon="8.142071947011113"><ele>567.6666666666666</ele><time>2026-04-03T14:54:44.056Z</time></trkpt><trkpt lat="45.81792037745138" lon="8.142195041100381"><ele>568.0</ele><time>2026-04-03T14:54:45.056Z</time></trkpt><trkpt lat="45.81794793417412" lon="8.142302365612215"><ele>568.3333333333333</ele><time>2026-04-03T14:54:46.056Z</time></trkpt><trkpt lat="45.81796551329989" lon="8.142405181847012"><ele>568.6666666666666</ele><time>2026-04-03T14:54:47.056Z</time></trkpt><trkpt lat="45.81795310558892" lon="8.14249786601204"><ele>569.0</ele><time>2026-04-03T14:54:48.056Z</time></trkpt><trkpt lat="45.81788547195433" lon="8.142628974233151"><ele>567.2</ele><time>2026-04-03T14:54:50.056Z</time></trkpt><trkpt lat="45.81785527232441" lon="8.1428044287642"><ele>565.4</ele><time>2026-04-03T14:54:52.056Z</time></trkpt><trkpt lat="45.81789569243602" lon="8.142909512616717"><ele>563.6</ele><time>2026-04-03T14:54:53.056Z</time></trkpt><trkpt lat="45.817957924295186" lon="8.14301127238933"><ele>561.8</ele><time>2026-04-03T14:54:54.056Z</time></trkpt><trkpt lat="45.818028676377445" lon="8.143125792231054"><ele>560.0</ele><time>2026-04-03T14:54:55.056Z</time></trkpt><trkpt lat="45.818124692198865" lon="8.143237648331533"><ele>557.3333333333333</ele><time>2026-04-03T14:54:56.056Z</time></trkpt><trkpt lat="45.81820941580142" lon="8.143398215056031"><ele>554.6666666666666</ele><time>2026-04-03T14:54:57.056Z</time></trkpt><trkpt lat="45.81831849337044" lon="8.143546970175136"><ele>552.0</ele><time>2026-04-03T14:54:58.056Z</time></trkpt><trkpt lat="45.81843343179836" lon="8.143707915170982"><ele>554.0</ele><time>2026-04-03T14:54:59.056Z</time></trkpt><trkpt lat="45.818542809618634" lon="8.143871975167293"><ele>556.0</ele><time>2026-04-03T14:55:00.056Z</time></trkpt><trkpt lat="45.81865191092383" lon="8.144023407349335"><ele>558.0</ele><time>2026-04-03T14:55:01.056Z</time></trkpt><trkpt lat="45.81876496352498" lon="8.144184403265179"><ele>558.0</ele><time>2026-04-03T14:55:02.056Z</time></trkpt><trkpt lat="45.818887430512284" lon="8.144351064909584"><ele>558.0</ele><time>2026-04-03T14:55:03.056Z</time></trkpt><trkpt lat="45.819023628219206" lon="8.144509521887013"><ele>558.0</ele><time>2026-04-03T14:55:04.056Z</time></trkpt><trkpt lat="45.819177078449634" lon="8.144651130430233"><ele>558.6666666666666</ele><time>2026-04-03T14:55:05.056Z</time></trkpt><trkpt lat="45.81933892810058" lon="8.144792418955317"><ele>559.3333333333333</ele><time>2026-04-03T14:55:06.057Z</time></trkpt><trkpt lat="45.8194986727686" lon="8.144923424462043"><ele>560.0</ele><time>2026-04-03T14:55:07.057Z</time></trkpt><trkpt lat="45.819651114037576" lon="8.145043307614854"><ele>560.0</ele><time>2026-04-03T14:55:08.057Z</time></trkpt><trkpt lat="45.81980667298244" lon="8.145173097004907"><ele>560.0</ele><time>2026-04-03T14:55:09.057Z</time></trkpt><trkpt lat="45.81996086302078" lon="8.145303327611362"><ele>560.0</ele><time>2026-04-03T14:55:10.057Z</time></trkpt><trkpt lat="45.820108313351284" lon="8.145439806390542"><ele>565.6666666666666</ele><time>2026-04-03T14:55:11.057Z</time></trkpt><trkpt lat="45.8202382547541" lon="8.145598264548934"><ele>571.3333333333334</ele><time>2026-04-03T14:55:12.057Z</time></trkpt><trkpt lat="45.82034212834819" lon="8.14576706255877"><ele>577.0</ele><time>2026-04-03T14:55:13.057Z</time></trkpt><trkpt lat="45.820413202907865" lon="8.145947239171782"><ele>577.0</ele><time>2026-04-03T14:55:14.057Z</time></trkpt><trkpt lat="45.82044710650016" lon="8.14615043116281"><ele>577.0</ele><time>2026-04-03T14:55:15.057Z</time></trkpt><trkpt lat="45.82044193152879" lon="8.146364836493865"><ele>577.0</ele><time>2026-04-03T14:55:16.057Z</time></trkpt><trkpt lat="45.82038685315597" lon="8.146592884109708"><ele>578.0</ele><time>2026-04-03T14:55:17.057Z</time></trkpt><trkpt lat="45.82030744543146" lon="8.146831610548219"><ele>579.0</ele><time>2026-04-03T14:55:18.057Z</time></trkpt><trkpt lat="45.820231167397196" lon="8.147091035929787"><ele>580.0</ele><time>2026-04-03T14:55:19.057Z</time></trkpt><trkpt lat="45.82015543820979" lon="8.147372525676785"><ele>573.6666666666667</ele><time>2026-04-03T14:55:20.057Z</time></trkpt><trkpt lat="45.82008150219141" lon="8.147672595175552"><ele>567.3333333333334</ele><time>2026-04-03T14:55:21.057Z</time></trkpt><trkpt lat="45.82001780420702" lon="8.147966816954302"><ele>561.0</ele><time>2026-04-03T14:55:22.057Z</time></trkpt><trkpt lat="45.8199568745265" lon="8.14827859643953"><ele>561.0</ele><time>2026-04-03T14:55:23.057Z</time></trkpt><trkpt lat="45.819904586374804" lon="8.148587597249803"><ele>561.0</ele><time>2026-04-03T14:55:24.057Z</time></trkpt><trkpt lat="45.81986191176468" lon="8.148878496299984"><ele>561.0</ele><time>2026-04-03T14:55:25.057Z</time></trkpt><trkpt lat="45.81983152019826" lon="8.149159232268515"><ele>562.3333333333334</ele><time>2026-04-03T14:55:26.057Z</time></trkpt><trkpt lat="45.81982077227343" lon="8.149451673301535"><ele>563.6666666666667</ele><time>2026-04-03T14:55:27.057Z</time></trkpt><trkpt lat="45.819822181765936" lon="8.14975851007961"><ele>565.0</ele><time>2026-04-03T14:55:28.057Z</time></trkpt><trkpt lat="45.8198350229209" lon="8.150084346891392"><ele>565.0</ele><time>2026-04-03T14:55:29.057Z</time></trkpt><trkpt lat="45.81985037557981" lon="8.150431815309563"><ele>565.0</ele><time>2026-04-03T14:55:30.057Z</time></trkpt><trkpt lat="45.81986206543175" lon="8.150795063309564"><ele>564.5</ele><time>2026-04-03T14:55:31.057Z</time></trkpt><trkpt lat="45.819867635391006" lon="8.151131976168095"><ele>564.0</ele><time>2026-04-03T14:55:32.057Z</time></trkpt><trkpt lat="45.81988295840679" lon="8.151474250867581"><ele>560.5</ele><time>2026-04-03T14:55:33.057Z</time></trkpt><trkpt lat="45.81991442202921" lon="8.15181207885515"><ele>557.0</ele><time>2026-04-03T14:55:34.057Z</time></trkpt><trkpt lat="45.819964389661905" lon="8.152144116367841"><ele>554.3333333333333</ele><time>2026-04-03T14:55:35.057Z</time></trkpt><trkpt lat="45.82002669191974" lon="8.152452891336615"><ele>551.6666666666666</ele><time>2026-04-03T14:55:36.057Z</time></trkpt><trkpt lat="45.82009301154898" lon="8.152744577189843"><ele>549.0</ele><time>2026-04-03T14:55:37.057Z</time></trkpt><trkpt lat="45.82018350186594" lon="8.153024025191785"><ele>556.0</ele><time>2026-04-03T14:55:38.057Z</time></trkpt><trkpt lat="45.820306881888456" lon="8.153291919976375"><ele>563.0</ele><time>2026-04-03T14:55:39.057Z</time></trkpt><trkpt lat="45.82047189312073" lon="8.153541532609976"><ele>563.0</ele><time>2026-04-03T14:55:40.057Z</time></trkpt><trkpt lat="45.82068258678463" lon="8.153775411429077"><ele>563.0</ele><time>2026-04-03T14:55:41.057Z</time></trkpt><trkpt lat="45.82092405906569" lon="8.154031597988457"><ele>562.5</ele><time>2026-04-03T14:55:42.057Z</time></trkpt><trkpt lat="45.82116149937175" lon="8.154326038594451"><ele>562.0</ele><time>2026-04-03T14:55:43.057Z</time></trkpt><trkpt lat="45.821375829310796" lon="8.154623820431311"><ele>561.5</ele><time>2026-04-03T14:55:44.057Z</time></trkpt><trkpt lat="45.821567449845304" lon="8.154918882447936"><ele>561.0</ele><time>2026-04-03T14:55:45.057Z</time></trkpt><trkpt lat="45.82174093637933" lon="8.155193719439382"><ele>563.0</ele><time>2026-04-03T14:55:46.057Z</time></trkpt><trkpt lat="45.82188598499451" lon="8.155454297691001"><ele>565.0</ele><time>2026-04-03T14:55:47.057Z</time></trkpt><trkpt lat="45.82201919774618" lon="8.155691328215626"><ele>567.0</ele><time>2026-04-03T14:55:48.057Z</time></trkpt><trkpt lat="45.82212139613207" lon="8.155926410841467"><ele>567.0</ele><time>2026-04-03T14:55:49.058Z</time></trkpt><trkpt lat="45.82218894211395" lon="8.156161219503646"><ele>567.0</ele><time>2026-04-03T14:55:50.058Z</time></trkpt><trkpt lat="45.82224627221217" lon="8.156413011896369"><ele>567.0</ele><time>2026-04-03T14:55:51.058Z</time></trkpt><trkpt lat="45.822326276212515" lon="8.15668543190348"><ele>564.5</ele><time>2026-04-03T14:55:52.058Z</time></trkpt><trkpt lat="45.82244334523888" lon="8.156972860159426"><ele>562.0</ele><time>2026-04-03T14:55:53.058Z</time></trkpt><trkpt lat="45.82257323083884" lon="8.157285949321134"><ele>573.0</ele><time>2026-04-03T14:55:54.058Z</time></trkpt><trkpt lat="45.82271457381258" lon="8.15761573330896"><ele>584.0</ele><time>2026-04-03T14:55:55.058Z</time></trkpt><trkpt lat="45.82286046951962" lon="8.15794929604728"><ele>578.0</ele><time>2026-04-03T14:55:56.058Z</time></trkpt><trkpt lat="45.82300623143287" lon="8.158285458387734"><ele>572.0</ele><time>2026-04-03T14:55:57.058Z</time></trkpt><trkpt lat="45.82314607737631" lon="8.158624290631844"><ele>572.0</ele><time>2026-04-03T14:55:58.058Z</time></trkpt><trkpt lat="45.8232835247624" lon="8.158948712448227"><ele>572.0</ele><time>2026-04-03T14:55:59.058Z</time></trkpt><trkpt lat="45.823422209680544" lon="8.159259073774773"><ele>575.5</ele><time>2026-04-03T14:56:00.058Z</time></trkpt><trkpt lat="45.82355970406714" lon="8.15956251278585"><ele>579.0</ele><time>2026-04-03T14:56:01.058Z</time></trkpt><trkpt lat="45.823691542521836" lon="8.159860070982626"><ele>569.0</ele><time>2026-04-03T14:56:02.058Z</time></trkpt><trkpt lat="45.823826872582764" lon="8.160138929576574"><ele>559.0</ele><time>2026-04-03T14:56:03.058Z</time></trkpt><trkpt lat="45.82397248099453" lon="8.16040938735146"><ele>559.0</ele><time>2026-04-03T14:56:04.058Z</time></trkpt><trkpt lat="45.82411859136339" lon="8.160676898200622"><ele>559.0</ele><time>2026-04-03T14:56:05.058Z</time></trkpt><trkpt lat="45.82425356270628" lon="8.160953216494754"><ele>556.0</ele><time>2026-04-03T14:56:06.059Z</time></trkpt><trkpt lat="45.824366400113426" lon="8.161242724117278"><ele>553.0</ele><time>2026-04-03T14:56:07.06Z</time></trkpt><trkpt lat="45.82447055146459" lon="8.16153219155145"><ele>553.0</ele><time>2026-04-03T14:56:08.06Z</time></trkpt><trkpt lat="45.82458090089012" lon="8.161808795639008"><ele>553.0</ele><time>2026-04-03T14:56:09.06Z</time></trkpt><trkpt lat="45.82471025446417" lon="8.162069609709272"><ele>553.0</ele><time>2026-04-03T14:56:10.06Z</time></trkpt><trkpt lat="45.82486845026154" lon="8.162302238587822"><ele>557.0</ele><time>2026-04-03T14:56:11.06Z</time></trkpt><trkpt lat="45.82504294048806" lon="8.16251640461544"><ele>561.0</ele><time>2026-04-03T14:56:12.06Z</time></trkpt><trkpt lat="45.825222125048946" lon="8.162729025683692"><ele>561.0</ele><time>2026-04-03T14:56:13.059Z</time></trkpt><trkpt lat="45.8254015245713" lon="8.162952884758393"><ele>561.0</ele><time>2026-04-03T14:56:14.059Z</time></trkpt><trkpt lat="45.82557443111854" lon="8.163185685189086"><ele>561.6666666666666</ele><time>2026-04-03T14:56:15.06Z</time></trkpt><trkpt lat="45.82574132154399" lon="8.16341462435708"><ele>562.3333333333333</ele><time>2026-04-03T14:56:16.06Z</time></trkpt><trkpt lat="45.82589521528005" lon="8.163631701759666"><ele>563.0</ele><time>2026-04-03T14:56:17.06Z</time></trkpt><trkpt lat="45.82605163923468" lon="8.163830983614083"><ele>563.0</ele><time>2026-04-03T14:56:18.06Z</time></trkpt><trkpt lat="45.826212417976144" lon="8.164016529228915"><ele>563.0</ele><time>2026-04-03T14:56:19.06Z</time></trkpt><trkpt lat="45.82638068376391" lon="8.164182097546474"><ele>563.0</ele><time>2026-04-03T14:56:20.06Z</time></trkpt><trkpt lat="45.826555343075405" lon="8.16431802154249"><ele>561.0</ele><time>2026-04-03T14:56:21.06Z</time></trkpt><trkpt lat="45.8267257302014" lon="8.164434603441375"><ele>559.0</ele><time>2026-04-03T14:56:22.06Z</time></trkpt><trkpt lat="45.82688352131006" lon="8.164586576680307"><ele>557.0</ele><time>2026-04-03T14:56:23.06Z</time></trkpt><trkpt lat="45.82702986686113" lon="8.16478496545251"><ele>554.0</ele><time>2026-04-03T14:56:24.06Z</time></trkpt><trkpt lat="45.827153288672086" lon="8.165027982962297"><ele>551.0</ele><time>2026-04-03T14:56:25.06Z</time></trkpt><trkpt lat="45.827262586078575" lon="8.165302163128574"><ele>548.0</ele><time>2026-04-03T14:56:26.06Z</time></trkpt><trkpt lat="45.82736653350232" lon="8.16559755975647"><ele>544.0</ele><time>2026-04-03T14:56:27.06Z</time></trkpt><trkpt lat="45.827462383953616" lon="8.165914102460768"><ele>540.0</ele><time>2026-04-03T14:56:28.06Z</time></trkpt><trkpt lat="45.827533102233595" lon="8.166260623090825"><ele>534.5</ele><time>2026-04-03T14:56:29.06Z</time></trkpt><trkpt lat="45.82761714886839" lon="8.1666063891565"><ele>529.0</ele><time>2026-04-03T14:56:30.06Z</time></trkpt><trkpt lat="45.8276957492908" lon="8.166929749422208"><ele>543.5</ele><time>2026-04-03T14:56:31.061Z</time></trkpt><trkpt lat="45.827771488721346" lon="8.167241339701956"><ele>558.0</ele><time>2026-04-03T14:56:32.061Z</time></trkpt><trkpt lat="45.82784290658099" lon="8.16754473312941"><ele>558.0</ele><time>2026-04-03T14:56:33.061Z</time></trkpt><trkpt lat="45.82790590156136" lon="8.167836915221422"><ele>558.0</ele><time>2026-04-03T14:56:34.061Z</time></trkpt><trkpt lat="45.82795925693172" lon="8.168125414443237"><ele>558.0</ele><time>2026-04-03T14:56:35.061Z</time></trkpt><trkpt lat="45.82800079924638" lon="8.168415928867606"><ele>557.3333333333334</ele><time>2026-04-03T14:56:36.061Z</time></trkpt><trkpt lat="45.828044292120595" lon="8.16872008667453"><ele>556.6666666666667</ele><time>2026-04-03T14:56:37.061Z</time></trkpt><trkpt lat="45.8280846051076" lon="8.169014716060877"><ele>556.0</ele><time>2026-04-03T14:56:38.061Z</time></trkpt><trkpt lat="45.828123289536094" lon="8.169295418130707"><ele>554.0</ele><time>2026-04-03T14:56:39.061Z</time></trkpt><trkpt lat="45.828155431729115" lon="8.16956849021763"><ele>552.0</ele><time>2026-04-03T14:56:40.061Z</time></trkpt><trkpt lat="45.82818150809332" lon="8.169837729244545"><ele>550.0</ele><time>2026-04-03T14:56:41.061Z</time></trkpt><trkpt lat="45.8282006565353" lon="8.170105458980338"><ele>547.3333333333334</ele><time>2026-04-03T14:56:42.061Z</time></trkpt><trkpt lat="45.8282008016839" lon="8.170375364300009"><ele>544.6666666666666</ele><time>2026-04-03T14:56:43.061Z</time></trkpt><trkpt lat="45.82818704064408" lon="8.170638260535933"><ele>542.0</ele><time>2026-04-03T14:56:44.061Z</time></trkpt><trkpt lat="45.82816189708187" lon="8.170876725570288"><ele>541.6666666666666</ele><time>2026-04-03T14:56:45.061Z</time></trkpt><trkpt lat="45.82812860457908" lon="8.17110295748165"><ele>541.3333333333334</ele><time>2026-04-03T14:56:46.061Z</time></trkpt><trkpt lat="45.828077325753874" lon="8.1713093845487"><ele>541.0</ele><time>2026-04-03T14:56:47.061Z</time></trkpt><trkpt lat="45.82800438555473" lon="8.171492089994732"><ele>543.3333333333334</ele><time>2026-04-03T14:56:48.061Z</time></trkpt><trkpt lat="45.827904734917695" lon="8.171669206495388"><ele>545.6666666666666</ele><time>2026-04-03T14:56:49.061Z</time></trkpt><trkpt lat="45.82780042286756" lon="8.17185256017478"><ele>548.0</ele><time>2026-04-03T14:56:50.061Z</time></trkpt><trkpt lat="45.827709615191296" lon="8.172019945697308"><ele>548.0</ele><time>2026-04-03T14:56:51.061Z</time></trkpt><trkpt lat="45.827649887015205" lon="8.172189920240092"><ele>548.0</ele><time>2026-04-03T14:56:52.061Z</time></trkpt><trkpt lat="45.82761067629591" lon="8.172387638371863"><ele>548.0</ele><time>2026-04-03T14:56:53.061Z</time></trkpt><trkpt lat="45.82758739720306" lon="8.172610046280695"><ele>548.0</ele><time>2026-04-03T14:56:54.061Z</time></trkpt><trkpt lat="45.82756776059749" lon="8.172845247986908"><ele>542.0</ele><time>2026-04-03T14:56:55.061Z</time></trkpt><trkpt lat="45.827560585530435" lon="8.17307814451142"><ele>536.0</ele><time>2026-04-03T14:56:56.061Z</time></trkpt><trkpt lat="45.82756814671897" lon="8.173310522459197"><ele>530.0</ele><time>2026-04-03T14:56:57.061Z</time></trkpt><trkpt lat="45.82759756716434" lon="8.173546241497643"><ele>530.0</ele><time>2026-04-03T14:56:58.061Z</time></trkpt><trkpt lat="45.827637374204826" lon="8.173785292341208"><ele>530.0</ele><time>2026-04-03T14:56:59.061Z</time></trkpt><trkpt lat="45.827693585424036" lon="8.174039429416297"><ele>530.0</ele><time>2026-04-03T14:57:00.061Z</time></trkpt><trkpt lat="45.82775728206331" lon="8.174284320684237"><ele>535.3333333333333</ele><time>2026-04-03T14:57:01.061Z</time></trkpt><trkpt lat="45.827833217726635" lon="8.174519409739377"><ele>540.6666666666666</ele><time>2026-04-03T14:57:02.061Z</time></trkpt><trkpt lat="45.82790731129739" lon="8.174768784032416"><ele>546.0</ele><time>2026-04-03T14:57:03.061Z</time></trkpt><trkpt lat="45.82798503615637" lon="8.17501817791048"><ele>546.0</ele><time>2026-04-03T14:57:04.061Z</time></trkpt><trkpt lat="45.82806151929413" lon="8.175258288440613"><ele>546.0</ele><time>2026-04-03T14:57:05.061Z</time></trkpt><trkpt lat="45.82812868110005" lon="8.175487930275361"><ele>546.0</ele><time>2026-04-03T14:57:06.061Z</time></trkpt><trkpt lat="45.82818287905117" lon="8.175714626097017"><ele>542.6666666666666</ele><time>2026-04-03T14:57:07.061Z</time></trkpt><trkpt lat="45.828222881763445" lon="8.175954178488041"><ele>539.3333333333333</ele><time>2026-04-03T14:57:08.061Z</time></trkpt><trkpt lat="45.82823606648101" lon="8.176204823157962"><ele>536.0</ele><time>2026-04-03T14:57:09.061Z</time></trkpt><trkpt lat="45.82822551081504" lon="8.176460715492503"><ele>535.0</ele><time>2026-04-03T14:57:10.061Z</time></trkpt><trkpt lat="45.82820607692967" lon="8.176722769991134"><ele>534.0</ele><time>2026-04-03T14:57:11.061Z</time></trkpt><trkpt lat="45.82817283093158" lon="8.176992325722146"><ele>533.0</ele><time>2026-04-03T14:57:12.061Z</time></trkpt><trkpt lat="45.82815649984581" lon="8.17726641877202"><ele>534.3333333333333</ele><time>2026-04-03T14:57:13.061Z</time></trkpt><trkpt lat="45.828143985817086" lon="8.177535605326698"><ele>535.6666666666666</ele><time>2026-04-03T14:57:14.062Z</time></trkpt><trkpt lat="45.82812905423565" lon="8.177799308062179"><ele>537.0</ele><time>2026-04-03T14:57:15.062Z</time></trkpt><trkpt lat="45.828137407499284" lon="8.17805966558475"><ele>535.3333333333334</ele><time>2026-04-03T14:57:16.062Z</time></trkpt><trkpt lat="45.8281708084146" lon="8.178312566115356"><ele>533.6666666666667</ele><time>2026-04-03T14:57:17.062Z</time></trkpt><trkpt lat="45.828232783635414" lon="8.17856139475254"><ele>532.0</ele><time>2026-04-03T14:57:18.062Z</time></trkpt><trkpt lat="45.82830672399391" lon="8.178810062413238"><ele>528.3333333333334</ele><time>2026-04-03T14:57:19.062Z</time></trkpt><trkpt lat="45.82838001047509" lon="8.179063734412049"><ele>524.6666666666666</ele><time>2026-04-03T14:57:20.062Z</time></trkpt><trkpt lat="45.82844979030024" lon="8.179315281533881"><ele>521.0</ele><time>2026-04-03T14:57:21.062Z</time></trkpt><trkpt lat="45.82851308716501" lon="8.17956313981258"><ele>528.0</ele><time>2026-04-03T14:57:22.062Z</time></trkpt><trkpt lat="45.828570177856534" lon="8.179811378961887"><ele>535.0</ele><time>2026-04-03T14:57:23.062Z</time></trkpt><trkpt lat="45.82861186212447" lon="8.180067400557023"><ele>542.0</ele><time>2026-04-03T14:57:24.062Z</time></trkpt><trkpt lat="45.82863828784287" lon="8.180324265192809"><ele>542.0</ele><time>2026-04-03T14:57:25.062Z</time></trkpt><trkpt lat="45.82866530176791" lon="8.180573920318162"><ele>542.0</ele><time>2026-04-03T14:57:26.062Z</time></trkpt><trkpt lat="45.82871763701601" lon="8.180813667216984"><ele>542.0</ele><time>2026-04-03T14:57:27.062Z</time></trkpt><trkpt lat="45.82878743363964" lon="8.181052891326406"><ele>538.3333333333333</ele><time>2026-04-03T14:57:28.062Z</time></trkpt><trkpt lat="45.82886794606879" lon="8.18128774809299"><ele>534.6666666666666</ele><time>2026-04-03T14:57:29.062Z</time></trkpt><trkpt lat="45.82894964291396" lon="8.18152527371721"><ele>531.0</ele><time>2026-04-03T14:57:30.062Z</time></trkpt><trkpt lat="45.829032227170345" lon="8.181767362211826"><ele>528.0</ele><time>2026-04-03T14:57:31.062Z</time></trkpt><trkpt lat="45.82911075291642" lon="8.182003022393811"><ele>525.0</ele><time>2026-04-03T14:57:32.062Z</time></trkpt><trkpt lat="45.829184312362294" lon="8.18223254120368"><ele>522.0</ele><time>2026-04-03T14:57:33.062Z</time></trkpt><trkpt lat="45.829259376438515" lon="8.18245698625222"><ele>533.3333333333334</ele><time>2026-04-03T14:57:34.062Z</time></trkpt><trkpt lat="45.829331870381424" lon="8.182679788165279"><ele>544.6666666666667</ele><time>2026-04-03T14:57:35.062Z</time></trkpt><trkpt lat="45.82939999637746" lon="8.182901513986398"><ele>556.0</ele><time>2026-04-03T14:57:36.062Z</time></trkpt><trkpt lat="45.82947196326076" lon="8.18311855039723"><ele>550.3333333333334</ele><time>2026-04-03T14:57:37.062Z</time></trkpt><trkpt lat="45.829529113302634" lon="8.183356473287372"><ele>544.6666666666666</ele><time>2026-04-03T14:57:38.062Z</time></trkpt><trkpt lat="45.82960147066949" lon="8.183586634264147"><ele>539.0</ele><time>2026-04-03T14:57:39.062Z</time></trkpt><trkpt lat="45.829674631583316" lon="8.183818301193876"><ele>535.3333333333333</ele><time>2026-04-03T14:57:40.062Z</time></trkpt><trkpt lat="45.829749964150345" lon="8.184055349408215"><ele>531.6666666666666</ele><time>2026-04-03T14:57:41.062Z</time></trkpt><trkpt lat="45.82982548143929" lon="8.184292978926797"><ele>528.0</ele><time>2026-04-03T14:57:42.062Z</time></trkpt><trkpt lat="45.82990013506989" lon="8.18452789072748"><ele>528.0</ele><time>2026-04-03T14:57:43.062Z</time></trkpt><trkpt lat="45.82997327320103" lon="8.184758033533859"><ele>528.0</ele><time>2026-04-03T14:57:44.062Z</time></trkpt><trkpt lat="45.83004641676555" lon="8.1849881856832"><ele>528.0</ele><time>2026-04-03T14:57:45.062Z</time></trkpt><trkpt lat="45.830119033482916" lon="8.18521822989709"><ele>526.6666666666666</ele><time>2026-04-03T14:57:46.062Z</time></trkpt><trkpt lat="45.830191005415465" lon="8.185449406623576"><ele>525.3333333333333</ele><time>2026-04-03T14:57:47.062Z</time></trkpt><trkpt lat="45.83026394015183" lon="8.185685318009222"><ele>524.0</ele><time>2026-04-03T14:57:48.062Z</time></trkpt><trkpt lat="45.830335888070614" lon="8.185922578804771"><ele>524.0</ele><time>2026-04-03T14:57:49.062Z</time></trkpt><trkpt lat="45.830407744230214" lon="8.186159536904544"><ele>524.0</ele><time>2026-04-03T14:57:50.062Z</time></trkpt><trkpt lat="45.83047914421585" lon="8.186394990616348"><ele>524.0</ele><time>2026-04-03T14:57:51.062Z</time></trkpt><trkpt lat="45.83055008663975" lon="8.186623680762294"><ele>520.3333333333333</ele><time>2026-04-03T14:57:52.062Z</time></trkpt><trkpt lat="45.8306223662533" lon="8.186852272451313"><ele>516.6666666666666</ele><time>2026-04-03T14:57:53.062Z</time></trkpt><trkpt lat="45.83069651845332" lon="8.187083603581916"><ele>513.0</ele><time>2026-04-03T14:57:54.062Z</time></trkpt><trkpt lat="45.83077188648481" lon="8.187315591205415"><ele>515.0</ele><time>2026-04-03T14:57:55.062Z</time></trkpt><trkpt lat="45.830848828812634" lon="8.187543827592972"><ele>517.0</ele><time>2026-04-03T14:57:56.062Z</time></trkpt><trkpt lat="45.83094185963974" lon="8.187763636126572"><ele>519.0</ele><time>2026-04-03T14:57:57.063Z</time></trkpt><trkpt lat="45.83101712970365" lon="8.187991319205349"><ele>530.3333333333334</ele><time>2026-04-03T14:57:58.063Z</time></trkpt><trkpt lat="45.831076686717104" lon="8.188233224470078"><ele>541.6666666666667</ele><time>2026-04-03T14:57:59.063Z</time></trkpt><trkpt lat="45.83115191069355" lon="8.188465267155346"><ele>553.0</ele><time>2026-04-03T14:58:00.063Z</time></trkpt><trkpt lat="45.83123042034713" lon="8.1886934176337"><ele>553.0</ele><time>2026-04-03T14:58:01.063Z</time></trkpt><trkpt lat="45.83131036655061" lon="8.188920849108598"><ele>553.0</ele><time>2026-04-03T14:58:02.063Z</time></trkpt><trkpt lat="45.83138974557874" lon="8.189148119577675"><ele>553.0</ele><time>2026-04-03T14:58:03.063Z</time></trkpt><trkpt lat="45.83146853093263" lon="8.189381616228616"><ele>542.6666666666667</ele><time>2026-04-03T14:58:04.063Z</time></trkpt><trkpt lat="45.831541043468356" lon="8.189617960423272"><ele>532.3333333333334</ele><time>2026-04-03T14:58:05.063Z</time></trkpt><trkpt lat="45.831615570357314" lon="8.189838614370325"><ele>522.0</ele><time>2026-04-03T14:58:06.063Z</time></trkpt><trkpt lat="45.831686524512534" lon="8.190048365136935"><ele>520.75</ele><time>2026-04-03T14:58:07.063Z</time></trkpt><trkpt lat="45.83175390685285" lon="8.19024519894005"><ele>519.5</ele><time>2026-04-03T14:58:08.063Z</time></trkpt><trkpt lat="45.83181753657916" lon="8.190433625258583"><ele>518.25</ele><time>2026-04-03T14:58:09.063Z</time></trkpt><trkpt lat="45.8318828623763" lon="8.190622542255715"><ele>517.0</ele><time>2026-04-03T14:58:10.063Z</time></trkpt><trkpt lat="45.83195307390573" lon="8.19082673943793"><ele>517.0</ele><time>2026-04-03T14:58:11.063Z</time></trkpt><trkpt lat="45.832026200302856" lon="8.191050401410266"><ele>517.0</ele><time>2026-04-03T14:58:12.064Z</time></trkpt><trkpt lat="45.83210224292357" lon="8.191286061392429"><ele>517.0</ele><time>2026-04-03T14:58:13.064Z</time></trkpt><trkpt lat="45.832184948068374" lon="8.191531120340638"><ele>513.6666666666667</ele><time>2026-04-03T14:58:14.064Z</time></trkpt><trkpt lat="45.83226660533284" lon="8.191768365217387"><ele>510.33333333333337</ele><time>2026-04-03T14:58:15.064Z</time></trkpt><trkpt lat="45.83233922294916" lon="8.191993699420566"><ele>507.0</ele><time>2026-04-03T14:58:16.064Z</time></trkpt><trkpt lat="45.832413733467035" lon="8.192208465486544"><ele>506.66666666666663</ele><time>2026-04-03T14:58:17.064Z</time></trkpt><trkpt lat="45.83245283302934" lon="8.19242212431003"><ele>506.3333333333333</ele><time>2026-04-03T14:58:18.064Z</time></trkpt><trkpt lat="45.8324720794728" lon="8.192631769146955"><ele>506.0</ele><time>2026-04-03T14:58:19.064Z</time></trkpt><trkpt lat="45.832471798716014" lon="8.192852355521286"><ele>506.0</ele><time>2026-04-03T14:58:20.064Z</time></trkpt><trkpt lat="45.832449406282095" lon="8.193088173557925"><ele>506.0</ele><time>2026-04-03T14:58:21.064Z</time></trkpt><trkpt lat="45.83244258907216" lon="8.193313778792456"><ele>506.0</ele><time>2026-04-03T14:58:22.064Z</time></trkpt><trkpt lat="45.83243648105163" lon="8.193523031842266"><ele>506.0</ele><time>2026-04-03T14:58:23.064Z</time></trkpt><trkpt lat="45.832430612631946" lon="8.193722599978969"><ele>506.0</ele><time>2026-04-03T14:58:24.064Z</time></trkpt><trkpt lat="45.83242673585968" lon="8.193923810973422"><ele>506.0</ele><time>2026-04-03T14:58:25.064Z</time></trkpt><trkpt lat="45.83243954428204" lon="8.194146164434997"><ele>506.0</ele><time>2026-04-03T14:58:26.064Z</time></trkpt><trkpt lat="45.83243985409081" lon="8.194384422712757"><ele>506.3333333333333</ele><time>2026-04-03T14:58:27.064Z</time></trkpt><trkpt lat="45.83246584117485" lon="8.194631645181369"><ele>506.66666666666663</ele><time>2026-04-03T14:58:28.064Z</time></trkpt><trkpt lat="45.832498868612035" lon="8.194874069452961"><ele>507.0</ele><time>2026-04-03T14:58:29.064Z</time></trkpt><trkpt lat="45.83253087550018" lon="8.195095037422709"><ele>506.0</ele><time>2026-04-03T14:58:30.064Z</time></trkpt><trkpt lat="45.83255909473949" lon="8.195305089138445"><ele>505.0</ele><time>2026-04-03T14:58:31.064Z</time></trkpt><trkpt lat="45.832587115943596" lon="8.19551326267687"><ele>504.0</ele><time>2026-04-03T14:58:32.064Z</time></trkpt><trkpt lat="45.83261458779291" lon="8.195731090129364"><ele>509.0</ele><time>2026-04-03T14:58:33.064Z</time></trkpt><trkpt lat="45.832644640437046" lon="8.19595430172679"><ele>514.0</ele><time>2026-04-03T14:58:34.064Z</time></trkpt><trkpt lat="45.83267654946747" lon="8.196177849329718"><ele>519.0</ele><time>2026-04-03T14:58:35.064Z</time></trkpt><trkpt lat="45.83270820664594" lon="8.196397586959545"><ele>520.5</ele><time>2026-04-03T14:58:36.065Z</time></trkpt><trkpt lat="45.832733787563946" lon="8.196613479332896"><ele>522.0</ele><time>2026-04-03T14:58:37.065Z</time></trkpt><trkpt lat="45.83274743964764" lon="8.196824802704871"><ele>523.5</ele><time>2026-04-03T14:58:38.065Z</time></trkpt><trkpt lat="45.83275162806138" lon="8.197035896335347"><ele>525.0</ele><time>2026-04-03T14:58:39.065Z</time></trkpt><trkpt lat="45.83274947561543" lon="8.197248478922935"><ele>529.6666666666666</ele><time>2026-04-03T14:58:40.065Z</time></trkpt><trkpt lat="45.832746132199006" lon="8.19746831387369"><ele>534.3333333333333</ele><time>2026-04-03T14:58:41.065Z</time></trkpt><trkpt lat="45.83273774054904" lon="8.197690427440225"><ele>539.0</ele><time>2026-04-03T14:58:42.065Z</time></trkpt><trkpt lat="45.83270931833475" lon="8.197898878366559"><ele>539.0</ele><time>2026-04-03T14:58:43.065Z</time></trkpt><trkpt lat="45.83265511455169" lon="8.198095163177738"><ele>539.0</ele><time>2026-04-03T14:58:44.065Z</time></trkpt><trkpt lat="45.832572071399525" lon="8.198277389751315"><ele>539.0</ele><time>2026-04-03T14:58:45.065Z</time></trkpt><trkpt lat="45.83246543673183" lon="8.198448464426532"><ele>531.6666666666666</ele><time>2026-04-03T14:58:46.065Z</time></trkpt><trkpt lat="45.83232936165708" lon="8.198595360430145"><ele>524.3333333333334</ele><time>2026-04-03T14:58:47.065Z</time></trkpt><trkpt lat="45.83219985167625" lon="8.198762467579911"><ele>517.0</ele><time>2026-04-03T14:58:48.065Z</time></trkpt><trkpt lat="45.8320785855415" lon="8.198951530510413"><ele>512.3333333333334</ele><time>2026-04-03T14:58:49.065Z</time></trkpt><trkpt lat="45.83194554084627" lon="8.19912211507327"><ele>507.66666666666663</ele><time>2026-04-03T14:58:50.065Z</time></trkpt><trkpt lat="45.8318001571617" lon="8.199275119780566"><ele>503.0</ele><time>2026-04-03T14:58:51.065Z</time></trkpt><trkpt lat="45.83166568338297" lon="8.199449687778033"><ele>503.0</ele><time>2026-04-03T14:58:52.065Z</time></trkpt><trkpt lat="45.8315401523818" lon="8.199643586218611"><ele>503.0</ele><time>2026-04-03T14:58:53.065Z</time></trkpt><trkpt lat="45.83141106839132" lon="8.19982696897022"><ele>503.0</ele><time>2026-04-03T14:58:54.065Z</time></trkpt><trkpt lat="45.83130286151717" lon="8.200027897192856"><ele>507.0</ele><time>2026-04-03T14:58:55.065Z</time></trkpt><trkpt lat="45.831207711863996" lon="8.200252094757934"><ele>511.0</ele><time>2026-04-03T14:58:56.065Z</time></trkpt><trkpt lat="45.831125636375745" lon="8.20048077286312"><ele>515.0</ele><time>2026-04-03T14:58:57.065Z</time></trkpt><trkpt lat="45.83104247810765" lon="8.200707874724452"><ele>510.3333333333333</ele><time>2026-04-03T14:58:58.065Z</time></trkpt><trkpt lat="45.83095390385513" lon="8.200936432493204"><ele>505.66666666666663</ele><time>2026-04-03T14:58:59.065Z</time></trkpt><trkpt lat="45.83085026443995" lon="8.201145849123536"><ele>501.0</ele><time>2026-04-03T14:59:00.065Z</time></trkpt><trkpt lat="45.830725334976435" lon="8.201326720952835"><ele>501.0</ele><time>2026-04-03T14:59:01.065Z</time></trkpt><trkpt lat="45.830586416894675" lon="8.20148818329447"><ele>501.0</ele><time>2026-04-03T14:59:02.065Z</time></trkpt><trkpt lat="45.83044421412335" lon="8.201643024930826"><ele>501.0</ele><time>2026-04-03T14:59:03.065Z</time></trkpt><trkpt lat="45.83029760977826" lon="8.201790231723436"><ele>499.66666666666663</ele><time>2026-04-03T14:59:04.065Z</time></trkpt><trkpt lat="45.830152986866565" lon="8.201943525526683"><ele>498.3333333333333</ele><time>2026-04-03T14:59:05.065Z</time></trkpt><trkpt lat="45.830010916246806" lon="8.202092898726224"><ele>497.0</ele><time>2026-04-03T14:59:06.065Z</time></trkpt><trkpt lat="45.8298712205352" lon="8.20224634433284"><ele>500.3333333333333</ele><time>2026-04-03T14:59:07.065Z</time></trkpt><trkpt lat="45.829735807464786" lon="8.202397886286688"><ele>503.66666666666663</ele><time>2026-04-03T14:59:08.065Z</time></trkpt><trkpt lat="45.82960588957003" lon="8.202559173153158"><ele>507.0</ele><time>2026-04-03T14:59:09.065Z</time></trkpt><trkpt lat="45.82948234227237" lon="8.202744335273858"><ele>507.0</ele><time>2026-04-03T14:59:10.065Z</time></trkpt><trkpt lat="45.829360024377216" lon="8.202936376473819"><ele>507.0</ele><time>2026-04-03T14:59:11.065Z</time></trkpt><trkpt lat="45.82923859381245" lon="8.203132607971469"><ele>507.0</ele><time>2026-04-03T14:59:12.065Z</time></trkpt><trkpt lat="45.82911346573388" lon="8.20332550848386"><ele>504.0</ele><time>2026-04-03T14:59:13.065Z</time></trkpt><trkpt lat="45.82898545789818" lon="8.203520586010189"><ele>501.0</ele><time>2026-04-03T14:59:14.065Z</time></trkpt><trkpt lat="45.82886174044693" lon="8.203719349324487"><ele>498.0</ele><time>2026-04-03T14:59:15.065Z</time></trkpt><trkpt lat="45.828737619069685" lon="8.20391659728902"><ele>497.33333333333337</ele><time>2026-04-03T14:59:16.065Z</time></trkpt><trkpt lat="45.82860986751987" lon="8.204118183131976"><ele>496.6666666666667</ele><time>2026-04-03T14:59:17.065Z</time></trkpt><trkpt lat="45.828482989529114" lon="8.204317154543604"><ele>496.0</ele><time>2026-04-03T14:59:18.065Z</time></trkpt><trkpt lat="45.8283547628816" lon="8.20451367095764"><ele>496.0</ele><time>2026-04-03T14:59:19.065Z</time></trkpt><trkpt lat="45.8282257803064" lon="8.204713013648544"><ele>496.0</ele><time>2026-04-03T14:59:20.066Z</time></trkpt><trkpt lat="45.82809564177286" lon="8.204912464992248"><ele>496.0</ele><time>2026-04-03T14:59:21.066Z</time></trkpt><trkpt lat="45.827967954150076" lon="8.205106621603777"><ele>496.0</ele><time>2026-04-03T14:59:22.066Z</time></trkpt><trkpt lat="45.82784325799281" lon="8.20529443715649"><ele>496.0</ele><time>2026-04-03T14:59:23.066Z</time></trkpt><trkpt lat="45.82772189360337" lon="8.205479170724143"><ele>496.0</ele><time>2026-04-03T14:59:24.066Z</time></trkpt><trkpt lat="45.82760569984354" lon="8.205661896706472"><ele>495.0</ele><time>2026-04-03T14:59:25.066Z</time></trkpt><trkpt lat="45.827485367695886" lon="8.205848219570148"><ele>494.0</ele><time>2026-04-03T14:59:26.066Z</time></trkpt><trkpt lat="45.82735872135947" lon="8.206038416716167"><ele>493.0</ele><time>2026-04-03T14:59:27.066Z</time></trkpt><trkpt lat="45.82723326799954" lon="8.206233169720763"><ele>493.0</ele><time>2026-04-03T14:59:28.066Z</time></trkpt><trkpt lat="45.827108929395315" lon="8.206428114661167"><ele>493.0</ele><time>2026-04-03T14:59:29.066Z</time></trkpt><trkpt lat="45.82698436751834" lon="8.206617232223493"><ele>493.0</ele><time>2026-04-03T14:59:30.066Z</time></trkpt><trkpt lat="45.82686069384498" lon="8.206806205890736"><ele>492.6666666666667</ele><time>2026-04-03T14:59:31.066Z</time></trkpt><trkpt lat="45.826727944803565" lon="8.2069865357075"><ele>492.33333333333337</ele><time>2026-04-03T14:59:32.066Z</time></trkpt><trkpt lat="45.826603662462034" lon="8.207179879490921"><ele>492.0</ele><time>2026-04-03T14:59:33.066Z</time></trkpt><trkpt lat="45.82647973801239" lon="8.207373917160039"><ele>492.0</ele><time>2026-04-03T14:59:34.066Z</time></trkpt><trkpt lat="45.826356050416265" lon="8.207572258691767"><ele>492.0</ele><time>2026-04-03T14:59:35.066Z</time></trkpt><trkpt lat="45.8262288691687" lon="8.207764673724832"><ele>492.0</ele><time>2026-04-03T14:59:36.066Z</time></trkpt><trkpt lat="45.82609793485217" lon="8.207962390932233"><ele>490.66666666666663</ele><time>2026-04-03T14:59:37.066Z</time></trkpt><trkpt lat="45.825968525622805" lon="8.208158672930615"><ele>489.3333333333333</ele><time>2026-04-03T14:59:38.066Z</time></trkpt><trkpt lat="45.825838714702975" lon="8.208362008457902"><ele>488.0</ele><time>2026-04-03T14:59:39.066Z</time></trkpt><trkpt lat="45.82570657784799" lon="8.208566772152242"><ele>488.0</ele><time>2026-04-03T14:59:40.066Z</time></trkpt><trkpt lat="45.82557158583845" lon="8.208773644266827"><ele>488.0</ele><time>2026-04-03T14:59:41.066Z</time></trkpt><trkpt lat="45.825436398592835" lon="8.208978366121658"><ele>488.0</ele><time>2026-04-03T14:59:42.066Z</time></trkpt><trkpt lat="45.82530590565324" lon="8.209185700231613"><ele>487.3333333333333</ele><time>2026-04-03T14:59:43.066Z</time></trkpt><trkpt lat="45.82518583734693" lon="8.209392974845093"><ele>486.66666666666663</ele><time>2026-04-03T14:59:44.066Z</time></trkpt><trkpt lat="45.82507257751339" lon="8.209601093123897"><ele>486.0</ele><time>2026-04-03T14:59:45.066Z</time></trkpt><trkpt lat="45.82496526356652" lon="8.209805999222635"><ele>488.0</ele><time>2026-04-03T14:59:46.066Z</time></trkpt><trkpt lat="45.824859968183496" lon="8.209997426582834"><ele>490.0</ele><time>2026-04-03T14:59:47.066Z</time></trkpt><trkpt lat="45.82475688496272" lon="8.210178428969368"><ele>492.0</ele><time>2026-04-03T14:59:48.066Z</time></trkpt><trkpt lat="45.82466172354437" lon="8.210360684193324"><ele>492.0</ele><time>2026-04-03T14:59:49.066Z</time></trkpt><trkpt lat="45.82456808560765" lon="8.210538902445307"><ele>492.0</ele><time>2026-04-03T14:59:50.066Z</time></trkpt><trkpt lat="45.824486923718396" lon="8.21072248256181"><ele>492.0</ele><time>2026-04-03T14:59:51.066Z</time></trkpt><trkpt lat="45.824415958334825" lon="8.210917069813675"><ele>491.33333333333337</ele><time>2026-04-03T14:59:52.066Z</time></trkpt><trkpt lat="45.824361315162065" lon="8.21111789472175"><ele>490.6666666666667</ele><time>2026-04-03T14:59:53.066Z</time></trkpt><trkpt lat="45.824312279285685" lon="8.2113224022413"><ele>490.0</ele><time>2026-04-03T14:59:54.066Z</time></trkpt><trkpt lat="45.824268327186296" lon="8.211526696144562"><ele>486.6666666666667</ele><time>2026-04-03T14:59:55.066Z</time></trkpt><trkpt lat="45.8242247750877" lon="8.21173882726436"><ele>483.33333333333337</ele><time>2026-04-03T14:59:56.066Z</time></trkpt><trkpt lat="45.824179740979815" lon="8.211947843619726"><ele>480.0</ele><time>2026-04-03T14:59:57.066Z</time></trkpt><trkpt lat="45.82413412016479" lon="8.212150353727521"><ele>480.25</ele><time>2026-04-03T14:59:58.066Z</time></trkpt><trkpt lat="45.82409293711795" lon="8.21234371886727"><ele>480.5</ele><time>2026-04-03T14:59:59.066Z</time></trkpt><trkpt lat="45.82405210092668" lon="8.2125316251946"><ele>480.75</ele><time>2026-04-03T15:00:00.066Z</time></trkpt><trkpt lat="45.82401195144485" lon="8.212709140378491"><ele>481.0</ele><time>2026-04-03T15:00:01.066Z</time></trkpt><trkpt lat="45.82397288438663" lon="8.212884883316484"><ele>481.0</ele><time>2026-04-03T15:00:02.066Z</time></trkpt><trkpt lat="45.82393352515226" lon="8.21307444985101"><ele>481.0</ele><time>2026-04-03T15:00:03.067Z</time></trkpt><trkpt lat="45.82389251996653" lon="8.213263035298896"><ele>481.0</ele><time>2026-04-03T15:00:04.067Z</time></trkpt><trkpt lat="45.823850834433394" lon="8.21346157646862"><ele>481.0</ele><time>2026-04-03T15:00:05.067Z</time></trkpt><trkpt lat="45.82380733320222" lon="8.213670423381629"><ele>481.6666666666667</ele><time>2026-04-03T15:00:06.067Z</time></trkpt><trkpt lat="45.82373638482275" lon="8.213875683682176"><ele>482.33333333333337</ele><time>2026-04-03T15:00:07.067Z</time></trkpt><trkpt lat="45.82368330855016" lon="8.21409749273205"><ele>483.0</ele><time>2026-04-03T15:00:08.067Z</time></trkpt><trkpt lat="45.82363255465151" lon="8.21431582693943"><ele>483.0</ele><time>2026-04-03T15:00:09.067Z</time></trkpt><trkpt lat="45.82358540893262" lon="8.21451776612038"><ele>483.0</ele><time>2026-04-03T15:00:10.067Z</time></trkpt><trkpt lat="45.823545485402065" lon="8.21469688592286"><ele>483.0</ele><time>2026-04-03T15:00:11.067Z</time></trkpt><trkpt lat="45.823509388723785" lon="8.214852657577197"><ele>483.0</ele><time>2026-04-03T15:00:12.067Z</time></trkpt><trkpt lat="45.823479904785216" lon="8.214984106488464"><ele>482.2</ele><time>2026-04-03T15:00:13.067Z</time></trkpt><trkpt lat="45.82345049786246" lon="8.215095315142053"><ele>481.4</ele><time>2026-04-03T15:00:14.067Z</time></trkpt><trkpt lat="45.82342566708267" lon="8.215190495377087"><ele>480.59999999999997</ele><time>2026-04-03T15:00:15.067Z</time></trkpt><trkpt lat="45.82335727852838" lon="8.215327900926777"><ele>479.79999999999995</ele><time>2026-04-03T15:00:17.067Z</time></trkpt><trkpt lat="45.82325909880451" lon="8.215393431997333"><ele>479.0</ele><time>2026-04-03T15:00:19.069Z</time></trkpt><trkpt lat="45.82321865146136" lon="8.215504561700985"><ele>478.6</ele><time>2026-04-03T15:00:21.069Z</time></trkpt><trkpt lat="45.8232529950393" lon="8.21568749012182"><ele>478.2</ele><time>2026-04-03T15:00:23.069Z</time></trkpt><trkpt lat="45.823325951710835" lon="8.215731106507624"><ele>477.80000000000007</ele><time>2026-04-03T15:00:24.069Z</time></trkpt><trkpt lat="45.82329210571116" lon="8.21591200563569"><ele>477.40000000000003</ele><time>2026-04-03T15:00:25.069Z</time></trkpt><trkpt lat="45.82327189158131" lon="8.216058288307675"><ele>477.0</ele><time>2026-04-03T15:00:26.069Z</time></trkpt><trkpt lat="45.82323560433566" lon="8.21621318912042"><ele>477.0</ele><time>2026-04-03T15:00:27.069Z</time></trkpt><trkpt lat="45.8231985856991" lon="8.216378406060432"><ele>477.0</ele><time>2026-04-03T15:00:28.069Z</time></trkpt><trkpt lat="45.82316386147548" lon="8.21653603505634"><ele>477.0</ele><time>2026-04-03T15:00:29.069Z</time></trkpt><trkpt lat="45.82312397489292" lon="8.216708589583172"><ele>477.0</ele><time>2026-04-03T15:00:30.07Z</time></trkpt><trkpt lat="45.82307618321731" lon="8.216903645432494"><ele>481.0</ele><time>2026-04-03T15:00:31.069Z</time></trkpt><trkpt lat="45.823018564446436" lon="8.217114663301714"><ele>485.0</ele><time>2026-04-03T15:00:32.069Z</time></trkpt><trkpt lat="45.822951721682735" lon="8.217326703798573"><ele>489.0</ele><time>2026-04-03T15:00:33.069Z</time></trkpt><trkpt lat="45.822886567529686" lon="8.2175236838126"><ele>487.75</ele><time>2026-04-03T15:00:34.069Z</time></trkpt><trkpt lat="45.822818635544124" lon="8.21771066853634"><ele>486.5</ele><time>2026-04-03T15:00:35.069Z</time></trkpt><trkpt lat="45.82276034788639" lon="8.217884993727772"><ele>485.25</ele><time>2026-04-03T15:00:36.069Z</time></trkpt><trkpt lat="45.822704228800674" lon="8.21805483422995"><ele>484.0</ele><time>2026-04-03T15:00:37.069Z</time></trkpt><trkpt lat="45.82264258434103" lon="8.218217706586637"><ele>484.0</ele><time>2026-04-03T15:00:38.069Z</time></trkpt><trkpt lat="45.822593928666336" lon="8.218392075117334"><ele>484.0</ele><time>2026-04-03T15:00:39.069Z</time></trkpt><trkpt lat="45.82255760658971" lon="8.218564432005683"><ele>484.0</ele><time>2026-04-03T15:00:40.069Z</time></trkpt><trkpt lat="45.822536069034314" lon="8.218745420403186"><ele>484.0</ele><time>2026-04-03T15:00:41.069Z</time></trkpt><trkpt lat="45.82253964354855" lon="8.218939017193376"><ele>484.0</ele><time>2026-04-03T15:00:42.069Z</time></trkpt><trkpt lat="45.82255247748987" lon="8.219148766485933"><ele>484.0</ele><time>2026-04-03T15:00:43.069Z</time></trkpt><trkpt lat="45.82255296927404" lon="8.219361259452128"><ele>484.0</ele><time>2026-04-03T15:00:44.069Z</time></trkpt><trkpt lat="45.82253712186585" lon="8.219561014589289"><ele>484.0</ele><time>2026-04-03T15:00:45.069Z</time></trkpt><trkpt lat="45.82252322283318" lon="8.219757079253517"><ele>487.6666666666667</ele><time>2026-04-03T15:00:46.069Z</time></trkpt><trkpt lat="45.82250152741739" lon="8.219958642903919"><ele>491.33333333333337</ele><time>2026-04-03T15:00:47.069Z</time></trkpt><trkpt lat="45.82247636415912" lon="8.220177850806824"><ele>495.0</ele><time>2026-04-03T15:00:48.069Z</time></trkpt><trkpt lat="45.82244823288547" lon="8.220397688460881"><ele>495.0</ele><time>2026-04-03T15:00:49.069Z</time></trkpt><trkpt lat="45.8224235979131" lon="8.220612105516071"><ele>495.0</ele><time>2026-04-03T15:00:50.069Z</time></trkpt><trkpt lat="45.82241794034331" lon="8.220827305076668"><ele>495.0</ele><time>2026-04-03T15:00:51.069Z</time></trkpt><trkpt lat="45.82243255308422" lon="8.221038913541962"><ele>493.66666666666663</ele><time>2026-04-03T15:00:52.069Z</time></trkpt><trkpt lat="45.82246283651992" lon="8.221226028853717"><ele>492.3333333333333</ele><time>2026-04-03T15:00:53.069Z</time></trkpt><trkpt lat="45.82252138776057" lon="8.221430388508814"><ele>491.0</ele><time>2026-04-03T15:00:54.069Z</time></trkpt><trkpt lat="45.82258867915216" lon="8.221646096756889"><ele>490.3333333333333</ele><time>2026-04-03T15:00:55.069Z</time></trkpt><trkpt lat="45.82264331206034" lon="8.221864799357098"><ele>489.66666666666663</ele><time>2026-04-03T15:00:56.069Z</time></trkpt><trkpt lat="45.8227033000695" lon="8.222071381342426"><ele>489.0</ele><time>2026-04-03T15:00:57.069Z</time></trkpt><trkpt lat="45.822762496634134" lon="8.222274676509235"><ele>486.5</ele><time>2026-04-03T15:00:58.069Z</time></trkpt><trkpt lat="45.82282163997536" lon="8.222476437170378"><ele>484.0</ele><time>2026-04-03T15:00:59.069Z</time></trkpt><trkpt lat="45.822879943558874" lon="8.222675333145856"><ele>481.5</ele><time>2026-04-03T15:01:00.069Z</time></trkpt><trkpt lat="45.82293564496633" lon="8.222865352125226"><ele>479.0</ele><time>2026-04-03T15:01:01.069Z</time></trkpt><trkpt lat="45.822992184383665" lon="8.223058229826032"><ele>477.3333333333333</ele><time>2026-04-03T15:01:02.069Z</time></trkpt><trkpt lat="45.82304888746495" lon="8.223255425442412"><ele>475.66666666666663</ele><time>2026-04-03T15:01:03.069Z</time></trkpt><trkpt lat="45.823106461389" lon="8.223455693126525"><ele>474.0</ele><time>2026-04-03T15:01:04.07Z</time></trkpt><trkpt lat="45.82316447045228" lon="8.223657477566308"><ele>474.0</ele><time>2026-04-03T15:01:05.07Z</time></trkpt><trkpt lat="45.82322270411262" lon="8.223862292724823"><ele>474.0</ele><time>2026-04-03T15:01:06.07Z</time></trkpt><trkpt lat="45.823279254160184" lon="8.224057947696078"><ele>474.0</ele><time>2026-04-03T15:01:07.07Z</time></trkpt><trkpt lat="45.82333285349044" lon="8.224245885632891"><ele>474.0</ele><time>2026-04-03T15:01:08.07Z</time></trkpt><trkpt lat="45.823378199894385" lon="8.224419925932915"><ele>473.75</ele><time>2026-04-03T15:01:09.07Z</time></trkpt><trkpt lat="45.823405705182275" lon="8.224588939569063"><ele>473.5</ele><time>2026-04-03T15:01:10.07Z</time></trkpt><trkpt lat="45.82341040312822" lon="8.224754063364248"><ele>473.25</ele><time>2026-04-03T15:01:11.07Z</time></trkpt><trkpt lat="45.82339993542749" lon="8.224936781476407"><ele>473.0</ele><time>2026-04-03T15:01:12.07Z</time></trkpt><trkpt lat="45.82338339663107" lon="8.225123425228015"><ele>473.0</ele><time>2026-04-03T15:01:13.07Z</time></trkpt><trkpt lat="45.82336111345335" lon="8.225324149453762"><ele>473.0</ele><time>2026-04-03T15:01:14.07Z</time></trkpt><trkpt lat="45.823335908511396" lon="8.225533965280388"><ele>473.0</ele><time>2026-04-03T15:01:15.07Z</time></trkpt><trkpt lat="45.823309062830745" lon="8.225751965589728"><ele>473.0</ele><time>2026-04-03T15:01:16.07Z</time></trkpt><trkpt lat="45.82327812093635" lon="8.225969904227231"><ele>473.66666666666663</ele><time>2026-04-03T15:01:17.07Z</time></trkpt><trkpt lat="45.82324811950452" lon="8.226194070265734"><ele>474.33333333333337</ele><time>2026-04-03T15:01:18.07Z</time></trkpt><trkpt lat="45.82321971443589" lon="8.22641279252053"><ele>475.0</ele><time>2026-04-03T15:01:19.07Z</time></trkpt><trkpt lat="45.82319248938788" lon="8.226631549698435"><ele>475.33333333333337</ele><time>2026-04-03T15:01:20.07Z</time></trkpt><trkpt lat="45.8231651360306" lon="8.226851333775569"><ele>475.66666666666663</ele><time>2026-04-03T15:01:21.07Z</time></trkpt><trkpt lat="45.823137554237206" lon="8.227072910007328"><ele>476.0</ele><time>2026-04-03T15:01:22.07Z</time></trkpt><trkpt lat="45.82310965120178" lon="8.227297066906253"><ele>476.0</ele><time>2026-04-03T15:01:23.07Z</time></trkpt><trkpt lat="45.82308133365339" lon="8.227523578109055"><ele>476.0</ele><time>2026-04-03T15:01:24.07Z</time></trkpt><trkpt lat="45.82305251171049" lon="8.227752646738423"><ele>476.0</ele><time>2026-04-03T15:01:25.07Z</time></trkpt><trkpt lat="45.823023586707635" lon="8.227982534427975"><ele>476.0</ele><time>2026-04-03T15:01:26.07Z</time></trkpt><trkpt lat="45.82299416293552" lon="8.228216386214635"><ele>476.0</ele><time>2026-04-03T15:01:27.07Z</time></trkpt><trkpt lat="45.82297927384413" lon="8.228457974412729"><ele>476.0</ele><time>2026-04-03T15:01:28.07Z</time></trkpt><trkpt lat="45.82294335688344" lon="8.228700843730161"><ele>476.0</ele><time>2026-04-03T15:01:29.07Z</time></trkpt><trkpt lat="45.822907287231736" lon="8.228940721593245"><ele>476.0</ele><time>2026-04-03T15:01:30.07Z</time></trkpt><trkpt lat="45.82285780540113" lon="8.229175147518925"><ele>476.0</ele><time>2026-04-03T15:01:31.07Z</time></trkpt><trkpt lat="45.822789185990196" lon="8.229393727275477"><ele>476.0</ele><time>2026-04-03T15:01:32.07Z</time></trkpt><trkpt lat="45.82270012844907" lon="8.229593687879865"><ele>476.0</ele><time>2026-04-03T15:01:33.07Z</time></trkpt><trkpt lat="45.82259348127645" lon="8.229769053783794"><ele>476.0</ele><time>2026-04-03T15:01:34.07Z</time></trkpt><trkpt lat="45.822471189765515" lon="8.229916380133792"><ele>476.0</ele><time>2026-04-03T15:01:35.07Z</time></trkpt><trkpt lat="45.82233764928854" lon="8.2300394706371"><ele>476.0</ele><time>2026-04-03T15:01:36.07Z</time></trkpt><trkpt lat="45.82219613054182" lon="8.230130589197396"><ele>476.0</ele><time>2026-04-03T15:01:37.07Z</time></trkpt><trkpt lat="45.822047002651075" lon="8.23020031215001"><ele>476.0</ele><time>2026-04-03T15:01:38.07Z</time></trkpt><trkpt lat="45.82189285520148" lon="8.230246828065502"><ele>476.0</ele><time>2026-04-03T15:01:39.07Z</time></trkpt><trkpt lat="45.82173118352842" lon="8.23028359658156"><ele>476.0</ele><time>2026-04-03T15:01:40.07Z</time></trkpt><trkpt lat="45.82156821974199" lon="8.230298773074669"><ele>473.75</ele><time>2026-04-03T15:01:41.07Z</time></trkpt><trkpt lat="45.821423061265286" lon="8.23032797770254"><ele>471.5</ele><time>2026-04-03T15:01:42.07Z</time></trkpt><trkpt lat="45.82129035059737" lon="8.230351541526822"><ele>469.25</ele><time>2026-04-03T15:01:43.07Z</time></trkpt><trkpt lat="45.82115101315246" lon="8.230365006848764"><ele>467.0</ele><time>2026-04-03T15:01:44.07Z</time></trkpt><trkpt lat="45.82101075065324" lon="8.230363791916012"><ele>466.3333333333333</ele><time>2026-04-03T15:01:45.07Z</time></trkpt><trkpt lat="45.82086566957022" lon="8.230359697380434"><ele>465.66666666666663</ele><time>2026-04-03T15:01:46.07Z</time></trkpt><trkpt lat="45.820712544749284" lon="8.230358473924078"><ele>465.0</ele><time>2026-04-03T15:01:47.071Z</time></trkpt><trkpt lat="45.820555414411736" lon="8.230366454724217"><ele>465.0</ele><time>2026-04-03T15:01:48.071Z</time></trkpt><trkpt lat="45.82039608605362" lon="8.230394096439403"><ele>465.0</ele><time>2026-04-03T15:01:49.071Z</time></trkpt><trkpt lat="45.82024214634374" lon="8.230433608201007"><ele>465.0</ele><time>2026-04-03T15:01:50.071Z</time></trkpt><trkpt lat="45.82008671283783" lon="8.230477288173713"><ele>464.75</ele><time>2026-04-03T15:01:51.071Z</time></trkpt><trkpt lat="45.819937294490124" lon="8.230520201709123"><ele>464.5</ele><time>2026-04-03T15:01:52.071Z</time></trkpt><trkpt lat="45.819811159930985" lon="8.23056169166117"><ele>464.25</ele><time>2026-04-03T15:01:53.071Z</time></trkpt><trkpt lat="45.81968416693708" lon="8.230610735902259"><ele>464.0</ele><time>2026-04-03T15:01:54.071Z</time></trkpt><trkpt lat="45.8195618898267" lon="8.230668611390405"><ele>464.5</ele><time>2026-04-03T15:01:55.071Z</time></trkpt><trkpt lat="45.81944467735214" lon="8.230745667231377"><ele>465.0</ele><time>2026-04-03T15:01:56.071Z</time></trkpt><trkpt lat="45.81933522548313" lon="8.230853700175754"><ele>465.5</ele><time>2026-04-03T15:01:57.071Z</time></trkpt><trkpt lat="45.81925595740048" lon="8.231021447169255"><ele>466.0</ele><time>2026-04-03T15:01:58.071Z</time></trkpt><trkpt lat="45.819202123016815" lon="8.23120934320623"><ele>466.0</ele><time>2026-04-03T15:01:59.071Z</time></trkpt><trkpt lat="45.81914721819021" lon="8.23142509108315"><ele>466.0</ele><time>2026-04-03T15:02:00.071Z</time></trkpt><trkpt lat="45.81909579936411" lon="8.231634214381328"><ele>466.0</ele><time>2026-04-03T15:02:01.071Z</time></trkpt><trkpt lat="45.819047566083455" lon="8.23183451621511"><ele>469.75</ele><time>2026-04-03T15:02:02.071Z</time></trkpt><trkpt lat="45.81900791331675" lon="8.232032107241352"><ele>473.5</ele><time>2026-04-03T15:02:03.071Z</time></trkpt><trkpt lat="45.81901016755693" lon="8.232221312317177"><ele>477.25</ele><time>2026-04-03T15:02:04.071Z</time></trkpt><trkpt lat="45.81900732518904" lon="8.232412075622566"><ele>481.0</ele><time>2026-04-03T15:02:05.071Z</time></trkpt><trkpt lat="45.819014285332756" lon="8.232611434135864"><ele>482.0</ele><time>2026-04-03T15:02:06.071Z</time></trkpt><trkpt lat="45.819022777912444" lon="8.232820207671825"><ele>483.0</ele><time>2026-04-03T15:02:07.071Z</time></trkpt><trkpt lat="45.81903021002132" lon="8.233033195700509"><ele>484.0</ele><time>2026-04-03T15:02:08.071Z</time></trkpt><trkpt lat="45.81901961183344" lon="8.233251726012986"><ele>485.0</ele><time>2026-04-03T15:02:09.071Z</time></trkpt><trkpt lat="45.81902578043" lon="8.233474953779993"><ele>485.0</ele><time>2026-04-03T15:02:10.071Z</time></trkpt><trkpt lat="45.8190320898935" lon="8.233700866764277"><ele>485.0</ele><time>2026-04-03T15:02:11.071Z</time></trkpt><trkpt lat="45.819038479182595" lon="8.233932912018156"><ele>485.0</ele><time>2026-04-03T15:02:12.071Z</time></trkpt><trkpt lat="45.81906085886778" lon="8.23416944907669"><ele>484.3333333333333</ele><time>2026-04-03T15:02:13.071Z</time></trkpt><trkpt lat="45.81906417222241" lon="8.234408417496775"><ele>483.66666666666663</ele><time>2026-04-03T15:02:14.071Z</time></trkpt><trkpt lat="45.81906961586374" lon="8.234628710674668"><ele>483.0</ele><time>2026-04-03T15:02:15.071Z</time></trkpt><trkpt lat="45.81907376536803" lon="8.234851411525957"><ele>479.0</ele><time>2026-04-03T15:02:16.071Z</time></trkpt><trkpt lat="45.81908309976267" lon="8.23506367507108"><ele>475.0</ele><time>2026-04-03T15:02:17.071Z</time></trkpt><trkpt lat="45.81910832585675" lon="8.235274006929004"><ele>471.0</ele><time>2026-04-03T15:02:18.071Z</time></trkpt><trkpt lat="45.81916516831376" lon="8.235479464035013"><ele>471.66666666666663</ele><time>2026-04-03T15:02:19.071Z</time></trkpt><trkpt lat="45.8192467824245" lon="8.235675174201036"><ele>472.3333333333333</ele><time>2026-04-03T15:02:20.071Z</time></trkpt><trkpt lat="45.81933620111574" lon="8.235860364277993"><ele>473.0</ele><time>2026-04-03T15:02:21.071Z</time></trkpt><trkpt lat="45.819434113749075" lon="8.236039021084595"><ele>473.0</ele><time>2026-04-03T15:02:22.071Z</time></trkpt><trkpt lat="45.819532172821084" lon="8.236213663124104"><ele>473.0</ele><time>2026-04-03T15:02:23.071Z</time></trkpt><trkpt lat="45.819631586710116" lon="8.236394832275044"><ele>473.0</ele><time>2026-04-03T15:02:24.073Z</time></trkpt><trkpt lat="45.819732311314084" lon="8.236573498969491"><ele>469.66666666666663</ele><time>2026-04-03T15:02:25.074Z</time></trkpt><trkpt lat="45.81983341747985" lon="8.236752813323582"><ele>466.33333333333337</ele><time>2026-04-03T15:02:26.074Z</time></trkpt><trkpt lat="45.8199340053036" lon="8.23693740359734"><ele>463.0</ele><time>2026-04-03T15:02:27.074Z</time></trkpt><trkpt lat="45.820032999403544" lon="8.237120623503893"><ele>461.33333333333337</ele><time>2026-04-03T15:02:28.074Z</time></trkpt><trkpt lat="45.820130696618655" lon="8.237306080549445"><ele>459.66666666666663</ele><time>2026-04-03T15:02:29.074Z</time></trkpt><trkpt lat="45.820227404519954" lon="8.237489700988334"><ele>458.0</ele><time>2026-04-03T15:02:30.074Z</time></trkpt><trkpt lat="45.82032459300412" lon="8.237666866603622"><ele>460.75</ele><time>2026-04-03T15:02:31.073Z</time></trkpt><trkpt lat="45.8204126086549" lon="8.237840976096818"><ele>463.5</ele><time>2026-04-03T15:02:32.074Z</time></trkpt><trkpt lat="45.82050113689576" lon="8.238006063213035"><ele>466.25</ele><time>2026-04-03T15:02:33.073Z</time></trkpt><trkpt lat="45.820589973157134" lon="8.23816123857468"><ele>469.0</ele><time>2026-04-03T15:02:34.074Z</time></trkpt><trkpt lat="45.82067725472098" lon="8.238310612621925"><ele>469.0</ele><time>2026-04-03T15:02:35.074Z</time></trkpt><trkpt lat="45.82074428604665" lon="8.238471800220449"><ele>469.0</ele><time>2026-04-03T15:02:36.074Z</time></trkpt><trkpt lat="45.82078606458632" lon="8.238646218183947"><ele>469.0</ele><time>2026-04-03T15:02:37.074Z</time></trkpt><trkpt lat="45.82080359724354" lon="8.238842307796126"><ele>469.0</ele><time>2026-04-03T15:02:38.074Z</time></trkpt><trkpt lat="45.820800254264185" lon="8.2390455874344"><ele>468.75</ele><time>2026-04-03T15:02:39.074Z</time></trkpt><trkpt lat="45.820780186048" lon="8.239245508148796"><ele>468.5</ele><time>2026-04-03T15:02:40.074Z</time></trkpt><trkpt lat="45.82073700225058" lon="8.23943904912106"><ele>468.25</ele><time>2026-04-03T15:02:41.074Z</time></trkpt><trkpt lat="45.82066416596677" lon="8.239633071242642"><ele>468.0</ele><time>2026-04-03T15:02:42.074Z</time></trkpt><trkpt lat="45.82058500629418" lon="8.239836160306057"><ele>476.0</ele><time>2026-04-03T15:02:43.074Z</time></trkpt><trkpt lat="45.82051096142326" lon="8.240059645836826"><ele>484.0</ele><time>2026-04-03T15:02:44.074Z</time></trkpt><trkpt lat="45.82043812043917" lon="8.240286166119633"><ele>492.0</ele><time>2026-04-03T15:02:45.075Z</time></trkpt><trkpt lat="45.82036736043884" lon="8.240503571765432"><ele>497.66666666666663</ele><time>2026-04-03T15:02:46.075Z</time></trkpt><trkpt lat="45.820301976321325" lon="8.240717614982305"><ele>503.3333333333333</ele><time>2026-04-03T15:02:47.075Z</time></trkpt><trkpt lat="45.820250363755434" lon="8.240924844218641"><ele>509.0</ele><time>2026-04-03T15:02:48.075Z</time></trkpt><trkpt lat="45.82019881763823" lon="8.241132269109352"><ele>501.0</ele><time>2026-04-03T15:02:49.075Z</time></trkpt><trkpt lat="45.820140316514795" lon="8.241329326557564"><ele>493.0</ele><time>2026-04-03T15:02:50.075Z</time></trkpt><trkpt lat="45.820072730810274" lon="8.241501907103283"><ele>485.0</ele><time>2026-04-03T15:02:51.075Z</time></trkpt><trkpt lat="45.819984595337026" lon="8.241659679481874"><ele>477.0</ele><time>2026-04-03T15:02:52.075Z</time></trkpt><trkpt lat="45.81988034316358" lon="8.241806662956899"><ele>477.0</ele><time>2026-04-03T15:02:53.075Z</time></trkpt><trkpt lat="45.81975940367924" lon="8.241944882405084"><ele>477.0</ele><time>2026-04-03T15:02:54.075Z</time></trkpt><trkpt lat="45.819639990964674" lon="8.242080021928965"><ele>477.0</ele><time>2026-04-03T15:02:55.075Z</time></trkpt><trkpt lat="45.81952308741758" lon="8.242206585543524"><ele>477.0</ele><time>2026-04-03T15:02:56.075Z</time></trkpt><trkpt lat="45.81939826839507" lon="8.242296821000997"><ele>477.0</ele><time>2026-04-03T15:02:57.075Z</time></trkpt><trkpt lat="45.81927070776687" lon="8.242354815287879"><ele>477.0</ele><time>2026-04-03T15:02:58.075Z</time></trkpt><trkpt lat="45.81914242401654" lon="8.242407018461938"><ele>477.0</ele><time>2026-04-03T15:02:59.075Z</time></trkpt><trkpt lat="45.819007943797956" lon="8.242457363860293"><ele>476.75</ele><time>2026-04-03T15:03:00.075Z</time></trkpt><trkpt lat="45.81887597853642" lon="8.242501601339237"><ele>476.5</ele><time>2026-04-03T15:03:01.075Z</time></trkpt><trkpt lat="45.818748342215876" lon="8.242543773682414"><ele>476.25</ele><time>2026-04-03T15:03:02.075Z</time></trkpt><trkpt lat="45.818631730401066" lon="8.242579307514928"><ele>476.0</ele><time>2026-04-03T15:03:03.075Z</time></trkpt><trkpt lat="45.818514368891876" lon="8.242616666497298"><ele>469.75</ele><time>2026-04-03T15:03:04.075Z</time></trkpt><trkpt lat="45.81839018037822" lon="8.242660355039343"><ele>463.5</ele><time>2026-04-03T15:03:05.075Z</time></trkpt><trkpt lat="45.818255646374254" lon="8.242701541380248"><ele>457.25</ele><time>2026-04-03T15:03:06.075Z</time></trkpt><trkpt lat="45.81812682227821" lon="8.242747608685717"><ele>451.0</ele><time>2026-04-03T15:03:07.075Z</time></trkpt><trkpt lat="45.81799828191771" lon="8.242790114506821"><ele>451.0</ele><time>2026-04-03T15:03:08.075Z</time></trkpt><trkpt lat="45.817862699054835" lon="8.242831867982641"><ele>451.0</ele><time>2026-04-03T15:03:09.075Z</time></trkpt><trkpt lat="45.81771808257222" lon="8.242878398211545"><ele>451.0</ele><time>2026-04-03T15:03:10.075Z</time></trkpt><trkpt lat="45.817568367339646" lon="8.24292943788829"><ele>451.0</ele><time>2026-04-03T15:03:11.075Z</time></trkpt><trkpt lat="45.81741467940463" lon="8.242984063540419"><ele>450.6666666666667</ele><time>2026-04-03T15:03:12.075Z</time></trkpt><trkpt lat="45.81726156232827" lon="8.243041458271739"><ele>450.33333333333337</ele><time>2026-04-03T15:03:13.075Z</time></trkpt><trkpt lat="45.81711233206066" lon="8.243095967400771"><ele>450.0</ele><time>2026-04-03T15:03:14.075Z</time></trkpt><trkpt lat="45.816965466629725" lon="8.243146727837079"><ele>450.33333333333337</ele><time>2026-04-03T15:03:15.075Z</time></trkpt><trkpt lat="45.81681973157729" lon="8.243197814198604"><ele>450.6666666666667</ele><time>2026-04-03T15:03:16.075Z</time></trkpt><trkpt lat="45.816673534069395" lon="8.243249059944597"><ele>451.0</ele><time>2026-04-03T15:03:17.075Z</time></trkpt><trkpt lat="45.81651345581726" lon="8.24330430133776"><ele>451.0</ele><time>2026-04-03T15:03:18.075Z</time></trkpt><trkpt lat="45.81634416024427" lon="8.24336606477134"><ele>451.0</ele><time>2026-04-03T15:03:19.075Z</time></trkpt><trkpt lat="45.81616877299236" lon="8.243435841465855"><ele>451.0</ele><time>2026-04-03T15:03:20.075Z</time></trkpt><trkpt lat="45.815984927609094" lon="8.243512654015328"><ele>450.33333333333337</ele><time>2026-04-03T15:03:21.075Z</time></trkpt><trkpt lat="45.81580687200655" lon="8.243598933693455"><ele>449.66666666666663</ele><time>2026-04-03T15:03:22.075Z</time></trkpt><trkpt lat="45.81563712345274" lon="8.24368807005508"><ele>449.0</ele><time>2026-04-03T15:03:23.075Z</time></trkpt><trkpt lat="45.81545707438304" lon="8.243782511818868"><ele>449.0</ele><time>2026-04-03T15:03:24.075Z</time></trkpt><trkpt lat="45.815270175275316" lon="8.243878475355643"><ele>449.0</ele><time>2026-04-03T15:03:25.075Z</time></trkpt><trkpt lat="45.81508777670223" lon="8.243954838229952"><ele>449.0</ele><time>2026-04-03T15:03:26.075Z</time></trkpt><trkpt lat="45.81492618605931" lon="8.244044061977517"><ele>448.3333333333333</ele><time>2026-04-03T15:03:27.075Z</time></trkpt><trkpt lat="45.81477731913222" lon="8.244135239399776"><ele>447.66666666666663</ele><time>2026-04-03T15:03:28.076Z</time></trkpt><trkpt lat="45.81464458671365" lon="8.244226129527433"><ele>447.0</ele><time>2026-04-03T15:03:29.076Z</time></trkpt><trkpt lat="45.81452156243838" lon="8.244331563529656"><ele>447.0</ele><time>2026-04-03T15:03:30.076Z</time></trkpt><trkpt lat="45.814408230921906" lon="8.244457432945062"><ele>447.0</ele><time>2026-04-03T15:03:31.076Z</time></trkpt><trkpt lat="45.81430280644568" lon="8.244611169402578"><ele>447.0</ele><time>2026-04-03T15:03:32.076Z</time></trkpt><trkpt lat="45.81421014125413" lon="8.244786999420057"><ele>447.0</ele><time>2026-04-03T15:03:33.076Z</time></trkpt><trkpt lat="45.81412478355423" lon="8.244985425128679"><ele>446.33333333333337</ele><time>2026-04-03T15:03:34.076Z</time></trkpt><trkpt lat="45.814049870139044" lon="8.245201381251155"><ele>445.6666666666667</ele><time>2026-04-03T15:03:35.076Z</time></trkpt><trkpt lat="45.813979917522545" lon="8.245431544263043"><ele>445.0</ele><time>2026-04-03T15:03:36.076Z</time></trkpt><trkpt lat="45.81391031961743" lon="8.245663383281428"><ele>446.33333333333337</ele><time>2026-04-03T15:03:37.076Z</time></trkpt><trkpt lat="45.81384636040376" lon="8.2458903301005"><ele>447.66666666666663</ele><time>2026-04-03T15:03:38.076Z</time></trkpt><trkpt lat="45.81378315764257" lon="8.246106316001207"><ele>449.0</ele><time>2026-04-03T15:03:39.076Z</time></trkpt><trkpt lat="45.813723446436796" lon="8.2463124247839"><ele>448.66666666666663</ele><time>2026-04-03T15:03:40.076Z</time></trkpt><trkpt lat="45.813670679329135" lon="8.246515301839395"><ele>448.33333333333337</ele><time>2026-04-03T15:03:41.076Z</time></trkpt><trkpt lat="45.81361576933065" lon="8.246719922245566"><ele>448.0</ele><time>2026-04-03T15:03:42.076Z</time></trkpt><trkpt lat="45.81355878540114" lon="8.246935028440936"><ele>448.0</ele><time>2026-04-03T15:03:43.076Z</time></trkpt><trkpt lat="45.813495477508276" lon="8.24714771085836"><ele>448.0</ele><time>2026-04-03T15:03:44.076Z</time></trkpt><trkpt lat="45.813434234197956" lon="8.24736851784173"><ele>448.0</ele><time>2026-04-03T15:03:45.076Z</time></trkpt><trkpt lat="45.81336888901327" lon="8.247592381994554"><ele>445.6666666666667</ele><time>2026-04-03T15:03:46.076Z</time></trkpt><trkpt lat="45.81330104726027" lon="8.247812243402713"><ele>443.33333333333337</ele><time>2026-04-03T15:03:47.076Z</time></trkpt><trkpt lat="45.81324636973904" lon="8.248032389747333"><ele>441.0</ele><time>2026-04-03T15:03:48.076Z</time></trkpt><trkpt lat="45.81320786344974" lon="8.248264757355278"><ele>441.0</ele><time>2026-04-03T15:03:49.076Z</time></trkpt><trkpt lat="45.81318385602281" lon="8.248500016307812"><ele>441.0</ele><time>2026-04-03T15:03:50.076Z</time></trkpt><trkpt lat="45.81317382033562" lon="8.248740448291592"><ele>441.0</ele><time>2026-04-03T15:03:51.076Z</time></trkpt><trkpt lat="45.81316261231893" lon="8.248984146993626"><ele>441.0</ele><time>2026-04-03T15:03:52.076Z</time></trkpt><trkpt lat="45.81318191439702" lon="8.249233824952887"><ele>441.0</ele><time>2026-04-03T15:03:53.076Z</time></trkpt><trkpt lat="45.81321130215942" lon="8.249495415190994"><ele>441.0</ele><time>2026-04-03T15:03:54.076Z</time></trkpt><trkpt lat="45.81323886201315" lon="8.249764509232325"><ele>439.66666666666663</ele><time>2026-04-03T15:03:55.076Z</time></trkpt><trkpt lat="45.81326330652953" lon="8.250034643818454"><ele>438.3333333333333</ele><time>2026-04-03T15:03:56.076Z</time></trkpt><trkpt lat="45.81327935081564" lon="8.250302676576451"><ele>437.0</ele><time>2026-04-03T15:03:57.076Z</time></trkpt><trkpt lat="45.813287221954965" lon="8.25056771891407"><ele>437.0</ele><time>2026-04-03T15:03:58.076Z</time></trkpt><trkpt lat="45.81328900095795" lon="8.25083258410855"><ele>437.0</ele><time>2026-04-03T15:03:59.076Z</time></trkpt><trkpt lat="45.813286631055995" lon="8.251094422679444"><ele>437.0</ele><time>2026-04-03T15:04:00.076Z</time></trkpt><trkpt lat="45.81327368993115" lon="8.25135180243609"><ele>438.3333333333333</ele><time>2026-04-03T15:04:01.076Z</time></trkpt><trkpt lat="45.813254154995796" lon="8.251604290731876"><ele>439.66666666666663</ele><time>2026-04-03T15:04:02.076Z</time></trkpt><trkpt lat="45.81322860621146" lon="8.251847903711035"><ele>441.0</ele><time>2026-04-03T15:04:03.076Z</time></trkpt><trkpt lat="45.81319775344269" lon="8.252082907588408"><ele>441.0</ele><time>2026-04-03T15:04:04.076Z</time></trkpt><trkpt lat="45.8131654621672" lon="8.252310682732213"><ele>441.0</ele><time>2026-04-03T15:04:05.076Z</time></trkpt><trkpt lat="45.8131340366853" lon="8.252533644103261"><ele>441.0</ele><time>2026-04-03T15:04:06.076Z</time></trkpt><trkpt lat="45.81310389565475" lon="8.252740674517021"><ele>441.0</ele><time>2026-04-03T15:04:07.076Z</time></trkpt><trkpt lat="45.81307600657166" lon="8.25290935430141"><ele>441.0</ele><time>2026-04-03T15:04:08.076Z</time></trkpt><trkpt lat="45.813056396353865" lon="8.253070721315183"><ele>441.0</ele><time>2026-04-03T15:04:09.076Z</time></trkpt><trkpt lat="45.81303825364155" lon="8.253214523751572"><ele>441.0</ele><time>2026-04-03T15:04:10.076Z</time></trkpt><trkpt lat="45.813021085817894" lon="8.253344131624747"><ele>441.0</ele><time>2026-04-03T15:04:11.077Z</time></trkpt><trkpt lat="45.81301007704766" lon="8.253460480691169"><ele>441.6</ele><time>2026-04-03T15:04:12.077Z</time></trkpt><trkpt lat="45.81300395774515" lon="8.253566824298705"><ele>442.20000000000005</ele><time>2026-04-03T15:04:13.077Z</time></trkpt><trkpt lat="45.812995221278406" lon="8.253681181947659"><ele>442.79999999999995</ele><time>2026-04-03T15:04:14.077Z</time></trkpt><trkpt lat="45.81297452803398" lon="8.253820638454307"><ele>443.4</ele><time>2026-04-03T15:04:15.077Z</time></trkpt><trkpt lat="45.81295450462851" lon="8.253979675379426"><ele>444.0</ele><time>2026-04-03T15:04:16.077Z</time></trkpt><trkpt lat="45.81293257201021" lon="8.254159678286243"><ele>444.25</ele><time>2026-04-03T15:04:17.077Z</time></trkpt><trkpt lat="45.81290061214315" lon="8.254355089983028"><ele>444.5</ele><time>2026-04-03T15:04:18.077Z</time></trkpt><trkpt lat="45.812868129165935" lon="8.254563347211601"><ele>444.75</ele><time>2026-04-03T15:04:19.077Z</time></trkpt><trkpt lat="45.812831435016" lon="8.25478082912195"><ele>445.0</ele><time>2026-04-03T15:04:20.077Z</time></trkpt><trkpt lat="45.812795499151164" lon="8.25500770948448"><ele>446.33333333333337</ele><time>2026-04-03T15:04:21.077Z</time></trkpt><trkpt lat="45.81276077121772" lon="8.25522542721191"><ele>447.66666666666663</ele><time>2026-04-03T15:04:22.077Z</time></trkpt><trkpt lat="45.812727942525285" lon="8.255444304141337"><ele>449.0</ele><time>2026-04-03T15:04:23.077Z</time></trkpt><trkpt lat="45.81269789609346" lon="8.255667088981472"><ele>449.66666666666663</ele><time>2026-04-03T15:04:24.077Z</time></trkpt><trkpt lat="45.81266605257601" lon="8.255884840884642"><ele>450.33333333333337</ele><time>2026-04-03T15:04:25.077Z</time></trkpt><trkpt lat="45.81262719143501" lon="8.256099151857182"><ele>451.0</ele><time>2026-04-03T15:04:26.077Z</time></trkpt><trkpt lat="45.812582148017455" lon="8.256320917452012"><ele>447.0</ele><time>2026-04-03T15:04:27.077Z</time></trkpt><trkpt lat="45.81252593755094" lon="8.256545476639863"><ele>443.0</ele><time>2026-04-03T15:04:28.077Z</time></trkpt><trkpt lat="45.81245836145717" lon="8.256771736283328"><ele>439.0</ele><time>2026-04-03T15:04:29.077Z</time></trkpt><trkpt lat="45.81237931547041" lon="8.257003523871946"><ele>439.0</ele><time>2026-04-03T15:04:30.078Z</time></trkpt><trkpt lat="45.8122896213873" lon="8.257234350492665"><ele>439.0</ele><time>2026-04-03T15:04:31.078Z</time></trkpt><trkpt lat="45.81218772922371" lon="8.257461036112852"><ele>439.0</ele><time>2026-04-03T15:04:32.078Z</time></trkpt><trkpt lat="45.8120735772517" lon="8.257688984496907"><ele>439.6666666666667</ele><time>2026-04-03T15:04:33.078Z</time></trkpt><trkpt lat="45.81194779966971" lon="8.257913812125675"><ele>440.33333333333337</ele><time>2026-04-03T15:04:34.078Z</time></trkpt><trkpt lat="45.81182117319432" lon="8.258129015689148"><ele>441.0</ele><time>2026-04-03T15:04:35.078Z</time></trkpt><trkpt lat="45.81169980782995" lon="8.258329342594953"><ele>439.33333333333337</ele><time>2026-04-03T15:04:36.078Z</time></trkpt><trkpt lat="45.81158158425276" lon="8.258521892130013"><ele>437.6666666666667</ele><time>2026-04-03T15:04:37.078Z</time></trkpt><trkpt lat="45.81146054329233" lon="8.258717660047372"><ele>436.0</ele><time>2026-04-03T15:04:38.078Z</time></trkpt><trkpt lat="45.811341027422735" lon="8.258916623006114"><ele>435.0</ele><time>2026-04-03T15:04:39.079Z</time></trkpt><trkpt lat="45.811219950900025" lon="8.259115020309961"><ele>434.0</ele><time>2026-04-03T15:04:40.078Z</time></trkpt><trkpt lat="45.81109721315531" lon="8.259317130323439"><ele>433.0</ele><time>2026-04-03T15:04:41.078Z</time></trkpt><trkpt lat="45.81097364913434" lon="8.259517911167006"><ele>433.0</ele><time>2026-04-03T15:04:42.078Z</time></trkpt><trkpt lat="45.8108480814187" lon="8.25971883480037"><ele>433.0</ele><time>2026-04-03T15:04:43.078Z</time></trkpt><trkpt lat="45.81072909731548" lon="8.259924332274839"><ele>433.0</ele><time>2026-04-03T15:04:44.078Z</time></trkpt><trkpt lat="45.81060467491894" lon="8.260131064386975"><ele>434.33333333333337</ele><time>2026-04-03T15:04:45.078Z</time></trkpt><trkpt lat="45.81047977337738" lon="8.26033943433346"><ele>435.66666666666663</ele><time>2026-04-03T15:04:46.078Z</time></trkpt><trkpt lat="45.81036109165917" lon="8.260544034397203"><ele>437.0</ele><time>2026-04-03T15:04:47.078Z</time></trkpt><trkpt lat="45.810236858502805" lon="8.260744897752017"><ele>435.0</ele><time>2026-04-03T15:04:48.079Z</time></trkpt><trkpt lat="45.81011082003618" lon="8.260953436279365"><ele>433.0</ele><time>2026-04-03T15:04:49.079Z</time></trkpt><trkpt lat="45.80998327268797" lon="8.261170339680852"><ele>431.0</ele><time>2026-04-03T15:04:50.079Z</time></trkpt><trkpt lat="45.80984943460247" lon="8.261389472939028"><ele>432.3333333333333</ele><time>2026-04-03T15:04:51.079Z</time></trkpt><trkpt lat="45.80971049175828" lon="8.261616259816973"><ele>433.66666666666663</ele><time>2026-04-03T15:04:52.079Z</time></trkpt><trkpt lat="45.80956783522616" lon="8.261849594305458"><ele>435.0</ele><time>2026-04-03T15:04:53.079Z</time></trkpt><trkpt lat="45.809423040267504" lon="8.262088540618015"><ele>435.0</ele><time>2026-04-03T15:04:54.079Z</time></trkpt><trkpt lat="45.809276994063225" lon="8.262331922692978"><ele>435.0</ele><time>2026-04-03T15:04:55.079Z</time></trkpt><trkpt lat="45.809131025917225" lon="8.262576715370148"><ele>435.0</ele><time>2026-04-03T15:04:56.079Z</time></trkpt><trkpt lat="45.808968618231134" lon="8.262807000258988"><ele>435.0</ele><time>2026-04-03T15:04:57.079Z</time></trkpt><trkpt lat="45.80881954541338" lon="8.263050506862852"><ele>435.0</ele><time>2026-04-03T15:04:58.079Z</time></trkpt><trkpt lat="45.80867126692584" lon="8.263280865175163"><ele>435.0</ele><time>2026-04-03T15:04:59.079Z</time></trkpt><trkpt lat="45.80851939837764" lon="8.263490943052307"><ele>435.0</ele><time>2026-04-03T15:05:00.079Z</time></trkpt><trkpt lat="45.8083600587334" lon="8.263675820789656"><ele>435.0</ele><time>2026-04-03T15:05:01.079Z</time></trkpt><trkpt lat="45.80820777634994" lon="8.263856416270048"><ele>435.0</ele><time>2026-04-03T15:05:02.079Z</time></trkpt><trkpt lat="45.808030447074344" lon="8.263996386321946"><ele>435.0</ele><time>2026-04-03T15:05:03.079Z</time></trkpt><trkpt lat="45.807843162533295" lon="8.264113507289471"><ele>435.0</ele><time>2026-04-03T15:05:04.079Z</time></trkpt><trkpt lat="45.807647801764766" lon="8.26420486815101"><ele>435.0</ele><time>2026-04-03T15:05:05.079Z</time></trkpt><trkpt lat="45.80744586452498" lon="8.264277635657367"><ele>434.66666666666663</ele><time>2026-04-03T15:05:06.079Z</time></trkpt><trkpt lat="45.80724199347999" lon="8.264334455015744"><ele>434.3333333333333</ele><time>2026-04-03T15:05:07.079Z</time></trkpt><trkpt lat="45.80703503660649" lon="8.264372242814728"><ele>434.0</ele><time>2026-04-03T15:05:08.079Z</time></trkpt><trkpt lat="45.80682237970367" lon="8.264385955058982"><ele>433.0</ele><time>2026-04-03T15:05:09.079Z</time></trkpt><trkpt lat="45.806618229444126" lon="8.26438625943341"><ele>432.0</ele><time>2026-04-03T15:05:10.079Z</time></trkpt><trkpt lat="45.80642339137155" lon="8.264354538080985"><ele>431.0</ele><time>2026-04-03T15:05:11.079Z</time></trkpt><trkpt lat="45.80622690554394" lon="8.264345232549763"><ele>431.0</ele><time>2026-04-03T15:05:12.079Z</time></trkpt><trkpt lat="45.80602539328546" lon="8.264335798230087"><ele>431.0</ele><time>2026-04-03T15:05:13.079Z</time></trkpt><trkpt lat="45.80582788532802" lon="8.264326443141952"><ele>431.0</ele><time>2026-04-03T15:05:14.079Z</time></trkpt><trkpt lat="45.805638189332385" lon="8.264319860718848"><ele>430.66666666666663</ele><time>2026-04-03T15:05:15.079Z</time></trkpt><trkpt lat="45.80544565855145" lon="8.264313148404282"><ele>430.33333333333337</ele><time>2026-04-03T15:05:16.079Z</time></trkpt><trkpt lat="45.805253450228136" lon="8.26430928594682"><ele>430.0</ele><time>2026-04-03T15:05:17.079Z</time></trkpt><trkpt lat="45.80506744626044" lon="8.264315598416806"><ele>429.6666666666667</ele><time>2026-04-03T15:05:18.079Z</time></trkpt><trkpt lat="45.804887146125985" lon="8.264356901384337"><ele>429.33333333333337</ele><time>2026-04-03T15:05:19.079Z</time></trkpt><trkpt lat="45.804712380519916" lon="8.264364308244998"><ele>429.0</ele><time>2026-04-03T15:05:20.079Z</time></trkpt><trkpt lat="45.80454240339353" lon="8.264411974376113"><ele>429.0</ele><time>2026-04-03T15:05:21.079Z</time></trkpt><trkpt lat="45.80437129840107" lon="8.264486697861026"><ele>429.0</ele><time>2026-04-03T15:05:22.079Z</time></trkpt><trkpt lat="45.804202660745204" lon="8.264570336943244"><ele>429.0</ele><time>2026-04-03T15:05:23.079Z</time></trkpt><trkpt lat="45.80403203748688" lon="8.264658514022175"><ele>428.66666666666663</ele><time>2026-04-03T15:05:24.079Z</time></trkpt><trkpt lat="45.803850207007834" lon="8.264752482821551"><ele>428.3333333333333</ele><time>2026-04-03T15:05:25.079Z</time></trkpt><trkpt lat="45.803649109491836" lon="8.264860314098962"><ele>428.0</ele><time>2026-04-03T15:05:26.079Z</time></trkpt><trkpt lat="45.80343633298562" lon="8.264974576373596"><ele>429.0</ele><time>2026-04-03T15:05:27.079Z</time></trkpt><trkpt lat="45.80321091542188" lon="8.265095186300977"><ele>430.0</ele><time>2026-04-03T15:05:28.079Z</time></trkpt><trkpt lat="45.802970477846245" lon="8.26522383276639"><ele>430.0</ele><time>2026-04-03T15:05:29.079Z</time></trkpt><trkpt lat="45.80271612085743" lon="8.26536086452381"><ele>430.0</ele><time>2026-04-03T15:05:30.079Z</time></trkpt><trkpt lat="45.80246422206263" lon="8.26551707306554"><ele>430.0</ele><time>2026-04-03T15:05:31.08Z</time></trkpt><trkpt lat="45.80222354305796" lon="8.265651883898094"><ele>430.0</ele><time>2026-04-03T15:05:32.08Z</time></trkpt><trkpt lat="45.80197930274482" lon="8.265759609445515"><ele>428.0</ele><time>2026-04-03T15:05:33.08Z</time></trkpt><trkpt lat="45.80174171790353" lon="8.265888269187071"><ele>426.0</ele><time>2026-04-03T15:05:34.08Z</time></trkpt><trkpt lat="45.801511297015814" lon="8.266035617057078"><ele>426.0</ele><time>2026-04-03T15:05:35.08Z</time></trkpt><trkpt lat="45.80128238203253" lon="8.266152404040666"><ele>426.0</ele><time>2026-04-03T15:05:36.08Z</time></trkpt><trkpt lat="45.80106519984822" lon="8.266265381802986"><ele>426.33333333333337</ele><time>2026-04-03T15:05:37.08Z</time></trkpt><trkpt lat="45.80085357127096" lon="8.26637972664562"><ele>426.6666666666667</ele><time>2026-04-03T15:05:38.08Z</time></trkpt><trkpt lat="45.800646748620764" lon="8.266494221772703"><ele>427.0</ele><time>2026-04-03T15:05:39.08Z</time></trkpt><trkpt lat="45.80044541876759" lon="8.266601016555596"><ele>427.0</ele><time>2026-04-03T15:05:40.08Z</time></trkpt><trkpt lat="45.80024163694037" lon="8.26671381302878"><ele>427.0</ele><time>2026-04-03T15:05:41.08Z</time></trkpt><trkpt lat="45.800035342006595" lon="8.266832696980659"><ele>427.0</ele><time>2026-04-03T15:05:42.08Z</time></trkpt><trkpt lat="45.79983529333615" lon="8.266960539612437"><ele>427.6666666666667</ele><time>2026-04-03T15:05:43.08Z</time></trkpt><trkpt lat="45.79964144675455" lon="8.267108168588013"><ele>428.33333333333337</ele><time>2026-04-03T15:05:44.08Z</time></trkpt><trkpt lat="45.79945168824391" lon="8.267266634156398"><ele>429.0</ele><time>2026-04-03T15:05:45.08Z</time></trkpt><trkpt lat="45.799261677098556" lon="8.267428540865659"><ele>429.0</ele><time>2026-04-03T15:05:46.08Z</time></trkpt><trkpt lat="45.799070441930546" lon="8.26759242466556"><ele>429.0</ele><time>2026-04-03T15:05:47.08Z</time></trkpt><trkpt lat="45.79887582966552" lon="8.267758600915453"><ele>429.0</ele><time>2026-04-03T15:05:48.08Z</time></trkpt><trkpt lat="45.79868010043764" lon="8.267927327652663"><ele>430.0</ele><time>2026-04-03T15:05:49.08Z</time></trkpt><trkpt lat="45.79848506215784" lon="8.268094408877165"><ele>431.0</ele><time>2026-04-03T15:05:50.08Z</time></trkpt><trkpt lat="45.79829058118957" lon="8.26826629129278"><ele>431.0</ele><time>2026-04-03T15:05:51.08Z</time></trkpt><trkpt lat="45.79809462869663" lon="8.268436939520978"><ele>431.0</ele><time>2026-04-03T15:05:52.08Z</time></trkpt><trkpt lat="45.79789791926118" lon="8.268611188039399"><ele>431.0</ele><time>2026-04-03T15:05:53.08Z</time></trkpt><trkpt lat="45.79770116581915" lon="8.26878640102386"><ele>431.0</ele><time>2026-04-03T15:05:54.08Z</time></trkpt><trkpt lat="45.79750498395453" lon="8.268958190731496"><ele>427.66666666666663</ele><time>2026-04-03T15:05:55.08Z</time></trkpt><trkpt lat="45.79731657288911" lon="8.269129227190174"><ele>424.33333333333337</ele><time>2026-04-03T15:05:56.08Z</time></trkpt><trkpt lat="45.797128607999504" lon="8.269297185225286"><ele>421.0</ele><time>2026-04-03T15:05:57.08Z</time></trkpt><trkpt lat="45.7969385861758" lon="8.269465439273837"><ele>420.33333333333337</ele><time>2026-04-03T15:05:58.08Z</time></trkpt><trkpt lat="45.79674946846903" lon="8.269630813730409"><ele>419.66666666666663</ele><time>2026-04-03T15:05:59.08Z</time></trkpt><trkpt lat="45.79655992915705" lon="8.269798488578349"><ele>419.0</ele><time>2026-04-03T15:06:00.08Z</time></trkpt><trkpt lat="45.7963703483041" lon="8.269963723702427"><ele>419.0</ele><time>2026-04-03T15:06:01.08Z</time></trkpt><trkpt lat="45.79617837057289" lon="8.270134526176477"><ele>419.0</ele><time>2026-04-03T15:06:02.08Z</time></trkpt><trkpt lat="45.79598474565071" lon="8.270305941141284"><ele>419.0</ele><time>2026-04-03T15:06:03.08Z</time></trkpt><trkpt lat="45.79579199783862" lon="8.270474125143926"><ele>419.0</ele><time>2026-04-03T15:06:04.08Z</time></trkpt><trkpt lat="45.79560610584239" lon="8.270641181630108"><ele>419.0</ele><time>2026-04-03T15:06:05.08Z</time></trkpt><trkpt lat="45.79543002060459" lon="8.270798147801916"><ele>418.3333333333333</ele><time>2026-04-03T15:06:06.08Z</time></trkpt><trkpt lat="45.79526102959898" lon="8.270944586816737"><ele>417.66666666666663</ele><time>2026-04-03T15:06:07.08Z</time></trkpt><trkpt lat="45.79509581705562" lon="8.271074269292185"><ele>417.0</ele><time>2026-04-03T15:06:08.08Z</time></trkpt><trkpt lat="45.79492636742475" lon="8.27118566847063"><ele>417.0</ele><time>2026-04-03T15:06:09.08Z</time></trkpt><trkpt lat="45.79474845897221" lon="8.271251513870213"><ele>417.0</ele><time>2026-04-03T15:06:10.08Z</time></trkpt><trkpt lat="45.79457146479437" lon="8.271318401768546"><ele>417.0</ele><time>2026-04-03T15:06:11.08Z</time></trkpt><trkpt lat="45.79438796215234" lon="8.271377328417586"><ele>417.66666666666663</ele><time>2026-04-03T15:06:12.08Z</time></trkpt><trkpt lat="45.794194684438374" lon="8.271422825758686"><ele>418.3333333333333</ele><time>2026-04-03T15:06:13.08Z</time></trkpt><trkpt lat="45.79399587716564" lon="8.271460490650457"><ele>419.0</ele><time>2026-04-03T15:06:14.081Z</time></trkpt><trkpt lat="45.79379245822032" lon="8.271497170165869"><ele>419.0</ele><time>2026-04-03T15:06:15.081Z</time></trkpt><trkpt lat="45.79359122948314" lon="8.271533658919967"><ele>419.0</ele><time>2026-04-03T15:06:16.081Z</time></trkpt><trkpt lat="45.79339061149937" lon="8.271570156470622"><ele>419.0</ele><time>2026-04-03T15:06:17.081Z</time></trkpt><trkpt lat="45.79318836769857" lon="8.271607107162323"><ele>419.0</ele><time>2026-04-03T15:06:18.081Z</time></trkpt><trkpt lat="45.79298701851533" lon="8.27164390293584"><ele>419.0</ele><time>2026-04-03T15:06:19.081Z</time></trkpt><trkpt lat="45.79278341893231" lon="8.27168073780014"><ele>419.0</ele><time>2026-04-03T15:06:20.081Z</time></trkpt><trkpt lat="45.79258270648884" lon="8.271717039768273"><ele>419.0</ele><time>2026-04-03T15:06:21.081Z</time></trkpt><trkpt lat="45.792379986105054" lon="8.271775097888437"><ele>419.0</ele><time>2026-04-03T15:06:22.081Z</time></trkpt><trkpt lat="45.792177143576254" lon="8.27181305544728"><ele>419.0</ele><time>2026-04-03T15:06:23.081Z</time></trkpt><trkpt lat="45.79197350063437" lon="8.271850423531655"><ele>419.3333333333333</ele><time>2026-04-03T15:06:24.081Z</time></trkpt><trkpt lat="45.79176861832847" lon="8.271884719985756"><ele>419.66666666666663</ele><time>2026-04-03T15:06:25.081Z</time></trkpt><trkpt lat="45.79156132432604" lon="8.271915676185177"><ele>420.0</ele><time>2026-04-03T15:06:26.081Z</time></trkpt><trkpt lat="45.791348984694196" lon="8.271957445628885"><ele>420.0</ele><time>2026-04-03T15:06:27.081Z</time></trkpt><trkpt lat="45.791129866406386" lon="8.272013211877885"><ele>420.0</ele><time>2026-04-03T15:06:28.081Z</time></trkpt><trkpt lat="45.79090804079033" lon="8.272073211004292"><ele>420.0</ele><time>2026-04-03T15:06:29.081Z</time></trkpt><trkpt lat="45.79068673827369" lon="8.272131296389615"><ele>418.0</ele><time>2026-04-03T15:06:30.081Z</time></trkpt><trkpt lat="45.79045474871766" lon="8.272168375564338"><ele>416.0</ele><time>2026-04-03T15:06:31.081Z</time></trkpt><trkpt lat="45.79022125481229" lon="8.272233161377166"><ele>416.5</ele><time>2026-04-03T15:06:32.081Z</time></trkpt><trkpt lat="45.789987249799054" lon="8.272303432590933"><ele>417.0</ele><time>2026-04-03T15:06:33.081Z</time></trkpt><trkpt lat="45.789745641208945" lon="8.272356265861482"><ele>417.0</ele><time>2026-04-03T15:06:34.081Z</time></trkpt><trkpt lat="45.78950847953675" lon="8.272465660283137"><ele>417.0</ele><time>2026-04-03T15:06:35.081Z</time></trkpt><trkpt lat="45.78926560638663" lon="8.272556743025572"><ele>416.0</ele><time>2026-04-03T15:06:36.082Z</time></trkpt><trkpt lat="45.789025203002566" lon="8.272648124279971"><ele>415.0</ele><time>2026-04-03T15:06:37.083Z</time></trkpt><trkpt lat="45.78878833943499" lon="8.272742555101816"><ele>415.0</ele><time>2026-04-03T15:06:38.083Z</time></trkpt><trkpt lat="45.78855623522227" lon="8.272840936033402"><ele>415.0</ele><time>2026-04-03T15:06:39.082Z</time></trkpt><trkpt lat="45.78833081406542" lon="8.272943102012581"><ele>414.5</ele><time>2026-04-03T15:06:40.083Z</time></trkpt><trkpt lat="45.788107756202365" lon="8.273050441543724"><ele>414.0</ele><time>2026-04-03T15:06:41.083Z</time></trkpt><trkpt lat="45.787890121723095" lon="8.273157273112359"><ele>414.0</ele><time>2026-04-03T15:06:42.082Z</time></trkpt><trkpt lat="45.78767479994184" lon="8.273270094277878"><ele>414.0</ele><time>2026-04-03T15:06:43.082Z</time></trkpt><trkpt lat="45.78746103582841" lon="8.273387449033178"><ele>414.0</ele><time>2026-04-03T15:06:44.082Z</time></trkpt><trkpt lat="45.78725432816773" lon="8.273503288622976"><ele>414.0</ele><time>2026-04-03T15:06:45.083Z</time></trkpt><trkpt lat="45.787050207639574" lon="8.273617927355977"><ele>414.0</ele><time>2026-04-03T15:06:46.083Z</time></trkpt><trkpt lat="45.786850738660284" lon="8.273730533437238"><ele>414.33333333333337</ele><time>2026-04-03T15:06:47.083Z</time></trkpt><trkpt lat="45.78665492560892" lon="8.273843627308338"><ele>414.6666666666667</ele><time>2026-04-03T15:06:48.083Z</time></trkpt><trkpt lat="45.78646047280899" lon="8.273950968216635"><ele>415.0</ele><time>2026-04-03T15:06:49.083Z</time></trkpt><trkpt lat="45.78627155058208" lon="8.274058881352866"><ele>415.0</ele><time>2026-04-03T15:06:50.083Z</time></trkpt><trkpt lat="45.78608528322964" lon="8.274171795353286"><ele>415.0</ele><time>2026-04-03T15:06:51.083Z</time></trkpt><trkpt lat="45.78590341889235" lon="8.27427766397731"><ele>415.0</ele><time>2026-04-03T15:06:52.083Z</time></trkpt><trkpt lat="45.78572176450962" lon="8.274382198314585"><ele>415.0</ele><time>2026-04-03T15:06:53.083Z</time></trkpt><trkpt lat="45.78553840786991" lon="8.274491537371338"><ele>415.0</ele><time>2026-04-03T15:06:54.083Z</time></trkpt><trkpt lat="45.785357915227145" lon="8.274597500906957"><ele>415.0</ele><time>2026-04-03T15:06:55.083Z</time></trkpt><trkpt lat="45.78518169525412" lon="8.274701079286357"><ele>414.33333333333337</ele><time>2026-04-03T15:06:56.083Z</time></trkpt><trkpt lat="45.78500744543758" lon="8.274806952277943"><ele>413.66666666666663</ele><time>2026-04-03T15:06:57.083Z</time></trkpt><trkpt lat="45.784831698418714" lon="8.27491415508788"><ele>413.0</ele><time>2026-04-03T15:06:58.083Z</time></trkpt><trkpt lat="45.78465436215696" lon="8.275020378878088"><ele>413.0</ele><time>2026-04-03T15:06:59.083Z</time></trkpt><trkpt lat="45.78447481572939" lon="8.275128677514703"><ele>413.0</ele><time>2026-04-03T15:07:00.083Z</time></trkpt><trkpt lat="45.78429059912858" lon="8.275239735722822"><ele>413.0</ele><time>2026-04-03T15:07:01.083Z</time></trkpt><trkpt lat="45.7841011787964" lon="8.275350228313023"><ele>413.0</ele><time>2026-04-03T15:07:02.083Z</time></trkpt><trkpt lat="45.7839015718027" lon="8.275458074311189"><ele>413.0</ele><time>2026-04-03T15:07:03.083Z</time></trkpt><trkpt lat="45.783690728429185" lon="8.275581157144263"><ele>413.0</ele><time>2026-04-03T15:07:04.083Z</time></trkpt><trkpt lat="45.783478418634395" lon="8.275713857103899"><ele>413.0</ele><time>2026-04-03T15:07:05.083Z</time></trkpt><trkpt lat="45.78327244410628" lon="8.275844805138322"><ele>413.0</ele><time>2026-04-03T15:07:06.083Z</time></trkpt><trkpt lat="45.78307440463149" lon="8.275983274270635"><ele>413.0</ele><time>2026-04-03T15:07:07.083Z</time></trkpt><trkpt lat="45.78286802757037" lon="8.276053741985361"><ele>412.0</ele><time>2026-04-03T15:07:08.083Z</time></trkpt><trkpt lat="45.78266170266898" lon="8.276098208941335"><ele>411.0</ele><time>2026-04-03T15:07:09.083Z</time></trkpt><trkpt lat="45.782459296023475" lon="8.276116678661603"><ele>410.0</ele><time>2026-04-03T15:07:10.083Z</time></trkpt><trkpt lat="45.78225801835793" lon="8.276116126454435"><ele>410.0</ele><time>2026-04-03T15:07:11.083Z</time></trkpt><trkpt lat="45.7820557898609" lon="8.27608953037789"><ele>410.0</ele><time>2026-04-03T15:07:12.083Z</time></trkpt><trkpt lat="45.78185498250595" lon="8.276036845945017"><ele>410.0</ele><time>2026-04-03T15:07:13.083Z</time></trkpt><trkpt lat="45.78166185039625" lon="8.27595606177602"><ele>409.3333333333333</ele><time>2026-04-03T15:07:14.083Z</time></trkpt><trkpt lat="45.78147430284527" lon="8.275847018156767"><ele>408.66666666666663</ele><time>2026-04-03T15:07:15.083Z</time></trkpt><trkpt lat="45.781292836446646" lon="8.275715681777227"><ele>408.0</ele><time>2026-04-03T15:07:16.083Z</time></trkpt><trkpt lat="45.781115630492295" lon="8.275565221678237"><ele>409.0</ele><time>2026-04-03T15:07:17.083Z</time></trkpt><trkpt lat="45.78094598910588" lon="8.275402244907893"><ele>410.0</ele><time>2026-04-03T15:07:18.083Z</time></trkpt><trkpt lat="45.78078274071444" lon="8.27523438748017"><ele>411.0</ele><time>2026-04-03T15:07:19.083Z</time></trkpt><trkpt lat="45.78061899378293" lon="8.275066097492605"><ele>411.0</ele><time>2026-04-03T15:07:20.084Z</time></trkpt><trkpt lat="45.78045659699181" lon="8.274902965117791"><ele>411.0</ele><time>2026-04-03T15:07:21.084Z</time></trkpt><trkpt lat="45.78029670117365" lon="8.27474386457065"><ele>411.0</ele><time>2026-04-03T15:07:22.084Z</time></trkpt><trkpt lat="45.780137074193" lon="8.274586303121035"><ele>410.0</ele><time>2026-04-03T15:07:23.084Z</time></trkpt><trkpt lat="45.77998018209663" lon="8.274430387102743"><ele>409.0</ele><time>2026-04-03T15:07:24.084Z</time></trkpt><trkpt lat="45.77982468944531" lon="8.274276846373638"><ele>408.0</ele><time>2026-04-03T15:07:25.084Z</time></trkpt><trkpt lat="45.77967272370073" lon="8.274122451362153"><ele>408.0</ele><time>2026-04-03T15:07:26.084Z</time></trkpt><trkpt lat="45.779521362744156" lon="8.273970668381189"><ele>408.0</ele><time>2026-04-03T15:07:27.084Z</time></trkpt><trkpt lat="45.779371297615214" lon="8.273822314451149"><ele>408.0</ele><time>2026-04-03T15:07:28.084Z</time></trkpt><trkpt lat="45.77921971978043" lon="8.27366993009865"><ele>408.0</ele><time>2026-04-03T15:07:29.084Z</time></trkpt><trkpt lat="45.77906512106221" lon="8.273518329606514"><ele>408.0</ele><time>2026-04-03T15:07:30.084Z</time></trkpt><trkpt lat="45.77890873725588" lon="8.27336913534616"><ele>408.0</ele><time>2026-04-03T15:07:31.084Z</time></trkpt><trkpt lat="45.778752768410094" lon="8.273218661572765"><ele>407.66666666666663</ele><time>2026-04-03T15:07:32.084Z</time></trkpt><trkpt lat="45.7785957823233" lon="8.273066706994893"><ele>407.3333333333333</ele><time>2026-04-03T15:07:33.084Z</time></trkpt><trkpt lat="45.778441758265544" lon="8.272916177736324"><ele>407.0</ele><time>2026-04-03T15:07:34.084Z</time></trkpt><trkpt lat="45.778288813439005" lon="8.272770128535475"><ele>407.0</ele><time>2026-04-03T15:07:35.084Z</time></trkpt><trkpt lat="45.7781357166213" lon="8.272620405976154"><ele>407.0</ele><time>2026-04-03T15:07:36.084Z</time></trkpt><trkpt lat="45.777977847320436" lon="8.272472142709011"><ele>407.0</ele><time>2026-04-03T15:07:37.084Z</time></trkpt><trkpt lat="45.77782850198652" lon="8.272300969560924"><ele>407.3333333333333</ele><time>2026-04-03T15:07:38.084Z</time></trkpt><trkpt lat="45.77766665686704" lon="8.272149606540678"><ele>407.66666666666663</ele><time>2026-04-03T15:07:39.084Z</time></trkpt><trkpt lat="45.77750110972352" lon="8.271997586875663"><ele>408.0</ele><time>2026-04-03T15:07:40.084Z</time></trkpt><trkpt lat="45.7773353607466" lon="8.271845381874083"><ele>408.0</ele><time>2026-04-03T15:07:41.084Z</time></trkpt><trkpt lat="45.7771687716605" lon="8.27169206655245"><ele>408.0</ele><time>2026-04-03T15:07:42.084Z</time></trkpt><trkpt lat="45.77700276634956" lon="8.271538732452678"><ele>408.0</ele><time>2026-04-03T15:07:43.084Z</time></trkpt><trkpt lat="45.7768386729926" lon="8.271387164370154"><ele>407.0</ele><time>2026-04-03T15:07:44.084Z</time></trkpt><trkpt lat="45.776677233589744" lon="8.271236722094656"><ele>406.0</ele><time>2026-04-03T15:07:45.084Z</time></trkpt><trkpt lat="45.77651516650015" lon="8.271085615319283"><ele>405.0</ele><time>2026-04-03T15:07:46.084Z</time></trkpt><trkpt lat="45.77635238046567" lon="8.27093330162812"><ele>405.0</ele><time>2026-04-03T15:07:47.084Z</time></trkpt><trkpt lat="45.776187553142144" lon="8.270777993853185"><ele>405.0</ele><time>2026-04-03T15:07:48.084Z</time></trkpt><trkpt lat="45.77601968946932" lon="8.27061982509379"><ele>405.0</ele><time>2026-04-03T15:07:49.084Z</time></trkpt><trkpt lat="45.775851197704874" lon="8.270461064530506"><ele>404.33333333333337</ele><time>2026-04-03T15:07:50.084Z</time></trkpt><trkpt lat="45.77568262206143" lon="8.270300999691342"><ele>403.6666666666667</ele><time>2026-04-03T15:07:51.084Z</time></trkpt><trkpt lat="45.77550965592583" lon="8.27013605686337"><ele>403.0</ele><time>2026-04-03T15:07:52.084Z</time></trkpt><trkpt lat="45.775337266763614" lon="8.26997166422874"><ele>402.0</ele><time>2026-04-03T15:07:53.084Z</time></trkpt><trkpt lat="45.77516238757253" lon="8.269805157420818"><ele>401.0</ele><time>2026-04-03T15:07:54.084Z</time></trkpt><trkpt lat="45.77498604881888" lon="8.269638388563648"><ele>400.0</ele><time>2026-04-03T15:07:55.084Z</time></trkpt><trkpt lat="45.774808086532154" lon="8.269469756926714"><ele>400.0</ele><time>2026-04-03T15:07:56.084Z</time></trkpt><trkpt lat="45.77462974444573" lon="8.26929869517239"><ele>400.0</ele><time>2026-04-03T15:07:57.084Z</time></trkpt><trkpt lat="45.77445520375932" lon="8.269131279639343"><ele>400.0</ele><time>2026-04-03T15:07:58.084Z</time></trkpt><trkpt lat="45.77428557670736" lon="8.268968577156945"><ele>400.0</ele><time>2026-04-03T15:07:59.084Z</time></trkpt><trkpt lat="45.77411810224614" lon="8.268806842628633"><ele>400.0</ele><time>2026-04-03T15:08:00.084Z</time></trkpt><trkpt lat="45.77395503986726" lon="8.268642933269193"><ele>400.0</ele><time>2026-04-03T15:08:01.084Z</time></trkpt><trkpt lat="45.77379397396878" lon="8.268471895145334"><ele>400.0</ele><time>2026-04-03T15:08:02.084Z</time></trkpt><trkpt lat="45.77363306069801" lon="8.26829767076705"><ele>400.0</ele><time>2026-04-03T15:08:03.085Z</time></trkpt><trkpt lat="45.773471390125536" lon="8.268121016563633"><ele>400.0</ele><time>2026-04-03T15:08:04.085Z</time></trkpt><trkpt lat="45.77331381048459" lon="8.267940359203989"><ele>399.0</ele><time>2026-04-03T15:08:05.085Z</time></trkpt><trkpt lat="45.77315734587716" lon="8.267753932421282"><ele>398.0</ele><time>2026-04-03T15:08:06.085Z</time></trkpt><trkpt lat="45.77300244504611" lon="8.26756324070456"><ele>397.0</ele><time>2026-04-03T15:08:07.085Z</time></trkpt><trkpt lat="45.772854059318426" lon="8.267364850567281"><ele>397.0</ele><time>2026-04-03T15:08:08.085Z</time></trkpt><trkpt lat="45.77270958618558" lon="8.267164243483148"><ele>397.0</ele><time>2026-04-03T15:08:09.085Z</time></trkpt><trkpt lat="45.772569122065185" lon="8.266960143445766"><ele>397.0</ele><time>2026-04-03T15:08:10.085Z</time></trkpt><trkpt lat="45.77243063182597" lon="8.266750117559653"><ele>397.0</ele><time>2026-04-03T15:08:11.085Z</time></trkpt><trkpt lat="45.77229424582734" lon="8.26653927120658"><ele>397.0</ele><time>2026-04-03T15:08:12.085Z</time></trkpt><trkpt lat="45.772162204449174" lon="8.266323207157996"><ele>397.0</ele><time>2026-04-03T15:08:13.085Z</time></trkpt><trkpt lat="45.77203432699686" lon="8.266102685847232"><ele>396.6666666666667</ele><time>2026-04-03T15:08:14.085Z</time></trkpt><trkpt lat="45.77191135156618" lon="8.265879001897495"><ele>396.33333333333337</ele><time>2026-04-03T15:08:15.085Z</time></trkpt><trkpt lat="45.77178992279043" lon="8.265655973324025"><ele>396.0</ele><time>2026-04-03T15:08:16.085Z</time></trkpt><trkpt lat="45.771672035509596" lon="8.265426617218885"><ele>395.66666666666663</ele><time>2026-04-03T15:08:17.085Z</time></trkpt><trkpt lat="45.77155410093356" lon="8.265189861871205"><ele>395.3333333333333</ele><time>2026-04-03T15:08:18.085Z</time></trkpt><trkpt lat="45.771435730938485" lon="8.264952232417736"><ele>395.0</ele><time>2026-04-03T15:08:19.085Z</time></trkpt><trkpt lat="45.77131826584364" lon="8.264716419574915"><ele>393.3333333333333</ele><time>2026-04-03T15:08:20.085Z</time></trkpt><trkpt lat="45.771204798541056" lon="8.26448863234256"><ele>391.66666666666663</ele><time>2026-04-03T15:08:21.085Z</time></trkpt><trkpt lat="45.77109762759432" lon="8.264273485161686"><ele>390.0</ele><time>2026-04-03T15:08:22.085Z</time></trkpt><trkpt lat="45.77099947223602" lon="8.264076883974154"><ele>389.33333333333337</ele><time>2026-04-03T15:08:23.085Z</time></trkpt><trkpt lat="45.77090654324814" lon="8.263890956520452"><ele>388.6666666666667</ele><time>2026-04-03T15:08:24.085Z</time></trkpt><trkpt lat="45.77081896781539" lon="8.263715740256881"><ele>388.0</ele><time>2026-04-03T15:08:25.085Z</time></trkpt><trkpt lat="45.77073275249966" lon="8.263543536906205"><ele>388.0</ele><time>2026-04-03T15:08:26.085Z</time></trkpt><trkpt lat="45.770649872890374" lon="8.26337808609986"><ele>388.0</ele><time>2026-04-03T15:08:27.085Z</time></trkpt><trkpt lat="45.77056530386031" lon="8.263207948247238"><ele>388.0</ele><time>2026-04-03T15:08:28.085Z</time></trkpt><trkpt lat="45.77047494398141" lon="8.263024905332808"><ele>388.0</ele><time>2026-04-03T15:08:29.085Z</time></trkpt><trkpt lat="45.77038219069048" lon="8.262837013990262"><ele>388.33333333333337</ele><time>2026-04-03T15:08:30.085Z</time></trkpt><trkpt lat="45.77029040175042" lon="8.262651076178336"><ele>388.66666666666663</ele><time>2026-04-03T15:08:31.085Z</time></trkpt><trkpt lat="45.77019384574225" lon="8.26246050430791"><ele>389.0</ele><time>2026-04-03T15:08:32.085Z</time></trkpt><trkpt lat="45.77009170239119" lon="8.262273076044766"><ele>389.66666666666663</ele><time>2026-04-03T15:08:33.085Z</time></trkpt><trkpt lat="45.76998620079161" lon="8.2620917468423"><ele>390.33333333333337</ele><time>2026-04-03T15:08:34.085Z</time></trkpt><trkpt lat="45.7698733208466" lon="8.261923558337434"><ele>391.0</ele><time>2026-04-03T15:08:35.085Z</time></trkpt><trkpt lat="45.7697570115639" lon="8.261765705979379"><ele>391.0</ele><time>2026-04-03T15:08:36.085Z</time></trkpt><trkpt lat="45.76963822801087" lon="8.26161775335052"><ele>391.0</ele><time>2026-04-03T15:08:37.085Z</time></trkpt><trkpt lat="45.76951441761655" lon="8.261477276854743"><ele>391.0</ele><time>2026-04-03T15:08:38.085Z</time></trkpt><trkpt lat="45.76938019931866" lon="8.26134167327985"><ele>390.6666666666667</ele><time>2026-04-03T15:08:39.085Z</time></trkpt><trkpt lat="45.76923865124191" lon="8.261213707736259"><ele>390.33333333333337</ele><time>2026-04-03T15:08:40.085Z</time></trkpt><trkpt lat="45.76909240252654" lon="8.261100158855005"><ele>390.0</ele><time>2026-04-03T15:08:41.085Z</time></trkpt><trkpt lat="45.768944085788135" lon="8.260991059355138"><ele>390.0</ele><time>2026-04-03T15:08:42.087Z</time></trkpt><trkpt lat="45.76879228037877" lon="8.26089451271414"><ele>390.0</ele><time>2026-04-03T15:08:43.087Z</time></trkpt><trkpt lat="45.76864010624655" lon="8.260813408160141"><ele>390.0</ele><time>2026-04-03T15:08:44.087Z</time></trkpt><trkpt lat="45.7684824651366" lon="8.260764986774731"><ele>389.66666666666663</ele><time>2026-04-03T15:08:45.087Z</time></trkpt><trkpt lat="45.76833499272185" lon="8.260692989777368"><ele>389.3333333333333</ele><time>2026-04-03T15:08:46.087Z</time></trkpt><trkpt lat="45.76818601075829" lon="8.260630713750498"><ele>389.0</ele><time>2026-04-03T15:08:47.087Z</time></trkpt><trkpt lat="45.76803766267995" lon="8.260581698038505"><ele>391.3333333333333</ele><time>2026-04-03T15:08:48.087Z</time></trkpt><trkpt lat="45.76788912501348" lon="8.260540150820344"><ele>393.66666666666663</ele><time>2026-04-03T15:08:49.087Z</time></trkpt><trkpt lat="45.76773926892218" lon="8.260513496613079"><ele>396.0</ele><time>2026-04-03T15:08:50.087Z</time></trkpt><trkpt lat="45.767584172414786" lon="8.260499258717628"><ele>396.0</ele><time>2026-04-03T15:08:51.087Z</time></trkpt><trkpt lat="45.76742458907455" lon="8.260486928803514"><ele>396.0</ele><time>2026-04-03T15:08:52.088Z</time></trkpt><trkpt lat="45.767262467364105" lon="8.260470617524039"><ele>396.0</ele><time>2026-04-03T15:08:53.088Z</time></trkpt><trkpt lat="45.76709868140028" lon="8.260454656288795"><ele>396.0</ele><time>2026-04-03T15:08:54.088Z</time></trkpt><trkpt lat="45.76693324998369" lon="8.260438390881351"><ele>396.0</ele><time>2026-04-03T15:08:55.087Z</time></trkpt><trkpt lat="45.76677126499864" lon="8.260416987280522"><ele>396.0</ele><time>2026-04-03T15:08:56.087Z</time></trkpt><trkpt lat="45.76661483006132" lon="8.260394017530112"><ele>394.66666666666663</ele><time>2026-04-03T15:08:57.087Z</time></trkpt><trkpt lat="45.76645961889268" lon="8.260370119212405"><ele>393.3333333333333</ele><time>2026-04-03T15:08:58.087Z</time></trkpt><trkpt lat="45.76630662747125" lon="8.260346887736661"><ele>392.0</ele><time>2026-04-03T15:08:59.087Z</time></trkpt><trkpt lat="45.76615795763089" lon="8.260322438866488"><ele>392.0</ele><time>2026-04-03T15:09:00.087Z</time></trkpt><trkpt lat="45.766014326322285" lon="8.260300779573468"><ele>392.0</ele><time>2026-04-03T15:09:01.087Z</time></trkpt><trkpt lat="45.765872538641254" lon="8.260284477510398"><ele>392.0</ele><time>2026-04-03T15:09:02.087Z</time></trkpt><trkpt lat="45.76572611550643" lon="8.260263759539876"><ele>392.0</ele><time>2026-04-03T15:09:03.087Z</time></trkpt><trkpt lat="45.765584070640195" lon="8.260244864813354"><ele>392.0</ele><time>2026-04-03T15:09:04.087Z</time></trkpt><trkpt lat="45.76544932317423" lon="8.260226891825042"><ele>392.0</ele><time>2026-04-03T15:09:05.087Z</time></trkpt><trkpt lat="45.76532986554145" lon="8.260209379420525"><ele>392.0</ele><time>2026-04-03T15:09:06.087Z</time></trkpt><trkpt lat="45.765224708527576" lon="8.260195177429706"><ele>392.0</ele><time>2026-04-03T15:09:07.087Z</time></trkpt><trkpt lat="45.76512281085685" lon="8.260179886930992"><ele>392.16666666666663</ele><time>2026-04-03T15:09:08.087Z</time></trkpt><trkpt lat="45.7650210322947" lon="8.260166723235548"><ele>392.3333333333333</ele><time>2026-04-03T15:09:09.087Z</time></trkpt><trkpt lat="45.764918813148014" lon="8.260156525484577"><ele>392.5</ele><time>2026-04-03T15:09:10.087Z</time></trkpt><trkpt lat="45.76482494140539" lon="8.26014976770471"><ele>392.66666666666663</ele><time>2026-04-03T15:09:11.088Z</time></trkpt><trkpt lat="45.764744071171926" lon="8.2601458437151"><ele>392.8333333333333</ele><time>2026-04-03T15:09:12.088Z</time></trkpt><trkpt lat="45.76467694517903" lon="8.26014121465823"><ele>393.0</ele><time>2026-04-03T15:09:13.088Z</time></trkpt><trkpt lat="45.764580677052365" lon="8.260140738468067"><ele>393.0</ele><time>2026-04-03T15:09:15.088Z</time></trkpt><trkpt lat="45.76450355390997" lon="8.260154415748728"><ele>393.0</ele><time>2026-04-03T15:09:18.088Z</time></trkpt><trkpt lat="45.764414784456314" lon="8.260128043407695"><ele>393.0</ele><time>2026-04-03T15:09:21.088Z</time></trkpt><trkpt lat="45.76429586066483" lon="8.260140399138638"><ele>393.0</ele><time>2026-04-03T15:09:23.088Z</time></trkpt><trkpt lat="45.76422086388307" lon="8.260126828437517"><ele>393.0</ele><time>2026-04-03T15:09:24.088Z</time></trkpt><trkpt lat="45.764144446377294" lon="8.260114800310928"><ele>393.0</ele><time>2026-04-03T15:09:25.088Z</time></trkpt><trkpt lat="45.764071287431776" lon="8.260090668028143"><ele>393.5</ele><time>2026-04-03T15:09:26.088Z</time></trkpt><trkpt lat="45.763995045368986" lon="8.260061843535484"><ele>394.0</ele><time>2026-04-03T15:09:27.088Z</time></trkpt><trkpt lat="45.76391975082012" lon="8.260047224298026"><ele>394.5</ele><time>2026-04-03T15:09:28.088Z</time></trkpt><trkpt lat="45.76383561404899" lon="8.260044081447145"><ele>395.0</ele><time>2026-04-03T15:09:29.088Z</time></trkpt><trkpt lat="45.76374620795931" lon="8.26003671967166"><ele>395.5</ele><time>2026-04-03T15:09:30.088Z</time></trkpt><trkpt lat="45.76365681996454" lon="8.260017438522064"><ele>396.0</ele><time>2026-04-03T15:09:31.088Z</time></trkpt><trkpt lat="45.76356529914876" lon="8.259991420721828"><ele>396.0</ele><time>2026-04-03T15:09:32.088Z</time></trkpt><trkpt lat="45.76347004447918" lon="8.259967494854605"><ele>396.0</ele><time>2026-04-03T15:09:33.088Z</time></trkpt><trkpt lat="45.763371114372354" lon="8.259942540628211"><ele>396.0</ele><time>2026-04-03T15:09:34.088Z</time></trkpt><trkpt lat="45.763273200217704" lon="8.259918196047073"><ele>396.0</ele><time>2026-04-03T15:09:35.088Z</time></trkpt><trkpt lat="45.763177244853324" lon="8.259899770552883"><ele>396.0</ele><time>2026-04-03T15:09:36.088Z</time></trkpt><trkpt lat="45.763075732396906" lon="8.259884967050235"><ele>396.0</ele><time>2026-04-03T15:09:37.088Z</time></trkpt><trkpt lat="45.76296940858616" lon="8.259868892200245"><ele>396.0</ele><time>2026-04-03T15:09:38.088Z</time></trkpt><trkpt lat="45.762860343627885" lon="8.259852796324925"><ele>396.0</ele><time>2026-04-03T15:09:39.088Z</time></trkpt><trkpt lat="45.762748121966" lon="8.259837238892"><ele>396.0</ele><time>2026-04-03T15:09:40.088Z</time></trkpt><trkpt lat="45.76263217892423" lon="8.259820707152105"><ele>396.0</ele><time>2026-04-03T15:09:41.088Z</time></trkpt><trkpt lat="45.7625114579066" lon="8.259804509705516"><ele>395.75</ele><time>2026-04-03T15:09:42.088Z</time></trkpt><trkpt lat="45.76238978855993" lon="8.259792773310012"><ele>395.5</ele><time>2026-04-03T15:09:43.088Z</time></trkpt><trkpt lat="45.76226738355362" lon="8.259779339650832"><ele>395.25</ele><time>2026-04-03T15:09:44.088Z</time></trkpt><trkpt lat="45.76214546033351" lon="8.259769035447366"><ele>395.0</ele><time>2026-04-03T15:09:45.088Z</time></trkpt><trkpt lat="45.76202976543632" lon="8.259729421603604"><ele>395.75</ele><time>2026-04-03T15:09:46.088Z</time></trkpt><trkpt lat="45.761914989011686" lon="8.259712063028795"><ele>396.5</ele><time>2026-04-03T15:09:47.088Z</time></trkpt><trkpt lat="45.76179800577465" lon="8.259716984068232"><ele>397.25</ele><time>2026-04-03T15:09:48.088Z</time></trkpt><trkpt lat="45.76167632257419" lon="8.259688834835433"><ele>398.0</ele><time>2026-04-03T15:09:49.088Z</time></trkpt><trkpt lat="45.76155518234531" lon="8.25964542520023"><ele>398.0</ele><time>2026-04-03T15:09:50.088Z</time></trkpt><trkpt lat="45.7614419163198" lon="8.259577235753612"><ele>398.0</ele><time>2026-04-03T15:09:51.088Z</time></trkpt><trkpt lat="45.76132534301529" lon="8.259522337167137"><ele>398.0</ele><time>2026-04-03T15:09:52.088Z</time></trkpt><trkpt lat="45.76121006328617" lon="8.259467242642362"><ele>398.0</ele><time>2026-04-03T15:09:53.088Z</time></trkpt><trkpt lat="45.76110332442934" lon="8.25940275838718"><ele>398.2</ele><time>2026-04-03T15:09:54.089Z</time></trkpt><trkpt lat="45.76100547500793" lon="8.259347480066843"><ele>398.4</ele><time>2026-04-03T15:09:55.089Z</time></trkpt><trkpt lat="45.76091627962607" lon="8.259284716963618"><ele>398.59999999999997</ele><time>2026-04-03T15:09:56.089Z</time></trkpt><trkpt lat="45.76083748332992" lon="8.259202173072339"><ele>398.79999999999995</ele><time>2026-04-03T15:09:57.089Z</time></trkpt><trkpt lat="45.7607593848111" lon="8.259124204619939"><ele>399.0</ele><time>2026-04-03T15:09:58.089Z</time></trkpt><trkpt lat="45.76067460999211" lon="8.259084295656184"><ele>399.0</ele><time>2026-04-03T15:09:59.089Z</time></trkpt><trkpt lat="45.760565661933015" lon="8.259075584659898"><ele>399.0</ele><time>2026-04-03T15:10:00.089Z</time></trkpt><trkpt lat="45.760455256537334" lon="8.259034502754306"><ele>399.0</ele><time>2026-04-03T15:10:01.089Z</time></trkpt><trkpt lat="45.76033674051622" lon="8.258988988563564"><ele>399.0</ele><time>2026-04-03T15:10:02.089Z</time></trkpt><trkpt lat="45.76021368430271" lon="8.258946947134852"><ele>401.75</ele><time>2026-04-03T15:10:03.089Z</time></trkpt><trkpt lat="45.760091886829095" lon="8.258907373693859"><ele>404.5</ele><time>2026-04-03T15:10:04.089Z</time></trkpt><trkpt lat="45.759969491078024" lon="8.258878870319817"><ele>407.25</ele><time>2026-04-03T15:10:05.089Z</time></trkpt><trkpt lat="45.759846507657294" lon="8.258859007024427"><ele>410.0</ele><time>2026-04-03T15:10:06.089Z</time></trkpt><trkpt lat="45.759716555667524" lon="8.258857384249003"><ele>410.0</ele><time>2026-04-03T15:10:07.089Z</time></trkpt><trkpt lat="45.759579860690216" lon="8.258862501827986"><ele>410.0</ele><time>2026-04-03T15:10:08.089Z</time></trkpt><trkpt lat="45.759438910937575" lon="8.258855872150672"><ele>410.0</ele><time>2026-04-03T15:10:09.089Z</time></trkpt><trkpt lat="45.75929076324735" lon="8.258872500782424"><ele>410.0</ele><time>2026-04-03T15:10:10.089Z</time></trkpt><trkpt lat="45.75914734251794" lon="8.25888540590542"><ele>409.75</ele><time>2026-04-03T15:10:11.089Z</time></trkpt><trkpt lat="45.75900853778445" lon="8.258894624169326"><ele>409.5</ele><time>2026-04-03T15:10:12.089Z</time></trkpt><trkpt lat="45.758873207032536" lon="8.258905633458175"><ele>409.25</ele><time>2026-04-03T15:10:13.089Z</time></trkpt><trkpt lat="45.758741626781934" lon="8.258915118600592"><ele>409.0</ele><time>2026-04-03T15:10:14.089Z</time></trkpt><trkpt lat="45.75861281289827" lon="8.258924229555795"><ele>409.25</ele><time>2026-04-03T15:10:15.089Z</time></trkpt><trkpt lat="45.75848219131563" lon="8.258944351472413"><ele>409.5</ele><time>2026-04-03T15:10:16.089Z</time></trkpt><trkpt lat="45.758338799757865" lon="8.258957232778934"><ele>409.75</ele><time>2026-04-03T15:10:17.089Z</time></trkpt><trkpt lat="45.75818494354515" lon="8.25897612594196"><ele>410.0</ele><time>2026-04-03T15:10:18.089Z</time></trkpt><trkpt lat="45.75802898883775" lon="8.258991225669417"><ele>409.0</ele><time>2026-04-03T15:10:19.089Z</time></trkpt><trkpt lat="45.757870818977615" lon="8.259009396036639"><ele>408.0</ele><time>2026-04-03T15:10:20.089Z</time></trkpt><trkpt lat="45.75770073634359" lon="8.259031008932913"><ele>407.0</ele><time>2026-04-03T15:10:21.089Z</time></trkpt><trkpt lat="45.75751977419592" lon="8.259050229463403"><ele>404.66666666666663</ele><time>2026-04-03T15:10:22.089Z</time></trkpt><trkpt lat="45.75732321529543" lon="8.259050325654616"><ele>402.33333333333337</ele><time>2026-04-03T15:10:23.089Z</time></trkpt><trkpt lat="45.75712467866082" lon="8.259068279750238"><ele>400.0</ele><time>2026-04-03T15:10:24.089Z</time></trkpt><trkpt lat="45.756917015137" lon="8.259088490622013"><ele>397.6666666666667</ele><time>2026-04-03T15:10:25.089Z</time></trkpt><trkpt lat="45.75671329217179" lon="8.259108317958363"><ele>395.33333333333337</ele><time>2026-04-03T15:10:26.089Z</time></trkpt><trkpt lat="45.756518725045055" lon="8.259147218656842"><ele>393.0</ele><time>2026-04-03T15:10:27.089Z</time></trkpt><trkpt lat="45.75632575493724" lon="8.25914843171092"><ele>393.0</ele><time>2026-04-03T15:10:28.089Z</time></trkpt><trkpt lat="45.75613043681802" lon="8.259131703483993"><ele>393.0</ele><time>2026-04-03T15:10:29.089Z</time></trkpt><trkpt lat="45.755937135152315" lon="8.259108758432523"><ele>393.0</ele><time>2026-04-03T15:10:30.089Z</time></trkpt><trkpt lat="45.75573526226023" lon="8.259076943007548"><ele>392.0</ele><time>2026-04-03T15:10:31.089Z</time></trkpt><trkpt lat="45.755525068298546" lon="8.259047866885362"><ele>391.0</ele><time>2026-04-03T15:10:32.089Z</time></trkpt><trkpt lat="45.75531204922432" lon="8.259015635477214"><ele>390.0</ele><time>2026-04-03T15:10:33.089Z</time></trkpt><trkpt lat="45.75509683399527" lon="8.258991846932064"><ele>406.0</ele><time>2026-04-03T15:10:34.089Z</time></trkpt><trkpt lat="45.75488967156018" lon="8.258950222133416"><ele>422.0</ele><time>2026-04-03T15:10:35.089Z</time></trkpt><trkpt lat="45.75468180638389" lon="8.258926817267005"><ele>438.0</ele><time>2026-04-03T15:10:36.089Z</time></trkpt><trkpt lat="45.7544750034849" lon="8.258911454168885"><ele>439.33333333333337</ele><time>2026-04-03T15:10:37.09Z</time></trkpt><trkpt lat="45.754263587365124" lon="8.25890672139079"><ele>440.6666666666667</ele><time>2026-04-03T15:10:38.09Z</time></trkpt><trkpt lat="45.754051363193845" lon="8.258913645589868"><ele>442.0</ele><time>2026-04-03T15:10:39.09Z</time></trkpt><trkpt lat="45.7538394000232" lon="8.258923991506428"><ele>442.0</ele><time>2026-04-03T15:10:40.09Z</time></trkpt><trkpt lat="45.75362998110746" lon="8.258934213266723"><ele>442.0</ele><time>2026-04-03T15:10:41.09Z</time></trkpt><trkpt lat="45.75342342338716" lon="8.25894429535372"><ele>442.0</ele><time>2026-04-03T15:10:42.09Z</time></trkpt><trkpt lat="45.75322218557675" lon="8.258954117800373"><ele>422.33333333333337</ele><time>2026-04-03T15:10:43.09Z</time></trkpt><trkpt lat="45.753024095744905" lon="8.258963914623234"><ele>402.6666666666667</ele><time>2026-04-03T15:10:44.09Z</time></trkpt><trkpt lat="45.75282597126589" lon="8.258974892894171"><ele>383.0</ele><time>2026-04-03T15:10:45.09Z</time></trkpt><trkpt lat="45.75262542617119" lon="8.258986005294831"><ele>382.6666666666667</ele><time>2026-04-03T15:10:46.09Z</time></trkpt><trkpt lat="45.75242686654431" lon="8.258997007685068"><ele>382.3333333333333</ele><time>2026-04-03T15:10:47.09Z</time></trkpt><trkpt lat="45.752225244675586" lon="8.259009150192753"><ele>382.0</ele><time>2026-04-03T15:10:48.092Z</time></trkpt><trkpt lat="45.75202274370858" lon="8.259025196038356"><ele>381.0</ele><time>2026-04-03T15:10:49.091Z</time></trkpt><trkpt lat="45.75182212228465" lon="8.25905072598611"><ele>380.0</ele><time>2026-04-03T15:10:50.091Z</time></trkpt><trkpt lat="45.751627586900284" lon="8.259097399119323"><ele>379.0</ele><time>2026-04-03T15:10:51.091Z</time></trkpt><trkpt lat="45.751443345943805" lon="8.259150188394191"><ele>379.0</ele><time>2026-04-03T15:10:52.092Z</time></trkpt><trkpt lat="45.75126308858864" lon="8.259205615896352"><ele>379.0</ele><time>2026-04-03T15:10:53.092Z</time></trkpt><trkpt lat="45.75108679161273" lon="8.259259551908546"><ele>379.0</ele><time>2026-04-03T15:10:54.091Z</time></trkpt><trkpt lat="45.75091456757806" lon="8.259312241747892"><ele>384.0</ele><time>2026-04-03T15:10:55.092Z</time></trkpt><trkpt lat="45.750736702338486" lon="8.259366657441177"><ele>389.0</ele><time>2026-04-03T15:10:56.092Z</time></trkpt><trkpt lat="45.750551412165464" lon="8.259426277568345"><ele>394.0</ele><time>2026-04-03T15:10:57.092Z</time></trkpt><trkpt lat="45.75036814943533" lon="8.25950020613857"><ele>399.0</ele><time>2026-04-03T15:10:58.091Z</time></trkpt><trkpt lat="45.750190806050036" lon="8.259588266175903"><ele>404.0</ele><time>2026-04-03T15:10:59.092Z</time></trkpt><trkpt lat="45.750019613357416" lon="8.259681088725495"><ele>409.0</ele><time>2026-04-03T15:11:00.092Z</time></trkpt><trkpt lat="45.749861176107565" lon="8.259763750786153"><ele>399.6666666666667</ele><time>2026-04-03T15:11:01.093Z</time></trkpt><trkpt lat="45.749701839604754" lon="8.259833104736565"><ele>390.33333333333337</ele><time>2026-04-03T15:11:02.093Z</time></trkpt><trkpt lat="45.749534182965036" lon="8.259878501568982"><ele>381.0</ele><time>2026-04-03T15:11:03.093Z</time></trkpt><trkpt lat="45.74936461648103" lon="8.25990860911236"><ele>381.0</ele><time>2026-04-03T15:11:04.093Z</time></trkpt><trkpt lat="45.74919199441138" lon="8.25993520948748"><ele>381.0</ele><time>2026-04-03T15:11:05.093Z</time></trkpt><trkpt lat="45.74901987128203" lon="8.259961733009279"><ele>381.0</ele><time>2026-04-03T15:11:06.093Z</time></trkpt><trkpt lat="45.748846230284165" lon="8.259990533729933"><ele>381.0</ele><time>2026-04-03T15:11:07.093Z</time></trkpt><trkpt lat="45.74867438915733" lon="8.260019984698063"><ele>381.0</ele><time>2026-04-03T15:11:08.093Z</time></trkpt><trkpt lat="45.74851025160925" lon="8.260049645693663"><ele>381.0</ele><time>2026-04-03T15:11:09.093Z</time></trkpt><trkpt lat="45.74834932176588" lon="8.260079189078827"><ele>380.3333333333333</ele><time>2026-04-03T15:11:10.093Z</time></trkpt><trkpt lat="45.748189669595476" lon="8.260108497834752"><ele>379.66666666666663</ele><time>2026-04-03T15:11:11.093Z</time></trkpt><trkpt lat="45.748028864878236" lon="8.260138018212595"><ele>379.0</ele><time>2026-04-03T15:11:12.093Z</time></trkpt><trkpt lat="45.747875127391815" lon="8.260166241167898"><ele>379.0</ele><time>2026-04-03T15:11:13.093Z</time></trkpt><trkpt lat="45.747731177018835" lon="8.260192667430678"><ele>379.0</ele><time>2026-04-03T15:11:14.093Z</time></trkpt><trkpt lat="45.74759181705735" lon="8.2602179402244"><ele>379.0</ele><time>2026-04-03T15:11:15.093Z</time></trkpt><trkpt lat="45.74744901784497" lon="8.260243682450243"><ele>379.0</ele><time>2026-04-03T15:11:16.093Z</time></trkpt><trkpt lat="45.74730148457862" lon="8.26026752612759"><ele>379.0</ele><time>2026-04-03T15:11:17.093Z</time></trkpt><trkpt lat="45.747149819965024" lon="8.26028467871594"><ele>379.0</ele><time>2026-04-03T15:11:18.093Z</time></trkpt><trkpt lat="45.74699568892885" lon="8.260312418807338"><ele>379.0</ele><time>2026-04-03T15:11:19.093Z</time></trkpt><trkpt lat="45.74684296679913" lon="8.260303348382292"><ele>377.3333333333333</ele><time>2026-04-03T15:11:20.093Z</time></trkpt><trkpt lat="45.746691720547624" lon="8.260287066229171"><ele>375.6666666666667</ele><time>2026-04-03T15:11:21.093Z</time></trkpt><trkpt lat="45.746537660207515" lon="8.260262600860846"><ele>374.0</ele><time>2026-04-03T15:11:22.093Z</time></trkpt><trkpt lat="45.746385051773416" lon="8.260223014110357"><ele>374.0</ele><time>2026-04-03T15:11:23.093Z</time></trkpt><trkpt lat="45.74623172961264" lon="8.26017446919056"><ele>374.0</ele><time>2026-04-03T15:11:24.093Z</time></trkpt><trkpt lat="45.746076308898196" lon="8.260129674360028"><ele>374.0</ele><time>2026-04-03T15:11:25.093Z</time></trkpt><trkpt lat="45.74591909704256" lon="8.260086431154502"><ele>374.33333333333337</ele><time>2026-04-03T15:11:26.093Z</time></trkpt><trkpt lat="45.74576583399069" lon="8.260047209355122"><ele>374.6666666666667</ele><time>2026-04-03T15:11:27.093Z</time></trkpt><trkpt lat="45.7456144675682" lon="8.260009431997801"><ele>375.0</ele><time>2026-04-03T15:11:28.093Z</time></trkpt><trkpt lat="45.74547141970411" lon="8.259970319084765"><ele>375.0</ele><time>2026-04-03T15:11:29.093Z</time></trkpt><trkpt lat="45.745336887815085" lon="8.259933838198247"><ele>375.0</ele><time>2026-04-03T15:11:30.093Z</time></trkpt><trkpt lat="45.74520245966221" lon="8.259896004847256"><ele>375.0</ele><time>2026-04-03T15:11:31.093Z</time></trkpt><trkpt lat="45.745071089794" lon="8.259858227617421"><ele>375.0</ele><time>2026-04-03T15:11:32.093Z</time></trkpt><trkpt lat="45.744942091657244" lon="8.259819961144643"><ele>375.25</ele><time>2026-04-03T15:11:33.093Z</time></trkpt><trkpt lat="45.74481063463432" lon="8.259783586481934"><ele>375.5</ele><time>2026-04-03T15:11:34.093Z</time></trkpt><trkpt lat="45.74467596088867" lon="8.259744264439655"><ele>375.75</ele><time>2026-04-03T15:11:35.093Z</time></trkpt><trkpt lat="45.74453799471061" lon="8.259704427178669"><ele>376.0</ele><time>2026-04-03T15:11:36.093Z</time></trkpt><trkpt lat="45.74439575250718" lon="8.259667075241676"><ele>376.0</ele><time>2026-04-03T15:11:37.093Z</time></trkpt><trkpt lat="45.74425004197126" lon="8.25962860088965"><ele>376.0</ele><time>2026-04-03T15:11:38.093Z</time></trkpt><trkpt lat="45.74409817265937" lon="8.259586762093399"><ele>376.0</ele><time>2026-04-03T15:11:39.093Z</time></trkpt><trkpt lat="45.74394315839206" lon="8.259547042876813"><ele>376.0</ele><time>2026-04-03T15:11:40.093Z</time></trkpt><trkpt lat="45.743787373440135" lon="8.259505389018527"><ele>376.0</ele><time>2026-04-03T15:11:41.093Z</time></trkpt><trkpt lat="45.743631439643345" lon="8.259463242750499"><ele>376.0</ele><time>2026-04-03T15:11:42.093Z</time></trkpt><trkpt lat="45.7434750156253" lon="8.259422711580413"><ele>375.66666666666663</ele><time>2026-04-03T15:11:43.094Z</time></trkpt><trkpt lat="45.743316671799604" lon="8.25938333314868"><ele>375.3333333333333</ele><time>2026-04-03T15:11:44.094Z</time></trkpt><trkpt lat="45.74315396209038" lon="8.259345918340351"><ele>375.0</ele><time>2026-04-03T15:11:45.094Z</time></trkpt><trkpt lat="45.74298583721303" lon="8.259310853608534"><ele>375.0</ele><time>2026-04-03T15:11:46.094Z</time></trkpt><trkpt lat="45.74281300318268" lon="8.259278234221506"><ele>375.0</ele><time>2026-04-03T15:11:47.094Z</time></trkpt><trkpt lat="45.74264112715701" lon="8.259242408611783"><ele>375.0</ele><time>2026-04-03T15:11:48.094Z</time></trkpt><trkpt lat="45.74246174046037" lon="8.2592375905456"><ele>374.3333333333333</ele><time>2026-04-03T15:11:49.094Z</time></trkpt><trkpt lat="45.74228037908878" lon="8.259242801350865"><ele>373.66666666666663</ele><time>2026-04-03T15:11:50.094Z</time></trkpt><trkpt lat="45.742101536691244" lon="8.259259287867144"><ele>373.0</ele><time>2026-04-03T15:11:51.094Z</time></trkpt><trkpt lat="45.741926844831085" lon="8.25928452804362"><ele>372.66666666666663</ele><time>2026-04-03T15:11:52.094Z</time></trkpt><trkpt lat="45.741757910002" lon="8.259318972267502"><ele>372.3333333333333</ele><time>2026-04-03T15:11:53.094Z</time></trkpt><trkpt lat="45.741596747654896" lon="8.259359184512736"><ele>372.0</ele><time>2026-04-03T15:11:54.094Z</time></trkpt><trkpt lat="45.74144426844623" lon="8.259400327373912"><ele>372.0</ele><time>2026-04-03T15:11:55.094Z</time></trkpt><trkpt lat="45.74130157475866" lon="8.259438584326979"><ele>372.0</ele><time>2026-04-03T15:11:56.094Z</time></trkpt><trkpt lat="45.74116435937061" lon="8.25947513070915"><ele>372.0</ele><time>2026-04-03T15:11:57.094Z</time></trkpt><trkpt lat="45.7410315036057" lon="8.25951195402563"><ele>372.0</ele><time>2026-04-03T15:11:58.094Z</time></trkpt><trkpt lat="45.740905426866874" lon="8.259549001800213"><ele>372.8</ele><time>2026-04-03T15:11:59.094Z</time></trkpt><trkpt lat="45.740790434278075" lon="8.259581429811867"><ele>373.6</ele><time>2026-04-03T15:12:00.094Z</time></trkpt><trkpt lat="45.74069437378705" lon="8.259606823326603"><ele>374.40000000000003</ele><time>2026-04-03T15:12:01.094Z</time></trkpt><trkpt lat="45.74060492074157" lon="8.259629083393579"><ele>375.20000000000005</ele><time>2026-04-03T15:12:02.094Z</time></trkpt><trkpt lat="45.74053147937003" lon="8.259648166870576"><ele>376.0</ele><time>2026-04-03T15:12:03.094Z</time></trkpt><trkpt lat="45.740411442679076" lon="8.25965516174735"><ele>376.0</ele><time>2026-04-03T15:12:05.094Z</time></trkpt><trkpt lat="45.74028891613017" lon="8.259601364790264"><ele>376.0</ele><time>2026-04-03T15:12:07.094Z</time></trkpt><trkpt lat="45.74022133235828" lon="8.259625451604936"><ele>376.0</ele><time>2026-04-03T15:12:08.094Z</time></trkpt><trkpt lat="45.740158459887844" lon="8.25969431190071"><ele>376.0</ele><time>2026-04-03T15:12:09.094Z</time></trkpt><trkpt lat="45.740097758002335" lon="8.259785241871878"><ele>376.0</ele><time>2026-04-03T15:12:10.094Z</time></trkpt><trkpt lat="45.73997814739745" lon="8.259807875467306"><ele>374.25</ele><time>2026-04-03T15:12:11.094Z</time></trkpt><trkpt lat="45.73986557129115" lon="8.259824529387988"><ele>372.5</ele><time>2026-04-03T15:12:12.094Z</time></trkpt><trkpt lat="45.73975260765067" lon="8.259822634155203"><ele>370.75</ele><time>2026-04-03T15:12:13.094Z</time></trkpt><trkpt lat="45.73964190025126" lon="8.25982243037416"><ele>369.0</ele><time>2026-04-03T15:12:14.094Z</time></trkpt><trkpt lat="45.73951840513326" lon="8.259816846920492"><ele>369.0</ele><time>2026-04-03T15:12:15.094Z</time></trkpt><trkpt lat="45.73939501463683" lon="8.259813137719854"><ele>369.0</ele><time>2026-04-03T15:12:16.094Z</time></trkpt><trkpt lat="45.73927523639412" lon="8.259805181385964"><ele>369.0</ele><time>2026-04-03T15:12:17.094Z</time></trkpt><trkpt lat="45.73915813916613" lon="8.259787805096861"><ele>369.0</ele><time>2026-04-03T15:12:18.094Z</time></trkpt><trkpt lat="45.73904006830982" lon="8.259757964833854"><ele>371.0</ele><time>2026-04-03T15:12:19.094Z</time></trkpt><trkpt lat="45.7389201696313" lon="8.25971980135835"><ele>373.0</ele><time>2026-04-03T15:12:20.094Z</time></trkpt><trkpt lat="45.73879786498105" lon="8.259674568699278"><ele>375.0</ele><time>2026-04-03T15:12:21.094Z</time></trkpt><trkpt lat="45.738676939482275" lon="8.259623298822882"><ele>377.0</ele><time>2026-04-03T15:12:22.094Z</time></trkpt><trkpt lat="45.73854793909839" lon="8.259575016218928"><ele>377.0</ele><time>2026-04-03T15:12:23.094Z</time></trkpt><trkpt lat="45.73841132272646" lon="8.259523610537425"><ele>377.0</ele><time>2026-04-03T15:12:24.094Z</time></trkpt><trkpt lat="45.73826903282369" lon="8.259469652995595"><ele>377.0</ele><time>2026-04-03T15:12:25.094Z</time></trkpt><trkpt lat="45.73813286045811" lon="8.259426756980535"><ele>377.0</ele><time>2026-04-03T15:12:26.095Z</time></trkpt><trkpt lat="45.73800206650185" lon="8.259390646170283"><ele>377.0</ele><time>2026-04-03T15:12:27.095Z</time></trkpt><trkpt lat="45.73787695861447" lon="8.259349568583463"><ele>377.0</ele><time>2026-04-03T15:12:28.095Z</time></trkpt><trkpt lat="45.73774965262948" lon="8.259335762370583"><ele>377.0</ele><time>2026-04-03T15:12:29.095Z</time></trkpt><trkpt lat="45.73762514640385" lon="8.259328663153472"><ele>377.0</ele><time>2026-04-03T15:12:30.095Z</time></trkpt><trkpt lat="45.73749757749979" lon="8.259323062231873"><ele>378.0</ele><time>2026-04-03T15:12:31.095Z</time></trkpt><trkpt lat="45.73736907566024" lon="8.259315717046483"><ele>379.0</ele><time>2026-04-03T15:12:32.095Z</time></trkpt><trkpt lat="45.73725464607437" lon="8.259293206027019"><ele>380.0</ele><time>2026-04-03T15:12:33.095Z</time></trkpt><trkpt lat="45.7371472735003" lon="8.259316817315078"><ele>381.0</ele><time>2026-04-03T15:12:34.095Z</time></trkpt><trkpt lat="45.737049402036526" lon="8.259340687610367"><ele>381.0</ele><time>2026-04-03T15:12:35.095Z</time></trkpt><trkpt lat="45.73695660539079" lon="8.259356591478252"><ele>381.0</ele><time>2026-04-03T15:12:36.095Z</time></trkpt><trkpt lat="45.736861598562335" lon="8.259350421100578"><ele>381.0</ele><time>2026-04-03T15:12:37.095Z</time></trkpt><trkpt lat="45.736756353320246" lon="8.25934316374394"><ele>381.0</ele><time>2026-04-03T15:12:38.095Z</time></trkpt><trkpt lat="45.736644040938174" lon="8.259364582056888"><ele>381.0</ele><time>2026-04-03T15:12:39.095Z</time></trkpt><trkpt lat="45.73652363554372" lon="8.259390649070399"><ele>382.25</ele><time>2026-04-03T15:12:40.095Z</time></trkpt><trkpt lat="45.73639503748624" lon="8.259390372688266"><ele>383.5</ele><time>2026-04-03T15:12:41.095Z</time></trkpt><trkpt lat="45.73624973768901" lon="8.259384852781794"><ele>384.75</ele><time>2026-04-03T15:12:42.095Z</time></trkpt><trkpt lat="45.73609271443692" lon="8.259402345723828"><ele>386.0</ele><time>2026-04-03T15:12:43.095Z</time></trkpt><trkpt lat="45.73592793151582" lon="8.25943281888175"><ele>388.66666666666663</ele><time>2026-04-03T15:12:44.095Z</time></trkpt><trkpt lat="45.735768462193136" lon="8.259456085775792"><ele>391.33333333333337</ele><time>2026-04-03T15:12:45.095Z</time></trkpt><trkpt lat="45.73560931904575" lon="8.259482792775275"><ele>394.0</ele><time>2026-04-03T15:12:46.095Z</time></trkpt><trkpt lat="45.73544572539029" lon="8.259508196948213"><ele>394.0</ele><time>2026-04-03T15:12:47.095Z</time></trkpt><trkpt lat="45.73527803716813" lon="8.259539697140086"><ele>394.0</ele><time>2026-04-03T15:12:48.095Z</time></trkpt><trkpt lat="45.7351031756722" lon="8.259571853572986"><ele>394.0</ele><time>2026-04-03T15:12:49.095Z</time></trkpt><trkpt lat="45.734921160285154" lon="8.259603041162881"><ele>394.0</ele><time>2026-04-03T15:12:50.095Z</time></trkpt><trkpt lat="45.734733320628756" lon="8.259638965196821"><ele>394.0</ele><time>2026-04-03T15:12:51.095Z</time></trkpt><trkpt lat="45.734542264096284" lon="8.259666446556082"><ele>394.0</ele><time>2026-04-03T15:12:52.095Z</time></trkpt><trkpt lat="45.7343469939951" lon="8.259702131624792"><ele>393.33333333333337</ele><time>2026-04-03T15:12:53.096Z</time></trkpt><trkpt lat="45.73414894880959" lon="8.259732739295563"><ele>392.66666666666663</ele><time>2026-04-03T15:12:54.096Z</time></trkpt><trkpt lat="45.73394593363361" lon="8.259763003437154"><ele>392.0</ele><time>2026-04-03T15:12:55.096Z</time></trkpt><trkpt lat="45.733744382140145" lon="8.259795150309342"><ele>384.0</ele><time>2026-04-03T15:12:56.096Z</time></trkpt><trkpt lat="45.73355145024311" lon="8.2598168886991"><ele>376.0</ele><time>2026-04-03T15:12:57.096Z</time></trkpt><trkpt lat="45.73336182165039" lon="8.259850613019417"><ele>368.0</ele><time>2026-04-03T15:12:58.096Z</time></trkpt><trkpt lat="45.73317281101241" lon="8.259879675211673"><ele>368.0</ele><time>2026-04-03T15:12:59.096Z</time></trkpt><trkpt lat="45.732972072211865" lon="8.259913688683598"><ele>368.0</ele><time>2026-04-03T15:13:00.096Z</time></trkpt><trkpt lat="45.732767286155145" lon="8.259945902773751"><ele>368.0</ele><time>2026-04-03T15:13:01.096Z</time></trkpt><trkpt lat="45.73255920254835" lon="8.259984030151987"><ele>370.0</ele><time>2026-04-03T15:13:02.097Z</time></trkpt><trkpt lat="45.732349179803755" lon="8.260021586648477"><ele>372.0</ele><time>2026-04-03T15:13:03.097Z</time></trkpt><trkpt lat="45.73213663023052" lon="8.26005882999576"><ele>374.0</ele><time>2026-04-03T15:13:04.097Z</time></trkpt><trkpt lat="45.73192198207319" lon="8.260095385968981"><ele>376.0</ele><time>2026-04-03T15:13:05.097Z</time></trkpt><trkpt lat="45.73170804643678" lon="8.260136256299047"><ele>378.0</ele><time>2026-04-03T15:13:06.096Z</time></trkpt><trkpt lat="45.731501378382795" lon="8.260182443058282"><ele>380.0</ele><time>2026-04-03T15:13:07.096Z</time></trkpt><trkpt lat="45.73129587680754" lon="8.26023271374093"><ele>380.0</ele><time>2026-04-03T15:13:08.096Z</time></trkpt><trkpt lat="45.73109440411619" lon="8.260282383065265"><ele>380.0</ele><time>2026-04-03T15:13:09.096Z</time></trkpt><trkpt lat="45.73089475952521" lon="8.260339088680633"><ele>380.0</ele><time>2026-04-03T15:13:10.096Z</time></trkpt><trkpt lat="45.730699874308954" lon="8.260397798320659"><ele>379.6666666666667</ele><time>2026-04-03T15:13:11.096Z</time></trkpt><trkpt lat="45.73050879584438" lon="8.260458901413148"><ele>379.3333333333333</ele><time>2026-04-03T15:13:12.096Z</time></trkpt><trkpt lat="45.73031947243936" lon="8.260524397599463"><ele>379.0</ele><time>2026-04-03T15:13:13.096Z</time></trkpt><trkpt lat="45.73012756542708" lon="8.260591153670287"><ele>375.0</ele><time>2026-04-03T15:13:14.096Z</time></trkpt><trkpt lat="45.72993612916428" lon="8.260662849616311"><ele>371.0</ele><time>2026-04-03T15:13:15.096Z</time></trkpt><trkpt lat="45.72974472019997" lon="8.260732173941271"><ele>367.0</ele><time>2026-04-03T15:13:16.096Z</time></trkpt><trkpt lat="45.72955217175979" lon="8.260797130055158"><ele>367.3333333333333</ele><time>2026-04-03T15:13:17.096Z</time></trkpt><trkpt lat="45.72935888038559" lon="8.260841644842145"><ele>367.6666666666667</ele><time>2026-04-03T15:13:18.096Z</time></trkpt><trkpt lat="45.72917255994355" lon="8.260903844636955"><ele>368.0</ele><time>2026-04-03T15:13:19.096Z</time></trkpt><trkpt lat="45.72899464563827" lon="8.26098610134809"><ele>368.0</ele><time>2026-04-03T15:13:20.096Z</time></trkpt><trkpt lat="45.72881243145918" lon="8.261024692217498"><ele>368.0</ele><time>2026-04-03T15:13:21.096Z</time></trkpt><trkpt lat="45.7286381279701" lon="8.261083871472557"><ele>368.0</ele><time>2026-04-03T15:13:22.096Z</time></trkpt><trkpt lat="45.728462841290465" lon="8.261143384629928"><ele>369.33333333333337</ele><time>2026-04-03T15:13:23.096Z</time></trkpt><trkpt lat="45.72828909854018" lon="8.261203714546188"><ele>370.6666666666667</ele><time>2026-04-03T15:13:24.096Z</time></trkpt><trkpt lat="45.72811170528318" lon="8.261265559109065"><ele>372.0</ele><time>2026-04-03T15:13:25.096Z</time></trkpt><trkpt lat="45.727935845743005" lon="8.261324387048411"><ele>372.0</ele><time>2026-04-03T15:13:26.096Z</time></trkpt><trkpt lat="45.727767535230505" lon="8.261404110122738"><ele>372.0</ele><time>2026-04-03T15:13:27.096Z</time></trkpt><trkpt lat="45.72759790912235" lon="8.261460280070413"><ele>372.0</ele><time>2026-04-03T15:13:28.097Z</time></trkpt><trkpt lat="45.72742452275332" lon="8.261517676656265"><ele>368.3333333333333</ele><time>2026-04-03T15:13:29.097Z</time></trkpt><trkpt lat="45.727252615504234" lon="8.261574356475627"><ele>364.66666666666663</ele><time>2026-04-03T15:13:30.097Z</time></trkpt><trkpt lat="45.72708331633841" lon="8.261630051971585"><ele>361.0</ele><time>2026-04-03T15:13:31.097Z</time></trkpt><trkpt lat="45.72691245784099" lon="8.26168827626062"><ele>361.3333333333333</ele><time>2026-04-03T15:13:32.097Z</time></trkpt><trkpt lat="45.72674090370596" lon="8.261745436345599"><ele>361.6666666666667</ele><time>2026-04-03T15:13:33.097Z</time></trkpt><trkpt lat="45.72656977551587" lon="8.261800683480034"><ele>362.0</ele><time>2026-04-03T15:13:34.097Z</time></trkpt><trkpt lat="45.72640027831404" lon="8.261850432028536"><ele>362.0</ele><time>2026-04-03T15:13:35.097Z</time></trkpt><trkpt lat="45.72623448635139" lon="8.26189202041038"><ele>362.0</ele><time>2026-04-03T15:13:36.097Z</time></trkpt><trkpt lat="45.72606246610146" lon="8.261904188853421"><ele>362.0</ele><time>2026-04-03T15:13:37.097Z</time></trkpt><trkpt lat="45.725891642324726" lon="8.261937253111022"><ele>365.6666666666667</ele><time>2026-04-03T15:13:38.097Z</time></trkpt><trkpt lat="45.725719754293145" lon="8.261966643317944"><ele>369.3333333333333</ele><time>2026-04-03T15:13:39.097Z</time></trkpt><trkpt lat="45.7255480738514" lon="8.261990729962672"><ele>373.0</ele><time>2026-04-03T15:13:40.097Z</time></trkpt><trkpt lat="45.72537812085047" lon="8.262009755273258"><ele>374.0</ele><time>2026-04-03T15:13:41.097Z</time></trkpt><trkpt lat="45.725210020820654" lon="8.262026622445548"><ele>375.0</ele><time>2026-04-03T15:13:42.097Z</time></trkpt><trkpt lat="45.72504559604644" lon="8.26203828682735"><ele>376.0</ele><time>2026-04-03T15:13:43.097Z</time></trkpt><trkpt lat="45.72488244341371" lon="8.262045569022597"><ele>376.0</ele><time>2026-04-03T15:13:44.097Z</time></trkpt><trkpt lat="45.72471347239761" lon="8.262071468410536"><ele>376.0</ele><time>2026-04-03T15:13:45.097Z</time></trkpt><trkpt lat="45.724538204149766" lon="8.262073475812914"><ele>376.0</ele><time>2026-04-03T15:13:46.097Z</time></trkpt><trkpt lat="45.72435829184246" lon="8.262079603593614"><ele>376.3333333333333</ele><time>2026-04-03T15:13:47.097Z</time></trkpt><trkpt lat="45.72417483260936" lon="8.262065911232222"><ele>376.6666666666667</ele><time>2026-04-03T15:13:48.097Z</time></trkpt><trkpt lat="45.72398771608312" lon="8.26208324441033"><ele>377.0</ele><time>2026-04-03T15:13:49.097Z</time></trkpt><trkpt lat="45.723804368732736" lon="8.262106293186493"><ele>377.0</ele><time>2026-04-03T15:13:50.097Z</time></trkpt><trkpt lat="45.72362428346929" lon="8.262134988449125"><ele>377.0</ele><time>2026-04-03T15:13:51.097Z</time></trkpt><trkpt lat="45.72344513533812" lon="8.262168315518798"><ele>377.0</ele><time>2026-04-03T15:13:52.097Z</time></trkpt><trkpt lat="45.72326727359444" lon="8.262203210065573"><ele>378.6666666666667</ele><time>2026-04-03T15:13:53.097Z</time></trkpt><trkpt lat="45.72308909236375" lon="8.262238955446463"><ele>380.3333333333333</ele><time>2026-04-03T15:13:54.097Z</time></trkpt><trkpt lat="45.722910717812425" lon="8.262276997957073"><ele>382.0</ele><time>2026-04-03T15:13:55.097Z</time></trkpt><trkpt lat="45.72273260691452" lon="8.26231483097881"><ele>375.3333333333333</ele><time>2026-04-03T15:13:56.097Z</time></trkpt><trkpt lat="45.722550843421295" lon="8.2623538099009"><ele>368.6666666666667</ele><time>2026-04-03T15:13:57.097Z</time></trkpt><trkpt lat="45.72236714140336" lon="8.262393801226544"><ele>362.0</ele><time>2026-04-03T15:13:58.097Z</time></trkpt><trkpt lat="45.722180964831466" lon="8.262436816387854"><ele>362.0</ele><time>2026-04-03T15:13:59.097Z</time></trkpt><trkpt lat="45.72198869758926" lon="8.26248128083624"><ele>362.0</ele><time>2026-04-03T15:14:00.097Z</time></trkpt><trkpt lat="45.72179171869199" lon="8.262526834908337"><ele>362.0</ele><time>2026-04-03T15:14:01.097Z</time></trkpt><trkpt lat="45.72159125526375" lon="8.262573194827803"><ele>364.6666666666667</ele><time>2026-04-03T15:14:02.097Z</time></trkpt><trkpt lat="45.72138476720852" lon="8.262623902184371"><ele>367.3333333333333</ele><time>2026-04-03T15:14:03.097Z</time></trkpt><trkpt lat="45.7211797680512" lon="8.262675691181109"><ele>370.0</ele><time>2026-04-03T15:14:04.097Z</time></trkpt><trkpt lat="45.720975500223254" lon="8.262726106735494"><ele>372.3333333333333</ele><time>2026-04-03T15:14:05.097Z</time></trkpt><trkpt lat="45.720772352916214" lon="8.262776031735958"><ele>374.6666666666667</ele><time>2026-04-03T15:14:06.097Z</time></trkpt><trkpt lat="45.72057031922519" lon="8.262849226113673"><ele>377.0</ele><time>2026-04-03T15:14:07.097Z</time></trkpt><trkpt lat="45.720364815929344" lon="8.262890566035448"><ele>378.6666666666667</ele><time>2026-04-03T15:14:08.097Z</time></trkpt><trkpt lat="45.720162700583025" lon="8.262932278282854"><ele>380.3333333333333</ele><time>2026-04-03T15:14:09.097Z</time></trkpt><trkpt lat="45.719963222388714" lon="8.262976355319212"><ele>382.0</ele><time>2026-04-03T15:14:10.097Z</time></trkpt><trkpt lat="45.71976465528801" lon="8.26302736134259"><ele>382.0</ele><time>2026-04-03T15:14:11.098Z</time></trkpt><trkpt lat="45.71956747648727" lon="8.26307088866342"><ele>382.0</ele><time>2026-04-03T15:14:12.098Z</time></trkpt><trkpt lat="45.71937173252416" lon="8.263104379566908"><ele>382.0</ele><time>2026-04-03T15:14:13.098Z</time></trkpt><trkpt lat="45.71917630261397" lon="8.263132442458344"><ele>376.0</ele><time>2026-04-03T15:14:14.098Z</time></trkpt><trkpt lat="45.718980511475635" lon="8.263152915677743"><ele>370.0</ele><time>2026-04-03T15:14:15.098Z</time></trkpt><trkpt lat="45.71878459157126" lon="8.26317415475359"><ele>364.0</ele><time>2026-04-03T15:14:16.098Z</time></trkpt><trkpt lat="45.71858955885289" lon="8.26316805183897"><ele>366.3333333333333</ele><time>2026-04-03T15:14:17.098Z</time></trkpt><trkpt lat="45.718395989042776" lon="8.263183444531943"><ele>368.6666666666667</ele><time>2026-04-03T15:14:18.098Z</time></trkpt><trkpt lat="45.71820338444822" lon="8.263198758390729"><ele>371.0</ele><time>2026-04-03T15:14:19.098Z</time></trkpt><trkpt lat="45.71801339918948" lon="8.263217169854986"><ele>371.0</ele><time>2026-04-03T15:14:20.098Z</time></trkpt><trkpt lat="45.71782667616135" lon="8.263245342070757"><ele>371.0</ele><time>2026-04-03T15:14:21.098Z</time></trkpt><trkpt lat="45.7176394459284" lon="8.263280034700383"><ele>371.0</ele><time>2026-04-03T15:14:22.098Z</time></trkpt><trkpt lat="45.71745960134595" lon="8.263314399979079"><ele>372.0</ele><time>2026-04-03T15:14:23.098Z</time></trkpt><trkpt lat="45.717286036317056" lon="8.263350681790481"><ele>373.0</ele><time>2026-04-03T15:14:24.098Z</time></trkpt><trkpt lat="45.71711531018299" lon="8.263389615573594"><ele>374.0</ele><time>2026-04-03T15:14:25.098Z</time></trkpt><trkpt lat="45.7169446408814" lon="8.263432363852907"><ele>374.0</ele><time>2026-04-03T15:14:26.098Z</time></trkpt><trkpt lat="45.71677521823019" lon="8.263478367589824"><ele>374.0</ele><time>2026-04-03T15:14:27.098Z</time></trkpt><trkpt lat="45.716607475479194" lon="8.263527403472338"><ele>374.0</ele><time>2026-04-03T15:14:28.098Z</time></trkpt><trkpt lat="45.71644484461891" lon="8.26357575346995"><ele>374.0</ele><time>2026-04-03T15:14:29.098Z</time></trkpt><trkpt lat="45.71628908196047" lon="8.26362371033514"><ele>374.0</ele><time>2026-04-03T15:14:30.098Z</time></trkpt><trkpt lat="45.716134726027114" lon="8.263676077406437"><ele>374.0</ele><time>2026-04-03T15:14:31.098Z</time></trkpt><trkpt lat="45.715985453391454" lon="8.263739915668104"><ele>374.75</ele><time>2026-04-03T15:14:32.098Z</time></trkpt><trkpt lat="45.71585471900238" lon="8.263805072997364"><ele>375.5</ele><time>2026-04-03T15:14:33.098Z</time></trkpt><trkpt lat="45.715736939786694" lon="8.263870129955297"><ele>376.25</ele><time>2026-04-03T15:14:34.098Z</time></trkpt><trkpt lat="45.7156312732914" lon="8.263933201536068"><ele>377.0</ele><time>2026-04-03T15:14:35.098Z</time></trkpt><trkpt lat="45.71553492399671" lon="8.263991734796289"><ele>375.1666666666667</ele><time>2026-04-03T15:14:36.098Z</time></trkpt><trkpt lat="45.71545012965732" lon="8.26404324828644"><ele>373.33333333333337</ele><time>2026-04-03T15:14:37.098Z</time></trkpt><trkpt lat="45.71536958226751" lon="8.264089313715255"><ele>371.5</ele><time>2026-04-03T15:14:38.098Z</time></trkpt><trkpt lat="45.71529922098612" lon="8.264139290167545"><ele>369.6666666666667</ele><time>2026-04-03T15:14:39.098Z</time></trkpt><trkpt lat="45.715222559738784" lon="8.264137589707582"><ele>367.8333333333333</ele><time>2026-04-03T15:14:40.098Z</time></trkpt><trkpt lat="45.715147641225904" lon="8.26411383178047"><ele>366.0</ele><time>2026-04-03T15:14:41.098Z</time></trkpt><trkpt lat="45.71508410139567" lon="8.264067844595289"><ele>366.0</ele><time>2026-04-03T15:14:42.098Z</time></trkpt><trkpt lat="45.71495078509356" lon="8.264175115380745"><ele>366.0</ele><time>2026-04-03T15:14:44.098Z</time></trkpt><trkpt lat="45.714926102197104" lon="8.264282174485214"><ele>366.0</ele><time>2026-04-03T15:14:45.098Z</time></trkpt><trkpt lat="45.71486026584289" lon="8.264374829583456"><ele>366.0</ele><time>2026-04-03T15:14:46.098Z</time></trkpt><trkpt lat="45.71476246438406" lon="8.264457418763994"><ele>366.0</ele><time>2026-04-03T15:14:47.098Z</time></trkpt><trkpt lat="45.71465373424871" lon="8.264512598917364"><ele>366.0</ele><time>2026-04-03T15:14:48.098Z</time></trkpt><trkpt lat="45.7145298028696" lon="8.26453199201163"><ele>366.0</ele><time>2026-04-03T15:14:49.098Z</time></trkpt><trkpt lat="45.714397451471" lon="8.264578652101223"><ele>366.0</ele><time>2026-04-03T15:14:50.098Z</time></trkpt><trkpt lat="45.714253159868576" lon="8.264618852983002"><ele>366.0</ele><time>2026-04-03T15:14:51.098Z</time></trkpt><trkpt lat="45.71411755675794" lon="8.264657298213612"><ele>367.3333333333333</ele><time>2026-04-03T15:14:52.098Z</time></trkpt><trkpt lat="45.71397950754501" lon="8.264706440725066"><ele>368.66666666666663</ele><time>2026-04-03T15:14:53.098Z</time></trkpt><trkpt lat="45.71383202389294" lon="8.264747298383986"><ele>370.0</ele><time>2026-04-03T15:14:54.099Z</time></trkpt><trkpt lat="45.713679929972834" lon="8.264825162865609"><ele>367.0</ele><time>2026-04-03T15:14:55.099Z</time></trkpt><trkpt lat="45.71352333656357" lon="8.264920088140636"><ele>364.0</ele><time>2026-04-03T15:14:56.099Z</time></trkpt><trkpt lat="45.71336624045308" lon="8.265025439343583"><ele>361.0</ele><time>2026-04-03T15:14:57.099Z</time></trkpt><trkpt lat="45.713203180355514" lon="8.265147506576954"><ele>361.0</ele><time>2026-04-03T15:14:58.099Z</time></trkpt><trkpt lat="45.71303572475588" lon="8.265289189774501"><ele>361.0</ele><time>2026-04-03T15:14:59.101Z</time></trkpt><trkpt lat="45.71287922119288" lon="8.265438696974966"><ele>361.0</ele><time>2026-04-03T15:15:00.101Z</time></trkpt><trkpt lat="45.7127338521321" lon="8.26559594361506"><ele>359.66666666666663</ele><time>2026-04-03T15:15:01.101Z</time></trkpt><trkpt lat="45.712584321748196" lon="8.265761211112942"><ele>358.3333333333333</ele><time>2026-04-03T15:15:02.101Z</time></trkpt><trkpt lat="45.71244000388759" lon="8.265940276421501"><ele>357.0</ele><time>2026-04-03T15:15:03.101Z</time></trkpt><trkpt lat="45.71230520399808" lon="8.266131541017117"><ele>357.0</ele><time>2026-04-03T15:15:04.101Z</time></trkpt><trkpt lat="45.71217706311336" lon="8.266333116461736"><ele>357.0</ele><time>2026-04-03T15:15:05.101Z</time></trkpt><trkpt lat="45.7120520634194" lon="8.266547998419567"><ele>357.0</ele><time>2026-04-03T15:15:06.102Z</time></trkpt><trkpt lat="45.7119366244859" lon="8.266766608260083"><ele>356.6666666666667</ele><time>2026-04-03T15:15:07.102Z</time></trkpt><trkpt lat="45.71182977749358" lon="8.266993758124185"><ele>356.33333333333337</ele><time>2026-04-03T15:15:08.101Z</time></trkpt><trkpt lat="45.71173249967084" lon="8.267230507268742"><ele>356.0</ele><time>2026-04-03T15:15:09.101Z</time></trkpt><trkpt lat="45.71164187032129" lon="8.267472067562048"><ele>356.0</ele><time>2026-04-03T15:15:10.101Z</time></trkpt><trkpt lat="45.71155095090335" lon="8.267713237697208"><ele>356.0</ele><time>2026-04-03T15:15:11.101Z</time></trkpt><trkpt lat="45.71146419316401" lon="8.267953521884554"><ele>356.0</ele><time>2026-04-03T15:15:12.102Z</time></trkpt><trkpt lat="45.711380799175714" lon="8.268193872884943"><ele>353.6666666666667</ele><time>2026-04-03T15:15:13.102Z</time></trkpt><trkpt lat="45.711295405351144" lon="8.268434957290566"><ele>351.3333333333333</ele><time>2026-04-03T15:15:14.102Z</time></trkpt><trkpt lat="45.71120981222685" lon="8.268674756499212"><ele>349.0</ele><time>2026-04-03T15:15:15.102Z</time></trkpt><trkpt lat="45.71112441243207" lon="8.268918493327645"><ele>358.3333333333333</ele><time>2026-04-03T15:15:16.102Z</time></trkpt><trkpt lat="45.71103645993422" lon="8.26916578944138"><ele>367.6666666666667</ele><time>2026-04-03T15:15:17.102Z</time></trkpt><trkpt lat="45.710950113867106" lon="8.2694057482204"><ele>377.0</ele><time>2026-04-03T15:15:18.102Z</time></trkpt><trkpt lat="45.71086762355997" lon="8.269642823848127"><ele>372.0</ele><time>2026-04-03T15:15:19.102Z</time></trkpt><trkpt lat="45.71078178014528" lon="8.269887112936411"><ele>367.0</ele><time>2026-04-03T15:15:20.102Z</time></trkpt><trkpt lat="45.71069238032572" lon="8.27014097345888"><ele>362.0</ele><time>2026-04-03T15:15:21.102Z</time></trkpt><trkpt lat="45.71060386476315" lon="8.270400923438785"><ele>359.33333333333337</ele><time>2026-04-03T15:15:22.102Z</time></trkpt><trkpt lat="45.71051296888986" lon="8.270664633140049"><ele>356.6666666666667</ele><time>2026-04-03T15:15:23.102Z</time></trkpt><trkpt lat="45.7104210867318" lon="8.270928998145145"><ele>354.0</ele><time>2026-04-03T15:15:24.102Z</time></trkpt><trkpt lat="45.71032548054196" lon="8.271200125821595"><ele>357.3333333333333</ele><time>2026-04-03T15:15:25.102Z</time></trkpt><trkpt lat="45.71023110141031" lon="8.271470359840224"><ele>360.66666666666663</ele><time>2026-04-03T15:15:26.102Z</time></trkpt><trkpt lat="45.71013570270934" lon="8.271739987659625"><ele>364.0</ele><time>2026-04-03T15:15:27.102Z</time></trkpt><trkpt lat="45.710040735059565" lon="8.272010565537169"><ele>360.66666666666663</ele><time>2026-04-03T15:15:28.102Z</time></trkpt><trkpt lat="45.70994736573191" lon="8.272276442385678"><ele>357.3333333333333</ele><time>2026-04-03T15:15:29.102Z</time></trkpt><trkpt lat="45.70985869227279" lon="8.272537242249212"><ele>354.0</ele><time>2026-04-03T15:15:30.102Z</time></trkpt><trkpt lat="45.70977259792694" lon="8.272789526185058"><ele>354.0</ele><time>2026-04-03T15:15:31.102Z</time></trkpt><trkpt lat="45.70968673956607" lon="8.273036323042447"><ele>354.0</ele><time>2026-04-03T15:15:32.102Z</time></trkpt><trkpt lat="45.70959912534068" lon="8.273281433245925"><ele>354.0</ele><time>2026-04-03T15:15:33.102Z</time></trkpt><trkpt lat="45.70951065058265" lon="8.273526715230773"><ele>353.6666666666667</ele><time>2026-04-03T15:15:34.102Z</time></trkpt><trkpt lat="45.709426204421334" lon="8.273773265698585"><ele>353.33333333333337</ele><time>2026-04-03T15:15:35.102Z</time></trkpt><trkpt lat="45.70934683860866" lon="8.274015079472397"><ele>353.0</ele><time>2026-04-03T15:15:36.102Z</time></trkpt><trkpt lat="45.709248632428036" lon="8.274242687005163"><ele>356.6666666666667</ele><time>2026-04-03T15:15:37.102Z</time></trkpt><trkpt lat="45.709168692590424" lon="8.274481209393707"><ele>360.3333333333333</ele><time>2026-04-03T15:15:38.102Z</time></trkpt><trkpt lat="45.70909137696048" lon="8.274714344338799"><ele>364.0</ele><time>2026-04-03T15:15:39.102Z</time></trkpt><trkpt lat="45.70901751894819" lon="8.274937053189797"><ele>364.0</ele><time>2026-04-03T15:15:40.102Z</time></trkpt><trkpt lat="45.70896040732209" lon="8.275165756330663"><ele>364.0</ele><time>2026-04-03T15:15:41.102Z</time></trkpt><trkpt lat="45.70888636311366" lon="8.275373597030807"><ele>364.0</ele><time>2026-04-03T15:15:42.102Z</time></trkpt><trkpt lat="45.708813796013914" lon="8.275584133880166"><ele>361.0</ele><time>2026-04-03T15:15:43.102Z</time></trkpt><trkpt lat="45.70874448519271" lon="8.275798420483229"><ele>358.0</ele><time>2026-04-03T15:15:44.102Z</time></trkpt><trkpt lat="45.70867600377658" lon="8.276010064887261"><ele>355.0</ele><time>2026-04-03T15:15:45.102Z</time></trkpt><trkpt lat="45.70860711109047" lon="8.276227411315025"><ele>359.0</ele><time>2026-04-03T15:15:46.102Z</time></trkpt><trkpt lat="45.708534783870974" lon="8.276447632536676"><ele>363.0</ele><time>2026-04-03T15:15:47.102Z</time></trkpt><trkpt lat="45.70846261712215" lon="8.276673994289576"><ele>367.0</ele><time>2026-04-03T15:15:48.102Z</time></trkpt><trkpt lat="45.70838617813917" lon="8.2769005311819"><ele>367.0</ele><time>2026-04-03T15:15:49.102Z</time></trkpt><trkpt lat="45.7083135281387" lon="8.277125048471085"><ele>367.0</ele><time>2026-04-03T15:15:50.102Z</time></trkpt><trkpt lat="45.70824044988909" lon="8.27734092190791"><ele>367.0</ele><time>2026-04-03T15:15:51.103Z</time></trkpt><trkpt lat="45.70817168642855" lon="8.277552544980201"><ele>363.66666666666663</ele><time>2026-04-03T15:15:52.103Z</time></trkpt><trkpt lat="45.708102775473535" lon="8.277760293660183"><ele>360.3333333333333</ele><time>2026-04-03T15:15:53.103Z</time></trkpt><trkpt lat="45.70804050385025" lon="8.277967263492686"><ele>357.0</ele><time>2026-04-03T15:15:54.103Z</time></trkpt><trkpt lat="45.707977185594984" lon="8.278183233122924"><ele>355.0</ele><time>2026-04-03T15:15:55.103Z</time></trkpt><trkpt lat="45.7079153627126" lon="8.278406451380118"><ele>353.0</ele><time>2026-04-03T15:15:56.103Z</time></trkpt><trkpt lat="45.70785909657974" lon="8.27864102776879"><ele>351.0</ele><time>2026-04-03T15:15:57.103Z</time></trkpt><trkpt lat="45.70781320865978" lon="8.278878819426781"><ele>350.3333333333333</ele><time>2026-04-03T15:15:58.103Z</time></trkpt><trkpt lat="45.707775844583324" lon="8.279113701187004"><ele>349.66666666666663</ele><time>2026-04-03T15:15:59.103Z</time></trkpt><trkpt lat="45.70772980555166" lon="8.279334942222016"><ele>349.0</ele><time>2026-04-03T15:16:00.103Z</time></trkpt><trkpt lat="45.707725921542334" lon="8.279554996258055"><ele>355.25</ele><time>2026-04-03T15:16:01.103Z</time></trkpt><trkpt lat="45.70771069782065" lon="8.27976094784487"><ele>361.5</ele><time>2026-04-03T15:16:02.103Z</time></trkpt><trkpt lat="45.70769791301717" lon="8.279952674451598"><ele>367.75</ele><time>2026-04-03T15:16:03.103Z</time></trkpt><trkpt lat="45.707687800348715" lon="8.280136852853248"><ele>374.0</ele><time>2026-04-03T15:16:04.103Z</time></trkpt><trkpt lat="45.70765973826178" lon="8.280301659159107"><ele>374.0</ele><time>2026-04-03T15:16:05.103Z</time></trkpt><trkpt lat="45.707650343517486" lon="8.280462757400853"><ele>374.0</ele><time>2026-04-03T15:16:06.103Z</time></trkpt><trkpt lat="45.70764128029744" lon="8.280622428364994"><ele>374.0</ele><time>2026-04-03T15:16:07.103Z</time></trkpt><trkpt lat="45.70763444531265" lon="8.280797065747935"><ele>374.0</ele><time>2026-04-03T15:16:08.103Z</time></trkpt><trkpt lat="45.70762828920674" lon="8.280982894618187"><ele>374.0</ele><time>2026-04-03T15:16:09.103Z</time></trkpt><trkpt lat="45.7076248212496" lon="8.281168499971605"><ele>374.0</ele><time>2026-04-03T15:16:10.103Z</time></trkpt><trkpt lat="45.70762639729863" lon="8.2813540081382"><ele>374.0</ele><time>2026-04-03T15:16:11.103Z</time></trkpt><trkpt lat="45.70761536844913" lon="8.281533444349426"><ele>374.0</ele><time>2026-04-03T15:16:12.103Z</time></trkpt><trkpt lat="45.70763529480323" lon="8.28171543585892"><ele>374.0</ele><time>2026-04-03T15:16:13.103Z</time></trkpt><trkpt lat="45.70767056566517" lon="8.281891731546684"><ele>374.0</ele><time>2026-04-03T15:16:14.103Z</time></trkpt><trkpt lat="45.70770743112455" lon="8.282057481053537"><ele>374.0</ele><time>2026-04-03T15:16:15.103Z</time></trkpt><trkpt lat="45.70773700764674" lon="8.282213676484886"><ele>374.0</ele><time>2026-04-03T15:16:16.103Z</time></trkpt><trkpt lat="45.707760128458084" lon="8.282367422978096"><ele>374.79999999999995</ele><time>2026-04-03T15:16:17.103Z</time></trkpt><trkpt lat="45.70776837235891" lon="8.28252497869127"><ele>375.59999999999997</ele><time>2026-04-03T15:16:18.103Z</time></trkpt><trkpt lat="45.70773904804742" lon="8.282671123600215"><ele>376.4</ele><time>2026-04-03T15:16:19.103Z</time></trkpt><trkpt lat="45.70770809427978" lon="8.282806579456182"><ele>377.2</ele><time>2026-04-03T15:16:20.103Z</time></trkpt><trkpt lat="45.7076653702157" lon="8.28296043832534"><ele>378.0</ele><time>2026-04-03T15:16:21.103Z</time></trkpt><trkpt lat="45.707620247332464" lon="8.283118430933502"><ele>375.5</ele><time>2026-04-03T15:16:22.103Z</time></trkpt><trkpt lat="45.707572758817406" lon="8.28328171386922"><ele>373.0</ele><time>2026-04-03T15:16:23.103Z</time></trkpt><trkpt lat="45.70751624011359" lon="8.28343557981711"><ele>370.5</ele><time>2026-04-03T15:16:24.103Z</time></trkpt><trkpt lat="45.707464028189435" lon="8.283586885438247"><ele>368.0</ele><time>2026-04-03T15:16:25.103Z</time></trkpt><trkpt lat="45.70741167604632" lon="8.283736733775484"><ele>368.0</ele><time>2026-04-03T15:16:26.103Z</time></trkpt><trkpt lat="45.70735099045098" lon="8.283879201945117"><ele>368.0</ele><time>2026-04-03T15:16:27.103Z</time></trkpt><trkpt lat="45.70726988814688" lon="8.284013905508694"><ele>368.0</ele><time>2026-04-03T15:16:28.103Z</time></trkpt><trkpt lat="45.707202316457014" lon="8.28416143498517"><ele>368.0</ele><time>2026-04-03T15:16:29.103Z</time></trkpt><trkpt lat="45.70713035683119" lon="8.284313196449956"><ele>368.25</ele><time>2026-04-03T15:16:30.103Z</time></trkpt><trkpt lat="45.70705398544883" lon="8.28446796241711"><ele>368.5</ele><time>2026-04-03T15:16:31.103Z</time></trkpt><trkpt lat="45.70697531913505" lon="8.284624412199992"><ele>368.75</ele><time>2026-04-03T15:16:32.103Z</time></trkpt><trkpt lat="45.70689017737488" lon="8.28478554332464"><ele>369.0</ele><time>2026-04-03T15:16:33.103Z</time></trkpt><trkpt lat="45.706798523223966" lon="8.284936080236358"><ele>369.0</ele><time>2026-04-03T15:16:34.104Z</time></trkpt><trkpt lat="45.70670361082712" lon="8.285077668436728"><ele>369.0</ele><time>2026-04-03T15:16:35.104Z</time></trkpt><trkpt lat="45.70660512134301" lon="8.285209557767905"><ele>369.0</ele><time>2026-04-03T15:16:36.104Z</time></trkpt><trkpt lat="45.70651256893526" lon="8.285338611191461"><ele>369.0</ele><time>2026-04-03T15:16:37.104Z</time></trkpt><trkpt lat="45.706418976496" lon="8.285461225349986"><ele>369.0</ele><time>2026-04-03T15:16:38.104Z</time></trkpt><trkpt lat="45.70633018832757" lon="8.285582975219693"><ele>369.0</ele><time>2026-04-03T15:16:39.104Z</time></trkpt><trkpt lat="45.706229154356805" lon="8.285683877027907"><ele>369.0</ele><time>2026-04-03T15:16:40.104Z</time></trkpt><trkpt lat="45.70614255849076" lon="8.285795674487757"><ele>369.0</ele><time>2026-04-03T15:16:41.104Z</time></trkpt><trkpt lat="45.70605760471592" lon="8.28590857744872"><ele>372.5</ele><time>2026-04-03T15:16:42.104Z</time></trkpt><trkpt lat="45.70596946445362" lon="8.28602037062032"><ele>376.0</ele><time>2026-04-03T15:16:43.104Z</time></trkpt><trkpt lat="45.7058812990477" lon="8.286138016680983"><ele>379.5</ele><time>2026-04-03T15:16:44.104Z</time></trkpt><trkpt lat="45.705789745400494" lon="8.286254441191028"><ele>383.0</ele><time>2026-04-03T15:16:45.104Z</time></trkpt><trkpt lat="45.70569817597889" lon="8.286365014530336"><ele>376.79999999999995</ele><time>2026-04-03T15:16:46.104Z</time></trkpt><trkpt lat="45.70561135436666" lon="8.286469437702614"><ele>370.6</ele><time>2026-04-03T15:16:47.104Z</time></trkpt><trkpt lat="45.70553463387148" lon="8.286584435510667"><ele>364.4</ele><time>2026-04-03T15:16:48.104Z</time></trkpt><trkpt lat="45.70547122916961" lon="8.2866813571745"><ele>358.20000000000005</ele><time>2026-04-03T15:16:49.104Z</time></trkpt><trkpt lat="45.7054132539107" lon="8.286758950235356"><ele>352.0</ele><time>2026-04-03T15:16:50.104Z</time></trkpt><trkpt lat="45.70535772676729" lon="8.286836827928742"><ele>352.0</ele><time>2026-04-03T15:16:51.104Z</time></trkpt><trkpt lat="45.70530724251908" lon="8.286908485572877"><ele>352.0</ele><time>2026-04-03T15:16:52.104Z</time></trkpt><trkpt lat="45.70525680780838" lon="8.286980007043555"><ele>352.0</ele><time>2026-04-03T15:16:53.104Z</time></trkpt><trkpt lat="45.70520574565574" lon="8.287050462442654"><ele>352.0</ele><time>2026-04-03T15:16:54.104Z</time></trkpt><trkpt lat="45.70515662508754" lon="8.287117681562975"><ele>352.0</ele><time>2026-04-03T15:16:55.104Z</time></trkpt><trkpt lat="45.705109645064766" lon="8.287177923006606"><ele>352.0</ele><time>2026-04-03T15:16:56.104Z</time></trkpt><trkpt lat="45.70501383668999" lon="8.287309898952637"><ele>353.16666666666663</ele><time>2026-04-03T15:16:58.104Z</time></trkpt><trkpt lat="45.704955015187494" lon="8.287385594645619"><ele>354.3333333333333</ele><time>2026-04-03T15:16:59.104Z</time></trkpt><trkpt lat="45.70489547078635" lon="8.287456088510458"><ele>355.5</ele><time>2026-04-03T15:17:00.104Z</time></trkpt><trkpt lat="45.70483854229929" lon="8.287518205738163"><ele>356.6666666666667</ele><time>2026-04-03T15:17:01.104Z</time></trkpt><trkpt lat="45.704784253964725" lon="8.287568780495203"><ele>357.83333333333337</ele><time>2026-04-03T15:17:02.104Z</time></trkpt><trkpt lat="45.70466059092169" lon="8.287616368542036"><ele>359.0</ele><time>2026-04-03T15:17:04.104Z</time></trkpt><trkpt lat="45.70458513401567" lon="8.287608783046952"><ele>359.0</ele><time>2026-04-03T15:17:05.106Z</time></trkpt><trkpt lat="45.704512948790146" lon="8.287599464608425"><ele>359.0</ele><time>2026-04-03T15:17:06.106Z</time></trkpt><trkpt lat="45.7044469748369" lon="8.287606836675355"><ele>359.0</ele><time>2026-04-03T15:17:07.106Z</time></trkpt><trkpt lat="45.70438393396196" lon="8.287642523326028"><ele>359.0</ele><time>2026-04-03T15:17:08.106Z</time></trkpt><trkpt lat="45.70433039261649" lon="8.287692936441154"><ele>359.0</ele><time>2026-04-03T15:17:09.106Z</time></trkpt><trkpt lat="45.70428445097652" lon="8.287761792280431"><ele>359.0</ele><time>2026-04-03T15:17:10.106Z</time></trkpt><trkpt lat="45.70422395823399" lon="8.287877937849021"><ele>359.0</ele><time>2026-04-03T15:17:12.106Z</time></trkpt><trkpt lat="45.70421469972761" lon="8.28800863671451"><ele>361.2</ele><time>2026-04-03T15:17:14.106Z</time></trkpt><trkpt lat="45.70412942878668" lon="8.288044290852646"><ele>363.4</ele><time>2026-04-03T15:17:15.107Z</time></trkpt><trkpt lat="45.704034654464984" lon="8.288134592623923"><ele>365.6</ele><time>2026-04-03T15:17:17.106Z</time></trkpt><trkpt lat="45.703916183501704" lon="8.288203074315245"><ele>367.8</ele><time>2026-04-03T15:17:19.106Z</time></trkpt><trkpt lat="45.703847804384644" lon="8.288237135598417"><ele>370.0</ele><time>2026-04-03T15:17:20.106Z</time></trkpt><trkpt lat="45.703774555947305" lon="8.288274534794127"><ele>366.3333333333333</ele><time>2026-04-03T15:17:21.106Z</time></trkpt><trkpt lat="45.70370687299302" lon="8.288309380319893"><ele>362.66666666666663</ele><time>2026-04-03T15:17:22.106Z</time></trkpt><trkpt lat="45.70359596762012" lon="8.288331625849763"><ele>359.0</ele><time>2026-04-03T15:17:24.106Z</time></trkpt><trkpt lat="45.70352332918085" lon="8.288355617743667"><ele>355.3333333333333</ele><time>2026-04-03T15:17:25.106Z</time></trkpt><trkpt lat="45.70344205106336" lon="8.288399335152965"><ele>351.6666666666667</ele><time>2026-04-03T15:17:26.106Z</time></trkpt><trkpt lat="45.703359920162114" lon="8.288419492742323"><ele>348.0</ele><time>2026-04-03T15:17:27.106Z</time></trkpt><trkpt lat="45.703282577429675" lon="8.288440530040974"><ele>348.0</ele><time>2026-04-03T15:17:28.106Z</time></trkpt><trkpt lat="45.703204760253655" lon="8.288463173521466"><ele>348.0</ele><time>2026-04-03T15:17:29.106Z</time></trkpt><trkpt lat="45.703125983178474" lon="8.288485508689767"><ele>348.0</ele><time>2026-04-03T15:17:30.106Z</time></trkpt><trkpt lat="45.70304747776067" lon="8.2885066334332"><ele>348.0</ele><time>2026-04-03T15:17:31.106Z</time></trkpt><trkpt lat="45.70297702490113" lon="8.28852760859374"><ele>348.0</ele><time>2026-04-03T15:17:32.106Z</time></trkpt><trkpt lat="45.7028969417826" lon="8.288551776113906"><ele>348.0</ele><time>2026-04-03T15:17:33.106Z</time></trkpt><trkpt lat="45.70280561804896" lon="8.288574281198464"><ele>348.6666666666667</ele><time>2026-04-03T15:17:34.106Z</time></trkpt><trkpt lat="45.70272084798345" lon="8.288595012567072"><ele>349.3333333333333</ele><time>2026-04-03T15:17:35.106Z</time></trkpt><trkpt lat="45.70263771559889" lon="8.288586212534565"><ele>350.0</ele><time>2026-04-03T15:17:36.106Z</time></trkpt><trkpt lat="45.70256979648672" lon="8.288602670939417"><ele>350.66666666666663</ele><time>2026-04-03T15:17:37.106Z</time></trkpt><trkpt lat="45.7024659752697" lon="8.28863479055984"><ele>351.3333333333333</ele><time>2026-04-03T15:17:39.107Z</time></trkpt><trkpt lat="45.70237481074212" lon="8.288659829612593"><ele>352.0</ele><time>2026-04-03T15:17:41.107Z</time></trkpt><trkpt lat="45.70229268215211" lon="8.2886842650442"><ele>352.0</ele><time>2026-04-03T15:17:43.107Z</time></trkpt><trkpt lat="45.70217236348478" lon="8.288707127165353"><ele>352.0</ele><time>2026-04-03T15:17:45.107Z</time></trkpt><trkpt lat="45.70208028126803" lon="8.288721589697586"><ele>352.0</ele><time>2026-04-03T15:17:47.107Z</time></trkpt><trkpt lat="45.70199019658222" lon="8.288742475918024"><ele>352.0</ele><time>2026-04-03T15:17:51.107Z</time></trkpt><trkpt lat="45.7019001181783" lon="8.288751086216045"><ele>352.0</ele><time>2026-04-03T15:17:53.107Z</time></trkpt><trkpt lat="45.70182879285817" lon="8.28874616213594"><ele>351.66666666666663</ele><time>2026-04-03T15:17:55.107Z</time></trkpt><trkpt lat="45.701751490533944" lon="8.288750892881088"><ele>351.3333333333333</ele><time>2026-04-03T15:17:57.107Z</time></trkpt><trkpt lat="45.70168353334208" lon="8.288755850082273"><ele>351.0</ele><time>2026-04-03T15:17:59.107Z</time></trkpt><trkpt lat="45.701603970145236" lon="8.28875035160282"><ele>350.6666666666667</ele><time>2026-04-03T15:18:01.105Z</time></trkpt><trkpt lat="45.70151472858425" lon="8.288708794476694"><ele>350.33333333333337</ele><time>2026-04-03T15:18:03.101Z</time></trkpt><trkpt lat="45.70143469353833" lon="8.28863902042427"><ele>350.0</ele><time>2026-04-03T15:18:05.098Z</time></trkpt><trkpt lat="45.701372845889935" lon="8.288508455871328"><ele>350.0</ele><time>2026-04-03T15:18:07.095Z</time></trkpt><trkpt lat="45.70132542550864" lon="8.288379612164789"><ele>350.0</ele><time>2026-04-03T15:18:09.092Z</time></trkpt><trkpt lat="45.701288579423704" lon="8.288248776256763"><ele>350.0</ele><time>2026-04-03T15:18:11.089Z</time></trkpt><trkpt lat="45.701282848734785" lon="8.288104456536576"><ele>350.0</ele><time>2026-04-03T15:18:13.087Z</time></trkpt><trkpt lat="45.70126603682847" lon="8.287970683921726"><ele>350.0</ele><time>2026-04-03T15:18:15.085Z</time></trkpt><trkpt lat="45.70125054067012" lon="8.287867072378713"><ele>354.4</ele><time>2026-04-03T15:18:17.084Z</time></trkpt><trkpt lat="45.70123319850722" lon="8.287738262668475"><ele>358.8</ele><time>2026-04-03T15:18:20.082Z</time></trkpt><trkpt lat="45.7012183361969" lon="8.287614041596902"><ele>363.20000000000005</ele><time>2026-04-03T15:18:23.08Z</time></trkpt><trkpt lat="45.70120741823051" lon="8.287486376297096"><ele>367.6</ele><time>2026-04-03T15:18:31.077Z</time></trkpt><trkpt lat="45.701205792127645" lon="8.287329767339276"><ele>372.0</ele><time>2026-04-03T15:18:33.076Z</time></trkpt><trkpt lat="45.701210005472376" lon="8.287215296101277"><ele>373.5</ele><time>2026-04-03T15:18:34.076Z</time></trkpt><trkpt lat="45.701212486516404" lon="8.287098584405946"><ele>375.0</ele><time>2026-04-03T15:18:35.076Z</time></trkpt><trkpt lat="45.701224119671856" lon="8.286948109673045"><ele>376.5</ele><time>2026-04-03T15:18:36.076Z</time></trkpt><trkpt lat="45.70126510472968" lon="8.286780770456014"><ele>378.0</ele><time>2026-04-03T15:18:37.075Z</time></trkpt><trkpt lat="45.70130548841583" lon="8.286584868017906"><ele>373.25</ele><time>2026-04-03T15:18:38.075Z</time></trkpt><trkpt lat="45.7013519084191" lon="8.286379390475428"><ele>368.5</ele><time>2026-04-03T15:18:39.075Z</time></trkpt><trkpt lat="45.701400610021004" lon="8.28618119389296"><ele>363.75</ele><time>2026-04-03T15:18:40.075Z</time></trkpt><trkpt lat="45.70145169486765" lon="8.285986226561214"><ele>359.0</ele><time>2026-04-03T15:18:41.075Z</time></trkpt><trkpt lat="45.70151123896634" lon="8.285783297578194"><ele>354.0</ele><time>2026-04-03T15:18:42.075Z</time></trkpt><trkpt lat="45.70158459434502" lon="8.285566830570051"><ele>349.0</ele><time>2026-04-03T15:18:43.074Z</time></trkpt><trkpt lat="45.70166409813493" lon="8.285357108754491"><ele>344.0</ele><time>2026-04-03T15:18:44.074Z</time></trkpt><trkpt lat="45.70174308589122" lon="8.285162472632736"><ele>344.0</ele><time>2026-04-03T15:18:45.074Z</time></trkpt><trkpt lat="45.70182511257789" lon="8.284970697352115"><ele>344.0</ele><time>2026-04-03T15:18:46.074Z</time></trkpt><trkpt lat="45.70190164623136" lon="8.284771256721521"><ele>344.0</ele><time>2026-04-03T15:18:47.074Z</time></trkpt><trkpt lat="45.701964587582" lon="8.28454610458928"><ele>357.6666666666667</ele><time>2026-04-03T15:18:48.074Z</time></trkpt><trkpt lat="45.70198243237321" lon="8.284319627477227"><ele>371.33333333333337</ele><time>2026-04-03T15:18:49.074Z</time></trkpt><trkpt lat="45.701971233065386" lon="8.284087886560192"><ele>385.0</ele><time>2026-04-03T15:18:50.074Z</time></trkpt><trkpt lat="45.70194724400354" lon="8.283862641689247"><ele>378.0</ele><time>2026-04-03T15:18:51.074Z</time></trkpt><trkpt lat="45.70191458036322" lon="8.283627091639282"><ele>371.0</ele><time>2026-04-03T15:18:52.073Z</time></trkpt><trkpt lat="45.70186292525811" lon="8.283372839690868"><ele>364.0</ele><time>2026-04-03T15:18:53.073Z</time></trkpt><trkpt lat="45.7017668437576" lon="8.283091599251348"><ele>364.0</ele><time>2026-04-03T15:18:54.073Z</time></trkpt><trkpt lat="45.70164010230993" lon="8.282817695991907"><ele>364.0</ele><time>2026-04-03T15:18:55.073Z</time></trkpt><trkpt lat="45.70150822334324" lon="8.28254866932632"><ele>364.0</ele><time>2026-04-03T15:18:56.073Z</time></trkpt><trkpt lat="45.70138511732204" lon="8.282294506110485"><ele>364.0</ele><time>2026-04-03T15:18:57.073Z</time></trkpt><trkpt lat="45.70127196579915" lon="8.28205801269402"><ele>364.0</ele><time>2026-04-03T15:18:58.073Z</time></trkpt><trkpt lat="45.701174204141964" lon="8.281845256782852"><ele>358.3333333333333</ele><time>2026-04-03T15:18:59.073Z</time></trkpt><trkpt lat="45.701101894367135" lon="8.281651176698118"><ele>352.6666666666667</ele><time>2026-04-03T15:19:00.073Z</time></trkpt><trkpt lat="45.701052990349595" lon="8.281449516908502"><ele>347.0</ele><time>2026-04-03T15:19:01.073Z</time></trkpt><trkpt lat="45.70102729195404" lon="8.281236380563103"><ele>347.0</ele><time>2026-04-03T15:19:02.073Z</time></trkpt><trkpt lat="45.701030861999975" lon="8.280981382152275"><ele>347.0</ele><time>2026-04-03T15:19:03.073Z</time></trkpt><trkpt lat="45.70104908897172" lon="8.280688528069724"><ele>347.0</ele><time>2026-04-03T15:19:04.073Z</time></trkpt><trkpt lat="45.701053629933256" lon="8.280376917866246"><ele>346.33333333333337</ele><time>2026-04-03T15:19:05.073Z</time></trkpt><trkpt lat="45.70106024623092" lon="8.280090273050751"><ele>345.6666666666667</ele><time>2026-04-03T15:19:06.073Z</time></trkpt><trkpt lat="45.701032025502506" lon="8.279797152518771"><ele>345.0</ele><time>2026-04-03T15:19:07.073Z</time></trkpt><trkpt lat="45.70097938205166" lon="8.279527353254938"><ele>348.3333333333333</ele><time>2026-04-03T15:19:08.073Z</time></trkpt><trkpt lat="45.700886512929614" lon="8.279275993569987"><ele>351.66666666666663</ele><time>2026-04-03T15:19:09.073Z</time></trkpt><trkpt lat="45.70072205693071" lon="8.27902760716932"><ele>355.0</ele><time>2026-04-03T15:19:10.073Z</time></trkpt><trkpt lat="45.700549386427284" lon="8.278787875074228"><ele>351.0</ele><time>2026-04-03T15:19:11.075Z</time></trkpt><trkpt lat="45.70035815577881" lon="8.278542755024294"><ele>347.0</ele><time>2026-04-03T15:19:12.075Z</time></trkpt><trkpt lat="45.70017764266517" lon="8.278315488996213"><ele>347.0</ele><time>2026-04-03T15:19:13.075Z</time></trkpt><trkpt lat="45.70003869857877" lon="8.2781371579537"><ele>347.0</ele><time>2026-04-03T15:19:14.075Z</time></trkpt><trkpt lat="45.699929176478996" lon="8.277983419000794"><ele>347.0</ele><time>2026-04-03T15:19:15.075Z</time></trkpt><trkpt lat="45.699853194330466" lon="8.27783052459461"><ele>351.0</ele><time>2026-04-03T15:19:16.075Z</time></trkpt><trkpt lat="45.69979060597511" lon="8.277596268245391"><ele>355.0</ele><time>2026-04-03T15:19:17.075Z</time></trkpt><trkpt lat="45.699757630332776" lon="8.277284658593981"><ele>359.0</ele><time>2026-04-03T15:19:18.075Z</time></trkpt><trkpt lat="45.69969954110457" lon="8.276972231699862"><ele>370.0</ele><time>2026-04-03T15:19:19.075Z</time></trkpt><trkpt lat="45.69960357484978" lon="8.276680683187768"><ele>381.0</ele><time>2026-04-03T15:19:20.074Z</time></trkpt><trkpt lat="45.69950012591638" lon="8.276383255132899"><ele>370.3333333333333</ele><time>2026-04-03T15:19:21.075Z</time></trkpt><trkpt lat="45.69939341976557" lon="8.276094822567647"><ele>359.66666666666663</ele><time>2026-04-03T15:19:22.075Z</time></trkpt><trkpt lat="45.699283762039464" lon="8.275849207795819"><ele>349.0</ele><time>2026-04-03T15:19:23.075Z</time></trkpt><trkpt lat="45.69921687716688" lon="8.275621370750203"><ele>349.25</ele><time>2026-04-03T15:19:24.075Z</time></trkpt><trkpt lat="45.699151665292064" lon="8.275429252041178"><ele>349.5</ele><time>2026-04-03T15:19:25.075Z</time></trkpt><trkpt lat="45.69913278082596" lon="8.275234975929452"><ele>349.75</ele><time>2026-04-03T15:19:26.075Z</time></trkpt><trkpt lat="45.69914046994682" lon="8.275026373907401"><ele>350.0</ele><time>2026-04-03T15:19:27.075Z</time></trkpt><trkpt lat="45.69919094446481" lon="8.274770121114324"><ele>350.0</ele><time>2026-04-03T15:19:28.075Z</time></trkpt><trkpt lat="45.69924654405545" lon="8.274483830817909"><ele>350.0</ele><time>2026-04-03T15:19:29.075Z</time></trkpt><trkpt lat="45.69929448581788" lon="8.27423697184119"><ele>350.0</ele><time>2026-04-03T15:19:30.075Z</time></trkpt><trkpt lat="45.699331553917816" lon="8.274012414361927"><ele>349.0</ele><time>2026-04-03T15:19:31.075Z</time></trkpt><trkpt lat="45.69933695968621" lon="8.273770294220826"><ele>348.0</ele><time>2026-04-03T15:19:32.075Z</time></trkpt><trkpt lat="45.69929312893661" lon="8.273527179532186"><ele>347.0</ele><time>2026-04-03T15:19:33.075Z</time></trkpt><trkpt lat="45.69923446878124" lon="8.27329237448444"><ele>348.0</ele><time>2026-04-03T15:19:34.075Z</time></trkpt><trkpt lat="45.69916241655866" lon="8.273077489939835"><ele>349.0</ele><time>2026-04-03T15:19:35.075Z</time></trkpt><trkpt lat="45.69912106857634" lon="8.272850448008604"><ele>350.0</ele><time>2026-04-03T15:19:36.075Z</time></trkpt><trkpt lat="45.699060457221854" lon="8.272651224600997"><ele>350.0</ele><time>2026-04-03T15:19:37.075Z</time></trkpt><trkpt lat="45.69901138762607" lon="8.272461339856315"><ele>350.0</ele><time>2026-04-03T15:19:38.075Z</time></trkpt><trkpt lat="45.69896591050482" lon="8.272276344485155"><ele>350.0</ele><time>2026-04-03T15:19:39.075Z</time></trkpt><trkpt lat="45.69892197222294" lon="8.27210137277097"><ele>350.0</ele><time>2026-04-03T15:19:40.075Z</time></trkpt><trkpt lat="45.69887068255473" lon="8.271912332882401"><ele>350.33333333333337</ele><time>2026-04-03T15:19:41.075Z</time></trkpt><trkpt lat="45.698816184987834" lon="8.271707759415035"><ele>350.6666666666667</ele><time>2026-04-03T15:19:42.075Z</time></trkpt><trkpt lat="45.698777002440416" lon="8.27148786171361"><ele>351.0</ele><time>2026-04-03T15:19:43.075Z</time></trkpt><trkpt lat="45.69872221175959" lon="8.271274598785748"><ele>351.0</ele><time>2026-04-03T15:19:44.075Z</time></trkpt><trkpt lat="45.698649875125604" lon="8.271068393706305"><ele>351.0</ele><time>2026-04-03T15:19:45.075Z</time></trkpt><trkpt lat="45.6986035320321" lon="8.270846571988788"><ele>351.0</ele><time>2026-04-03T15:19:46.075Z</time></trkpt><trkpt lat="45.69852350981999" lon="8.2706336266863"><ele>350.3333333333333</ele><time>2026-04-03T15:19:47.075Z</time></trkpt><trkpt lat="45.69841447079811" lon="8.270434264217394"><ele>349.66666666666663</ele><time>2026-04-03T15:19:48.075Z</time></trkpt><trkpt lat="45.69833039064749" lon="8.270227811496833"><ele>349.0</ele><time>2026-04-03T15:19:49.075Z</time></trkpt><trkpt lat="45.698235313935555" lon="8.270033229707906"><ele>349.0</ele><time>2026-04-03T15:19:50.075Z</time></trkpt><trkpt lat="45.698139057551685" lon="8.269842643750438"><ele>349.0</ele><time>2026-04-03T15:19:51.075Z</time></trkpt><trkpt lat="45.69804941705287" lon="8.269656060589954"><ele>349.0</ele><time>2026-04-03T15:19:52.075Z</time></trkpt><trkpt lat="45.69796066062303" lon="8.269475621313822"><ele>349.0</ele><time>2026-04-03T15:19:53.075Z</time></trkpt><trkpt lat="45.69787048748383" lon="8.269301178980859"><ele>349.0</ele><time>2026-04-03T15:19:54.075Z</time></trkpt><trkpt lat="45.69777765964124" lon="8.269127593958169"><ele>349.0</ele><time>2026-04-03T15:19:55.075Z</time></trkpt><trkpt lat="45.69768753403814" lon="8.26895181922347"><ele>349.75</ele><time>2026-04-03T15:19:56.075Z</time></trkpt><trkpt lat="45.69758589631171" lon="8.268794876467501"><ele>350.5</ele><time>2026-04-03T15:19:57.075Z</time></trkpt><trkpt lat="45.69747467073441" lon="8.268656619924107"><ele>351.25</ele><time>2026-04-03T15:19:58.075Z</time></trkpt><trkpt lat="45.697353468099905" lon="8.268537279675185"><ele>352.0</ele><time>2026-04-03T15:19:59.075Z</time></trkpt><trkpt lat="45.69722493991268" lon="8.268436340561184"><ele>352.0</ele><time>2026-04-03T15:20:00.075Z</time></trkpt><trkpt lat="45.69709553482141" lon="8.268350651664818"><ele>352.0</ele><time>2026-04-03T15:20:01.075Z</time></trkpt><trkpt lat="45.696964106006554" lon="8.268259593206414"><ele>352.0</ele><time>2026-04-03T15:20:02.075Z</time></trkpt><trkpt lat="45.6968315993822" lon="8.26816705069386"><ele>352.0</ele><time>2026-04-03T15:20:03.075Z</time></trkpt><trkpt lat="45.69669452327254" lon="8.268072622281872"><ele>353.3333333333333</ele><time>2026-04-03T15:20:04.075Z</time></trkpt><trkpt lat="45.696556369465284" lon="8.267974518411899"><ele>354.6666666666667</ele><time>2026-04-03T15:20:05.075Z</time></trkpt><trkpt lat="45.69641321123918" lon="8.2678703942502"><ele>356.0</ele><time>2026-04-03T15:20:06.075Z</time></trkpt><trkpt lat="45.696272616297065" lon="8.267757147075"><ele>356.0</ele><time>2026-04-03T15:20:07.075Z</time></trkpt><trkpt lat="45.696141576980324" lon="8.267622765860803"><ele>356.0</ele><time>2026-04-03T15:20:08.075Z</time></trkpt><trkpt lat="45.6960231433499" lon="8.2674401404915"><ele>356.0</ele><time>2026-04-03T15:20:09.075Z</time></trkpt><trkpt lat="45.695922138710934" lon="8.267198500478141"><ele>356.33333333333337</ele><time>2026-04-03T15:20:10.075Z</time></trkpt><trkpt lat="45.69580222672453" lon="8.266936367660437"><ele>356.6666666666667</ele><time>2026-04-03T15:20:11.075Z</time></trkpt><trkpt lat="45.695661997733914" lon="8.266677808033396"><ele>357.0</ele><time>2026-04-03T15:20:12.075Z</time></trkpt><trkpt lat="45.69554856160005" lon="8.266426283993503"><ele>357.0</ele><time>2026-04-03T15:20:13.075Z</time></trkpt><trkpt lat="45.69543214031456" lon="8.266174978622706"><ele>357.0</ele><time>2026-04-03T15:20:14.075Z</time></trkpt><trkpt lat="45.69530164757423" lon="8.265927925035431"><ele>357.0</ele><time>2026-04-03T15:20:15.075Z</time></trkpt><trkpt lat="45.695165863296765" lon="8.265658671400548"><ele>356.6666666666667</ele><time>2026-04-03T15:20:16.075Z</time></trkpt><trkpt lat="45.69503217856257" lon="8.26538190324996"><ele>356.33333333333337</ele><time>2026-04-03T15:20:17.075Z</time></trkpt><trkpt lat="45.694917013039344" lon="8.265126719983375"><ele>356.0</ele><time>2026-04-03T15:20:18.075Z</time></trkpt><trkpt lat="45.69480360341854" lon="8.264897237038687"><ele>358.6666666666667</ele><time>2026-04-03T15:20:19.075Z</time></trkpt><trkpt lat="45.694687273767684" lon="8.264689716360456"><ele>361.3333333333333</ele><time>2026-04-03T15:20:20.075Z</time></trkpt><trkpt lat="45.69456439640477" lon="8.264492968506309"><ele>364.0</ele><time>2026-04-03T15:20:21.075Z</time></trkpt><trkpt lat="45.694417242481464" lon="8.264297852427296"><ele>364.0</ele><time>2026-04-03T15:20:22.075Z</time></trkpt><trkpt lat="45.69424992297464" lon="8.264125942636413"><ele>364.0</ele><time>2026-04-03T15:20:23.075Z</time></trkpt><trkpt lat="45.69405929580922" lon="8.26398395929745"><ele>364.0</ele><time>2026-04-03T15:20:24.075Z</time></trkpt><trkpt lat="45.693841649949434" lon="8.26387962753042"><ele>374.5</ele><time>2026-04-03T15:20:25.075Z</time></trkpt><trkpt lat="45.693602114456056" lon="8.263814659327156"><ele>385.0</ele><time>2026-04-03T15:20:26.075Z</time></trkpt><trkpt lat="45.693353223067625" lon="8.263788846236093"><ele>385.0</ele><time>2026-04-03T15:20:27.075Z</time></trkpt><trkpt lat="45.69309628149001" lon="8.263795884161574"><ele>385.0</ele><time>2026-04-03T15:20:28.075Z</time></trkpt><trkpt lat="45.69280470218462" lon="8.263838479725433"><ele>390.5</ele><time>2026-04-03T15:20:29.075Z</time></trkpt><trkpt lat="45.692514903440866" lon="8.263868881396213"><ele>396.0</ele><time>2026-04-03T15:20:30.075Z</time></trkpt><trkpt lat="45.69226799011761" lon="8.263895471725236"><ele>396.0</ele><time>2026-04-03T15:20:31.075Z</time></trkpt><trkpt lat="45.69205691908457" lon="8.263925236451783"><ele>396.0</ele><time>2026-04-03T15:20:32.075Z</time></trkpt><trkpt lat="45.69186576966528" lon="8.263943689521394"><ele>396.0</ele><time>2026-04-03T15:20:33.075Z</time></trkpt><trkpt lat="45.69167797393649" lon="8.263902728658994"><ele>395.33333333333337</ele><time>2026-04-03T15:20:34.075Z</time></trkpt><trkpt lat="45.691473068745424" lon="8.263852346161363"><ele>394.6666666666667</ele><time>2026-04-03T15:20:35.075Z</time></trkpt><trkpt lat="45.691268303404044" lon="8.263796934133973"><ele>394.0</ele><time>2026-04-03T15:20:36.075Z</time></trkpt><trkpt lat="45.69107033070783" lon="8.26373557521106"><ele>394.0</ele><time>2026-04-03T15:20:37.075Z</time></trkpt><trkpt lat="45.69088162306821" lon="8.263623414650887"><ele>394.0</ele><time>2026-04-03T15:20:38.075Z</time></trkpt><trkpt lat="45.690682402987385" lon="8.263506808225893"><ele>394.0</ele><time>2026-04-03T15:20:39.075Z</time></trkpt><trkpt lat="45.69050035314396" lon="8.263396207343886"><ele>394.0</ele><time>2026-04-03T15:20:40.075Z</time></trkpt><trkpt lat="45.69033520555188" lon="8.263289808218229"><ele>394.0</ele><time>2026-04-03T15:20:41.075Z</time></trkpt><trkpt lat="45.69019216239322" lon="8.263180361418794"><ele>394.0</ele><time>2026-04-03T15:20:42.075Z</time></trkpt><trkpt lat="45.690067370560634" lon="8.263056814723413"><ele>393.5</ele><time>2026-04-03T15:20:43.075Z</time></trkpt><trkpt lat="45.689961863809515" lon="8.26292833822555"><ele>393.0</ele><time>2026-04-03T15:20:44.075Z</time></trkpt><trkpt lat="45.689860907290814" lon="8.262781430209186"><ele>392.5</ele><time>2026-04-03T15:20:45.075Z</time></trkpt><trkpt lat="45.68977186235502" lon="8.26262374084484"><ele>392.0</ele><time>2026-04-03T15:20:46.075Z</time></trkpt><trkpt lat="45.68970532772706" lon="8.262463421552754"><ele>396.66666666666663</ele><time>2026-04-03T15:20:47.075Z</time></trkpt><trkpt lat="45.689643665702555" lon="8.262275546952019"><ele>401.33333333333337</ele><time>2026-04-03T15:20:48.075Z</time></trkpt><trkpt lat="45.68959405448262" lon="8.262065327433898"><ele>406.0</ele><time>2026-04-03T15:20:49.075Z</time></trkpt><trkpt lat="45.689551076482715" lon="8.261854672178098"><ele>406.0</ele><time>2026-04-03T15:20:50.075Z</time></trkpt><trkpt lat="45.689525980132295" lon="8.261614980019907"><ele>406.0</ele><time>2026-04-03T15:20:51.075Z</time></trkpt><trkpt lat="45.68950392315794" lon="8.261283818453045"><ele>406.0</ele><time>2026-04-03T15:20:52.075Z</time></trkpt><trkpt lat="45.689479371702475" lon="8.260881026542936"><ele>399.5</ele><time>2026-04-03T15:20:53.075Z</time></trkpt><trkpt lat="45.68945049683824" lon="8.260421697277792"><ele>393.0</ele><time>2026-04-03T15:20:54.075Z</time></trkpt><trkpt lat="45.68942020435361" lon="8.259939817309945"><ele>383.5</ele><time>2026-04-03T15:20:55.075Z</time></trkpt><trkpt lat="45.68939301123391" lon="8.259499214486514"><ele>374.0</ele><time>2026-04-03T15:20:56.075Z</time></trkpt><trkpt lat="45.68936897983906" lon="8.259104381570669"><ele>374.33333333333337</ele><time>2026-04-03T15:20:57.075Z</time></trkpt><trkpt lat="45.689346908358566" lon="8.258764198651836"><ele>374.6666666666667</ele><time>2026-04-03T15:20:58.075Z</time></trkpt><trkpt lat="45.68932765337961" lon="8.258470339422693"><ele>375.0</ele><time>2026-04-03T15:20:59.075Z</time></trkpt><trkpt lat="45.68932335802413" lon="8.258217800759676"><ele>374.25</ele><time>2026-04-03T15:21:00.075Z</time></trkpt><trkpt lat="45.68934695570419" lon="8.258003429387896"><ele>373.5</ele><time>2026-04-03T15:21:01.076Z</time></trkpt><trkpt lat="45.689393081660135" lon="8.257832421994564"><ele>372.75</ele><time>2026-04-03T15:21:02.076Z</time></trkpt><trkpt lat="45.68946147046103" lon="8.257657241755565"><ele>372.0</ele><time>2026-04-03T15:21:03.076Z</time></trkpt><trkpt lat="45.6894838619937" lon="8.257498280576062"><ele>371.75</ele><time>2026-04-03T15:21:04.076Z</time></trkpt><trkpt lat="45.689491515462564" lon="8.25736243851583"><ele>371.5</ele><time>2026-04-03T15:21:05.076Z</time></trkpt><trkpt lat="45.689450462739366" lon="8.257225382198866"><ele>371.25</ele><time>2026-04-03T15:21:06.076Z</time></trkpt><trkpt lat="45.689362827451525" lon="8.257038265451783"><ele>371.0</ele><time>2026-04-03T15:21:07.076Z</time></trkpt><trkpt lat="45.68924491106316" lon="8.25679921140712"><ele>371.0</ele><time>2026-04-03T15:21:08.076Z</time></trkpt><trkpt lat="45.68912801218964" lon="8.256563125362664"><ele>371.0</ele><time>2026-04-03T15:21:09.076Z</time></trkpt><trkpt lat="45.688998267227696" lon="8.256341423681212"><ele>371.0</ele><time>2026-04-03T15:21:10.076Z</time></trkpt><trkpt lat="45.68881747693139" lon="8.256116692459864"><ele>374.5</ele><time>2026-04-03T15:21:11.076Z</time></trkpt><trkpt lat="45.68858832956892" lon="8.255892239437484"><ele>378.0</ele><time>2026-04-03T15:21:12.076Z</time></trkpt><trkpt lat="45.68834385841227" lon="8.25560966920137"><ele>390.0</ele><time>2026-04-03T15:21:13.076Z</time></trkpt><trkpt lat="45.688062370131746" lon="8.255310113205725"><ele>402.0</ele><time>2026-04-03T15:21:14.076Z</time></trkpt><trkpt lat="45.6877973054167" lon="8.255028035545319"><ele>402.5</ele><time>2026-04-03T15:21:15.076Z</time></trkpt><trkpt lat="45.68757663694154" lon="8.254793203477222"><ele>403.0</ele><time>2026-04-03T15:21:16.076Z</time></trkpt><trkpt lat="45.68737973239474" lon="8.254583660717248"><ele>403.0</ele><time>2026-04-03T15:21:17.078Z</time></trkpt><trkpt lat="45.6872052975876" lon="8.254398277794827"><ele>403.0</ele><time>2026-04-03T15:21:18.077Z</time></trkpt><trkpt lat="45.68704319412722" lon="8.254229586504062"><ele>403.0</ele><time>2026-04-03T15:21:19.077Z</time></trkpt><trkpt lat="45.686898145175675" lon="8.254079370863854"><ele>395.33333333333337</ele><time>2026-04-03T15:21:20.077Z</time></trkpt><trkpt lat="45.68676511431724" lon="8.253926480617254"><ele>387.6666666666667</ele><time>2026-04-03T15:21:21.077Z</time></trkpt><trkpt lat="45.68664690113012" lon="8.253729371061342"><ele>380.0</ele><time>2026-04-03T15:21:22.077Z</time></trkpt><trkpt lat="45.68650784744753" lon="8.25346150562811"><ele>380.0</ele><time>2026-04-03T15:21:23.078Z</time></trkpt><trkpt lat="45.68634035781048" lon="8.253137473275597"><ele>380.0</ele><time>2026-04-03T15:21:24.078Z</time></trkpt><trkpt lat="45.68617101279856" lon="8.252812521874962"><ele>378.0</ele><time>2026-04-03T15:21:25.078Z</time></trkpt><trkpt lat="45.68602528120708" lon="8.252535526064456"><ele>376.0</ele><time>2026-04-03T15:21:26.077Z</time></trkpt><trkpt lat="45.68592360383148" lon="8.2523168507319"><ele>374.0</ele><time>2026-04-03T15:21:27.078Z</time></trkpt><trkpt lat="45.68586750825241" lon="8.252126124738103"><ele>374.0</ele><time>2026-04-03T15:21:28.078Z</time></trkpt><trkpt lat="45.68585717009704" lon="8.251908570216921"><ele>374.0</ele><time>2026-04-03T15:21:29.078Z</time></trkpt><trkpt lat="45.68587412416439" lon="8.251661651894754"><ele>374.0</ele><time>2026-04-03T15:21:30.078Z</time></trkpt><trkpt lat="45.68590013212577" lon="8.251390038746427"><ele>374.0</ele><time>2026-04-03T15:21:31.078Z</time></trkpt><trkpt lat="45.68591566469173" lon="8.251066865626788"><ele>374.0</ele><time>2026-04-03T15:21:32.078Z</time></trkpt><trkpt lat="45.68593789211181" lon="8.250774684404037"><ele>374.0</ele><time>2026-04-03T15:21:33.078Z</time></trkpt><trkpt lat="45.68593617703467" lon="8.250554719988722"><ele>374.0</ele><time>2026-04-03T15:21:34.078Z</time></trkpt><trkpt lat="45.68589591983897" lon="8.2503839493675"><ele>374.0</ele><time>2026-04-03T15:21:35.078Z</time></trkpt><trkpt lat="45.685804848165944" lon="8.250202134702226"><ele>374.0</ele><time>2026-04-03T15:21:36.078Z</time></trkpt><trkpt lat="45.68568081585145" lon="8.2499950908469"><ele>374.6666666666667</ele><time>2026-04-03T15:21:37.078Z</time></trkpt><trkpt lat="45.68553345929207" lon="8.249774513759979"><ele>375.3333333333333</ele><time>2026-04-03T15:21:38.078Z</time></trkpt><trkpt lat="45.68537749591072" lon="8.249556869699887"><ele>376.0</ele><time>2026-04-03T15:21:39.078Z</time></trkpt><trkpt lat="45.6852310622817" lon="8.24935683178485"><ele>376.0</ele><time>2026-04-03T15:21:40.078Z</time></trkpt><trkpt lat="45.68510216576539" lon="8.249151803743155"><ele>376.0</ele><time>2026-04-03T15:21:41.078Z</time></trkpt><trkpt lat="45.684942326710626" lon="8.249018797391773"><ele>376.0</ele><time>2026-04-03T15:21:42.078Z</time></trkpt><trkpt lat="45.68480856217794" lon="8.248885557479738"><ele>377.0</ele><time>2026-04-03T15:21:43.078Z</time></trkpt><trkpt lat="45.68468865139798" lon="8.248768322662524"><ele>378.0</ele><time>2026-04-03T15:21:44.078Z</time></trkpt><trkpt lat="45.68458810876934" lon="8.248667515901289"><ele>379.0</ele><time>2026-04-03T15:21:45.078Z</time></trkpt><trkpt lat="45.684508243009006" lon="8.248564317018166"><ele>380.0</ele><time>2026-04-03T15:21:46.078Z</time></trkpt><trkpt lat="45.68445611974826" lon="8.248446095395373"><ele>380.0</ele><time>2026-04-03T15:21:47.078Z</time></trkpt><trkpt lat="45.684444036829795" lon="8.248315169528144"><ele>380.0</ele><time>2026-04-03T15:21:48.078Z</time></trkpt><trkpt lat="45.684439446266055" lon="8.248202745145909"><ele>380.0</ele><time>2026-04-03T15:21:49.078Z</time></trkpt><trkpt lat="45.68444176569038" lon="8.248101553713816"><ele>380.0</ele><time>2026-04-03T15:21:50.078Z</time></trkpt><trkpt lat="45.68447417313819" lon="8.248004811966585"><ele>380.0</ele><time>2026-04-03T15:21:51.078Z</time></trkpt><trkpt lat="45.68451879516399" lon="8.247899712851856"><ele>380.0</ele><time>2026-04-03T15:21:52.078Z</time></trkpt><trkpt lat="45.684562296244145" lon="8.24780088185459"><ele>380.5</ele><time>2026-04-03T15:21:53.078Z</time></trkpt><trkpt lat="45.68462605228476" lon="8.24772356736437"><ele>381.0</ele><time>2026-04-03T15:21:55.078Z</time></trkpt><trkpt lat="45.68448104356324" lon="8.247576582798544"><ele>381.5</ele><time>2026-04-03T15:21:58.078Z</time></trkpt><trkpt lat="45.68435384196906" lon="8.247532834118028"><ele>382.0</ele><time>2026-04-03T15:22:00.078Z</time></trkpt><trkpt lat="45.684290687260145" lon="8.24751101209767"><ele>382.3333333333333</ele><time>2026-04-03T15:22:01.078Z</time></trkpt><trkpt lat="45.6842316" lon="8.247471509795385"><ele>382.66666666666663</ele><time>2026-04-03T15:22:02.078Z</time></trkpt><trkpt lat="45.68416566193598" lon="8.247446123342755"><ele>383.0</ele><time>2026-04-03T15:22:03.078Z</time></trkpt><trkpt lat="45.684093831298654" lon="8.247418468188407"><ele>383.3333333333333</ele><time>2026-04-03T15:22:04.078Z</time></trkpt><trkpt lat="45.68401321381332" lon="8.24738793232524"><ele>383.6666666666667</ele><time>2026-04-03T15:22:05.078Z</time></trkpt><trkpt lat="45.68392531674544" lon="8.247377482423122"><ele>384.0</ele><time>2026-04-03T15:22:06.079Z</time></trkpt><trkpt lat="45.68384755903867" lon="8.247329767468905"><ele>384.0</ele><time>2026-04-03T15:22:07.079Z</time></trkpt><trkpt lat="45.683752916281364" lon="8.247303464987901"><ele>384.0</ele><time>2026-04-03T15:22:08.079Z</time></trkpt><trkpt lat="45.68365547481689" lon="8.247268991725626"><ele>384.0</ele><time>2026-04-03T15:22:09.079Z</time></trkpt><trkpt lat="45.68356125808618" lon="8.247231479531418"><ele>384.0</ele><time>2026-04-03T15:22:10.079Z</time></trkpt><trkpt lat="45.68347354089744" lon="8.247194838615039"><ele>384.0</ele><time>2026-04-03T15:22:11.079Z</time></trkpt><trkpt lat="45.6834019960027" lon="8.247129302436683"><ele>385.0</ele><time>2026-04-03T15:22:12.079Z</time></trkpt><trkpt lat="45.68332253794017" lon="8.247074425501637"><ele>386.0</ele><time>2026-04-03T15:22:13.079Z</time></trkpt><trkpt lat="45.683247180310346" lon="8.246984236704648"><ele>387.0</ele><time>2026-04-03T15:22:14.079Z</time></trkpt><trkpt lat="45.68317439050011" lon="8.246886639970187"><ele>388.0</ele><time>2026-04-03T15:22:15.079Z</time></trkpt><trkpt lat="45.68310164279632" lon="8.24682212024881"><ele>389.0</ele><time>2026-04-03T15:22:16.079Z</time></trkpt><trkpt lat="45.683029988939246" lon="8.246781230688667"><ele>390.0</ele><time>2026-04-03T15:22:17.079Z</time></trkpt><trkpt lat="45.6829530326076" lon="8.246805913485087"><ele>390.0</ele><time>2026-04-03T15:22:18.079Z</time></trkpt><trkpt lat="45.68287499764565" lon="8.246870590687706"><ele>390.0</ele><time>2026-04-03T15:22:19.079Z</time></trkpt><trkpt lat="45.68278735796209" lon="8.2469493138031"><ele>390.0</ele><time>2026-04-03T15:22:20.079Z</time></trkpt><trkpt lat="45.68269618305247" lon="8.247037817752714"><ele>390.0</ele><time>2026-04-03T15:22:21.079Z</time></trkpt><trkpt lat="45.68260166066685" lon="8.24712343936372"><ele>390.0</ele><time>2026-04-03T15:22:22.079Z</time></trkpt><trkpt lat="45.68250562856964" lon="8.247207528787511"><ele>387.2</ele><time>2026-04-03T15:22:23.079Z</time></trkpt><trkpt lat="45.68240992943635" lon="8.247286754625003"><ele>384.4</ele><time>2026-04-03T15:22:24.079Z</time></trkpt><trkpt lat="45.68231348365816" lon="8.247366772893518"><ele>381.6</ele><time>2026-04-03T15:22:25.079Z</time></trkpt><trkpt lat="45.68222004083763" lon="8.247446058527235"><ele>378.8</ele><time>2026-04-03T15:22:26.079Z</time></trkpt><trkpt lat="45.68213506041585" lon="8.247518220171507"><ele>376.0</ele><time>2026-04-03T15:22:27.079Z</time></trkpt><trkpt lat="45.68205213231736" lon="8.247584190438735"><ele>376.0</ele><time>2026-04-03T15:22:28.079Z</time></trkpt><trkpt lat="45.68197170528869" lon="8.247645316897954"><ele>376.0</ele><time>2026-04-03T15:22:29.079Z</time></trkpt><trkpt lat="45.6818956592876" lon="8.247709143921787"><ele>376.0</ele><time>2026-04-03T15:22:30.079Z</time></trkpt><trkpt lat="45.68181904733966" lon="8.247769518198162"><ele>376.0</ele><time>2026-04-03T15:22:31.079Z</time></trkpt><trkpt lat="45.68173884378934" lon="8.247835983154205"><ele>376.0</ele><time>2026-04-03T15:22:32.079Z</time></trkpt><trkpt lat="45.68165523838946" lon="8.247907703955796"><ele>376.0</ele><time>2026-04-03T15:22:33.079Z</time></trkpt><trkpt lat="45.68156735966184" lon="8.247985855058433"><ele>376.0</ele><time>2026-04-03T15:22:34.079Z</time></trkpt><trkpt lat="45.68148748701207" lon="8.248054709402577"><ele>376.0</ele><time>2026-04-03T15:22:35.079Z</time></trkpt><trkpt lat="45.681413220945025" lon="8.248114195263707"><ele>376.0</ele><time>2026-04-03T15:22:36.079Z</time></trkpt><trkpt lat="45.6813433128775" lon="8.248144372847866"><ele>376.0</ele><time>2026-04-03T15:22:37.079Z</time></trkpt><trkpt lat="45.68127988500782" lon="8.248151059470345"><ele>376.0</ele><time>2026-04-03T15:22:38.079Z</time></trkpt><trkpt lat="45.68116225853955" lon="8.24816541595046"><ele>376.16666666666663</ele><time>2026-04-03T15:22:40.079Z</time></trkpt><trkpt lat="45.68112082747777" lon="8.248241453412522"><ele>376.3333333333333</ele><time>2026-04-03T15:22:41.079Z</time></trkpt><trkpt lat="45.6811522099995" lon="8.2484281663577"><ele>376.5</ele><time>2026-04-03T15:22:43.079Z</time></trkpt><trkpt lat="45.68119131385824" lon="8.24852550565101"><ele>376.6666666666667</ele><time>2026-04-03T15:22:44.079Z</time></trkpt><trkpt lat="45.681190402540544" lon="8.248632959682785"><ele>376.83333333333337</ele><time>2026-04-03T15:22:45.079Z</time></trkpt><trkpt lat="45.68118780539923" lon="8.248729880272194"><ele>377.0</ele><time>2026-04-03T15:22:46.079Z</time></trkpt><trkpt lat="45.68116233380554" lon="8.248831814526515"><ele>377.0</ele><time>2026-04-03T15:22:47.079Z</time></trkpt><trkpt lat="45.68113357901719" lon="8.248946187808626"><ele>377.0</ele><time>2026-04-03T15:22:48.079Z</time></trkpt><trkpt lat="45.68111202707422" lon="8.249087868924468"><ele>377.0</ele><time>2026-04-03T15:22:49.079Z</time></trkpt><trkpt lat="45.68108604174835" lon="8.249251153935617"><ele>377.0</ele><time>2026-04-03T15:22:50.079Z</time></trkpt><trkpt lat="45.68104558310954" lon="8.249436690422218"><ele>377.0</ele><time>2026-04-03T15:22:51.079Z</time></trkpt><trkpt lat="45.6809982314817" lon="8.249633985528948"><ele>378.0</ele><time>2026-04-03T15:22:52.079Z</time></trkpt><trkpt lat="45.6809515479934" lon="8.249819246893333"><ele>379.0</ele><time>2026-04-03T15:22:53.079Z</time></trkpt><trkpt lat="45.68089500458755" lon="8.250025925520594"><ele>380.0</ele><time>2026-04-03T15:22:54.079Z</time></trkpt><trkpt lat="45.68083171232094" lon="8.25024445035888"><ele>380.0</ele><time>2026-04-03T15:22:55.079Z</time></trkpt><trkpt lat="45.68074681457368" lon="8.250423479462345"><ele>380.0</ele><time>2026-04-03T15:22:56.079Z</time></trkpt><trkpt lat="45.680669176734675" lon="8.250605110177958"><ele>380.0</ele><time>2026-04-03T15:22:57.079Z</time></trkpt><trkpt lat="45.680562100998436" lon="8.250777899586309"><ele>380.6666666666667</ele><time>2026-04-03T15:22:58.079Z</time></trkpt><trkpt lat="45.68044058218111" lon="8.250945697719693"><ele>381.3333333333333</ele><time>2026-04-03T15:22:59.079Z</time></trkpt><trkpt lat="45.68031482125237" lon="8.251104448766817"><ele>382.0</ele><time>2026-04-03T15:23:00.079Z</time></trkpt><trkpt lat="45.680169325050684" lon="8.251244960402113"><ele>383.0</ele><time>2026-04-03T15:23:01.079Z</time></trkpt><trkpt lat="45.68000992974212" lon="8.251346077554736"><ele>384.0</ele><time>2026-04-03T15:23:02.079Z</time></trkpt><trkpt lat="45.679850289865506" lon="8.251437769725435"><ele>385.0</ele><time>2026-04-03T15:23:03.079Z</time></trkpt><trkpt lat="45.679693310386064" lon="8.251510756308052"><ele>385.0</ele><time>2026-04-03T15:23:04.079Z</time></trkpt><trkpt lat="45.67953719980982" lon="8.25160088674926"><ele>385.0</ele><time>2026-04-03T15:23:05.079Z</time></trkpt><trkpt lat="45.679364555011745" lon="8.251671138557352"><ele>385.0</ele><time>2026-04-03T15:23:06.079Z</time></trkpt><trkpt lat="45.67918371940444" lon="8.251747749474852"><ele>385.33333333333337</ele><time>2026-04-03T15:23:07.079Z</time></trkpt><trkpt lat="45.67900064821577" lon="8.251827680758709"><ele>385.66666666666663</ele><time>2026-04-03T15:23:08.079Z</time></trkpt><trkpt lat="45.678810763666675" lon="8.251911821913108"><ele>386.0</ele><time>2026-04-03T15:23:09.079Z</time></trkpt><trkpt lat="45.67861757641489" lon="8.252002110191459"><ele>388.3333333333333</ele><time>2026-04-03T15:23:10.079Z</time></trkpt><trkpt lat="45.678420385951114" lon="8.252099513148277"><ele>390.66666666666663</ele><time>2026-04-03T15:23:11.079Z</time></trkpt><trkpt lat="45.67822875114653" lon="8.2521973386343"><ele>393.0</ele><time>2026-04-03T15:23:12.079Z</time></trkpt><trkpt lat="45.67805132291184" lon="8.252287346213269"><ele>393.0</ele><time>2026-04-03T15:23:13.079Z</time></trkpt><trkpt lat="45.67786944451966" lon="8.252382096124952"><ele>393.0</ele><time>2026-04-03T15:23:14.079Z</time></trkpt><trkpt lat="45.677678617025926" lon="8.252487930738917"><ele>393.0</ele><time>2026-04-03T15:23:15.079Z</time></trkpt><trkpt lat="45.67749055147271" lon="8.252589798797379"><ele>393.33333333333337</ele><time>2026-04-03T15:23:16.079Z</time></trkpt><trkpt lat="45.67730052567621" lon="8.252691912499081"><ele>393.6666666666667</ele><time>2026-04-03T15:23:17.079Z</time></trkpt><trkpt lat="45.677108858362104" lon="8.252789510641813"><ele>394.0</ele><time>2026-04-03T15:23:18.079Z</time></trkpt><trkpt lat="45.67692031180182" lon="8.252895703650168"><ele>395.0</ele><time>2026-04-03T15:23:19.079Z</time></trkpt><trkpt lat="45.67673289541739" lon="8.252997921454584"><ele>396.0</ele><time>2026-04-03T15:23:20.079Z</time></trkpt><trkpt lat="45.6765385410969" lon="8.25310243899409"><ele>397.0</ele><time>2026-04-03T15:23:21.079Z</time></trkpt><trkpt lat="45.67634049708443" lon="8.253209480835366"><ele>398.0</ele><time>2026-04-03T15:23:22.079Z</time></trkpt><trkpt lat="45.676135631471254" lon="8.253317882647133"><ele>399.0</ele><time>2026-04-03T15:23:23.081Z</time></trkpt><trkpt lat="45.67593015592373" lon="8.253427051761243"><ele>400.0</ele><time>2026-04-03T15:23:24.081Z</time></trkpt><trkpt lat="45.675722219458954" lon="8.253536706242995"><ele>400.0</ele><time>2026-04-03T15:23:25.081Z</time></trkpt><trkpt lat="45.675512015385635" lon="8.25365215026949"><ele>400.0</ele><time>2026-04-03T15:23:26.081Z</time></trkpt><trkpt lat="45.67529928570767" lon="8.25376766845164"><ele>403.0</ele><time>2026-04-03T15:23:27.081Z</time></trkpt><trkpt lat="45.67508475763055" lon="8.253880520047142"><ele>406.0</ele><time>2026-04-03T15:23:28.081Z</time></trkpt><trkpt lat="45.674873824571904" lon="8.253998236915551"><ele>408.5</ele><time>2026-04-03T15:23:29.081Z</time></trkpt><trkpt lat="45.674661010158495" lon="8.25411703287014"><ele>411.0</ele><time>2026-04-03T15:23:30.081Z</time></trkpt><trkpt lat="45.67444908399405" lon="8.254228924992665"><ele>408.66666666666663</ele><time>2026-04-03T15:23:31.081Z</time></trkpt><trkpt lat="45.67424305917243" lon="8.254346889773982"><ele>406.3333333333333</ele><time>2026-04-03T15:23:32.081Z</time></trkpt><trkpt lat="45.674041845026686" lon="8.254462424969399"><ele>404.0</ele><time>2026-04-03T15:23:33.081Z</time></trkpt><trkpt lat="45.673844202856344" lon="8.25458295031375"><ele>404.0</ele><time>2026-04-03T15:23:34.081Z</time></trkpt><trkpt lat="45.6736472398834" lon="8.254704278820654"><ele>404.0</ele><time>2026-04-03T15:23:35.081Z</time></trkpt><trkpt lat="45.673449102520905" lon="8.254830261206326"><ele>404.0</ele><time>2026-04-03T15:23:36.081Z</time></trkpt><trkpt lat="45.67324741332135" lon="8.254957930535971"><ele>404.0</ele><time>2026-04-03T15:23:37.081Z</time></trkpt><trkpt lat="45.673050727669924" lon="8.255095464747164"><ele>404.0</ele><time>2026-04-03T15:23:38.081Z</time></trkpt><trkpt lat="45.672855333318196" lon="8.255248443291281"><ele>404.0</ele><time>2026-04-03T15:23:39.081Z</time></trkpt><trkpt lat="45.67267102418337" lon="8.25542148138087"><ele>404.0</ele><time>2026-04-03T15:23:40.081Z</time></trkpt><trkpt lat="45.67248858407762" lon="8.255607362239548"><ele>404.0</ele><time>2026-04-03T15:23:41.081Z</time></trkpt><trkpt lat="45.672314341605684" lon="8.25580219263385"><ele>404.0</ele><time>2026-04-03T15:23:42.081Z</time></trkpt><trkpt lat="45.672134689831985" lon="8.255997398711328"><ele>408.0</ele><time>2026-04-03T15:23:43.081Z</time></trkpt><trkpt lat="45.67194964100277" lon="8.256189447637748"><ele>412.0</ele><time>2026-04-03T15:23:44.081Z</time></trkpt><trkpt lat="45.671758816071176" lon="8.256377767719274"><ele>414.5</ele><time>2026-04-03T15:23:45.081Z</time></trkpt><trkpt lat="45.67156905010425" lon="8.256563006846667"><ele>417.0</ele><time>2026-04-03T15:23:46.081Z</time></trkpt><trkpt lat="45.671380558962774" lon="8.256747471840676"><ele>417.0</ele><time>2026-04-03T15:23:47.081Z</time></trkpt><trkpt lat="45.671192272780694" lon="8.256932606725925"><ele>417.0</ele><time>2026-04-03T15:23:48.081Z</time></trkpt><trkpt lat="45.67100279002478" lon="8.257117557097962"><ele>423.0</ele><time>2026-04-03T15:23:49.081Z</time></trkpt><trkpt lat="45.67081464227269" lon="8.257298838252332"><ele>429.0</ele><time>2026-04-03T15:23:50.081Z</time></trkpt><trkpt lat="45.670627058440395" lon="8.257481309017429"><ele>429.0</ele><time>2026-04-03T15:23:51.081Z</time></trkpt><trkpt lat="45.67045061579885" lon="8.257655597671947"><ele>429.0</ele><time>2026-04-03T15:23:52.081Z</time></trkpt><trkpt lat="45.67028633334943" lon="8.257810395171086"><ele>429.0</ele><time>2026-04-03T15:23:53.081Z</time></trkpt><trkpt lat="45.67011746434403" lon="8.257933966124654"><ele>430.33333333333337</ele><time>2026-04-03T15:23:54.081Z</time></trkpt><trkpt lat="45.669932151581556" lon="8.258028644735262"><ele>431.6666666666667</ele><time>2026-04-03T15:23:55.081Z</time></trkpt><trkpt lat="45.66973557285872" lon="8.258101258023455"><ele>433.0</ele><time>2026-04-03T15:23:56.081Z</time></trkpt><trkpt lat="45.669545566558675" lon="8.258158512433074"><ele>432.6666666666667</ele><time>2026-04-03T15:23:57.081Z</time></trkpt><trkpt lat="45.66937152175693" lon="8.258212355724897"><ele>432.33333333333337</ele><time>2026-04-03T15:23:58.081Z</time></trkpt><trkpt lat="45.6692222072791" lon="8.258288036417717"><ele>432.0</ele><time>2026-04-03T15:23:59.081Z</time></trkpt><trkpt lat="45.66907766899949" lon="8.258400306068785"><ele>432.0</ele><time>2026-04-03T15:24:00.081Z</time></trkpt><trkpt lat="45.66896071036815" lon="8.25855346534869"><ele>432.0</ele><time>2026-04-03T15:24:01.082Z</time></trkpt><trkpt lat="45.66886310303449" lon="8.258738749324403"><ele>432.0</ele><time>2026-04-03T15:24:02.082Z</time></trkpt><trkpt lat="45.668755822274704" lon="8.258899813352906"><ele>434.33333333333337</ele><time>2026-04-03T15:24:03.082Z</time></trkpt><trkpt lat="45.66866509715275" lon="8.259069044894309"><ele>436.6666666666667</ele><time>2026-04-03T15:24:04.082Z</time></trkpt><trkpt lat="45.66858199085353" lon="8.259237865255411"><ele>439.0</ele><time>2026-04-03T15:24:05.082Z</time></trkpt><trkpt lat="45.66876588797265" lon="8.259721802693917"><ele>440.75</ele><time>2026-04-03T15:24:06.082Z</time></trkpt><trkpt lat="45.6687371409338" lon="8.259931515254307"><ele>442.5</ele><time>2026-04-03T15:24:07.082Z</time></trkpt><trkpt lat="45.668680697607265" lon="8.26009692059671"><ele>444.25</ele><time>2026-04-03T15:24:08.082Z</time></trkpt><trkpt lat="45.66858279859363" lon="8.260231661292307"><ele>446.0</ele><time>2026-04-03T15:24:09.082Z</time></trkpt><trkpt lat="45.66844695910799" lon="8.260357246943718"><ele>446.0</ele><time>2026-04-03T15:24:10.082Z</time></trkpt><trkpt lat="45.668286919686615" lon="8.260490498367039"><ele>446.0</ele><time>2026-04-03T15:24:11.082Z</time></trkpt><trkpt lat="45.66811216802032" lon="8.26063505970688"><ele>446.0</ele><time>2026-04-03T15:24:12.082Z</time></trkpt><trkpt lat="45.66793518940348" lon="8.260799915337298"><ele>451.3333333333333</ele><time>2026-04-03T15:24:13.082Z</time></trkpt><trkpt lat="45.66774848497644" lon="8.260958886312357"><ele>456.66666666666663</ele><time>2026-04-03T15:24:14.082Z</time></trkpt><trkpt lat="45.66754566390206" lon="8.26110207589068"><ele>462.0</ele><time>2026-04-03T15:24:15.082Z</time></trkpt><trkpt lat="45.66733465279925" lon="8.261209069222163"><ele>462.0</ele><time>2026-04-03T15:24:16.082Z</time></trkpt><trkpt lat="45.66712842818153" lon="8.261311896116304"><ele>462.0</ele><time>2026-04-03T15:24:17.082Z</time></trkpt><trkpt lat="45.666930450161644" lon="8.261428406890216"><ele>462.0</ele><time>2026-04-03T15:24:18.082Z</time></trkpt><trkpt lat="45.666729930927886" lon="8.261549357559867"><ele>465.0</ele><time>2026-04-03T15:24:19.082Z</time></trkpt><trkpt lat="45.666527600914165" lon="8.26168158511708"><ele>468.0</ele><time>2026-04-03T15:24:20.082Z</time></trkpt><trkpt lat="45.66632320296175" lon="8.261821357129364"><ele>471.0</ele><time>2026-04-03T15:24:21.082Z</time></trkpt><trkpt lat="45.66612552596672" lon="8.261976110123591"><ele>470.0</ele><time>2026-04-03T15:24:22.082Z</time></trkpt><trkpt lat="45.66593969188215" lon="8.262123703652323"><ele>469.0</ele><time>2026-04-03T15:24:23.082Z</time></trkpt><trkpt lat="45.66578202410376" lon="8.262259894393361"><ele>468.0</ele><time>2026-04-03T15:24:24.082Z</time></trkpt><trkpt lat="45.66564289687935" lon="8.26241346123717"><ele>468.0</ele><time>2026-04-03T15:24:25.082Z</time></trkpt><trkpt lat="45.6655184069019" lon="8.262597260282359"><ele>468.0</ele><time>2026-04-03T15:24:26.082Z</time></trkpt><trkpt lat="45.66540224733804" lon="8.262821706559782"><ele>468.0</ele><time>2026-04-03T15:24:27.082Z</time></trkpt><trkpt lat="45.66527441857883" lon="8.263006048898742"><ele>466.66666666666663</ele><time>2026-04-03T15:24:28.082Z</time></trkpt><trkpt lat="45.665113350579624" lon="8.263144951778965"><ele>465.3333333333333</ele><time>2026-04-03T15:24:29.082Z</time></trkpt><trkpt lat="45.66492666961621" lon="8.263263525439369"><ele>464.0</ele><time>2026-04-03T15:24:30.082Z</time></trkpt><trkpt lat="45.66476657960796" lon="8.263368046809646"><ele>464.0</ele><time>2026-04-03T15:24:31.082Z</time></trkpt><trkpt lat="45.66464156487785" lon="8.26348000088628"><ele>464.0</ele><time>2026-04-03T15:24:32.082Z</time></trkpt><trkpt lat="45.66453370352789" lon="8.263636049452796"><ele>464.0</ele><time>2026-04-03T15:24:33.082Z</time></trkpt><trkpt lat="45.66444341075604" lon="8.263835773342786"><ele>460.25</ele><time>2026-04-03T15:24:34.082Z</time></trkpt><trkpt lat="45.66437437034544" lon="8.264024614463093"><ele>456.5</ele><time>2026-04-03T15:24:35.082Z</time></trkpt><trkpt lat="45.66427037840356" lon="8.264153482396786"><ele>452.75</ele><time>2026-04-03T15:24:36.082Z</time></trkpt><trkpt lat="45.66411664566796" lon="8.264213952759023"><ele>449.0</ele><time>2026-04-03T15:24:37.082Z</time></trkpt><trkpt lat="45.66393054494263" lon="8.264264455323074"><ele>449.0</ele><time>2026-04-03T15:24:38.082Z</time></trkpt><trkpt lat="45.66373386417109" lon="8.264327565084725"><ele>449.0</ele><time>2026-04-03T15:24:39.082Z</time></trkpt><trkpt lat="45.66354352884851" lon="8.264409792885374"><ele>449.0</ele><time>2026-04-03T15:24:40.082Z</time></trkpt><trkpt lat="45.66336619920682" lon="8.264531287381281"><ele>451.3333333333333</ele><time>2026-04-03T15:24:41.082Z</time></trkpt><trkpt lat="45.66318021632911" lon="8.264691616670842"><ele>453.66666666666663</ele><time>2026-04-03T15:24:42.082Z</time></trkpt><trkpt lat="45.66299198650341" lon="8.264848958075964"><ele>456.0</ele><time>2026-04-03T15:24:43.082Z</time></trkpt><trkpt lat="45.662806750391695" lon="8.264998771516273"><ele>448.66666666666663</ele><time>2026-04-03T15:24:44.082Z</time></trkpt><trkpt lat="45.662623409054575" lon="8.265144921299827"><ele>441.3333333333333</ele><time>2026-04-03T15:24:45.082Z</time></trkpt><trkpt lat="45.6624359008092" lon="8.265292965283669"><ele>434.0</ele><time>2026-04-03T15:24:46.082Z</time></trkpt><trkpt lat="45.66225032577487" lon="8.265441605450127"><ele>434.0</ele><time>2026-04-03T15:24:47.082Z</time></trkpt><trkpt lat="45.662047915236876" lon="8.26556788859933"><ele>434.0</ele><time>2026-04-03T15:24:48.082Z</time></trkpt><trkpt lat="45.661843389134454" lon="8.265684308629165"><ele>434.0</ele><time>2026-04-03T15:24:49.082Z</time></trkpt><trkpt lat="45.66164276609926" lon="8.265796284895469"><ele>433.66666666666663</ele><time>2026-04-03T15:24:50.082Z</time></trkpt><trkpt lat="45.66144243585696" lon="8.265912239976766"><ele>433.33333333333337</ele><time>2026-04-03T15:24:51.082Z</time></trkpt><trkpt lat="45.661247013781676" lon="8.266036163415281"><ele>433.0</ele><time>2026-04-03T15:24:52.082Z</time></trkpt><trkpt lat="45.66105601611948" lon="8.266163472364683"><ele>434.0</ele><time>2026-04-03T15:24:53.082Z</time></trkpt><trkpt lat="45.66085802191561" lon="8.266298075462213"><ele>435.0</ele><time>2026-04-03T15:24:54.082Z</time></trkpt><trkpt lat="45.66065544178881" lon="8.266437104628283"><ele>436.0</ele><time>2026-04-03T15:24:55.082Z</time></trkpt><trkpt lat="45.66046059877228" lon="8.26657402436898"><ele>427.0</ele><time>2026-04-03T15:24:56.082Z</time></trkpt><trkpt lat="45.660268220193" lon="8.266706977964448"><ele>418.0</ele><time>2026-04-03T15:24:57.082Z</time></trkpt><trkpt lat="45.65986478612085" lon="8.266979149012982"><ele>418.0</ele><time>2026-04-03T15:24:59.082Z</time></trkpt><trkpt lat="45.659670438892384" lon="8.26711614960605"><ele>418.0</ele><time>2026-04-03T15:25:00.082Z</time></trkpt><trkpt lat="45.65948055080997" lon="8.267248739243069"><ele>418.0</ele><time>2026-04-03T15:25:01.082Z</time></trkpt><trkpt lat="45.6592931239181" lon="8.267374275326508"><ele>418.0</ele><time>2026-04-03T15:25:02.082Z</time></trkpt><trkpt lat="45.65911245487162" lon="8.267499320241422"><ele>418.0</ele><time>2026-04-03T15:25:03.082Z</time></trkpt><trkpt lat="45.65893680771967" lon="8.26762079472798"><ele>418.0</ele><time>2026-04-03T15:25:04.082Z</time></trkpt><trkpt lat="45.65876008379946" lon="8.26773518213807"><ele>413.6666666666667</ele><time>2026-04-03T15:25:05.082Z</time></trkpt><trkpt lat="45.658585595024356" lon="8.267844255818547"><ele>409.33333333333337</ele><time>2026-04-03T15:25:06.082Z</time></trkpt><trkpt lat="45.658405747376406" lon="8.267937938476207"><ele>405.0</ele><time>2026-04-03T15:25:07.082Z</time></trkpt><trkpt lat="45.658225091366845" lon="8.268022213711095"><ele>405.0</ele><time>2026-04-03T15:25:08.082Z</time></trkpt><trkpt lat="45.6580462546771" lon="8.268100679761478"><ele>405.0</ele><time>2026-04-03T15:25:09.082Z</time></trkpt><trkpt lat="45.657876328663555" lon="8.268178509581782"><ele>405.0</ele><time>2026-04-03T15:25:10.082Z</time></trkpt><trkpt lat="45.65771802426593" lon="8.268249133858541"><ele>406.0</ele><time>2026-04-03T15:25:11.082Z</time></trkpt><trkpt lat="45.657565152207944" lon="8.268310623334546"><ele>407.0</ele><time>2026-04-03T15:25:12.082Z</time></trkpt><trkpt lat="45.65741670091758" lon="8.268353523503642"><ele>408.0</ele><time>2026-04-03T15:25:13.082Z</time></trkpt><trkpt lat="45.65726973226309" lon="8.26838266309951"><ele>408.0</ele><time>2026-04-03T15:25:14.082Z</time></trkpt><trkpt lat="45.65712358001667" lon="8.268382082455807"><ele>408.0</ele><time>2026-04-03T15:25:15.082Z</time></trkpt><trkpt lat="45.65696928369656" lon="8.268350896334391"><ele>408.0</ele><time>2026-04-03T15:25:16.082Z</time></trkpt><trkpt lat="45.65681297979549" lon="8.268291358419116"><ele>408.0</ele><time>2026-04-03T15:25:17.082Z</time></trkpt><trkpt lat="45.656662690833976" lon="8.26820737219482"><ele>408.0</ele><time>2026-04-03T15:25:18.082Z</time></trkpt><trkpt lat="45.65651961324027" lon="8.268120713679354"><ele>408.0</ele><time>2026-04-03T15:25:19.082Z</time></trkpt><trkpt lat="45.65638345306398" lon="8.268034832005574"><ele>406.0</ele><time>2026-04-03T15:25:20.082Z</time></trkpt><trkpt lat="45.656252472788005" lon="8.2679495165037"><ele>404.0</ele><time>2026-04-03T15:25:21.082Z</time></trkpt><trkpt lat="45.65612480217418" lon="8.267865329921719"><ele>402.0</ele><time>2026-04-03T15:25:22.082Z</time></trkpt><trkpt lat="45.65599123595526" lon="8.267777733390364"><ele>400.0</ele><time>2026-04-03T15:25:23.082Z</time></trkpt><trkpt lat="45.655850067068016" lon="8.267686458253825"><ele>400.0</ele><time>2026-04-03T15:25:24.082Z</time></trkpt><trkpt lat="45.655700534364776" lon="8.267582566810775"><ele>400.0</ele><time>2026-04-03T15:25:25.082Z</time></trkpt><trkpt lat="45.65554212411641" lon="8.267472196434545"><ele>400.0</ele><time>2026-04-03T15:25:26.082Z</time></trkpt><trkpt lat="45.655378261009346" lon="8.267359156115054"><ele>397.33333333333337</ele><time>2026-04-03T15:25:27.082Z</time></trkpt><trkpt lat="45.655205426368255" lon="8.267241702373656"><ele>394.66666666666663</ele><time>2026-04-03T15:25:28.082Z</time></trkpt><trkpt lat="45.65503459060587" lon="8.267126145893943"><ele>392.0</ele><time>2026-04-03T15:25:29.084Z</time></trkpt><trkpt lat="45.6548692541268" lon="8.267014306327662"><ele>392.0</ele><time>2026-04-03T15:25:30.084Z</time></trkpt><trkpt lat="45.654703493043115" lon="8.26690108456126"><ele>392.0</ele><time>2026-04-03T15:25:31.084Z</time></trkpt><trkpt lat="45.6545306018347" lon="8.266787305007039"><ele>392.0</ele><time>2026-04-03T15:25:32.084Z</time></trkpt><trkpt lat="45.65435599307424" lon="8.266672865198268"><ele>390.66666666666663</ele><time>2026-04-03T15:25:33.084Z</time></trkpt><trkpt lat="45.65417588793962" lon="8.266561921927563"><ele>389.33333333333337</ele><time>2026-04-03T15:25:34.084Z</time></trkpt><trkpt lat="45.653991785324585" lon="8.26646312110518"><ele>388.0</ele><time>2026-04-03T15:25:35.084Z</time></trkpt><trkpt lat="45.65380224773797" lon="8.266382110440102"><ele>389.33333333333337</ele><time>2026-04-03T15:25:36.084Z</time></trkpt><trkpt lat="45.653610375002906" lon="8.2663147192868"><ele>390.66666666666663</ele><time>2026-04-03T15:25:37.084Z</time></trkpt><trkpt lat="45.65343111767403" lon="8.26626183003351"><ele>392.0</ele><time>2026-04-03T15:25:38.085Z</time></trkpt><trkpt lat="45.6532618508293" lon="8.266230440152754"><ele>392.0</ele><time>2026-04-03T15:25:39.085Z</time></trkpt><trkpt lat="45.65309738255448" lon="8.26620331111678"><ele>392.0</ele><time>2026-04-03T15:25:40.085Z</time></trkpt><trkpt lat="45.652936826011825" lon="8.26616899998059"><ele>392.0</ele><time>2026-04-03T15:25:41.084Z</time></trkpt><trkpt lat="45.65277755535287" lon="8.26613495674304"><ele>393.66666666666663</ele><time>2026-04-03T15:25:42.084Z</time></trkpt><trkpt lat="45.652622318561086" lon="8.266099675432066"><ele>395.33333333333337</ele><time>2026-04-03T15:25:43.084Z</time></trkpt><trkpt lat="45.652472543808614" lon="8.26608285166061"><ele>397.0</ele><time>2026-04-03T15:25:44.084Z</time></trkpt><trkpt lat="45.652325814149116" lon="8.266088167586997"><ele>397.0</ele><time>2026-04-03T15:25:45.084Z</time></trkpt><trkpt lat="45.652182736979036" lon="8.266117894706479"><ele>397.0</ele><time>2026-04-03T15:25:46.084Z</time></trkpt><trkpt lat="45.652042805209106" lon="8.266174685528817"><ele>397.0</ele><time>2026-04-03T15:25:47.084Z</time></trkpt><trkpt lat="45.651898234073634" lon="8.266250997684454"><ele>397.0</ele><time>2026-04-03T15:25:48.084Z</time></trkpt><trkpt lat="45.65175799553898" lon="8.26633918800892"><ele>398.5</ele><time>2026-04-03T15:25:49.084Z</time></trkpt><trkpt lat="45.65163929526089" lon="8.26646525831164"><ele>400.0</ele><time>2026-04-03T15:25:50.084Z</time></trkpt><trkpt lat="45.651537092634655" lon="8.266607739178227"><ele>401.5</ele><time>2026-04-03T15:25:51.084Z</time></trkpt><trkpt lat="45.651443080782215" lon="8.266755235635516"><ele>403.0</ele><time>2026-04-03T15:25:52.084Z</time></trkpt><trkpt lat="45.65136161194739" lon="8.266911373536495"><ele>403.0</ele><time>2026-04-03T15:25:53.084Z</time></trkpt><trkpt lat="45.65128527533811" lon="8.267095011615195"><ele>403.0</ele><time>2026-04-03T15:25:54.084Z</time></trkpt><trkpt lat="45.65122112721171" lon="8.267293332078"><ele>403.0</ele><time>2026-04-03T15:25:55.084Z</time></trkpt><trkpt lat="45.65116169480628" lon="8.267490654533876"><ele>400.5</ele><time>2026-04-03T15:25:56.084Z</time></trkpt><trkpt lat="45.65110315957793" lon="8.267690442472569"><ele>398.0</ele><time>2026-04-03T15:25:57.084Z</time></trkpt><trkpt lat="45.651047474233394" lon="8.267882114990291"><ele>395.5</ele><time>2026-04-03T15:25:58.084Z</time></trkpt><trkpt lat="45.65099409664393" lon="8.268072728757954"><ele>393.0</ele><time>2026-04-03T15:25:59.084Z</time></trkpt><trkpt lat="45.65094489017767" lon="8.268259245330423"><ele>393.0</ele><time>2026-04-03T15:26:00.084Z</time></trkpt><trkpt lat="45.6508945930684" lon="8.268448838297207"><ele>393.0</ele><time>2026-04-03T15:26:01.084Z</time></trkpt><trkpt lat="45.65084245479592" lon="8.268636214750389"><ele>393.0</ele><time>2026-04-03T15:26:02.084Z</time></trkpt><trkpt lat="45.65079095861253" lon="8.268820104335495"><ele>393.0</ele><time>2026-04-03T15:26:03.084Z</time></trkpt><trkpt lat="45.65073811919384" lon="8.269003095019025"><ele>393.0</ele><time>2026-04-03T15:26:04.084Z</time></trkpt><trkpt lat="45.650684318023906" lon="8.26919092422319"><ele>393.0</ele><time>2026-04-03T15:26:05.084Z</time></trkpt><trkpt lat="45.650629327159166" lon="8.269386838498962"><ele>393.0</ele><time>2026-04-03T15:26:06.084Z</time></trkpt><trkpt lat="45.6505716817105" lon="8.269593219889474"><ele>393.0</ele><time>2026-04-03T15:26:07.084Z</time></trkpt><trkpt lat="45.650510487286155" lon="8.269809362449324"><ele>394.33333333333337</ele><time>2026-04-03T15:26:08.084Z</time></trkpt><trkpt lat="45.650448132276054" lon="8.270029793009167"><ele>395.6666666666667</ele><time>2026-04-03T15:26:09.084Z</time></trkpt><trkpt lat="45.650386840824424" lon="8.270258711289033"><ele>397.0</ele><time>2026-04-03T15:26:10.084Z</time></trkpt><trkpt lat="45.65032399582053" lon="8.270498748810471"><ele>394.6666666666667</ele><time>2026-04-03T15:26:11.084Z</time></trkpt><trkpt lat="45.65025787398547" lon="8.27076166777365"><ele>392.33333333333337</ele><time>2026-04-03T15:26:12.085Z</time></trkpt><trkpt lat="45.65019165782134" lon="8.271029712985783"><ele>390.0</ele><time>2026-04-03T15:26:13.085Z</time></trkpt><trkpt lat="45.65011573239494" lon="8.271285409664499"><ele>389.33333333333337</ele><time>2026-04-03T15:26:14.085Z</time></trkpt><trkpt lat="45.65004488818769" lon="8.271529537475686"><ele>388.6666666666667</ele><time>2026-04-03T15:26:15.085Z</time></trkpt><trkpt lat="45.64997866715676" lon="8.271758803795517"><ele>388.0</ele><time>2026-04-03T15:26:16.085Z</time></trkpt><trkpt lat="45.649914349148276" lon="8.271976113532476"><ele>388.0</ele><time>2026-04-03T15:26:17.085Z</time></trkpt><trkpt lat="45.64985656014548" lon="8.272182598208335"><ele>388.0</ele><time>2026-04-03T15:26:18.085Z</time></trkpt><trkpt lat="45.64980095073733" lon="8.272383358413954"><ele>388.0</ele><time>2026-04-03T15:26:19.085Z</time></trkpt><trkpt lat="45.64974209363696" lon="8.272598306164902"><ele>387.6666666666667</ele><time>2026-04-03T15:26:20.085Z</time></trkpt><trkpt lat="45.64967871730545" lon="8.272839407489089"><ele>387.33333333333337</ele><time>2026-04-03T15:26:21.085Z</time></trkpt><trkpt lat="45.64960352106093" lon="8.273106424872605"><ele>387.0</ele><time>2026-04-03T15:26:22.085Z</time></trkpt><trkpt lat="45.649527509133804" lon="8.273383021064706"><ele>384.6666666666667</ele><time>2026-04-03T15:26:23.085Z</time></trkpt><trkpt lat="45.649451496701396" lon="8.273651510771254"><ele>382.33333333333337</ele><time>2026-04-03T15:26:24.085Z</time></trkpt><trkpt lat="45.64937240531856" lon="8.273900912923093"><ele>380.0</ele><time>2026-04-03T15:26:25.085Z</time></trkpt><trkpt lat="45.64930178502041" lon="8.274137495246768"><ele>379.0</ele><time>2026-04-03T15:26:26.085Z</time></trkpt><trkpt lat="45.64924051012182" lon="8.274361484594515"><ele>378.0</ele><time>2026-04-03T15:26:27.085Z</time></trkpt><trkpt lat="45.64918055043226" lon="8.274568966647294"><ele>377.0</ele><time>2026-04-03T15:26:28.085Z</time></trkpt><trkpt lat="45.64911543297963" lon="8.27475538225623"><ele>376.25</ele><time>2026-04-03T15:26:29.085Z</time></trkpt><trkpt lat="45.649035502073616" lon="8.274920748015575"><ele>375.5</ele><time>2026-04-03T15:26:30.085Z</time></trkpt><trkpt lat="45.648940622916975" lon="8.275059616301526"><ele>374.75</ele><time>2026-04-03T15:26:31.085Z</time></trkpt><trkpt lat="45.64883186904605" lon="8.275168259748495"><ele>374.0</ele><time>2026-04-03T15:26:32.085Z</time></trkpt><trkpt lat="45.64871275565375" lon="8.275247586648192"><ele>373.25</ele><time>2026-04-03T15:26:33.085Z</time></trkpt><trkpt lat="45.6485872831849" lon="8.275299000423802"><ele>372.5</ele><time>2026-04-03T15:26:34.085Z</time></trkpt><trkpt lat="45.64845598244652" lon="8.275326570503246"><ele>371.75</ele><time>2026-04-03T15:26:35.085Z</time></trkpt><trkpt lat="45.64832162143166" lon="8.275330217296881"><ele>371.0</ele><time>2026-04-03T15:26:36.085Z</time></trkpt><trkpt lat="45.64818852794086" lon="8.275305951980942"><ele>371.0</ele><time>2026-04-03T15:26:37.085Z</time></trkpt><trkpt lat="45.648058560113675" lon="8.27525692852569"><ele>371.0</ele><time>2026-04-03T15:26:38.085Z</time></trkpt><trkpt lat="45.64792741885411" lon="8.275182798216232"><ele>371.0</ele><time>2026-04-03T15:26:39.085Z</time></trkpt><trkpt lat="45.647794377594124" lon="8.275086037676534"><ele>371.0</ele><time>2026-04-03T15:26:40.085Z</time></trkpt><trkpt lat="45.64766412492027" lon="8.274967222728513"><ele>372.0</ele><time>2026-04-03T15:26:41.085Z</time></trkpt><trkpt lat="45.64753271866474" lon="8.274833883527833"><ele>373.0</ele><time>2026-04-03T15:26:42.085Z</time></trkpt><trkpt lat="45.64740285935353" lon="8.274693457823208"><ele>374.0</ele><time>2026-04-03T15:26:43.085Z</time></trkpt><trkpt lat="45.64727284247531" lon="8.274564503351387"><ele>374.0</ele><time>2026-04-03T15:26:44.085Z</time></trkpt><trkpt lat="45.647147232035564" lon="8.274441341399632"><ele>374.0</ele><time>2026-04-03T15:26:45.085Z</time></trkpt><trkpt lat="45.64703179738629" lon="8.274326152011511"><ele>374.0</ele><time>2026-04-03T15:26:46.085Z</time></trkpt><trkpt lat="45.646918916324026" lon="8.2742260119404"><ele>374.0</ele><time>2026-04-03T15:26:47.085Z</time></trkpt><trkpt lat="45.64681058825842" lon="8.274142880323252"><ele>374.0</ele><time>2026-04-03T15:26:48.085Z</time></trkpt><trkpt lat="45.64670561096257" lon="8.27408857025705"><ele>374.0</ele><time>2026-04-03T15:26:49.085Z</time></trkpt><trkpt lat="45.64659553451084" lon="8.27407203916094"><ele>374.0</ele><time>2026-04-03T15:26:50.085Z</time></trkpt><trkpt lat="45.64647164747034" lon="8.274085502094715"><ele>374.0</ele><time>2026-04-03T15:26:51.085Z</time></trkpt><trkpt lat="45.646339537434436" lon="8.2741217383516"><ele>374.0</ele><time>2026-04-03T15:26:52.085Z</time></trkpt><trkpt lat="45.64621008434724" lon="8.274166888570777"><ele>374.0</ele><time>2026-04-03T15:26:53.085Z</time></trkpt><trkpt lat="45.6460809019371" lon="8.274208286811934"><ele>374.0</ele><time>2026-04-03T15:26:54.085Z</time></trkpt><trkpt lat="45.64595883975655" lon="8.274229313738582"><ele>374.0</ele><time>2026-04-03T15:26:55.085Z</time></trkpt><trkpt lat="45.64584169269981" lon="8.27422368699355"><ele>372.5</ele><time>2026-04-03T15:26:56.085Z</time></trkpt><trkpt lat="45.64572164157182" lon="8.274196371311426"><ele>371.0</ele><time>2026-04-03T15:26:57.085Z</time></trkpt><trkpt lat="45.64559384512145" lon="8.274139607900944"><ele>369.5</ele><time>2026-04-03T15:26:58.085Z</time></trkpt><trkpt lat="45.64546433967936" lon="8.27405696263089"><ele>368.0</ele><time>2026-04-03T15:26:59.085Z</time></trkpt><trkpt lat="45.64534037828226" lon="8.273950065838095"><ele>367.5</ele><time>2026-04-03T15:27:00.085Z</time></trkpt><trkpt lat="45.64521843303041" lon="8.273829191317853"><ele>367.0</ele><time>2026-04-03T15:27:01.085Z</time></trkpt><trkpt lat="45.6451005868434" lon="8.27371406112446"><ele>366.5</ele><time>2026-04-03T15:27:02.085Z</time></trkpt><trkpt lat="45.644986660983975" lon="8.273611195312608"><ele>366.0</ele><time>2026-04-03T15:27:03.085Z</time></trkpt><trkpt lat="45.64486438191042" lon="8.27354051375061"><ele>366.0</ele><time>2026-04-03T15:27:04.085Z</time></trkpt><trkpt lat="45.64473648357246" lon="8.273493288655766"><ele>366.0</ele><time>2026-04-03T15:27:05.085Z</time></trkpt><trkpt lat="45.64459920160363" lon="8.273477564109177"><ele>366.0</ele><time>2026-04-03T15:27:06.085Z</time></trkpt><trkpt lat="45.64445199325526" lon="8.273488250777218"><ele>366.0</ele><time>2026-04-03T15:27:07.085Z</time></trkpt><trkpt lat="45.64430261699054" lon="8.27350764085483"><ele>365.75</ele><time>2026-04-03T15:27:08.085Z</time></trkpt><trkpt lat="45.644160265855284" lon="8.273528564481365"><ele>365.5</ele><time>2026-04-03T15:27:09.085Z</time></trkpt><trkpt lat="45.64401043033658" lon="8.273538816195428"><ele>365.25</ele><time>2026-04-03T15:27:10.085Z</time></trkpt><trkpt lat="45.643870438896336" lon="8.273527562849853"><ele>365.0</ele><time>2026-04-03T15:27:11.085Z</time></trkpt><trkpt lat="45.64372961393807" lon="8.273475239473223"><ele>364.0</ele><time>2026-04-03T15:27:12.085Z</time></trkpt><trkpt lat="45.64359039324868" lon="8.273418053727317"><ele>363.0</ele><time>2026-04-03T15:27:13.085Z</time></trkpt><trkpt lat="45.643450249946966" lon="8.273360793458808"><ele>362.0</ele><time>2026-04-03T15:27:14.085Z</time></trkpt><trkpt lat="45.64331072317805" lon="8.273299858142941"><ele>361.0</ele><time>2026-04-03T15:27:15.085Z</time></trkpt><trkpt lat="45.643175134471804" lon="8.273244563282056"><ele>361.0</ele><time>2026-04-03T15:27:16.085Z</time></trkpt><trkpt lat="45.64304187275995" lon="8.273187155778528"><ele>361.0</ele><time>2026-04-03T15:27:17.085Z</time></trkpt><trkpt lat="45.642905291238165" lon="8.27315259581855"><ele>361.0</ele><time>2026-04-03T15:27:18.085Z</time></trkpt><trkpt lat="45.642764614167916" lon="8.273150486815103"><ele>361.0</ele><time>2026-04-03T15:27:19.085Z</time></trkpt><trkpt lat="45.642619019614166" lon="8.273173871039948"><ele>360.5</ele><time>2026-04-03T15:27:20.085Z</time></trkpt><trkpt lat="45.64247140903306" lon="8.273212224152347"><ele>360.0</ele><time>2026-04-03T15:27:21.085Z</time></trkpt><trkpt lat="45.64232671695263" lon="8.273255442471077"><ele>359.5</ele><time>2026-04-03T15:27:22.085Z</time></trkpt><trkpt lat="45.642186742787615" lon="8.27330468350014"><ele>359.0</ele><time>2026-04-03T15:27:23.085Z</time></trkpt><trkpt lat="45.642054581045244" lon="8.273342504327605"><ele>358.5</ele><time>2026-04-03T15:27:24.085Z</time></trkpt><trkpt lat="45.64192267218236" lon="8.273379645017512"><ele>358.0</ele><time>2026-04-03T15:27:25.085Z</time></trkpt><trkpt lat="45.641791274543294" lon="8.273420719582834"><ele>357.5</ele><time>2026-04-03T15:27:26.085Z</time></trkpt><trkpt lat="45.641667217048486" lon="8.273459260959138"><ele>357.0</ele><time>2026-04-03T15:27:27.085Z</time></trkpt><trkpt lat="45.641556114597215" lon="8.273488410710197"><ele>357.0</ele><time>2026-04-03T15:27:28.085Z</time></trkpt><trkpt lat="45.64144933430949" lon="8.273510122255969"><ele>357.0</ele><time>2026-04-03T15:27:29.085Z</time></trkpt><trkpt lat="45.64135033754253" lon="8.273496572747147"><ele>357.0</ele><time>2026-04-03T15:27:30.085Z</time></trkpt><trkpt lat="45.64126085106988" lon="8.273438187949067"><ele>357.0</ele><time>2026-04-03T15:27:31.085Z</time></trkpt><trkpt lat="45.64118234963302" lon="8.27333958746475"><ele>357.0</ele><time>2026-04-03T15:27:32.085Z</time></trkpt><trkpt lat="45.64111416225835" lon="8.273217675096138"><ele>356.0</ele><time>2026-04-03T15:27:33.085Z</time></trkpt><trkpt lat="45.64105583490587" lon="8.273080347453064"><ele>355.0</ele><time>2026-04-03T15:27:34.085Z</time></trkpt><trkpt lat="45.64100146106397" lon="8.272945870110377"><ele>354.0</ele><time>2026-04-03T15:27:35.088Z</time></trkpt><trkpt lat="45.64093885405212" lon="8.272831125896303"><ele>353.0</ele><time>2026-04-03T15:27:36.088Z</time></trkpt><trkpt lat="45.6408592919015" lon="8.272743129483214"><ele>352.0</ele><time>2026-04-03T15:27:37.088Z</time></trkpt><trkpt lat="45.640757981481244" lon="8.27268779234009"><ele>352.0</ele><time>2026-04-03T15:27:38.088Z</time></trkpt><trkpt lat="45.64064390470464" lon="8.272672942916879"><ele>352.0</ele><time>2026-04-03T15:27:39.088Z</time></trkpt><trkpt lat="45.64052954196737" lon="8.272690142492287"><ele>352.0</ele><time>2026-04-03T15:27:40.088Z</time></trkpt><trkpt lat="45.64042367651544" lon="8.272741829553908"><ele>352.0</ele><time>2026-04-03T15:27:41.088Z</time></trkpt><trkpt lat="45.640325975436305" lon="8.272817173541402"><ele>351.20000000000005</ele><time>2026-04-03T15:27:42.087Z</time></trkpt><trkpt lat="45.64023173362169" lon="8.272893487108826"><ele>350.4</ele><time>2026-04-03T15:27:43.087Z</time></trkpt><trkpt lat="45.64013284946944" lon="8.272949923453076"><ele>349.6</ele><time>2026-04-03T15:27:44.088Z</time></trkpt><trkpt lat="45.640024651355354" lon="8.27298142993812"><ele>348.79999999999995</ele><time>2026-04-03T15:27:45.087Z</time></trkpt><trkpt lat="45.63990895560463" lon="8.272969763209895"><ele>348.0</ele><time>2026-04-03T15:27:46.087Z</time></trkpt><trkpt lat="45.6397919495327" lon="8.27291846710246"><ele>348.0</ele><time>2026-04-03T15:27:47.088Z</time></trkpt><trkpt lat="45.63968575271712" lon="8.272833535444324"><ele>348.0</ele><time>2026-04-03T15:27:48.088Z</time></trkpt><trkpt lat="45.63957803835394" lon="8.272723402249415"><ele>348.0</ele><time>2026-04-03T15:27:49.088Z</time></trkpt><trkpt lat="45.63946718185503" lon="8.272607840951055"><ele>348.0</ele><time>2026-04-03T15:27:50.088Z</time></trkpt><trkpt lat="45.639357824145854" lon="8.272484359379156"><ele>346.5</ele><time>2026-04-03T15:27:51.088Z</time></trkpt><trkpt lat="45.63924907794572" lon="8.272367337521654"><ele>345.0</ele><time>2026-04-03T15:27:52.088Z</time></trkpt><trkpt lat="45.63914145330581" lon="8.272251202535584"><ele>343.5</ele><time>2026-04-03T15:27:53.088Z</time></trkpt><trkpt lat="45.63903540025503" lon="8.272129316433707"><ele>342.0</ele><time>2026-04-03T15:27:54.088Z</time></trkpt><trkpt lat="45.6389252835068" lon="8.272016390749577"><ele>342.0</ele><time>2026-04-03T15:27:55.088Z</time></trkpt><trkpt lat="45.63880661335556" lon="8.271922525467872"><ele>342.0</ele><time>2026-04-03T15:27:56.088Z</time></trkpt><trkpt lat="45.63867769756185" lon="8.27186363508296"><ele>342.0</ele><time>2026-04-03T15:27:57.088Z</time></trkpt><trkpt lat="45.63854226886905" lon="8.27183269720241"><ele>342.0</ele><time>2026-04-03T15:27:58.088Z</time></trkpt><trkpt lat="45.638394538041105" lon="8.271817441808725"><ele>341.0</ele><time>2026-04-03T15:27:59.088Z</time></trkpt><trkpt lat="45.63824751268424" lon="8.271802664972373"><ele>340.0</ele><time>2026-04-03T15:28:00.088Z</time></trkpt><trkpt lat="45.63809599224661" lon="8.271791352300564"><ele>339.0</ele><time>2026-04-03T15:28:01.088Z</time></trkpt><trkpt lat="45.637945994360415" lon="8.271778542668521"><ele>338.0</ele><time>2026-04-03T15:28:02.088Z</time></trkpt><trkpt lat="45.63780585403664" lon="8.271771868560087"><ele>337.75</ele><time>2026-04-03T15:28:03.088Z</time></trkpt><trkpt lat="45.637668974135856" lon="8.271767508566029"><ele>337.5</ele><time>2026-04-03T15:28:04.088Z</time></trkpt><trkpt lat="45.637532994103296" lon="8.271779194723221"><ele>337.25</ele><time>2026-04-03T15:28:05.088Z</time></trkpt><trkpt lat="45.63740412669816" lon="8.271817085223251"><ele>337.0</ele><time>2026-04-03T15:28:06.088Z</time></trkpt><trkpt lat="45.63727819755597" lon="8.27187579532971"><ele>337.0</ele><time>2026-04-03T15:28:07.088Z</time></trkpt><trkpt lat="45.63714290758332" lon="8.271960697183706"><ele>337.0</ele><time>2026-04-03T15:28:08.088Z</time></trkpt><trkpt lat="45.6369983536911" lon="8.27206337280512"><ele>337.0</ele><time>2026-04-03T15:28:09.088Z</time></trkpt><trkpt lat="45.63685842726358" lon="8.272162194410479"><ele>337.25</ele><time>2026-04-03T15:28:10.088Z</time></trkpt><trkpt lat="45.6367308896253" lon="8.272252947263368"><ele>337.5</ele><time>2026-04-03T15:28:11.088Z</time></trkpt><trkpt lat="45.63660975501981" lon="8.272343824509145"><ele>337.75</ele><time>2026-04-03T15:28:12.088Z</time></trkpt><trkpt lat="45.63648624887256" lon="8.272425075542364"><ele>338.0</ele><time>2026-04-03T15:28:13.088Z</time></trkpt><trkpt lat="45.63636641499251" lon="8.272505727669675"><ele>338.75</ele><time>2026-04-03T15:28:14.088Z</time></trkpt><trkpt lat="45.636258974147445" lon="8.27260042232953"><ele>339.5</ele><time>2026-04-03T15:28:15.088Z</time></trkpt><trkpt lat="45.63617021853144" lon="8.272720957488676"><ele>340.25</ele><time>2026-04-03T15:28:16.088Z</time></trkpt><trkpt lat="45.636094982939866" lon="8.272864565733657"><ele>341.0</ele><time>2026-04-03T15:28:17.088Z</time></trkpt><trkpt lat="45.636019466055565" lon="8.273029954248639"><ele>338.0</ele><time>2026-04-03T15:28:18.088Z</time></trkpt><trkpt lat="45.6359512300987" lon="8.273206458623159"><ele>335.0</ele><time>2026-04-03T15:28:19.088Z</time></trkpt><trkpt lat="45.63588523785717" lon="8.273385254664696"><ele>332.0</ele><time>2026-04-03T15:28:20.088Z</time></trkpt><trkpt lat="45.63581883884574" lon="8.273548256812896"><ele>329.0</ele><time>2026-04-03T15:28:21.088Z</time></trkpt><trkpt lat="45.63575281768932" lon="8.27369434807106"><ele>329.0</ele><time>2026-04-03T15:28:22.088Z</time></trkpt><trkpt lat="45.635680254678874" lon="8.273824334620409"><ele>329.0</ele><time>2026-04-03T15:28:23.088Z</time></trkpt><trkpt lat="45.63559918038392" lon="8.273924597057126"><ele>329.0</ele><time>2026-04-03T15:28:24.088Z</time></trkpt><trkpt lat="45.63550351677802" lon="8.27398816767923"><ele>329.0</ele><time>2026-04-03T15:28:25.088Z</time></trkpt><trkpt lat="45.635378155426515" lon="8.27401108496037"><ele>328.25</ele><time>2026-04-03T15:28:26.088Z</time></trkpt><trkpt lat="45.63524136928608" lon="8.27400971091233"><ele>327.5</ele><time>2026-04-03T15:28:27.088Z</time></trkpt><trkpt lat="45.63509454280733" lon="8.273981794936232"><ele>326.75</ele><time>2026-04-03T15:28:28.088Z</time></trkpt><trkpt lat="45.63494890150314" lon="8.273938686278743"><ele>326.0</ele><time>2026-04-03T15:28:29.088Z</time></trkpt><trkpt lat="45.63479976333983" lon="8.273888212477287"><ele>326.0</ele><time>2026-04-03T15:28:30.088Z</time></trkpt><trkpt lat="45.63465417896926" lon="8.273828752505509"><ele>326.0</ele><time>2026-04-03T15:28:31.088Z</time></trkpt><trkpt lat="45.63451437200656" lon="8.273759921056921"><ele>326.0</ele><time>2026-04-03T15:28:32.088Z</time></trkpt><trkpt lat="45.63437520367806" lon="8.273671516883757"><ele>326.0</ele><time>2026-04-03T15:28:33.088Z</time></trkpt><trkpt lat="45.63423417312961" lon="8.273576370633767"><ele>326.0</ele><time>2026-04-03T15:28:34.088Z</time></trkpt><trkpt lat="45.63409119447095" lon="8.273483503256879"><ele>326.0</ele><time>2026-04-03T15:28:35.088Z</time></trkpt><trkpt lat="45.63395048274788" lon="8.273389094631494"><ele>326.0</ele><time>2026-04-03T15:28:36.088Z</time></trkpt><trkpt lat="45.633806401842165" lon="8.27331358161983"><ele>326.0</ele><time>2026-04-03T15:28:37.088Z</time></trkpt><trkpt lat="45.63366061645397" lon="8.273254904766027"><ele>326.0</ele><time>2026-04-03T15:28:38.088Z</time></trkpt><trkpt lat="45.63351261378234" lon="8.273224200225622"><ele>325.6666666666667</ele><time>2026-04-03T15:28:39.088Z</time></trkpt><trkpt lat="45.63336472759559" lon="8.273218906229733"><ele>325.3333333333333</ele><time>2026-04-03T15:28:40.088Z</time></trkpt><trkpt lat="45.63321544584637" lon="8.27323604140069"><ele>325.0</ele><time>2026-04-03T15:28:41.088Z</time></trkpt><trkpt lat="45.63306513804601" lon="8.273276134489446"><ele>325.0</ele><time>2026-04-03T15:28:42.088Z</time></trkpt><trkpt lat="45.632917358688196" lon="8.273337816492354"><ele>325.0</ele><time>2026-04-03T15:28:43.088Z</time></trkpt><trkpt lat="45.63277788577723" lon="8.273419755694627"><ele>325.0</ele><time>2026-04-03T15:28:44.088Z</time></trkpt><trkpt lat="45.63264371926401" lon="8.273525887151841"><ele>326.0</ele><time>2026-04-03T15:28:45.088Z</time></trkpt><trkpt lat="45.632511124085376" lon="8.273638273038602"><ele>327.0</ele><time>2026-04-03T15:28:46.088Z</time></trkpt><trkpt lat="45.632375811091215" lon="8.273740113953188"><ele>328.0</ele><time>2026-04-03T15:28:47.088Z</time></trkpt><trkpt lat="45.632239471798165" lon="8.273831978342814"><ele>328.0</ele><time>2026-04-03T15:28:48.088Z</time></trkpt><trkpt lat="45.632106827446826" lon="8.27392791694619"><ele>328.0</ele><time>2026-04-03T15:28:49.088Z</time></trkpt><trkpt lat="45.63197756193033" lon="8.27402311876298"><ele>328.0</ele><time>2026-04-03T15:28:50.088Z</time></trkpt><trkpt lat="45.63185157405016" lon="8.274121067574198"><ele>328.0</ele><time>2026-04-03T15:28:51.088Z</time></trkpt><trkpt lat="45.63173135568145" lon="8.274230977727466"><ele>324.75</ele><time>2026-04-03T15:28:52.088Z</time></trkpt><trkpt lat="45.63162901681059" lon="8.274355180128882"><ele>321.5</ele><time>2026-04-03T15:28:53.088Z</time></trkpt><trkpt lat="45.63153554660823" lon="8.274506809113275"><ele>318.25</ele><time>2026-04-03T15:28:54.088Z</time></trkpt><trkpt lat="45.63146679667826" lon="8.274683477661805"><ele>315.0</ele><time>2026-04-03T15:28:55.088Z</time></trkpt><trkpt lat="45.631419268511905" lon="8.274899795700076"><ele>314.0</ele><time>2026-04-03T15:28:56.088Z</time></trkpt><trkpt lat="45.63137602563888" lon="8.275138281631527"><ele>313.0</ele><time>2026-04-03T15:28:57.088Z</time></trkpt><trkpt lat="45.63133707164044" lon="8.275414569197967"><ele>312.0</ele><time>2026-04-03T15:28:58.088Z</time></trkpt><trkpt lat="45.63129685351873" lon="8.275717346399253"><ele>311.0</ele><time>2026-04-03T15:28:59.088Z</time></trkpt><trkpt lat="45.63125099855318" lon="8.276042738777988"><ele>310.0</ele><time>2026-04-03T15:29:00.088Z</time></trkpt><trkpt lat="45.6311997771635" lon="8.276367268450434"><ele>309.66666666666663</ele><time>2026-04-03T15:29:01.088Z</time></trkpt><trkpt lat="45.63115148923755" lon="8.276668672458602"><ele>309.3333333333333</ele><time>2026-04-03T15:29:02.088Z</time></trkpt><trkpt lat="45.6311105162118" lon="8.276955106055608"><ele>309.0</ele><time>2026-04-03T15:29:03.088Z</time></trkpt><trkpt lat="45.63107128439282" lon="8.27722391123785"><ele>309.6666666666667</ele><time>2026-04-03T15:29:04.088Z</time></trkpt><trkpt lat="45.6310307000014" lon="8.277471176034632"><ele>310.33333333333337</ele><time>2026-04-03T15:29:05.088Z</time></trkpt><trkpt lat="45.63097617929439" lon="8.277693362925874"><ele>311.0</ele><time>2026-04-03T15:29:06.088Z</time></trkpt><trkpt lat="45.63089141634954" lon="8.27788785195646"><ele>311.0</ele><time>2026-04-03T15:29:07.088Z</time></trkpt><trkpt lat="45.63076259889583" lon="8.278060603289118"><ele>311.0</ele><time>2026-04-03T15:29:08.088Z</time></trkpt><trkpt lat="45.63061303799679" lon="8.278217921145682"><ele>311.0</ele><time>2026-04-03T15:29:09.088Z</time></trkpt><trkpt lat="45.630461804859046" lon="8.278385853562375"><ele>310.0</ele><time>2026-04-03T15:29:10.089Z</time></trkpt><trkpt lat="45.63031846509771" lon="8.27855135967971"><ele>309.0</ele><time>2026-04-03T15:29:11.089Z</time></trkpt><trkpt lat="45.630179571157555" lon="8.278711880483218"><ele>308.0</ele><time>2026-04-03T15:29:12.089Z</time></trkpt><trkpt lat="45.6300486492418" lon="8.278868628437555"><ele>310.6666666666667</ele><time>2026-04-03T15:29:13.089Z</time></trkpt><trkpt lat="45.629915955096166" lon="8.279019924587143"><ele>313.3333333333333</ele><time>2026-04-03T15:29:14.089Z</time></trkpt><trkpt lat="45.629780756993455" lon="8.27917573794278"><ele>316.0</ele><time>2026-04-03T15:29:15.089Z</time></trkpt><trkpt lat="45.6296477006316" lon="8.279333684741104"><ele>316.0</ele><time>2026-04-03T15:29:16.089Z</time></trkpt><trkpt lat="45.629515835873505" lon="8.279489096473105"><ele>316.0</ele><time>2026-04-03T15:29:17.089Z</time></trkpt><trkpt lat="45.62938982496324" lon="8.279642812670367"><ele>316.0</ele><time>2026-04-03T15:29:18.089Z</time></trkpt><trkpt lat="45.62926525440635" lon="8.279793427355655"><ele>313.66666666666663</ele><time>2026-04-03T15:29:19.089Z</time></trkpt><trkpt lat="45.62913790259647" lon="8.279935849855349"><ele>311.3333333333333</ele><time>2026-04-03T15:29:20.089Z</time></trkpt><trkpt lat="45.629017405602795" lon="8.280072748241965"><ele>309.0</ele><time>2026-04-03T15:29:21.089Z</time></trkpt><trkpt lat="45.62890808430917" lon="8.280209680415933"><ele>309.0</ele><time>2026-04-03T15:29:22.089Z</time></trkpt><trkpt lat="45.62880395625683" lon="8.28032842840888"><ele>309.0</ele><time>2026-04-03T15:29:23.089Z</time></trkpt><trkpt lat="45.62870265030575" lon="8.280434014482031"><ele>309.0</ele><time>2026-04-03T15:29:24.089Z</time></trkpt><trkpt lat="45.62859590075514" lon="8.280528862101137"><ele>309.0</ele><time>2026-04-03T15:29:25.089Z</time></trkpt><trkpt lat="45.62847798166213" lon="8.280609538187742"><ele>308.25</ele><time>2026-04-03T15:29:26.089Z</time></trkpt><trkpt lat="45.62834344343886" lon="8.280676080573786"><ele>307.5</ele><time>2026-04-03T15:29:27.089Z</time></trkpt><trkpt lat="45.62819680140137" lon="8.28072181496239"><ele>306.75</ele><time>2026-04-03T15:29:28.089Z</time></trkpt><trkpt lat="45.628040654167165" lon="8.280737795161484"><ele>306.0</ele><time>2026-04-03T15:29:29.089Z</time></trkpt><trkpt lat="45.62787829106033" lon="8.280742948097352"><ele>305.0</ele><time>2026-04-03T15:29:30.089Z</time></trkpt><trkpt lat="45.627713040225046" lon="8.280753798160795"><ele>304.0</ele><time>2026-04-03T15:29:31.089Z</time></trkpt><trkpt lat="45.627547180228916" lon="8.280764879532123"><ele>303.0</ele><time>2026-04-03T15:29:32.089Z</time></trkpt><trkpt lat="45.62737971129797" lon="8.280776176684336"><ele>303.0</ele><time>2026-04-03T15:29:33.089Z</time></trkpt><trkpt lat="45.62721245965499" lon="8.280785180115101"><ele>303.0</ele><time>2026-04-03T15:29:34.089Z</time></trkpt><trkpt lat="45.62705161807066" lon="8.280782985046308"><ele>303.0</ele><time>2026-04-03T15:29:35.089Z</time></trkpt><trkpt lat="45.626893097916856" lon="8.280769066934043"><ele>302.0</ele><time>2026-04-03T15:29:36.089Z</time></trkpt><trkpt lat="45.626730649997576" lon="8.28074105092251"><ele>301.0</ele><time>2026-04-03T15:29:37.089Z</time></trkpt><trkpt lat="45.626562623767235" lon="8.280699583482546"><ele>300.0</ele><time>2026-04-03T15:29:38.089Z</time></trkpt><trkpt lat="45.62639324444831" lon="8.280649254075596"><ele>301.0</ele><time>2026-04-03T15:29:39.089Z</time></trkpt><trkpt lat="45.6262215818692" lon="8.28058817171124"><ele>302.0</ele><time>2026-04-03T15:29:40.089Z</time></trkpt><trkpt lat="45.626055890602494" lon="8.280507860376117"><ele>303.0</ele><time>2026-04-03T15:29:41.091Z</time></trkpt><trkpt lat="45.62590029524871" lon="8.280443401876793"><ele>303.0</ele><time>2026-04-03T15:29:42.091Z</time></trkpt><trkpt lat="45.625746900999" lon="8.280387197023073"><ele>303.0</ele><time>2026-04-03T15:29:43.091Z</time></trkpt><trkpt lat="45.62560150334727" lon="8.280322930794037"><ele>303.0</ele><time>2026-04-03T15:29:44.091Z</time></trkpt><trkpt lat="45.62545245660807" lon="8.280266584184941"><ele>302.75</ele><time>2026-04-03T15:29:45.091Z</time></trkpt><trkpt lat="45.62530881393098" lon="8.280205490034332"><ele>302.5</ele><time>2026-04-03T15:29:46.091Z</time></trkpt><trkpt lat="45.62516323269601" lon="8.280162049990562"><ele>302.25</ele><time>2026-04-03T15:29:47.09Z</time></trkpt><trkpt lat="45.62502417563813" lon="8.280143106147868"><ele>302.0</ele><time>2026-04-03T15:29:48.091Z</time></trkpt><trkpt lat="45.62487997213895" lon="8.280161932134643"><ele>302.0</ele><time>2026-04-03T15:29:49.091Z</time></trkpt><trkpt lat="45.62473730257918" lon="8.280199486626884"><ele>302.0</ele><time>2026-04-03T15:29:50.091Z</time></trkpt><trkpt lat="45.62459741903629" lon="8.280255305793698"><ele>302.0</ele><time>2026-04-03T15:29:51.091Z</time></trkpt><trkpt lat="45.62446315227775" lon="8.280331447214468"><ele>302.0</ele><time>2026-04-03T15:29:52.091Z</time></trkpt><trkpt lat="45.62433245832153" lon="8.280418072025752"><ele>301.5</ele><time>2026-04-03T15:29:53.092Z</time></trkpt><trkpt lat="45.62420012012323" lon="8.280518888498884"><ele>301.0</ele><time>2026-04-03T15:29:54.092Z</time></trkpt><trkpt lat="45.62407634644329" lon="8.280615818100381"><ele>300.5</ele><time>2026-04-03T15:29:55.092Z</time></trkpt><trkpt lat="45.62395254274981" lon="8.28070645223737"><ele>300.0</ele><time>2026-04-03T15:29:56.092Z</time></trkpt><trkpt lat="45.623828109213555" lon="8.280796835447267"><ele>300.0</ele><time>2026-04-03T15:29:57.092Z</time></trkpt><trkpt lat="45.62369778907775" lon="8.280893450374222"><ele>300.0</ele><time>2026-04-03T15:29:58.092Z</time></trkpt><trkpt lat="45.62356745952428" lon="8.280992529122937"><ele>300.0</ele><time>2026-04-03T15:29:59.092Z</time></trkpt><trkpt lat="45.62343432418044" lon="8.281092962898034"><ele>300.0</ele><time>2026-04-03T15:30:00.092Z</time></trkpt><trkpt lat="45.623302992306286" lon="8.281190250806446"><ele>299.25</ele><time>2026-04-03T15:30:01.092Z</time></trkpt><trkpt lat="45.623181018361464" lon="8.281286610708035"><ele>298.5</ele><time>2026-04-03T15:30:02.092Z</time></trkpt><trkpt lat="45.62306652750731" lon="8.281371985273983"><ele>297.75</ele><time>2026-04-03T15:30:03.092Z</time></trkpt><trkpt lat="45.62295479614025" lon="8.281450796253065"><ele>297.0</ele><time>2026-04-03T15:30:04.092Z</time></trkpt><trkpt lat="45.62285091907938" lon="8.281529203937845"><ele>297.2</ele><time>2026-04-03T15:30:05.092Z</time></trkpt><trkpt lat="45.622753829514856" lon="8.281601959414745"><ele>297.4</ele><time>2026-04-03T15:30:06.092Z</time></trkpt><trkpt lat="45.622660004782084" lon="8.281669222498941"><ele>297.6</ele><time>2026-04-03T15:30:07.092Z</time></trkpt><trkpt lat="45.622561143741784" lon="8.28174050735515"><ele>297.8</ele><time>2026-04-03T15:30:08.092Z</time></trkpt><trkpt lat="45.62246156747041" lon="8.281813467831919"><ele>298.0</ele><time>2026-04-03T15:30:09.092Z</time></trkpt><trkpt lat="45.622362183542805" lon="8.281886437175842"><ele>298.0</ele><time>2026-04-03T15:30:10.092Z</time></trkpt><trkpt lat="45.622274463235875" lon="8.281948682661621"><ele>298.0</ele><time>2026-04-03T15:30:11.092Z</time></trkpt><trkpt lat="45.62219264035145" lon="8.282010246801043"><ele>298.0</ele><time>2026-04-03T15:30:12.092Z</time></trkpt><trkpt lat="45.62211347779771" lon="8.282072054092902"><ele>298.0</ele><time>2026-04-03T15:30:13.092Z</time></trkpt><trkpt lat="45.622037541913784" lon="8.282122366519868"><ele>298.0</ele><time>2026-04-03T15:30:14.092Z</time></trkpt><trkpt lat="45.62196522254458" lon="8.28217584447184"><ele>298.0</ele><time>2026-04-03T15:30:15.092Z</time></trkpt><trkpt lat="45.62188718327239" lon="8.282235134344011"><ele>297.2</ele><time>2026-04-03T15:30:16.092Z</time></trkpt><trkpt lat="45.621802461205526" lon="8.282297584208552"><ele>296.4</ele><time>2026-04-03T15:30:17.092Z</time></trkpt><trkpt lat="45.62171839488585" lon="8.282354711524631"><ele>295.59999999999997</ele><time>2026-04-03T15:30:18.092Z</time></trkpt><trkpt lat="45.62163092487102" lon="8.282418764226914"><ele>294.8</ele><time>2026-04-03T15:30:19.092Z</time></trkpt><trkpt lat="45.62154089156818" lon="8.282486171547548"><ele>294.0</ele><time>2026-04-03T15:30:20.092Z</time></trkpt><trkpt lat="45.62144641036813" lon="8.282555276656366"><ele>294.0</ele><time>2026-04-03T15:30:21.092Z</time></trkpt><trkpt lat="45.62134997774229" lon="8.28262512770964"><ele>294.0</ele><time>2026-04-03T15:30:22.092Z</time></trkpt><trkpt lat="45.62125738501968" lon="8.282690887284234"><ele>294.0</ele><time>2026-04-03T15:30:23.092Z</time></trkpt><trkpt lat="45.62116667697332" lon="8.282762820548935"><ele>294.0</ele><time>2026-04-03T15:30:24.092Z</time></trkpt><trkpt lat="45.62107724353132" lon="8.282826691915979"><ele>294.0</ele><time>2026-04-03T15:30:25.092Z</time></trkpt><trkpt lat="45.62098491817117" lon="8.282886917967556"><ele>294.0</ele><time>2026-04-03T15:30:26.092Z</time></trkpt><trkpt lat="45.620884964667205" lon="8.282948190135608"><ele>294.0</ele><time>2026-04-03T15:30:27.092Z</time></trkpt><trkpt lat="45.62078257847415" lon="8.283009758659668"><ele>294.0</ele><time>2026-04-03T15:30:28.092Z</time></trkpt><trkpt lat="45.620678924839396" lon="8.28307558932362"><ele>294.0</ele><time>2026-04-03T15:30:29.092Z</time></trkpt><trkpt lat="45.62057797683894" lon="8.28314424725596"><ele>294.0</ele><time>2026-04-03T15:30:30.092Z</time></trkpt><trkpt lat="45.62048040156031" lon="8.283224242564561"><ele>294.0</ele><time>2026-04-03T15:30:31.092Z</time></trkpt><trkpt lat="45.620388022627395" lon="8.283311919422417"><ele>294.0</ele><time>2026-04-03T15:30:32.092Z</time></trkpt><trkpt lat="45.620302567204206" lon="8.283417420577742"><ele>294.0</ele><time>2026-04-03T15:30:33.092Z</time></trkpt><trkpt lat="45.620225663192635" lon="8.283540005261068"><ele>294.0</ele><time>2026-04-03T15:30:34.092Z</time></trkpt><trkpt lat="45.62015084446897" lon="8.283679866642023"><ele>294.25</ele><time>2026-04-03T15:30:35.092Z</time></trkpt><trkpt lat="45.620072312195674" lon="8.28382457436178"><ele>294.5</ele><time>2026-04-03T15:30:36.092Z</time></trkpt><trkpt lat="45.61998968030526" lon="8.283968633412401"><ele>294.75</ele><time>2026-04-03T15:30:37.092Z</time></trkpt><trkpt lat="45.61990248785856" lon="8.284109003639074"><ele>295.0</ele><time>2026-04-03T15:30:38.092Z</time></trkpt><trkpt lat="45.61980030252963" lon="8.284240639671841"><ele>294.75</ele><time>2026-04-03T15:30:39.092Z</time></trkpt><trkpt lat="45.61968593845358" lon="8.284360757256907"><ele>294.5</ele><time>2026-04-03T15:30:40.092Z</time></trkpt><trkpt lat="45.619565887984955" lon="8.284464418682822"><ele>294.25</ele><time>2026-04-03T15:30:41.092Z</time></trkpt><trkpt lat="45.61944296737739" lon="8.28455705107229"><ele>294.0</ele><time>2026-04-03T15:30:42.092Z</time></trkpt><trkpt lat="45.6193093720102" lon="8.284631170916667"><ele>294.0</ele><time>2026-04-03T15:30:43.092Z</time></trkpt><trkpt lat="45.61917071072907" lon="8.284682322446898"><ele>294.0</ele><time>2026-04-03T15:30:44.092Z</time></trkpt><trkpt lat="45.61903066055348" lon="8.284710708064454"><ele>294.0</ele><time>2026-04-03T15:30:45.092Z</time></trkpt><trkpt lat="45.61889189960649" lon="8.284717340112826"><ele>294.0</ele><time>2026-04-03T15:30:46.092Z</time></trkpt><trkpt lat="45.618752720811614" lon="8.284706634630417"><ele>293.75</ele><time>2026-04-03T15:30:47.092Z</time></trkpt><trkpt lat="45.618617618509546" lon="8.284673199046379"><ele>293.5</ele><time>2026-04-03T15:30:48.092Z</time></trkpt><trkpt lat="45.61848538795768" lon="8.284622631773553"><ele>293.25</ele><time>2026-04-03T15:30:49.092Z</time></trkpt><trkpt lat="45.61836565962491" lon="8.28455623904125"><ele>293.0</ele><time>2026-04-03T15:30:50.092Z</time></trkpt><trkpt lat="45.61825835893305" lon="8.284481483471236"><ele>293.0</ele><time>2026-04-03T15:30:51.092Z</time></trkpt><trkpt lat="45.61815806699319" lon="8.284411600852772"><ele>293.0</ele><time>2026-04-03T15:30:52.092Z</time></trkpt><trkpt lat="45.6180652226015" lon="8.284350782191064"><ele>293.0</ele><time>2026-04-03T15:30:53.092Z</time></trkpt><trkpt lat="45.61797197366776" lon="8.284315406674835"><ele>293.0</ele><time>2026-04-03T15:30:54.092Z</time></trkpt><trkpt lat="45.617883287071" lon="8.284315771609744"><ele>293.0</ele><time>2026-04-03T15:30:55.092Z</time></trkpt><trkpt lat="45.61779885984257" lon="8.28434487599313"><ele>293.0</ele><time>2026-04-03T15:30:56.092Z</time></trkpt><trkpt lat="45.61771502348678" lon="8.284393114648035"><ele>293.0</ele><time>2026-04-03T15:30:57.092Z</time></trkpt><trkpt lat="45.61762229881903" lon="8.284468652291311"><ele>293.0</ele><time>2026-04-03T15:30:58.092Z</time></trkpt><trkpt lat="45.61751742449661" lon="8.284554447386773"><ele>293.0</ele><time>2026-04-03T15:30:59.092Z</time></trkpt><trkpt lat="45.61740759146232" lon="8.284636698326082"><ele>293.0</ele><time>2026-04-03T15:31:00.092Z</time></trkpt><trkpt lat="45.61729853620549" lon="8.284712898019063"><ele>292.6666666666667</ele><time>2026-04-03T15:31:01.092Z</time></trkpt><trkpt lat="45.61719679888567" lon="8.284786769741785"><ele>292.33333333333337</ele><time>2026-04-03T15:31:02.092Z</time></trkpt><trkpt lat="45.617105435062264" lon="8.284833943289177"><ele>292.0</ele><time>2026-04-03T15:31:03.092Z</time></trkpt><trkpt lat="45.61702866101113" lon="8.28488521360516"><ele>291.6666666666667</ele><time>2026-04-03T15:31:04.092Z</time></trkpt><trkpt lat="45.61696314759702" lon="8.284937719868235"><ele>291.3333333333333</ele><time>2026-04-03T15:31:05.092Z</time></trkpt><trkpt lat="45.61689683229461" lon="8.284984688551944"><ele>291.0</ele><time>2026-04-03T15:31:07.092Z</time></trkpt><trkpt lat="45.61683493549184" lon="8.285019354769698"><ele>291.0</ele><time>2026-04-03T15:31:18.092Z</time></trkpt><trkpt lat="45.61675953696179" lon="8.28506082687896"><ele>291.0</ele><time>2026-04-03T15:31:19.092Z</time></trkpt><trkpt lat="45.61666767905419" lon="8.285128870123234"><ele>291.0</ele><time>2026-04-03T15:31:20.092Z</time></trkpt><trkpt lat="45.616563219462726" lon="8.285216132901212"><ele>291.0</ele><time>2026-04-03T15:31:21.092Z</time></trkpt><trkpt lat="45.616461595082015" lon="8.285301858716593"><ele>291.0</ele><time>2026-04-03T15:31:22.092Z</time></trkpt><trkpt lat="45.61633701469836" lon="8.285397124628739"><ele>291.0</ele><time>2026-04-03T15:31:23.092Z</time></trkpt><trkpt lat="45.61619493557034" lon="8.28550678342742"><ele>291.0</ele><time>2026-04-03T15:31:24.092Z</time></trkpt><trkpt lat="45.61605795718444" lon="8.285622491389239"><ele>291.0</ele><time>2026-04-03T15:31:25.092Z</time></trkpt><trkpt lat="45.61590410344867" lon="8.28575446277992"><ele>293.0</ele><time>2026-04-03T15:31:26.092Z</time></trkpt><trkpt lat="45.61573712875733" lon="8.285903529119079"><ele>295.0</ele><time>2026-04-03T15:31:27.092Z</time></trkpt><trkpt lat="45.61555555803263" lon="8.28607148232131"><ele>297.0</ele><time>2026-04-03T15:31:28.092Z</time></trkpt><trkpt lat="45.61536202181104" lon="8.286256096600209"><ele>296.0</ele><time>2026-04-03T15:31:29.092Z</time></trkpt><trkpt lat="45.61517903962998" lon="8.286422721569897"><ele>295.0</ele><time>2026-04-03T15:31:30.092Z</time></trkpt><trkpt lat="45.61499699469017" lon="8.286579793001515"><ele>294.0</ele><time>2026-04-03T15:31:31.092Z</time></trkpt><trkpt lat="45.614817332662284" lon="8.286732730623548"><ele>294.0</ele><time>2026-04-03T15:31:32.092Z</time></trkpt><trkpt lat="45.61462873447492" lon="8.286866733327933"><ele>294.0</ele><time>2026-04-03T15:31:33.092Z</time></trkpt><trkpt lat="45.61443182550127" lon="8.286981813834467"><ele>294.0</ele><time>2026-04-03T15:31:34.092Z</time></trkpt><trkpt lat="45.61422500913581" lon="8.287088800926158"><ele>294.0</ele><time>2026-04-03T15:31:35.092Z</time></trkpt><trkpt lat="45.614013715867294" lon="8.287191047788408"><ele>294.0</ele><time>2026-04-03T15:31:36.092Z</time></trkpt><trkpt lat="45.61379467762603" lon="8.287266771626836"><ele>294.0</ele><time>2026-04-03T15:31:37.093Z</time></trkpt><trkpt lat="45.61357616671852" lon="8.287351094884936"><ele>294.0</ele><time>2026-04-03T15:31:38.093Z</time></trkpt><trkpt lat="45.61337176514072" lon="8.287423096601815"><ele>294.0</ele><time>2026-04-03T15:31:39.093Z</time></trkpt><trkpt lat="45.61317253648502" lon="8.287496438986688"><ele>294.0</ele><time>2026-04-03T15:31:40.093Z</time></trkpt><trkpt lat="45.61297965813269" lon="8.287604910725374"><ele>296.3333333333333</ele><time>2026-04-03T15:31:41.093Z</time></trkpt><trkpt lat="45.61279156302825" lon="8.287720846277729"><ele>298.66666666666663</ele><time>2026-04-03T15:31:42.093Z</time></trkpt><trkpt lat="45.61260055289477" lon="8.287845768757137"><ele>301.0</ele><time>2026-04-03T15:31:43.093Z</time></trkpt><trkpt lat="45.61240941328313" lon="8.287968162643145"><ele>301.0</ele><time>2026-04-03T15:31:44.093Z</time></trkpt><trkpt lat="45.61222358134767" lon="8.288080995545421"><ele>301.0</ele><time>2026-04-03T15:31:45.093Z</time></trkpt><trkpt lat="45.61204507450678" lon="8.288195861280416"><ele>301.0</ele><time>2026-04-03T15:31:46.093Z</time></trkpt><trkpt lat="45.611876353751924" lon="8.288304440761236"><ele>296.0</ele><time>2026-04-03T15:31:47.094Z</time></trkpt><trkpt lat="45.611715447927" lon="8.288416081689322"><ele>291.0</ele><time>2026-04-03T15:31:48.093Z</time></trkpt><trkpt lat="45.6115616049209" lon="8.288490399272117"><ele>286.0</ele><time>2026-04-03T15:31:49.093Z</time></trkpt><trkpt lat="45.61142277498758" lon="8.288566131615827"><ele>286.0</ele><time>2026-04-03T15:31:50.094Z</time></trkpt><trkpt lat="45.61127883182475" lon="8.288584215197082"><ele>286.0</ele><time>2026-04-03T15:31:51.094Z</time></trkpt><trkpt lat="45.611121803892665" lon="8.288589457700164"><ele>286.0</ele><time>2026-04-03T15:31:52.094Z</time></trkpt><trkpt lat="45.61095722504464" lon="8.28862296241877"><ele>285.3333333333333</ele><time>2026-04-03T15:31:53.094Z</time></trkpt><trkpt lat="45.61079134797117" lon="8.288634020357584"><ele>284.6666666666667</ele><time>2026-04-03T15:31:54.094Z</time></trkpt><trkpt lat="45.61062665141484" lon="8.288642449237694"><ele>284.0</ele><time>2026-04-03T15:31:55.094Z</time></trkpt><trkpt lat="45.61046417979777" lon="8.288651118357084"><ele>284.25</ele><time>2026-04-03T15:31:56.095Z</time></trkpt><trkpt lat="45.610310681299744" lon="8.28865941164398"><ele>284.5</ele><time>2026-04-03T15:31:57.094Z</time></trkpt><trkpt lat="45.61016641231579" lon="8.288656236609867"><ele>284.75</ele><time>2026-04-03T15:31:58.094Z</time></trkpt><trkpt lat="45.61003372500089" lon="8.288686214811575"><ele>285.0</ele><time>2026-04-03T15:31:59.094Z</time></trkpt><trkpt lat="45.60990937405599" lon="8.288690419562883"><ele>285.0</ele><time>2026-04-03T15:32:00.094Z</time></trkpt><trkpt lat="45.60978601622962" lon="8.288699401002622"><ele>285.0</ele><time>2026-04-03T15:32:01.094Z</time></trkpt><trkpt lat="45.60965972526675" lon="8.28870556020458"><ele>285.0</ele><time>2026-04-03T15:32:02.094Z</time></trkpt><trkpt lat="45.60953186772542" lon="8.288710565499194"><ele>285.0</ele><time>2026-04-03T15:32:03.094Z</time></trkpt><trkpt lat="45.609408897129846" lon="8.288717424650555"><ele>285.5</ele><time>2026-04-03T15:32:04.094Z</time></trkpt><trkpt lat="45.609284915139824" lon="8.28873216656851"><ele>286.0</ele><time>2026-04-03T15:32:05.094Z</time></trkpt><trkpt lat="45.609162876651716" lon="8.28874702167567"><ele>286.5</ele><time>2026-04-03T15:32:06.094Z</time></trkpt><trkpt lat="45.60903603020752" lon="8.288755175218444"><ele>287.0</ele><time>2026-04-03T15:32:07.094Z</time></trkpt><trkpt lat="45.60890945817873" lon="8.288762722409613"><ele>287.0</ele><time>2026-04-03T15:32:08.094Z</time></trkpt><trkpt lat="45.60878456842876" lon="8.28876910457764"><ele>287.0</ele><time>2026-04-03T15:32:09.094Z</time></trkpt><trkpt lat="45.6086699653962" lon="8.288777367298485"><ele>287.0</ele><time>2026-04-03T15:32:10.094Z</time></trkpt><trkpt lat="45.608560767293305" lon="8.288787286209505"><ele>287.0</ele><time>2026-04-03T15:32:11.094Z</time></trkpt><trkpt lat="45.60845231793164" lon="8.288793532448823"><ele>287.25</ele><time>2026-04-03T15:32:12.094Z</time></trkpt><trkpt lat="45.60832464251288" lon="8.288808607047443"><ele>287.5</ele><time>2026-04-03T15:32:13.094Z</time></trkpt><trkpt lat="45.60818681239266" lon="8.28879616310808"><ele>287.75</ele><time>2026-04-03T15:32:14.094Z</time></trkpt><trkpt lat="45.60804167684983" lon="8.28880675555222"><ele>288.0</ele><time>2026-04-03T15:32:15.094Z</time></trkpt><trkpt lat="45.60790089506286" lon="8.288839605853884"><ele>288.25</ele><time>2026-04-03T15:32:16.094Z</time></trkpt><trkpt lat="45.60775589898341" lon="8.28884392396929"><ele>288.5</ele><time>2026-04-03T15:32:17.094Z</time></trkpt><trkpt lat="45.60761261346068" lon="8.288854372633397"><ele>288.75</ele><time>2026-04-03T15:32:18.094Z</time></trkpt><trkpt lat="45.60747423325459" lon="8.288865905976202"><ele>289.0</ele><time>2026-04-03T15:32:19.094Z</time></trkpt><trkpt lat="45.60734547463414" lon="8.288870891201924"><ele>289.0</ele><time>2026-04-03T15:32:20.094Z</time></trkpt><trkpt lat="45.60722855170344" lon="8.288865126663493"><ele>289.0</ele><time>2026-04-03T15:32:21.094Z</time></trkpt><trkpt lat="45.60711750879442" lon="8.288874557083268"><ele>289.0</ele><time>2026-04-03T15:32:22.094Z</time></trkpt><trkpt lat="45.60700959034752" lon="8.288887681884935"><ele>289.0</ele><time>2026-04-03T15:32:23.094Z</time></trkpt><trkpt lat="45.60690249063952" lon="8.288898632837066"><ele>289.0</ele><time>2026-04-03T15:32:24.094Z</time></trkpt><trkpt lat="45.60680081886279" lon="8.288910225718972"><ele>288.8333333333333</ele><time>2026-04-03T15:32:25.094Z</time></trkpt><trkpt lat="45.60671045060593" lon="8.288907600494559"><ele>288.66666666666663</ele><time>2026-04-03T15:32:26.094Z</time></trkpt><trkpt lat="45.60663259553661" lon="8.288920597159015"><ele>288.5</ele><time>2026-04-03T15:32:27.094Z</time></trkpt><trkpt lat="45.60656320383004" lon="8.288931649929387"><ele>288.3333333333333</ele><time>2026-04-03T15:32:29.094Z</time></trkpt><trkpt lat="45.6064458535536" lon="8.288934455011681"><ele>288.1666666666667</ele><time>2026-04-03T15:32:51.095Z</time></trkpt><trkpt lat="45.60636616422709" lon="8.288948838348716"><ele>288.0</ele><time>2026-04-03T15:32:52.095Z</time></trkpt><trkpt lat="45.606269971683844" lon="8.288982839763161"><ele>286.75</ele><time>2026-04-03T15:32:53.095Z</time></trkpt><trkpt lat="45.60617963351335" lon="8.289017090164936"><ele>285.5</ele><time>2026-04-03T15:32:54.095Z</time></trkpt><trkpt lat="45.606068057651484" lon="8.289059196656865"><ele>284.25</ele><time>2026-04-03T15:32:55.095Z</time></trkpt><trkpt lat="45.60594008807902" lon="8.289107489806744"><ele>283.0</ele><time>2026-04-03T15:32:56.095Z</time></trkpt><trkpt lat="45.605814514604745" lon="8.289151858349276"><ele>283.0</ele><time>2026-04-03T15:32:57.095Z</time></trkpt><trkpt lat="45.6056847212663" lon="8.289188329303904"><ele>283.0</ele><time>2026-04-03T15:32:58.095Z</time></trkpt><trkpt lat="45.605542436848346" lon="8.2892156836349"><ele>283.0</ele><time>2026-04-03T15:32:59.095Z</time></trkpt><trkpt lat="45.60539011623393" lon="8.289235985524721"><ele>283.0</ele><time>2026-04-03T15:33:00.095Z</time></trkpt><trkpt lat="45.605237055665036" lon="8.289252181272682"><ele>282.3333333333333</ele><time>2026-04-03T15:33:01.095Z</time></trkpt><trkpt lat="45.60508797264385" lon="8.289266093025876"><ele>281.6666666666667</ele><time>2026-04-03T15:33:02.095Z</time></trkpt><trkpt lat="45.604934554228855" lon="8.289280409304423"><ele>281.0</ele><time>2026-04-03T15:33:03.095Z</time></trkpt><trkpt lat="45.604772815872764" lon="8.2892955026928"><ele>281.0</ele><time>2026-04-03T15:33:04.095Z</time></trkpt><trkpt lat="45.60460349830168" lon="8.289311365744602"><ele>281.0</ele><time>2026-04-03T15:33:05.095Z</time></trkpt><trkpt lat="45.60442880282368" lon="8.289327713652112"><ele>281.0</ele><time>2026-04-03T15:33:06.095Z</time></trkpt><trkpt lat="45.60424533275563" lon="8.289345833992376"><ele>281.33333333333337</ele><time>2026-04-03T15:33:07.095Z</time></trkpt><trkpt lat="45.60406514843071" lon="8.289385887395936"><ele>281.6666666666667</ele><time>2026-04-03T15:33:08.095Z</time></trkpt><trkpt lat="45.60389168827427" lon="8.289390593917036"><ele>282.0</ele><time>2026-04-03T15:33:09.095Z</time></trkpt><trkpt lat="45.60371821145226" lon="8.289424686541484"><ele>284.0</ele><time>2026-04-03T15:33:10.095Z</time></trkpt><trkpt lat="45.6035417330489" lon="8.289477317583186"><ele>286.0</ele><time>2026-04-03T15:33:11.095Z</time></trkpt><trkpt lat="45.60336280709571" lon="8.289564565887016"><ele>288.0</ele><time>2026-04-03T15:33:12.095Z</time></trkpt><trkpt lat="45.603182480566225" lon="8.289648889549845"><ele>288.0</ele><time>2026-04-03T15:33:13.095Z</time></trkpt><trkpt lat="45.60300340974453" lon="8.289748756240682"><ele>288.0</ele><time>2026-04-03T15:33:14.095Z</time></trkpt><trkpt lat="45.60282526777113" lon="8.289847221196075"><ele>288.0</ele><time>2026-04-03T15:33:15.095Z</time></trkpt><trkpt lat="45.60264979526202" lon="8.289947117260118"><ele>286.0</ele><time>2026-04-03T15:33:16.095Z</time></trkpt><trkpt lat="45.60247333602807" lon="8.29004706653002"><ele>284.0</ele><time>2026-04-03T15:33:17.095Z</time></trkpt><trkpt lat="45.60229623776924" lon="8.290144068013621"><ele>282.0</ele><time>2026-04-03T15:33:18.095Z</time></trkpt><trkpt lat="45.60211979484353" lon="8.290241666880526"><ele>283.3333333333333</ele><time>2026-04-03T15:33:19.095Z</time></trkpt><trkpt lat="45.60194206566114" lon="8.290339423908113"><ele>284.66666666666663</ele><time>2026-04-03T15:33:20.095Z</time></trkpt><trkpt lat="45.60176305161339" lon="8.290435543387812"><ele>286.0</ele><time>2026-04-03T15:33:21.095Z</time></trkpt><trkpt lat="45.60158421756217" lon="8.290533903749745"><ele>282.66666666666663</ele><time>2026-04-03T15:33:22.095Z</time></trkpt><trkpt lat="45.601407024564125" lon="8.29062916225737"><ele>279.3333333333333</ele><time>2026-04-03T15:33:23.095Z</time></trkpt><trkpt lat="45.60123744593624" lon="8.29072538076449"><ele>276.0</ele><time>2026-04-03T15:33:24.095Z</time></trkpt><trkpt lat="45.601076767693705" lon="8.29081702763208"><ele>275.0</ele><time>2026-04-03T15:33:25.095Z</time></trkpt><trkpt lat="45.60092447387065" lon="8.290902275549465"><ele>274.0</ele><time>2026-04-03T15:33:26.095Z</time></trkpt><trkpt lat="45.60078097320742" lon="8.290985578952752"><ele>273.0</ele><time>2026-04-03T15:33:27.095Z</time></trkpt><trkpt lat="45.600627296903276" lon="8.291055680920289"><ele>273.0</ele><time>2026-04-03T15:33:28.095Z</time></trkpt><trkpt lat="45.60047167710058" lon="8.29114137096436"><ele>273.0</ele><time>2026-04-03T15:33:29.095Z</time></trkpt><trkpt lat="45.600316415534024" lon="8.291255663056075"><ele>273.0</ele><time>2026-04-03T15:33:30.095Z</time></trkpt><trkpt lat="45.60015763363419" lon="8.291338793504723"><ele>272.6666666666667</ele><time>2026-04-03T15:33:31.095Z</time></trkpt><trkpt lat="45.59999915113369" lon="8.291419743703948"><ele>272.33333333333337</ele><time>2026-04-03T15:33:32.095Z</time></trkpt><trkpt lat="45.59984787081191" lon="8.291496067814018"><ele>272.0</ele><time>2026-04-03T15:33:33.095Z</time></trkpt><trkpt lat="45.599714967047106" lon="8.291562196903293"><ele>271.6</ele><time>2026-04-03T15:33:34.095Z</time></trkpt><trkpt lat="45.599596787068904" lon="8.291609265526196"><ele>271.2</ele><time>2026-04-03T15:33:35.095Z</time></trkpt><trkpt lat="45.59949428838702" lon="8.291635799660252"><ele>270.8</ele><time>2026-04-03T15:33:36.095Z</time></trkpt><trkpt lat="45.59940590084126" lon="8.29164393884379"><ele>270.4</ele><time>2026-04-03T15:33:37.095Z</time></trkpt><trkpt lat="45.59932737192722" lon="8.291625342898387"><ele>270.0</ele><time>2026-04-03T15:33:38.095Z</time></trkpt><trkpt lat="45.59925066298607" lon="8.291573818508592"><ele>270.0</ele><time>2026-04-03T15:33:39.095Z</time></trkpt><trkpt lat="45.599171741594134" lon="8.291485560867216"><ele>270.0</ele><time>2026-04-03T15:33:40.095Z</time></trkpt><trkpt lat="45.599098207333" lon="8.291366716589177"><ele>270.0</ele><time>2026-04-03T15:33:41.095Z</time></trkpt><trkpt lat="45.59902133469687" lon="8.291234859639928"><ele>270.0</ele><time>2026-04-03T15:33:42.095Z</time></trkpt><trkpt lat="45.5989793360746" lon="8.291029921574395"><ele>270.75</ele><time>2026-04-03T15:33:43.095Z</time></trkpt><trkpt lat="45.59892454403585" lon="8.290836810803002"><ele>271.5</ele><time>2026-04-03T15:33:44.095Z</time></trkpt><trkpt lat="45.59886997762029" lon="8.290659597319005"><ele>272.25</ele><time>2026-04-03T15:33:45.095Z</time></trkpt><trkpt lat="45.59881637280891" lon="8.290480853731"><ele>273.0</ele><time>2026-04-03T15:33:46.095Z</time></trkpt><trkpt lat="45.59875475297708" lon="8.290288946421501"><ele>273.0</ele><time>2026-04-03T15:33:47.095Z</time></trkpt><trkpt lat="45.59869192719965" lon="8.290086415036043"><ele>273.0</ele><time>2026-04-03T15:33:48.095Z</time></trkpt><trkpt lat="45.598626784865665" lon="8.289876113807884"><ele>273.0</ele><time>2026-04-03T15:33:49.095Z</time></trkpt><trkpt lat="45.59857323389979" lon="8.289656538518164"><ele>273.0</ele><time>2026-04-03T15:33:50.095Z</time></trkpt><trkpt lat="45.59851003180673" lon="8.289445299278226"><ele>273.0</ele><time>2026-04-03T15:33:51.095Z</time></trkpt><trkpt lat="45.59844457578418" lon="8.289227014731336"><ele>273.0</ele><time>2026-04-03T15:33:52.095Z</time></trkpt><trkpt lat="45.598375359092" lon="8.288996189001349"><ele>273.6666666666667</ele><time>2026-04-03T15:33:53.097Z</time></trkpt><trkpt lat="45.59830392844903" lon="8.288758268606806"><ele>274.33333333333337</ele><time>2026-04-03T15:33:54.097Z</time></trkpt><trkpt lat="45.59823372777623" lon="8.288526611540364"><ele>275.0</ele><time>2026-04-03T15:33:55.097Z</time></trkpt><trkpt lat="45.598168208192874" lon="8.288310401703963"><ele>275.0</ele><time>2026-04-03T15:33:56.097Z</time></trkpt><trkpt lat="45.59809818141331" lon="8.288079318454873"><ele>275.0</ele><time>2026-04-03T15:33:57.097Z</time></trkpt><trkpt lat="45.59801044132061" lon="8.287846097613244"><ele>275.0</ele><time>2026-04-03T15:33:58.097Z</time></trkpt><trkpt lat="45.59793689060695" lon="8.287595959749597"><ele>275.0</ele><time>2026-04-03T15:33:59.097Z</time></trkpt><trkpt lat="45.59786049891638" lon="8.287341675403676"><ele>275.0</ele><time>2026-04-03T15:34:00.096Z</time></trkpt><trkpt lat="45.597788131297" lon="8.28710050499084"><ele>275.0</ele><time>2026-04-03T15:34:01.096Z</time></trkpt><trkpt lat="45.59771456315183" lon="8.286859485338448"><ele>275.0</ele><time>2026-04-03T15:34:02.097Z</time></trkpt><trkpt lat="45.59764041098408" lon="8.28661587751752"><ele>275.0</ele><time>2026-04-03T15:34:03.097Z</time></trkpt><trkpt lat="45.59756573851384" lon="8.286371463396051"><ele>275.0</ele><time>2026-04-03T15:34:04.097Z</time></trkpt><trkpt lat="45.59750486301761" lon="8.286115060385988"><ele>275.0</ele><time>2026-04-03T15:34:05.097Z</time></trkpt><trkpt lat="45.59742933578492" lon="8.285865352952273"><ele>275.0</ele><time>2026-04-03T15:34:06.097Z</time></trkpt><trkpt lat="45.59733885654689" lon="8.285624639884045"><ele>275.0</ele><time>2026-04-03T15:34:07.097Z</time></trkpt><trkpt lat="45.597269925082834" lon="8.28537570915833"><ele>275.33333333333337</ele><time>2026-04-03T15:34:08.097Z</time></trkpt><trkpt lat="45.59719863386132" lon="8.285131090066546"><ele>275.6666666666667</ele><time>2026-04-03T15:34:09.097Z</time></trkpt><trkpt lat="45.59712814899831" lon="8.28489217809927"><ele>276.0</ele><time>2026-04-03T15:34:10.097Z</time></trkpt><trkpt lat="45.59705590992815" lon="8.284660498740925"><ele>275.0</ele><time>2026-04-03T15:34:11.097Z</time></trkpt><trkpt lat="45.596982697948796" lon="8.284420983571371"><ele>274.0</ele><time>2026-04-03T15:34:12.097Z</time></trkpt><trkpt lat="45.59690728958144" lon="8.284180676179478"><ele>273.0</ele><time>2026-04-03T15:34:13.097Z</time></trkpt><trkpt lat="45.596834824660775" lon="8.283932827676546"><ele>272.6666666666667</ele><time>2026-04-03T15:34:14.097Z</time></trkpt><trkpt lat="45.59676072817765" lon="8.283682854163532"><ele>272.33333333333337</ele><time>2026-04-03T15:34:15.097Z</time></trkpt><trkpt lat="45.59668428023695" lon="8.283432820222334"><ele>272.0</ele><time>2026-04-03T15:34:16.097Z</time></trkpt><trkpt lat="45.5966058845718" lon="8.283177430135106"><ele>272.0</ele><time>2026-04-03T15:34:17.097Z</time></trkpt><trkpt lat="45.59652961100215" lon="8.282919682068863"><ele>272.0</ele><time>2026-04-03T15:34:18.097Z</time></trkpt><trkpt lat="45.59645208614355" lon="8.282661800822767"><ele>272.0</ele><time>2026-04-03T15:34:19.097Z</time></trkpt><trkpt lat="45.59638928632892" lon="8.282394135055341"><ele>271.6666666666667</ele><time>2026-04-03T15:34:20.097Z</time></trkpt><trkpt lat="45.59631255976817" lon="8.282136670650447"><ele>271.3333333333333</ele><time>2026-04-03T15:34:21.097Z</time></trkpt><trkpt lat="45.59623609140104" lon="8.28188038333227"><ele>271.0</ele><time>2026-04-03T15:34:22.097Z</time></trkpt><trkpt lat="45.5961590919486" lon="8.281626120305472"><ele>272.0</ele><time>2026-04-03T15:34:23.097Z</time></trkpt><trkpt lat="45.59608279985653" lon="8.281374193082533"><ele>273.0</ele><time>2026-04-03T15:34:24.097Z</time></trkpt><trkpt lat="45.59600679828467" lon="8.281123225190685"><ele>274.0</ele><time>2026-04-03T15:34:25.097Z</time></trkpt><trkpt lat="45.5959308818252" lon="8.280872538350621"><ele>274.0</ele><time>2026-04-03T15:34:26.097Z</time></trkpt><trkpt lat="45.595855520176535" lon="8.280623683583778"><ele>274.0</ele><time>2026-04-03T15:34:27.097Z</time></trkpt><trkpt lat="45.595780317860935" lon="8.280375354950603"><ele>274.0</ele><time>2026-04-03T15:34:28.097Z</time></trkpt><trkpt lat="45.59570544945239" lon="8.28012812892998"><ele>274.0</ele><time>2026-04-03T15:34:29.097Z</time></trkpt><trkpt lat="45.59563021819343" lon="8.279879704715004"><ele>274.0</ele><time>2026-04-03T15:34:30.097Z</time></trkpt><trkpt lat="45.59554078723038" lon="8.279642940348287"><ele>274.0</ele><time>2026-04-03T15:34:31.097Z</time></trkpt><trkpt lat="45.595464615992235" lon="8.279390231530206"><ele>274.66666666666663</ele><time>2026-04-03T15:34:32.097Z</time></trkpt><trkpt lat="45.5954031059914" lon="8.279128602964734"><ele>275.3333333333333</ele><time>2026-04-03T15:34:33.097Z</time></trkpt><trkpt lat="45.59532583435313" lon="8.278872474255554"><ele>276.0</ele><time>2026-04-03T15:34:34.097Z</time></trkpt><trkpt lat="45.59524966252449" lon="8.27861999102922"><ele>276.0</ele><time>2026-04-03T15:34:35.097Z</time></trkpt><trkpt lat="45.595173542351354" lon="8.278367679051236"><ele>276.0</ele><time>2026-04-03T15:34:36.097Z</time></trkpt><trkpt lat="45.59509762959985" lon="8.278116054581638"><ele>276.0</ele><time>2026-04-03T15:34:37.097Z</time></trkpt><trkpt lat="45.59502240206726" lon="8.27786670042299"><ele>276.0</ele><time>2026-04-03T15:34:38.097Z</time></trkpt><trkpt lat="45.594946670453766" lon="8.277614143282442"><ele>276.0</ele><time>2026-04-03T15:34:39.097Z</time></trkpt><trkpt lat="45.59487017714571" lon="8.27735951999943"><ele>276.0</ele><time>2026-04-03T15:34:40.097Z</time></trkpt><trkpt lat="45.59479345145355" lon="8.277105585603918"><ele>276.6666666666667</ele><time>2026-04-03T15:34:41.097Z</time></trkpt><trkpt lat="45.59471402816594" lon="8.276845771359888"><ele>277.33333333333337</ele><time>2026-04-03T15:34:42.097Z</time></trkpt><trkpt lat="45.59463524875147" lon="8.276588063353659"><ele>278.0</ele><time>2026-04-03T15:34:43.097Z</time></trkpt><trkpt lat="45.594542619205406" lon="8.276342860646457"><ele>276.33333333333337</ele><time>2026-04-03T15:34:44.097Z</time></trkpt><trkpt lat="45.594468892728216" lon="8.276098549782674"><ele>274.6666666666667</ele><time>2026-04-03T15:34:45.097Z</time></trkpt><trkpt lat="45.59439985209572" lon="8.275865218640037"><ele>273.0</ele><time>2026-04-03T15:34:46.097Z</time></trkpt><trkpt lat="45.59434811348907" lon="8.275633596564276"><ele>273.0</ele><time>2026-04-03T15:34:47.097Z</time></trkpt><trkpt lat="45.59425292291267" lon="8.275434686572083"><ele>273.0</ele><time>2026-04-03T15:34:48.097Z</time></trkpt><trkpt lat="45.594155933988944" lon="8.27524399149069"><ele>273.0</ele><time>2026-04-03T15:34:49.097Z</time></trkpt><trkpt lat="45.59403394824882" lon="8.27506919940303"><ele>273.0</ele><time>2026-04-03T15:34:50.097Z</time></trkpt><trkpt lat="45.59387558688758" lon="8.274931313042213"><ele>273.0</ele><time>2026-04-03T15:34:51.097Z</time></trkpt><trkpt lat="45.59370008521273" lon="8.274824912930638"><ele>273.0</ele><time>2026-04-03T15:34:52.097Z</time></trkpt><trkpt lat="45.59351676547105" lon="8.274711948120395"><ele>271.6666666666667</ele><time>2026-04-03T15:34:53.097Z</time></trkpt><trkpt lat="45.593334517422484" lon="8.274591992416353"><ele>270.33333333333337</ele><time>2026-04-03T15:34:54.097Z</time></trkpt><trkpt lat="45.593151053849084" lon="8.274473193402779"><ele>269.0</ele><time>2026-04-03T15:34:55.097Z</time></trkpt><trkpt lat="45.59297223217035" lon="8.27435602048969"><ele>268.6666666666667</ele><time>2026-04-03T15:34:56.097Z</time></trkpt><trkpt lat="45.59279744889371" lon="8.274237872729051"><ele>268.3333333333333</ele><time>2026-04-03T15:34:57.097Z</time></trkpt><trkpt lat="45.5926227950384" lon="8.274120771890706"><ele>268.0</ele><time>2026-04-03T15:34:58.097Z</time></trkpt><trkpt lat="45.592454799638865" lon="8.273978203247543"><ele>268.66666666666663</ele><time>2026-04-03T15:34:59.097Z</time></trkpt><trkpt lat="45.5922768531212" lon="8.273862922796924"><ele>269.3333333333333</ele><time>2026-04-03T15:35:00.097Z</time></trkpt><trkpt lat="45.59209894531579" lon="8.273747667428102"><ele>270.0</ele><time>2026-04-03T15:35:01.097Z</time></trkpt><trkpt lat="45.591920812972184" lon="8.273632266605182"><ele>270.3333333333333</ele><time>2026-04-03T15:35:02.097Z</time></trkpt><trkpt lat="45.59174311329484" lon="8.273516893607487"><ele>270.66666666666663</ele><time>2026-04-03T15:35:03.097Z</time></trkpt><trkpt lat="45.59156630228288" lon="8.27340111253526"><ele>271.0</ele><time>2026-04-03T15:35:04.097Z</time></trkpt><trkpt lat="45.591388613009784" lon="8.273284756343344"><ele>271.0</ele><time>2026-04-03T15:35:05.097Z</time></trkpt><trkpt lat="45.59121295768064" lon="8.273169762435199"><ele>271.0</ele><time>2026-04-03T15:35:06.097Z</time></trkpt><trkpt lat="45.59103843782649" lon="8.273057220178606"><ele>271.0</ele><time>2026-04-03T15:35:07.097Z</time></trkpt><trkpt lat="45.590862107046846" lon="8.272944493039608"><ele>269.3333333333333</ele><time>2026-04-03T15:35:08.097Z</time></trkpt><trkpt lat="45.59068305587585" lon="8.272829485087549"><ele>267.6666666666667</ele><time>2026-04-03T15:35:09.097Z</time></trkpt><trkpt lat="45.59050420457688" lon="8.272712187349649"><ele>266.0</ele><time>2026-04-03T15:35:10.097Z</time></trkpt><trkpt lat="45.59032353736625" lon="8.272594947895923"><ele>266.0</ele><time>2026-04-03T15:35:11.097Z</time></trkpt><trkpt lat="45.5901414424267" lon="8.272477185548293"><ele>266.0</ele><time>2026-04-03T15:35:12.097Z</time></trkpt><trkpt lat="45.58995938674556" lon="8.272359446329055"><ele>266.0</ele><time>2026-04-03T15:35:13.097Z</time></trkpt><trkpt lat="45.58977598675947" lon="8.272240837917606"><ele>265.6666666666667</ele><time>2026-04-03T15:35:14.097Z</time></trkpt><trkpt lat="45.58959354338449" lon="8.272122848116682"><ele>265.3333333333333</ele><time>2026-04-03T15:35:15.097Z</time></trkpt><trkpt lat="45.58941071359846" lon="8.272003830994315"><ele>265.0</ele><time>2026-04-03T15:35:16.097Z</time></trkpt><trkpt lat="45.5892318432946" lon="8.271885854278118"><ele>264.66666666666663</ele><time>2026-04-03T15:35:17.097Z</time></trkpt><trkpt lat="45.58905223879364" lon="8.271768186216812"><ele>264.3333333333333</ele><time>2026-04-03T15:35:18.097Z</time></trkpt><trkpt lat="45.58887214125527" lon="8.27165072076426"><ele>264.0</ele><time>2026-04-03T15:35:19.097Z</time></trkpt><trkpt lat="45.58869201784701" lon="8.271533831396548"><ele>263.6666666666667</ele><time>2026-04-03T15:35:20.097Z</time></trkpt><trkpt lat="45.58850362991829" lon="8.271444620360313"><ele>263.33333333333337</ele><time>2026-04-03T15:35:21.097Z</time></trkpt><trkpt lat="45.588323556642216" lon="8.271326448610818"><ele>263.0</ele><time>2026-04-03T15:35:22.013Z</time></trkpt><trkpt lat="45.58814543647343" lon="8.271211758272827"><ele>263.0</ele><time>2026-04-03T15:35:23.013Z</time></trkpt><trkpt lat="45.58796439289782" lon="8.271095279115288"><ele>263.0</ele><time>2026-04-03T15:35:24.013Z</time></trkpt><trkpt lat="45.587792208927844" lon="8.270951444748949"><ele>263.0</ele><time>2026-04-03T15:35:25.013Z</time></trkpt><trkpt lat="45.58760876076106" lon="8.270833720126497"><ele>263.33333333333337</ele><time>2026-04-03T15:35:26.013Z</time></trkpt><trkpt lat="45.58742509086279" lon="8.270715853230039"><ele>263.6666666666667</ele><time>2026-04-03T15:35:27.013Z</time></trkpt><trkpt lat="45.58723913050148" lon="8.270596516110285"><ele>264.0</ele><time>2026-04-03T15:35:28.013Z</time></trkpt><trkpt lat="45.587044896579485" lon="8.270497512924388"><ele>264.3333333333333</ele><time>2026-04-03T15:35:29.013Z</time></trkpt><trkpt lat="45.5868536361467" lon="8.270372179489264"><ele>264.66666666666663</ele><time>2026-04-03T15:35:30.013Z</time></trkpt><trkpt lat="45.586663007213296" lon="8.270243318679274"><ele>265.0</ele><time>2026-04-03T15:35:31.013Z</time></trkpt><trkpt lat="45.5864721494554" lon="8.270117796274445"><ele>265.0</ele><time>2026-04-03T15:35:32.013Z</time></trkpt><trkpt lat="45.58628086787217" lon="8.26999756425843"><ele>265.0</ele><time>2026-04-03T15:35:33.013Z</time></trkpt><trkpt lat="45.5860937609512" lon="8.269876398263351"><ele>265.0</ele><time>2026-04-03T15:35:34.013Z</time></trkpt><trkpt lat="45.58590484048374" lon="8.269756846968882"><ele>264.66666666666663</ele><time>2026-04-03T15:35:35.013Z</time></trkpt><trkpt lat="45.58572095015548" lon="8.269634661603725"><ele>264.3333333333333</ele><time>2026-04-03T15:35:36.013Z</time></trkpt><trkpt lat="45.58554639857261" lon="8.26949040268454"><ele>264.0</ele><time>2026-04-03T15:35:37.013Z</time></trkpt><trkpt lat="45.58536880556905" lon="8.269355734917227"><ele>264.0</ele><time>2026-04-03T15:35:38.013Z</time></trkpt><trkpt lat="45.58520535700574" lon="8.26919943319579"><ele>264.0</ele><time>2026-04-03T15:35:39.013Z</time></trkpt><trkpt lat="45.58505345626965" lon="8.269022306124219"><ele>264.0</ele><time>2026-04-03T15:35:40.013Z</time></trkpt><trkpt lat="45.584911009965005" lon="8.268827041657817"><ele>263.6666666666667</ele><time>2026-04-03T15:35:41.013Z</time></trkpt><trkpt lat="45.58478436211971" lon="8.268618556270317"><ele>263.33333333333337</ele><time>2026-04-03T15:35:42.013Z</time></trkpt><trkpt lat="45.584661406987934" lon="8.268411591099692"><ele>263.0</ele><time>2026-04-03T15:35:43.013Z</time></trkpt><trkpt lat="45.5845416153733" lon="8.268202774577226"><ele>263.33333333333337</ele><time>2026-04-03T15:35:44.013Z</time></trkpt><trkpt lat="45.5844250542735" lon="8.267987995947257"><ele>263.6666666666667</ele><time>2026-04-03T15:35:45.013Z</time></trkpt><trkpt lat="45.584304609201574" lon="8.26777938925502"><ele>264.0</ele><time>2026-04-03T15:35:46.013Z</time></trkpt><trkpt lat="45.58418624233895" lon="8.267569706727755"><ele>264.0</ele><time>2026-04-03T15:35:47.013Z</time></trkpt><trkpt lat="45.58408341577001" lon="8.267344416433742"><ele>264.0</ele><time>2026-04-03T15:35:48.013Z</time></trkpt><trkpt lat="45.58396885817592" lon="8.267139552802231"><ele>264.0</ele><time>2026-04-03T15:35:49.013Z</time></trkpt><trkpt lat="45.58385369117413" lon="8.26693359910244"><ele>264.0</ele><time>2026-04-03T15:35:50.013Z</time></trkpt><trkpt lat="45.58373731914231" lon="8.266725929457278"><ele>264.0</ele><time>2026-04-03T15:35:51.013Z</time></trkpt><trkpt lat="45.58362205421177" lon="8.26652021153923"><ele>264.0</ele><time>2026-04-03T15:35:52.013Z</time></trkpt><trkpt lat="45.58350844583598" lon="8.266318055385222"><ele>264.0</ele><time>2026-04-03T15:35:53.013Z</time></trkpt><trkpt lat="45.58339493698823" lon="8.266116323378455"><ele>264.0</ele><time>2026-04-03T15:35:54.013Z</time></trkpt><trkpt lat="45.58328814052257" lon="8.265925522380757"><ele>264.0</ele><time>2026-04-03T15:35:55.013Z</time></trkpt><trkpt lat="45.583174927553124" lon="8.265757608545133"><ele>264.0</ele><time>2026-04-03T15:35:56.013Z</time></trkpt><trkpt lat="45.58307768517964" lon="8.265587773812932"><ele>264.0</ele><time>2026-04-03T15:35:57.013Z</time></trkpt><trkpt lat="45.58298502582653" lon="8.265422800554619"><ele>264.0</ele><time>2026-04-03T15:35:58.013Z</time></trkpt><trkpt lat="45.58289182868542" lon="8.26525874130427"><ele>264.0</ele><time>2026-04-03T15:35:59.015Z</time></trkpt><trkpt lat="45.58279408937001" lon="8.265085371408722"><ele>264.0</ele><time>2026-04-03T15:36:00.015Z</time></trkpt><trkpt lat="45.58270613729417" lon="8.264889948566765"><ele>264.0</ele><time>2026-04-03T15:36:01.015Z</time></trkpt><trkpt lat="45.58259044293165" lon="8.264727298663894"><ele>264.0</ele><time>2026-04-03T15:36:02.016Z</time></trkpt><trkpt lat="45.582485608993096" lon="8.2645425234629"><ele>264.6666666666667</ele><time>2026-04-03T15:36:03.015Z</time></trkpt><trkpt lat="45.582378806067005" lon="8.26435166353528"><ele>265.33333333333337</ele><time>2026-04-03T15:36:04.015Z</time></trkpt><trkpt lat="45.5822674971588" lon="8.264156777723986"><ele>266.0</ele><time>2026-04-03T15:36:05.016Z</time></trkpt><trkpt lat="45.582171828005634" lon="8.263940758590664"><ele>266.0</ele><time>2026-04-03T15:36:06.015Z</time></trkpt><trkpt lat="45.582060501341566" lon="8.26374309090731"><ele>266.0</ele><time>2026-04-03T15:36:07.015Z</time></trkpt><trkpt lat="45.58194880343217" lon="8.263542392234088"><ele>266.0</ele><time>2026-04-03T15:36:08.015Z</time></trkpt><trkpt lat="45.58183777195261" lon="8.263342918284605"><ele>265.6666666666667</ele><time>2026-04-03T15:36:09.015Z</time></trkpt><trkpt lat="45.58172698537068" lon="8.263143884361266"><ele>265.3333333333333</ele><time>2026-04-03T15:36:10.015Z</time></trkpt><trkpt lat="45.581612200479604" lon="8.26293828248639"><ele>265.0</ele><time>2026-04-03T15:36:11.016Z</time></trkpt><trkpt lat="45.5814946416703" lon="8.262731352607819"><ele>265.0</ele><time>2026-04-03T15:36:12.016Z</time></trkpt><trkpt lat="45.58138367727314" lon="8.262536030367821"><ele>265.0</ele><time>2026-04-03T15:36:13.016Z</time></trkpt><trkpt lat="45.5812769231457" lon="8.262348119090603"><ele>265.0</ele><time>2026-04-03T15:36:14.016Z</time></trkpt><trkpt lat="45.58117443288377" lon="8.262167545987992"><ele>264.0</ele><time>2026-04-03T15:36:15.016Z</time></trkpt><trkpt lat="45.58107291897666" lon="8.261987356181017"><ele>263.0</ele><time>2026-04-03T15:36:16.016Z</time></trkpt><trkpt lat="45.58095524484417" lon="8.261817466377765"><ele>262.0</ele><time>2026-04-03T15:36:17.016Z</time></trkpt><trkpt lat="45.58086318244568" lon="8.261615409744413"><ele>261.3333333333333</ele><time>2026-04-03T15:36:18.016Z</time></trkpt><trkpt lat="45.580755542314" lon="8.261423093284938"><ele>260.6666666666667</ele><time>2026-04-03T15:36:19.016Z</time></trkpt><trkpt lat="45.58064778984684" lon="8.261230569423024"><ele>260.0</ele><time>2026-04-03T15:36:20.015Z</time></trkpt><trkpt lat="45.5805437605764" lon="8.261044697862546"><ele>260.0</ele><time>2026-04-03T15:36:21.015Z</time></trkpt><trkpt lat="45.58044368014621" lon="8.260865881817042"><ele>260.0</ele><time>2026-04-03T15:36:22.015Z</time></trkpt><trkpt lat="45.5803492145711" lon="8.260698245728724"><ele>260.0</ele><time>2026-04-03T15:36:23.015Z</time></trkpt><trkpt lat="45.580259455628216" lon="8.260540530632612"><ele>260.25</ele><time>2026-04-03T15:36:24.015Z</time></trkpt><trkpt lat="45.580170581658855" lon="8.260384369433293"><ele>260.5</ele><time>2026-04-03T15:36:25.015Z</time></trkpt><trkpt lat="45.58008304300318" lon="8.260230554406393"><ele>260.75</ele><time>2026-04-03T15:36:26.015Z</time></trkpt><trkpt lat="45.579982490617525" lon="8.260097118662552"><ele>261.0</ele><time>2026-04-03T15:36:27.015Z</time></trkpt><trkpt lat="45.57990201273181" lon="8.259957795752904"><ele>261.0</ele><time>2026-04-03T15:36:28.015Z</time></trkpt><trkpt lat="45.57982809572013" lon="8.259825818776662"><ele>261.0</ele><time>2026-04-03T15:36:29.015Z</time></trkpt><trkpt lat="45.57975763771381" lon="8.259699760098332"><ele>261.0</ele><time>2026-04-03T15:36:30.015Z</time></trkpt><trkpt lat="45.579690516712695" lon="8.259592820150361"><ele>261.0</ele><time>2026-04-03T15:36:31.015Z</time></trkpt><trkpt lat="45.57962365652481" lon="8.259515279917547"><ele>261.0</ele><time>2026-04-03T15:36:32.015Z</time></trkpt><trkpt lat="45.57955352293409" lon="8.2594665100451"><ele>261.2</ele><time>2026-04-03T15:36:33.015Z</time></trkpt><trkpt lat="45.57948278465223" lon="8.259452313277027"><ele>261.40000000000003</ele><time>2026-04-03T15:36:34.015Z</time></trkpt><trkpt lat="45.579544413914014" lon="8.259316710170015"><ele>261.6</ele><time>2026-04-03T15:36:35.015Z</time></trkpt><trkpt lat="45.579435016884275" lon="8.259387357854397"><ele>261.8</ele><time>2026-04-03T15:36:36.015Z</time></trkpt><trkpt lat="45.57940378214417" lon="8.259305794185531"><ele>262.0</ele><time>2026-04-03T15:36:38.015Z</time></trkpt><trkpt lat="45.579267412467395" lon="8.259363822733032"><ele>262.0</ele><time>2026-04-03T15:36:42.015Z</time></trkpt></trkseg><trkseg><trkpt lat="45.57925956708246" lon="8.259245694945921"><ele>262.0</ele><time>2026-04-03T15:46:42.02Z</time></trkpt><trkpt lat="45.57926563445243" lon="8.259155638800197"><ele>262.0</ele><time>2026-04-03T15:46:44.02Z</time></trkpt><trkpt lat="45.579283065783805" lon="8.25905082663412"><ele>262.0</ele><time>2026-04-03T15:46:46.02Z</time></trkpt><trkpt lat="45.579309996510034" lon="8.25893288108803"><ele>262.0</ele><time>2026-04-03T15:46:59.019Z</time></trkpt><trkpt lat="45.579239693404965" lon="8.258751890399681"><ele>262.0</ele><time>2026-04-03T15:47:01.019Z</time></trkpt><trkpt lat="45.579166867805476" lon="8.258631572824559"><ele>262.25</ele><time>2026-04-03T15:47:02.019Z</time></trkpt><trkpt lat="45.57909740720338" lon="8.25852340682333"><ele>262.5</ele><time>2026-04-03T15:47:03.019Z</time></trkpt><trkpt lat="45.57903226705155" lon="8.258401085109378"><ele>262.75</ele><time>2026-04-03T15:47:04.019Z</time></trkpt><trkpt lat="45.57895224592019" lon="8.258257252290408"><ele>263.0</ele><time>2026-04-03T15:47:05.019Z</time></trkpt><trkpt lat="45.57885921986256" lon="8.2580924029982"><ele>263.0</ele><time>2026-04-03T15:47:06.019Z</time></trkpt><trkpt lat="45.5787581404102" lon="8.257907869173803"><ele>263.0</ele><time>2026-04-03T15:47:07.019Z</time></trkpt><trkpt lat="45.578656189713506" lon="8.257730756276098"><ele>263.0</ele><time>2026-04-03T15:47:08.019Z</time></trkpt><trkpt lat="45.578567499264956" lon="8.257569313123144"><ele>262.6666666666667</ele><time>2026-04-03T15:47:09.019Z</time></trkpt><trkpt lat="45.578472694327296" lon="8.257402193783296"><ele>262.3333333333333</ele><time>2026-04-03T15:47:10.019Z</time></trkpt><trkpt lat="45.57837448540504" lon="8.257219717651209"><ele>262.0</ele><time>2026-04-03T15:47:11.019Z</time></trkpt><trkpt lat="45.57827068294002" lon="8.257038925210074"><ele>262.66666666666663</ele><time>2026-04-03T15:47:12.019Z</time></trkpt><trkpt lat="45.57817707713651" lon="8.25685951120198"><ele>263.3333333333333</ele><time>2026-04-03T15:47:13.019Z</time></trkpt><trkpt lat="45.57807437394494" lon="8.256686593233873"><ele>264.0</ele><time>2026-04-03T15:47:14.019Z</time></trkpt><trkpt lat="45.57797531523446" lon="8.256500813627502"><ele>264.0</ele><time>2026-04-03T15:47:15.019Z</time></trkpt><trkpt lat="45.577868865368934" lon="8.256316431939634"><ele>264.0</ele><time>2026-04-03T15:47:16.019Z</time></trkpt><trkpt lat="45.57776716463187" lon="8.256127513328268"><ele>264.0</ele><time>2026-04-03T15:47:17.019Z</time></trkpt><trkpt lat="45.577661661792504" lon="8.255938458654551"><ele>263.0</ele><time>2026-04-03T15:47:18.019Z</time></trkpt><trkpt lat="45.577554677126365" lon="8.25575053289279"><ele>262.0</ele><time>2026-04-03T15:47:19.019Z</time></trkpt><trkpt lat="45.5774524591298" lon="8.255564574610041"><ele>261.0</ele><time>2026-04-03T15:47:20.019Z</time></trkpt><trkpt lat="45.57735492874966" lon="8.255393746041538"><ele>260.8</ele><time>2026-04-03T15:47:21.019Z</time></trkpt><trkpt lat="45.5772594624422" lon="8.255242868854005"><ele>260.6</ele><time>2026-04-03T15:47:22.019Z</time></trkpt><trkpt lat="45.57718292280451" lon="8.255112951051723"><ele>260.4</ele><time>2026-04-03T15:47:23.019Z</time></trkpt><trkpt lat="45.57712762465631" lon="8.254995925532159"><ele>260.2</ele><time>2026-04-03T15:47:24.019Z</time></trkpt><trkpt lat="45.577093959515956" lon="8.254895995429246"><ele>260.0</ele><time>2026-04-03T15:47:25.019Z</time></trkpt><trkpt lat="45.577082631844725" lon="8.25480228860561"><ele>260.14285714285717</ele><time>2026-04-03T15:47:26.019Z</time></trkpt><trkpt lat="45.577090924031474" lon="8.25471304019966"><ele>260.2857142857143</ele><time>2026-04-03T15:47:27.019Z</time></trkpt><trkpt lat="45.577108236414276" lon="8.254612351899194"><ele>260.42857142857144</ele><time>2026-04-03T15:47:28.019Z</time></trkpt><trkpt lat="45.57711421365848" lon="8.254499921072393"><ele>260.57142857142856</ele><time>2026-04-03T15:47:29.019Z</time></trkpt><trkpt lat="45.57708838249462" lon="8.254401577346473"><ele>260.7142857142857</ele><time>2026-04-03T15:47:30.019Z</time></trkpt><trkpt lat="45.577036300320856" lon="8.254342804333824"><ele>260.8571428571429</ele><time>2026-04-03T15:47:31.019Z</time></trkpt><trkpt lat="45.576969412656766" lon="8.254322917484421"><ele>261.0</ele><time>2026-04-03T15:47:32.019Z</time></trkpt><trkpt lat="45.576872103599975" lon="8.254326773413196"><ele>260.75</ele><time>2026-04-03T15:47:33.019Z</time></trkpt><trkpt lat="45.57677059854301" lon="8.254286274299787"><ele>260.5</ele><time>2026-04-03T15:47:34.019Z</time></trkpt><trkpt lat="45.57668012513756" lon="8.254179162015348"><ele>260.25</ele><time>2026-04-03T15:47:35.019Z</time></trkpt><trkpt lat="45.57657399545468" lon="8.254044615676262"><ele>260.0</ele><time>2026-04-03T15:47:36.019Z</time></trkpt><trkpt lat="45.57645129874503" lon="8.25389881667774"><ele>260.0</ele><time>2026-04-03T15:47:37.019Z</time></trkpt><trkpt lat="45.576312908096355" lon="8.253755742854919"><ele>260.0</ele><time>2026-04-03T15:47:38.019Z</time></trkpt><trkpt lat="45.57617117159067" lon="8.253629435492316"><ele>260.0</ele><time>2026-04-03T15:47:39.019Z</time></trkpt><trkpt lat="45.57602475531643" lon="8.253506521010497"><ele>260.33333333333337</ele><time>2026-04-03T15:47:40.019Z</time></trkpt><trkpt lat="45.575862979008896" lon="8.253377857456753"><ele>260.6666666666667</ele><time>2026-04-03T15:47:41.019Z</time></trkpt><trkpt lat="45.5756915431396" lon="8.253243687866773"><ele>261.0</ele><time>2026-04-03T15:47:42.019Z</time></trkpt><trkpt lat="45.575516426733884" lon="8.253105648386029"><ele>260.3333333333333</ele><time>2026-04-03T15:47:43.019Z</time></trkpt><trkpt lat="45.57535182890416" lon="8.252975501524006"><ele>259.66666666666663</ele><time>2026-04-03T15:47:44.019Z</time></trkpt><trkpt lat="45.57519356648783" lon="8.252850362116856"><ele>259.0</ele><time>2026-04-03T15:47:45.019Z</time></trkpt><trkpt lat="45.57503038822885" lon="8.252722777299509"><ele>259.0</ele><time>2026-04-03T15:47:46.019Z</time></trkpt><trkpt lat="45.57486255687916" lon="8.252592553596665"><ele>259.0</ele><time>2026-04-03T15:47:47.019Z</time></trkpt><trkpt lat="45.57469435199955" lon="8.252462763880299"><ele>259.0</ele><time>2026-04-03T15:47:48.019Z</time></trkpt><trkpt lat="45.57452859508248" lon="8.252330672341909"><ele>259.3333333333333</ele><time>2026-04-03T15:47:49.019Z</time></trkpt><trkpt lat="45.57436567800104" lon="8.252200136385067"><ele>259.6666666666667</ele><time>2026-04-03T15:47:50.019Z</time></trkpt><trkpt lat="45.57420196262145" lon="8.25207084780011"><ele>260.0</ele><time>2026-04-03T15:47:51.019Z</time></trkpt><trkpt lat="45.57403728908614" lon="8.251941252688328"><ele>260.0</ele><time>2026-04-03T15:47:52.019Z</time></trkpt><trkpt lat="45.57387158787827" lon="8.251810848809244"><ele>260.0</ele><time>2026-04-03T15:47:53.019Z</time></trkpt><trkpt lat="45.57370542915602" lon="8.251679845646347"><ele>260.0</ele><time>2026-04-03T15:47:54.019Z</time></trkpt><trkpt lat="45.57353775104784" lon="8.251545926395673"><ele>259.33333333333337</ele><time>2026-04-03T15:47:55.019Z</time></trkpt><trkpt lat="45.57337690253768" lon="8.251417461826996"><ele>258.6666666666667</ele><time>2026-04-03T15:47:56.019Z</time></trkpt><trkpt lat="45.57321510800954" lon="8.251288241556523"><ele>258.0</ele><time>2026-04-03T15:47:57.019Z</time></trkpt><trkpt lat="45.57304104330927" lon="8.251175631861605"><ele>258.0</ele><time>2026-04-03T15:47:58.019Z</time></trkpt><trkpt lat="45.57287664505154" lon="8.251025521460614"><ele>258.0</ele><time>2026-04-03T15:47:59.019Z</time></trkpt><trkpt lat="45.57270002829064" lon="8.250890975463673"><ele>258.0</ele><time>2026-04-03T15:48:00.019Z</time></trkpt><trkpt lat="45.572526878815886" lon="8.250742181063472"><ele>257.0</ele><time>2026-04-03T15:48:01.019Z</time></trkpt><trkpt lat="45.572346412426334" lon="8.250608247301878"><ele>256.0</ele><time>2026-04-03T15:48:02.019Z</time></trkpt><trkpt lat="45.57216798384596" lon="8.25046938142334"><ele>255.0</ele><time>2026-04-03T15:48:03.019Z</time></trkpt><trkpt lat="45.57198988943226" lon="8.250331343356583"><ele>255.0</ele><time>2026-04-03T15:48:04.019Z</time></trkpt><trkpt lat="45.571814099803674" lon="8.250195516904963"><ele>255.0</ele><time>2026-04-03T15:48:05.019Z</time></trkpt><trkpt lat="45.57164067043505" lon="8.250060582820016"><ele>255.0</ele><time>2026-04-03T15:48:06.019Z</time></trkpt><trkpt lat="45.571470998348204" lon="8.249923262367727"><ele>255.0</ele><time>2026-04-03T15:48:07.019Z</time></trkpt><trkpt lat="45.5712997644177" lon="8.249792496314981"><ele>255.0</ele><time>2026-04-03T15:48:08.019Z</time></trkpt><trkpt lat="45.57113065899981" lon="8.249658233175166"><ele>255.0</ele><time>2026-04-03T15:48:09.018Z</time></trkpt><trkpt lat="45.57096097421965" lon="8.249523242733185"><ele>254.33333333333331</ele><time>2026-04-03T15:48:10.018Z</time></trkpt><trkpt lat="45.57079092552579" lon="8.249387186916971"><ele>253.66666666666666</ele><time>2026-04-03T15:48:11.018Z</time></trkpt><trkpt lat="45.57062490343669" lon="8.249243183290162"><ele>253.0</ele><time>2026-04-03T15:48:12.018Z</time></trkpt><trkpt lat="45.57045424859134" lon="8.249112497711353"><ele>253.0</ele><time>2026-04-03T15:48:13.018Z</time></trkpt><trkpt lat="45.57028242846163" lon="8.248982006799839"><ele>253.0</ele><time>2026-04-03T15:48:14.018Z</time></trkpt><trkpt lat="45.57011768996219" lon="8.248843734928645"><ele>253.0</ele><time>2026-04-03T15:48:15.018Z</time></trkpt><trkpt lat="45.569948697943765" lon="8.248717545899423"><ele>253.0</ele><time>2026-04-03T15:48:16.018Z</time></trkpt><trkpt lat="45.56978871116946" lon="8.248579946724552"><ele>253.0</ele><time>2026-04-03T15:48:17.018Z</time></trkpt><trkpt lat="45.56962832882395" lon="8.248456096805969"><ele>253.0</ele><time>2026-04-03T15:48:18.018Z</time></trkpt><trkpt lat="45.569472735346146" lon="8.248334023075396"><ele>252.66666666666666</ele><time>2026-04-03T15:48:19.018Z</time></trkpt><trkpt lat="45.56932479972203" lon="8.248206832316049"><ele>252.33333333333331</ele><time>2026-04-03T15:48:20.018Z</time></trkpt><trkpt lat="45.569171986971476" lon="8.248091070390572"><ele>252.0</ele><time>2026-04-03T15:48:21.018Z</time></trkpt><trkpt lat="45.56901976472002" lon="8.247970423423983"><ele>252.0</ele><time>2026-04-03T15:48:22.018Z</time></trkpt><trkpt lat="45.568872640039174" lon="8.247852196197348"><ele>252.0</ele><time>2026-04-03T15:48:23.018Z</time></trkpt><trkpt lat="45.56872825109058" lon="8.247740757922276"><ele>252.0</ele><time>2026-04-03T15:48:24.018Z</time></trkpt><trkpt lat="45.56858971777816" lon="8.247633072371006"><ele>252.0</ele><time>2026-04-03T15:48:25.018Z</time></trkpt><trkpt lat="45.568456390711226" lon="8.247527214399076"><ele>252.0</ele><time>2026-04-03T15:48:26.018Z</time></trkpt><trkpt lat="45.56831874190585" lon="8.24742278325334"><ele>252.0</ele><time>2026-04-03T15:48:27.018Z</time></trkpt><trkpt lat="45.56818155593644" lon="8.247320029479255"><ele>252.0</ele><time>2026-04-03T15:48:28.018Z</time></trkpt><trkpt lat="45.56804835413448" lon="8.24720566235812"><ele>252.0</ele><time>2026-04-03T15:48:29.018Z</time></trkpt><trkpt lat="45.567912698317144" lon="8.247101340385877"><ele>252.0</ele><time>2026-04-03T15:48:30.018Z</time></trkpt><trkpt lat="45.567780817137454" lon="8.24698569294873"><ele>252.0</ele><time>2026-04-03T15:48:31.018Z</time></trkpt><trkpt lat="45.56764344353573" lon="8.246880798575964"><ele>252.0</ele><time>2026-04-03T15:48:32.018Z</time></trkpt><trkpt lat="45.5675078681646" lon="8.246776657627784"><ele>252.0</ele><time>2026-04-03T15:48:33.018Z</time></trkpt><trkpt lat="45.56737001555846" lon="8.246670769769649"><ele>252.0</ele><time>2026-04-03T15:48:34.018Z</time></trkpt><trkpt lat="45.56722960471055" lon="8.246561884063787"><ele>252.0</ele><time>2026-04-03T15:48:35.02Z</time></trkpt><trkpt lat="45.56709220774271" lon="8.246453330629487"><ele>252.0</ele><time>2026-04-03T15:48:36.019Z</time></trkpt><trkpt lat="45.56695844760419" lon="8.246337934224183"><ele>252.0</ele><time>2026-04-03T15:48:37.019Z</time></trkpt><trkpt lat="45.56682352643393" lon="8.246232952268622"><ele>252.0</ele><time>2026-04-03T15:48:38.019Z</time></trkpt><trkpt lat="45.56668734596324" lon="8.24612684724937"><ele>252.0</ele><time>2026-04-03T15:48:39.02Z</time></trkpt><trkpt lat="45.566552546069914" lon="8.246022708122464"><ele>252.0</ele><time>2026-04-03T15:48:40.02Z</time></trkpt><trkpt lat="45.566417433514694" lon="8.245919171005319"><ele>252.0</ele><time>2026-04-03T15:48:41.02Z</time></trkpt><trkpt lat="45.5662816157663" lon="8.245816098286904"><ele>252.0</ele><time>2026-04-03T15:48:42.02Z</time></trkpt><trkpt lat="45.56615406587238" lon="8.245689946545491"><ele>251.33333333333331</ele><time>2026-04-03T15:48:43.02Z</time></trkpt><trkpt lat="45.56601956043963" lon="8.245583645889507"><ele>250.66666666666666</ele><time>2026-04-03T15:48:44.019Z</time></trkpt><trkpt lat="45.56588697986084" lon="8.245479158356956"><ele>250.0</ele><time>2026-04-03T15:48:45.019Z</time></trkpt><trkpt lat="45.5657542240155" lon="8.245374529781035"><ele>250.0</ele><time>2026-04-03T15:48:46.019Z</time></trkpt><trkpt lat="45.56562094274274" lon="8.245268571512796"><ele>250.0</ele><time>2026-04-03T15:48:47.02Z</time></trkpt><trkpt lat="45.56548832084938" lon="8.245163840743192"><ele>250.0</ele><time>2026-04-03T15:48:48.02Z</time></trkpt><trkpt lat="45.56535943378316" lon="8.245061876394836"><ele>249.75</ele><time>2026-04-03T15:48:49.02Z</time></trkpt><trkpt lat="45.5652334199185" lon="8.244962185732186"><ele>249.5</ele><time>2026-04-03T15:48:50.02Z</time></trkpt><trkpt lat="45.56511356188176" lon="8.24486736558373"><ele>249.25</ele><time>2026-04-03T15:48:51.02Z</time></trkpt><trkpt lat="45.56499740919821" lon="8.244775477313638"><ele>249.0</ele><time>2026-04-03T15:48:52.02Z</time></trkpt><trkpt lat="45.564877409472025" lon="8.244680545636843"><ele>248.75</ele><time>2026-04-03T15:48:53.02Z</time></trkpt><trkpt lat="45.56474149006116" lon="8.244620374039966"><ele>248.5</ele><time>2026-04-03T15:48:54.02Z</time></trkpt><trkpt lat="45.56462153214095" lon="8.244522244087868"><ele>248.25</ele><time>2026-04-03T15:48:55.02Z</time></trkpt><trkpt lat="45.564506400911824" lon="8.244428175434264"><ele>248.0</ele><time>2026-04-03T15:48:56.02Z</time></trkpt><trkpt lat="45.564391665685214" lon="8.244337213196786"><ele>247.5</ele><time>2026-04-03T15:48:57.02Z</time></trkpt><trkpt lat="45.564290325431514" lon="8.244215961944011"><ele>247.0</ele><time>2026-04-03T15:48:58.02Z</time></trkpt><trkpt lat="45.56418149469417" lon="8.244129828162576"><ele>246.5</ele><time>2026-04-03T15:48:59.02Z</time></trkpt><trkpt lat="45.56407905732178" lon="8.244048754446212"><ele>246.0</ele><time>2026-04-03T15:49:00.02Z</time></trkpt><trkpt lat="45.5639813385788" lon="8.243971416414151"><ele>245.8</ele><time>2026-04-03T15:49:01.02Z</time></trkpt><trkpt lat="45.56388750972048" lon="8.243891640073544"><ele>245.60000000000002</ele><time>2026-04-03T15:49:02.02Z</time></trkpt><trkpt lat="45.56380879818494" lon="8.243820369546079"><ele>245.4</ele><time>2026-04-03T15:49:03.02Z</time></trkpt><trkpt lat="45.563737718515085" lon="8.243751795023007"><ele>245.2</ele><time>2026-04-03T15:49:04.019Z</time></trkpt><trkpt lat="45.563678616772854" lon="8.243687858701998"><ele>245.0</ele><time>2026-04-03T15:49:05.019Z</time></trkpt><trkpt lat="45.56359617229413" lon="8.24359669465135"><ele>245.00000000000003</ele><time>2026-04-03T15:49:07.019Z</time></trkpt><trkpt lat="45.563525723337555" lon="8.243491944902296"><ele>245.0</ele><time>2026-04-03T15:49:09.019Z</time></trkpt><trkpt lat="45.563502797920464" lon="8.24339876142607"><ele>245.0</ele><time>2026-04-03T15:49:10.019Z</time></trkpt><trkpt lat="45.563474435879996" lon="8.243305448505067"><ele>245.0</ele><time>2026-04-03T15:49:11.019Z</time></trkpt><trkpt lat="45.563439863415546" lon="8.243225179055807"><ele>245.00000000000003</ele><time>2026-04-03T15:49:12.019Z</time></trkpt><trkpt lat="45.56333966266868" lon="8.24312826703001"><ele>245.0</ele><time>2026-04-03T15:49:14.019Z</time></trkpt><trkpt lat="45.563264721679765" lon="8.243162510083971"><ele>244.83333333333334</ele><time>2026-04-03T15:49:15.019Z</time></trkpt><trkpt lat="45.563198338340705" lon="8.243187281580894"><ele>244.66666666666669</ele><time>2026-04-03T15:49:16.019Z</time></trkpt><trkpt lat="45.563128928328005" lon="8.243214354706547"><ele>244.5</ele><time>2026-04-03T15:49:17.019Z</time></trkpt><trkpt lat="45.563053847536324" lon="8.24321285808475"><ele>244.33333333333331</ele><time>2026-04-03T15:49:18.019Z</time></trkpt><trkpt lat="45.562974015764894" lon="8.243190388786266"><ele>244.16666666666666</ele><time>2026-04-03T15:49:19.019Z</time></trkpt><trkpt lat="45.56290008140278" lon="8.24313870124444"><ele>244.0</ele><time>2026-04-03T15:49:20.019Z</time></trkpt><trkpt lat="45.562825579308694" lon="8.243081055178223"><ele>244.6</ele><time>2026-04-03T15:49:21.019Z</time></trkpt><trkpt lat="45.56274919990225" lon="8.243019337526626"><ele>245.2</ele><time>2026-04-03T15:49:22.019Z</time></trkpt><trkpt lat="45.56266618674015" lon="8.242960473773236"><ele>245.79999999999998</ele><time>2026-04-03T15:49:23.019Z</time></trkpt><trkpt lat="45.562576441141424" lon="8.242892986724133"><ele>246.39999999999998</ele><time>2026-04-03T15:49:24.019Z</time></trkpt><trkpt lat="45.56248231378349" lon="8.242820431523231"><ele>247.0</ele><time>2026-04-03T15:49:25.019Z</time></trkpt><trkpt lat="45.56239380898675" lon="8.24274597165572"><ele>247.0</ele><time>2026-04-03T15:49:26.019Z</time></trkpt><trkpt lat="45.56229722875562" lon="8.242664594777192"><ele>247.0</ele><time>2026-04-03T15:49:27.019Z</time></trkpt><trkpt lat="45.562190903037546" lon="8.242585198830144"><ele>247.0</ele><time>2026-04-03T15:49:28.019Z</time></trkpt><trkpt lat="45.5620855148197" lon="8.24250856385371"><ele>247.0</ele><time>2026-04-03T15:49:29.019Z</time></trkpt><trkpt lat="45.5619826673133" lon="8.242428553427217"><ele>246.5</ele><time>2026-04-03T15:49:30.019Z</time></trkpt><trkpt lat="45.56188130513193" lon="8.242351759871902"><ele>246.0</ele><time>2026-04-03T15:49:31.019Z</time></trkpt><trkpt lat="45.561786441311156" lon="8.242260767415228"><ele>245.5</ele><time>2026-04-03T15:49:32.019Z</time></trkpt><trkpt lat="45.56168365159159" lon="8.242179699247343"><ele>245.0</ele><time>2026-04-03T15:49:33.019Z</time></trkpt><trkpt lat="45.561581791339734" lon="8.242094672078084"><ele>244.5</ele><time>2026-04-03T15:49:34.019Z</time></trkpt><trkpt lat="45.56148142191499" lon="8.242014819085188"><ele>244.0</ele><time>2026-04-03T15:49:35.019Z</time></trkpt><trkpt lat="45.561383296958056" lon="8.241939086751561"><ele>243.5</ele><time>2026-04-03T15:49:36.019Z</time></trkpt><trkpt lat="45.56128507296016" lon="8.241863631156479"><ele>243.0</ele><time>2026-04-03T15:49:37.019Z</time></trkpt><trkpt lat="45.561184426727735" lon="8.241787930734647"><ele>242.75</ele><time>2026-04-03T15:49:38.019Z</time></trkpt><trkpt lat="45.56108302562559" lon="8.241712080012347"><ele>242.5</ele><time>2026-04-03T15:49:39.019Z</time></trkpt><trkpt lat="45.5609820209225" lon="8.24163531752419"><ele>242.25</ele><time>2026-04-03T15:49:40.019Z</time></trkpt><trkpt lat="45.56088368789965" lon="8.241556754054871"><ele>242.0</ele><time>2026-04-03T15:49:41.019Z</time></trkpt><trkpt lat="45.560793496644344" lon="8.241466559001227"><ele>242.00000000000003</ele><time>2026-04-03T15:49:42.019Z</time></trkpt><trkpt lat="45.56070238788684" lon="8.241391855400426"><ele>242.0</ele><time>2026-04-03T15:49:43.019Z</time></trkpt><trkpt lat="45.560617953175324" lon="8.241321376080787"><ele>242.0</ele><time>2026-04-03T15:49:44.019Z</time></trkpt><trkpt lat="45.56054912523573" lon="8.241245055527198"><ele>242.0</ele><time>2026-04-03T15:49:45.019Z</time></trkpt><trkpt lat="45.560501230812285" lon="8.241158356446464"><ele>242.00000000000003</ele><time>2026-04-03T15:49:46.019Z</time></trkpt><trkpt lat="45.560459817175435" lon="8.241078173612534"><ele>242.0</ele><time>2026-04-03T15:49:47.019Z</time></trkpt><trkpt lat="45.56035279060207" lon="8.24101088502425"><ele>242.0</ele><time>2026-04-03T15:49:49.019Z</time></trkpt><trkpt lat="45.56028027226647" lon="8.241028663470782"><ele>242.0</ele><time>2026-04-03T15:49:50.019Z</time></trkpt><trkpt lat="45.560202910933334" lon="8.241083057278273"><ele>242.0</ele><time>2026-04-03T15:49:51.019Z</time></trkpt><trkpt lat="45.5601081277882" lon="8.24113575584913"><ele>242.0</ele><time>2026-04-03T15:49:52.019Z</time></trkpt><trkpt lat="45.55999161375804" lon="8.241161004192097"><ele>242.0</ele><time>2026-04-03T15:49:53.019Z</time></trkpt><trkpt lat="45.55987206791857" lon="8.241179408050973"><ele>242.0</ele><time>2026-04-03T15:49:54.019Z</time></trkpt><trkpt lat="45.559757140488585" lon="8.241205680409973"><ele>242.0</ele><time>2026-04-03T15:49:55.019Z</time></trkpt><trkpt lat="45.5596322946884" lon="8.241222041096394"><ele>242.0</ele><time>2026-04-03T15:49:56.019Z</time></trkpt><trkpt lat="45.55949283111784" lon="8.2412292668591"><ele>242.0</ele><time>2026-04-03T15:49:57.019Z</time></trkpt><trkpt lat="45.559337931836765" lon="8.241253902805248"><ele>241.5</ele><time>2026-04-03T15:49:58.019Z</time></trkpt><trkpt lat="45.55918600639359" lon="8.241279176941557"><ele>241.0</ele><time>2026-04-03T15:49:59.019Z</time></trkpt><trkpt lat="45.559041463409976" lon="8.24130323973145"><ele>240.5</ele><time>2026-04-03T15:50:00.019Z</time></trkpt><trkpt lat="45.55889217913711" lon="8.241326612489274"><ele>240.0</ele><time>2026-04-03T15:50:01.019Z</time></trkpt><trkpt lat="45.558733618154115" lon="8.241353490576723"><ele>239.0</ele><time>2026-04-03T15:50:02.019Z</time></trkpt><trkpt lat="45.5585648268277" lon="8.241382419608467"><ele>238.0</ele><time>2026-04-03T15:50:03.019Z</time></trkpt><trkpt lat="45.55838963352682" lon="8.241412721783776"><ele>237.0</ele><time>2026-04-03T15:50:04.019Z</time></trkpt><trkpt lat="45.55820401264996" lon="8.241446311824044"><ele>237.66666666666669</ele><time>2026-04-03T15:50:05.019Z</time></trkpt><trkpt lat="45.55801664479088" lon="8.241483291072743"><ele>238.33333333333334</ele><time>2026-04-03T15:50:06.019Z</time></trkpt><trkpt lat="45.55783829895668" lon="8.241513243591658"><ele>239.0</ele><time>2026-04-03T15:50:07.019Z</time></trkpt><trkpt lat="45.557656589431154" lon="8.24153763343265"><ele>239.0</ele><time>2026-04-03T15:50:08.019Z</time></trkpt><trkpt lat="45.55746806329218" lon="8.241564208837515"><ele>239.0</ele><time>2026-04-03T15:50:09.019Z</time></trkpt><trkpt lat="45.55727348614345" lon="8.241591181660477"><ele>239.0</ele><time>2026-04-03T15:50:10.019Z</time></trkpt><trkpt lat="45.55707600559402" lon="8.241622452380227"><ele>240.0</ele><time>2026-04-03T15:50:11.019Z</time></trkpt><trkpt lat="45.55687763365059" lon="8.241655358380621"><ele>241.0</ele><time>2026-04-03T15:50:12.019Z</time></trkpt><trkpt lat="45.55668092477869" lon="8.241684523896383"><ele>242.0</ele><time>2026-04-03T15:50:13.019Z</time></trkpt><trkpt lat="45.556484056284084" lon="8.241715731700317"><ele>242.0</ele><time>2026-04-03T15:50:14.019Z</time></trkpt><trkpt lat="45.556288999940925" lon="8.241745511828617"><ele>242.0</ele><time>2026-04-03T15:50:15.019Z</time></trkpt><trkpt lat="45.556094880905086" lon="8.24177233001916"><ele>242.0</ele><time>2026-04-03T15:50:16.018Z</time></trkpt><trkpt lat="45.55590175402153" lon="8.241802693144566"><ele>242.0</ele><time>2026-04-03T15:50:17.018Z</time></trkpt><trkpt lat="45.55570839737201" lon="8.241832602714481"><ele>242.0</ele><time>2026-04-03T15:50:18.018Z</time></trkpt><trkpt lat="45.555522838672864" lon="8.241860207957206"><ele>242.0</ele><time>2026-04-03T15:50:19.018Z</time></trkpt><trkpt lat="45.555336916835614" lon="8.241891575112788"><ele>241.33333333333334</ele><time>2026-04-03T15:50:20.018Z</time></trkpt><trkpt lat="45.55514836228127" lon="8.241919793061268"><ele>240.66666666666669</ele><time>2026-04-03T15:50:21.018Z</time></trkpt><trkpt lat="45.55496206185898" lon="8.24195107903949"><ele>240.0</ele><time>2026-04-03T15:50:22.018Z</time></trkpt><trkpt lat="45.55477924201307" lon="8.241982578447846"><ele>240.0</ele><time>2026-04-03T15:50:23.018Z</time></trkpt><trkpt lat="45.55459934000455" lon="8.242012005801511"><ele>240.0</ele><time>2026-04-03T15:50:24.018Z</time></trkpt><trkpt lat="45.55441604028407" lon="8.2420410356889"><ele>240.0</ele><time>2026-04-03T15:50:25.018Z</time></trkpt><trkpt lat="45.55423240876661" lon="8.242063078673024"><ele>240.66666666666669</ele><time>2026-04-03T15:50:26.018Z</time></trkpt><trkpt lat="45.55404790112587" lon="8.242082725159397"><ele>241.33333333333334</ele><time>2026-04-03T15:50:27.018Z</time></trkpt><trkpt lat="45.55386842690895" lon="8.242104175781451"><ele>242.0</ele><time>2026-04-03T15:50:28.018Z</time></trkpt><trkpt lat="45.55369743787996" lon="8.242126592232365"><ele>240.33333333333334</ele><time>2026-04-03T15:50:29.018Z</time></trkpt><trkpt lat="45.55353286056395" lon="8.242141838691431"><ele>238.66666666666669</ele><time>2026-04-03T15:50:30.018Z</time></trkpt><trkpt lat="45.55337857424801" lon="8.242131708205546"><ele>237.0</ele><time>2026-04-03T15:50:31.018Z</time></trkpt><trkpt lat="45.55323784254162" lon="8.24209875155642"><ele>237.0</ele><time>2026-04-03T15:50:32.018Z</time></trkpt><trkpt lat="45.553132672006505" lon="8.242046265190066"><ele>237.0</ele><time>2026-04-03T15:50:33.018Z</time></trkpt><trkpt lat="45.553048472791225" lon="8.241969163285667"><ele>237.0</ele><time>2026-04-03T15:50:34.018Z</time></trkpt><trkpt lat="45.55299285752026" lon="8.24185955902891"><ele>237.0</ele><time>2026-04-03T15:50:35.018Z</time></trkpt><trkpt lat="45.55295860689791" lon="8.24171398717059"><ele>237.0</ele><time>2026-04-03T15:50:36.018Z</time></trkpt><trkpt lat="45.552934293852445" lon="8.241551705558773"><ele>237.0</ele><time>2026-04-03T15:50:37.018Z</time></trkpt><trkpt lat="45.55288701237402" lon="8.24141349429262"><ele>237.0</ele><time>2026-04-03T15:50:38.018Z</time></trkpt><trkpt lat="45.55280851078341" lon="8.241306658642067"><ele>237.0</ele><time>2026-04-03T15:50:39.018Z</time></trkpt><trkpt lat="45.55270888019325" lon="8.241239706979668"><ele>237.0</ele><time>2026-04-03T15:50:40.018Z</time></trkpt><trkpt lat="45.552599188530955" lon="8.241226890407793"><ele>237.0</ele><time>2026-04-03T15:50:41.019Z</time></trkpt><trkpt lat="45.55248693657299" lon="8.241268985452079"><ele>236.75</ele><time>2026-04-03T15:50:42.019Z</time></trkpt><trkpt lat="45.55239115151156" lon="8.241355464488734"><ele>236.5</ele><time>2026-04-03T15:50:43.018Z</time></trkpt><trkpt lat="45.55232391379138" lon="8.241487094978192"><ele>236.25</ele><time>2026-04-03T15:50:44.017Z</time></trkpt><trkpt lat="45.55229083345994" lon="8.241649424237334"><ele>236.0</ele><time>2026-04-03T15:50:45.016Z</time></trkpt><trkpt lat="45.55228295824519" lon="8.241821769591997"><ele>236.0</ele><time>2026-04-03T15:50:46.015Z</time></trkpt><trkpt lat="45.55227027204738" lon="8.241993742795735"><ele>236.0</ele><time>2026-04-03T15:50:47.014Z</time></trkpt><trkpt lat="45.55222637155691" lon="8.242153558451314"><ele>236.0</ele><time>2026-04-03T15:50:48.013Z</time></trkpt><trkpt lat="45.552152561531905" lon="8.242278512071808"><ele>236.0</ele><time>2026-04-03T15:50:49.012Z</time></trkpt><trkpt lat="45.552044540386056" lon="8.242365132945476"><ele>235.66666666666669</ele><time>2026-04-03T15:50:50.011Z</time></trkpt><trkpt lat="45.5519094426904" lon="8.24242355361126"><ele>235.33333333333331</ele><time>2026-04-03T15:50:51.01Z</time></trkpt><trkpt lat="45.55174635205174" lon="8.242437775978239"><ele>235.0</ele><time>2026-04-03T15:50:52.009Z</time></trkpt><trkpt lat="45.551577811771914" lon="8.242468901930787"><ele>235.0</ele><time>2026-04-03T15:50:53.009Z</time></trkpt><trkpt lat="45.55142015948703" lon="8.242520814678155"><ele>235.0</ele><time>2026-04-03T15:50:54.009Z</time></trkpt><trkpt lat="45.55124531376159" lon="8.24254318959349"><ele>235.0</ele><time>2026-04-03T15:50:55.008Z</time></trkpt><trkpt lat="45.55105994589722" lon="8.242567681711886"><ele>235.66666666666666</ele><time>2026-04-03T15:50:56.008Z</time></trkpt><trkpt lat="45.55088018334412" lon="8.242598903051505"><ele>236.33333333333331</ele><time>2026-04-03T15:50:57.007Z</time></trkpt><trkpt lat="45.55069886624086" lon="8.242625630789778"><ele>237.0</ele><time>2026-04-03T15:50:58.007Z</time></trkpt><trkpt lat="45.55051453530022" lon="8.2426525879466"><ele>236.0</ele><time>2026-04-03T15:50:59.006Z</time></trkpt><trkpt lat="45.55032633614394" lon="8.242686057461581"><ele>235.0</ele><time>2026-04-03T15:51:00.006Z</time></trkpt><trkpt lat="45.55013809744394" lon="8.242718695609"><ele>234.0</ele><time>2026-04-03T15:51:01.005Z</time></trkpt><trkpt lat="45.54995954527568" lon="8.242749503580889"><ele>234.0</ele><time>2026-04-03T15:51:02.005Z</time></trkpt><trkpt lat="45.54977405953835" lon="8.24278050373288"><ele>234.0</ele><time>2026-04-03T15:51:03.005Z</time></trkpt><trkpt lat="45.54958324311827" lon="8.242809289228342"><ele>234.0</ele><time>2026-04-03T15:51:04.004Z</time></trkpt><trkpt lat="45.54939211250165" lon="8.242836221356818"><ele>234.33333333333331</ele><time>2026-04-03T15:51:05.004Z</time></trkpt><trkpt lat="45.549203533878874" lon="8.242864790310673"><ele>234.66666666666666</ele><time>2026-04-03T15:51:06.004Z</time></trkpt><trkpt lat="45.54901610690083" lon="8.242894614624156"><ele>235.0</ele><time>2026-04-03T15:51:07.003Z</time></trkpt><trkpt lat="45.548825449399914" lon="8.242923210389206"><ele>235.0</ele><time>2026-04-03T15:51:08.003Z</time></trkpt><trkpt lat="45.548638245959985" lon="8.24294879626122"><ele>235.0</ele><time>2026-04-03T15:51:09.003Z</time></trkpt><trkpt lat="45.54845079532965" lon="8.24297154634723"><ele>235.0</ele><time>2026-04-03T15:51:10.003Z</time></trkpt><trkpt lat="45.54826591108579" lon="8.242982373874895"><ele>235.0</ele><time>2026-04-03T15:51:11.002Z</time></trkpt><trkpt lat="45.54808370706143" lon="8.242976454452439"><ele>235.0</ele><time>2026-04-03T15:51:12.002Z</time></trkpt><trkpt lat="45.54790224968723" lon="8.242964454675311"><ele>235.0</ele><time>2026-04-03T15:51:13.002Z</time></trkpt><trkpt lat="45.54772112718002" lon="8.24294897936589"><ele>234.66666666666666</ele><time>2026-04-03T15:51:14.002Z</time></trkpt><trkpt lat="45.54753932666579" lon="8.242930869442233"><ele>234.33333333333331</ele><time>2026-04-03T15:51:15.002Z</time></trkpt><trkpt lat="45.54735306981915" lon="8.242913852295514"><ele>234.0</ele><time>2026-04-03T15:51:16.001Z</time></trkpt><trkpt lat="45.5471655800604" lon="8.2429011294087"><ele>233.66666666666669</ele><time>2026-04-03T15:51:17.001Z</time></trkpt><trkpt lat="45.54697938308499" lon="8.242885882012617"><ele>233.33333333333334</ele><time>2026-04-03T15:51:18.001Z</time></trkpt><trkpt lat="45.546788813069156" lon="8.242852646467679"><ele>233.0</ele><time>2026-04-03T15:51:19.001Z</time></trkpt><trkpt lat="45.54658808068328" lon="8.242834466566759"><ele>233.0</ele><time>2026-04-03T15:51:20.001Z</time></trkpt><trkpt lat="45.54638110560875" lon="8.242815723282051"><ele>233.0</ele><time>2026-04-03T15:51:21.001Z</time></trkpt><trkpt lat="45.54616889700813" lon="8.242796503987696"><ele>233.0</ele><time>2026-04-03T15:51:22.001Z</time></trkpt><trkpt lat="45.54595457543068" lon="8.242777229056886"><ele>232.66666666666669</ele><time>2026-04-03T15:51:23Z</time></trkpt><trkpt lat="45.5457369304489" lon="8.24275795131335"><ele>232.33333333333331</ele><time>2026-04-03T15:51:24Z</time></trkpt><trkpt lat="45.54551623328575" lon="8.242738403255407"><ele>232.0</ele><time>2026-04-03T15:51:25Z</time></trkpt><trkpt lat="45.54529390017903" lon="8.242718710284587"><ele>232.0</ele><time>2026-04-03T15:51:26Z</time></trkpt><trkpt lat="45.54507068310174" lon="8.242698743395005"><ele>232.0</ele><time>2026-04-03T15:51:27Z</time></trkpt><trkpt lat="45.54484598863663" lon="8.242678471155683"><ele>232.0</ele><time>2026-04-03T15:51:28Z</time></trkpt><trkpt lat="45.54461862824955" lon="8.242658607258193"><ele>232.5</ele><time>2026-04-03T15:51:29Z</time></trkpt><trkpt lat="45.54438784765591" lon="8.242638485978866"><ele>233.0</ele><time>2026-04-03T15:51:30Z</time></trkpt><trkpt lat="45.54415543463647" lon="8.242618222362031"><ele>233.0</ele><time>2026-04-03T15:51:31Z</time></trkpt><trkpt lat="45.543921127361436" lon="8.242597793598973"><ele>233.0</ele><time>2026-04-03T15:51:32Z</time></trkpt><trkpt lat="45.54368407527323" lon="8.242577125507314"><ele>232.0</ele><time>2026-04-03T15:51:33Z</time></trkpt><trkpt lat="45.54344661835119" lon="8.24255642212649"><ele>231.0</ele><time>2026-04-03T15:51:34Z</time></trkpt><trkpt lat="45.543210972302596" lon="8.242535876639463"><ele>231.0</ele><time>2026-04-03T15:51:35Z</time></trkpt><trkpt lat="45.542978051805164" lon="8.242515568775254"><ele>231.0</ele><time>2026-04-03T15:51:35.999Z</time></trkpt><trkpt lat="45.542747662319314" lon="8.242495481590744"><ele>231.0</ele><time>2026-04-03T15:51:36.999Z</time></trkpt><trkpt lat="45.54251758891678" lon="8.242475958375671"><ele>231.0</ele><time>2026-04-03T15:51:37.999Z</time></trkpt><trkpt lat="45.542288579981154" lon="8.242456631621875"><ele>231.0</ele><time>2026-04-03T15:51:38.999Z</time></trkpt><trkpt lat="45.54205667707034" lon="8.242458121371369"><ele>231.0</ele><time>2026-04-03T15:51:39.999Z</time></trkpt><trkpt lat="45.54182458993588" lon="8.242435904929165"><ele>230.0</ele><time>2026-04-03T15:51:40.999Z</time></trkpt><trkpt lat="45.54159132167258" lon="8.242415329926473"><ele>229.0</ele><time>2026-04-03T15:51:41.999Z</time></trkpt><trkpt lat="45.54135677361508" lon="8.242395574438365"><ele>229.0</ele><time>2026-04-03T15:51:42.999Z</time></trkpt><trkpt lat="45.5411177610738" lon="8.242380500154296"><ele>229.0</ele><time>2026-04-03T15:51:43.999Z</time></trkpt><trkpt lat="45.54087551629678" lon="8.242336695788005"><ele>229.0</ele><time>2026-04-03T15:51:44.999Z</time></trkpt><trkpt lat="45.54062952455423" lon="8.242315359175231"><ele>229.0</ele><time>2026-04-03T15:51:45.999Z</time></trkpt><trkpt lat="45.54038258623539" lon="8.242293756316535"><ele>229.5</ele><time>2026-04-03T15:51:46.999Z</time></trkpt><trkpt lat="45.54013379098247" lon="8.242272136900965"><ele>230.0</ele><time>2026-04-03T15:51:47.999Z</time></trkpt><trkpt lat="45.539886385251236" lon="8.242251384543476"><ele>230.0</ele><time>2026-04-03T15:51:48.999Z</time></trkpt><trkpt lat="45.539637048683346" lon="8.242230470241715"><ele>230.0</ele><time>2026-04-03T15:51:49.999Z</time></trkpt><trkpt lat="45.53938878557378" lon="8.24220853876268"><ele>229.0</ele><time>2026-04-03T15:51:50.999Z</time></trkpt><trkpt lat="45.53914175239082" lon="8.242186040833591"><ele>228.0</ele><time>2026-04-03T15:51:51.999Z</time></trkpt><trkpt lat="45.538896101336356" lon="8.242164422028031"><ele>227.5</ele><time>2026-04-03T15:51:52.999Z</time></trkpt><trkpt lat="45.538653683725784" lon="8.24214359572772"><ele>227.0</ele><time>2026-04-03T15:51:53.999Z</time></trkpt><trkpt lat="45.538411780695824" lon="8.24212281363978"><ele>227.0</ele><time>2026-04-03T15:51:54.999Z</time></trkpt><trkpt lat="45.538168113010315" lon="8.242101879944112"><ele>227.0</ele><time>2026-04-03T15:51:55.999Z</time></trkpt><trkpt lat="45.537922039247576" lon="8.242080739541821"><ele>226.0</ele><time>2026-04-03T15:51:56.999Z</time></trkpt><trkpt lat="45.53767438599712" lon="8.242059463430579"><ele>225.0</ele><time>2026-04-03T15:51:57.999Z</time></trkpt><trkpt lat="45.53742562250003" lon="8.242038091961719"><ele>225.0</ele><time>2026-04-03T15:51:58.999Z</time></trkpt><trkpt lat="45.537174686744905" lon="8.242016533860465"><ele>225.0</ele><time>2026-04-03T15:51:59.999Z</time></trkpt><trkpt lat="45.53691958594983" lon="8.2419946181133"><ele>225.0</ele><time>2026-04-03T15:52:00.999Z</time></trkpt><trkpt lat="45.536659815433616" lon="8.241972297583061"><ele>225.0</ele><time>2026-04-03T15:52:01.998Z</time></trkpt><trkpt lat="45.53640259555718" lon="8.241951692067682"><ele>225.5</ele><time>2026-04-03T15:52:02.998Z</time></trkpt><trkpt lat="45.536147808000415" lon="8.241957168938725"><ele>226.0</ele><time>2026-04-03T15:52:03.998Z</time></trkpt><trkpt lat="45.53589816035026" lon="8.241935389932506"><ele>226.0</ele><time>2026-04-03T15:52:04.998Z</time></trkpt><trkpt lat="45.53564732083425" lon="8.241913830115392"><ele>226.0</ele><time>2026-04-03T15:52:05.998Z</time></trkpt><trkpt lat="45.535396307696" lon="8.24189249069694"><ele>226.0</ele><time>2026-04-03T15:52:06.998Z</time></trkpt><trkpt lat="45.53514936037603" lon="8.241872882383166"><ele>226.0</ele><time>2026-04-03T15:52:07.998Z</time></trkpt><trkpt lat="45.53490319963568" lon="8.24185123406548"><ele>226.0</ele><time>2026-04-03T15:52:08.998Z</time></trkpt><trkpt lat="45.53465944977726" lon="8.24182913985157"><ele>226.0</ele><time>2026-04-03T15:52:09.998Z</time></trkpt><trkpt lat="45.53441652345006" lon="8.241811118271997"><ele>226.0</ele><time>2026-04-03T15:52:10.998Z</time></trkpt><trkpt lat="45.53417639274941" lon="8.241789336004437"><ele>226.0</ele><time>2026-04-03T15:52:11.998Z</time></trkpt><trkpt lat="45.53393913934954" lon="8.241769750574589"><ele>224.5</ele><time>2026-04-03T15:52:12.998Z</time></trkpt><trkpt lat="45.53370591579434" lon="8.241753450198708"><ele>223.0</ele><time>2026-04-03T15:52:13.998Z</time></trkpt><trkpt lat="45.53347935689058" lon="8.241731121012483"><ele>223.0</ele><time>2026-04-03T15:52:14.998Z</time></trkpt><trkpt lat="45.533259539374576" lon="8.241709323464146"><ele>223.0</ele><time>2026-04-03T15:52:15.998Z</time></trkpt><trkpt lat="45.53304468474435" lon="8.241689151423033"><ele>223.0</ele><time>2026-04-03T15:52:16.998Z</time></trkpt><trkpt lat="45.53281765453524" lon="8.241667940511737"><ele>223.5</ele><time>2026-04-03T15:52:17.998Z</time></trkpt><trkpt lat="45.532577264176076" lon="8.241644567306286"><ele>224.0</ele><time>2026-04-03T15:52:18.998Z</time></trkpt><trkpt lat="45.53233384653812" lon="8.241624054833055"><ele>224.0</ele><time>2026-04-03T15:52:19.998Z</time></trkpt><trkpt lat="45.53210042339194" lon="8.241605583554474"><ele>224.0</ele><time>2026-04-03T15:52:20.998Z</time></trkpt><trkpt lat="45.53187752445076" lon="8.241583813799483"><ele>223.33333333333334</ele><time>2026-04-03T15:52:21.998Z</time></trkpt><trkpt lat="45.53167548148202" lon="8.241565725619605"><ele>222.66666666666669</ele><time>2026-04-03T15:52:22.998Z</time></trkpt><trkpt lat="45.531481953788045" lon="8.241544364548249"><ele>222.0</ele><time>2026-04-03T15:52:23.998Z</time></trkpt><trkpt lat="45.531276463173285" lon="8.241516427047838"><ele>222.0</ele><time>2026-04-03T15:52:24.998Z</time></trkpt><trkpt lat="45.531061139445946" lon="8.241472674582088"><ele>222.0</ele><time>2026-04-03T15:52:25.998Z</time></trkpt><trkpt lat="45.53084160148993" lon="8.24142463650487"><ele>222.0</ele><time>2026-04-03T15:52:26.998Z</time></trkpt><trkpt lat="45.5306056722246" lon="8.241380329237106"><ele>223.0</ele><time>2026-04-03T15:52:27.998Z</time></trkpt><trkpt lat="45.53036668480622" lon="8.24135560389193"><ele>224.0</ele><time>2026-04-03T15:52:28.998Z</time></trkpt><trkpt lat="45.53012253980946" lon="8.241336417571747"><ele>224.0</ele><time>2026-04-03T15:52:29.998Z</time></trkpt><trkpt lat="45.529887032966485" lon="8.241315329130027"><ele>224.0</ele><time>2026-04-03T15:52:30.998Z</time></trkpt><trkpt lat="45.52965761001289" lon="8.241301378951546"><ele>223.33333333333334</ele><time>2026-04-03T15:52:31.998Z</time></trkpt><trkpt lat="45.52944114469667" lon="8.241287486447183"><ele>222.66666666666669</ele><time>2026-04-03T15:52:32.998Z</time></trkpt><trkpt lat="45.52922762631681" lon="8.241287630702336"><ele>222.0</ele><time>2026-04-03T15:52:33.998Z</time></trkpt><trkpt lat="45.529012180146545" lon="8.24129772721947"><ele>222.0</ele><time>2026-04-03T15:52:34.998Z</time></trkpt><trkpt lat="45.528792483455774" lon="8.241298324747632"><ele>222.0</ele><time>2026-04-03T15:52:35.998Z</time></trkpt><trkpt lat="45.528568362222416" lon="8.241276981124168"><ele>222.0</ele><time>2026-04-03T15:52:36.998Z</time></trkpt><trkpt lat="45.5283368298645" lon="8.241265102151454"><ele>222.5</ele><time>2026-04-03T15:52:37.998Z</time></trkpt><trkpt lat="45.52810415168203" lon="8.241248854737266"><ele>223.0</ele><time>2026-04-03T15:52:38.998Z</time></trkpt><trkpt lat="45.52787713730823" lon="8.241230140037008"><ele>222.33333333333331</ele><time>2026-04-03T15:52:39.998Z</time></trkpt><trkpt lat="45.52765948899325" lon="8.24120851923077"><ele>221.66666666666669</ele><time>2026-04-03T15:52:40.998Z</time></trkpt><trkpt lat="45.52745567353911" lon="8.241187356561147"><ele>221.0</ele><time>2026-04-03T15:52:41.998Z</time></trkpt><trkpt lat="45.52726277253344" lon="8.241176994404638"><ele>221.0</ele><time>2026-04-03T15:52:42.998Z</time></trkpt><trkpt lat="45.52706723964143" lon="8.241165444293115"><ele>221.0</ele><time>2026-04-03T15:52:43.998Z</time></trkpt><trkpt lat="45.526869833700296" lon="8.241150380791378"><ele>221.0</ele><time>2026-04-03T15:52:44.998Z</time></trkpt><trkpt lat="45.52667529997727" lon="8.241141793245646"><ele>221.33333333333334</ele><time>2026-04-03T15:52:45.998Z</time></trkpt><trkpt lat="45.52648507309122" lon="8.241126068504665"><ele>221.66666666666669</ele><time>2026-04-03T15:52:46.999Z</time></trkpt><trkpt lat="45.52630471948461" lon="8.241106998662227"><ele>222.0</ele><time>2026-04-03T15:52:47.999Z</time></trkpt><trkpt lat="45.526130024520164" lon="8.24108679642715"><ele>221.33333333333331</ele><time>2026-04-03T15:52:48.999Z</time></trkpt><trkpt lat="45.52596145130107" lon="8.241075474444392"><ele>220.66666666666666</ele><time>2026-04-03T15:52:49.999Z</time></trkpt><trkpt lat="45.52580240874959" lon="8.241060020046795"><ele>220.0</ele><time>2026-04-03T15:52:50.999Z</time></trkpt><trkpt lat="45.525642489322586" lon="8.241041262335637"><ele>220.0</ele><time>2026-04-03T15:52:51.999Z</time></trkpt><trkpt lat="45.525474113586895" lon="8.24102173127148"><ele>220.0</ele><time>2026-04-03T15:52:52.999Z</time></trkpt><trkpt lat="45.52529960279176" lon="8.24100561730096"><ele>220.0</ele><time>2026-04-03T15:52:53.998Z</time></trkpt><trkpt lat="45.52512525197834" lon="8.24098165386842"><ele>220.33333333333331</ele><time>2026-04-03T15:52:54.998Z</time></trkpt><trkpt lat="45.52494261646523" lon="8.240963490002617"><ele>220.66666666666669</ele><time>2026-04-03T15:52:55.999Z</time></trkpt><trkpt lat="45.52475688595385" lon="8.240950782962017"><ele>221.0</ele><time>2026-04-03T15:52:56.999Z</time></trkpt><trkpt lat="45.52457707365736" lon="8.240932202963617"><ele>219.66666666666669</ele><time>2026-04-03T15:52:57.999Z</time></trkpt><trkpt lat="45.524393372657826" lon="8.240914581261809"><ele>218.33333333333331</ele><time>2026-04-03T15:52:58.999Z</time></trkpt><trkpt lat="45.524201645826174" lon="8.240900212112285"><ele>217.0</ele><time>2026-04-03T15:52:59.999Z</time></trkpt><trkpt lat="45.52400458048842" lon="8.240885580949383"><ele>217.0</ele><time>2026-04-03T15:53:00.999Z</time></trkpt><trkpt lat="45.52380469910072" lon="8.240843384863537"><ele>217.0</ele><time>2026-04-03T15:53:01.999Z</time></trkpt><trkpt lat="45.523598146447526" lon="8.240846174084936"><ele>217.0</ele><time>2026-04-03T15:53:02.999Z</time></trkpt><trkpt lat="45.523393041582956" lon="8.240811507318822"><ele>217.33333333333331</ele><time>2026-04-03T15:53:03.999Z</time></trkpt><trkpt lat="45.52318769770438" lon="8.240781652024383"><ele>217.66666666666669</ele><time>2026-04-03T15:53:04.999Z</time></trkpt><trkpt lat="45.52298678624901" lon="8.240754003782131"><ele>218.0</ele><time>2026-04-03T15:53:05.999Z</time></trkpt><trkpt lat="45.52278955518225" lon="8.240727737190976"><ele>218.0</ele><time>2026-04-03T15:53:06.999Z</time></trkpt><trkpt lat="45.52259349865348" lon="8.240711490198008"><ele>218.0</ele><time>2026-04-03T15:53:07.999Z</time></trkpt><trkpt lat="45.52239774932952" lon="8.240696101659983"><ele>218.0</ele><time>2026-04-03T15:53:08.999Z</time></trkpt><trkpt lat="45.52220037499013" lon="8.240689645029398"><ele>218.33333333333334</ele><time>2026-04-03T15:53:09.999Z</time></trkpt><trkpt lat="45.521999128019665" lon="8.240675016338166"><ele>218.66666666666669</ele><time>2026-04-03T15:53:10.999Z</time></trkpt><trkpt lat="45.52179595526366" lon="8.240665968405752"><ele>219.0</ele><time>2026-04-03T15:53:11.999Z</time></trkpt><trkpt lat="45.521596202761486" lon="8.240653088347843"><ele>219.0</ele><time>2026-04-03T15:53:12.999Z</time></trkpt><trkpt lat="45.52139473316232" lon="8.240636512819677"><ele>219.0</ele><time>2026-04-03T15:53:13.999Z</time></trkpt><trkpt lat="45.52119297757465" lon="8.2406192743961"><ele>219.0</ele><time>2026-04-03T15:53:14.999Z</time></trkpt><trkpt lat="45.52099131524163" lon="8.240603976993995"><ele>219.66666666666669</ele><time>2026-04-03T15:53:15.999Z</time></trkpt><trkpt lat="45.520788644820314" lon="8.240587252747918"><ele>220.33333333333334</ele><time>2026-04-03T15:53:16.999Z</time></trkpt><trkpt lat="45.52058750564837" lon="8.240569518973476"><ele>221.0</ele><time>2026-04-03T15:53:17.999Z</time></trkpt><trkpt lat="45.520387525121194" lon="8.240553760036663"><ele>219.66666666666669</ele><time>2026-04-03T15:53:18.998Z</time></trkpt><trkpt lat="45.52019045350721" lon="8.240536229446235"><ele>218.33333333333331</ele><time>2026-04-03T15:53:19.998Z</time></trkpt><trkpt lat="45.51999480580207" lon="8.240516214979046"><ele>217.0</ele><time>2026-04-03T15:53:20.998Z</time></trkpt><trkpt lat="45.51980105818728" lon="8.240493632158705"><ele>217.0</ele><time>2026-04-03T15:53:21.998Z</time></trkpt><trkpt lat="45.51960981879259" lon="8.240460229083856"><ele>217.0</ele><time>2026-04-03T15:53:22.998Z</time></trkpt><trkpt lat="45.5194187969483" lon="8.24041489472935"><ele>217.0</ele><time>2026-04-03T15:53:23.998Z</time></trkpt><trkpt lat="45.519237987281194" lon="8.240341332789686"><ele>216.0</ele><time>2026-04-03T15:53:24.998Z</time></trkpt><trkpt lat="45.51904542941486" lon="8.240288976741668"><ele>215.0</ele><time>2026-04-03T15:53:25.998Z</time></trkpt><trkpt lat="45.518851915389796" lon="8.240233569409657"><ele>214.0</ele><time>2026-04-03T15:53:26.998Z</time></trkpt><trkpt lat="45.51865739250289" lon="8.24017550332836"><ele>213.33333333333331</ele><time>2026-04-03T15:53:27.998Z</time></trkpt><trkpt lat="45.51845942119333" lon="8.240115079444715"><ele>212.66666666666669</ele><time>2026-04-03T15:53:28.998Z</time></trkpt><trkpt lat="45.51825939840491" lon="8.240052946125866"><ele>212.0</ele><time>2026-04-03T15:53:29.998Z</time></trkpt><trkpt lat="45.51805820132043" lon="8.239985148495366"><ele>212.33333333333334</ele><time>2026-04-03T15:53:30.998Z</time></trkpt><trkpt lat="45.51786024715263" lon="8.239904812718793"><ele>212.66666666666669</ele><time>2026-04-03T15:53:31.998Z</time></trkpt><trkpt lat="45.517666064895444" lon="8.239822388288227"><ele>213.0</ele><time>2026-04-03T15:53:32.998Z</time></trkpt><trkpt lat="45.51747712264512" lon="8.239730053547047"><ele>213.0</ele><time>2026-04-03T15:53:33.998Z</time></trkpt><trkpt lat="45.51729158147093" lon="8.239643271169669"><ele>213.0</ele><time>2026-04-03T15:53:34.998Z</time></trkpt><trkpt lat="45.51712212217026" lon="8.23956025477992"><ele>213.0</ele><time>2026-04-03T15:53:35.998Z</time></trkpt><trkpt lat="45.51696504685965" lon="8.239479533609712"><ele>213.0</ele><time>2026-04-03T15:53:36.998Z</time></trkpt><trkpt lat="45.51682446642167" lon="8.239380096012768"><ele>213.0</ele><time>2026-04-03T15:53:37.998Z</time></trkpt><trkpt lat="45.516676955416706" lon="8.239318300354006"><ele>213.0</ele><time>2026-04-03T15:53:38.998Z</time></trkpt><trkpt lat="45.516541153582274" lon="8.2392534566012"><ele>213.0</ele><time>2026-04-03T15:53:39.998Z</time></trkpt><trkpt lat="45.516415597898806" lon="8.239198955116606"><ele>213.0</ele><time>2026-04-03T15:53:40.998Z</time></trkpt><trkpt lat="45.51629351942573" lon="8.239166618157407"><ele>213.0</ele><time>2026-04-03T15:53:41.998Z</time></trkpt><trkpt lat="45.51618754026488" lon="8.239088730185568"><ele>213.0</ele><time>2026-04-03T15:53:42.998Z</time></trkpt><trkpt lat="45.5160248970303" lon="8.239156186287179"><ele>213.0</ele><time>2026-04-03T15:53:43.998Z</time></trkpt><trkpt lat="45.5158705162367" lon="8.239133522217491"><ele>213.0</ele><time>2026-04-03T15:53:44.998Z</time></trkpt><trkpt lat="45.51569670975235" lon="8.239114565719845"><ele>213.0</ele><time>2026-04-03T15:53:45.998Z</time></trkpt><trkpt lat="45.51551496919365" lon="8.23910109310605"><ele>213.0</ele><time>2026-04-03T15:53:46.998Z</time></trkpt><trkpt lat="45.51533844910473" lon="8.23908487062141"><ele>213.0</ele><time>2026-04-03T15:53:47.998Z</time></trkpt><trkpt lat="45.515173149786186" lon="8.239071496048194"><ele>213.0</ele><time>2026-04-03T15:53:48.998Z</time></trkpt><trkpt lat="45.515013844895336" lon="8.23906800566181"><ele>213.0</ele><time>2026-04-03T15:53:49.998Z</time></trkpt><trkpt lat="45.5148615517916" lon="8.239091027614329"><ele>213.0</ele><time>2026-04-03T15:53:50.998Z</time></trkpt><trkpt lat="45.5147052187517" lon="8.239148235631376"><ele>213.0</ele><time>2026-04-03T15:53:51.998Z</time></trkpt><trkpt lat="45.51455007354984" lon="8.239224147177215"><ele>212.66666666666669</ele><time>2026-04-03T15:53:52.998Z</time></trkpt><trkpt lat="45.51439826409068" lon="8.239302673916887"><ele>212.33333333333334</ele><time>2026-04-03T15:53:53.998Z</time></trkpt><trkpt lat="45.51424931052651" lon="8.239374147349386"><ele>212.0</ele><time>2026-04-03T15:53:54.998Z</time></trkpt><trkpt lat="45.514095911262146" lon="8.239433148661016"><ele>212.0</ele><time>2026-04-03T15:53:55.998Z</time></trkpt><trkpt lat="45.513936209539686" lon="8.23946316161096"><ele>212.0</ele><time>2026-04-03T15:53:56.998Z</time></trkpt><trkpt lat="45.513777139281906" lon="8.239457187141701"><ele>212.0</ele><time>2026-04-03T15:53:57.998Z</time></trkpt><trkpt lat="45.513626191384674" lon="8.239522186415808"><ele>212.0</ele><time>2026-04-03T15:53:58.998Z</time></trkpt><trkpt lat="45.51346369954311" lon="8.23956152573359"><ele>212.0</ele><time>2026-04-03T15:53:59.998Z</time></trkpt><trkpt lat="45.513303159535646" lon="8.239637115085491"><ele>212.0</ele><time>2026-04-03T15:54:00.998Z</time></trkpt><trkpt lat="45.51314345437314" lon="8.239704471529443"><ele>212.0</ele><time>2026-04-03T15:54:01.998Z</time></trkpt><trkpt lat="45.512990059114685" lon="8.239765891070604"><ele>212.0</ele><time>2026-04-03T15:54:02.998Z</time></trkpt><trkpt lat="45.51285076635761" lon="8.239843941794208"><ele>212.0</ele><time>2026-04-03T15:54:03.998Z</time></trkpt><trkpt lat="45.51271714355642" lon="8.23989938256662"><ele>212.0</ele><time>2026-04-03T15:54:04.998Z</time></trkpt><trkpt lat="45.512592564004855" lon="8.239928511629213"><ele>211.6</ele><time>2026-04-03T15:54:05.998Z</time></trkpt><trkpt lat="45.512494646910575" lon="8.239967891032922"><ele>211.2</ele><time>2026-04-03T15:54:06.998Z</time></trkpt><trkpt lat="45.512415791332415" lon="8.240004294046587"><ele>210.8</ele><time>2026-04-03T15:54:07.998Z</time></trkpt><trkpt lat="45.51235146255232" lon="8.240072817104991"><ele>210.4</ele><time>2026-04-03T15:54:08.998Z</time></trkpt><trkpt lat="45.51231472216561" lon="8.24019024078166"><ele>210.0</ele><time>2026-04-03T15:54:09.998Z</time></trkpt><trkpt lat="45.512297671996606" lon="8.240343888396618"><ele>210.0</ele><time>2026-04-03T15:54:10.998Z</time></trkpt><trkpt lat="45.5122904239268" lon="8.24053798699476"><ele>210.0</ele><time>2026-04-03T15:54:11.997Z</time></trkpt><trkpt lat="45.512287116794894" lon="8.240755173031575"><ele>210.0</ele><time>2026-04-03T15:54:12.997Z</time></trkpt><trkpt lat="45.512313800160136" lon="8.240937195360162"><ele>210.0</ele><time>2026-04-03T15:54:13.997Z</time></trkpt><trkpt lat="45.512358545679234" lon="8.241099999508485"><ele>209.5</ele><time>2026-04-03T15:54:14.997Z</time></trkpt><trkpt lat="45.512386514592414" lon="8.24127470764269"><ele>209.0</ele><time>2026-04-03T15:54:15.997Z</time></trkpt><trkpt lat="45.51238000650683" lon="8.241457045373"><ele>208.5</ele><time>2026-04-03T15:54:16.997Z</time></trkpt><trkpt lat="45.51234887311696" lon="8.241630655261043"><ele>208.0</ele><time>2026-04-03T15:54:17.997Z</time></trkpt><trkpt lat="45.512297395226184" lon="8.241795331395425"><ele>206.33333333333331</ele><time>2026-04-03T15:54:18.997Z</time></trkpt><trkpt lat="45.512200240871444" lon="8.24192331653266"><ele>204.66666666666669</ele><time>2026-04-03T15:54:19.997Z</time></trkpt><trkpt lat="45.512071869865856" lon="8.24204543221367"><ele>203.0</ele><time>2026-04-03T15:54:20.997Z</time></trkpt><trkpt lat="45.51191717359312" lon="8.242170970924864"><ele>204.0</ele><time>2026-04-03T15:54:21.997Z</time></trkpt><trkpt lat="45.51176722301248" lon="8.242316270837915"><ele>205.0</ele><time>2026-04-03T15:54:22.997Z</time></trkpt><trkpt lat="45.51161948282728" lon="8.242453377566312"><ele>206.0</ele><time>2026-04-03T15:54:23.997Z</time></trkpt><trkpt lat="45.51149690345696" lon="8.242621222724754"><ele>206.0</ele><time>2026-04-03T15:54:24.997Z</time></trkpt><trkpt lat="45.511398380005744" lon="8.24282420128144"><ele>206.0</ele><time>2026-04-03T15:54:25.997Z</time></trkpt><trkpt lat="45.51130314289102" lon="8.243023700015286"><ele>206.0</ele><time>2026-04-03T15:54:26.997Z</time></trkpt><trkpt lat="45.5112052782084" lon="8.243204644065884"><ele>207.25</ele><time>2026-04-03T15:54:27.997Z</time></trkpt><trkpt lat="45.511106685787254" lon="8.243362097430632"><ele>208.5</ele><time>2026-04-03T15:54:28.997Z</time></trkpt><trkpt lat="45.51102115233935" lon="8.24352600274522"><ele>209.75</ele><time>2026-04-03T15:54:29.997Z</time></trkpt><trkpt lat="45.51095248329436" lon="8.243695326150375"><ele>211.0</ele><time>2026-04-03T15:54:30.997Z</time></trkpt><trkpt lat="45.510900465046845" lon="8.243879594188668"><ele>211.0</ele><time>2026-04-03T15:54:31.997Z</time></trkpt><trkpt lat="45.51085583980267" lon="8.244071267054286"><ele>211.0</ele><time>2026-04-03T15:54:32.997Z</time></trkpt><trkpt lat="45.51082226868271" lon="8.244237320208958"><ele>211.0</ele><time>2026-04-03T15:54:33.997Z</time></trkpt><trkpt lat="45.51077631457144" lon="8.244395058003153"><ele>211.0</ele><time>2026-04-03T15:54:34.997Z</time></trkpt><trkpt lat="45.510741694268" lon="8.244542271989163"><ele>211.0</ele><time>2026-04-03T15:54:35.997Z</time></trkpt><trkpt lat="45.510707522546355" lon="8.244689384354388"><ele>211.0</ele><time>2026-04-03T15:54:36.997Z</time></trkpt><trkpt lat="45.510661352974495" lon="8.244828779663784"><ele>211.0</ele><time>2026-04-03T15:54:37.997Z</time></trkpt><trkpt lat="45.510590441923505" lon="8.244965731977423"><ele>211.0</ele><time>2026-04-03T15:54:38.997Z</time></trkpt><trkpt lat="45.51050152159573" lon="8.245084019360739"><ele>211.75</ele><time>2026-04-03T15:54:39.997Z</time></trkpt><trkpt lat="45.510391983717454" lon="8.245179883531616"><ele>212.5</ele><time>2026-04-03T15:54:40.997Z</time></trkpt><trkpt lat="45.51027066673437" lon="8.245268596856697"><ele>213.25</ele><time>2026-04-03T15:54:41.997Z</time></trkpt><trkpt lat="45.51015871718719" lon="8.245357931763095"><ele>214.0</ele><time>2026-04-03T15:54:42.997Z</time></trkpt><trkpt lat="45.51006088183876" lon="8.245455128701094"><ele>214.0</ele><time>2026-04-03T15:54:43.997Z</time></trkpt><trkpt lat="45.50997762791668" lon="8.245548391835698"><ele>213.99999999999997</ele><time>2026-04-03T15:54:44.997Z</time></trkpt><trkpt lat="45.50989774544251" lon="8.245644778380488"><ele>213.99999999999997</ele><time>2026-04-03T15:54:45.997Z</time></trkpt><trkpt lat="45.50980703463393" lon="8.2457490188242"><ele>214.0</ele><time>2026-04-03T15:54:46.997Z</time></trkpt><trkpt lat="45.50971041562604" lon="8.245851028824697"><ele>214.0</ele><time>2026-04-03T15:54:47.997Z</time></trkpt><trkpt lat="45.50960386954521" lon="8.245927639373454"><ele>213.5</ele><time>2026-04-03T15:54:48.997Z</time></trkpt><trkpt lat="45.50949041682553" lon="8.245995772535467"><ele>213.0</ele><time>2026-04-03T15:54:49.997Z</time></trkpt><trkpt lat="45.50936770081834" lon="8.24605770933174"><ele>212.5</ele><time>2026-04-03T15:54:50.997Z</time></trkpt><trkpt lat="45.50925055356174" lon="8.246111925135551"><ele>212.0</ele><time>2026-04-03T15:54:51.997Z</time></trkpt><trkpt lat="45.5091417579553" lon="8.24615996719165"><ele>212.0</ele><time>2026-04-03T15:54:52.999Z</time></trkpt><trkpt lat="45.5090436826286" lon="8.24620433991509"><ele>212.0</ele><time>2026-04-03T15:54:53.998Z</time></trkpt><trkpt lat="45.508949850219416" lon="8.246251178087281"><ele>212.0</ele><time>2026-04-03T15:54:54.998Z</time></trkpt><trkpt lat="45.508846535472166" lon="8.246310491396919"><ele>212.0</ele><time>2026-04-03T15:54:55.999Z</time></trkpt><trkpt lat="45.50873289776075" lon="8.246371916455185"><ele>212.0</ele><time>2026-04-03T15:54:56.998Z</time></trkpt><trkpt lat="45.50862106676413" lon="8.24642622373219"><ele>211.75</ele><time>2026-04-03T15:54:57.998Z</time></trkpt><trkpt lat="45.50852565665865" lon="8.246474719241455"><ele>211.5</ele><time>2026-04-03T15:54:58.999Z</time></trkpt><trkpt lat="45.50844974609719" lon="8.246511633004262"><ele>211.25</ele><time>2026-04-03T15:54:59.999Z</time></trkpt><trkpt lat="45.50835034185468" lon="8.246550530002615"><ele>211.0</ele><time>2026-04-03T15:55:01.999Z</time></trkpt><trkpt lat="45.508360335363676" lon="8.246801068171168"><ele>211.0</ele><time>2026-04-03T15:56:53.996Z</time></trkpt><trkpt lat="45.50829231394647" lon="8.246608464500719"><ele>211.0</ele><time>2026-04-03T15:59:49.998Z</time></trkpt><trkpt lat="45.508220998661315" lon="8.246593222581525"><ele>211.0</ele><time>2026-04-03T15:59:59.998Z</time></trkpt><trkpt lat="45.50812400223348" lon="8.246633437169619"><ele>211.0</ele><time>2026-04-03T16:00:01.998Z</time></trkpt><trkpt lat="45.50799752759553" lon="8.246677559483395"><ele>211.0</ele><time>2026-04-03T16:00:03.998Z</time></trkpt><trkpt lat="45.50792926749089" lon="8.246719004219495"><ele>211.0</ele><time>2026-04-03T16:00:04.998Z</time></trkpt><trkpt lat="45.507803322452716" lon="8.246774365152742"><ele>211.0</ele><time>2026-04-03T16:00:05.998Z</time></trkpt><trkpt lat="45.50769452817029" lon="8.24681984740224"><ele>211.0</ele><time>2026-04-03T16:00:06.998Z</time></trkpt><trkpt lat="45.50758064728736" lon="8.24687280384"><ele>211.0</ele><time>2026-04-03T16:00:07.998Z</time></trkpt><trkpt lat="45.50747065187408" lon="8.246921426209946"><ele>211.0</ele><time>2026-04-03T16:00:08.998Z</time></trkpt><trkpt lat="45.507361520705686" lon="8.24696886189757"><ele>211.0</ele><time>2026-04-03T16:00:09.998Z</time></trkpt><trkpt lat="45.50725214127216" lon="8.247012600734838"><ele>211.0</ele><time>2026-04-03T16:00:10.998Z</time></trkpt><trkpt lat="45.507155855609575" lon="8.247053049378097"><ele>211.0</ele><time>2026-04-03T16:00:11.998Z</time></trkpt><trkpt lat="45.50706417286284" lon="8.247087518430487"><ele>211.0</ele><time>2026-04-03T16:00:12.998Z</time></trkpt><trkpt lat="45.50696936890602" lon="8.247125026389492"><ele>211.0</ele><time>2026-04-03T16:00:13.998Z</time></trkpt><trkpt lat="45.5068719385571" lon="8.24716203649772"><ele>211.0</ele><time>2026-04-03T16:00:14.998Z</time></trkpt><trkpt lat="45.50677248175495" lon="8.247196280651952"><ele>211.0</ele><time>2026-04-03T16:00:15.998Z</time></trkpt><trkpt lat="45.506666178435715" lon="8.24722450837997"><ele>211.0</ele><time>2026-04-03T16:00:16.998Z</time></trkpt><trkpt lat="45.50655629899876" lon="8.247264344956978"><ele>211.0</ele><time>2026-04-03T16:00:17.997Z</time></trkpt><trkpt lat="45.5064477639704" lon="8.247333545433694"><ele>211.0</ele><time>2026-04-03T16:00:18.997Z</time></trkpt><trkpt lat="45.50633784664683" lon="8.24741068997999"><ele>211.0</ele><time>2026-04-03T16:00:19.997Z</time></trkpt><trkpt lat="45.50622322749428" lon="8.247511638254936"><ele>211.0</ele><time>2026-04-03T16:00:20.997Z</time></trkpt><trkpt lat="45.50610819251259" lon="8.247625383392828"><ele>211.0</ele><time>2026-04-03T16:00:21.997Z</time></trkpt><trkpt lat="45.50598939575401" lon="8.247723883653206"><ele>210.75</ele><time>2026-04-03T16:00:22.997Z</time></trkpt><trkpt lat="45.50586839780708" lon="8.247831186007868"><ele>210.5</ele><time>2026-04-03T16:00:23.997Z</time></trkpt><trkpt lat="45.505758355507886" lon="8.247947535264895"><ele>210.25</ele><time>2026-04-03T16:00:24.997Z</time></trkpt><trkpt lat="45.50565235849626" lon="8.248057339631739"><ele>210.0</ele><time>2026-04-03T16:00:25.997Z</time></trkpt><trkpt lat="45.50554941891113" lon="8.248154580061371"><ele>210.0</ele><time>2026-04-03T16:00:26.997Z</time></trkpt><trkpt lat="45.505453056230095" lon="8.248230247363859"><ele>210.0</ele><time>2026-04-03T16:00:27.997Z</time></trkpt><trkpt lat="45.505343578011626" lon="8.248291110616883"><ele>210.0</ele><time>2026-04-03T16:00:28.997Z</time></trkpt><trkpt lat="45.50521909809011" lon="8.248322352399722"><ele>210.0</ele><time>2026-04-03T16:00:29.997Z</time></trkpt><trkpt lat="45.50508959127302" lon="8.248336219573211"><ele>209.4</ele><time>2026-04-03T16:00:30.997Z</time></trkpt><trkpt lat="45.50497334868495" lon="8.248339783558889"><ele>208.8</ele><time>2026-04-03T16:00:31.997Z</time></trkpt><trkpt lat="45.50486615127983" lon="8.24835499694614"><ele>208.2</ele><time>2026-04-03T16:00:32.997Z</time></trkpt><trkpt lat="45.504769041669725" lon="8.248399248565269"><ele>207.6</ele><time>2026-04-03T16:00:33.997Z</time></trkpt><trkpt lat="45.504680004877095" lon="8.248473839562351"><ele>207.0</ele><time>2026-04-03T16:00:34.997Z</time></trkpt><trkpt lat="45.50458560379146" lon="8.248577949752228"><ele>205.0</ele><time>2026-04-03T16:00:35.997Z</time></trkpt><trkpt lat="45.504488770911685" lon="8.248703542631347"><ele>203.0</ele><time>2026-04-03T16:00:36.997Z</time></trkpt><trkpt lat="45.50438279423097" lon="8.248846266594098"><ele>201.0</ele><time>2026-04-03T16:00:37.997Z</time></trkpt><trkpt lat="45.50427671848182" lon="8.248986608310931"><ele>199.0</ele><time>2026-04-03T16:00:38.997Z</time></trkpt><trkpt lat="45.50417008670775" lon="8.24911111081025"><ele>199.0</ele><time>2026-04-03T16:00:39.997Z</time></trkpt><trkpt lat="45.504071264704926" lon="8.249215472728075"><ele>199.0</ele><time>2026-04-03T16:00:40.997Z</time></trkpt><trkpt lat="45.5039767515996" lon="8.249295989615062"><ele>199.0</ele><time>2026-04-03T16:00:41.997Z</time></trkpt><trkpt lat="45.50388311009023" lon="8.249366244813507"><ele>199.0</ele><time>2026-04-03T16:00:42.997Z</time></trkpt><trkpt lat="45.50379930207788" lon="8.249415360209756"><ele>199.0</ele><time>2026-04-03T16:00:43.997Z</time></trkpt><trkpt lat="45.50372450819114" lon="8.24943374198701"><ele>196.79999999999998</ele><time>2026-04-03T16:00:44.997Z</time></trkpt><trkpt lat="45.50365144886646" lon="8.249412920800337"><ele>194.6</ele><time>2026-04-03T16:00:45.997Z</time></trkpt><trkpt lat="45.50358192362613" lon="8.249369542942533"><ele>192.4</ele><time>2026-04-03T16:00:46.997Z</time></trkpt><trkpt lat="45.50349690595033" lon="8.24928001660708"><ele>190.2</ele><time>2026-04-03T16:00:47.997Z</time></trkpt><trkpt lat="45.503401892602504" lon="8.249166143773897"><ele>188.0</ele><time>2026-04-03T16:00:48.997Z</time></trkpt><trkpt lat="45.50329051801929" lon="8.249018778213058"><ele>187.33333333333331</ele><time>2026-04-03T16:00:49.997Z</time></trkpt><trkpt lat="45.50317046635286" lon="8.248861667446569"><ele>186.66666666666666</ele><time>2026-04-03T16:00:50.997Z</time></trkpt><trkpt lat="45.50305555639311" lon="8.248720169104196"><ele>186.0</ele><time>2026-04-03T16:00:51.997Z</time></trkpt><trkpt lat="45.50292937661831" lon="8.248567953723528"><ele>185.33333333333334</ele><time>2026-04-03T16:00:52.997Z</time></trkpt><trkpt lat="45.502790071701675" lon="8.248413009242107"><ele>184.66666666666669</ele><time>2026-04-03T16:00:53.997Z</time></trkpt><trkpt lat="45.50266152297451" lon="8.248260563215084"><ele>184.0</ele><time>2026-04-03T16:00:54.997Z</time></trkpt><trkpt lat="45.502545618944325" lon="8.248118303729926"><ele>183.75</ele><time>2026-04-03T16:00:55.997Z</time></trkpt><trkpt lat="45.50243371633842" lon="8.247983522096403"><ele>183.5</ele><time>2026-04-03T16:00:56.997Z</time></trkpt><trkpt lat="45.50233707156303" lon="8.247856638447255"><ele>183.25</ele><time>2026-04-03T16:00:57.997Z</time></trkpt><trkpt lat="45.50225928720218" lon="8.247744222548022"><ele>183.0</ele><time>2026-04-03T16:00:58.997Z</time></trkpt><trkpt lat="45.5022030953903" lon="8.247654816418033"><ele>183.0</ele><time>2026-04-03T16:00:59.997Z</time></trkpt><trkpt lat="45.50216876152447" lon="8.247570620021868"><ele>183.0</ele><time>2026-04-03T16:01:00.997Z</time></trkpt><trkpt lat="45.50216971740302" lon="8.247413844282283"><ele>183.0</ele><time>2026-04-03T16:01:02.997Z</time></trkpt><trkpt lat="45.50216531820376" lon="8.247246463934285"><ele>183.0</ele><time>2026-04-03T16:01:04.997Z</time></trkpt><trkpt lat="45.50211750115587" lon="8.247187536542585"><ele>183.0</ele><time>2026-04-03T16:01:05.997Z</time></trkpt><trkpt lat="45.50200504804205" lon="8.247211343200682"><ele>182.75</ele><time>2026-04-03T16:01:07.997Z</time></trkpt><trkpt lat="45.50195287697374" lon="8.247291538033206"><ele>182.5</ele><time>2026-04-03T16:01:08.997Z</time></trkpt><trkpt lat="45.50188964748237" lon="8.24741417740896"><ele>182.25</ele><time>2026-04-03T16:01:09.997Z</time></trkpt><trkpt lat="45.501795657619844" lon="8.247539818332456"><ele>182.0</ele><time>2026-04-03T16:01:10.998Z</time></trkpt><trkpt lat="45.50168123261779" lon="8.24767751560963"><ele>182.0</ele><time>2026-04-03T16:01:11.998Z</time></trkpt><trkpt lat="45.5015550743976" lon="8.24782927174937"><ele>182.0</ele><time>2026-04-03T16:01:12.998Z</time></trkpt><trkpt lat="45.50144206723356" lon="8.24797602159074"><ele>182.0</ele><time>2026-04-03T16:01:13.998Z</time></trkpt><trkpt lat="45.501319231156" lon="8.248135098088499"><ele>181.66666666666666</ele><time>2026-04-03T16:01:14.998Z</time></trkpt><trkpt lat="45.501186876508065" lon="8.248301350761928"><ele>181.33333333333334</ele><time>2026-04-03T16:01:15.998Z</time></trkpt><trkpt lat="45.50104532775137" lon="8.248483023052938"><ele>181.0</ele><time>2026-04-03T16:01:16.998Z</time></trkpt><trkpt lat="45.50089791496595" lon="8.248667742267237"><ele>181.0</ele><time>2026-04-03T16:01:17.998Z</time></trkpt><trkpt lat="45.50075976133223" lon="8.248845497960861"><ele>181.0</ele><time>2026-04-03T16:01:18.998Z</time></trkpt><trkpt lat="45.500619113983554" lon="8.249029378099946"><ele>181.0</ele><time>2026-04-03T16:01:19.998Z</time></trkpt><trkpt lat="45.50047108644484" lon="8.249216049642271"><ele>180.66666666666669</ele><time>2026-04-03T16:01:20.998Z</time></trkpt><trkpt lat="45.50031838010451" lon="8.24940666524592"><ele>180.33333333333334</ele><time>2026-04-03T16:01:21.998Z</time></trkpt><trkpt lat="45.5001617087072" lon="8.249605565682701"><ele>180.0</ele><time>2026-04-03T16:01:22.998Z</time></trkpt><trkpt lat="45.50000079299922" lon="8.24981109985427"><ele>180.0</ele><time>2026-04-03T16:01:23.998Z</time></trkpt><trkpt lat="45.49984623671737" lon="8.250009395580339"><ele>180.0</ele><time>2026-04-03T16:01:24.998Z</time></trkpt><trkpt lat="45.499695736593395" lon="8.250198527546388"><ele>180.0</ele><time>2026-04-03T16:01:25.998Z</time></trkpt><trkpt lat="45.49954122661519" lon="8.250390069328823"><ele>180.33333333333334</ele><time>2026-04-03T16:01:26.998Z</time></trkpt><trkpt lat="45.499384239692226" lon="8.250587091275342"><ele>180.66666666666669</ele><time>2026-04-03T16:01:27.998Z</time></trkpt><trkpt lat="45.4992242076544" lon="8.250787892868457"><ele>181.0</ele><time>2026-04-03T16:01:28.998Z</time></trkpt><trkpt lat="45.499060250058044" lon="8.250991416174438"><ele>180.66666666666669</ele><time>2026-04-03T16:01:29.998Z</time></trkpt><trkpt lat="45.49890415085769" lon="8.251190496787647"><ele>180.33333333333334</ele><time>2026-04-03T16:01:30.998Z</time></trkpt><trkpt lat="45.49875377213028" lon="8.251382725793894"><ele>180.0</ele><time>2026-04-03T16:01:31.998Z</time></trkpt><trkpt lat="45.49859736282508" lon="8.25157711784406"><ele>180.0</ele><time>2026-04-03T16:01:32.998Z</time></trkpt><trkpt lat="45.49843876341823" lon="8.251774487512645"><ele>180.0</ele><time>2026-04-03T16:01:33.998Z</time></trkpt><trkpt lat="45.49827923854062" lon="8.2519721980816"><ele>180.0</ele><time>2026-04-03T16:01:34.998Z</time></trkpt><trkpt lat="45.49811945672898" lon="8.252174983669075"><ele>180.33333333333334</ele><time>2026-04-03T16:01:35.998Z</time></trkpt><trkpt lat="45.49795916790256" lon="8.25237929123314"><ele>180.66666666666669</ele><time>2026-04-03T16:01:36.998Z</time></trkpt><trkpt lat="45.49779755289462" lon="8.25257927421028"><ele>181.0</ele><time>2026-04-03T16:01:37.998Z</time></trkpt><trkpt lat="45.49763805534893" lon="8.25277916060049"><ele>181.0</ele><time>2026-04-03T16:01:38.998Z</time></trkpt><trkpt lat="45.49748059932432" lon="8.252977592281386"><ele>181.0</ele><time>2026-04-03T16:01:39.998Z</time></trkpt><trkpt lat="45.497321013499814" lon="8.25317332678331"><ele>181.0</ele><time>2026-04-03T16:01:40.998Z</time></trkpt><trkpt lat="45.49716137395872" lon="8.253373603739178"><ele>180.66666666666669</ele><time>2026-04-03T16:01:41.998Z</time></trkpt><trkpt lat="45.49700440969483" lon="8.253573942506357"><ele>180.33333333333334</ele><time>2026-04-03T16:01:42.997Z</time></trkpt><trkpt lat="45.49684931734669" lon="8.253773094724654"><ele>180.0</ele><time>2026-04-03T16:01:43.997Z</time></trkpt><trkpt lat="45.49669206774459" lon="8.253973631955173"><ele>181.0</ele><time>2026-04-03T16:01:44.997Z</time></trkpt><trkpt lat="45.496535856521994" lon="8.254174610661375"><ele>182.0</ele><time>2026-04-03T16:01:45.997Z</time></trkpt><trkpt lat="45.49638356529733" lon="8.254380340750755"><ele>183.0</ele><time>2026-04-03T16:01:46.997Z</time></trkpt><trkpt lat="45.496239300221994" lon="8.25458818791905"><ele>183.66666666666666</ele><time>2026-04-03T16:01:47.997Z</time></trkpt><trkpt lat="45.49610210781344" lon="8.254798874629682"><ele>184.33333333333331</ele><time>2026-04-03T16:01:48.997Z</time></trkpt><trkpt lat="45.49597006989901" lon="8.255004816121374"><ele>185.0</ele><time>2026-04-03T16:01:49.997Z</time></trkpt><trkpt lat="45.49583539212631" lon="8.255185787390278"><ele>185.0</ele><time>2026-04-03T16:01:50.997Z</time></trkpt><trkpt lat="45.49568002687824" lon="8.255346383398754"><ele>185.0</ele><time>2026-04-03T16:01:51.997Z</time></trkpt><trkpt lat="45.495506521158106" lon="8.255493103837793"><ele>185.0</ele><time>2026-04-03T16:01:52.997Z</time></trkpt><trkpt lat="45.49533311300897" lon="8.255637226730597"><ele>183.66666666666666</ele><time>2026-04-03T16:01:53.997Z</time></trkpt><trkpt lat="45.49516937352117" lon="8.255775731057708"><ele>182.33333333333334</ele><time>2026-04-03T16:01:54.997Z</time></trkpt><trkpt lat="45.495027178000576" lon="8.255898989537345"><ele>181.0</ele><time>2026-04-03T16:01:55.997Z</time></trkpt><trkpt lat="45.49489607061597" lon="8.25600849639829"><ele>181.0</ele><time>2026-04-03T16:01:56.997Z</time></trkpt><trkpt lat="45.494788460518215" lon="8.25609987044542"><ele>181.0</ele><time>2026-04-03T16:01:57.997Z</time></trkpt><trkpt lat="45.49469837622862" lon="8.25611895851499"><ele>181.0</ele><time>2026-04-03T16:01:58.997Z</time></trkpt><trkpt lat="45.49462883351027" lon="8.256131241254366"><ele>181.0</ele><time>2026-04-03T16:01:59.997Z</time></trkpt><trkpt lat="45.49456191305132" lon="8.256112184449627"><ele>181.0</ele><time>2026-04-03T16:02:00.997Z</time></trkpt><trkpt lat="45.49443655501462" lon="8.255957179994379"><ele>180.5</ele><time>2026-04-03T16:02:02.997Z</time></trkpt><trkpt lat="45.494407350732075" lon="8.255794219800647"><ele>180.0</ele><time>2026-04-03T16:02:03.997Z</time></trkpt><trkpt lat="45.49436871805529" lon="8.255598822890127"><ele>179.5</ele><time>2026-04-03T16:02:04.997Z</time></trkpt><trkpt lat="45.494332149843835" lon="8.255372628230774"><ele>179.0</ele><time>2026-04-03T16:02:05.997Z</time></trkpt><trkpt lat="45.494291923680045" lon="8.255119965603862"><ele>178.66666666666666</ele><time>2026-04-03T16:02:06.997Z</time></trkpt><trkpt lat="45.49423720636404" lon="8.254870095892024"><ele>178.33333333333334</ele><time>2026-04-03T16:02:07.997Z</time></trkpt><trkpt lat="45.494200262698726" lon="8.254628108317924"><ele>178.0</ele><time>2026-04-03T16:02:08.997Z</time></trkpt><trkpt lat="45.494160887840025" lon="8.254377948884771"><ele>178.0</ele><time>2026-04-03T16:02:09.997Z</time></trkpt><trkpt lat="45.494116938988235" lon="8.254113493663471"><ele>178.0</ele><time>2026-04-03T16:02:10.997Z</time></trkpt><trkpt lat="45.494070679407315" lon="8.253834980280844"><ele>178.0</ele><time>2026-04-03T16:02:11.997Z</time></trkpt><trkpt lat="45.49402446896622" lon="8.25356398883312"><ele>178.0</ele><time>2026-04-03T16:02:12.997Z</time></trkpt><trkpt lat="45.49398010533572" lon="8.253306827297132"><ele>178.0</ele><time>2026-04-03T16:02:13.997Z</time></trkpt><trkpt lat="45.493954022033826" lon="8.2530505508"><ele>178.0</ele><time>2026-04-03T16:02:14.997Z</time></trkpt><trkpt lat="45.4939240012456" lon="8.252787729618454"><ele>178.0</ele><time>2026-04-03T16:02:15.997Z</time></trkpt><trkpt lat="45.493903429383124" lon="8.252521111438428"><ele>178.0</ele><time>2026-04-03T16:02:16.997Z</time></trkpt><trkpt lat="45.49389160255973" lon="8.25225560342713"><ele>178.0</ele><time>2026-04-03T16:02:17.997Z</time></trkpt><trkpt lat="45.49388892718924" lon="8.252001854658424"><ele>178.33333333333334</ele><time>2026-04-03T16:02:18.997Z</time></trkpt><trkpt lat="45.49387606941222" lon="8.251770569844465"><ele>178.66666666666666</ele><time>2026-04-03T16:02:19.997Z</time></trkpt><trkpt lat="45.49384459221116" lon="8.251555592959209"><ele>179.0</ele><time>2026-04-03T16:02:20.997Z</time></trkpt><trkpt lat="45.493795972394075" lon="8.251348633093173"><ele>179.0</ele><time>2026-04-03T16:02:21.997Z</time></trkpt><trkpt lat="45.49372144968084" lon="8.251153509150072"><ele>179.0</ele><time>2026-04-03T16:02:22.997Z</time></trkpt><trkpt lat="45.493615445603126" lon="8.250965377530184"><ele>179.0</ele><time>2026-04-03T16:02:23.997Z</time></trkpt><trkpt lat="45.4934812026428" lon="8.250785552309713"><ele>178.66666666666666</ele><time>2026-04-03T16:02:24.997Z</time></trkpt><trkpt lat="45.493326767593636" lon="8.25061218959168"><ele>178.33333333333334</ele><time>2026-04-03T16:02:25.997Z</time></trkpt><trkpt lat="45.49316034111586" lon="8.250436895685745"><ele>178.0</ele><time>2026-04-03T16:02:26.997Z</time></trkpt><trkpt lat="45.49298922640236" lon="8.25025962416656"><ele>178.0</ele><time>2026-04-03T16:02:27.997Z</time></trkpt><trkpt lat="45.49282643358254" lon="8.250060523888575"><ele>178.0</ele><time>2026-04-03T16:02:28.997Z</time></trkpt><trkpt lat="45.49265190153599" lon="8.249877892045456"><ele>178.0</ele><time>2026-04-03T16:02:29.997Z</time></trkpt><trkpt lat="45.49248546864762" lon="8.249675007312844"><ele>178.0</ele><time>2026-04-03T16:02:30.997Z</time></trkpt><trkpt lat="45.49232639575842" lon="8.249456995596956"><ele>178.0</ele><time>2026-04-03T16:02:31.997Z</time></trkpt><trkpt lat="45.49217388546494" lon="8.249229160201029"><ele>178.0</ele><time>2026-04-03T16:02:32.997Z</time></trkpt><trkpt lat="45.49202079998502" lon="8.248994043060438"><ele>177.66666666666669</ele><time>2026-04-03T16:02:33.997Z</time></trkpt><trkpt lat="45.49187065201385" lon="8.248763091128447"><ele>177.33333333333334</ele><time>2026-04-03T16:02:34.997Z</time></trkpt><trkpt lat="45.491725116253306" lon="8.248542421935241"><ele>177.0</ele><time>2026-04-03T16:02:35.996Z</time></trkpt><trkpt lat="45.49157833806888" lon="8.248315568234677"><ele>177.33333333333334</ele><time>2026-04-03T16:02:36.996Z</time></trkpt><trkpt lat="45.491430921549174" lon="8.24809126985924"><ele>177.66666666666669</ele><time>2026-04-03T16:02:37.996Z</time></trkpt><trkpt lat="45.49128284240274" lon="8.247872243370884"><ele>178.0</ele><time>2026-04-03T16:02:38.996Z</time></trkpt><trkpt lat="45.49113708591977" lon="8.247659638980938"><ele>178.33333333333334</ele><time>2026-04-03T16:02:39.996Z</time></trkpt><trkpt lat="45.49100284906335" lon="8.24745895964123"><ele>178.66666666666666</ele><time>2026-04-03T16:02:40.996Z</time></trkpt><trkpt lat="45.49088017864623" lon="8.247274153346071"><ele>179.0</ele><time>2026-04-03T16:02:41.996Z</time></trkpt><trkpt lat="45.49076732410998" lon="8.247097541653154"><ele>179.0</ele><time>2026-04-03T16:02:42.996Z</time></trkpt><trkpt lat="45.49066918033974" lon="8.24692104151134"><ele>179.0</ele><time>2026-04-03T16:02:43.996Z</time></trkpt><trkpt lat="45.49060166614686" lon="8.246727324368539"><ele>179.0</ele><time>2026-04-03T16:02:44.996Z</time></trkpt><trkpt lat="45.4905533426251" lon="8.24650666691925"><ele>179.0</ele><time>2026-04-03T16:02:45.996Z</time></trkpt><trkpt lat="45.49050414644005" lon="8.246271949774624"><ele>179.0</ele><time>2026-04-03T16:02:46.996Z</time></trkpt><trkpt lat="45.49045453624062" lon="8.246038023294505"><ele>179.0</ele><time>2026-04-03T16:02:47.996Z</time></trkpt><trkpt lat="45.490406785901996" lon="8.245816630605503"><ele>178.25</ele><time>2026-04-03T16:02:48.996Z</time></trkpt><trkpt lat="45.4903578472021" lon="8.245613083449694"><ele>177.5</ele><time>2026-04-03T16:02:49.996Z</time></trkpt><trkpt lat="45.49030538941556" lon="8.245421329098809"><ele>176.75</ele><time>2026-04-03T16:02:50.996Z</time></trkpt><trkpt lat="45.490270942153906" lon="8.24522184529526"><ele>176.0</ele><time>2026-04-03T16:02:51.996Z</time></trkpt><trkpt lat="45.490220343975786" lon="8.245031570134794"><ele>176.0</ele><time>2026-04-03T16:02:52.996Z</time></trkpt><trkpt lat="45.490169770628505" lon="8.244842875715927"><ele>176.0</ele><time>2026-04-03T16:02:53.996Z</time></trkpt><trkpt lat="45.49011919286144" lon="8.244649855863448"><ele>176.0</ele><time>2026-04-03T16:02:54.996Z</time></trkpt><trkpt lat="45.4900674547571" lon="8.244449578274105"><ele>176.0</ele><time>2026-04-03T16:02:55.996Z</time></trkpt><trkpt lat="45.490012041231054" lon="8.244233895128836"><ele>176.25</ele><time>2026-04-03T16:02:56.996Z</time></trkpt><trkpt lat="45.48995540008773" lon="8.244014644645508"><ele>176.5</ele><time>2026-04-03T16:02:57.996Z</time></trkpt><trkpt lat="45.48990181816791" lon="8.243812508986643"><ele>176.75</ele><time>2026-04-03T16:02:58.996Z</time></trkpt><trkpt lat="45.48985555824206" lon="8.243637064971956"><ele>177.0</ele><time>2026-04-03T16:02:59.996Z</time></trkpt><trkpt lat="45.489813067326736" lon="8.243471532639271"><ele>177.0</ele><time>2026-04-03T16:03:00.996Z</time></trkpt><trkpt lat="45.48977937928053" lon="8.243331824999213"><ele>177.0</ele><time>2026-04-03T16:03:01.996Z</time></trkpt><trkpt lat="45.48975689948552" lon="8.243227719230243"><ele>177.0</ele><time>2026-04-03T16:03:02.996Z</time></trkpt><trkpt lat="45.489755171901066" lon="8.243110448508235"><ele>177.0</ele><time>2026-04-03T16:03:04.996Z</time></trkpt><trkpt lat="45.48982662831947" lon="8.242982387164359"><ele>177.0</ele><time>2026-04-03T16:03:06.996Z</time></trkpt><trkpt lat="45.48990981504496" lon="8.242881185469823"><ele>177.5</ele><time>2026-04-03T16:03:07.996Z</time></trkpt><trkpt lat="45.49000284271359" lon="8.242743546277254"><ele>178.0</ele><time>2026-04-03T16:03:08.996Z</time></trkpt><trkpt lat="45.490075040996096" lon="8.242588583307805"><ele>178.5</ele><time>2026-04-03T16:03:09.996Z</time></trkpt><trkpt lat="45.490161626369044" lon="8.242428019992849"><ele>179.0</ele><time>2026-04-03T16:03:10.996Z</time></trkpt><trkpt lat="45.490260486964075" lon="8.242238582245303"><ele>179.0</ele><time>2026-04-03T16:03:11.996Z</time></trkpt><trkpt lat="45.49036594951617" lon="8.242031094217955"><ele>179.0</ele><time>2026-04-03T16:03:12.996Z</time></trkpt><trkpt lat="45.490463174924805" lon="8.241829473191627"><ele>179.0</ele><time>2026-04-03T16:03:13.996Z</time></trkpt><trkpt lat="45.49054115892099" lon="8.241642320831884"><ele>179.25</ele><time>2026-04-03T16:03:14.996Z</time></trkpt><trkpt lat="45.490620864881635" lon="8.241471139696237"><ele>179.5</ele><time>2026-04-03T16:03:15.996Z</time></trkpt><trkpt lat="45.49065897532668" lon="8.241272440715235"><ele>179.75</ele><time>2026-04-03T16:03:16.997Z</time></trkpt><trkpt lat="45.49068249160522" lon="8.241073755848376"><ele>180.0</ele><time>2026-04-03T16:03:17.997Z</time></trkpt><trkpt lat="45.49068576076537" lon="8.240894112800943"><ele>180.0</ele><time>2026-04-03T16:03:18.997Z</time></trkpt><trkpt lat="45.49075702199382" lon="8.240724295878868"><ele>180.0</ele><time>2026-04-03T16:03:19.997Z</time></trkpt><trkpt lat="45.4908657014295" lon="8.240558008776919"><ele>180.0</ele><time>2026-04-03T16:03:20.997Z</time></trkpt><trkpt lat="45.49097002735254" lon="8.240420176048323"><ele>180.0</ele><time>2026-04-03T16:03:21.997Z</time></trkpt><trkpt lat="45.49103864957969" lon="8.240313778525735"><ele>180.0</ele><time>2026-04-03T16:03:22.997Z</time></trkpt><trkpt lat="45.49107808942698" lon="8.240217118300675"><ele>180.0</ele><time>2026-04-03T16:03:23.997Z</time></trkpt><trkpt lat="45.49111727201588" lon="8.240115712271962"><ele>180.0</ele><time>2026-04-03T16:03:24.997Z</time></trkpt><trkpt lat="45.49108676166712" lon="8.239973441824754"><ele>180.0</ele><time>2026-04-03T16:03:25.997Z</time></trkpt><trkpt lat="45.49101225649035" lon="8.239830541732848"><ele>180.0</ele><time>2026-04-03T16:03:26.997Z</time></trkpt><trkpt lat="45.49091885350506" lon="8.239676368272981"><ele>180.33333333333334</ele><time>2026-04-03T16:03:27.997Z</time></trkpt><trkpt lat="45.49080302044392" lon="8.239506426436439"><ele>180.66666666666669</ele><time>2026-04-03T16:03:28.997Z</time></trkpt><trkpt lat="45.49066603257959" lon="8.23934966789039"><ele>181.0</ele><time>2026-04-03T16:03:29.997Z</time></trkpt><trkpt lat="45.49055502255849" lon="8.239196967639195"><ele>181.0</ele><time>2026-04-03T16:03:30.997Z</time></trkpt><trkpt lat="45.49044645093061" lon="8.239045900715658"><ele>181.0</ele><time>2026-04-03T16:03:31.997Z</time></trkpt><trkpt lat="45.490339221185266" lon="8.238901830834237"><ele>181.0</ele><time>2026-04-03T16:03:32.997Z</time></trkpt><trkpt lat="45.490249328110046" lon="8.238781462233229"><ele>181.0</ele><time>2026-04-03T16:03:33.997Z</time></trkpt><trkpt lat="45.49017817404971" lon="8.238689613114802"><ele>181.5</ele><time>2026-04-03T16:03:34.997Z</time></trkpt><trkpt lat="45.490131035961795" lon="8.23861768124902"><ele>182.0</ele><time>2026-04-03T16:03:35.997Z</time></trkpt><trkpt lat="45.490080069603636" lon="8.238470259605592"><ele>182.5</ele><time>2026-04-03T16:03:37.997Z</time></trkpt><trkpt lat="45.49013868335001" lon="8.23827638490232"><ele>183.0</ele><time>2026-04-03T16:03:39.996Z</time></trkpt><trkpt lat="45.490201326051256" lon="8.238134780157193"><ele>183.0</ele><time>2026-04-03T16:03:40.996Z</time></trkpt><trkpt lat="45.49027224217385" lon="8.237959779919352"><ele>183.0</ele><time>2026-04-03T16:03:41.996Z</time></trkpt><trkpt lat="45.49034926295892" lon="8.237760316756738"><ele>183.0</ele><time>2026-04-03T16:03:42.996Z</time></trkpt><trkpt lat="45.49042368436691" lon="8.237574456984701"><ele>183.0</ele><time>2026-04-03T16:03:43.996Z</time></trkpt><trkpt lat="45.49050495048608" lon="8.237374998353818"><ele>183.0</ele><time>2026-04-03T16:03:44.996Z</time></trkpt><trkpt lat="45.49059498007252" lon="8.237156425841652"><ele>183.0</ele><time>2026-04-03T16:03:45.996Z</time></trkpt><trkpt lat="45.490688036240414" lon="8.236919523534674"><ele>183.0</ele><time>2026-04-03T16:03:46.996Z</time></trkpt><trkpt lat="45.49078757989227" lon="8.236668925119764"><ele>183.0</ele><time>2026-04-03T16:03:47.996Z</time></trkpt><trkpt lat="45.49088855641392" lon="8.2364191285208"><ele>183.0</ele><time>2026-04-03T16:03:48.996Z</time></trkpt><trkpt lat="45.49098153846652" lon="8.236187653056545"><ele>183.0</ele><time>2026-04-03T16:03:49.996Z</time></trkpt><trkpt lat="45.4910745854219" lon="8.235942619605991"><ele>183.0</ele><time>2026-04-03T16:03:50.996Z</time></trkpt><trkpt lat="45.491189852546505" lon="8.23570292154263"><ele>183.0</ele><time>2026-04-03T16:03:51.996Z</time></trkpt><trkpt lat="45.491296302615225" lon="8.23544032892865"><ele>183.0</ele><time>2026-04-03T16:03:52.996Z</time></trkpt><trkpt lat="45.49139388283317" lon="8.235193092026002"><ele>183.0</ele><time>2026-04-03T16:03:53.996Z</time></trkpt><trkpt lat="45.491487539619634" lon="8.234956657143893"><ele>183.0</ele><time>2026-04-03T16:03:54.996Z</time></trkpt><trkpt lat="45.49158445053298" lon="8.234713840725226"><ele>183.33333333333334</ele><time>2026-04-03T16:03:55.996Z</time></trkpt><trkpt lat="45.49168284570864" lon="8.23446935415359"><ele>183.66666666666669</ele><time>2026-04-03T16:03:56.996Z</time></trkpt><trkpt lat="45.49177645381422" lon="8.23423725729072"><ele>184.0</ele><time>2026-04-03T16:03:57.996Z</time></trkpt><trkpt lat="45.491866144345046" lon="8.234018248714177"><ele>184.0</ele><time>2026-04-03T16:03:58.996Z</time></trkpt><trkpt lat="45.49195391679362" lon="8.233803923580636"><ele>184.0</ele><time>2026-04-03T16:03:59.996Z</time></trkpt><trkpt lat="45.49204286047846" lon="8.233591679782986"><ele>184.0</ele><time>2026-04-03T16:04:00.996Z</time></trkpt><trkpt lat="45.49213276005919" lon="8.233394387582516"><ele>184.33333333333334</ele><time>2026-04-03T16:04:01.996Z</time></trkpt><trkpt lat="45.492233392492984" lon="8.233213455320824"><ele>184.66666666666666</ele><time>2026-04-03T16:04:02.996Z</time></trkpt><trkpt lat="45.49233077297501" lon="8.233032492242755"><ele>185.0</ele><time>2026-04-03T16:04:03.996Z</time></trkpt><trkpt lat="45.49242757785619" lon="8.232854068305388"><ele>185.33333333333331</ele><time>2026-04-03T16:04:04.996Z</time></trkpt><trkpt lat="45.49251894981343" lon="8.232683919255912"><ele>185.66666666666666</ele><time>2026-04-03T16:04:05.996Z</time></trkpt><trkpt lat="45.49261094007855" lon="8.232518559411977"><ele>186.0</ele><time>2026-04-03T16:04:06.996Z</time></trkpt><trkpt lat="45.492706264683115" lon="8.232341305226413"><ele>186.0</ele><time>2026-04-03T16:04:07.996Z</time></trkpt><trkpt lat="45.49280410978002" lon="8.232156014266717"><ele>186.0</ele><time>2026-04-03T16:04:08.996Z</time></trkpt><trkpt lat="45.49290805169631" lon="8.231974188883749"><ele>186.0</ele><time>2026-04-03T16:04:09.996Z</time></trkpt><trkpt lat="45.4930102690402" lon="8.231796555772167"><ele>186.0</ele><time>2026-04-03T16:04:10.996Z</time></trkpt><trkpt lat="45.493114531828276" lon="8.231624838739908"><ele>186.0</ele><time>2026-04-03T16:04:11.996Z</time></trkpt><trkpt lat="45.4932218385955" lon="8.231455398856788"><ele>186.0</ele><time>2026-04-03T16:04:12.996Z</time></trkpt><trkpt lat="45.493333467418466" lon="8.231286698462016"><ele>186.66666666666666</ele><time>2026-04-03T16:04:13.996Z</time></trkpt><trkpt lat="45.49344681872407" lon="8.231109590664706"><ele>187.33333333333331</ele><time>2026-04-03T16:04:14.996Z</time></trkpt><trkpt lat="45.49356220803141" lon="8.23092810900511"><ele>188.0</ele><time>2026-04-03T16:04:15.996Z</time></trkpt><trkpt lat="45.493679752313376" lon="8.230742641798502"><ele>187.66666666666666</ele><time>2026-04-03T16:04:16.996Z</time></trkpt><trkpt lat="45.493802727557835" lon="8.230545036409879"><ele>187.33333333333334</ele><time>2026-04-03T16:04:17.996Z</time></trkpt><trkpt lat="45.49392956934331" lon="8.230343736079279"><ele>187.0</ele><time>2026-04-03T16:04:18.996Z</time></trkpt><trkpt lat="45.494074599509254" lon="8.230160801984093"><ele>187.0</ele><time>2026-04-03T16:04:19.996Z</time></trkpt><trkpt lat="45.49420708060244" lon="8.229954609639371"><ele>187.0</ele><time>2026-04-03T16:04:20.996Z</time></trkpt><trkpt lat="45.494339312115954" lon="8.229745243063965"><ele>187.0</ele><time>2026-04-03T16:04:21.996Z</time></trkpt><trkpt lat="45.49447292136842" lon="8.229533695001855"><ele>187.0</ele><time>2026-04-03T16:04:22.996Z</time></trkpt><trkpt lat="45.494609284484184" lon="8.229321732437185"><ele>187.0</ele><time>2026-04-03T16:04:23.996Z</time></trkpt><trkpt lat="45.49474794718488" lon="8.229110811354435"><ele>187.0</ele><time>2026-04-03T16:04:24.996Z</time></trkpt><trkpt lat="45.49488419404468" lon="8.22889186797869"><ele>187.0</ele><time>2026-04-03T16:04:25.996Z</time></trkpt><trkpt lat="45.49502118241177" lon="8.228671255233044"><ele>187.0</ele><time>2026-04-03T16:04:26.996Z</time></trkpt><trkpt lat="45.49516400862874" lon="8.228446099288732"><ele>187.0</ele><time>2026-04-03T16:04:27.996Z</time></trkpt><trkpt lat="45.495309307295244" lon="8.228216494131704"><ele>186.66666666666669</ele><time>2026-04-03T16:04:28.996Z</time></trkpt><trkpt lat="45.495452182063524" lon="8.227989308816626"><ele>186.33333333333334</ele><time>2026-04-03T16:04:29.996Z</time></trkpt><trkpt lat="45.49559473244241" lon="8.227762637945407"><ele>186.0</ele><time>2026-04-03T16:04:30.996Z</time></trkpt><trkpt lat="45.49573320474323" lon="8.227544102476864"><ele>186.0</ele><time>2026-04-03T16:04:31.996Z</time></trkpt><trkpt lat="45.49586246429761" lon="8.227326118780843"><ele>186.0</ele><time>2026-04-03T16:04:32.996Z</time></trkpt><trkpt lat="45.49600142080451" lon="8.227155645857367"><ele>186.0</ele><time>2026-04-03T16:04:33.995Z</time></trkpt><trkpt lat="45.49613352237992" lon="8.226995195094483"><ele>187.0</ele><time>2026-04-03T16:04:34.995Z</time></trkpt><trkpt lat="45.49626756467608" lon="8.226845371486759"><ele>188.0</ele><time>2026-04-03T16:04:35.995Z</time></trkpt><trkpt lat="45.49638019539976" lon="8.226626537026192"><ele>189.0</ele><time>2026-04-03T16:04:36.995Z</time></trkpt><trkpt lat="45.49647494747342" lon="8.226361296879073"><ele>189.0</ele><time>2026-04-03T16:04:37.995Z</time></trkpt><trkpt lat="45.49662070954291" lon="8.226112718611732"><ele>189.0</ele><time>2026-04-03T16:04:38.995Z</time></trkpt><trkpt lat="45.4967825042901" lon="8.225855754707384"><ele>188.5</ele><time>2026-04-03T16:04:39.995Z</time></trkpt><trkpt lat="45.49697929186967" lon="8.22558159933816"><ele>188.0</ele><time>2026-04-03T16:04:40.995Z</time></trkpt><trkpt lat="45.49718391506029" lon="8.225261498428653"><ele>188.0</ele><time>2026-04-03T16:04:41.995Z</time></trkpt><trkpt lat="45.49740510892494" lon="8.22491250472572"><ele>188.0</ele><time>2026-04-03T16:04:42.995Z</time></trkpt><trkpt lat="45.49763790016916" lon="8.224545365743214"><ele>188.0</ele><time>2026-04-03T16:04:43.995Z</time></trkpt><trkpt lat="45.49784852805053" lon="8.224180002450408"><ele>188.0</ele><time>2026-04-03T16:04:44.995Z</time></trkpt><trkpt lat="45.498062614455726" lon="8.223846841879066"><ele>187.5</ele><time>2026-04-03T16:04:45.995Z</time></trkpt><trkpt lat="45.498285080330774" lon="8.22351257338445"><ele>187.0</ele><time>2026-04-03T16:04:46.995Z</time></trkpt><trkpt lat="45.49854313657748" lon="8.22316724695559"><ele>188.5</ele><time>2026-04-03T16:04:47.995Z</time></trkpt><trkpt lat="45.49882984517912" lon="8.22281768644416"><ele>190.0</ele><time>2026-04-03T16:04:48.995Z</time></trkpt><trkpt lat="45.49911628453093" lon="8.22247937104697"><ele>190.0</ele><time>2026-04-03T16:04:49.995Z</time></trkpt><trkpt lat="45.49939071766111" lon="8.222162422057773"><ele>190.0</ele><time>2026-04-03T16:04:50.995Z</time></trkpt><trkpt lat="45.4996452063634" lon="8.221860598285804"><ele>190.0</ele><time>2026-04-03T16:04:51.995Z</time></trkpt><trkpt lat="45.49988034979655" lon="8.221568260930757"><ele>190.0</ele><time>2026-04-03T16:04:52.995Z</time></trkpt><trkpt lat="45.50009872625953" lon="8.221294291384968"><ele>190.0</ele><time>2026-04-03T16:04:53.995Z</time></trkpt><trkpt lat="45.50030866713594" lon="8.221036449900538"><ele>190.0</ele><time>2026-04-03T16:04:54.995Z</time></trkpt><trkpt lat="45.50050338614141" lon="8.220801974898844"><ele>190.5</ele><time>2026-04-03T16:04:55.995Z</time></trkpt><trkpt lat="45.500689768040324" lon="8.220572326959223"><ele>191.0</ele><time>2026-04-03T16:04:56.995Z</time></trkpt><trkpt lat="45.5008728208809" lon="8.220352905516156"><ele>191.0</ele><time>2026-04-03T16:04:57.995Z</time></trkpt><trkpt lat="45.50106020388612" lon="8.220151345519627"><ele>191.0</ele><time>2026-04-03T16:04:58.995Z</time></trkpt><trkpt lat="45.501239757358924" lon="8.219928732449983"><ele>191.0</ele><time>2026-04-03T16:04:59.995Z</time></trkpt><trkpt lat="45.501349345917994" lon="8.21958186837185"><ele>191.0</ele><time>2026-04-03T16:05:00.995Z</time></trkpt><trkpt lat="45.50147904829152" lon="8.219272619574726"><ele>191.0</ele><time>2026-04-03T16:05:01.995Z</time></trkpt><trkpt lat="45.50161105503326" lon="8.218956559116206"><ele>191.0</ele><time>2026-04-03T16:05:02.995Z</time></trkpt><trkpt lat="45.501746149664164" lon="8.218636590151316"><ele>191.0</ele><time>2026-04-03T16:05:03.995Z</time></trkpt><trkpt lat="45.50187975248837" lon="8.21831432014469"><ele>191.0</ele><time>2026-04-03T16:05:04.995Z</time></trkpt><trkpt lat="45.50201028195279" lon="8.217998681118928"><ele>191.5</ele><time>2026-04-03T16:05:05.995Z</time></trkpt><trkpt lat="45.50213802683318" lon="8.217699347404167"><ele>192.0</ele><time>2026-04-03T16:05:06.995Z</time></trkpt><trkpt lat="45.50225818727553" lon="8.217409720988579"><ele>192.0</ele><time>2026-04-03T16:05:07.995Z</time></trkpt><trkpt lat="45.50237227887069" lon="8.217127902425078"><ele>192.0</ele><time>2026-04-03T16:05:08.995Z</time></trkpt><trkpt lat="45.50248099205538" lon="8.216857474198289"><ele>192.0</ele><time>2026-04-03T16:05:09.995Z</time></trkpt><trkpt lat="45.50258807631202" lon="8.216588605531566"><ele>192.0</ele><time>2026-04-03T16:05:10.995Z</time></trkpt><trkpt lat="45.50269612366321" lon="8.216332249411725"><ele>192.0</ele><time>2026-04-03T16:05:11.995Z</time></trkpt><trkpt lat="45.50281152270621" lon="8.216094842600052"><ele>192.0</ele><time>2026-04-03T16:05:12.995Z</time></trkpt><trkpt lat="45.50291318923529" lon="8.215898551126733"><ele>191.66666666666666</ele><time>2026-04-03T16:05:13.995Z</time></trkpt><trkpt lat="45.503014138601834" lon="8.215743098049126"><ele>191.33333333333331</ele><time>2026-04-03T16:05:14.995Z</time></trkpt><trkpt lat="45.50313703454471" lon="8.215604382611401"><ele>191.0</ele><time>2026-04-03T16:05:15.995Z</time></trkpt><trkpt lat="45.50327990868694" lon="8.21548680876515"><ele>191.66666666666666</ele><time>2026-04-03T16:05:16.995Z</time></trkpt><trkpt lat="45.50343382861929" lon="8.215395284107574"><ele>192.33333333333331</ele><time>2026-04-03T16:05:17.995Z</time></trkpt><trkpt lat="45.50359515227815" lon="8.215314828912936"><ele>193.0</ele><time>2026-04-03T16:05:18.995Z</time></trkpt><trkpt lat="45.503744721339025" lon="8.2152382651774"><ele>193.0</ele><time>2026-04-03T16:05:19.995Z</time></trkpt><trkpt lat="45.50387796361888" lon="8.215148680233767"><ele>193.0</ele><time>2026-04-03T16:05:20.995Z</time></trkpt><trkpt lat="45.50400804945636" lon="8.215030559127154"><ele>193.0</ele><time>2026-04-03T16:05:21.995Z</time></trkpt><trkpt lat="45.50412759647816" lon="8.214881341618552"><ele>193.25</ele><time>2026-04-03T16:05:22.996Z</time></trkpt><trkpt lat="45.50422559990038" lon="8.214705463608327"><ele>193.5</ele><time>2026-04-03T16:05:23.996Z</time></trkpt><trkpt lat="45.50430339636622" lon="8.214515600978837"><ele>193.75</ele><time>2026-04-03T16:05:24.996Z</time></trkpt><trkpt lat="45.50436129815296" lon="8.214338822317526"><ele>194.0</ele><time>2026-04-03T16:05:25.996Z</time></trkpt><trkpt lat="45.50441607199763" lon="8.214183988890984"><ele>194.0</ele><time>2026-04-03T16:05:26.997Z</time></trkpt><trkpt lat="45.50447345598782" lon="8.214042498557234"><ele>194.0</ele><time>2026-04-03T16:05:27.997Z</time></trkpt><trkpt lat="45.50452859925546" lon="8.213915108992946"><ele>194.0</ele><time>2026-04-03T16:05:28.997Z</time></trkpt><trkpt lat="45.50458224570593" lon="8.213808909738342"><ele>194.0</ele><time>2026-04-03T16:05:29.996Z</time></trkpt><trkpt lat="45.504642765472994" lon="8.213731591772046"><ele>194.0</ele><time>2026-04-03T16:05:30.996Z</time></trkpt><trkpt lat="45.50471955904642" lon="8.213663723334344"><ele>194.39999999999998</ele><time>2026-04-03T16:05:31.996Z</time></trkpt><trkpt lat="45.5048142101665" lon="8.213605250752959"><ele>194.8</ele><time>2026-04-03T16:05:32.996Z</time></trkpt><trkpt lat="45.504912033727805" lon="8.213540021638678"><ele>195.2</ele><time>2026-04-03T16:05:33.996Z</time></trkpt><trkpt lat="45.50498949799724" lon="8.213444098278728"><ele>195.60000000000002</ele><time>2026-04-03T16:05:34.997Z</time></trkpt><trkpt lat="45.50504872493698" lon="8.213318013108458"><ele>196.0</ele><time>2026-04-03T16:05:35.997Z</time></trkpt><trkpt lat="45.505080128369364" lon="8.213173211254096"><ele>196.20000000000002</ele><time>2026-04-03T16:05:36.997Z</time></trkpt><trkpt lat="45.505080280522726" lon="8.213022011560277"><ele>196.4</ele><time>2026-04-03T16:05:37.997Z</time></trkpt><trkpt lat="45.505049834291185" lon="8.212870914808509"><ele>196.6</ele><time>2026-04-03T16:05:38.996Z</time></trkpt><trkpt lat="45.505016230181596" lon="8.212731476882135"><ele>196.8</ele><time>2026-04-03T16:05:39.996Z</time></trkpt><trkpt lat="45.50500620353751" lon="8.212598988877719"><ele>197.0</ele><time>2026-04-03T16:05:40.996Z</time></trkpt><trkpt lat="45.505023363927144" lon="8.212478925017752"><ele>197.0</ele><time>2026-04-03T16:05:41.996Z</time></trkpt><trkpt lat="45.50505112668965" lon="8.212383566750967"><ele>197.0</ele><time>2026-04-03T16:05:42.996Z</time></trkpt><trkpt lat="45.5051522409418" lon="8.212339255435406"><ele>197.0</ele><time>2026-04-03T16:05:43.996Z</time></trkpt><trkpt lat="45.50524569480161" lon="8.212343256812138"><ele>197.0</ele><time>2026-04-03T16:05:44.996Z</time></trkpt><trkpt lat="45.50533319572047" lon="8.212400031452471"><ele>197.0</ele><time>2026-04-03T16:05:45.996Z</time></trkpt><trkpt lat="45.5054181417227" lon="8.212497988738782"><ele>197.5</ele><time>2026-04-03T16:05:46.996Z</time></trkpt><trkpt lat="45.50551258833521" lon="8.212603704058862"><ele>198.0</ele><time>2026-04-03T16:05:47.996Z</time></trkpt><trkpt lat="45.50563424329824" lon="8.212658736905576"><ele>198.5</ele><time>2026-04-03T16:05:48.996Z</time></trkpt><trkpt lat="45.50577229172224" lon="8.212666493654362"><ele>199.0</ele><time>2026-04-03T16:05:49.996Z</time></trkpt><trkpt lat="45.50590997187583" lon="8.212641150987082"><ele>199.0</ele><time>2026-04-03T16:05:50.996Z</time></trkpt><trkpt lat="45.506065673310594" lon="8.212581337343574"><ele>199.0</ele><time>2026-04-03T16:05:51.996Z</time></trkpt><trkpt lat="45.50623216224995" lon="8.212538189651685"><ele>199.0</ele><time>2026-04-03T16:05:52.996Z</time></trkpt><trkpt lat="45.50639005990066" lon="8.21248348301604"><ele>199.0</ele><time>2026-04-03T16:05:53.996Z</time></trkpt><trkpt lat="45.50653354786547" lon="8.212428236797864"><ele>199.0</ele><time>2026-04-03T16:05:54.996Z</time></trkpt><trkpt lat="45.50665342197336" lon="8.212387072127985"><ele>199.0</ele><time>2026-04-03T16:05:55.996Z</time></trkpt><trkpt lat="45.50674485592622" lon="8.212353236511856"><ele>199.0</ele><time>2026-04-03T16:05:56.996Z</time></trkpt><trkpt lat="45.50681178380384" lon="8.212326011050585"><ele>199.0</ele><time>2026-04-03T16:05:57.996Z</time></trkpt><trkpt lat="45.50687794925554" lon="8.212314105842133"><ele>199.0</ele><time>2026-04-03T16:05:59.996Z</time></trkpt><trkpt lat="45.50682792123835" lon="8.212081986507885"><ele>199.0</ele><time>2026-04-03T16:06:01.996Z</time></trkpt><trkpt lat="45.506780994419564" lon="8.211959307774563"><ele>199.0</ele><time>2026-04-03T16:06:02.996Z</time></trkpt><trkpt lat="45.506710465270956" lon="8.21180379955794"><ele>199.0</ele><time>2026-04-03T16:06:03.996Z</time></trkpt><trkpt lat="45.506632598411365" lon="8.21163096987495"><ele>199.0</ele><time>2026-04-03T16:06:04.996Z</time></trkpt><trkpt lat="45.50655035724836" lon="8.211487253622353"><ele>199.0</ele><time>2026-04-03T16:06:05.996Z</time></trkpt><trkpt lat="45.50648255138748" lon="8.211313866230446"><ele>199.0</ele><time>2026-04-03T16:06:06.996Z</time></trkpt><trkpt lat="45.50640091708736" lon="8.211125625189267"><ele>199.0</ele><time>2026-04-03T16:06:07.996Z</time></trkpt><trkpt lat="45.5063134694878" lon="8.210931397521234"><ele>199.0</ele><time>2026-04-03T16:06:08.996Z</time></trkpt><trkpt lat="45.50622890568759" lon="8.210751558908463"><ele>199.0</ele><time>2026-04-03T16:06:09.996Z</time></trkpt><trkpt lat="45.50614401501622" lon="8.210576876601799"><ele>199.0</ele><time>2026-04-03T16:06:10.996Z</time></trkpt><trkpt lat="45.50606011543502" lon="8.2104035129952"><ele>199.0</ele><time>2026-04-03T16:06:11.996Z</time></trkpt><trkpt lat="45.50597914022045" lon="8.210230229899121"><ele>199.75</ele><time>2026-04-03T16:06:12.996Z</time></trkpt><trkpt lat="45.505902481132765" lon="8.21005587864755"><ele>200.5</ele><time>2026-04-03T16:06:13.996Z</time></trkpt><trkpt lat="45.50583799235235" lon="8.209884611085753"><ele>201.25</ele><time>2026-04-03T16:06:14.996Z</time></trkpt><trkpt lat="45.50578628858808" lon="8.209711262352364"><ele>202.0</ele><time>2026-04-03T16:06:15.996Z</time></trkpt><trkpt lat="45.50575722527335" lon="8.209506923820339"><ele>202.0</ele><time>2026-04-03T16:06:16.996Z</time></trkpt><trkpt lat="45.50574496903098" lon="8.209285993772067"><ele>202.0</ele><time>2026-04-03T16:06:17.996Z</time></trkpt><trkpt lat="45.505731930355914" lon="8.209075012787125"><ele>202.0</ele><time>2026-04-03T16:06:18.996Z</time></trkpt><trkpt lat="45.505716845922116" lon="8.208877526623958"><ele>202.0</ele><time>2026-04-03T16:06:19.996Z</time></trkpt><trkpt lat="45.50570106835831" lon="8.208694254894855"><ele>202.8</ele><time>2026-04-03T16:06:20.996Z</time></trkpt><trkpt lat="45.505690422782806" lon="8.208521763342473"><ele>203.6</ele><time>2026-04-03T16:06:21.996Z</time></trkpt><trkpt lat="45.50570048680037" lon="8.208385303300497"><ele>204.4</ele><time>2026-04-03T16:06:22.996Z</time></trkpt><trkpt lat="45.50570489142028" lon="8.208268874294545"><ele>205.20000000000002</ele><time>2026-04-03T16:06:23.996Z</time></trkpt><trkpt lat="45.50570396790942" lon="8.208137090352608"><ele>206.0</ele><time>2026-04-03T16:06:25.996Z</time></trkpt><trkpt lat="45.50568970377348" lon="8.208041816517827"><ele>206.8</ele><time>2026-04-03T16:06:28.996Z</time></trkpt><trkpt lat="45.50578455998614" lon="8.207998522745008"><ele>207.60000000000002</ele><time>2026-04-03T16:06:29.996Z</time></trkpt><trkpt lat="45.50587831997007" lon="8.207966604770125"><ele>208.4</ele><time>2026-04-03T16:06:30.996Z</time></trkpt><trkpt lat="45.50597508784589" lon="8.2079311373563"><ele>209.2</ele><time>2026-04-03T16:06:31.996Z</time></trkpt><trkpt lat="45.50608075407798" lon="8.207889333005438"><ele>210.0</ele><time>2026-04-03T16:06:32.995Z</time></trkpt><trkpt lat="45.50620251397752" lon="8.207841161594326"><ele>209.8</ele><time>2026-04-03T16:06:33.995Z</time></trkpt><trkpt lat="45.506326623801236" lon="8.207791018100236"><ele>209.6</ele><time>2026-04-03T16:06:34.995Z</time></trkpt><trkpt lat="45.50643912169971" lon="8.207751918221874"><ele>209.39999999999998</ele><time>2026-04-03T16:06:35.994Z</time></trkpt><trkpt lat="45.5065370713404" lon="8.207730798639302"><ele>209.2</ele><time>2026-04-03T16:06:36.991Z</time></trkpt><trkpt lat="45.50661808939285" lon="8.20772125246406"><ele>209.0</ele><time>2026-04-03T16:06:37.988Z</time></trkpt><trkpt lat="45.50669191552499" lon="8.207710778456512"><ele>209.0</ele><time>2026-04-03T16:06:38.986Z</time></trkpt><trkpt lat="45.50676819563284" lon="8.207701946301757"><ele>209.0</ele><time>2026-04-03T16:06:39.984Z</time></trkpt><trkpt lat="45.50685222642991" lon="8.207692542307734"><ele>209.0</ele><time>2026-04-03T16:06:41.98Z</time></trkpt><trkpt lat="45.506883366127504" lon="8.207504759238152"><ele>209.0</ele><time>2026-04-03T16:06:45.973Z</time></trkpt><trkpt lat="45.506867913179" lon="8.207337634679261"><ele>209.0</ele><time>2026-04-03T16:06:47.97Z</time></trkpt><trkpt lat="45.50687785937839" lon="8.207238355220152"><ele>217.0</ele><time>2026-04-03T16:06:50.967Z</time></trkpt><trkpt lat="45.5069500869096" lon="8.207224408075179"><ele>217.0</ele><time>2026-04-03T16:06:53.964Z</time></trkpt></trkseg></trk></gpx>